<?xml version="1.0" encoding="UTF-8" standalone="no" ?>
<gpx xmlns="http://www.topografix.com/GPX/1/1" xmlns:xsi="http://www.w3.org/2001/XMLSchema-instance" xsi:schemaLocation="http://www.topografix.com/GPX/1/1 http://www.topografix.com/GPX/1/1/gpx.xsd" version="1.1" creator="VisuGPX - https://www.visugpx.com">
  <metadata>
    <name>Authon</name>
  </metadata>
  <trk>
    <name><![CDATA[Authon]]></name>
    <trkseg>
      <trkpt lat="44.23761" lon="6.12913">
        <ele>1133</ele>
        <time>2010-01-01T00:00:00Z</time>
      </trkpt>
      <trkpt lat="44.23841" lon="6.13007">
        <ele>1136</ele>
        <time>2010-01-01T00:00:27Z</time>
      </trkpt>
      <trkpt lat="44.23878" lon="6.12968">
        <ele>1141</ele>
        <time>2010-01-01T00:00:40Z</time>
      </trkpt>
      <trkpt lat="44.24013" lon="6.13041">
        <ele>1159</ele>
        <time>2010-01-01T00:01:18Z</time>
      </trkpt>
      <trkpt lat="44.24081" lon="6.13114">
        <ele>1159</ele>
        <time>2010-01-01T00:01:41Z</time>
      </trkpt>
      <trkpt lat="44.24228" lon="6.13265">
        <ele>1163</ele>
        <time>2010-01-01T00:02:30Z</time>
      </trkpt>
      <trkpt lat="44.24355" lon="6.13363">
        <ele>1168</ele>
        <time>2010-01-01T00:03:09Z</time>
      </trkpt>
      <trkpt lat="44.24473" lon="6.13447">
        <ele>1177</ele>
        <time>2010-01-01T00:03:44Z</time>
      </trkpt>
      <trkpt lat="44.24608" lon="6.13554">
        <ele>1185</ele>
        <time>2010-01-01T00:04:25Z</time>
      </trkpt>
      <trkpt lat="44.24708" lon="6.13747">
        <ele>1186</ele>
        <time>2010-01-01T00:05:11Z</time>
      </trkpt>
      <trkpt lat="44.24782" lon="6.1393">
        <ele>1193</ele>
        <time>2010-01-01T00:05:51Z</time>
      </trkpt>
      <trkpt lat="44.24828" lon="6.13947">
        <ele>1197</ele>
        <time>2010-01-01T00:06:04Z</time>
      </trkpt>
      <trkpt lat="44.24926" lon="6.1408">
        <ele>1213</ele>
        <time>2010-01-01T00:06:40Z</time>
      </trkpt>
      <trkpt lat="44.24944" lon="6.14312">
        <ele>1219</ele>
        <time>2010-01-01T00:07:25Z</time>
      </trkpt>
      <trkpt lat="44.24921" lon="6.14472">
        <ele>1228</ele>
        <time>2010-01-01T00:07:56Z</time>
      </trkpt>
      <trkpt lat="44.24921" lon="6.14472">
        <ele>1228</ele>
        <time>2010-01-01T00:07:56Z</time>
      </trkpt>
      <trkpt lat="44.24921" lon="6.14473">
        <ele>1228</ele>
        <time>2010-01-01T00:07:56Z</time>
      </trkpt>
      <trkpt lat="44.24923" lon="6.14473">
        <ele>1229</ele>
        <time>2010-01-01T00:07:57Z</time>
      </trkpt>
      <trkpt lat="44.24925" lon="6.14479">
        <ele>1229</ele>
        <time>2010-01-01T00:07:58Z</time>
      </trkpt>
      <trkpt lat="44.24926" lon="6.1448">
        <ele>1229</ele>
        <time>2010-01-01T00:07:58Z</time>
      </trkpt>
      <trkpt lat="44.24929" lon="6.14489">
        <ele>1229</ele>
        <time>2010-01-01T00:08:00Z</time>
      </trkpt>
      <trkpt lat="44.2493" lon="6.14493">
        <ele>1229</ele>
        <time>2010-01-01T00:08:01Z</time>
      </trkpt>
      <trkpt lat="44.24931" lon="6.14495">
        <ele>1229</ele>
        <time>2010-01-01T00:08:02Z</time>
      </trkpt>
      <trkpt lat="44.24934" lon="6.14499">
        <ele>1229</ele>
        <time>2010-01-01T00:08:03Z</time>
      </trkpt>
      <trkpt lat="44.24937" lon="6.14508">
        <ele>1229</ele>
        <time>2010-01-01T00:08:04Z</time>
      </trkpt>
      <trkpt lat="44.24938" lon="6.14509">
        <ele>1229</ele>
        <time>2010-01-01T00:08:05Z</time>
      </trkpt>
      <trkpt lat="44.24939" lon="6.14511">
        <ele>1229</ele>
        <time>2010-01-01T00:08:05Z</time>
      </trkpt>
      <trkpt lat="44.24947" lon="6.14525">
        <ele>1229</ele>
        <time>2010-01-01T00:08:09Z</time>
      </trkpt>
      <trkpt lat="44.24952" lon="6.14533">
        <ele>1231</ele>
        <time>2010-01-01T00:08:11Z</time>
      </trkpt>
      <trkpt lat="44.24954" lon="6.14534">
        <ele>1232</ele>
        <time>2010-01-01T00:08:11Z</time>
      </trkpt>
      <trkpt lat="44.24956" lon="6.14536">
        <ele>1232</ele>
        <time>2010-01-01T00:08:12Z</time>
      </trkpt>
      <trkpt lat="44.24965" lon="6.14549">
        <ele>1235</ele>
        <time>2010-01-01T00:08:15Z</time>
      </trkpt>
      <trkpt lat="44.24968" lon="6.14555">
        <ele>1235</ele>
        <time>2010-01-01T00:08:17Z</time>
      </trkpt>
      <trkpt lat="44.24969" lon="6.14563">
        <ele>1236</ele>
        <time>2010-01-01T00:08:18Z</time>
      </trkpt>
      <trkpt lat="44.24974" lon="6.14579">
        <ele>1236</ele>
        <time>2010-01-01T00:08:22Z</time>
      </trkpt>
      <trkpt lat="44.24975" lon="6.14582">
        <ele>1236</ele>
        <time>2010-01-01T00:08:22Z</time>
      </trkpt>
      <trkpt lat="44.2498" lon="6.14592">
        <ele>1238</ele>
        <time>2010-01-01T00:08:25Z</time>
      </trkpt>
      <trkpt lat="44.24993" lon="6.14614">
        <ele>1241</ele>
        <time>2010-01-01T00:08:30Z</time>
      </trkpt>
      <trkpt lat="44.24995" lon="6.14617">
        <ele>1241</ele>
        <time>2010-01-01T00:08:31Z</time>
      </trkpt>
      <trkpt lat="44.25004" lon="6.14631">
        <ele>1241</ele>
        <time>2010-01-01T00:08:35Z</time>
      </trkpt>
      <trkpt lat="44.25006" lon="6.14634">
        <ele>1241</ele>
        <time>2010-01-01T00:08:35Z</time>
      </trkpt>
      <trkpt lat="44.25013" lon="6.14646">
        <ele>1240</ele>
        <time>2010-01-01T00:08:38Z</time>
      </trkpt>
      <trkpt lat="44.25015" lon="6.14651">
        <ele>1240</ele>
        <time>2010-01-01T00:08:39Z</time>
      </trkpt>
      <trkpt lat="44.25018" lon="6.14658">
        <ele>1239</ele>
        <time>2010-01-01T00:08:41Z</time>
      </trkpt>
      <trkpt lat="44.25018" lon="6.14661">
        <ele>1239</ele>
        <time>2010-01-01T00:08:41Z</time>
      </trkpt>
      <trkpt lat="44.25024" lon="6.14678">
        <ele>1237</ele>
        <time>2010-01-01T00:08:45Z</time>
      </trkpt>
      <trkpt lat="44.25024" lon="6.14681">
        <ele>1237</ele>
        <time>2010-01-01T00:08:45Z</time>
      </trkpt>
      <trkpt lat="44.25026" lon="6.14687">
        <ele>1236</ele>
        <time>2010-01-01T00:08:47Z</time>
      </trkpt>
      <trkpt lat="44.25028" lon="6.14699">
        <ele>1235</ele>
        <time>2010-01-01T00:08:49Z</time>
      </trkpt>
      <trkpt lat="44.25031" lon="6.14705">
        <ele>1236</ele>
        <time>2010-01-01T00:08:50Z</time>
      </trkpt>
      <trkpt lat="44.25034" lon="6.14718">
        <ele>1238</ele>
        <time>2010-01-01T00:08:53Z</time>
      </trkpt>
      <trkpt lat="44.25041" lon="6.14732">
        <ele>1239</ele>
        <time>2010-01-01T00:08:56Z</time>
      </trkpt>
      <trkpt lat="44.25047" lon="6.14742">
        <ele>1240</ele>
        <time>2010-01-01T00:08:59Z</time>
      </trkpt>
      <trkpt lat="44.25049" lon="6.14746">
        <ele>1240</ele>
        <time>2010-01-01T00:09:00Z</time>
      </trkpt>
      <trkpt lat="44.25055" lon="6.14756">
        <ele>1240</ele>
        <time>2010-01-01T00:09:02Z</time>
      </trkpt>
      <trkpt lat="44.2506" lon="6.14762">
        <ele>1242</ele>
        <time>2010-01-01T00:09:04Z</time>
      </trkpt>
      <trkpt lat="44.25066" lon="6.1477">
        <ele>1243</ele>
        <time>2010-01-01T00:09:06Z</time>
      </trkpt>
      <trkpt lat="44.25074" lon="6.14775">
        <ele>1244</ele>
        <time>2010-01-01T00:09:08Z</time>
      </trkpt>
      <trkpt lat="44.25085" lon="6.1478">
        <ele>1246</ele>
        <time>2010-01-01T00:09:12Z</time>
      </trkpt>
      <trkpt lat="44.25098" lon="6.14791">
        <ele>1251</ele>
        <time>2010-01-01T00:09:16Z</time>
      </trkpt>
      <trkpt lat="44.251" lon="6.14793">
        <ele>1252</ele>
        <time>2010-01-01T00:09:16Z</time>
      </trkpt>
      <trkpt lat="44.25113" lon="6.14813">
        <ele>1254</ele>
        <time>2010-01-01T00:09:22Z</time>
      </trkpt>
      <trkpt lat="44.25114" lon="6.14832">
        <ele>1252</ele>
        <time>2010-01-01T00:09:25Z</time>
      </trkpt>
      <trkpt lat="44.25105" lon="6.14842">
        <ele>1251</ele>
        <time>2010-01-01T00:09:28Z</time>
      </trkpt>
      <trkpt lat="44.251" lon="6.14845">
        <ele>1251</ele>
        <time>2010-01-01T00:09:30Z</time>
      </trkpt>
      <trkpt lat="44.25098" lon="6.14848">
        <ele>1251</ele>
        <time>2010-01-01T00:09:31Z</time>
      </trkpt>
      <trkpt lat="44.25096" lon="6.14849">
        <ele>1251</ele>
        <time>2010-01-01T00:09:31Z</time>
      </trkpt>
      <trkpt lat="44.2509" lon="6.14858">
        <ele>1251</ele>
        <time>2010-01-01T00:09:33Z</time>
      </trkpt>
      <trkpt lat="44.25087" lon="6.14864">
        <ele>1252</ele>
        <time>2010-01-01T00:09:35Z</time>
      </trkpt>
      <trkpt lat="44.25085" lon="6.14869">
        <ele>1252</ele>
        <time>2010-01-01T00:09:36Z</time>
      </trkpt>
      <trkpt lat="44.25084" lon="6.14876">
        <ele>1253</ele>
        <time>2010-01-01T00:09:37Z</time>
      </trkpt>
      <trkpt lat="44.25085" lon="6.14882">
        <ele>1253</ele>
        <time>2010-01-01T00:09:38Z</time>
      </trkpt>
      <trkpt lat="44.2509" lon="6.14894">
        <ele>1255</ele>
        <time>2010-01-01T00:09:41Z</time>
      </trkpt>
      <trkpt lat="44.25091" lon="6.14896">
        <ele>1255</ele>
        <time>2010-01-01T00:09:41Z</time>
      </trkpt>
      <trkpt lat="44.25095" lon="6.14899">
        <ele>1256</ele>
        <time>2010-01-01T00:09:43Z</time>
      </trkpt>
      <trkpt lat="44.25099" lon="6.14902">
        <ele>1256</ele>
        <time>2010-01-01T00:09:44Z</time>
      </trkpt>
      <trkpt lat="44.25105" lon="6.14907">
        <ele>1256</ele>
        <time>2010-01-01T00:09:46Z</time>
      </trkpt>
      <trkpt lat="44.25114" lon="6.14914">
        <ele>1256</ele>
        <time>2010-01-01T00:09:48Z</time>
      </trkpt>
      <trkpt lat="44.25119" lon="6.14923">
        <ele>1257</ele>
        <time>2010-01-01T00:09:51Z</time>
      </trkpt>
      <trkpt lat="44.25122" lon="6.14927">
        <ele>1258</ele>
        <time>2010-01-01T00:09:52Z</time>
      </trkpt>
      <trkpt lat="44.25125" lon="6.14933">
        <ele>1258</ele>
        <time>2010-01-01T00:09:53Z</time>
      </trkpt>
      <trkpt lat="44.25126" lon="6.14935">
        <ele>1258</ele>
        <time>2010-01-01T00:09:54Z</time>
      </trkpt>
      <trkpt lat="44.25127" lon="6.14937">
        <ele>1259</ele>
        <time>2010-01-01T00:09:54Z</time>
      </trkpt>
      <trkpt lat="44.25128" lon="6.14939">
        <ele>1259</ele>
        <time>2010-01-01T00:09:55Z</time>
      </trkpt>
      <trkpt lat="44.2513" lon="6.14943">
        <ele>1259</ele>
        <time>2010-01-01T00:09:56Z</time>
      </trkpt>
      <trkpt lat="44.25134" lon="6.14949">
        <ele>1260</ele>
        <time>2010-01-01T00:09:57Z</time>
      </trkpt>
      <trkpt lat="44.25138" lon="6.14953">
        <ele>1260</ele>
        <time>2010-01-01T00:09:58Z</time>
      </trkpt>
      <trkpt lat="44.25142" lon="6.14957">
        <ele>1261</ele>
        <time>2010-01-01T00:10:00Z</time>
      </trkpt>
      <trkpt lat="44.2515" lon="6.14964">
        <ele>1263</ele>
        <time>2010-01-01T00:10:02Z</time>
      </trkpt>
      <trkpt lat="44.25152" lon="6.14965">
        <ele>1263</ele>
        <time>2010-01-01T00:10:03Z</time>
      </trkpt>
      <trkpt lat="44.25156" lon="6.14972">
        <ele>1265</ele>
        <time>2010-01-01T00:10:04Z</time>
      </trkpt>
      <trkpt lat="44.25159" lon="6.14976">
        <ele>1266</ele>
        <time>2010-01-01T00:10:06Z</time>
      </trkpt>
      <trkpt lat="44.25159" lon="6.14978">
        <ele>1266</ele>
        <time>2010-01-01T00:10:06Z</time>
      </trkpt>
      <trkpt lat="44.25161" lon="6.14985">
        <ele>1267</ele>
        <time>2010-01-01T00:10:07Z</time>
      </trkpt>
      <trkpt lat="44.25164" lon="6.1499">
        <ele>1268</ele>
        <time>2010-01-01T00:10:08Z</time>
      </trkpt>
      <trkpt lat="44.25166" lon="6.14998">
        <ele>1269</ele>
        <time>2010-01-01T00:10:10Z</time>
      </trkpt>
      <trkpt lat="44.25169" lon="6.15011">
        <ele>1272</ele>
        <time>2010-01-01T00:10:13Z</time>
      </trkpt>
      <trkpt lat="44.25169" lon="6.15013">
        <ele>1272</ele>
        <time>2010-01-01T00:10:13Z</time>
      </trkpt>
      <trkpt lat="44.25168" lon="6.15015">
        <ele>1272</ele>
        <time>2010-01-01T00:10:14Z</time>
      </trkpt>
      <trkpt lat="44.25167" lon="6.15019">
        <ele>1272</ele>
        <time>2010-01-01T00:10:15Z</time>
      </trkpt>
      <trkpt lat="44.25166" lon="6.15022">
        <ele>1273</ele>
        <time>2010-01-01T00:10:15Z</time>
      </trkpt>
      <trkpt lat="44.25166" lon="6.15026">
        <ele>1273</ele>
        <time>2010-01-01T00:10:16Z</time>
      </trkpt>
      <trkpt lat="44.25166" lon="6.1503">
        <ele>1274</ele>
        <time>2010-01-01T00:10:17Z</time>
      </trkpt>
      <trkpt lat="44.25166" lon="6.15035">
        <ele>1274</ele>
        <time>2010-01-01T00:10:18Z</time>
      </trkpt>
      <trkpt lat="44.25168" lon="6.15041">
        <ele>1275</ele>
        <time>2010-01-01T00:10:19Z</time>
      </trkpt>
      <trkpt lat="44.25171" lon="6.15054">
        <ele>1276</ele>
        <time>2010-01-01T00:10:22Z</time>
      </trkpt>
      <trkpt lat="44.25174" lon="6.15059">
        <ele>1277</ele>
        <time>2010-01-01T00:10:23Z</time>
      </trkpt>
      <trkpt lat="44.25178" lon="6.15072">
        <ele>1278</ele>
        <time>2010-01-01T00:10:25Z</time>
      </trkpt>
      <trkpt lat="44.25179" lon="6.15078">
        <ele>1278</ele>
        <time>2010-01-01T00:10:26Z</time>
      </trkpt>
      <trkpt lat="44.2518" lon="6.15088">
        <ele>1279</ele>
        <time>2010-01-01T00:10:28Z</time>
      </trkpt>
      <trkpt lat="44.2518" lon="6.1509">
        <ele>1279</ele>
        <time>2010-01-01T00:10:29Z</time>
      </trkpt>
      <trkpt lat="44.2518" lon="6.151">
        <ele>1280</ele>
        <time>2010-01-01T00:10:31Z</time>
      </trkpt>
      <trkpt lat="44.25178" lon="6.15105">
        <ele>1280</ele>
        <time>2010-01-01T00:10:32Z</time>
      </trkpt>
      <trkpt lat="44.25177" lon="6.15113">
        <ele>1280</ele>
        <time>2010-01-01T00:10:33Z</time>
      </trkpt>
      <trkpt lat="44.25173" lon="6.15124">
        <ele>1281</ele>
        <time>2010-01-01T00:10:36Z</time>
      </trkpt>
      <trkpt lat="44.25172" lon="6.15126">
        <ele>1281</ele>
        <time>2010-01-01T00:10:36Z</time>
      </trkpt>
      <trkpt lat="44.25169" lon="6.15133">
        <ele>1281</ele>
        <time>2010-01-01T00:10:38Z</time>
      </trkpt>
      <trkpt lat="44.25167" lon="6.15139">
        <ele>1282</ele>
        <time>2010-01-01T00:10:39Z</time>
      </trkpt>
      <trkpt lat="44.25167" lon="6.15141">
        <ele>1282</ele>
        <time>2010-01-01T00:10:39Z</time>
      </trkpt>
      <trkpt lat="44.25168" lon="6.15144">
        <ele>1282</ele>
        <time>2010-01-01T00:10:40Z</time>
      </trkpt>
      <trkpt lat="44.25171" lon="6.15149">
        <ele>1283</ele>
        <time>2010-01-01T00:10:41Z</time>
      </trkpt>
      <trkpt lat="44.25174" lon="6.15153">
        <ele>1285</ele>
        <time>2010-01-01T00:10:42Z</time>
      </trkpt>
      <trkpt lat="44.2518" lon="6.15153">
        <ele>1286</ele>
        <time>2010-01-01T00:10:44Z</time>
      </trkpt>
      <trkpt lat="44.25183" lon="6.15148">
        <ele>1286</ele>
        <time>2010-01-01T00:10:45Z</time>
      </trkpt>
      <trkpt lat="44.25186" lon="6.15143">
        <ele>1285</ele>
        <time>2010-01-01T00:10:46Z</time>
      </trkpt>
      <trkpt lat="44.25191" lon="6.15135">
        <ele>1285</ele>
        <time>2010-01-01T00:10:48Z</time>
      </trkpt>
      <trkpt lat="44.25191" lon="6.15133">
        <ele>1284</ele>
        <time>2010-01-01T00:10:49Z</time>
      </trkpt>
      <trkpt lat="44.25194" lon="6.15127">
        <ele>1284</ele>
        <time>2010-01-01T00:10:50Z</time>
      </trkpt>
      <trkpt lat="44.25197" lon="6.1512">
        <ele>1284</ele>
        <time>2010-01-01T00:10:52Z</time>
      </trkpt>
      <trkpt lat="44.25198" lon="6.15118">
        <ele>1284</ele>
        <time>2010-01-01T00:10:52Z</time>
      </trkpt>
      <trkpt lat="44.25203" lon="6.15108">
        <ele>1285</ele>
        <time>2010-01-01T00:10:54Z</time>
      </trkpt>
      <trkpt lat="44.25205" lon="6.15104">
        <ele>1285</ele>
        <time>2010-01-01T00:10:55Z</time>
      </trkpt>
      <trkpt lat="44.25208" lon="6.15096">
        <ele>1286</ele>
        <time>2010-01-01T00:10:57Z</time>
      </trkpt>
      <trkpt lat="44.2521" lon="6.15092">
        <ele>1286</ele>
        <time>2010-01-01T00:10:58Z</time>
      </trkpt>
      <trkpt lat="44.25219" lon="6.15079">
        <ele>1288</ele>
        <time>2010-01-01T00:11:01Z</time>
      </trkpt>
      <trkpt lat="44.2522" lon="6.15078">
        <ele>1289</ele>
        <time>2010-01-01T00:11:02Z</time>
      </trkpt>
      <trkpt lat="44.25225" lon="6.15073">
        <ele>1291</ele>
        <time>2010-01-01T00:11:04Z</time>
      </trkpt>
      <trkpt lat="44.25228" lon="6.1507">
        <ele>1292</ele>
        <time>2010-01-01T00:11:04Z</time>
      </trkpt>
      <trkpt lat="44.25236" lon="6.15062">
        <ele>1295</ele>
        <time>2010-01-01T00:11:07Z</time>
      </trkpt>
      <trkpt lat="44.25239" lon="6.1506">
        <ele>1296</ele>
        <time>2010-01-01T00:11:08Z</time>
      </trkpt>
      <trkpt lat="44.2524" lon="6.15058">
        <ele>1296</ele>
        <time>2010-01-01T00:11:09Z</time>
      </trkpt>
      <trkpt lat="44.25243" lon="6.15055">
        <ele>1297</ele>
        <time>2010-01-01T00:11:10Z</time>
      </trkpt>
      <trkpt lat="44.25245" lon="6.15053">
        <ele>1297</ele>
        <time>2010-01-01T00:11:10Z</time>
      </trkpt>
      <trkpt lat="44.25247" lon="6.1505">
        <ele>1297</ele>
        <time>2010-01-01T00:11:11Z</time>
      </trkpt>
      <trkpt lat="44.25251" lon="6.15045">
        <ele>1297</ele>
        <time>2010-01-01T00:11:12Z</time>
      </trkpt>
      <trkpt lat="44.25252" lon="6.15044">
        <ele>1297</ele>
        <time>2010-01-01T00:11:13Z</time>
      </trkpt>
      <trkpt lat="44.25254" lon="6.15037">
        <ele>1295</ele>
        <time>2010-01-01T00:11:14Z</time>
      </trkpt>
      <trkpt lat="44.25255" lon="6.15036">
        <ele>1295</ele>
        <time>2010-01-01T00:11:14Z</time>
      </trkpt>
      <trkpt lat="44.25256" lon="6.15034">
        <ele>1295</ele>
        <time>2010-01-01T00:11:15Z</time>
      </trkpt>
      <trkpt lat="44.25258" lon="6.15031">
        <ele>1295</ele>
        <time>2010-01-01T00:11:16Z</time>
      </trkpt>
      <trkpt lat="44.25259" lon="6.15029">
        <ele>1295</ele>
        <time>2010-01-01T00:11:16Z</time>
      </trkpt>
      <trkpt lat="44.25261" lon="6.15027">
        <ele>1295</ele>
        <time>2010-01-01T00:11:17Z</time>
      </trkpt>
      <trkpt lat="44.25263" lon="6.15026">
        <ele>1295</ele>
        <time>2010-01-01T00:11:17Z</time>
      </trkpt>
      <trkpt lat="44.25266" lon="6.15021">
        <ele>1294</ele>
        <time>2010-01-01T00:11:19Z</time>
      </trkpt>
      <trkpt lat="44.25268" lon="6.15019">
        <ele>1294</ele>
        <time>2010-01-01T00:11:19Z</time>
      </trkpt>
      <trkpt lat="44.25269" lon="6.15017">
        <ele>1294</ele>
        <time>2010-01-01T00:11:20Z</time>
      </trkpt>
      <trkpt lat="44.25274" lon="6.15012">
        <ele>1293</ele>
        <time>2010-01-01T00:11:21Z</time>
      </trkpt>
      <trkpt lat="44.25277" lon="6.15011">
        <ele>1293</ele>
        <time>2010-01-01T00:11:22Z</time>
      </trkpt>
      <trkpt lat="44.2528" lon="6.15009">
        <ele>1293</ele>
        <time>2010-01-01T00:11:23Z</time>
      </trkpt>
      <trkpt lat="44.2528" lon="6.15009">
        <ele>1293</ele>
        <time>2010-01-01T00:11:23Z</time>
      </trkpt>
      <trkpt lat="44.25282" lon="6.15008">
        <ele>1293</ele>
        <time>2010-01-01T00:11:23Z</time>
      </trkpt>
      <trkpt lat="44.25282" lon="6.15008">
        <ele>1294</ele>
        <time>2010-01-01T00:11:24Z</time>
      </trkpt>
      <trkpt lat="44.25285" lon="6.15008">
        <ele>1294</ele>
        <time>2010-01-01T00:11:24Z</time>
      </trkpt>
      <trkpt lat="44.2529" lon="6.15009">
        <ele>1297</ele>
        <time>2010-01-01T00:11:26Z</time>
      </trkpt>
      <trkpt lat="44.25291" lon="6.15009">
        <ele>1297</ele>
        <time>2010-01-01T00:11:26Z</time>
      </trkpt>
      <trkpt lat="44.25294" lon="6.15009">
        <ele>1298</ele>
        <time>2010-01-01T00:11:27Z</time>
      </trkpt>
      <trkpt lat="44.25297" lon="6.15008">
        <ele>1299</ele>
        <time>2010-01-01T00:11:28Z</time>
      </trkpt>
      <trkpt lat="44.25303" lon="6.15009">
        <ele>1301</ele>
        <time>2010-01-01T00:11:29Z</time>
      </trkpt>
      <trkpt lat="44.25311" lon="6.15009">
        <ele>1302</ele>
        <time>2010-01-01T00:11:31Z</time>
      </trkpt>
      <trkpt lat="44.25317" lon="6.15006">
        <ele>1302</ele>
        <time>2010-01-01T00:11:33Z</time>
      </trkpt>
      <trkpt lat="44.2532" lon="6.15003">
        <ele>1301</ele>
        <time>2010-01-01T00:11:34Z</time>
      </trkpt>
      <trkpt lat="44.25324" lon="6.15">
        <ele>1300</ele>
        <time>2010-01-01T00:11:35Z</time>
      </trkpt>
      <trkpt lat="44.25336" lon="6.14992">
        <ele>1299</ele>
        <time>2010-01-01T00:11:39Z</time>
      </trkpt>
      <trkpt lat="44.25344" lon="6.14987">
        <ele>1297</ele>
        <time>2010-01-01T00:11:41Z</time>
      </trkpt>
      <trkpt lat="44.25351" lon="6.14984">
        <ele>1296</ele>
        <time>2010-01-01T00:11:43Z</time>
      </trkpt>
      <trkpt lat="44.25354" lon="6.14983">
        <ele>1296</ele>
        <time>2010-01-01T00:11:44Z</time>
      </trkpt>
      <trkpt lat="44.25363" lon="6.14982">
        <ele>1296</ele>
        <time>2010-01-01T00:11:46Z</time>
      </trkpt>
      <trkpt lat="44.25373" lon="6.14989">
        <ele>1298</ele>
        <time>2010-01-01T00:11:49Z</time>
      </trkpt>
      <trkpt lat="44.25375" lon="6.14991">
        <ele>1299</ele>
        <time>2010-01-01T00:11:50Z</time>
      </trkpt>
      <trkpt lat="44.2538" lon="6.14995">
        <ele>1300</ele>
        <time>2010-01-01T00:11:52Z</time>
      </trkpt>
      <trkpt lat="44.25386" lon="6.15">
        <ele>1302</ele>
        <time>2010-01-01T00:11:53Z</time>
      </trkpt>
      <trkpt lat="44.25388" lon="6.15001">
        <ele>1302</ele>
        <time>2010-01-01T00:11:54Z</time>
      </trkpt>
      <trkpt lat="44.25398" lon="6.15004">
        <ele>1306</ele>
        <time>2010-01-01T00:11:57Z</time>
      </trkpt>
      <trkpt lat="44.25401" lon="6.15005">
        <ele>1307</ele>
        <time>2010-01-01T00:11:58Z</time>
      </trkpt>
      <trkpt lat="44.25403" lon="6.15004">
        <ele>1306</ele>
        <time>2010-01-01T00:11:58Z</time>
      </trkpt>
      <trkpt lat="44.25405" lon="6.15003">
        <ele>1306</ele>
        <time>2010-01-01T00:11:59Z</time>
      </trkpt>
      <trkpt lat="44.25414" lon="6.15002">
        <ele>1307</ele>
        <time>2010-01-01T00:12:01Z</time>
      </trkpt>
      <trkpt lat="44.25415" lon="6.15002">
        <ele>1307</ele>
        <time>2010-01-01T00:12:01Z</time>
      </trkpt>
      <trkpt lat="44.25423" lon="6.15003">
        <ele>1308</ele>
        <time>2010-01-01T00:12:04Z</time>
      </trkpt>
      <trkpt lat="44.25425" lon="6.15004">
        <ele>1309</ele>
        <time>2010-01-01T00:12:04Z</time>
      </trkpt>
      <trkpt lat="44.25436" lon="6.1501">
        <ele>1312</ele>
        <time>2010-01-01T00:12:07Z</time>
      </trkpt>
      <trkpt lat="44.2544" lon="6.15012">
        <ele>1314</ele>
        <time>2010-01-01T00:12:08Z</time>
      </trkpt>
      <trkpt lat="44.25445" lon="6.15015">
        <ele>1314</ele>
        <time>2010-01-01T00:12:10Z</time>
      </trkpt>
      <trkpt lat="44.25452" lon="6.15017">
        <ele>1315</ele>
        <time>2010-01-01T00:12:12Z</time>
      </trkpt>
      <trkpt lat="44.25454" lon="6.15018">
        <ele>1315</ele>
        <time>2010-01-01T00:12:12Z</time>
      </trkpt>
      <trkpt lat="44.25463" lon="6.15021">
        <ele>1315</ele>
        <time>2010-01-01T00:12:15Z</time>
      </trkpt>
      <trkpt lat="44.2547" lon="6.15025">
        <ele>1314</ele>
        <time>2010-01-01T00:12:17Z</time>
      </trkpt>
      <trkpt lat="44.25473" lon="6.15024">
        <ele>1314</ele>
        <time>2010-01-01T00:12:18Z</time>
      </trkpt>
      <trkpt lat="44.25479" lon="6.15026">
        <ele>1314</ele>
        <time>2010-01-01T00:12:19Z</time>
      </trkpt>
      <trkpt lat="44.25486" lon="6.1503">
        <ele>1314</ele>
        <time>2010-01-01T00:12:21Z</time>
      </trkpt>
      <trkpt lat="44.25493" lon="6.15034">
        <ele>1315</ele>
        <time>2010-01-01T00:12:23Z</time>
      </trkpt>
      <trkpt lat="44.25498" lon="6.15041">
        <ele>1315</ele>
        <time>2010-01-01T00:12:25Z</time>
      </trkpt>
      <trkpt lat="44.255" lon="6.15047">
        <ele>1316</ele>
        <time>2010-01-01T00:12:26Z</time>
      </trkpt>
      <trkpt lat="44.25501" lon="6.15059">
        <ele>1319</ele>
        <time>2010-01-01T00:12:29Z</time>
      </trkpt>
      <trkpt lat="44.25501" lon="6.15069">
        <ele>1322</ele>
        <time>2010-01-01T00:12:31Z</time>
      </trkpt>
      <trkpt lat="44.25502" lon="6.15084">
        <ele>1327</ele>
        <time>2010-01-01T00:12:34Z</time>
      </trkpt>
      <trkpt lat="44.25503" lon="6.15106">
        <ele>1333</ele>
        <time>2010-01-01T00:12:38Z</time>
      </trkpt>
      <trkpt lat="44.25505" lon="6.15135">
        <ele>1338</ele>
        <time>2010-01-01T00:12:43Z</time>
      </trkpt>
      <trkpt lat="44.25512" lon="6.15166">
        <ele>1339</ele>
        <time>2010-01-01T00:12:49Z</time>
      </trkpt>
      <trkpt lat="44.25526" lon="6.15195">
        <ele>1329</ele>
        <time>2010-01-01T00:12:56Z</time>
      </trkpt>
      <trkpt lat="44.25542" lon="6.15213">
        <ele>1328</ele>
        <time>2010-01-01T00:13:02Z</time>
      </trkpt>
      <trkpt lat="44.25547" lon="6.1523">
        <ele>1330</ele>
        <time>2010-01-01T00:13:05Z</time>
      </trkpt>
      <trkpt lat="44.25547" lon="6.15257">
        <ele>1334</ele>
        <time>2010-01-01T00:13:10Z</time>
      </trkpt>
      <trkpt lat="44.25547" lon="6.1527">
        <ele>1334</ele>
        <time>2010-01-01T00:13:13Z</time>
      </trkpt>
      <trkpt lat="44.25549" lon="6.15281">
        <ele>1335</ele>
        <time>2010-01-01T00:13:15Z</time>
      </trkpt>
      <trkpt lat="44.25551" lon="6.15287">
        <ele>1335</ele>
        <time>2010-01-01T00:13:16Z</time>
      </trkpt>
      <trkpt lat="44.25554" lon="6.15303">
        <ele>1336</ele>
        <time>2010-01-01T00:13:20Z</time>
      </trkpt>
      <trkpt lat="44.25552" lon="6.15329">
        <ele>1339</ele>
        <time>2010-01-01T00:13:24Z</time>
      </trkpt>
      <trkpt lat="44.25552" lon="6.15333">
        <ele>1340</ele>
        <time>2010-01-01T00:13:25Z</time>
      </trkpt>
      <trkpt lat="44.25555" lon="6.15359">
        <ele>1340</ele>
        <time>2010-01-01T00:13:30Z</time>
      </trkpt>
      <trkpt lat="44.25558" lon="6.15366">
        <ele>1341</ele>
        <time>2010-01-01T00:13:32Z</time>
      </trkpt>
      <trkpt lat="44.25565" lon="6.15374">
        <ele>1342</ele>
        <time>2010-01-01T00:13:34Z</time>
      </trkpt>
      <trkpt lat="44.25571" lon="6.15374">
        <ele>1342</ele>
        <time>2010-01-01T00:13:36Z</time>
      </trkpt>
      <trkpt lat="44.25575" lon="6.15368">
        <ele>1341</ele>
        <time>2010-01-01T00:13:38Z</time>
      </trkpt>
      <trkpt lat="44.25576" lon="6.15364">
        <ele>1341</ele>
        <time>2010-01-01T00:13:38Z</time>
      </trkpt>
      <trkpt lat="44.25577" lon="6.1536">
        <ele>1341</ele>
        <time>2010-01-01T00:13:39Z</time>
      </trkpt>
      <trkpt lat="44.25578" lon="6.15351">
        <ele>1341</ele>
        <time>2010-01-01T00:13:41Z</time>
      </trkpt>
      <trkpt lat="44.25578" lon="6.15348">
        <ele>1341</ele>
        <time>2010-01-01T00:13:41Z</time>
      </trkpt>
      <trkpt lat="44.25578" lon="6.15345">
        <ele>1340</ele>
        <time>2010-01-01T00:13:42Z</time>
      </trkpt>
      <trkpt lat="44.25579" lon="6.15339">
        <ele>1340</ele>
        <time>2010-01-01T00:13:43Z</time>
      </trkpt>
      <trkpt lat="44.25581" lon="6.15328">
        <ele>1340</ele>
        <time>2010-01-01T00:13:45Z</time>
      </trkpt>
      <trkpt lat="44.25582" lon="6.15325">
        <ele>1340</ele>
        <time>2010-01-01T00:13:46Z</time>
      </trkpt>
      <trkpt lat="44.25585" lon="6.15313">
        <ele>1341</ele>
        <time>2010-01-01T00:13:48Z</time>
      </trkpt>
      <trkpt lat="44.25587" lon="6.15305">
        <ele>1343</ele>
        <time>2010-01-01T00:13:50Z</time>
      </trkpt>
      <trkpt lat="44.25588" lon="6.15302">
        <ele>1343</ele>
        <time>2010-01-01T00:13:51Z</time>
      </trkpt>
      <trkpt lat="44.25588" lon="6.15292">
        <ele>1344</ele>
        <time>2010-01-01T00:13:53Z</time>
      </trkpt>
      <trkpt lat="44.25587" lon="6.15286">
        <ele>1345</ele>
        <time>2010-01-01T00:13:54Z</time>
      </trkpt>
      <trkpt lat="44.25589" lon="6.15284">
        <ele>1345</ele>
        <time>2010-01-01T00:13:54Z</time>
      </trkpt>
      <trkpt lat="44.25589" lon="6.15279">
        <ele>1346</ele>
        <time>2010-01-01T00:13:55Z</time>
      </trkpt>
      <trkpt lat="44.25589" lon="6.15277">
        <ele>1346</ele>
        <time>2010-01-01T00:13:55Z</time>
      </trkpt>
      <trkpt lat="44.25588" lon="6.15275">
        <ele>1345</ele>
        <time>2010-01-01T00:13:56Z</time>
      </trkpt>
      <trkpt lat="44.25588" lon="6.15267">
        <ele>1345</ele>
        <time>2010-01-01T00:13:57Z</time>
      </trkpt>
      <trkpt lat="44.25589" lon="6.1526">
        <ele>1345</ele>
        <time>2010-01-01T00:13:59Z</time>
      </trkpt>
      <trkpt lat="44.2559" lon="6.15258">
        <ele>1345</ele>
        <time>2010-01-01T00:13:59Z</time>
      </trkpt>
      <trkpt lat="44.25593" lon="6.15246">
        <ele>1346</ele>
        <time>2010-01-01T00:14:02Z</time>
      </trkpt>
      <trkpt lat="44.25596" lon="6.15239">
        <ele>1347</ele>
        <time>2010-01-01T00:14:03Z</time>
      </trkpt>
      <trkpt lat="44.25597" lon="6.15234">
        <ele>1347</ele>
        <time>2010-01-01T00:14:04Z</time>
      </trkpt>
      <trkpt lat="44.25597" lon="6.15225">
        <ele>1347</ele>
        <time>2010-01-01T00:14:06Z</time>
      </trkpt>
      <trkpt lat="44.25597" lon="6.15222">
        <ele>1347</ele>
        <time>2010-01-01T00:14:06Z</time>
      </trkpt>
      <trkpt lat="44.25597" lon="6.15214">
        <ele>1346</ele>
        <time>2010-01-01T00:14:08Z</time>
      </trkpt>
      <trkpt lat="44.25595" lon="6.15205">
        <ele>1345</ele>
        <time>2010-01-01T00:14:10Z</time>
      </trkpt>
      <trkpt lat="44.25594" lon="6.15196">
        <ele>1344</ele>
        <time>2010-01-01T00:14:11Z</time>
      </trkpt>
      <trkpt lat="44.25593" lon="6.15189">
        <ele>1344</ele>
        <time>2010-01-01T00:14:13Z</time>
      </trkpt>
      <trkpt lat="44.25592" lon="6.15184">
        <ele>1344</ele>
        <time>2010-01-01T00:14:14Z</time>
      </trkpt>
      <trkpt lat="44.25593" lon="6.15172">
        <ele>1344</ele>
        <time>2010-01-01T00:14:16Z</time>
      </trkpt>
      <trkpt lat="44.25594" lon="6.15167">
        <ele>1345</ele>
        <time>2010-01-01T00:14:17Z</time>
      </trkpt>
      <trkpt lat="44.25594" lon="6.15163">
        <ele>1346</ele>
        <time>2010-01-01T00:14:18Z</time>
      </trkpt>
      <trkpt lat="44.25595" lon="6.15153">
        <ele>1348</ele>
        <time>2010-01-01T00:14:20Z</time>
      </trkpt>
      <trkpt lat="44.25595" lon="6.1515">
        <ele>1350</ele>
        <time>2010-01-01T00:14:20Z</time>
      </trkpt>
      <trkpt lat="44.25597" lon="6.15144">
        <ele>1352</ele>
        <time>2010-01-01T00:14:22Z</time>
      </trkpt>
      <trkpt lat="44.25599" lon="6.15135">
        <ele>1355</ele>
        <time>2010-01-01T00:14:23Z</time>
      </trkpt>
      <trkpt lat="44.25599" lon="6.15133">
        <ele>1356</ele>
        <time>2010-01-01T00:14:24Z</time>
      </trkpt>
      <trkpt lat="44.25599" lon="6.15126">
        <ele>1358</ele>
        <time>2010-01-01T00:14:25Z</time>
      </trkpt>
      <trkpt lat="44.256" lon="6.15118">
        <ele>1361</ele>
        <time>2010-01-01T00:14:27Z</time>
      </trkpt>
      <trkpt lat="44.256" lon="6.15116">
        <ele>1361</ele>
        <time>2010-01-01T00:14:27Z</time>
      </trkpt>
      <trkpt lat="44.25601" lon="6.15112">
        <ele>1363</ele>
        <time>2010-01-01T00:14:28Z</time>
      </trkpt>
      <trkpt lat="44.25601" lon="6.1511">
        <ele>1363</ele>
        <time>2010-01-01T00:14:28Z</time>
      </trkpt>
      <trkpt lat="44.25601" lon="6.15102">
        <ele>1363</ele>
        <time>2010-01-01T00:14:30Z</time>
      </trkpt>
      <trkpt lat="44.256" lon="6.151">
        <ele>1363</ele>
        <time>2010-01-01T00:14:30Z</time>
      </trkpt>
      <trkpt lat="44.256" lon="6.15093">
        <ele>1363</ele>
        <time>2010-01-01T00:14:31Z</time>
      </trkpt>
      <trkpt lat="44.25601" lon="6.15091">
        <ele>1363</ele>
        <time>2010-01-01T00:14:32Z</time>
      </trkpt>
      <trkpt lat="44.256" lon="6.15082">
        <ele>1363</ele>
        <time>2010-01-01T00:14:34Z</time>
      </trkpt>
      <trkpt lat="44.256" lon="6.15073">
        <ele>1362</ele>
        <time>2010-01-01T00:14:35Z</time>
      </trkpt>
      <trkpt lat="44.256" lon="6.15069">
        <ele>1362</ele>
        <time>2010-01-01T00:14:36Z</time>
      </trkpt>
      <trkpt lat="44.25599" lon="6.1506">
        <ele>1360</ele>
        <time>2010-01-01T00:14:38Z</time>
      </trkpt>
      <trkpt lat="44.25597" lon="6.15047">
        <ele>1359</ele>
        <time>2010-01-01T00:14:40Z</time>
      </trkpt>
      <trkpt lat="44.25597" lon="6.15041">
        <ele>1358</ele>
        <time>2010-01-01T00:14:42Z</time>
      </trkpt>
      <trkpt lat="44.25597" lon="6.15039">
        <ele>1358</ele>
        <time>2010-01-01T00:14:42Z</time>
      </trkpt>
      <trkpt lat="44.25597" lon="6.15034">
        <ele>1358</ele>
        <time>2010-01-01T00:14:43Z</time>
      </trkpt>
      <trkpt lat="44.25598" lon="6.15032">
        <ele>1358</ele>
        <time>2010-01-01T00:14:43Z</time>
      </trkpt>
      <trkpt lat="44.25599" lon="6.15017">
        <ele>1356</ele>
        <time>2010-01-01T00:14:46Z</time>
      </trkpt>
      <trkpt lat="44.256" lon="6.15016">
        <ele>1357</ele>
        <time>2010-01-01T00:14:47Z</time>
      </trkpt>
      <trkpt lat="44.25606" lon="6.15">
        <ele>1357</ele>
        <time>2010-01-01T00:14:50Z</time>
      </trkpt>
      <trkpt lat="44.25612" lon="6.1499">
        <ele>1357</ele>
        <time>2010-01-01T00:14:52Z</time>
      </trkpt>
      <trkpt lat="44.25615" lon="6.14987">
        <ele>1357</ele>
        <time>2010-01-01T00:14:53Z</time>
      </trkpt>
      <trkpt lat="44.25625" lon="6.14983">
        <ele>1359</ele>
        <time>2010-01-01T00:14:56Z</time>
      </trkpt>
      <trkpt lat="44.2564" lon="6.14983">
        <ele>1363</ele>
        <time>2010-01-01T00:15:00Z</time>
      </trkpt>
      <trkpt lat="44.25655" lon="6.14989">
        <ele>1368</ele>
        <time>2010-01-01T00:15:04Z</time>
      </trkpt>
      <trkpt lat="44.25667" lon="6.14998">
        <ele>1373</ele>
        <time>2010-01-01T00:15:08Z</time>
      </trkpt>
      <trkpt lat="44.25683" lon="6.15011">
        <ele>1376</ele>
        <time>2010-01-01T00:15:13Z</time>
      </trkpt>
      <trkpt lat="44.25701" lon="6.15023">
        <ele>1379</ele>
        <time>2010-01-01T00:15:18Z</time>
      </trkpt>
      <trkpt lat="44.25704" lon="6.15024">
        <ele>1380</ele>
        <time>2010-01-01T00:15:19Z</time>
      </trkpt>
      <trkpt lat="44.25718" lon="6.15026">
        <ele>1381</ele>
        <time>2010-01-01T00:15:23Z</time>
      </trkpt>
      <trkpt lat="44.2572" lon="6.15026">
        <ele>1381</ele>
        <time>2010-01-01T00:15:23Z</time>
      </trkpt>
      <trkpt lat="44.2573" lon="6.15027">
        <ele>1383</ele>
        <time>2010-01-01T00:15:26Z</time>
      </trkpt>
      <trkpt lat="44.25733" lon="6.15029">
        <ele>1383</ele>
        <time>2010-01-01T00:15:27Z</time>
      </trkpt>
      <trkpt lat="44.25738" lon="6.15031">
        <ele>1384</ele>
        <time>2010-01-01T00:15:28Z</time>
      </trkpt>
      <trkpt lat="44.25742" lon="6.15032">
        <ele>1385</ele>
        <time>2010-01-01T00:15:29Z</time>
      </trkpt>
      <trkpt lat="44.25745" lon="6.15032">
        <ele>1385</ele>
        <time>2010-01-01T00:15:30Z</time>
      </trkpt>
      <trkpt lat="44.25754" lon="6.15031">
        <ele>1386</ele>
        <time>2010-01-01T00:15:32Z</time>
      </trkpt>
      <trkpt lat="44.25756" lon="6.15031">
        <ele>1386</ele>
        <time>2010-01-01T00:15:33Z</time>
      </trkpt>
      <trkpt lat="44.25764" lon="6.15029">
        <ele>1387</ele>
        <time>2010-01-01T00:15:35Z</time>
      </trkpt>
      <trkpt lat="44.2577" lon="6.15027">
        <ele>1388</ele>
        <time>2010-01-01T00:15:37Z</time>
      </trkpt>
      <trkpt lat="44.25775" lon="6.15025">
        <ele>1389</ele>
        <time>2010-01-01T00:15:38Z</time>
      </trkpt>
      <trkpt lat="44.25781" lon="6.15024">
        <ele>1389</ele>
        <time>2010-01-01T00:15:40Z</time>
      </trkpt>
      <trkpt lat="44.25784" lon="6.15023">
        <ele>1389</ele>
        <time>2010-01-01T00:15:41Z</time>
      </trkpt>
      <trkpt lat="44.25792" lon="6.15023">
        <ele>1390</ele>
        <time>2010-01-01T00:15:43Z</time>
      </trkpt>
      <trkpt lat="44.25799" lon="6.15024">
        <ele>1390</ele>
        <time>2010-01-01T00:15:45Z</time>
      </trkpt>
      <trkpt lat="44.25802" lon="6.15024">
        <ele>1390</ele>
        <time>2010-01-01T00:15:45Z</time>
      </trkpt>
      <trkpt lat="44.25808" lon="6.15025">
        <ele>1390</ele>
        <time>2010-01-01T00:15:47Z</time>
      </trkpt>
      <trkpt lat="44.25816" lon="6.15027">
        <ele>1390</ele>
        <time>2010-01-01T00:15:49Z</time>
      </trkpt>
      <trkpt lat="44.25823" lon="6.15028">
        <ele>1390</ele>
        <time>2010-01-01T00:15:51Z</time>
      </trkpt>
      <trkpt lat="44.2583" lon="6.15026">
        <ele>1391</ele>
        <time>2010-01-01T00:15:53Z</time>
      </trkpt>
      <trkpt lat="44.25837" lon="6.15025">
        <ele>1391</ele>
        <time>2010-01-01T00:15:55Z</time>
      </trkpt>
      <trkpt lat="44.2584" lon="6.15025">
        <ele>1392</ele>
        <time>2010-01-01T00:15:56Z</time>
      </trkpt>
      <trkpt lat="44.25853" lon="6.15025">
        <ele>1392</ele>
        <time>2010-01-01T00:15:59Z</time>
      </trkpt>
      <trkpt lat="44.25869" lon="6.15032">
        <ele>1393</ele>
        <time>2010-01-01T00:16:04Z</time>
      </trkpt>
      <trkpt lat="44.25872" lon="6.15033">
        <ele>1393</ele>
        <time>2010-01-01T00:16:04Z</time>
      </trkpt>
      <trkpt lat="44.25881" lon="6.15041">
        <ele>1393</ele>
        <time>2010-01-01T00:16:07Z</time>
      </trkpt>
      <trkpt lat="44.25883" lon="6.15042">
        <ele>1393</ele>
        <time>2010-01-01T00:16:08Z</time>
      </trkpt>
      <trkpt lat="44.25887" lon="6.15044">
        <ele>1394</ele>
        <time>2010-01-01T00:16:09Z</time>
      </trkpt>
      <trkpt lat="44.25885" lon="6.15043">
        <ele>1394</ele>
        <time>2010-01-01T00:16:09Z</time>
      </trkpt>
      <trkpt lat="44.25885" lon="6.15042">
        <ele>1394</ele>
        <time>2010-01-01T00:16:09Z</time>
      </trkpt>
      <trkpt lat="44.25885" lon="6.15042">
        <ele>1394</ele>
        <time>2010-01-01T00:16:09Z</time>
      </trkpt>
      <trkpt lat="44.25885" lon="6.15041">
        <ele>1394</ele>
        <time>2010-01-01T00:16:10Z</time>
      </trkpt>
      <trkpt lat="44.25885" lon="6.15041">
        <ele>1394</ele>
        <time>2010-01-01T00:16:10Z</time>
      </trkpt>
      <trkpt lat="44.25885" lon="6.15041">
        <ele>1394</ele>
        <time>2010-01-01T00:16:10Z</time>
      </trkpt>
      <trkpt lat="44.25884" lon="6.15041">
        <ele>1394</ele>
        <time>2010-01-01T00:16:10Z</time>
      </trkpt>
      <trkpt lat="44.25884" lon="6.15041">
        <ele>1394</ele>
        <time>2010-01-01T00:16:10Z</time>
      </trkpt>
      <trkpt lat="44.25885" lon="6.15042">
        <ele>1394</ele>
        <time>2010-01-01T00:16:10Z</time>
      </trkpt>
      <trkpt lat="44.25887" lon="6.15045">
        <ele>1394</ele>
        <time>2010-01-01T00:16:11Z</time>
      </trkpt>
      <trkpt lat="44.25889" lon="6.15047">
        <ele>1393</ele>
        <time>2010-01-01T00:16:12Z</time>
      </trkpt>
      <trkpt lat="44.25899" lon="6.15051">
        <ele>1394</ele>
        <time>2010-01-01T00:16:14Z</time>
      </trkpt>
      <trkpt lat="44.2591" lon="6.1506">
        <ele>1395</ele>
        <time>2010-01-01T00:16:18Z</time>
      </trkpt>
      <trkpt lat="44.25916" lon="6.15064">
        <ele>1395</ele>
        <time>2010-01-01T00:16:20Z</time>
      </trkpt>
      <trkpt lat="44.25919" lon="6.15065">
        <ele>1396</ele>
        <time>2010-01-01T00:16:20Z</time>
      </trkpt>
      <trkpt lat="44.2592" lon="6.15067">
        <ele>1396</ele>
        <time>2010-01-01T00:16:21Z</time>
      </trkpt>
      <trkpt lat="44.25922" lon="6.15072">
        <ele>1396</ele>
        <time>2010-01-01T00:16:22Z</time>
      </trkpt>
      <trkpt lat="44.25924" lon="6.15077">
        <ele>1397</ele>
        <time>2010-01-01T00:16:23Z</time>
      </trkpt>
      <trkpt lat="44.25929" lon="6.1508">
        <ele>1397</ele>
        <time>2010-01-01T00:16:25Z</time>
      </trkpt>
      <trkpt lat="44.25931" lon="6.15081">
        <ele>1398</ele>
        <time>2010-01-01T00:16:25Z</time>
      </trkpt>
      <trkpt lat="44.25941" lon="6.15089">
        <ele>1399</ele>
        <time>2010-01-01T00:16:28Z</time>
      </trkpt>
      <trkpt lat="44.25942" lon="6.15091">
        <ele>1399</ele>
        <time>2010-01-01T00:16:29Z</time>
      </trkpt>
      <trkpt lat="44.25943" lon="6.15092">
        <ele>1399</ele>
        <time>2010-01-01T00:16:29Z</time>
      </trkpt>
      <trkpt lat="44.25949" lon="6.15095">
        <ele>1399</ele>
        <time>2010-01-01T00:16:31Z</time>
      </trkpt>
      <trkpt lat="44.25951" lon="6.15096">
        <ele>1399</ele>
        <time>2010-01-01T00:16:31Z</time>
      </trkpt>
      <trkpt lat="44.25952" lon="6.15097">
        <ele>1399</ele>
        <time>2010-01-01T00:16:32Z</time>
      </trkpt>
      <trkpt lat="44.25955" lon="6.151">
        <ele>1399</ele>
        <time>2010-01-01T00:16:33Z</time>
      </trkpt>
      <trkpt lat="44.25956" lon="6.15102">
        <ele>1399</ele>
        <time>2010-01-01T00:16:33Z</time>
      </trkpt>
      <trkpt lat="44.25959" lon="6.15102">
        <ele>1400</ele>
        <time>2010-01-01T00:16:34Z</time>
      </trkpt>
      <trkpt lat="44.25963" lon="6.15104">
        <ele>1400</ele>
        <time>2010-01-01T00:16:35Z</time>
      </trkpt>
      <trkpt lat="44.25966" lon="6.15102">
        <ele>1400</ele>
        <time>2010-01-01T00:16:36Z</time>
      </trkpt>
      <trkpt lat="44.2597" lon="6.15099">
        <ele>1400</ele>
        <time>2010-01-01T00:16:37Z</time>
      </trkpt>
      <trkpt lat="44.25974" lon="6.15093">
        <ele>1401</ele>
        <time>2010-01-01T00:16:39Z</time>
      </trkpt>
      <trkpt lat="44.25977" lon="6.15087">
        <ele>1402</ele>
        <time>2010-01-01T00:16:40Z</time>
      </trkpt>
      <trkpt lat="44.25977" lon="6.1507">
        <ele>1404</ele>
        <time>2010-01-01T00:16:43Z</time>
      </trkpt>
      <trkpt lat="44.25977" lon="6.15053">
        <ele>1406</ele>
        <time>2010-01-01T00:16:46Z</time>
      </trkpt>
      <trkpt lat="44.25977" lon="6.1505">
        <ele>1406</ele>
        <time>2010-01-01T00:16:47Z</time>
      </trkpt>
      <trkpt lat="44.25974" lon="6.15036">
        <ele>1408</ele>
        <time>2010-01-01T00:16:50Z</time>
      </trkpt>
      <trkpt lat="44.25972" lon="6.15029">
        <ele>1408</ele>
        <time>2010-01-01T00:16:51Z</time>
      </trkpt>
      <trkpt lat="44.25969" lon="6.15023">
        <ele>1409</ele>
        <time>2010-01-01T00:16:53Z</time>
      </trkpt>
      <trkpt lat="44.25965" lon="6.15019">
        <ele>1409</ele>
        <time>2010-01-01T00:16:54Z</time>
      </trkpt>
      <trkpt lat="44.25963" lon="6.15017">
        <ele>1409</ele>
        <time>2010-01-01T00:16:54Z</time>
      </trkpt>
      <trkpt lat="44.25961" lon="6.15016">
        <ele>1409</ele>
        <time>2010-01-01T00:16:55Z</time>
      </trkpt>
      <trkpt lat="44.25957" lon="6.15011">
        <ele>1410</ele>
        <time>2010-01-01T00:16:57Z</time>
      </trkpt>
      <trkpt lat="44.25952" lon="6.15007">
        <ele>1410</ele>
        <time>2010-01-01T00:16:58Z</time>
      </trkpt>
      <trkpt lat="44.25949" lon="6.15004">
        <ele>1410</ele>
        <time>2010-01-01T00:16:59Z</time>
      </trkpt>
      <trkpt lat="44.2594" lon="6.14997">
        <ele>1410</ele>
        <time>2010-01-01T00:17:02Z</time>
      </trkpt>
      <trkpt lat="44.25929" lon="6.14987">
        <ele>1410</ele>
        <time>2010-01-01T00:17:05Z</time>
      </trkpt>
      <trkpt lat="44.25926" lon="6.14983">
        <ele>1410</ele>
        <time>2010-01-01T00:17:06Z</time>
      </trkpt>
      <trkpt lat="44.25914" lon="6.14967">
        <ele>1410</ele>
        <time>2010-01-01T00:17:11Z</time>
      </trkpt>
      <trkpt lat="44.25912" lon="6.14961">
        <ele>1410</ele>
        <time>2010-01-01T00:17:12Z</time>
      </trkpt>
      <trkpt lat="44.25904" lon="6.14948">
        <ele>1410</ele>
        <time>2010-01-01T00:17:15Z</time>
      </trkpt>
      <trkpt lat="44.25898" lon="6.14929">
        <ele>1410</ele>
        <time>2010-01-01T00:17:19Z</time>
      </trkpt>
      <trkpt lat="44.2589" lon="6.14904">
        <ele>1410</ele>
        <time>2010-01-01T00:17:25Z</time>
      </trkpt>
      <trkpt lat="44.25885" lon="6.1488">
        <ele>1410</ele>
        <time>2010-01-01T00:17:29Z</time>
      </trkpt>
      <trkpt lat="44.25887" lon="6.1486">
        <ele>1410</ele>
        <time>2010-01-01T00:17:33Z</time>
      </trkpt>
      <trkpt lat="44.25894" lon="6.14843">
        <ele>1411</ele>
        <time>2010-01-01T00:17:37Z</time>
      </trkpt>
      <trkpt lat="44.25896" lon="6.14841">
        <ele>1412</ele>
        <time>2010-01-01T00:17:38Z</time>
      </trkpt>
      <trkpt lat="44.25907" lon="6.14839">
        <ele>1413</ele>
        <time>2010-01-01T00:17:40Z</time>
      </trkpt>
      <trkpt lat="44.25923" lon="6.14842">
        <ele>1416</ele>
        <time>2010-01-01T00:17:45Z</time>
      </trkpt>
      <trkpt lat="44.25932" lon="6.14834">
        <ele>1418</ele>
        <time>2010-01-01T00:17:48Z</time>
      </trkpt>
      <trkpt lat="44.25932" lon="6.14831">
        <ele>1418</ele>
        <time>2010-01-01T00:17:48Z</time>
      </trkpt>
      <trkpt lat="44.25933" lon="6.14824">
        <ele>1418</ele>
        <time>2010-01-01T00:17:49Z</time>
      </trkpt>
      <trkpt lat="44.2593" lon="6.14812">
        <ele>1417</ele>
        <time>2010-01-01T00:17:52Z</time>
      </trkpt>
      <trkpt lat="44.25928" lon="6.14806">
        <ele>1417</ele>
        <time>2010-01-01T00:17:53Z</time>
      </trkpt>
      <trkpt lat="44.25929" lon="6.14791">
        <ele>1417</ele>
        <time>2010-01-01T00:17:56Z</time>
      </trkpt>
      <trkpt lat="44.25929" lon="6.14788">
        <ele>1417</ele>
        <time>2010-01-01T00:17:57Z</time>
      </trkpt>
      <trkpt lat="44.2593" lon="6.14785">
        <ele>1417</ele>
        <time>2010-01-01T00:17:57Z</time>
      </trkpt>
      <trkpt lat="44.25935" lon="6.14773">
        <ele>1418</ele>
        <time>2010-01-01T00:18:00Z</time>
      </trkpt>
      <trkpt lat="44.25938" lon="6.14763">
        <ele>1420</ele>
        <time>2010-01-01T00:18:02Z</time>
      </trkpt>
      <trkpt lat="44.25941" lon="6.14751">
        <ele>1421</ele>
        <time>2010-01-01T00:18:04Z</time>
      </trkpt>
      <trkpt lat="44.25943" lon="6.14741">
        <ele>1421</ele>
        <time>2010-01-01T00:18:06Z</time>
      </trkpt>
      <trkpt lat="44.25945" lon="6.14734">
        <ele>1422</ele>
        <time>2010-01-01T00:18:08Z</time>
      </trkpt>
      <trkpt lat="44.25945" lon="6.14732">
        <ele>1422</ele>
        <time>2010-01-01T00:18:08Z</time>
      </trkpt>
      <trkpt lat="44.25946" lon="6.14725">
        <ele>1423</ele>
        <time>2010-01-01T00:18:09Z</time>
      </trkpt>
      <trkpt lat="44.25946" lon="6.1472">
        <ele>1423</ele>
        <time>2010-01-01T00:18:10Z</time>
      </trkpt>
      <trkpt lat="44.25949" lon="6.14695">
        <ele>1424</ele>
        <time>2010-01-01T00:18:15Z</time>
      </trkpt>
      <trkpt lat="44.2595" lon="6.14683">
        <ele>1424</ele>
        <time>2010-01-01T00:18:18Z</time>
      </trkpt>
      <trkpt lat="44.25952" lon="6.14675">
        <ele>1425</ele>
        <time>2010-01-01T00:18:19Z</time>
      </trkpt>
      <trkpt lat="44.25954" lon="6.14666">
        <ele>1425</ele>
        <time>2010-01-01T00:18:21Z</time>
      </trkpt>
      <trkpt lat="44.25957" lon="6.14655">
        <ele>1426</ele>
        <time>2010-01-01T00:18:23Z</time>
      </trkpt>
      <trkpt lat="44.2596" lon="6.14644">
        <ele>1427</ele>
        <time>2010-01-01T00:18:25Z</time>
      </trkpt>
      <trkpt lat="44.2596" lon="6.14633">
        <ele>1427</ele>
        <time>2010-01-01T00:18:28Z</time>
      </trkpt>
      <trkpt lat="44.2596" lon="6.14627">
        <ele>1427</ele>
        <time>2010-01-01T00:18:29Z</time>
      </trkpt>
      <trkpt lat="44.25961" lon="6.14613">
        <ele>1428</ele>
        <time>2010-01-01T00:18:31Z</time>
      </trkpt>
      <trkpt lat="44.2596" lon="6.14606">
        <ele>1428</ele>
        <time>2010-01-01T00:18:33Z</time>
      </trkpt>
      <trkpt lat="44.25957" lon="6.14595">
        <ele>1429</ele>
        <time>2010-01-01T00:18:35Z</time>
      </trkpt>
      <trkpt lat="44.25955" lon="6.1459">
        <ele>1430</ele>
        <time>2010-01-01T00:18:36Z</time>
      </trkpt>
      <trkpt lat="44.25948" lon="6.14582">
        <ele>1430</ele>
        <time>2010-01-01T00:18:38Z</time>
      </trkpt>
      <trkpt lat="44.25946" lon="6.1458">
        <ele>1430</ele>
        <time>2010-01-01T00:18:39Z</time>
      </trkpt>
      <trkpt lat="44.25932" lon="6.14568">
        <ele>1431</ele>
        <time>2010-01-01T00:18:44Z</time>
      </trkpt>
      <trkpt lat="44.2593" lon="6.14567">
        <ele>1431</ele>
        <time>2010-01-01T00:18:44Z</time>
      </trkpt>
      <trkpt lat="44.25923" lon="6.14561">
        <ele>1431</ele>
        <time>2010-01-01T00:18:46Z</time>
      </trkpt>
      <trkpt lat="44.25918" lon="6.14558">
        <ele>1430</ele>
        <time>2010-01-01T00:18:48Z</time>
      </trkpt>
      <trkpt lat="44.25916" lon="6.14557">
        <ele>1430</ele>
        <time>2010-01-01T00:18:48Z</time>
      </trkpt>
      <trkpt lat="44.25915" lon="6.14556">
        <ele>1430</ele>
        <time>2010-01-01T00:18:49Z</time>
      </trkpt>
      <trkpt lat="44.25911" lon="6.14553">
        <ele>1430</ele>
        <time>2010-01-01T00:18:50Z</time>
      </trkpt>
      <trkpt lat="44.25908" lon="6.1455">
        <ele>1429</ele>
        <time>2010-01-01T00:18:51Z</time>
      </trkpt>
      <trkpt lat="44.25905" lon="6.14542">
        <ele>1429</ele>
        <time>2010-01-01T00:18:53Z</time>
      </trkpt>
      <trkpt lat="44.25903" lon="6.14536">
        <ele>1430</ele>
        <time>2010-01-01T00:18:54Z</time>
      </trkpt>
      <trkpt lat="44.25905" lon="6.14525">
        <ele>1431</ele>
        <time>2010-01-01T00:18:56Z</time>
      </trkpt>
      <trkpt lat="44.25908" lon="6.14519">
        <ele>1432</ele>
        <time>2010-01-01T00:18:57Z</time>
      </trkpt>
      <trkpt lat="44.25912" lon="6.1451">
        <ele>1434</ele>
        <time>2010-01-01T00:18:59Z</time>
      </trkpt>
      <trkpt lat="44.25917" lon="6.14502">
        <ele>1436</ele>
        <time>2010-01-01T00:19:02Z</time>
      </trkpt>
      <trkpt lat="44.25921" lon="6.14494">
        <ele>1437</ele>
        <time>2010-01-01T00:19:03Z</time>
      </trkpt>
      <trkpt lat="44.25926" lon="6.14485">
        <ele>1438</ele>
        <time>2010-01-01T00:19:06Z</time>
      </trkpt>
      <trkpt lat="44.25931" lon="6.14475">
        <ele>1440</ele>
        <time>2010-01-01T00:19:08Z</time>
      </trkpt>
      <trkpt lat="44.25936" lon="6.14459">
        <ele>1440</ele>
        <time>2010-01-01T00:19:11Z</time>
      </trkpt>
      <trkpt lat="44.25938" lon="6.1444">
        <ele>1440</ele>
        <time>2010-01-01T00:19:15Z</time>
      </trkpt>
      <trkpt lat="44.25947" lon="6.14419">
        <ele>1441</ele>
        <time>2010-01-01T00:19:20Z</time>
      </trkpt>
      <trkpt lat="44.25955" lon="6.144">
        <ele>1442</ele>
        <time>2010-01-01T00:19:24Z</time>
      </trkpt>
      <trkpt lat="44.25956" lon="6.14393">
        <ele>1441</ele>
        <time>2010-01-01T00:19:25Z</time>
      </trkpt>
      <trkpt lat="44.25958" lon="6.14374">
        <ele>1441</ele>
        <time>2010-01-01T00:19:29Z</time>
      </trkpt>
      <trkpt lat="44.2596" lon="6.14369">
        <ele>1441</ele>
        <time>2010-01-01T00:19:30Z</time>
      </trkpt>
      <trkpt lat="44.2597" lon="6.1435">
        <ele>1443</ele>
        <time>2010-01-01T00:19:34Z</time>
      </trkpt>
      <trkpt lat="44.25971" lon="6.14344">
        <ele>1443</ele>
        <time>2010-01-01T00:19:36Z</time>
      </trkpt>
      <trkpt lat="44.25966" lon="6.14336">
        <ele>1442</ele>
        <time>2010-01-01T00:19:38Z</time>
      </trkpt>
      <trkpt lat="44.25956" lon="6.14335">
        <ele>1440</ele>
        <time>2010-01-01T00:19:40Z</time>
      </trkpt>
      <trkpt lat="44.25939" lon="6.14335">
        <ele>1437</ele>
        <time>2010-01-01T00:19:45Z</time>
      </trkpt>
      <trkpt lat="44.25925" lon="6.14329">
        <ele>1436</ele>
        <time>2010-01-01T00:19:49Z</time>
      </trkpt>
      <trkpt lat="44.25919" lon="6.14324">
        <ele>1435</ele>
        <time>2010-01-01T00:19:50Z</time>
      </trkpt>
      <trkpt lat="44.25914" lon="6.14313">
        <ele>1436</ele>
        <time>2010-01-01T00:19:53Z</time>
      </trkpt>
      <trkpt lat="44.25907" lon="6.14287">
        <ele>1439</ele>
        <time>2010-01-01T00:19:58Z</time>
      </trkpt>
      <trkpt lat="44.25905" lon="6.14259">
        <ele>1440</ele>
        <time>2010-01-01T00:20:04Z</time>
      </trkpt>
      <trkpt lat="44.25904" lon="6.1424">
        <ele>1441</ele>
        <time>2010-01-01T00:20:07Z</time>
      </trkpt>
      <trkpt lat="44.25903" lon="6.14236">
        <ele>1441</ele>
        <time>2010-01-01T00:20:08Z</time>
      </trkpt>
      <trkpt lat="44.25896" lon="6.14212">
        <ele>1442</ele>
        <time>2010-01-01T00:20:13Z</time>
      </trkpt>
      <trkpt lat="44.2589" lon="6.14192">
        <ele>1443</ele>
        <time>2010-01-01T00:20:17Z</time>
      </trkpt>
      <trkpt lat="44.25888" lon="6.14189">
        <ele>1443</ele>
        <time>2010-01-01T00:20:18Z</time>
      </trkpt>
      <trkpt lat="44.25885" lon="6.1418">
        <ele>1443</ele>
        <time>2010-01-01T00:20:20Z</time>
      </trkpt>
      <trkpt lat="44.25882" lon="6.14167">
        <ele>1444</ele>
        <time>2010-01-01T00:20:23Z</time>
      </trkpt>
      <trkpt lat="44.25881" lon="6.14145">
        <ele>1446</ele>
        <time>2010-01-01T00:20:27Z</time>
      </trkpt>
      <trkpt lat="44.25874" lon="6.1412">
        <ele>1447</ele>
        <time>2010-01-01T00:20:32Z</time>
      </trkpt>
      <trkpt lat="44.25872" lon="6.14118">
        <ele>1447</ele>
        <time>2010-01-01T00:20:33Z</time>
      </trkpt>
      <trkpt lat="44.25863" lon="6.14104">
        <ele>1447</ele>
        <time>2010-01-01T00:20:36Z</time>
      </trkpt>
      <trkpt lat="44.25861" lon="6.14102">
        <ele>1447</ele>
        <time>2010-01-01T00:20:37Z</time>
      </trkpt>
      <trkpt lat="44.25846" lon="6.14084">
        <ele>1448</ele>
        <time>2010-01-01T00:20:42Z</time>
      </trkpt>
      <trkpt lat="44.2583" lon="6.14074">
        <ele>1447</ele>
        <time>2010-01-01T00:20:47Z</time>
      </trkpt>
      <trkpt lat="44.25825" lon="6.14069">
        <ele>1448</ele>
        <time>2010-01-01T00:20:48Z</time>
      </trkpt>
      <trkpt lat="44.25821" lon="6.14065">
        <ele>1448</ele>
        <time>2010-01-01T00:20:50Z</time>
      </trkpt>
      <trkpt lat="44.25816" lon="6.14047">
        <ele>1448</ele>
        <time>2010-01-01T00:20:53Z</time>
      </trkpt>
      <trkpt lat="44.25817" lon="6.14028">
        <ele>1449</ele>
        <time>2010-01-01T00:20:57Z</time>
      </trkpt>
      <trkpt lat="44.25818" lon="6.1402">
        <ele>1449</ele>
        <time>2010-01-01T00:20:59Z</time>
      </trkpt>
      <trkpt lat="44.25822" lon="6.14">
        <ele>1450</ele>
        <time>2010-01-01T00:21:03Z</time>
      </trkpt>
      <trkpt lat="44.25824" lon="6.13987">
        <ele>1451</ele>
        <time>2010-01-01T00:21:05Z</time>
      </trkpt>
      <trkpt lat="44.25828" lon="6.1396">
        <ele>1450</ele>
        <time>2010-01-01T00:21:10Z</time>
      </trkpt>
      <trkpt lat="44.25829" lon="6.13955">
        <ele>1450</ele>
        <time>2010-01-01T00:21:11Z</time>
      </trkpt>
      <trkpt lat="44.25833" lon="6.13921">
        <ele>1449</ele>
        <time>2010-01-01T00:21:18Z</time>
      </trkpt>
      <trkpt lat="44.2584" lon="6.13888">
        <ele>1448</ele>
        <time>2010-01-01T00:21:25Z</time>
      </trkpt>
      <trkpt lat="44.25854" lon="6.13862">
        <ele>1448</ele>
        <time>2010-01-01T00:21:31Z</time>
      </trkpt>
      <trkpt lat="44.2588" lon="6.1384">
        <ele>1450</ele>
        <time>2010-01-01T00:21:39Z</time>
      </trkpt>
      <trkpt lat="44.259" lon="6.13824">
        <ele>1452</ele>
        <time>2010-01-01T00:21:45Z</time>
      </trkpt>
      <trkpt lat="44.25917" lon="6.13815">
        <ele>1455</ele>
        <time>2010-01-01T00:21:50Z</time>
      </trkpt>
      <trkpt lat="44.2592" lon="6.13813">
        <ele>1455</ele>
        <time>2010-01-01T00:21:51Z</time>
      </trkpt>
      <trkpt lat="44.25939" lon="6.13801">
        <ele>1457</ele>
        <time>2010-01-01T00:21:57Z</time>
      </trkpt>
      <trkpt lat="44.25944" lon="6.13798">
        <ele>1458</ele>
        <time>2010-01-01T00:21:58Z</time>
      </trkpt>
      <trkpt lat="44.25954" lon="6.13789">
        <ele>1458</ele>
        <time>2010-01-01T00:22:01Z</time>
      </trkpt>
      <trkpt lat="44.25958" lon="6.13771">
        <ele>1458</ele>
        <time>2010-01-01T00:22:05Z</time>
      </trkpt>
      <trkpt lat="44.25957" lon="6.13767">
        <ele>1458</ele>
        <time>2010-01-01T00:22:05Z</time>
      </trkpt>
      <trkpt lat="44.25957" lon="6.13752">
        <ele>1457</ele>
        <time>2010-01-01T00:22:08Z</time>
      </trkpt>
      <trkpt lat="44.25949" lon="6.13714">
        <ele>1457</ele>
        <time>2010-01-01T00:22:16Z</time>
      </trkpt>
      <trkpt lat="44.25944" lon="6.13689">
        <ele>1457</ele>
        <time>2010-01-01T00:22:21Z</time>
      </trkpt>
      <trkpt lat="44.25941" lon="6.1368">
        <ele>1457</ele>
        <time>2010-01-01T00:22:23Z</time>
      </trkpt>
      <trkpt lat="44.25938" lon="6.13673">
        <ele>1456</ele>
        <time>2010-01-01T00:22:24Z</time>
      </trkpt>
      <trkpt lat="44.25925" lon="6.1365">
        <ele>1454</ele>
        <time>2010-01-01T00:22:30Z</time>
      </trkpt>
      <trkpt lat="44.2591" lon="6.13613">
        <ele>1452</ele>
        <time>2010-01-01T00:22:38Z</time>
      </trkpt>
      <trkpt lat="44.2591" lon="6.13608">
        <ele>1452</ele>
        <time>2010-01-01T00:22:39Z</time>
      </trkpt>
      <trkpt lat="44.25913" lon="6.13599">
        <ele>1452</ele>
        <time>2010-01-01T00:22:41Z</time>
      </trkpt>
      <trkpt lat="44.25915" lon="6.13595">
        <ele>1452</ele>
        <time>2010-01-01T00:22:42Z</time>
      </trkpt>
      <trkpt lat="44.25917" lon="6.13591">
        <ele>1453</ele>
        <time>2010-01-01T00:22:43Z</time>
      </trkpt>
      <trkpt lat="44.25934" lon="6.13552">
        <ele>1456</ele>
        <time>2010-01-01T00:22:51Z</time>
      </trkpt>
      <trkpt lat="44.25949" lon="6.13511">
        <ele>1461</ele>
        <time>2010-01-01T00:23:00Z</time>
      </trkpt>
      <trkpt lat="44.2595" lon="6.13498">
        <ele>1461</ele>
        <time>2010-01-01T00:23:03Z</time>
      </trkpt>
      <trkpt lat="44.25951" lon="6.1348">
        <ele>1460</ele>
        <time>2010-01-01T00:23:06Z</time>
      </trkpt>
      <trkpt lat="44.25951" lon="6.13475">
        <ele>1459</ele>
        <time>2010-01-01T00:23:07Z</time>
      </trkpt>
      <trkpt lat="44.25949" lon="6.13461">
        <ele>1458</ele>
        <time>2010-01-01T00:23:10Z</time>
      </trkpt>
      <trkpt lat="44.25949" lon="6.13456">
        <ele>1458</ele>
        <time>2010-01-01T00:23:11Z</time>
      </trkpt>
      <trkpt lat="44.25951" lon="6.13442">
        <ele>1458</ele>
        <time>2010-01-01T00:23:14Z</time>
      </trkpt>
      <trkpt lat="44.25953" lon="6.13433">
        <ele>1458</ele>
        <time>2010-01-01T00:23:15Z</time>
      </trkpt>
      <trkpt lat="44.25964" lon="6.13411">
        <ele>1460</ele>
        <time>2010-01-01T00:23:20Z</time>
      </trkpt>
      <trkpt lat="44.25966" lon="6.13408">
        <ele>1461</ele>
        <time>2010-01-01T00:23:21Z</time>
      </trkpt>
      <trkpt lat="44.25972" lon="6.13391">
        <ele>1463</ele>
        <time>2010-01-01T00:23:25Z</time>
      </trkpt>
      <trkpt lat="44.25974" lon="6.13384">
        <ele>1463</ele>
        <time>2010-01-01T00:23:26Z</time>
      </trkpt>
      <trkpt lat="44.25975" lon="6.13358">
        <ele>1460</ele>
        <time>2010-01-01T00:23:31Z</time>
      </trkpt>
      <trkpt lat="44.25981" lon="6.13338">
        <ele>1459</ele>
        <time>2010-01-01T00:23:35Z</time>
      </trkpt>
      <trkpt lat="44.25982" lon="6.13335">
        <ele>1459</ele>
        <time>2010-01-01T00:23:36Z</time>
      </trkpt>
      <trkpt lat="44.25985" lon="6.13333">
        <ele>1460</ele>
        <time>2010-01-01T00:23:37Z</time>
      </trkpt>
      <trkpt lat="44.25991" lon="6.13331">
        <ele>1462</ele>
        <time>2010-01-01T00:23:38Z</time>
      </trkpt>
      <trkpt lat="44.25993" lon="6.1333">
        <ele>1463</ele>
        <time>2010-01-01T00:23:39Z</time>
      </trkpt>
      <trkpt lat="44.26" lon="6.13325">
        <ele>1465</ele>
        <time>2010-01-01T00:23:41Z</time>
      </trkpt>
      <trkpt lat="44.26004" lon="6.13316">
        <ele>1465</ele>
        <time>2010-01-01T00:23:43Z</time>
      </trkpt>
      <trkpt lat="44.26006" lon="6.1331">
        <ele>1466</ele>
        <time>2010-01-01T00:23:44Z</time>
      </trkpt>
      <trkpt lat="44.26006" lon="6.13299">
        <ele>1465</ele>
        <time>2010-01-01T00:23:47Z</time>
      </trkpt>
      <trkpt lat="44.26009" lon="6.13281">
        <ele>1466</ele>
        <time>2010-01-01T00:23:50Z</time>
      </trkpt>
      <trkpt lat="44.26011" lon="6.13271">
        <ele>1466</ele>
        <time>2010-01-01T00:23:52Z</time>
      </trkpt>
      <trkpt lat="44.2602" lon="6.13243">
        <ele>1466</ele>
        <time>2010-01-01T00:23:58Z</time>
      </trkpt>
      <trkpt lat="44.26023" lon="6.13216">
        <ele>1465</ele>
        <time>2010-01-01T00:24:03Z</time>
      </trkpt>
      <trkpt lat="44.26023" lon="6.13211">
        <ele>1464</ele>
        <time>2010-01-01T00:24:04Z</time>
      </trkpt>
      <trkpt lat="44.26026" lon="6.13189">
        <ele>1464</ele>
        <time>2010-01-01T00:24:08Z</time>
      </trkpt>
      <trkpt lat="44.26029" lon="6.13176">
        <ele>1465</ele>
        <time>2010-01-01T00:24:11Z</time>
      </trkpt>
      <trkpt lat="44.26031" lon="6.13168">
        <ele>1465</ele>
        <time>2010-01-01T00:24:13Z</time>
      </trkpt>
      <trkpt lat="44.26035" lon="6.13144">
        <ele>1467</ele>
        <time>2010-01-01T00:24:17Z</time>
      </trkpt>
      <trkpt lat="44.26037" lon="6.13112">
        <ele>1467</ele>
        <time>2010-01-01T00:24:24Z</time>
      </trkpt>
      <trkpt lat="44.26041" lon="6.13087">
        <ele>1466</ele>
        <time>2010-01-01T00:24:28Z</time>
      </trkpt>
      <trkpt lat="44.26051" lon="6.13064">
        <ele>1467</ele>
        <time>2010-01-01T00:24:33Z</time>
      </trkpt>
      <trkpt lat="44.26053" lon="6.13041">
        <ele>1466</ele>
        <time>2010-01-01T00:24:38Z</time>
      </trkpt>
      <trkpt lat="44.26054" lon="6.13022">
        <ele>1465</ele>
        <time>2010-01-01T00:24:42Z</time>
      </trkpt>
      <trkpt lat="44.26057" lon="6.12998">
        <ele>1466</ele>
        <time>2010-01-01T00:24:46Z</time>
      </trkpt>
      <trkpt lat="44.26058" lon="6.12979">
        <ele>1467</ele>
        <time>2010-01-01T00:24:50Z</time>
      </trkpt>
      <trkpt lat="44.26057" lon="6.12965">
        <ele>1467</ele>
        <time>2010-01-01T00:24:52Z</time>
      </trkpt>
      <trkpt lat="44.26058" lon="6.12947">
        <ele>1466</ele>
        <time>2010-01-01T00:24:56Z</time>
      </trkpt>
      <trkpt lat="44.26061" lon="6.12939">
        <ele>1466</ele>
        <time>2010-01-01T00:24:58Z</time>
      </trkpt>
      <trkpt lat="44.26068" lon="6.12931">
        <ele>1468</ele>
        <time>2010-01-01T00:25:00Z</time>
      </trkpt>
      <trkpt lat="44.26074" lon="6.12926">
        <ele>1469</ele>
        <time>2010-01-01T00:25:02Z</time>
      </trkpt>
      <trkpt lat="44.26085" lon="6.12917">
        <ele>1471</ele>
        <time>2010-01-01T00:25:05Z</time>
      </trkpt>
      <trkpt lat="44.26091" lon="6.1291">
        <ele>1472</ele>
        <time>2010-01-01T00:25:08Z</time>
      </trkpt>
      <trkpt lat="44.26106" lon="6.12885">
        <ele>1473</ele>
        <time>2010-01-01T00:25:14Z</time>
      </trkpt>
      <trkpt lat="44.26115" lon="6.12857">
        <ele>1470</ele>
        <time>2010-01-01T00:25:20Z</time>
      </trkpt>
      <trkpt lat="44.26126" lon="6.12841">
        <ele>1470</ele>
        <time>2010-01-01T00:25:24Z</time>
      </trkpt>
      <trkpt lat="44.26133" lon="6.12835">
        <ele>1470</ele>
        <time>2010-01-01T00:25:26Z</time>
      </trkpt>
      <trkpt lat="44.26147" lon="6.12824">
        <ele>1471</ele>
        <time>2010-01-01T00:25:30Z</time>
      </trkpt>
      <trkpt lat="44.26165" lon="6.1282">
        <ele>1475</ele>
        <time>2010-01-01T00:25:35Z</time>
      </trkpt>
      <trkpt lat="44.26168" lon="6.1282">
        <ele>1475</ele>
        <time>2010-01-01T00:25:36Z</time>
      </trkpt>
      <trkpt lat="44.26188" lon="6.12826">
        <ele>1480</ele>
        <time>2010-01-01T00:25:41Z</time>
      </trkpt>
      <trkpt lat="44.26205" lon="6.12826">
        <ele>1483</ele>
        <time>2010-01-01T00:25:46Z</time>
      </trkpt>
      <trkpt lat="44.26216" lon="6.12814">
        <ele>1482</ele>
        <time>2010-01-01T00:25:50Z</time>
      </trkpt>
      <trkpt lat="44.2622" lon="6.12793">
        <ele>1479</ele>
        <time>2010-01-01T00:25:54Z</time>
      </trkpt>
      <trkpt lat="44.2622" lon="6.12771">
        <ele>1476</ele>
        <time>2010-01-01T00:25:58Z</time>
      </trkpt>
      <trkpt lat="44.26226" lon="6.12742">
        <ele>1476</ele>
        <time>2010-01-01T00:26:04Z</time>
      </trkpt>
      <trkpt lat="44.2623" lon="6.12718">
        <ele>1477</ele>
        <time>2010-01-01T00:26:09Z</time>
      </trkpt>
      <trkpt lat="44.2623" lon="6.12708">
        <ele>1477</ele>
        <time>2010-01-01T00:26:11Z</time>
      </trkpt>
      <trkpt lat="44.26231" lon="6.12664">
        <ele>1477</ele>
        <time>2010-01-01T00:26:19Z</time>
      </trkpt>
      <trkpt lat="44.26237" lon="6.12635">
        <ele>1478</ele>
        <time>2010-01-01T00:26:25Z</time>
      </trkpt>
      <trkpt lat="44.26247" lon="6.12615">
        <ele>1480</ele>
        <time>2010-01-01T00:26:29Z</time>
      </trkpt>
      <trkpt lat="44.26251" lon="6.12608">
        <ele>1480</ele>
        <time>2010-01-01T00:26:31Z</time>
      </trkpt>
      <trkpt lat="44.26253" lon="6.12604">
        <ele>1480</ele>
        <time>2010-01-01T00:26:32Z</time>
      </trkpt>
      <trkpt lat="44.26258" lon="6.12595">
        <ele>1481</ele>
        <time>2010-01-01T00:26:34Z</time>
      </trkpt>
      <trkpt lat="44.26262" lon="6.12588">
        <ele>1481</ele>
        <time>2010-01-01T00:26:36Z</time>
      </trkpt>
      <trkpt lat="44.26266" lon="6.12578">
        <ele>1481</ele>
        <time>2010-01-01T00:26:38Z</time>
      </trkpt>
      <trkpt lat="44.26269" lon="6.12568">
        <ele>1480</ele>
        <time>2010-01-01T00:26:40Z</time>
      </trkpt>
      <trkpt lat="44.2627" lon="6.12565">
        <ele>1480</ele>
        <time>2010-01-01T00:26:41Z</time>
      </trkpt>
      <trkpt lat="44.26281" lon="6.12554">
        <ele>1481</ele>
        <time>2010-01-01T00:26:44Z</time>
      </trkpt>
      <trkpt lat="44.26287" lon="6.12551">
        <ele>1484</ele>
        <time>2010-01-01T00:26:46Z</time>
      </trkpt>
      <trkpt lat="44.26293" lon="6.12546">
        <ele>1486</ele>
        <time>2010-01-01T00:26:48Z</time>
      </trkpt>
      <trkpt lat="44.26297" lon="6.12542">
        <ele>1487</ele>
        <time>2010-01-01T00:26:49Z</time>
      </trkpt>
      <trkpt lat="44.26303" lon="6.1253">
        <ele>1488</ele>
        <time>2010-01-01T00:26:52Z</time>
      </trkpt>
      <trkpt lat="44.26303" lon="6.12527">
        <ele>1488</ele>
        <time>2010-01-01T00:26:52Z</time>
      </trkpt>
      <trkpt lat="44.26303" lon="6.12512">
        <ele>1488</ele>
        <time>2010-01-01T00:26:55Z</time>
      </trkpt>
      <trkpt lat="44.26303" lon="6.12497">
        <ele>1487</ele>
        <time>2010-01-01T00:26:58Z</time>
      </trkpt>
      <trkpt lat="44.26303" lon="6.12493">
        <ele>1488</ele>
        <time>2010-01-01T00:26:59Z</time>
      </trkpt>
      <trkpt lat="44.26305" lon="6.1247">
        <ele>1489</ele>
        <time>2010-01-01T00:27:04Z</time>
      </trkpt>
      <trkpt lat="44.26305" lon="6.12463">
        <ele>1490</ele>
        <time>2010-01-01T00:27:05Z</time>
      </trkpt>
      <trkpt lat="44.26305" lon="6.12444">
        <ele>1490</ele>
        <time>2010-01-01T00:27:09Z</time>
      </trkpt>
      <trkpt lat="44.26305" lon="6.1244">
        <ele>1491</ele>
        <time>2010-01-01T00:27:09Z</time>
      </trkpt>
      <trkpt lat="44.26303" lon="6.12423">
        <ele>1492</ele>
        <time>2010-01-01T00:27:12Z</time>
      </trkpt>
      <trkpt lat="44.26302" lon="6.1241">
        <ele>1493</ele>
        <time>2010-01-01T00:27:15Z</time>
      </trkpt>
      <trkpt lat="44.26301" lon="6.12407">
        <ele>1493</ele>
        <time>2010-01-01T00:27:16Z</time>
      </trkpt>
      <trkpt lat="44.26297" lon="6.12388">
        <ele>1493</ele>
        <time>2010-01-01T00:27:19Z</time>
      </trkpt>
      <trkpt lat="44.26297" lon="6.12385">
        <ele>1493</ele>
        <time>2010-01-01T00:27:20Z</time>
      </trkpt>
      <trkpt lat="44.26291" lon="6.12366">
        <ele>1492</ele>
        <time>2010-01-01T00:27:24Z</time>
      </trkpt>
      <trkpt lat="44.26289" lon="6.12357">
        <ele>1491</ele>
        <time>2010-01-01T00:27:26Z</time>
      </trkpt>
      <trkpt lat="44.26284" lon="6.12345">
        <ele>1490</ele>
        <time>2010-01-01T00:27:28Z</time>
      </trkpt>
      <trkpt lat="44.26281" lon="6.12333">
        <ele>1489</ele>
        <time>2010-01-01T00:27:31Z</time>
      </trkpt>
      <trkpt lat="44.26279" lon="6.1232">
        <ele>1488</ele>
        <time>2010-01-01T00:27:33Z</time>
      </trkpt>
      <trkpt lat="44.26283" lon="6.1231">
        <ele>1488</ele>
        <time>2010-01-01T00:27:35Z</time>
      </trkpt>
      <trkpt lat="44.26284" lon="6.12309">
        <ele>1488</ele>
        <time>2010-01-01T00:27:36Z</time>
      </trkpt>
      <trkpt lat="44.26287" lon="6.12306">
        <ele>1489</ele>
        <time>2010-01-01T00:27:37Z</time>
      </trkpt>
      <trkpt lat="44.26292" lon="6.12306">
        <ele>1491</ele>
        <time>2010-01-01T00:27:38Z</time>
      </trkpt>
      <trkpt lat="44.26294" lon="6.12308">
        <ele>1491</ele>
        <time>2010-01-01T00:27:39Z</time>
      </trkpt>
      <trkpt lat="44.26295" lon="6.12318">
        <ele>1492</ele>
        <time>2010-01-01T00:27:41Z</time>
      </trkpt>
      <trkpt lat="44.26295" lon="6.12321">
        <ele>1493</ele>
        <time>2010-01-01T00:27:41Z</time>
      </trkpt>
      <trkpt lat="44.26296" lon="6.1233">
        <ele>1493</ele>
        <time>2010-01-01T00:27:43Z</time>
      </trkpt>
      <trkpt lat="44.26297" lon="6.12345">
        <ele>1494</ele>
        <time>2010-01-01T00:27:46Z</time>
      </trkpt>
      <trkpt lat="44.263" lon="6.12356">
        <ele>1495</ele>
        <time>2010-01-01T00:27:48Z</time>
      </trkpt>
      <trkpt lat="44.26304" lon="6.12368">
        <ele>1497</ele>
        <time>2010-01-01T00:27:51Z</time>
      </trkpt>
      <trkpt lat="44.26312" lon="6.12384">
        <ele>1499</ele>
        <time>2010-01-01T00:27:54Z</time>
      </trkpt>
      <trkpt lat="44.26313" lon="6.12387">
        <ele>1499</ele>
        <time>2010-01-01T00:27:55Z</time>
      </trkpt>
      <trkpt lat="44.26323" lon="6.12407">
        <ele>1502</ele>
        <time>2010-01-01T00:28:00Z</time>
      </trkpt>
      <trkpt lat="44.26332" lon="6.1243">
        <ele>1503</ele>
        <time>2010-01-01T00:28:05Z</time>
      </trkpt>
      <trkpt lat="44.26339" lon="6.12459">
        <ele>1504</ele>
        <time>2010-01-01T00:28:10Z</time>
      </trkpt>
      <trkpt lat="44.26346" lon="6.12478">
        <ele>1507</ele>
        <time>2010-01-01T00:28:15Z</time>
      </trkpt>
      <trkpt lat="44.26348" lon="6.12485">
        <ele>1508</ele>
        <time>2010-01-01T00:28:16Z</time>
      </trkpt>
      <trkpt lat="44.26347" lon="6.12502">
        <ele>1507</ele>
        <time>2010-01-01T00:28:19Z</time>
      </trkpt>
      <trkpt lat="44.26345" lon="6.12509">
        <ele>1506</ele>
        <time>2010-01-01T00:28:21Z</time>
      </trkpt>
      <trkpt lat="44.26342" lon="6.12526">
        <ele>1504</ele>
        <time>2010-01-01T00:28:24Z</time>
      </trkpt>
      <trkpt lat="44.2634" lon="6.12544">
        <ele>1504</ele>
        <time>2010-01-01T00:28:28Z</time>
      </trkpt>
      <trkpt lat="44.26339" lon="6.12549">
        <ele>1504</ele>
        <time>2010-01-01T00:28:28Z</time>
      </trkpt>
      <trkpt lat="44.26337" lon="6.12562">
        <ele>1504</ele>
        <time>2010-01-01T00:28:31Z</time>
      </trkpt>
      <trkpt lat="44.26342" lon="6.12595">
        <ele>1508</ele>
        <time>2010-01-01T00:28:37Z</time>
      </trkpt>
      <trkpt lat="44.26342" lon="6.126">
        <ele>1508</ele>
        <time>2010-01-01T00:28:38Z</time>
      </trkpt>
      <trkpt lat="44.26336" lon="6.12613">
        <ele>1506</ele>
        <time>2010-01-01T00:28:41Z</time>
      </trkpt>
      <trkpt lat="44.26331" lon="6.12636">
        <ele>1505</ele>
        <time>2010-01-01T00:28:46Z</time>
      </trkpt>
      <trkpt lat="44.2633" lon="6.12654">
        <ele>1506</ele>
        <time>2010-01-01T00:28:49Z</time>
      </trkpt>
      <trkpt lat="44.26331" lon="6.12668">
        <ele>1507</ele>
        <time>2010-01-01T00:28:52Z</time>
      </trkpt>
      <trkpt lat="44.26337" lon="6.12683">
        <ele>1509</ele>
        <time>2010-01-01T00:28:55Z</time>
      </trkpt>
      <trkpt lat="44.26339" lon="6.12685">
        <ele>1510</ele>
        <time>2010-01-01T00:28:56Z</time>
      </trkpt>
      <trkpt lat="44.26345" lon="6.127">
        <ele>1513</ele>
        <time>2010-01-01T00:28:59Z</time>
      </trkpt>
      <trkpt lat="44.26345" lon="6.12707">
        <ele>1513</ele>
        <time>2010-01-01T00:29:01Z</time>
      </trkpt>
      <trkpt lat="44.26346" lon="6.12727">
        <ele>1513</ele>
        <time>2010-01-01T00:29:04Z</time>
      </trkpt>
      <trkpt lat="44.26346" lon="6.12731">
        <ele>1513</ele>
        <time>2010-01-01T00:29:05Z</time>
      </trkpt>
      <trkpt lat="44.26343" lon="6.1275">
        <ele>1512</ele>
        <time>2010-01-01T00:29:09Z</time>
      </trkpt>
      <trkpt lat="44.26342" lon="6.12753">
        <ele>1513</ele>
        <time>2010-01-01T00:29:10Z</time>
      </trkpt>
      <trkpt lat="44.26337" lon="6.12764">
        <ele>1512</ele>
        <time>2010-01-01T00:29:12Z</time>
      </trkpt>
      <trkpt lat="44.26333" lon="6.12772">
        <ele>1511</ele>
        <time>2010-01-01T00:29:14Z</time>
      </trkpt>
      <trkpt lat="44.26328" lon="6.12779">
        <ele>1511</ele>
        <time>2010-01-01T00:29:16Z</time>
      </trkpt>
      <trkpt lat="44.26325" lon="6.12788">
        <ele>1512</ele>
        <time>2010-01-01T00:29:18Z</time>
      </trkpt>
      <trkpt lat="44.26324" lon="6.12801">
        <ele>1514</ele>
        <time>2010-01-01T00:29:20Z</time>
      </trkpt>
      <trkpt lat="44.26324" lon="6.12804">
        <ele>1515</ele>
        <time>2010-01-01T00:29:21Z</time>
      </trkpt>
      <trkpt lat="44.26324" lon="6.12814">
        <ele>1517</ele>
        <time>2010-01-01T00:29:23Z</time>
      </trkpt>
      <trkpt lat="44.26324" lon="6.12819">
        <ele>1518</ele>
        <time>2010-01-01T00:29:24Z</time>
      </trkpt>
      <trkpt lat="44.2632" lon="6.12832">
        <ele>1519</ele>
        <time>2010-01-01T00:29:26Z</time>
      </trkpt>
      <trkpt lat="44.26319" lon="6.12837">
        <ele>1519</ele>
        <time>2010-01-01T00:29:27Z</time>
      </trkpt>
      <trkpt lat="44.26313" lon="6.12852">
        <ele>1519</ele>
        <time>2010-01-01T00:29:31Z</time>
      </trkpt>
      <trkpt lat="44.26311" lon="6.12857">
        <ele>1519</ele>
        <time>2010-01-01T00:29:32Z</time>
      </trkpt>
      <trkpt lat="44.26307" lon="6.12863">
        <ele>1519</ele>
        <time>2010-01-01T00:29:33Z</time>
      </trkpt>
      <trkpt lat="44.263" lon="6.12878">
        <ele>1518</ele>
        <time>2010-01-01T00:29:37Z</time>
      </trkpt>
      <trkpt lat="44.26299" lon="6.12898">
        <ele>1520</ele>
        <time>2010-01-01T00:29:41Z</time>
      </trkpt>
      <trkpt lat="44.26299" lon="6.12901">
        <ele>1521</ele>
        <time>2010-01-01T00:29:41Z</time>
      </trkpt>
      <trkpt lat="44.26304" lon="6.12916">
        <ele>1524</ele>
        <time>2010-01-01T00:29:44Z</time>
      </trkpt>
      <trkpt lat="44.26305" lon="6.12919">
        <ele>1525</ele>
        <time>2010-01-01T00:29:45Z</time>
      </trkpt>
      <trkpt lat="44.26305" lon="6.12929">
        <ele>1526</ele>
        <time>2010-01-01T00:29:47Z</time>
      </trkpt>
      <trkpt lat="44.26304" lon="6.12934">
        <ele>1527</ele>
        <time>2010-01-01T00:29:48Z</time>
      </trkpt>
      <trkpt lat="44.26303" lon="6.12936">
        <ele>1527</ele>
        <time>2010-01-01T00:29:48Z</time>
      </trkpt>
      <trkpt lat="44.26302" lon="6.12938">
        <ele>1527</ele>
        <time>2010-01-01T00:29:49Z</time>
      </trkpt>
      <trkpt lat="44.26294" lon="6.12945">
        <ele>1525</ele>
        <time>2010-01-01T00:29:52Z</time>
      </trkpt>
      <trkpt lat="44.26283" lon="6.12954">
        <ele>1523</ele>
        <time>2010-01-01T00:29:55Z</time>
      </trkpt>
      <trkpt lat="44.26283" lon="6.12967">
        <ele>1524</ele>
        <time>2010-01-01T00:29:57Z</time>
      </trkpt>
      <trkpt lat="44.2629" lon="6.12986">
        <ele>1527</ele>
        <time>2010-01-01T00:30:01Z</time>
      </trkpt>
      <trkpt lat="44.26294" lon="6.12996">
        <ele>1529</ele>
        <time>2010-01-01T00:30:03Z</time>
      </trkpt>
      <trkpt lat="44.26296" lon="6.13006">
        <ele>1530</ele>
        <time>2010-01-01T00:30:06Z</time>
      </trkpt>
      <trkpt lat="44.26303" lon="6.13029">
        <ele>1534</ele>
        <time>2010-01-01T00:30:10Z</time>
      </trkpt>
      <trkpt lat="44.26304" lon="6.13032">
        <ele>1535</ele>
        <time>2010-01-01T00:30:11Z</time>
      </trkpt>
      <trkpt lat="44.2631" lon="6.13051">
        <ele>1536</ele>
        <time>2010-01-01T00:30:15Z</time>
      </trkpt>
      <trkpt lat="44.26315" lon="6.13072">
        <ele>1537</ele>
        <time>2010-01-01T00:30:19Z</time>
      </trkpt>
      <trkpt lat="44.26315" lon="6.13075">
        <ele>1537</ele>
        <time>2010-01-01T00:30:20Z</time>
      </trkpt>
      <trkpt lat="44.26321" lon="6.13103">
        <ele>1539</ele>
        <time>2010-01-01T00:30:25Z</time>
      </trkpt>
      <trkpt lat="44.26321" lon="6.13106">
        <ele>1539</ele>
        <time>2010-01-01T00:30:26Z</time>
      </trkpt>
      <trkpt lat="44.26321" lon="6.13124">
        <ele>1539</ele>
        <time>2010-01-01T00:30:29Z</time>
      </trkpt>
      <trkpt lat="44.26314" lon="6.13151">
        <ele>1537</ele>
        <time>2010-01-01T00:30:35Z</time>
      </trkpt>
      <trkpt lat="44.26308" lon="6.13165">
        <ele>1537</ele>
        <time>2010-01-01T00:30:38Z</time>
      </trkpt>
      <trkpt lat="44.26307" lon="6.13168">
        <ele>1537</ele>
        <time>2010-01-01T00:30:38Z</time>
      </trkpt>
      <trkpt lat="44.26302" lon="6.13181">
        <ele>1537</ele>
        <time>2010-01-01T00:30:41Z</time>
      </trkpt>
      <trkpt lat="44.26298" lon="6.13193">
        <ele>1537</ele>
        <time>2010-01-01T00:30:44Z</time>
      </trkpt>
      <trkpt lat="44.26294" lon="6.13206">
        <ele>1537</ele>
        <time>2010-01-01T00:30:46Z</time>
      </trkpt>
      <trkpt lat="44.26292" lon="6.13212">
        <ele>1538</ele>
        <time>2010-01-01T00:30:48Z</time>
      </trkpt>
      <trkpt lat="44.2629" lon="6.13221">
        <ele>1538</ele>
        <time>2010-01-01T00:30:50Z</time>
      </trkpt>
      <trkpt lat="44.26287" lon="6.13239">
        <ele>1540</ele>
        <time>2010-01-01T00:30:53Z</time>
      </trkpt>
      <trkpt lat="44.26287" lon="6.13257">
        <ele>1541</ele>
        <time>2010-01-01T00:30:57Z</time>
      </trkpt>
      <trkpt lat="44.26287" lon="6.1327">
        <ele>1542</ele>
        <time>2010-01-01T00:30:59Z</time>
      </trkpt>
      <trkpt lat="44.26287" lon="6.13273">
        <ele>1543</ele>
        <time>2010-01-01T00:31:00Z</time>
      </trkpt>
      <trkpt lat="44.26288" lon="6.13293">
        <ele>1544</ele>
        <time>2010-01-01T00:31:03Z</time>
      </trkpt>
      <trkpt lat="44.26288" lon="6.13296">
        <ele>1545</ele>
        <time>2010-01-01T00:31:04Z</time>
      </trkpt>
      <trkpt lat="44.26286" lon="6.13308">
        <ele>1545</ele>
        <time>2010-01-01T00:31:06Z</time>
      </trkpt>
      <trkpt lat="44.26284" lon="6.13318">
        <ele>1545</ele>
        <time>2010-01-01T00:31:08Z</time>
      </trkpt>
      <trkpt lat="44.26274" lon="6.13341">
        <ele>1545</ele>
        <time>2010-01-01T00:31:14Z</time>
      </trkpt>
      <trkpt lat="44.26263" lon="6.13355">
        <ele>1543</ele>
        <time>2010-01-01T00:31:18Z</time>
      </trkpt>
      <trkpt lat="44.26258" lon="6.13362">
        <ele>1542</ele>
        <time>2010-01-01T00:31:19Z</time>
      </trkpt>
      <trkpt lat="44.26256" lon="6.13369">
        <ele>1542</ele>
        <time>2010-01-01T00:31:21Z</time>
      </trkpt>
      <trkpt lat="44.26253" lon="6.13386">
        <ele>1543</ele>
        <time>2010-01-01T00:31:24Z</time>
      </trkpt>
      <trkpt lat="44.26252" lon="6.13392">
        <ele>1543</ele>
        <time>2010-01-01T00:31:25Z</time>
      </trkpt>
      <trkpt lat="44.2625" lon="6.13402">
        <ele>1544</ele>
        <time>2010-01-01T00:31:27Z</time>
      </trkpt>
      <trkpt lat="44.26247" lon="6.13423">
        <ele>1544</ele>
        <time>2010-01-01T00:31:31Z</time>
      </trkpt>
      <trkpt lat="44.26245" lon="6.13433">
        <ele>1544</ele>
        <time>2010-01-01T00:31:33Z</time>
      </trkpt>
      <trkpt lat="44.26246" lon="6.13449">
        <ele>1545</ele>
        <time>2010-01-01T00:31:37Z</time>
      </trkpt>
      <trkpt lat="44.26247" lon="6.13455">
        <ele>1546</ele>
        <time>2010-01-01T00:31:38Z</time>
      </trkpt>
      <trkpt lat="44.26248" lon="6.1346">
        <ele>1546</ele>
        <time>2010-01-01T00:31:39Z</time>
      </trkpt>
      <trkpt lat="44.26249" lon="6.13461">
        <ele>1546</ele>
        <time>2010-01-01T00:31:39Z</time>
      </trkpt>
      <trkpt lat="44.26249" lon="6.13463">
        <ele>1546</ele>
        <time>2010-01-01T00:31:39Z</time>
      </trkpt>
      <trkpt lat="44.2625" lon="6.13463">
        <ele>1546</ele>
        <time>2010-01-01T00:31:39Z</time>
      </trkpt>
      <trkpt lat="44.2625" lon="6.13463">
        <ele>1546</ele>
        <time>2010-01-01T00:31:39Z</time>
      </trkpt>
      <trkpt lat="44.26251" lon="6.13464">
        <ele>1547</ele>
        <time>2010-01-01T00:31:40Z</time>
      </trkpt>
      <trkpt lat="44.26253" lon="6.13466">
        <ele>1547</ele>
        <time>2010-01-01T00:31:41Z</time>
      </trkpt>
      <trkpt lat="44.26265" lon="6.13478">
        <ele>1550</ele>
        <time>2010-01-01T00:31:44Z</time>
      </trkpt>
      <trkpt lat="44.26266" lon="6.1348">
        <ele>1550</ele>
        <time>2010-01-01T00:31:45Z</time>
      </trkpt>
      <trkpt lat="44.26281" lon="6.13498">
        <ele>1553</ele>
        <time>2010-01-01T00:31:50Z</time>
      </trkpt>
      <trkpt lat="44.26284" lon="6.13503">
        <ele>1553</ele>
        <time>2010-01-01T00:31:51Z</time>
      </trkpt>
      <trkpt lat="44.26291" lon="6.13516">
        <ele>1554</ele>
        <time>2010-01-01T00:31:54Z</time>
      </trkpt>
      <trkpt lat="44.26294" lon="6.13534">
        <ele>1555</ele>
        <time>2010-01-01T00:31:58Z</time>
      </trkpt>
      <trkpt lat="44.26294" lon="6.13541">
        <ele>1555</ele>
        <time>2010-01-01T00:31:59Z</time>
      </trkpt>
      <trkpt lat="44.26293" lon="6.13553">
        <ele>1554</ele>
        <time>2010-01-01T00:32:02Z</time>
      </trkpt>
      <trkpt lat="44.26293" lon="6.13562">
        <ele>1554</ele>
        <time>2010-01-01T00:32:03Z</time>
      </trkpt>
      <trkpt lat="44.26292" lon="6.13575">
        <ele>1553</ele>
        <time>2010-01-01T00:32:06Z</time>
      </trkpt>
      <trkpt lat="44.26292" lon="6.13587">
        <ele>1554</ele>
        <time>2010-01-01T00:32:08Z</time>
      </trkpt>
      <trkpt lat="44.26292" lon="6.13594">
        <ele>1554</ele>
        <time>2010-01-01T00:32:10Z</time>
      </trkpt>
      <trkpt lat="44.26297" lon="6.13615">
        <ele>1556</ele>
        <time>2010-01-01T00:32:14Z</time>
      </trkpt>
      <trkpt lat="44.26303" lon="6.13634">
        <ele>1559</ele>
        <time>2010-01-01T00:32:18Z</time>
      </trkpt>
      <trkpt lat="44.26304" lon="6.13637">
        <ele>1559</ele>
        <time>2010-01-01T00:32:18Z</time>
      </trkpt>
      <trkpt lat="44.26308" lon="6.1365">
        <ele>1560</ele>
        <time>2010-01-01T00:32:21Z</time>
      </trkpt>
      <trkpt lat="44.26311" lon="6.13658">
        <ele>1561</ele>
        <time>2010-01-01T00:32:23Z</time>
      </trkpt>
      <trkpt lat="44.26313" lon="6.13663">
        <ele>1562</ele>
        <time>2010-01-01T00:32:24Z</time>
      </trkpt>
      <trkpt lat="44.26319" lon="6.13678">
        <ele>1563</ele>
        <time>2010-01-01T00:32:27Z</time>
      </trkpt>
      <trkpt lat="44.2632" lon="6.13681">
        <ele>1563</ele>
        <time>2010-01-01T00:32:28Z</time>
      </trkpt>
      <trkpt lat="44.26325" lon="6.13699">
        <ele>1564</ele>
        <time>2010-01-01T00:32:31Z</time>
      </trkpt>
      <trkpt lat="44.26327" lon="6.13707">
        <ele>1565</ele>
        <time>2010-01-01T00:32:33Z</time>
      </trkpt>
      <trkpt lat="44.26328" lon="6.13718">
        <ele>1565</ele>
        <time>2010-01-01T00:32:35Z</time>
      </trkpt>
      <trkpt lat="44.26328" lon="6.13723">
        <ele>1565</ele>
        <time>2010-01-01T00:32:36Z</time>
      </trkpt>
      <trkpt lat="44.26325" lon="6.13743">
        <ele>1565</ele>
        <time>2010-01-01T00:32:40Z</time>
      </trkpt>
      <trkpt lat="44.26324" lon="6.13754">
        <ele>1565</ele>
        <time>2010-01-01T00:32:42Z</time>
      </trkpt>
      <trkpt lat="44.26324" lon="6.13763">
        <ele>1566</ele>
        <time>2010-01-01T00:32:44Z</time>
      </trkpt>
      <trkpt lat="44.26325" lon="6.13783">
        <ele>1568</ele>
        <time>2010-01-01T00:32:48Z</time>
      </trkpt>
      <trkpt lat="44.26326" lon="6.13786">
        <ele>1568</ele>
        <time>2010-01-01T00:32:48Z</time>
      </trkpt>
      <trkpt lat="44.26325" lon="6.138">
        <ele>1568</ele>
        <time>2010-01-01T00:32:51Z</time>
      </trkpt>
      <trkpt lat="44.26325" lon="6.13803">
        <ele>1567</ele>
        <time>2010-01-01T00:32:52Z</time>
      </trkpt>
      <trkpt lat="44.26328" lon="6.1382">
        <ele>1568</ele>
        <time>2010-01-01T00:32:55Z</time>
      </trkpt>
      <trkpt lat="44.26334" lon="6.13835">
        <ele>1571</ele>
        <time>2010-01-01T00:32:58Z</time>
      </trkpt>
      <trkpt lat="44.2634" lon="6.13849">
        <ele>1575</ele>
        <time>2010-01-01T00:33:01Z</time>
      </trkpt>
      <trkpt lat="44.26343" lon="6.13856">
        <ele>1577</ele>
        <time>2010-01-01T00:33:03Z</time>
      </trkpt>
      <trkpt lat="44.26348" lon="6.13865">
        <ele>1579</ele>
        <time>2010-01-01T00:33:05Z</time>
      </trkpt>
      <trkpt lat="44.26352" lon="6.1387">
        <ele>1580</ele>
        <time>2010-01-01T00:33:07Z</time>
      </trkpt>
      <trkpt lat="44.26355" lon="6.13874">
        <ele>1581</ele>
        <time>2010-01-01T00:33:08Z</time>
      </trkpt>
      <trkpt lat="44.26358" lon="6.13887">
        <ele>1582</ele>
        <time>2010-01-01T00:33:10Z</time>
      </trkpt>
      <trkpt lat="44.26357" lon="6.13892">
        <ele>1582</ele>
        <time>2010-01-01T00:33:11Z</time>
      </trkpt>
      <trkpt lat="44.26349" lon="6.13905">
        <ele>1579</ele>
        <time>2010-01-01T00:33:14Z</time>
      </trkpt>
      <trkpt lat="44.26342" lon="6.13916">
        <ele>1577</ele>
        <time>2010-01-01T00:33:17Z</time>
      </trkpt>
      <trkpt lat="44.26337" lon="6.13923">
        <ele>1576</ele>
        <time>2010-01-01T00:33:19Z</time>
      </trkpt>
      <trkpt lat="44.26329" lon="6.13938">
        <ele>1575</ele>
        <time>2010-01-01T00:33:23Z</time>
      </trkpt>
      <trkpt lat="44.26327" lon="6.13943">
        <ele>1575</ele>
        <time>2010-01-01T00:33:24Z</time>
      </trkpt>
      <trkpt lat="44.26323" lon="6.13955">
        <ele>1575</ele>
        <time>2010-01-01T00:33:26Z</time>
      </trkpt>
      <trkpt lat="44.2632" lon="6.13964">
        <ele>1576</ele>
        <time>2010-01-01T00:33:28Z</time>
      </trkpt>
      <trkpt lat="44.26316" lon="6.13986">
        <ele>1579</ele>
        <time>2010-01-01T00:33:33Z</time>
      </trkpt>
      <trkpt lat="44.2631" lon="6.14013">
        <ele>1582</ele>
        <time>2010-01-01T00:33:38Z</time>
      </trkpt>
      <trkpt lat="44.26305" lon="6.14039">
        <ele>1582</ele>
        <time>2010-01-01T00:33:43Z</time>
      </trkpt>
      <trkpt lat="44.26304" lon="6.14048">
        <ele>1581</ele>
        <time>2010-01-01T00:33:45Z</time>
      </trkpt>
      <trkpt lat="44.26306" lon="6.14084">
        <ele>1581</ele>
        <time>2010-01-01T00:33:52Z</time>
      </trkpt>
      <trkpt lat="44.26308" lon="6.14092">
        <ele>1581</ele>
        <time>2010-01-01T00:33:53Z</time>
      </trkpt>
      <trkpt lat="44.26309" lon="6.14104">
        <ele>1582</ele>
        <time>2010-01-01T00:33:56Z</time>
      </trkpt>
      <trkpt lat="44.26309" lon="6.14141">
        <ele>1583</ele>
        <time>2010-01-01T00:34:03Z</time>
      </trkpt>
      <trkpt lat="44.26309" lon="6.14173">
        <ele>1584</ele>
        <time>2010-01-01T00:34:09Z</time>
      </trkpt>
      <trkpt lat="44.26306" lon="6.14188">
        <ele>1583</ele>
        <time>2010-01-01T00:34:12Z</time>
      </trkpt>
      <trkpt lat="44.26306" lon="6.14199">
        <ele>1582</ele>
        <time>2010-01-01T00:34:14Z</time>
      </trkpt>
      <trkpt lat="44.26308" lon="6.14223">
        <ele>1581</ele>
        <time>2010-01-01T00:34:19Z</time>
      </trkpt>
      <trkpt lat="44.26314" lon="6.14252">
        <ele>1578</ele>
        <time>2010-01-01T00:34:24Z</time>
      </trkpt>
      <trkpt lat="44.26321" lon="6.14276">
        <ele>1579</ele>
        <time>2010-01-01T00:34:29Z</time>
      </trkpt>
      <trkpt lat="44.26325" lon="6.14282">
        <ele>1579</ele>
        <time>2010-01-01T00:34:31Z</time>
      </trkpt>
      <trkpt lat="44.26329" lon="6.14289">
        <ele>1580</ele>
        <time>2010-01-01T00:34:33Z</time>
      </trkpt>
      <trkpt lat="44.26333" lon="6.14296">
        <ele>1580</ele>
        <time>2010-01-01T00:34:34Z</time>
      </trkpt>
      <trkpt lat="44.26342" lon="6.14313">
        <ele>1580</ele>
        <time>2010-01-01T00:34:38Z</time>
      </trkpt>
      <trkpt lat="44.26351" lon="6.1433">
        <ele>1580</ele>
        <time>2010-01-01T00:34:42Z</time>
      </trkpt>
      <trkpt lat="44.26357" lon="6.14336">
        <ele>1581</ele>
        <time>2010-01-01T00:34:44Z</time>
      </trkpt>
      <trkpt lat="44.26361" lon="6.14338">
        <ele>1582</ele>
        <time>2010-01-01T00:34:46Z</time>
      </trkpt>
      <trkpt lat="44.26372" lon="6.14339">
        <ele>1584</ele>
        <time>2010-01-01T00:34:48Z</time>
      </trkpt>
      <trkpt lat="44.26387" lon="6.14339">
        <ele>1586</ele>
        <time>2010-01-01T00:34:52Z</time>
      </trkpt>
      <trkpt lat="44.2639" lon="6.14339">
        <ele>1586</ele>
        <time>2010-01-01T00:34:53Z</time>
      </trkpt>
      <trkpt lat="44.26404" lon="6.14338">
        <ele>1587</ele>
        <time>2010-01-01T00:34:57Z</time>
      </trkpt>
      <trkpt lat="44.2641" lon="6.14337">
        <ele>1587</ele>
        <time>2010-01-01T00:34:58Z</time>
      </trkpt>
      <trkpt lat="44.26424" lon="6.14337">
        <ele>1587</ele>
        <time>2010-01-01T00:35:02Z</time>
      </trkpt>
      <trkpt lat="44.26437" lon="6.14338">
        <ele>1588</ele>
        <time>2010-01-01T00:35:06Z</time>
      </trkpt>
      <trkpt lat="44.26451" lon="6.14349">
        <ele>1588</ele>
        <time>2010-01-01T00:35:10Z</time>
      </trkpt>
      <trkpt lat="44.26457" lon="6.14353">
        <ele>1588</ele>
        <time>2010-01-01T00:35:12Z</time>
      </trkpt>
      <trkpt lat="44.26458" lon="6.14353">
        <ele>1589</ele>
        <time>2010-01-01T00:35:12Z</time>
      </trkpt>
      <trkpt lat="44.2646" lon="6.14354">
        <ele>1589</ele>
        <time>2010-01-01T00:35:13Z</time>
      </trkpt>
      <trkpt lat="44.2646" lon="6.14354">
        <ele>1589</ele>
        <time>2010-01-01T00:35:13Z</time>
      </trkpt>
      <trkpt lat="44.2646" lon="6.14354">
        <ele>1589</ele>
        <time>2010-01-01T00:35:13Z</time>
      </trkpt>
      <trkpt lat="44.26461" lon="6.14354">
        <ele>1589</ele>
        <time>2010-01-01T00:35:13Z</time>
      </trkpt>
      <trkpt lat="44.26465" lon="6.14353">
        <ele>1590</ele>
        <time>2010-01-01T00:35:14Z</time>
      </trkpt>
      <trkpt lat="44.26467" lon="6.14352">
        <ele>1591</ele>
        <time>2010-01-01T00:35:15Z</time>
      </trkpt>
      <trkpt lat="44.2647" lon="6.14348">
        <ele>1592</ele>
        <time>2010-01-01T00:35:16Z</time>
      </trkpt>
      <trkpt lat="44.26471" lon="6.14347">
        <ele>1593</ele>
        <time>2010-01-01T00:35:16Z</time>
      </trkpt>
      <trkpt lat="44.26472" lon="6.14344">
        <ele>1594</ele>
        <time>2010-01-01T00:35:17Z</time>
      </trkpt>
      <trkpt lat="44.26473" lon="6.14341">
        <ele>1594</ele>
        <time>2010-01-01T00:35:17Z</time>
      </trkpt>
      <trkpt lat="44.26474" lon="6.1434">
        <ele>1595</ele>
        <time>2010-01-01T00:35:18Z</time>
      </trkpt>
      <trkpt lat="44.26476" lon="6.14339">
        <ele>1596</ele>
        <time>2010-01-01T00:35:18Z</time>
      </trkpt>
      <trkpt lat="44.26477" lon="6.14339">
        <ele>1596</ele>
        <time>2010-01-01T00:35:19Z</time>
      </trkpt>
      <trkpt lat="44.26477" lon="6.14339">
        <ele>1596</ele>
        <time>2010-01-01T00:35:19Z</time>
      </trkpt>
      <trkpt lat="44.26478" lon="6.14339">
        <ele>1597</ele>
        <time>2010-01-01T00:35:19Z</time>
      </trkpt>
      <trkpt lat="44.26478" lon="6.14339">
        <ele>1597</ele>
        <time>2010-01-01T00:35:19Z</time>
      </trkpt>
      <trkpt lat="44.26478" lon="6.14339">
        <ele>1597</ele>
        <time>2010-01-01T00:35:19Z</time>
      </trkpt>
      <trkpt lat="44.26478" lon="6.14339">
        <ele>1597</ele>
        <time>2010-01-01T00:35:19Z</time>
      </trkpt>
      <trkpt lat="44.26478" lon="6.14339">
        <ele>1597</ele>
        <time>2010-01-01T00:35:19Z</time>
      </trkpt>
      <trkpt lat="44.26478" lon="6.14339">
        <ele>1597</ele>
        <time>2010-01-01T00:35:19Z</time>
      </trkpt>
      <trkpt lat="44.26478" lon="6.14339">
        <ele>1596</ele>
        <time>2010-01-01T00:35:19Z</time>
      </trkpt>
      <trkpt lat="44.26477" lon="6.14339">
        <ele>1596</ele>
        <time>2010-01-01T00:35:19Z</time>
      </trkpt>
      <trkpt lat="44.26478" lon="6.14339">
        <ele>1596</ele>
        <time>2010-01-01T00:35:20Z</time>
      </trkpt>
      <trkpt lat="44.26477" lon="6.1434">
        <ele>1596</ele>
        <time>2010-01-01T00:35:20Z</time>
      </trkpt>
      <trkpt lat="44.26478" lon="6.1434">
        <ele>1596</ele>
        <time>2010-01-01T00:35:20Z</time>
      </trkpt>
      <trkpt lat="44.26477" lon="6.1434">
        <ele>1596</ele>
        <time>2010-01-01T00:35:20Z</time>
      </trkpt>
      <trkpt lat="44.26477" lon="6.1434">
        <ele>1596</ele>
        <time>2010-01-01T00:35:20Z</time>
      </trkpt>
      <trkpt lat="44.26477" lon="6.14339">
        <ele>1596</ele>
        <time>2010-01-01T00:35:20Z</time>
      </trkpt>
      <trkpt lat="44.26477" lon="6.14338">
        <ele>1596</ele>
        <time>2010-01-01T00:35:20Z</time>
      </trkpt>
      <trkpt lat="44.26478" lon="6.14339">
        <ele>1596</ele>
        <time>2010-01-01T00:35:21Z</time>
      </trkpt>
      <trkpt lat="44.26479" lon="6.1434">
        <ele>1597</ele>
        <time>2010-01-01T00:35:21Z</time>
      </trkpt>
      <trkpt lat="44.26479" lon="6.14339">
        <ele>1597</ele>
        <time>2010-01-01T00:35:21Z</time>
      </trkpt>
      <trkpt lat="44.26479" lon="6.14339">
        <ele>1597</ele>
        <time>2010-01-01T00:35:21Z</time>
      </trkpt>
      <trkpt lat="44.26479" lon="6.14339">
        <ele>1597</ele>
        <time>2010-01-01T00:35:21Z</time>
      </trkpt>
      <trkpt lat="44.26478" lon="6.14339">
        <ele>1596</ele>
        <time>2010-01-01T00:35:22Z</time>
      </trkpt>
      <trkpt lat="44.26478" lon="6.1434">
        <ele>1596</ele>
        <time>2010-01-01T00:35:22Z</time>
      </trkpt>
      <trkpt lat="44.26479" lon="6.1434">
        <ele>1597</ele>
        <time>2010-01-01T00:35:22Z</time>
      </trkpt>
      <trkpt lat="44.26478" lon="6.1434">
        <ele>1596</ele>
        <time>2010-01-01T00:35:22Z</time>
      </trkpt>
      <trkpt lat="44.26479" lon="6.1434">
        <ele>1597</ele>
        <time>2010-01-01T00:35:22Z</time>
      </trkpt>
      <trkpt lat="44.2648" lon="6.14341">
        <ele>1597</ele>
        <time>2010-01-01T00:35:22Z</time>
      </trkpt>
      <trkpt lat="44.26482" lon="6.14342">
        <ele>1597</ele>
        <time>2010-01-01T00:35:23Z</time>
      </trkpt>
      <trkpt lat="44.26482" lon="6.14342">
        <ele>1597</ele>
        <time>2010-01-01T00:35:23Z</time>
      </trkpt>
      <trkpt lat="44.26485" lon="6.14344">
        <ele>1598</ele>
        <time>2010-01-01T00:35:24Z</time>
      </trkpt>
      <trkpt lat="44.26486" lon="6.14344">
        <ele>1598</ele>
        <time>2010-01-01T00:35:24Z</time>
      </trkpt>
      <trkpt lat="44.26489" lon="6.14347">
        <ele>1599</ele>
        <time>2010-01-01T00:35:25Z</time>
      </trkpt>
      <trkpt lat="44.2649" lon="6.14348">
        <ele>1599</ele>
        <time>2010-01-01T00:35:25Z</time>
      </trkpt>
      <trkpt lat="44.2649" lon="6.14348">
        <ele>1599</ele>
        <time>2010-01-01T00:35:26Z</time>
      </trkpt>
      <trkpt lat="44.26491" lon="6.14348">
        <ele>1599</ele>
        <time>2010-01-01T00:35:26Z</time>
      </trkpt>
      <trkpt lat="44.26492" lon="6.1435">
        <ele>1599</ele>
        <time>2010-01-01T00:35:26Z</time>
      </trkpt>
      <trkpt lat="44.26495" lon="6.14351">
        <ele>1600</ele>
        <time>2010-01-01T00:35:27Z</time>
      </trkpt>
      <trkpt lat="44.26496" lon="6.14351">
        <ele>1600</ele>
        <time>2010-01-01T00:35:27Z</time>
      </trkpt>
      <trkpt lat="44.26497" lon="6.14352">
        <ele>1600</ele>
        <time>2010-01-01T00:35:27Z</time>
      </trkpt>
      <trkpt lat="44.26499" lon="6.14354">
        <ele>1601</ele>
        <time>2010-01-01T00:35:28Z</time>
      </trkpt>
      <trkpt lat="44.26501" lon="6.14357">
        <ele>1601</ele>
        <time>2010-01-01T00:35:29Z</time>
      </trkpt>
      <trkpt lat="44.26503" lon="6.14359">
        <ele>1601</ele>
        <time>2010-01-01T00:35:30Z</time>
      </trkpt>
      <trkpt lat="44.26503" lon="6.14359">
        <ele>1601</ele>
        <time>2010-01-01T00:35:30Z</time>
      </trkpt>
      <trkpt lat="44.26504" lon="6.1436">
        <ele>1601</ele>
        <time>2010-01-01T00:35:30Z</time>
      </trkpt>
      <trkpt lat="44.26507" lon="6.14364">
        <ele>1602</ele>
        <time>2010-01-01T00:35:31Z</time>
      </trkpt>
      <trkpt lat="44.26508" lon="6.14369">
        <ele>1602</ele>
        <time>2010-01-01T00:35:32Z</time>
      </trkpt>
      <trkpt lat="44.26513" lon="6.14378">
        <ele>1603</ele>
        <time>2010-01-01T00:35:34Z</time>
      </trkpt>
      <trkpt lat="44.26515" lon="6.14382">
        <ele>1603</ele>
        <time>2010-01-01T00:35:35Z</time>
      </trkpt>
      <trkpt lat="44.26516" lon="6.14385">
        <ele>1603</ele>
        <time>2010-01-01T00:35:36Z</time>
      </trkpt>
      <trkpt lat="44.26518" lon="6.14397">
        <ele>1603</ele>
        <time>2010-01-01T00:35:38Z</time>
      </trkpt>
      <trkpt lat="44.26521" lon="6.14409">
        <ele>1603</ele>
        <time>2010-01-01T00:35:41Z</time>
      </trkpt>
      <trkpt lat="44.26522" lon="6.14411">
        <ele>1603</ele>
        <time>2010-01-01T00:35:41Z</time>
      </trkpt>
      <trkpt lat="44.26523" lon="6.14414">
        <ele>1604</ele>
        <time>2010-01-01T00:35:42Z</time>
      </trkpt>
      <trkpt lat="44.26525" lon="6.14421">
        <ele>1604</ele>
        <time>2010-01-01T00:35:43Z</time>
      </trkpt>
      <trkpt lat="44.26526" lon="6.14423">
        <ele>1604</ele>
        <time>2010-01-01T00:35:44Z</time>
      </trkpt>
      <trkpt lat="44.26528" lon="6.14426">
        <ele>1605</ele>
        <time>2010-01-01T00:35:44Z</time>
      </trkpt>
      <trkpt lat="44.26531" lon="6.1443">
        <ele>1607</ele>
        <time>2010-01-01T00:35:46Z</time>
      </trkpt>
      <trkpt lat="44.26532" lon="6.14431">
        <ele>1607</ele>
        <time>2010-01-01T00:35:46Z</time>
      </trkpt>
      <trkpt lat="44.26534" lon="6.14436">
        <ele>1607</ele>
        <time>2010-01-01T00:35:47Z</time>
      </trkpt>
      <trkpt lat="44.26538" lon="6.14442">
        <ele>1609</ele>
        <time>2010-01-01T00:35:48Z</time>
      </trkpt>
      <trkpt lat="44.26539" lon="6.14443">
        <ele>1610</ele>
        <time>2010-01-01T00:35:49Z</time>
      </trkpt>
      <trkpt lat="44.26541" lon="6.14448">
        <ele>1611</ele>
        <time>2010-01-01T00:35:50Z</time>
      </trkpt>
      <trkpt lat="44.26546" lon="6.14454">
        <ele>1613</ele>
        <time>2010-01-01T00:35:52Z</time>
      </trkpt>
      <trkpt lat="44.2655" lon="6.14459">
        <ele>1615</ele>
        <time>2010-01-01T00:35:53Z</time>
      </trkpt>
      <trkpt lat="44.26551" lon="6.1446">
        <ele>1616</ele>
        <time>2010-01-01T00:35:53Z</time>
      </trkpt>
      <trkpt lat="44.26553" lon="6.14464">
        <ele>1616</ele>
        <time>2010-01-01T00:35:54Z</time>
      </trkpt>
      <trkpt lat="44.26555" lon="6.14467">
        <ele>1617</ele>
        <time>2010-01-01T00:35:55Z</time>
      </trkpt>
      <trkpt lat="44.26556" lon="6.14471">
        <ele>1617</ele>
        <time>2010-01-01T00:35:56Z</time>
      </trkpt>
      <trkpt lat="44.26557" lon="6.14473">
        <ele>1617</ele>
        <time>2010-01-01T00:35:56Z</time>
      </trkpt>
      <trkpt lat="44.26558" lon="6.14476">
        <ele>1618</ele>
        <time>2010-01-01T00:35:57Z</time>
      </trkpt>
      <trkpt lat="44.26559" lon="6.14477">
        <ele>1618</ele>
        <time>2010-01-01T00:35:57Z</time>
      </trkpt>
      <trkpt lat="44.26561" lon="6.14482">
        <ele>1619</ele>
        <time>2010-01-01T00:35:59Z</time>
      </trkpt>
      <trkpt lat="44.26563" lon="6.14485">
        <ele>1619</ele>
        <time>2010-01-01T00:35:59Z</time>
      </trkpt>
      <trkpt lat="44.26567" lon="6.14494">
        <ele>1621</ele>
        <time>2010-01-01T00:36:01Z</time>
      </trkpt>
      <trkpt lat="44.26569" lon="6.14499">
        <ele>1621</ele>
        <time>2010-01-01T00:36:02Z</time>
      </trkpt>
      <trkpt lat="44.26569" lon="6.145">
        <ele>1621</ele>
        <time>2010-01-01T00:36:02Z</time>
      </trkpt>
      <trkpt lat="44.26572" lon="6.14507">
        <ele>1622</ele>
        <time>2010-01-01T00:36:04Z</time>
      </trkpt>
      <trkpt lat="44.26573" lon="6.14509">
        <ele>1622</ele>
        <time>2010-01-01T00:36:05Z</time>
      </trkpt>
      <trkpt lat="44.26576" lon="6.14516">
        <ele>1623</ele>
        <time>2010-01-01T00:36:06Z</time>
      </trkpt>
      <trkpt lat="44.26577" lon="6.14517">
        <ele>1623</ele>
        <time>2010-01-01T00:36:06Z</time>
      </trkpt>
      <trkpt lat="44.26579" lon="6.1452">
        <ele>1624</ele>
        <time>2010-01-01T00:36:07Z</time>
      </trkpt>
      <trkpt lat="44.26579" lon="6.14521">
        <ele>1624</ele>
        <time>2010-01-01T00:36:07Z</time>
      </trkpt>
      <trkpt lat="44.26581" lon="6.14523">
        <ele>1625</ele>
        <time>2010-01-01T00:36:08Z</time>
      </trkpt>
      <trkpt lat="44.26582" lon="6.14525">
        <ele>1625</ele>
        <time>2010-01-01T00:36:08Z</time>
      </trkpt>
      <trkpt lat="44.26584" lon="6.14528">
        <ele>1626</ele>
        <time>2010-01-01T00:36:09Z</time>
      </trkpt>
      <trkpt lat="44.26585" lon="6.1453">
        <ele>1626</ele>
        <time>2010-01-01T00:36:10Z</time>
      </trkpt>
      <trkpt lat="44.26586" lon="6.14534">
        <ele>1626</ele>
        <time>2010-01-01T00:36:11Z</time>
      </trkpt>
      <trkpt lat="44.26588" lon="6.1454">
        <ele>1626</ele>
        <time>2010-01-01T00:36:12Z</time>
      </trkpt>
      <trkpt lat="44.26589" lon="6.14542">
        <ele>1626</ele>
        <time>2010-01-01T00:36:12Z</time>
      </trkpt>
      <trkpt lat="44.26591" lon="6.14547">
        <ele>1627</ele>
        <time>2010-01-01T00:36:13Z</time>
      </trkpt>
      <trkpt lat="44.26593" lon="6.14548">
        <ele>1628</ele>
        <time>2010-01-01T00:36:14Z</time>
      </trkpt>
      <trkpt lat="44.26593" lon="6.14551">
        <ele>1628</ele>
        <time>2010-01-01T00:36:14Z</time>
      </trkpt>
      <trkpt lat="44.26594" lon="6.14555">
        <ele>1627</ele>
        <time>2010-01-01T00:36:15Z</time>
      </trkpt>
      <trkpt lat="44.26596" lon="6.14561">
        <ele>1628</ele>
        <time>2010-01-01T00:36:16Z</time>
      </trkpt>
      <trkpt lat="44.26597" lon="6.14562">
        <ele>1628</ele>
        <time>2010-01-01T00:36:17Z</time>
      </trkpt>
      <trkpt lat="44.266" lon="6.14568">
        <ele>1629</ele>
        <time>2010-01-01T00:36:18Z</time>
      </trkpt>
      <trkpt lat="44.26601" lon="6.14571">
        <ele>1629</ele>
        <time>2010-01-01T00:36:19Z</time>
      </trkpt>
      <trkpt lat="44.26602" lon="6.14574">
        <ele>1629</ele>
        <time>2010-01-01T00:36:19Z</time>
      </trkpt>
      <trkpt lat="44.26603" lon="6.14576">
        <ele>1629</ele>
        <time>2010-01-01T00:36:20Z</time>
      </trkpt>
      <trkpt lat="44.26603" lon="6.14578">
        <ele>1629</ele>
        <time>2010-01-01T00:36:20Z</time>
      </trkpt>
      <trkpt lat="44.26604" lon="6.1458">
        <ele>1630</ele>
        <time>2010-01-01T00:36:21Z</time>
      </trkpt>
      <trkpt lat="44.26608" lon="6.14587">
        <ele>1631</ele>
        <time>2010-01-01T00:36:22Z</time>
      </trkpt>
      <trkpt lat="44.26609" lon="6.14588">
        <ele>1631</ele>
        <time>2010-01-01T00:36:23Z</time>
      </trkpt>
      <trkpt lat="44.2661" lon="6.14589">
        <ele>1632</ele>
        <time>2010-01-01T00:36:23Z</time>
      </trkpt>
      <trkpt lat="44.26612" lon="6.14594">
        <ele>1633</ele>
        <time>2010-01-01T00:36:24Z</time>
      </trkpt>
      <trkpt lat="44.26612" lon="6.14595">
        <ele>1633</ele>
        <time>2010-01-01T00:36:24Z</time>
      </trkpt>
      <trkpt lat="44.26613" lon="6.14596">
        <ele>1634</ele>
        <time>2010-01-01T00:36:25Z</time>
      </trkpt>
      <trkpt lat="44.26614" lon="6.14598">
        <ele>1634</ele>
        <time>2010-01-01T00:36:25Z</time>
      </trkpt>
      <trkpt lat="44.26616" lon="6.14602">
        <ele>1636</ele>
        <time>2010-01-01T00:36:26Z</time>
      </trkpt>
      <trkpt lat="44.26619" lon="6.14608">
        <ele>1638</ele>
        <time>2010-01-01T00:36:27Z</time>
      </trkpt>
      <trkpt lat="44.2662" lon="6.14609">
        <ele>1638</ele>
        <time>2010-01-01T00:36:28Z</time>
      </trkpt>
      <trkpt lat="44.26621" lon="6.14612">
        <ele>1639</ele>
        <time>2010-01-01T00:36:28Z</time>
      </trkpt>
      <trkpt lat="44.26622" lon="6.14615">
        <ele>1639</ele>
        <time>2010-01-01T00:36:29Z</time>
      </trkpt>
      <trkpt lat="44.26622" lon="6.14616">
        <ele>1639</ele>
        <time>2010-01-01T00:36:29Z</time>
      </trkpt>
      <trkpt lat="44.26622" lon="6.14617">
        <ele>1639</ele>
        <time>2010-01-01T00:36:29Z</time>
      </trkpt>
      <trkpt lat="44.26623" lon="6.14623">
        <ele>1639</ele>
        <time>2010-01-01T00:36:30Z</time>
      </trkpt>
      <trkpt lat="44.26623" lon="6.14632">
        <ele>1639</ele>
        <time>2010-01-01T00:36:32Z</time>
      </trkpt>
      <trkpt lat="44.26625" lon="6.14635">
        <ele>1640</ele>
        <time>2010-01-01T00:36:33Z</time>
      </trkpt>
      <trkpt lat="44.26626" lon="6.14639">
        <ele>1640</ele>
        <time>2010-01-01T00:36:34Z</time>
      </trkpt>
      <trkpt lat="44.26625" lon="6.14639">
        <ele>1640</ele>
        <time>2010-01-01T00:36:34Z</time>
      </trkpt>
      <trkpt lat="44.26626" lon="6.1464">
        <ele>1640</ele>
        <time>2010-01-01T00:36:34Z</time>
      </trkpt>
      <trkpt lat="44.26627" lon="6.14646">
        <ele>1640</ele>
        <time>2010-01-01T00:36:35Z</time>
      </trkpt>
      <trkpt lat="44.26629" lon="6.14652">
        <ele>1641</ele>
        <time>2010-01-01T00:36:36Z</time>
      </trkpt>
      <trkpt lat="44.26629" lon="6.14651">
        <ele>1641</ele>
        <time>2010-01-01T00:36:37Z</time>
      </trkpt>
      <trkpt lat="44.2663" lon="6.14653">
        <ele>1641</ele>
        <time>2010-01-01T00:36:37Z</time>
      </trkpt>
      <trkpt lat="44.2663" lon="6.14655">
        <ele>1641</ele>
        <time>2010-01-01T00:36:37Z</time>
      </trkpt>
      <trkpt lat="44.26632" lon="6.14659">
        <ele>1642</ele>
        <time>2010-01-01T00:36:38Z</time>
      </trkpt>
      <trkpt lat="44.26633" lon="6.14669">
        <ele>1642</ele>
        <time>2010-01-01T00:36:40Z</time>
      </trkpt>
      <trkpt lat="44.26634" lon="6.14671">
        <ele>1642</ele>
        <time>2010-01-01T00:36:41Z</time>
      </trkpt>
      <trkpt lat="44.26635" lon="6.14678">
        <ele>1643</ele>
        <time>2010-01-01T00:36:42Z</time>
      </trkpt>
      <trkpt lat="44.26636" lon="6.1468">
        <ele>1643</ele>
        <time>2010-01-01T00:36:42Z</time>
      </trkpt>
      <trkpt lat="44.26637" lon="6.14682">
        <ele>1644</ele>
        <time>2010-01-01T00:36:43Z</time>
      </trkpt>
      <trkpt lat="44.26638" lon="6.14684">
        <ele>1644</ele>
        <time>2010-01-01T00:36:43Z</time>
      </trkpt>
      <trkpt lat="44.26638" lon="6.14685">
        <ele>1645</ele>
        <time>2010-01-01T00:36:44Z</time>
      </trkpt>
      <trkpt lat="44.2664" lon="6.14691">
        <ele>1646</ele>
        <time>2010-01-01T00:36:45Z</time>
      </trkpt>
      <trkpt lat="44.2664" lon="6.14692">
        <ele>1646</ele>
        <time>2010-01-01T00:36:45Z</time>
      </trkpt>
      <trkpt lat="44.26641" lon="6.14696">
        <ele>1647</ele>
        <time>2010-01-01T00:36:46Z</time>
      </trkpt>
      <trkpt lat="44.26642" lon="6.14701">
        <ele>1648</ele>
        <time>2010-01-01T00:36:47Z</time>
      </trkpt>
      <trkpt lat="44.26643" lon="6.14704">
        <ele>1648</ele>
        <time>2010-01-01T00:36:47Z</time>
      </trkpt>
      <trkpt lat="44.26646" lon="6.14714">
        <ele>1650</ele>
        <time>2010-01-01T00:36:49Z</time>
      </trkpt>
      <trkpt lat="44.26648" lon="6.14719">
        <ele>1651</ele>
        <time>2010-01-01T00:36:51Z</time>
      </trkpt>
      <trkpt lat="44.26649" lon="6.14725">
        <ele>1651</ele>
        <time>2010-01-01T00:36:52Z</time>
      </trkpt>
      <trkpt lat="44.2665" lon="6.14731">
        <ele>1651</ele>
        <time>2010-01-01T00:36:53Z</time>
      </trkpt>
      <trkpt lat="44.26653" lon="6.1474">
        <ele>1653</ele>
        <time>2010-01-01T00:36:55Z</time>
      </trkpt>
      <trkpt lat="44.26656" lon="6.14745">
        <ele>1654</ele>
        <time>2010-01-01T00:36:56Z</time>
      </trkpt>
      <trkpt lat="44.26657" lon="6.14746">
        <ele>1655</ele>
        <time>2010-01-01T00:36:56Z</time>
      </trkpt>
      <trkpt lat="44.26659" lon="6.14751">
        <ele>1656</ele>
        <time>2010-01-01T00:36:57Z</time>
      </trkpt>
      <trkpt lat="44.26661" lon="6.14754">
        <ele>1657</ele>
        <time>2010-01-01T00:36:58Z</time>
      </trkpt>
      <trkpt lat="44.26661" lon="6.14757">
        <ele>1657</ele>
        <time>2010-01-01T00:36:59Z</time>
      </trkpt>
      <trkpt lat="44.26663" lon="6.14763">
        <ele>1657</ele>
        <time>2010-01-01T00:37:00Z</time>
      </trkpt>
      <trkpt lat="44.26663" lon="6.14765">
        <ele>1657</ele>
        <time>2010-01-01T00:37:00Z</time>
      </trkpt>
      <trkpt lat="44.26666" lon="6.14771">
        <ele>1659</ele>
        <time>2010-01-01T00:37:02Z</time>
      </trkpt>
      <trkpt lat="44.26667" lon="6.14773">
        <ele>1659</ele>
        <time>2010-01-01T00:37:02Z</time>
      </trkpt>
      <trkpt lat="44.26667" lon="6.14774">
        <ele>1659</ele>
        <time>2010-01-01T00:37:02Z</time>
      </trkpt>
      <trkpt lat="44.26668" lon="6.14777">
        <ele>1659</ele>
        <time>2010-01-01T00:37:03Z</time>
      </trkpt>
      <trkpt lat="44.26669" lon="6.1478">
        <ele>1659</ele>
        <time>2010-01-01T00:37:04Z</time>
      </trkpt>
      <trkpt lat="44.26669" lon="6.14782">
        <ele>1659</ele>
        <time>2010-01-01T00:37:04Z</time>
      </trkpt>
      <trkpt lat="44.26672" lon="6.14791">
        <ele>1659</ele>
        <time>2010-01-01T00:37:06Z</time>
      </trkpt>
      <trkpt lat="44.26673" lon="6.14792">
        <ele>1660</ele>
        <time>2010-01-01T00:37:06Z</time>
      </trkpt>
      <trkpt lat="44.26675" lon="6.14797">
        <ele>1660</ele>
        <time>2010-01-01T00:37:07Z</time>
      </trkpt>
      <trkpt lat="44.26676" lon="6.14798">
        <ele>1661</ele>
        <time>2010-01-01T00:37:08Z</time>
      </trkpt>
      <trkpt lat="44.26677" lon="6.14799">
        <ele>1661</ele>
        <time>2010-01-01T00:37:08Z</time>
      </trkpt>
      <trkpt lat="44.26678" lon="6.148">
        <ele>1661</ele>
        <time>2010-01-01T00:37:08Z</time>
      </trkpt>
      <trkpt lat="44.2668" lon="6.14803">
        <ele>1663</ele>
        <time>2010-01-01T00:37:09Z</time>
      </trkpt>
      <trkpt lat="44.26682" lon="6.14805">
        <ele>1663</ele>
        <time>2010-01-01T00:37:10Z</time>
      </trkpt>
      <trkpt lat="44.26683" lon="6.14809">
        <ele>1664</ele>
        <time>2010-01-01T00:37:11Z</time>
      </trkpt>
      <trkpt lat="44.26684" lon="6.1481">
        <ele>1664</ele>
        <time>2010-01-01T00:37:11Z</time>
      </trkpt>
      <trkpt lat="44.26686" lon="6.14813">
        <ele>1666</ele>
        <time>2010-01-01T00:37:12Z</time>
      </trkpt>
      <trkpt lat="44.26687" lon="6.14816">
        <ele>1666</ele>
        <time>2010-01-01T00:37:12Z</time>
      </trkpt>
      <trkpt lat="44.26689" lon="6.14821">
        <ele>1667</ele>
        <time>2010-01-01T00:37:13Z</time>
      </trkpt>
      <trkpt lat="44.26691" lon="6.14825">
        <ele>1668</ele>
        <time>2010-01-01T00:37:14Z</time>
      </trkpt>
      <trkpt lat="44.26693" lon="6.14831">
        <ele>1669</ele>
        <time>2010-01-01T00:37:16Z</time>
      </trkpt>
      <trkpt lat="44.26695" lon="6.14834">
        <ele>1670</ele>
        <time>2010-01-01T00:37:16Z</time>
      </trkpt>
      <trkpt lat="44.26696" lon="6.14838">
        <ele>1670</ele>
        <time>2010-01-01T00:37:17Z</time>
      </trkpt>
      <trkpt lat="44.26697" lon="6.14839">
        <ele>1670</ele>
        <time>2010-01-01T00:37:17Z</time>
      </trkpt>
      <trkpt lat="44.26699" lon="6.14842">
        <ele>1671</ele>
        <time>2010-01-01T00:37:18Z</time>
      </trkpt>
      <trkpt lat="44.26699" lon="6.14843">
        <ele>1671</ele>
        <time>2010-01-01T00:37:19Z</time>
      </trkpt>
      <trkpt lat="44.267" lon="6.14845">
        <ele>1671</ele>
        <time>2010-01-01T00:37:19Z</time>
      </trkpt>
      <trkpt lat="44.26702" lon="6.14852">
        <ele>1672</ele>
        <time>2010-01-01T00:37:20Z</time>
      </trkpt>
      <trkpt lat="44.26707" lon="6.14861">
        <ele>1674</ele>
        <time>2010-01-01T00:37:22Z</time>
      </trkpt>
      <trkpt lat="44.26709" lon="6.14863">
        <ele>1675</ele>
        <time>2010-01-01T00:37:23Z</time>
      </trkpt>
      <trkpt lat="44.2671" lon="6.14865">
        <ele>1675</ele>
        <time>2010-01-01T00:37:23Z</time>
      </trkpt>
      <trkpt lat="44.26714" lon="6.14872">
        <ele>1676</ele>
        <time>2010-01-01T00:37:25Z</time>
      </trkpt>
      <trkpt lat="44.26715" lon="6.14872">
        <ele>1676</ele>
        <time>2010-01-01T00:37:25Z</time>
      </trkpt>
      <trkpt lat="44.26716" lon="6.14874">
        <ele>1677</ele>
        <time>2010-01-01T00:37:26Z</time>
      </trkpt>
      <trkpt lat="44.26717" lon="6.14875">
        <ele>1677</ele>
        <time>2010-01-01T00:37:26Z</time>
      </trkpt>
      <trkpt lat="44.26717" lon="6.14875">
        <ele>1677</ele>
        <time>2010-01-01T00:37:26Z</time>
      </trkpt>
      <trkpt lat="44.26718" lon="6.14875">
        <ele>1678</ele>
        <time>2010-01-01T00:37:27Z</time>
      </trkpt>
      <trkpt lat="44.26719" lon="6.14878">
        <ele>1678</ele>
        <time>2010-01-01T00:37:27Z</time>
      </trkpt>
      <trkpt lat="44.2672" lon="6.1488">
        <ele>1678</ele>
        <time>2010-01-01T00:37:28Z</time>
      </trkpt>
      <trkpt lat="44.26722" lon="6.14881">
        <ele>1679</ele>
        <time>2010-01-01T00:37:28Z</time>
      </trkpt>
      <trkpt lat="44.26724" lon="6.14885">
        <ele>1680</ele>
        <time>2010-01-01T00:37:29Z</time>
      </trkpt>
      <trkpt lat="44.26725" lon="6.14887">
        <ele>1680</ele>
        <time>2010-01-01T00:37:29Z</time>
      </trkpt>
      <trkpt lat="44.26725" lon="6.14888">
        <ele>1680</ele>
        <time>2010-01-01T00:37:30Z</time>
      </trkpt>
      <trkpt lat="44.26726" lon="6.1489">
        <ele>1681</ele>
        <time>2010-01-01T00:37:30Z</time>
      </trkpt>
      <trkpt lat="44.26727" lon="6.14892">
        <ele>1681</ele>
        <time>2010-01-01T00:37:31Z</time>
      </trkpt>
      <trkpt lat="44.26729" lon="6.14896">
        <ele>1682</ele>
        <time>2010-01-01T00:37:32Z</time>
      </trkpt>
      <trkpt lat="44.26731" lon="6.14901">
        <ele>1682</ele>
        <time>2010-01-01T00:37:33Z</time>
      </trkpt>
      <trkpt lat="44.26733" lon="6.14909">
        <ele>1683</ele>
        <time>2010-01-01T00:37:34Z</time>
      </trkpt>
      <trkpt lat="44.26734" lon="6.14914">
        <ele>1683</ele>
        <time>2010-01-01T00:37:35Z</time>
      </trkpt>
      <trkpt lat="44.26737" lon="6.14922">
        <ele>1684</ele>
        <time>2010-01-01T00:37:37Z</time>
      </trkpt>
      <trkpt lat="44.2674" lon="6.14929">
        <ele>1685</ele>
        <time>2010-01-01T00:37:39Z</time>
      </trkpt>
      <trkpt lat="44.26743" lon="6.14934">
        <ele>1686</ele>
        <time>2010-01-01T00:37:40Z</time>
      </trkpt>
      <trkpt lat="44.26744" lon="6.14935">
        <ele>1686</ele>
        <time>2010-01-01T00:37:40Z</time>
      </trkpt>
      <trkpt lat="44.26747" lon="6.14944">
        <ele>1687</ele>
        <time>2010-01-01T00:37:42Z</time>
      </trkpt>
      <trkpt lat="44.26748" lon="6.14944">
        <ele>1687</ele>
        <time>2010-01-01T00:37:42Z</time>
      </trkpt>
      <trkpt lat="44.26748" lon="6.14944">
        <ele>1687</ele>
        <time>2010-01-01T00:37:42Z</time>
      </trkpt>
      <trkpt lat="44.26749" lon="6.14946">
        <ele>1688</ele>
        <time>2010-01-01T00:37:43Z</time>
      </trkpt>
      <trkpt lat="44.2675" lon="6.14949">
        <ele>1688</ele>
        <time>2010-01-01T00:37:43Z</time>
      </trkpt>
      <trkpt lat="44.26751" lon="6.14951">
        <ele>1689</ele>
        <time>2010-01-01T00:37:44Z</time>
      </trkpt>
      <trkpt lat="44.26752" lon="6.14953">
        <ele>1689</ele>
        <time>2010-01-01T00:37:44Z</time>
      </trkpt>
      <trkpt lat="44.26753" lon="6.14954">
        <ele>1690</ele>
        <time>2010-01-01T00:37:45Z</time>
      </trkpt>
      <trkpt lat="44.26756" lon="6.14958">
        <ele>1691</ele>
        <time>2010-01-01T00:37:45Z</time>
      </trkpt>
      <trkpt lat="44.26756" lon="6.14959">
        <ele>1692</ele>
        <time>2010-01-01T00:37:46Z</time>
      </trkpt>
      <trkpt lat="44.26759" lon="6.14964">
        <ele>1693</ele>
        <time>2010-01-01T00:37:47Z</time>
      </trkpt>
      <trkpt lat="44.26759" lon="6.14965">
        <ele>1693</ele>
        <time>2010-01-01T00:37:47Z</time>
      </trkpt>
      <trkpt lat="44.26761" lon="6.14968">
        <ele>1694</ele>
        <time>2010-01-01T00:37:48Z</time>
      </trkpt>
      <trkpt lat="44.26762" lon="6.1497">
        <ele>1695</ele>
        <time>2010-01-01T00:37:48Z</time>
      </trkpt>
      <trkpt lat="44.26763" lon="6.14974">
        <ele>1696</ele>
        <time>2010-01-01T00:37:49Z</time>
      </trkpt>
      <trkpt lat="44.26764" lon="6.14978">
        <ele>1697</ele>
        <time>2010-01-01T00:37:50Z</time>
      </trkpt>
      <trkpt lat="44.26765" lon="6.14982">
        <ele>1699</ele>
        <time>2010-01-01T00:37:51Z</time>
      </trkpt>
      <trkpt lat="44.26765" lon="6.14984">
        <ele>1700</ele>
        <time>2010-01-01T00:37:51Z</time>
      </trkpt>
      <trkpt lat="44.26767" lon="6.14988">
        <ele>1702</ele>
        <time>2010-01-01T00:37:52Z</time>
      </trkpt>
      <trkpt lat="44.26768" lon="6.14992">
        <ele>1703</ele>
        <time>2010-01-01T00:37:53Z</time>
      </trkpt>
      <trkpt lat="44.26768" lon="6.14992">
        <ele>1703</ele>
        <time>2010-01-01T00:37:53Z</time>
      </trkpt>
      <trkpt lat="44.26769" lon="6.14997">
        <ele>1705</ele>
        <time>2010-01-01T00:37:54Z</time>
      </trkpt>
      <trkpt lat="44.2677" lon="6.14998">
        <ele>1705</ele>
        <time>2010-01-01T00:37:54Z</time>
      </trkpt>
      <trkpt lat="44.2677" lon="6.15">
        <ele>1706</ele>
        <time>2010-01-01T00:37:55Z</time>
      </trkpt>
      <trkpt lat="44.2677" lon="6.15">
        <ele>1706</ele>
        <time>2010-01-01T00:37:55Z</time>
      </trkpt>
      <trkpt lat="44.26772" lon="6.15002">
        <ele>1707</ele>
        <time>2010-01-01T00:37:55Z</time>
      </trkpt>
      <trkpt lat="44.26772" lon="6.15004">
        <ele>1707</ele>
        <time>2010-01-01T00:37:55Z</time>
      </trkpt>
      <trkpt lat="44.26773" lon="6.15005">
        <ele>1708</ele>
        <time>2010-01-01T00:37:56Z</time>
      </trkpt>
      <trkpt lat="44.26773" lon="6.15007">
        <ele>1708</ele>
        <time>2010-01-01T00:37:56Z</time>
      </trkpt>
      <trkpt lat="44.26775" lon="6.15009">
        <ele>1709</ele>
        <time>2010-01-01T00:37:57Z</time>
      </trkpt>
      <trkpt lat="44.26776" lon="6.15014">
        <ele>1710</ele>
        <time>2010-01-01T00:37:58Z</time>
      </trkpt>
      <trkpt lat="44.26776" lon="6.15017">
        <ele>1710</ele>
        <time>2010-01-01T00:37:58Z</time>
      </trkpt>
      <trkpt lat="44.26777" lon="6.15025">
        <ele>1710</ele>
        <time>2010-01-01T00:38:00Z</time>
      </trkpt>
      <trkpt lat="44.26778" lon="6.15027">
        <ele>1711</ele>
        <time>2010-01-01T00:38:00Z</time>
      </trkpt>
      <trkpt lat="44.2678" lon="6.15034">
        <ele>1711</ele>
        <time>2010-01-01T00:38:02Z</time>
      </trkpt>
      <trkpt lat="44.26783" lon="6.15038">
        <ele>1712</ele>
        <time>2010-01-01T00:38:03Z</time>
      </trkpt>
      <trkpt lat="44.26783" lon="6.15039">
        <ele>1712</ele>
        <time>2010-01-01T00:38:03Z</time>
      </trkpt>
      <trkpt lat="44.26785" lon="6.15042">
        <ele>1713</ele>
        <time>2010-01-01T00:38:04Z</time>
      </trkpt>
      <trkpt lat="44.26785" lon="6.15042">
        <ele>1713</ele>
        <time>2010-01-01T00:38:04Z</time>
      </trkpt>
      <trkpt lat="44.26785" lon="6.15046">
        <ele>1713</ele>
        <time>2010-01-01T00:38:05Z</time>
      </trkpt>
      <trkpt lat="44.26788" lon="6.15048">
        <ele>1714</ele>
        <time>2010-01-01T00:38:05Z</time>
      </trkpt>
      <trkpt lat="44.26788" lon="6.15047">
        <ele>1714</ele>
        <time>2010-01-01T00:38:06Z</time>
      </trkpt>
      <trkpt lat="44.26788" lon="6.15045">
        <ele>1715</ele>
        <time>2010-01-01T00:38:06Z</time>
      </trkpt>
      <trkpt lat="44.2679" lon="6.15043">
        <ele>1715</ele>
        <time>2010-01-01T00:38:07Z</time>
      </trkpt>
      <trkpt lat="44.2679" lon="6.15039">
        <ele>1716</ele>
        <time>2010-01-01T00:38:07Z</time>
      </trkpt>
      <trkpt lat="44.2679" lon="6.15035">
        <ele>1716</ele>
        <time>2010-01-01T00:38:08Z</time>
      </trkpt>
      <trkpt lat="44.26791" lon="6.15032">
        <ele>1716</ele>
        <time>2010-01-01T00:38:09Z</time>
      </trkpt>
      <trkpt lat="44.26792" lon="6.15024">
        <ele>1717</ele>
        <time>2010-01-01T00:38:10Z</time>
      </trkpt>
      <trkpt lat="44.26793" lon="6.15023">
        <ele>1717</ele>
        <time>2010-01-01T00:38:11Z</time>
      </trkpt>
      <trkpt lat="44.26794" lon="6.1502">
        <ele>1718</ele>
        <time>2010-01-01T00:38:11Z</time>
      </trkpt>
      <trkpt lat="44.26795" lon="6.15015">
        <ele>1719</ele>
        <time>2010-01-01T00:38:12Z</time>
      </trkpt>
      <trkpt lat="44.26796" lon="6.15012">
        <ele>1719</ele>
        <time>2010-01-01T00:38:13Z</time>
      </trkpt>
      <trkpt lat="44.26797" lon="6.15009">
        <ele>1719</ele>
        <time>2010-01-01T00:38:13Z</time>
      </trkpt>
      <trkpt lat="44.26798" lon="6.15006">
        <ele>1720</ele>
        <time>2010-01-01T00:38:14Z</time>
      </trkpt>
      <trkpt lat="44.26798" lon="6.15004">
        <ele>1720</ele>
        <time>2010-01-01T00:38:15Z</time>
      </trkpt>
      <trkpt lat="44.26799" lon="6.15002">
        <ele>1720</ele>
        <time>2010-01-01T00:38:15Z</time>
      </trkpt>
      <trkpt lat="44.26799" lon="6.15">
        <ele>1720</ele>
        <time>2010-01-01T00:38:15Z</time>
      </trkpt>
      <trkpt lat="44.268" lon="6.14997">
        <ele>1720</ele>
        <time>2010-01-01T00:38:16Z</time>
      </trkpt>
      <trkpt lat="44.26801" lon="6.14995">
        <ele>1720</ele>
        <time>2010-01-01T00:38:16Z</time>
      </trkpt>
      <trkpt lat="44.26801" lon="6.14988">
        <ele>1720</ele>
        <time>2010-01-01T00:38:18Z</time>
      </trkpt>
      <trkpt lat="44.26802" lon="6.14986">
        <ele>1721</ele>
        <time>2010-01-01T00:38:18Z</time>
      </trkpt>
      <trkpt lat="44.26803" lon="6.14981">
        <ele>1721</ele>
        <time>2010-01-01T00:38:19Z</time>
      </trkpt>
      <trkpt lat="44.26804" lon="6.14979">
        <ele>1721</ele>
        <time>2010-01-01T00:38:19Z</time>
      </trkpt>
      <trkpt lat="44.26805" lon="6.14977">
        <ele>1722</ele>
        <time>2010-01-01T00:38:20Z</time>
      </trkpt>
      <trkpt lat="44.26805" lon="6.14976">
        <ele>1722</ele>
        <time>2010-01-01T00:38:20Z</time>
      </trkpt>
      <trkpt lat="44.26806" lon="6.14974">
        <ele>1723</ele>
        <time>2010-01-01T00:38:21Z</time>
      </trkpt>
      <trkpt lat="44.26807" lon="6.14971">
        <ele>1723</ele>
        <time>2010-01-01T00:38:21Z</time>
      </trkpt>
      <trkpt lat="44.26808" lon="6.14967">
        <ele>1723</ele>
        <time>2010-01-01T00:38:22Z</time>
      </trkpt>
      <trkpt lat="44.26809" lon="6.14965">
        <ele>1723</ele>
        <time>2010-01-01T00:38:23Z</time>
      </trkpt>
      <trkpt lat="44.26811" lon="6.14966">
        <ele>1724</ele>
        <time>2010-01-01T00:38:23Z</time>
      </trkpt>
      <trkpt lat="44.26812" lon="6.14967">
        <ele>1724</ele>
        <time>2010-01-01T00:38:23Z</time>
      </trkpt>
      <trkpt lat="44.26813" lon="6.14968">
        <ele>1724</ele>
        <time>2010-01-01T00:38:24Z</time>
      </trkpt>
      <trkpt lat="44.26815" lon="6.14972">
        <ele>1725</ele>
        <time>2010-01-01T00:38:25Z</time>
      </trkpt>
      <trkpt lat="44.26816" lon="6.14974">
        <ele>1725</ele>
        <time>2010-01-01T00:38:25Z</time>
      </trkpt>
      <trkpt lat="44.26817" lon="6.14975">
        <ele>1725</ele>
        <time>2010-01-01T00:38:25Z</time>
      </trkpt>
      <trkpt lat="44.26817" lon="6.14975">
        <ele>1725</ele>
        <time>2010-01-01T00:38:25Z</time>
      </trkpt>
      <trkpt lat="44.26818" lon="6.14975">
        <ele>1725</ele>
        <time>2010-01-01T00:38:26Z</time>
      </trkpt>
      <trkpt lat="44.26818" lon="6.14975">
        <ele>1725</ele>
        <time>2010-01-01T00:38:26Z</time>
      </trkpt>
      <trkpt lat="44.26818" lon="6.14975">
        <ele>1725</ele>
        <time>2010-01-01T00:38:26Z</time>
      </trkpt>
      <trkpt lat="44.26818" lon="6.14975">
        <ele>1725</ele>
        <time>2010-01-01T00:38:26Z</time>
      </trkpt>
      <trkpt lat="44.26817" lon="6.14976">
        <ele>1725</ele>
        <time>2010-01-01T00:38:26Z</time>
      </trkpt>
      <trkpt lat="44.26818" lon="6.14976">
        <ele>1725</ele>
        <time>2010-01-01T00:38:26Z</time>
      </trkpt>
      <trkpt lat="44.26817" lon="6.14976">
        <ele>1725</ele>
        <time>2010-01-01T00:38:26Z</time>
      </trkpt>
      <trkpt lat="44.26818" lon="6.14975">
        <ele>1725</ele>
        <time>2010-01-01T00:38:27Z</time>
      </trkpt>
      <trkpt lat="44.2682" lon="6.14971">
        <ele>1726</ele>
        <time>2010-01-01T00:38:28Z</time>
      </trkpt>
      <trkpt lat="44.26821" lon="6.14971">
        <ele>1726</ele>
        <time>2010-01-01T00:38:28Z</time>
      </trkpt>
      <trkpt lat="44.26821" lon="6.14969">
        <ele>1726</ele>
        <time>2010-01-01T00:38:28Z</time>
      </trkpt>
      <trkpt lat="44.26821" lon="6.14966">
        <ele>1726</ele>
        <time>2010-01-01T00:38:29Z</time>
      </trkpt>
      <trkpt lat="44.26821" lon="6.14963">
        <ele>1726</ele>
        <time>2010-01-01T00:38:29Z</time>
      </trkpt>
      <trkpt lat="44.26822" lon="6.14957">
        <ele>1726</ele>
        <time>2010-01-01T00:38:30Z</time>
      </trkpt>
      <trkpt lat="44.26822" lon="6.14955">
        <ele>1726</ele>
        <time>2010-01-01T00:38:31Z</time>
      </trkpt>
      <trkpt lat="44.26822" lon="6.14954">
        <ele>1726</ele>
        <time>2010-01-01T00:38:31Z</time>
      </trkpt>
      <trkpt lat="44.26822" lon="6.14951">
        <ele>1726</ele>
        <time>2010-01-01T00:38:32Z</time>
      </trkpt>
      <trkpt lat="44.26822" lon="6.14949">
        <ele>1726</ele>
        <time>2010-01-01T00:38:32Z</time>
      </trkpt>
      <trkpt lat="44.26825" lon="6.14948">
        <ele>1727</ele>
        <time>2010-01-01T00:38:33Z</time>
      </trkpt>
      <trkpt lat="44.26824" lon="6.14948">
        <ele>1727</ele>
        <time>2010-01-01T00:38:33Z</time>
      </trkpt>
      <trkpt lat="44.26825" lon="6.14948">
        <ele>1727</ele>
        <time>2010-01-01T00:38:33Z</time>
      </trkpt>
      <trkpt lat="44.26826" lon="6.1495">
        <ele>1727</ele>
        <time>2010-01-01T00:38:33Z</time>
      </trkpt>
      <trkpt lat="44.26826" lon="6.1495">
        <ele>1727</ele>
        <time>2010-01-01T00:38:33Z</time>
      </trkpt>
      <trkpt lat="44.26829" lon="6.14956">
        <ele>1728</ele>
        <time>2010-01-01T00:38:35Z</time>
      </trkpt>
      <trkpt lat="44.2683" lon="6.14959">
        <ele>1728</ele>
        <time>2010-01-01T00:38:35Z</time>
      </trkpt>
      <trkpt lat="44.26832" lon="6.14962">
        <ele>1728</ele>
        <time>2010-01-01T00:38:36Z</time>
      </trkpt>
      <trkpt lat="44.26835" lon="6.14966">
        <ele>1728</ele>
        <time>2010-01-01T00:38:37Z</time>
      </trkpt>
      <trkpt lat="44.26835" lon="6.14966">
        <ele>1728</ele>
        <time>2010-01-01T00:38:37Z</time>
      </trkpt>
      <trkpt lat="44.26836" lon="6.14966">
        <ele>1728</ele>
        <time>2010-01-01T00:38:38Z</time>
      </trkpt>
      <trkpt lat="44.26836" lon="6.14966">
        <ele>1728</ele>
        <time>2010-01-01T00:38:38Z</time>
      </trkpt>
      <trkpt lat="44.26836" lon="6.14965">
        <ele>1728</ele>
        <time>2010-01-01T00:38:38Z</time>
      </trkpt>
      <trkpt lat="44.26836" lon="6.14966">
        <ele>1728</ele>
        <time>2010-01-01T00:38:38Z</time>
      </trkpt>
      <trkpt lat="44.26835" lon="6.14966">
        <ele>1728</ele>
        <time>2010-01-01T00:38:38Z</time>
      </trkpt>
      <trkpt lat="44.26836" lon="6.14966">
        <ele>1728</ele>
        <time>2010-01-01T00:38:38Z</time>
      </trkpt>
      <trkpt lat="44.26836" lon="6.14966">
        <ele>1728</ele>
        <time>2010-01-01T00:38:38Z</time>
      </trkpt>
      <trkpt lat="44.2684" lon="6.14962">
        <ele>1727</ele>
        <time>2010-01-01T00:38:40Z</time>
      </trkpt>
      <trkpt lat="44.26843" lon="6.1496">
        <ele>1727</ele>
        <time>2010-01-01T00:38:40Z</time>
      </trkpt>
      <trkpt lat="44.26846" lon="6.14959">
        <ele>1726</ele>
        <time>2010-01-01T00:38:41Z</time>
      </trkpt>
      <trkpt lat="44.26851" lon="6.14955">
        <ele>1725</ele>
        <time>2010-01-01T00:38:43Z</time>
      </trkpt>
      <trkpt lat="44.26852" lon="6.14954">
        <ele>1725</ele>
        <time>2010-01-01T00:38:43Z</time>
      </trkpt>
      <trkpt lat="44.26853" lon="6.14952">
        <ele>1724</ele>
        <time>2010-01-01T00:38:44Z</time>
      </trkpt>
      <trkpt lat="44.26854" lon="6.14952">
        <ele>1724</ele>
        <time>2010-01-01T00:38:44Z</time>
      </trkpt>
      <trkpt lat="44.26853" lon="6.14952">
        <ele>1724</ele>
        <time>2010-01-01T00:38:44Z</time>
      </trkpt>
      <trkpt lat="44.26854" lon="6.14951">
        <ele>1724</ele>
        <time>2010-01-01T00:38:44Z</time>
      </trkpt>
      <trkpt lat="44.26853" lon="6.14952">
        <ele>1724</ele>
        <time>2010-01-01T00:38:44Z</time>
      </trkpt>
      <trkpt lat="44.26854" lon="6.14951">
        <ele>1724</ele>
        <time>2010-01-01T00:38:44Z</time>
      </trkpt>
      <trkpt lat="44.26854" lon="6.14949">
        <ele>1724</ele>
        <time>2010-01-01T00:38:45Z</time>
      </trkpt>
      <trkpt lat="44.26855" lon="6.14938">
        <ele>1725</ele>
        <time>2010-01-01T00:38:47Z</time>
      </trkpt>
      <trkpt lat="44.26872" lon="6.15256">
        <ele>1727</ele>
        <time>2010-01-01T00:39:48Z</time>
      </trkpt>
      <trkpt lat="44.26924" lon="6.15565">
        <ele>1749</ele>
        <time>2010-01-01T00:40:49Z</time>
      </trkpt>
      <trkpt lat="44.26955" lon="6.1596">
        <ele>1759</ele>
        <time>2010-01-01T00:42:04Z</time>
      </trkpt>
      <trkpt lat="44.26995" lon="6.16299">
        <ele>1756</ele>
        <time>2010-01-01T00:43:10Z</time>
      </trkpt>
      <trkpt lat="44.26983" lon="6.16702">
        <ele>1734</ele>
        <time>2010-01-01T00:44:27Z</time>
      </trkpt>
      <trkpt lat="44.26961" lon="6.17075">
        <ele>1763</ele>
        <time>2010-01-01T00:45:39Z</time>
      </trkpt>
      <trkpt lat="44.26909" lon="6.17457">
        <ele>1796</ele>
        <time>2010-01-01T00:46:53Z</time>
      </trkpt>
      <trkpt lat="44.26909" lon="6.17835">
        <ele>1813</ele>
        <time>2010-01-01T00:48:05Z</time>
      </trkpt>
      <trkpt lat="44.26958" lon="6.1823">
        <ele>1807</ele>
        <time>2010-01-01T00:49:22Z</time>
      </trkpt>
      <trkpt lat="44.27022" lon="6.18578">
        <ele>1893</ele>
        <time>2010-01-01T00:50:31Z</time>
      </trkpt>
      <trkpt lat="44.26996" lon="6.18612">
        <ele>1912</ele>
        <time>2010-01-01T00:50:40Z</time>
      </trkpt>
      <trkpt lat="44.26995" lon="6.18612">
        <ele>1912</ele>
        <time>2010-01-01T00:50:40Z</time>
      </trkpt>
      <trkpt lat="44.26994" lon="6.18613">
        <ele>1912</ele>
        <time>2010-01-01T00:50:41Z</time>
      </trkpt>
      <trkpt lat="44.26993" lon="6.18614">
        <ele>1912</ele>
        <time>2010-01-01T00:50:41Z</time>
      </trkpt>
      <trkpt lat="44.26991" lon="6.18614">
        <ele>1913</ele>
        <time>2010-01-01T00:50:42Z</time>
      </trkpt>
      <trkpt lat="44.2699" lon="6.18614">
        <ele>1913</ele>
        <time>2010-01-01T00:50:42Z</time>
      </trkpt>
      <trkpt lat="44.26991" lon="6.18614">
        <ele>1913</ele>
        <time>2010-01-01T00:50:42Z</time>
      </trkpt>
      <trkpt lat="44.26991" lon="6.18614">
        <ele>1913</ele>
        <time>2010-01-01T00:50:42Z</time>
      </trkpt>
      <trkpt lat="44.26991" lon="6.18614">
        <ele>1913</ele>
        <time>2010-01-01T00:50:42Z</time>
      </trkpt>
      <trkpt lat="44.26991" lon="6.18614">
        <ele>1913</ele>
        <time>2010-01-01T00:50:42Z</time>
      </trkpt>
      <trkpt lat="44.26991" lon="6.18613">
        <ele>1913</ele>
        <time>2010-01-01T00:50:42Z</time>
      </trkpt>
      <trkpt lat="44.26991" lon="6.18613">
        <ele>1913</ele>
        <time>2010-01-01T00:50:42Z</time>
      </trkpt>
      <trkpt lat="44.26991" lon="6.18613">
        <ele>1913</ele>
        <time>2010-01-01T00:50:42Z</time>
      </trkpt>
      <trkpt lat="44.26991" lon="6.18613">
        <ele>1913</ele>
        <time>2010-01-01T00:50:42Z</time>
      </trkpt>
      <trkpt lat="44.26991" lon="6.18614">
        <ele>1913</ele>
        <time>2010-01-01T00:50:43Z</time>
      </trkpt>
      <trkpt lat="44.26991" lon="6.18614">
        <ele>1913</ele>
        <time>2010-01-01T00:50:43Z</time>
      </trkpt>
      <trkpt lat="44.26991" lon="6.18613">
        <ele>1913</ele>
        <time>2010-01-01T00:50:43Z</time>
      </trkpt>
      <trkpt lat="44.26991" lon="6.18614">
        <ele>1913</ele>
        <time>2010-01-01T00:50:43Z</time>
      </trkpt>
      <trkpt lat="44.2699" lon="6.18615">
        <ele>1913</ele>
        <time>2010-01-01T00:50:43Z</time>
      </trkpt>
      <trkpt lat="44.26987" lon="6.18617">
        <ele>1914</ele>
        <time>2010-01-01T00:50:44Z</time>
      </trkpt>
      <trkpt lat="44.26987" lon="6.18618">
        <ele>1914</ele>
        <time>2010-01-01T00:50:44Z</time>
      </trkpt>
      <trkpt lat="44.26984" lon="6.1862">
        <ele>1915</ele>
        <time>2010-01-01T00:50:45Z</time>
      </trkpt>
      <trkpt lat="44.26983" lon="6.1862">
        <ele>1916</ele>
        <time>2010-01-01T00:50:45Z</time>
      </trkpt>
      <trkpt lat="44.26979" lon="6.18623">
        <ele>1917</ele>
        <time>2010-01-01T00:50:47Z</time>
      </trkpt>
      <trkpt lat="44.26977" lon="6.18625">
        <ele>1918</ele>
        <time>2010-01-01T00:50:47Z</time>
      </trkpt>
      <trkpt lat="44.26975" lon="6.18626">
        <ele>1919</ele>
        <time>2010-01-01T00:50:48Z</time>
      </trkpt>
      <trkpt lat="44.26974" lon="6.18627">
        <ele>1919</ele>
        <time>2010-01-01T00:50:48Z</time>
      </trkpt>
      <trkpt lat="44.26971" lon="6.18631">
        <ele>1920</ele>
        <time>2010-01-01T00:50:49Z</time>
      </trkpt>
      <trkpt lat="44.2697" lon="6.18634">
        <ele>1921</ele>
        <time>2010-01-01T00:50:50Z</time>
      </trkpt>
      <trkpt lat="44.26968" lon="6.18636">
        <ele>1921</ele>
        <time>2010-01-01T00:50:51Z</time>
      </trkpt>
      <trkpt lat="44.26967" lon="6.18637">
        <ele>1921</ele>
        <time>2010-01-01T00:50:51Z</time>
      </trkpt>
      <trkpt lat="44.26965" lon="6.18641">
        <ele>1922</ele>
        <time>2010-01-01T00:50:52Z</time>
      </trkpt>
      <trkpt lat="44.26963" lon="6.18643">
        <ele>1923</ele>
        <time>2010-01-01T00:50:53Z</time>
      </trkpt>
      <trkpt lat="44.26962" lon="6.18644">
        <ele>1923</ele>
        <time>2010-01-01T00:50:53Z</time>
      </trkpt>
      <trkpt lat="44.26961" lon="6.18646">
        <ele>1924</ele>
        <time>2010-01-01T00:50:53Z</time>
      </trkpt>
      <trkpt lat="44.26959" lon="6.18648">
        <ele>1925</ele>
        <time>2010-01-01T00:50:54Z</time>
      </trkpt>
      <trkpt lat="44.26958" lon="6.1865">
        <ele>1925</ele>
        <time>2010-01-01T00:50:54Z</time>
      </trkpt>
      <trkpt lat="44.26957" lon="6.18653">
        <ele>1926</ele>
        <time>2010-01-01T00:50:55Z</time>
      </trkpt>
      <trkpt lat="44.26955" lon="6.18655">
        <ele>1927</ele>
        <time>2010-01-01T00:50:56Z</time>
      </trkpt>
      <trkpt lat="44.26954" lon="6.18658">
        <ele>1928</ele>
        <time>2010-01-01T00:50:56Z</time>
      </trkpt>
      <trkpt lat="44.26953" lon="6.18658">
        <ele>1929</ele>
        <time>2010-01-01T00:50:57Z</time>
      </trkpt>
      <trkpt lat="44.2695" lon="6.18662">
        <ele>1930</ele>
        <time>2010-01-01T00:50:58Z</time>
      </trkpt>
      <trkpt lat="44.26949" lon="6.18662">
        <ele>1931</ele>
        <time>2010-01-01T00:50:58Z</time>
      </trkpt>
      <trkpt lat="44.26949" lon="6.18663">
        <ele>1931</ele>
        <time>2010-01-01T00:50:58Z</time>
      </trkpt>
      <trkpt lat="44.26949" lon="6.18663">
        <ele>1931</ele>
        <time>2010-01-01T00:50:58Z</time>
      </trkpt>
      <trkpt lat="44.26947" lon="6.18664">
        <ele>1932</ele>
        <time>2010-01-01T00:50:59Z</time>
      </trkpt>
      <trkpt lat="44.26946" lon="6.18665">
        <ele>1932</ele>
        <time>2010-01-01T00:50:59Z</time>
      </trkpt>
      <trkpt lat="44.26944" lon="6.18669">
        <ele>1934</ele>
        <time>2010-01-01T00:51:00Z</time>
      </trkpt>
      <trkpt lat="44.26942" lon="6.1867">
        <ele>1934</ele>
        <time>2010-01-01T00:51:00Z</time>
      </trkpt>
      <trkpt lat="44.26941" lon="6.18671">
        <ele>1935</ele>
        <time>2010-01-01T00:51:01Z</time>
      </trkpt>
      <trkpt lat="44.26941" lon="6.18671">
        <ele>1935</ele>
        <time>2010-01-01T00:51:01Z</time>
      </trkpt>
      <trkpt lat="44.26939" lon="6.18672">
        <ele>1935</ele>
        <time>2010-01-01T00:51:01Z</time>
      </trkpt>
      <trkpt lat="44.26938" lon="6.18672">
        <ele>1935</ele>
        <time>2010-01-01T00:51:01Z</time>
      </trkpt>
      <trkpt lat="44.26936" lon="6.18675">
        <ele>1936</ele>
        <time>2010-01-01T00:51:02Z</time>
      </trkpt>
      <trkpt lat="44.26933" lon="6.18677">
        <ele>1937</ele>
        <time>2010-01-01T00:51:03Z</time>
      </trkpt>
      <trkpt lat="44.26931" lon="6.18678">
        <ele>1937</ele>
        <time>2010-01-01T00:51:04Z</time>
      </trkpt>
      <trkpt lat="44.26931" lon="6.18678">
        <ele>1937</ele>
        <time>2010-01-01T00:51:04Z</time>
      </trkpt>
      <trkpt lat="44.26929" lon="6.1868">
        <ele>1938</ele>
        <time>2010-01-01T00:51:04Z</time>
      </trkpt>
      <trkpt lat="44.26925" lon="6.18681">
        <ele>1938</ele>
        <time>2010-01-01T00:51:05Z</time>
      </trkpt>
      <trkpt lat="44.26923" lon="6.18683">
        <ele>1939</ele>
        <time>2010-01-01T00:51:06Z</time>
      </trkpt>
      <trkpt lat="44.26923" lon="6.18683">
        <ele>1939</ele>
        <time>2010-01-01T00:51:06Z</time>
      </trkpt>
      <trkpt lat="44.26922" lon="6.18684">
        <ele>1940</ele>
        <time>2010-01-01T00:51:06Z</time>
      </trkpt>
      <trkpt lat="44.26921" lon="6.18685">
        <ele>1940</ele>
        <time>2010-01-01T00:51:07Z</time>
      </trkpt>
      <trkpt lat="44.2692" lon="6.18685">
        <ele>1940</ele>
        <time>2010-01-01T00:51:07Z</time>
      </trkpt>
      <trkpt lat="44.2692" lon="6.18685">
        <ele>1940</ele>
        <time>2010-01-01T00:51:07Z</time>
      </trkpt>
      <trkpt lat="44.2692" lon="6.18685">
        <ele>1940</ele>
        <time>2010-01-01T00:51:07Z</time>
      </trkpt>
      <trkpt lat="44.2692" lon="6.18685">
        <ele>1940</ele>
        <time>2010-01-01T00:51:07Z</time>
      </trkpt>
      <trkpt lat="44.2692" lon="6.18685">
        <ele>1940</ele>
        <time>2010-01-01T00:51:07Z</time>
      </trkpt>
      <trkpt lat="44.2692" lon="6.18685">
        <ele>1940</ele>
        <time>2010-01-01T00:51:07Z</time>
      </trkpt>
      <trkpt lat="44.2692" lon="6.18685">
        <ele>1940</ele>
        <time>2010-01-01T00:51:07Z</time>
      </trkpt>
      <trkpt lat="44.2692" lon="6.18685">
        <ele>1940</ele>
        <time>2010-01-01T00:51:07Z</time>
      </trkpt>
      <trkpt lat="44.26918" lon="6.18686">
        <ele>1941</ele>
        <time>2010-01-01T00:51:08Z</time>
      </trkpt>
      <trkpt lat="44.26918" lon="6.18687">
        <ele>1941</ele>
        <time>2010-01-01T00:51:08Z</time>
      </trkpt>
      <trkpt lat="44.26911" lon="6.18693">
        <ele>1944</ele>
        <time>2010-01-01T00:51:10Z</time>
      </trkpt>
      <trkpt lat="44.2691" lon="6.18694">
        <ele>1944</ele>
        <time>2010-01-01T00:51:10Z</time>
      </trkpt>
      <trkpt lat="44.26907" lon="6.18696">
        <ele>1945</ele>
        <time>2010-01-01T00:51:11Z</time>
      </trkpt>
      <trkpt lat="44.26903" lon="6.187">
        <ele>1947</ele>
        <time>2010-01-01T00:51:13Z</time>
      </trkpt>
      <trkpt lat="44.26901" lon="6.187">
        <ele>1948</ele>
        <time>2010-01-01T00:51:13Z</time>
      </trkpt>
      <trkpt lat="44.26897" lon="6.18703">
        <ele>1949</ele>
        <time>2010-01-01T00:51:14Z</time>
      </trkpt>
      <trkpt lat="44.26897" lon="6.18703">
        <ele>1949</ele>
        <time>2010-01-01T00:51:14Z</time>
      </trkpt>
      <trkpt lat="44.26895" lon="6.18703">
        <ele>1949</ele>
        <time>2010-01-01T00:51:15Z</time>
      </trkpt>
      <trkpt lat="44.26894" lon="6.18702">
        <ele>1949</ele>
        <time>2010-01-01T00:51:15Z</time>
      </trkpt>
      <trkpt lat="44.26892" lon="6.18701">
        <ele>1949</ele>
        <time>2010-01-01T00:51:16Z</time>
      </trkpt>
      <trkpt lat="44.26892" lon="6.18701">
        <ele>1949</ele>
        <time>2010-01-01T00:51:16Z</time>
      </trkpt>
      <trkpt lat="44.26892" lon="6.18701">
        <ele>1950</ele>
        <time>2010-01-01T00:51:16Z</time>
      </trkpt>
      <trkpt lat="44.26892" lon="6.18701">
        <ele>1949</ele>
        <time>2010-01-01T00:51:16Z</time>
      </trkpt>
      <trkpt lat="44.26892" lon="6.18701">
        <ele>1949</ele>
        <time>2010-01-01T00:51:16Z</time>
      </trkpt>
      <trkpt lat="44.26892" lon="6.18701">
        <ele>1949</ele>
        <time>2010-01-01T00:51:16Z</time>
      </trkpt>
      <trkpt lat="44.26892" lon="6.18701">
        <ele>1949</ele>
        <time>2010-01-01T00:51:16Z</time>
      </trkpt>
      <trkpt lat="44.26891" lon="6.18701">
        <ele>1949</ele>
        <time>2010-01-01T00:51:16Z</time>
      </trkpt>
      <trkpt lat="44.26889" lon="6.18703">
        <ele>1950</ele>
        <time>2010-01-01T00:51:17Z</time>
      </trkpt>
      <trkpt lat="44.26888" lon="6.18704">
        <ele>1950</ele>
        <time>2010-01-01T00:51:17Z</time>
      </trkpt>
      <trkpt lat="44.26888" lon="6.18703">
        <ele>1950</ele>
        <time>2010-01-01T00:51:17Z</time>
      </trkpt>
      <trkpt lat="44.26887" lon="6.18706">
        <ele>1951</ele>
        <time>2010-01-01T00:51:18Z</time>
      </trkpt>
      <trkpt lat="44.2688" lon="6.18717">
        <ele>1953</ele>
        <time>2010-01-01T00:51:21Z</time>
      </trkpt>
      <trkpt lat="44.26878" lon="6.18721">
        <ele>1954</ele>
        <time>2010-01-01T00:51:22Z</time>
      </trkpt>
      <trkpt lat="44.26877" lon="6.18726">
        <ele>1955</ele>
        <time>2010-01-01T00:51:23Z</time>
      </trkpt>
      <trkpt lat="44.26876" lon="6.18727">
        <ele>1955</ele>
        <time>2010-01-01T00:51:23Z</time>
      </trkpt>
      <trkpt lat="44.26876" lon="6.18728">
        <ele>1956</ele>
        <time>2010-01-01T00:51:23Z</time>
      </trkpt>
      <trkpt lat="44.26873" lon="6.18738">
        <ele>1958</ele>
        <time>2010-01-01T00:51:25Z</time>
      </trkpt>
      <trkpt lat="44.26873" lon="6.18739">
        <ele>1958</ele>
        <time>2010-01-01T00:51:25Z</time>
      </trkpt>
      <trkpt lat="44.26871" lon="6.18744">
        <ele>1959</ele>
        <time>2010-01-01T00:51:26Z</time>
      </trkpt>
      <trkpt lat="44.2687" lon="6.18746">
        <ele>1959</ele>
        <time>2010-01-01T00:51:27Z</time>
      </trkpt>
      <trkpt lat="44.26868" lon="6.18753">
        <ele>1961</ele>
        <time>2010-01-01T00:51:28Z</time>
      </trkpt>
      <trkpt lat="44.26867" lon="6.18755">
        <ele>1961</ele>
        <time>2010-01-01T00:51:29Z</time>
      </trkpt>
      <trkpt lat="44.26863" lon="6.18763">
        <ele>1963</ele>
        <time>2010-01-01T00:51:31Z</time>
      </trkpt>
      <trkpt lat="44.26865" lon="6.1877">
        <ele>1965</ele>
        <time>2010-01-01T00:51:32Z</time>
      </trkpt>
      <trkpt lat="44.26865" lon="6.18772">
        <ele>1965</ele>
        <time>2010-01-01T00:51:33Z</time>
      </trkpt>
      <trkpt lat="44.26865" lon="6.18782">
        <ele>1968</ele>
        <time>2010-01-01T00:51:34Z</time>
      </trkpt>
      <trkpt lat="44.26865" lon="6.18785">
        <ele>1968</ele>
        <time>2010-01-01T00:51:35Z</time>
      </trkpt>
      <trkpt lat="44.26865" lon="6.18785">
        <ele>1968</ele>
        <time>2010-01-01T00:51:35Z</time>
      </trkpt>
      <trkpt lat="44.26865" lon="6.1879">
        <ele>1969</ele>
        <time>2010-01-01T00:51:36Z</time>
      </trkpt>
      <trkpt lat="44.26865" lon="6.1879">
        <ele>1969</ele>
        <time>2010-01-01T00:51:36Z</time>
      </trkpt>
      <trkpt lat="44.26865" lon="6.18791">
        <ele>1969</ele>
        <time>2010-01-01T00:51:36Z</time>
      </trkpt>
      <trkpt lat="44.26864" lon="6.18794">
        <ele>1969</ele>
        <time>2010-01-01T00:51:37Z</time>
      </trkpt>
      <trkpt lat="44.26862" lon="6.18802">
        <ele>1971</ele>
        <time>2010-01-01T00:51:38Z</time>
      </trkpt>
      <trkpt lat="44.26862" lon="6.18804">
        <ele>1971</ele>
        <time>2010-01-01T00:51:39Z</time>
      </trkpt>
      <trkpt lat="44.26862" lon="6.18806">
        <ele>1972</ele>
        <time>2010-01-01T00:51:39Z</time>
      </trkpt>
      <trkpt lat="44.26862" lon="6.18808">
        <ele>1972</ele>
        <time>2010-01-01T00:51:40Z</time>
      </trkpt>
      <trkpt lat="44.26861" lon="6.18809">
        <ele>1972</ele>
        <time>2010-01-01T00:51:40Z</time>
      </trkpt>
      <trkpt lat="44.26858" lon="6.18814">
        <ele>1973</ele>
        <time>2010-01-01T00:51:41Z</time>
      </trkpt>
      <trkpt lat="44.26858" lon="6.18815">
        <ele>1974</ele>
        <time>2010-01-01T00:51:41Z</time>
      </trkpt>
      <trkpt lat="44.26855" lon="6.18821">
        <ele>1975</ele>
        <time>2010-01-01T00:51:43Z</time>
      </trkpt>
      <trkpt lat="44.26855" lon="6.18821">
        <ele>1975</ele>
        <time>2010-01-01T00:51:43Z</time>
      </trkpt>
      <trkpt lat="44.26855" lon="6.18821">
        <ele>1975</ele>
        <time>2010-01-01T00:51:43Z</time>
      </trkpt>
      <trkpt lat="44.26855" lon="6.18822">
        <ele>1975</ele>
        <time>2010-01-01T00:51:43Z</time>
      </trkpt>
      <trkpt lat="44.26854" lon="6.18825">
        <ele>1976</ele>
        <time>2010-01-01T00:51:44Z</time>
      </trkpt>
      <trkpt lat="44.26854" lon="6.18825">
        <ele>1976</ele>
        <time>2010-01-01T00:51:44Z</time>
      </trkpt>
      <trkpt lat="44.26852" lon="6.18829">
        <ele>1977</ele>
        <time>2010-01-01T00:51:45Z</time>
      </trkpt>
      <trkpt lat="44.26852" lon="6.1883">
        <ele>1977</ele>
        <time>2010-01-01T00:51:45Z</time>
      </trkpt>
      <trkpt lat="44.26851" lon="6.18833">
        <ele>1978</ele>
        <time>2010-01-01T00:51:45Z</time>
      </trkpt>
      <trkpt lat="44.26849" lon="6.18836">
        <ele>1978</ele>
        <time>2010-01-01T00:51:46Z</time>
      </trkpt>
      <trkpt lat="44.26848" lon="6.1884">
        <ele>1979</ele>
        <time>2010-01-01T00:51:47Z</time>
      </trkpt>
      <trkpt lat="44.26847" lon="6.18843">
        <ele>1980</ele>
        <time>2010-01-01T00:51:48Z</time>
      </trkpt>
      <trkpt lat="44.26846" lon="6.18846">
        <ele>1981</ele>
        <time>2010-01-01T00:51:48Z</time>
      </trkpt>
      <trkpt lat="44.26845" lon="6.18851">
        <ele>1982</ele>
        <time>2010-01-01T00:51:49Z</time>
      </trkpt>
      <trkpt lat="44.26845" lon="6.18852">
        <ele>1982</ele>
        <time>2010-01-01T00:51:49Z</time>
      </trkpt>
      <trkpt lat="44.26844" lon="6.18857">
        <ele>1984</ele>
        <time>2010-01-01T00:51:51Z</time>
      </trkpt>
      <trkpt lat="44.26842" lon="6.18869">
        <ele>1986</ele>
        <time>2010-01-01T00:51:53Z</time>
      </trkpt>
      <trkpt lat="44.26842" lon="6.1887">
        <ele>1987</ele>
        <time>2010-01-01T00:51:53Z</time>
      </trkpt>
      <trkpt lat="44.26841" lon="6.18879">
        <ele>1988</ele>
        <time>2010-01-01T00:51:55Z</time>
      </trkpt>
      <trkpt lat="44.26841" lon="6.1888">
        <ele>1988</ele>
        <time>2010-01-01T00:51:55Z</time>
      </trkpt>
      <trkpt lat="44.26841" lon="6.18882">
        <ele>1988</ele>
        <time>2010-01-01T00:51:55Z</time>
      </trkpt>
      <trkpt lat="44.2684" lon="6.18885">
        <ele>1989</ele>
        <time>2010-01-01T00:51:56Z</time>
      </trkpt>
      <trkpt lat="44.26839" lon="6.18888">
        <ele>1989</ele>
        <time>2010-01-01T00:51:56Z</time>
      </trkpt>
      <trkpt lat="44.26839" lon="6.18889">
        <ele>1990</ele>
        <time>2010-01-01T00:51:57Z</time>
      </trkpt>
      <trkpt lat="44.26839" lon="6.18893">
        <ele>1990</ele>
        <time>2010-01-01T00:51:57Z</time>
      </trkpt>
      <trkpt lat="44.26839" lon="6.18894">
        <ele>1990</ele>
        <time>2010-01-01T00:51:58Z</time>
      </trkpt>
      <trkpt lat="44.26839" lon="6.18902">
        <ele>1992</ele>
        <time>2010-01-01T00:51:59Z</time>
      </trkpt>
      <trkpt lat="44.26839" lon="6.18904">
        <ele>1992</ele>
        <time>2010-01-01T00:52:00Z</time>
      </trkpt>
      <trkpt lat="44.26838" lon="6.18908">
        <ele>1993</ele>
        <time>2010-01-01T00:52:00Z</time>
      </trkpt>
      <trkpt lat="44.26838" lon="6.1891">
        <ele>1994</ele>
        <time>2010-01-01T00:52:01Z</time>
      </trkpt>
      <trkpt lat="44.26836" lon="6.18914">
        <ele>1995</ele>
        <time>2010-01-01T00:52:02Z</time>
      </trkpt>
      <trkpt lat="44.26836" lon="6.18915">
        <ele>1995</ele>
        <time>2010-01-01T00:52:02Z</time>
      </trkpt>
      <trkpt lat="44.26834" lon="6.1892">
        <ele>1997</ele>
        <time>2010-01-01T00:52:03Z</time>
      </trkpt>
      <trkpt lat="44.26835" lon="6.18921">
        <ele>1997</ele>
        <time>2010-01-01T00:52:03Z</time>
      </trkpt>
      <trkpt lat="44.26835" lon="6.18922">
        <ele>1997</ele>
        <time>2010-01-01T00:52:03Z</time>
      </trkpt>
      <trkpt lat="44.26838" lon="6.18932">
        <ele>1997</ele>
        <time>2010-01-01T00:52:05Z</time>
      </trkpt>
      <trkpt lat="44.26839" lon="6.1894">
        <ele>1997</ele>
        <time>2010-01-01T00:52:07Z</time>
      </trkpt>
      <trkpt lat="44.2684" lon="6.18941">
        <ele>1997</ele>
        <time>2010-01-01T00:52:07Z</time>
      </trkpt>
      <trkpt lat="44.26838" lon="6.18948">
        <ele>1999</ele>
        <time>2010-01-01T00:52:09Z</time>
      </trkpt>
      <trkpt lat="44.26838" lon="6.18949">
        <ele>1999</ele>
        <time>2010-01-01T00:52:09Z</time>
      </trkpt>
      <trkpt lat="44.26837" lon="6.18955">
        <ele>2000</ele>
        <time>2010-01-01T00:52:10Z</time>
      </trkpt>
      <trkpt lat="44.26836" lon="6.18956">
        <ele>2001</ele>
        <time>2010-01-01T00:52:10Z</time>
      </trkpt>
      <trkpt lat="44.26836" lon="6.18956">
        <ele>2001</ele>
        <time>2010-01-01T00:52:10Z</time>
      </trkpt>
      <trkpt lat="44.26835" lon="6.18958">
        <ele>2002</ele>
        <time>2010-01-01T00:52:11Z</time>
      </trkpt>
      <trkpt lat="44.26834" lon="6.1896">
        <ele>2002</ele>
        <time>2010-01-01T00:52:11Z</time>
      </trkpt>
      <trkpt lat="44.26833" lon="6.18962">
        <ele>2003</ele>
        <time>2010-01-01T00:52:12Z</time>
      </trkpt>
      <trkpt lat="44.26833" lon="6.18963">
        <ele>2003</ele>
        <time>2010-01-01T00:52:12Z</time>
      </trkpt>
      <trkpt lat="44.26832" lon="6.18964">
        <ele>2003</ele>
        <time>2010-01-01T00:52:12Z</time>
      </trkpt>
      <trkpt lat="44.2683" lon="6.18966">
        <ele>2004</ele>
        <time>2010-01-01T00:52:13Z</time>
      </trkpt>
      <trkpt lat="44.26829" lon="6.18968">
        <ele>2004</ele>
        <time>2010-01-01T00:52:13Z</time>
      </trkpt>
      <trkpt lat="44.26829" lon="6.18969">
        <ele>2004</ele>
        <time>2010-01-01T00:52:13Z</time>
      </trkpt>
      <trkpt lat="44.26825" lon="6.18975">
        <ele>2005</ele>
        <time>2010-01-01T00:52:15Z</time>
      </trkpt>
      <trkpt lat="44.2682" lon="6.18977">
        <ele>2006</ele>
        <time>2010-01-01T00:52:16Z</time>
      </trkpt>
      <trkpt lat="44.26819" lon="6.18977">
        <ele>2006</ele>
        <time>2010-01-01T00:52:17Z</time>
      </trkpt>
      <trkpt lat="44.26817" lon="6.1898">
        <ele>2007</ele>
        <time>2010-01-01T00:52:17Z</time>
      </trkpt>
      <trkpt lat="44.26817" lon="6.18981">
        <ele>2007</ele>
        <time>2010-01-01T00:52:18Z</time>
      </trkpt>
      <trkpt lat="44.26816" lon="6.18984">
        <ele>2007</ele>
        <time>2010-01-01T00:52:18Z</time>
      </trkpt>
      <trkpt lat="44.26815" lon="6.18988">
        <ele>2007</ele>
        <time>2010-01-01T00:52:19Z</time>
      </trkpt>
      <trkpt lat="44.26814" lon="6.18991">
        <ele>2007</ele>
        <time>2010-01-01T00:52:20Z</time>
      </trkpt>
      <trkpt lat="44.26814" lon="6.18993">
        <ele>2007</ele>
        <time>2010-01-01T00:52:20Z</time>
      </trkpt>
      <trkpt lat="44.26816" lon="6.18999">
        <ele>2007</ele>
        <time>2010-01-01T00:52:21Z</time>
      </trkpt>
      <trkpt lat="44.26817" lon="6.19002">
        <ele>2007</ele>
        <time>2010-01-01T00:52:22Z</time>
      </trkpt>
      <trkpt lat="44.26817" lon="6.19006">
        <ele>2007</ele>
        <time>2010-01-01T00:52:23Z</time>
      </trkpt>
      <trkpt lat="44.26817" lon="6.19009">
        <ele>2007</ele>
        <time>2010-01-01T00:52:23Z</time>
      </trkpt>
      <trkpt lat="44.26817" lon="6.1901">
        <ele>2007</ele>
        <time>2010-01-01T00:52:24Z</time>
      </trkpt>
      <trkpt lat="44.26817" lon="6.19011">
        <ele>2007</ele>
        <time>2010-01-01T00:52:24Z</time>
      </trkpt>
      <trkpt lat="44.26817" lon="6.19014">
        <ele>2008</ele>
        <time>2010-01-01T00:52:24Z</time>
      </trkpt>
      <trkpt lat="44.26817" lon="6.19018">
        <ele>2008</ele>
        <time>2010-01-01T00:52:25Z</time>
      </trkpt>
      <trkpt lat="44.26817" lon="6.1902">
        <ele>2008</ele>
        <time>2010-01-01T00:52:25Z</time>
      </trkpt>
      <trkpt lat="44.26815" lon="6.19025">
        <ele>2009</ele>
        <time>2010-01-01T00:52:27Z</time>
      </trkpt>
      <trkpt lat="44.26815" lon="6.19026">
        <ele>2009</ele>
        <time>2010-01-01T00:52:27Z</time>
      </trkpt>
      <trkpt lat="44.26813" lon="6.19031">
        <ele>2010</ele>
        <time>2010-01-01T00:52:28Z</time>
      </trkpt>
      <trkpt lat="44.26812" lon="6.19032">
        <ele>2010</ele>
        <time>2010-01-01T00:52:28Z</time>
      </trkpt>
      <trkpt lat="44.26812" lon="6.19032">
        <ele>2010</ele>
        <time>2010-01-01T00:52:28Z</time>
      </trkpt>
      <trkpt lat="44.26812" lon="6.19034">
        <ele>2011</ele>
        <time>2010-01-01T00:52:28Z</time>
      </trkpt>
      <trkpt lat="44.2681" lon="6.19036">
        <ele>2012</ele>
        <time>2010-01-01T00:52:29Z</time>
      </trkpt>
      <trkpt lat="44.26807" lon="6.19037">
        <ele>2013</ele>
        <time>2010-01-01T00:52:30Z</time>
      </trkpt>
      <trkpt lat="44.26801" lon="6.19041">
        <ele>2015</ele>
        <time>2010-01-01T00:52:32Z</time>
      </trkpt>
      <trkpt lat="44.268" lon="6.19041">
        <ele>2015</ele>
        <time>2010-01-01T00:52:32Z</time>
      </trkpt>
      <trkpt lat="44.26797" lon="6.19043">
        <ele>2016</ele>
        <time>2010-01-01T00:52:33Z</time>
      </trkpt>
      <trkpt lat="44.26793" lon="6.19047">
        <ele>2017</ele>
        <time>2010-01-01T00:52:34Z</time>
      </trkpt>
      <trkpt lat="44.26791" lon="6.19052">
        <ele>2018</ele>
        <time>2010-01-01T00:52:35Z</time>
      </trkpt>
      <trkpt lat="44.26789" lon="6.19055">
        <ele>2019</ele>
        <time>2010-01-01T00:52:36Z</time>
      </trkpt>
      <trkpt lat="44.26786" lon="6.19059">
        <ele>2020</ele>
        <time>2010-01-01T00:52:37Z</time>
      </trkpt>
      <trkpt lat="44.26785" lon="6.19059">
        <ele>2020</ele>
        <time>2010-01-01T00:52:37Z</time>
      </trkpt>
      <trkpt lat="44.26785" lon="6.1906">
        <ele>2020</ele>
        <time>2010-01-01T00:52:38Z</time>
      </trkpt>
      <trkpt lat="44.26784" lon="6.19062">
        <ele>2020</ele>
        <time>2010-01-01T00:52:38Z</time>
      </trkpt>
      <trkpt lat="44.26783" lon="6.19064">
        <ele>2021</ele>
        <time>2010-01-01T00:52:38Z</time>
      </trkpt>
      <trkpt lat="44.26781" lon="6.19065">
        <ele>2021</ele>
        <time>2010-01-01T00:52:39Z</time>
      </trkpt>
      <trkpt lat="44.26779" lon="6.19069">
        <ele>2022</ele>
        <time>2010-01-01T00:52:40Z</time>
      </trkpt>
      <trkpt lat="44.26777" lon="6.19074">
        <ele>2022</ele>
        <time>2010-01-01T00:52:41Z</time>
      </trkpt>
      <trkpt lat="44.26777" lon="6.19075">
        <ele>2022</ele>
        <time>2010-01-01T00:52:41Z</time>
      </trkpt>
      <trkpt lat="44.26775" lon="6.19079">
        <ele>2023</ele>
        <time>2010-01-01T00:52:42Z</time>
      </trkpt>
      <trkpt lat="44.26774" lon="6.19082">
        <ele>2023</ele>
        <time>2010-01-01T00:52:43Z</time>
      </trkpt>
      <trkpt lat="44.26774" lon="6.19083">
        <ele>2023</ele>
        <time>2010-01-01T00:52:43Z</time>
      </trkpt>
      <trkpt lat="44.26773" lon="6.19083">
        <ele>2022</ele>
        <time>2010-01-01T00:52:43Z</time>
      </trkpt>
      <trkpt lat="44.26773" lon="6.19084">
        <ele>2022</ele>
        <time>2010-01-01T00:52:43Z</time>
      </trkpt>
      <trkpt lat="44.26772" lon="6.19086">
        <ele>2022</ele>
        <time>2010-01-01T00:52:44Z</time>
      </trkpt>
      <trkpt lat="44.26771" lon="6.19086">
        <ele>2022</ele>
        <time>2010-01-01T00:52:44Z</time>
      </trkpt>
      <trkpt lat="44.26769" lon="6.19088">
        <ele>2022</ele>
        <time>2010-01-01T00:52:44Z</time>
      </trkpt>
      <trkpt lat="44.26767" lon="6.19089">
        <ele>2022</ele>
        <time>2010-01-01T00:52:45Z</time>
      </trkpt>
      <trkpt lat="44.26765" lon="6.19095">
        <ele>2021</ele>
        <time>2010-01-01T00:52:46Z</time>
      </trkpt>
      <trkpt lat="44.26764" lon="6.19098">
        <ele>2022</ele>
        <time>2010-01-01T00:52:47Z</time>
      </trkpt>
      <trkpt lat="44.26763" lon="6.19101">
        <ele>2022</ele>
        <time>2010-01-01T00:52:48Z</time>
      </trkpt>
      <trkpt lat="44.26762" lon="6.19104">
        <ele>2022</ele>
        <time>2010-01-01T00:52:48Z</time>
      </trkpt>
      <trkpt lat="44.26762" lon="6.19106">
        <ele>2022</ele>
        <time>2010-01-01T00:52:49Z</time>
      </trkpt>
      <trkpt lat="44.26762" lon="6.19109">
        <ele>2022</ele>
        <time>2010-01-01T00:52:49Z</time>
      </trkpt>
      <trkpt lat="44.26764" lon="6.19112">
        <ele>2023</ele>
        <time>2010-01-01T00:52:50Z</time>
      </trkpt>
      <trkpt lat="44.26765" lon="6.19121">
        <ele>2023</ele>
        <time>2010-01-01T00:52:52Z</time>
      </trkpt>
      <trkpt lat="44.26767" lon="6.19128">
        <ele>2023</ele>
        <time>2010-01-01T00:52:53Z</time>
      </trkpt>
      <trkpt lat="44.26767" lon="6.19129">
        <ele>2023</ele>
        <time>2010-01-01T00:52:53Z</time>
      </trkpt>
      <trkpt lat="44.26765" lon="6.19135">
        <ele>2023</ele>
        <time>2010-01-01T00:52:55Z</time>
      </trkpt>
      <trkpt lat="44.26762" lon="6.19143">
        <ele>2024</ele>
        <time>2010-01-01T00:52:56Z</time>
      </trkpt>
      <trkpt lat="44.2676" lon="6.19147">
        <ele>2024</ele>
        <time>2010-01-01T00:52:57Z</time>
      </trkpt>
      <trkpt lat="44.2676" lon="6.19148">
        <ele>2024</ele>
        <time>2010-01-01T00:52:57Z</time>
      </trkpt>
      <trkpt lat="44.2676" lon="6.19148">
        <ele>2024</ele>
        <time>2010-01-01T00:52:57Z</time>
      </trkpt>
      <trkpt lat="44.26758" lon="6.19156">
        <ele>2024</ele>
        <time>2010-01-01T00:52:59Z</time>
      </trkpt>
      <trkpt lat="44.26756" lon="6.1916">
        <ele>2025</ele>
        <time>2010-01-01T00:53:00Z</time>
      </trkpt>
      <trkpt lat="44.26756" lon="6.19161">
        <ele>2025</ele>
        <time>2010-01-01T00:53:00Z</time>
      </trkpt>
      <trkpt lat="44.26755" lon="6.19161">
        <ele>2025</ele>
        <time>2010-01-01T00:53:00Z</time>
      </trkpt>
      <trkpt lat="44.26754" lon="6.19162">
        <ele>2025</ele>
        <time>2010-01-01T00:53:01Z</time>
      </trkpt>
      <trkpt lat="44.26752" lon="6.19164">
        <ele>2026</ele>
        <time>2010-01-01T00:53:01Z</time>
      </trkpt>
      <trkpt lat="44.26751" lon="6.19166">
        <ele>2026</ele>
        <time>2010-01-01T00:53:02Z</time>
      </trkpt>
      <trkpt lat="44.2675" lon="6.19168">
        <ele>2026</ele>
        <time>2010-01-01T00:53:02Z</time>
      </trkpt>
      <trkpt lat="44.26749" lon="6.1917">
        <ele>2026</ele>
        <time>2010-01-01T00:53:03Z</time>
      </trkpt>
      <trkpt lat="44.26748" lon="6.19172">
        <ele>2026</ele>
        <time>2010-01-01T00:53:03Z</time>
      </trkpt>
      <trkpt lat="44.26747" lon="6.19174">
        <ele>2025</ele>
        <time>2010-01-01T00:53:04Z</time>
      </trkpt>
      <trkpt lat="44.26747" lon="6.19175">
        <ele>2025</ele>
        <time>2010-01-01T00:53:04Z</time>
      </trkpt>
      <trkpt lat="44.26745" lon="6.19176">
        <ele>2025</ele>
        <time>2010-01-01T00:53:04Z</time>
      </trkpt>
      <trkpt lat="44.26744" lon="6.19176">
        <ele>2025</ele>
        <time>2010-01-01T00:53:04Z</time>
      </trkpt>
      <trkpt lat="44.26743" lon="6.19176">
        <ele>2025</ele>
        <time>2010-01-01T00:53:05Z</time>
      </trkpt>
      <trkpt lat="44.26741" lon="6.19179">
        <ele>2025</ele>
        <time>2010-01-01T00:53:05Z</time>
      </trkpt>
      <trkpt lat="44.2674" lon="6.19181">
        <ele>2025</ele>
        <time>2010-01-01T00:53:06Z</time>
      </trkpt>
      <trkpt lat="44.26738" lon="6.19187">
        <ele>2025</ele>
        <time>2010-01-01T00:53:07Z</time>
      </trkpt>
      <trkpt lat="44.26738" lon="6.19189">
        <ele>2025</ele>
        <time>2010-01-01T00:53:08Z</time>
      </trkpt>
      <trkpt lat="44.26735" lon="6.19193">
        <ele>2026</ele>
        <time>2010-01-01T00:53:09Z</time>
      </trkpt>
      <trkpt lat="44.26732" lon="6.19197">
        <ele>2027</ele>
        <time>2010-01-01T00:53:10Z</time>
      </trkpt>
      <trkpt lat="44.26732" lon="6.19197">
        <ele>2027</ele>
        <time>2010-01-01T00:53:10Z</time>
      </trkpt>
      <trkpt lat="44.26728" lon="6.19199">
        <ele>2028</ele>
        <time>2010-01-01T00:53:11Z</time>
      </trkpt>
      <trkpt lat="44.26727" lon="6.192">
        <ele>2028</ele>
        <time>2010-01-01T00:53:11Z</time>
      </trkpt>
      <trkpt lat="44.26726" lon="6.19201">
        <ele>2029</ele>
        <time>2010-01-01T00:53:12Z</time>
      </trkpt>
      <trkpt lat="44.26725" lon="6.19203">
        <ele>2029</ele>
        <time>2010-01-01T00:53:12Z</time>
      </trkpt>
      <trkpt lat="44.26724" lon="6.19204">
        <ele>2029</ele>
        <time>2010-01-01T00:53:12Z</time>
      </trkpt>
      <trkpt lat="44.26724" lon="6.19204">
        <ele>2030</ele>
        <time>2010-01-01T00:53:12Z</time>
      </trkpt>
      <trkpt lat="44.26724" lon="6.19204">
        <ele>2029</ele>
        <time>2010-01-01T00:53:13Z</time>
      </trkpt>
      <trkpt lat="44.26722" lon="6.19205">
        <ele>2030</ele>
        <time>2010-01-01T00:53:13Z</time>
      </trkpt>
      <trkpt lat="44.26722" lon="6.19205">
        <ele>2030</ele>
        <time>2010-01-01T00:53:13Z</time>
      </trkpt>
      <trkpt lat="44.2672" lon="6.19209">
        <ele>2031</ele>
        <time>2010-01-01T00:53:14Z</time>
      </trkpt>
      <trkpt lat="44.2672" lon="6.1921">
        <ele>2031</ele>
        <time>2010-01-01T00:53:14Z</time>
      </trkpt>
      <trkpt lat="44.26716" lon="6.19211">
        <ele>2031</ele>
        <time>2010-01-01T00:53:15Z</time>
      </trkpt>
      <trkpt lat="44.26715" lon="6.19211">
        <ele>2031</ele>
        <time>2010-01-01T00:53:15Z</time>
      </trkpt>
      <trkpt lat="44.26713" lon="6.19214">
        <ele>2032</ele>
        <time>2010-01-01T00:53:16Z</time>
      </trkpt>
      <trkpt lat="44.26712" lon="6.19217">
        <ele>2033</ele>
        <time>2010-01-01T00:53:17Z</time>
      </trkpt>
      <trkpt lat="44.26711" lon="6.19218">
        <ele>2033</ele>
        <time>2010-01-01T00:53:17Z</time>
      </trkpt>
      <trkpt lat="44.2671" lon="6.19223">
        <ele>2034</ele>
        <time>2010-01-01T00:53:18Z</time>
      </trkpt>
      <trkpt lat="44.26709" lon="6.19224">
        <ele>2035</ele>
        <time>2010-01-01T00:53:19Z</time>
      </trkpt>
      <trkpt lat="44.26708" lon="6.19223">
        <ele>2035</ele>
        <time>2010-01-01T00:53:19Z</time>
      </trkpt>
      <trkpt lat="44.26707" lon="6.19222">
        <ele>2035</ele>
        <time>2010-01-01T00:53:19Z</time>
      </trkpt>
      <trkpt lat="44.26706" lon="6.19223">
        <ele>2035</ele>
        <time>2010-01-01T00:53:19Z</time>
      </trkpt>
      <trkpt lat="44.26704" lon="6.19225">
        <ele>2036</ele>
        <time>2010-01-01T00:53:20Z</time>
      </trkpt>
      <trkpt lat="44.26702" lon="6.19227">
        <ele>2036</ele>
        <time>2010-01-01T00:53:21Z</time>
      </trkpt>
      <trkpt lat="44.26702" lon="6.19227">
        <ele>2036</ele>
        <time>2010-01-01T00:53:21Z</time>
      </trkpt>
      <trkpt lat="44.26699" lon="6.1923">
        <ele>2038</ele>
        <time>2010-01-01T00:53:22Z</time>
      </trkpt>
      <trkpt lat="44.26699" lon="6.19229">
        <ele>2038</ele>
        <time>2010-01-01T00:53:22Z</time>
      </trkpt>
      <trkpt lat="44.26698" lon="6.19229">
        <ele>2037</ele>
        <time>2010-01-01T00:53:22Z</time>
      </trkpt>
      <trkpt lat="44.26697" lon="6.19232">
        <ele>2038</ele>
        <time>2010-01-01T00:53:23Z</time>
      </trkpt>
      <trkpt lat="44.26696" lon="6.19233">
        <ele>2039</ele>
        <time>2010-01-01T00:53:23Z</time>
      </trkpt>
      <trkpt lat="44.26696" lon="6.19234">
        <ele>2039</ele>
        <time>2010-01-01T00:53:23Z</time>
      </trkpt>
      <trkpt lat="44.26695" lon="6.19235">
        <ele>2040</ele>
        <time>2010-01-01T00:53:24Z</time>
      </trkpt>
      <trkpt lat="44.26695" lon="6.19236">
        <ele>2040</ele>
        <time>2010-01-01T00:53:24Z</time>
      </trkpt>
      <trkpt lat="44.26693" lon="6.1924">
        <ele>2041</ele>
        <time>2010-01-01T00:53:25Z</time>
      </trkpt>
      <trkpt lat="44.26692" lon="6.19241">
        <ele>2041</ele>
        <time>2010-01-01T00:53:25Z</time>
      </trkpt>
      <trkpt lat="44.26692" lon="6.19241">
        <ele>2041</ele>
        <time>2010-01-01T00:53:25Z</time>
      </trkpt>
      <trkpt lat="44.26692" lon="6.19241">
        <ele>2041</ele>
        <time>2010-01-01T00:53:25Z</time>
      </trkpt>
      <trkpt lat="44.26692" lon="6.19241">
        <ele>2041</ele>
        <time>2010-01-01T00:53:25Z</time>
      </trkpt>
      <trkpt lat="44.26689" lon="6.19243">
        <ele>2042</ele>
        <time>2010-01-01T00:53:26Z</time>
      </trkpt>
      <trkpt lat="44.26689" lon="6.19243">
        <ele>2042</ele>
        <time>2010-01-01T00:53:26Z</time>
      </trkpt>
      <trkpt lat="44.26688" lon="6.19243">
        <ele>2042</ele>
        <time>2010-01-01T00:53:27Z</time>
      </trkpt>
      <trkpt lat="44.26687" lon="6.19244">
        <ele>2042</ele>
        <time>2010-01-01T00:53:27Z</time>
      </trkpt>
      <trkpt lat="44.26687" lon="6.19244">
        <ele>2042</ele>
        <time>2010-01-01T00:53:27Z</time>
      </trkpt>
      <trkpt lat="44.26686" lon="6.19245">
        <ele>2042</ele>
        <time>2010-01-01T00:53:27Z</time>
      </trkpt>
      <trkpt lat="44.26685" lon="6.19246">
        <ele>2043</ele>
        <time>2010-01-01T00:53:28Z</time>
      </trkpt>
      <trkpt lat="44.26685" lon="6.19249">
        <ele>2044</ele>
        <time>2010-01-01T00:53:28Z</time>
      </trkpt>
      <trkpt lat="44.26683" lon="6.19252">
        <ele>2044</ele>
        <time>2010-01-01T00:53:29Z</time>
      </trkpt>
      <trkpt lat="44.26682" lon="6.19253">
        <ele>2044</ele>
        <time>2010-01-01T00:53:29Z</time>
      </trkpt>
      <trkpt lat="44.26682" lon="6.19254">
        <ele>2044</ele>
        <time>2010-01-01T00:53:29Z</time>
      </trkpt>
      <trkpt lat="44.26681" lon="6.19254">
        <ele>2044</ele>
        <time>2010-01-01T00:53:30Z</time>
      </trkpt>
      <trkpt lat="44.2668" lon="6.19253">
        <ele>2044</ele>
        <time>2010-01-01T00:53:30Z</time>
      </trkpt>
      <trkpt lat="44.2668" lon="6.19253">
        <ele>2044</ele>
        <time>2010-01-01T00:53:30Z</time>
      </trkpt>
      <trkpt lat="44.2668" lon="6.19253">
        <ele>2044</ele>
        <time>2010-01-01T00:53:30Z</time>
      </trkpt>
      <trkpt lat="44.2668" lon="6.19252">
        <ele>2044</ele>
        <time>2010-01-01T00:53:30Z</time>
      </trkpt>
      <trkpt lat="44.2668" lon="6.19253">
        <ele>2044</ele>
        <time>2010-01-01T00:53:30Z</time>
      </trkpt>
      <trkpt lat="44.26678" lon="6.19257">
        <ele>2045</ele>
        <time>2010-01-01T00:53:31Z</time>
      </trkpt>
      <trkpt lat="44.26676" lon="6.1926">
        <ele>2046</ele>
        <time>2010-01-01T00:53:32Z</time>
      </trkpt>
      <trkpt lat="44.26673" lon="6.19268">
        <ele>2048</ele>
        <time>2010-01-01T00:53:34Z</time>
      </trkpt>
      <trkpt lat="44.26669" lon="6.19273">
        <ele>2050</ele>
        <time>2010-01-01T00:53:35Z</time>
      </trkpt>
      <trkpt lat="44.26664" lon="6.1928">
        <ele>2052</ele>
        <time>2010-01-01T00:53:37Z</time>
      </trkpt>
      <trkpt lat="44.26661" lon="6.19284">
        <ele>2054</ele>
        <time>2010-01-01T00:53:38Z</time>
      </trkpt>
      <trkpt lat="44.2666" lon="6.19286">
        <ele>2054</ele>
        <time>2010-01-01T00:53:39Z</time>
      </trkpt>
      <trkpt lat="44.26657" lon="6.1929">
        <ele>2056</ele>
        <time>2010-01-01T00:53:40Z</time>
      </trkpt>
      <trkpt lat="44.26657" lon="6.19291">
        <ele>2056</ele>
        <time>2010-01-01T00:53:40Z</time>
      </trkpt>
      <trkpt lat="44.26656" lon="6.19296">
        <ele>2058</ele>
        <time>2010-01-01T00:53:41Z</time>
      </trkpt>
      <trkpt lat="44.26655" lon="6.19296">
        <ele>2058</ele>
        <time>2010-01-01T00:53:41Z</time>
      </trkpt>
      <trkpt lat="44.26654" lon="6.193">
        <ele>2059</ele>
        <time>2010-01-01T00:53:42Z</time>
      </trkpt>
      <trkpt lat="44.26654" lon="6.19301">
        <ele>2060</ele>
        <time>2010-01-01T00:53:42Z</time>
      </trkpt>
      <trkpt lat="44.26651" lon="6.19305">
        <ele>2062</ele>
        <time>2010-01-01T00:53:43Z</time>
      </trkpt>
      <trkpt lat="44.26651" lon="6.19306">
        <ele>2062</ele>
        <time>2010-01-01T00:53:43Z</time>
      </trkpt>
      <trkpt lat="44.2665" lon="6.19307">
        <ele>2062</ele>
        <time>2010-01-01T00:53:43Z</time>
      </trkpt>
      <trkpt lat="44.2665" lon="6.19307">
        <ele>2062</ele>
        <time>2010-01-01T00:53:44Z</time>
      </trkpt>
      <trkpt lat="44.26651" lon="6.19307">
        <ele>2062</ele>
        <time>2010-01-01T00:53:44Z</time>
      </trkpt>
      <trkpt lat="44.26651" lon="6.19307">
        <ele>2062</ele>
        <time>2010-01-01T00:53:44Z</time>
      </trkpt>
      <trkpt lat="44.26651" lon="6.19307">
        <ele>2062</ele>
        <time>2010-01-01T00:53:44Z</time>
      </trkpt>
      <trkpt lat="44.26651" lon="6.19307">
        <ele>2062</ele>
        <time>2010-01-01T00:53:44Z</time>
      </trkpt>
      <trkpt lat="44.2665" lon="6.19307">
        <ele>2062</ele>
        <time>2010-01-01T00:53:44Z</time>
      </trkpt>
      <trkpt lat="44.2665" lon="6.19307">
        <ele>2062</ele>
        <time>2010-01-01T00:53:44Z</time>
      </trkpt>
      <trkpt lat="44.26651" lon="6.19307">
        <ele>2062</ele>
        <time>2010-01-01T00:53:44Z</time>
      </trkpt>
      <trkpt lat="44.2665" lon="6.19309">
        <ele>2063</ele>
        <time>2010-01-01T00:53:45Z</time>
      </trkpt>
      <trkpt lat="44.2665" lon="6.19309">
        <ele>2063</ele>
        <time>2010-01-01T00:53:45Z</time>
      </trkpt>
      <trkpt lat="44.2665" lon="6.1931">
        <ele>2063</ele>
        <time>2010-01-01T00:53:45Z</time>
      </trkpt>
      <trkpt lat="44.2665" lon="6.1931">
        <ele>2063</ele>
        <time>2010-01-01T00:53:45Z</time>
      </trkpt>
      <trkpt lat="44.26649" lon="6.19314">
        <ele>2064</ele>
        <time>2010-01-01T00:53:45Z</time>
      </trkpt>
      <trkpt lat="44.26648" lon="6.1932">
        <ele>2066</ele>
        <time>2010-01-01T00:53:47Z</time>
      </trkpt>
      <trkpt lat="44.26649" lon="6.1932">
        <ele>2066</ele>
        <time>2010-01-01T00:53:47Z</time>
      </trkpt>
      <trkpt lat="44.26648" lon="6.1932">
        <ele>2067</ele>
        <time>2010-01-01T00:53:47Z</time>
      </trkpt>
      <trkpt lat="44.26647" lon="6.19322">
        <ele>2068</ele>
        <time>2010-01-01T00:53:48Z</time>
      </trkpt>
      <trkpt lat="44.26646" lon="6.19324">
        <ele>2068</ele>
        <time>2010-01-01T00:53:48Z</time>
      </trkpt>
      <trkpt lat="44.26646" lon="6.19326">
        <ele>2069</ele>
        <time>2010-01-01T00:53:48Z</time>
      </trkpt>
      <trkpt lat="44.26646" lon="6.19326">
        <ele>2069</ele>
        <time>2010-01-01T00:53:48Z</time>
      </trkpt>
      <trkpt lat="44.26646" lon="6.19326">
        <ele>2069</ele>
        <time>2010-01-01T00:53:48Z</time>
      </trkpt>
      <trkpt lat="44.26646" lon="6.19326">
        <ele>2069</ele>
        <time>2010-01-01T00:53:49Z</time>
      </trkpt>
      <trkpt lat="44.26646" lon="6.19326">
        <ele>2069</ele>
        <time>2010-01-01T00:53:49Z</time>
      </trkpt>
      <trkpt lat="44.26643" lon="6.19335">
        <ele>2072</ele>
        <time>2010-01-01T00:53:50Z</time>
      </trkpt>
      <trkpt lat="44.26642" lon="6.19337">
        <ele>2073</ele>
        <time>2010-01-01T00:53:51Z</time>
      </trkpt>
      <trkpt lat="44.26637" lon="6.19344">
        <ele>2075</ele>
        <time>2010-01-01T00:53:53Z</time>
      </trkpt>
      <trkpt lat="44.26637" lon="6.19345">
        <ele>2075</ele>
        <time>2010-01-01T00:53:53Z</time>
      </trkpt>
      <trkpt lat="44.26634" lon="6.1935">
        <ele>2077</ele>
        <time>2010-01-01T00:53:54Z</time>
      </trkpt>
      <trkpt lat="44.26634" lon="6.19351">
        <ele>2077</ele>
        <time>2010-01-01T00:53:54Z</time>
      </trkpt>
      <trkpt lat="44.26633" lon="6.19357">
        <ele>2078</ele>
        <time>2010-01-01T00:53:55Z</time>
      </trkpt>
      <trkpt lat="44.26633" lon="6.19358">
        <ele>2078</ele>
        <time>2010-01-01T00:53:56Z</time>
      </trkpt>
      <trkpt lat="44.26632" lon="6.19364">
        <ele>2079</ele>
        <time>2010-01-01T00:53:57Z</time>
      </trkpt>
      <trkpt lat="44.26631" lon="6.1937">
        <ele>2080</ele>
        <time>2010-01-01T00:53:58Z</time>
      </trkpt>
      <trkpt lat="44.26631" lon="6.19372">
        <ele>2080</ele>
        <time>2010-01-01T00:53:58Z</time>
      </trkpt>
      <trkpt lat="44.26629" lon="6.19378">
        <ele>2080</ele>
        <time>2010-01-01T00:54:00Z</time>
      </trkpt>
      <trkpt lat="44.26627" lon="6.1938">
        <ele>2081</ele>
        <time>2010-01-01T00:54:01Z</time>
      </trkpt>
      <trkpt lat="44.26626" lon="6.19381">
        <ele>2081</ele>
        <time>2010-01-01T00:54:01Z</time>
      </trkpt>
      <trkpt lat="44.26624" lon="6.19385">
        <ele>2082</ele>
        <time>2010-01-01T00:54:02Z</time>
      </trkpt>
      <trkpt lat="44.26623" lon="6.19385">
        <ele>2082</ele>
        <time>2010-01-01T00:54:02Z</time>
      </trkpt>
      <trkpt lat="44.26623" lon="6.19387">
        <ele>2082</ele>
        <time>2010-01-01T00:54:02Z</time>
      </trkpt>
      <trkpt lat="44.26623" lon="6.19387">
        <ele>2082</ele>
        <time>2010-01-01T00:54:02Z</time>
      </trkpt>
      <trkpt lat="44.26621" lon="6.1939">
        <ele>2082</ele>
        <time>2010-01-01T00:54:03Z</time>
      </trkpt>
      <trkpt lat="44.2662" lon="6.1939">
        <ele>2082</ele>
        <time>2010-01-01T00:54:03Z</time>
      </trkpt>
      <trkpt lat="44.26619" lon="6.1939">
        <ele>2083</ele>
        <time>2010-01-01T00:54:04Z</time>
      </trkpt>
      <trkpt lat="44.26618" lon="6.19391">
        <ele>2083</ele>
        <time>2010-01-01T00:54:04Z</time>
      </trkpt>
      <trkpt lat="44.26617" lon="6.19393">
        <ele>2083</ele>
        <time>2010-01-01T00:54:04Z</time>
      </trkpt>
      <trkpt lat="44.26612" lon="6.19396">
        <ele>2084</ele>
        <time>2010-01-01T00:54:06Z</time>
      </trkpt>
      <trkpt lat="44.26611" lon="6.19397">
        <ele>2084</ele>
        <time>2010-01-01T00:54:06Z</time>
      </trkpt>
      <trkpt lat="44.26608" lon="6.19399">
        <ele>2085</ele>
        <time>2010-01-01T00:54:07Z</time>
      </trkpt>
      <trkpt lat="44.26608" lon="6.19399">
        <ele>2085</ele>
        <time>2010-01-01T00:54:07Z</time>
      </trkpt>
      <trkpt lat="44.26604" lon="6.19397">
        <ele>2087</ele>
        <time>2010-01-01T00:54:08Z</time>
      </trkpt>
      <trkpt lat="44.26602" lon="6.19395">
        <ele>2088</ele>
        <time>2010-01-01T00:54:09Z</time>
      </trkpt>
      <trkpt lat="44.266" lon="6.19395">
        <ele>2088</ele>
        <time>2010-01-01T00:54:09Z</time>
      </trkpt>
      <trkpt lat="44.26594" lon="6.194">
        <ele>2090</ele>
        <time>2010-01-01T00:54:11Z</time>
      </trkpt>
      <trkpt lat="44.26593" lon="6.194">
        <ele>2090</ele>
        <time>2010-01-01T00:54:11Z</time>
      </trkpt>
      <trkpt lat="44.2659" lon="6.19402">
        <ele>2091</ele>
        <time>2010-01-01T00:54:12Z</time>
      </trkpt>
      <trkpt lat="44.26589" lon="6.19407">
        <ele>2091</ele>
        <time>2010-01-01T00:54:13Z</time>
      </trkpt>
      <trkpt lat="44.26588" lon="6.19409">
        <ele>2091</ele>
        <time>2010-01-01T00:54:14Z</time>
      </trkpt>
      <trkpt lat="44.26587" lon="6.19412">
        <ele>2091</ele>
        <time>2010-01-01T00:54:14Z</time>
      </trkpt>
      <trkpt lat="44.26587" lon="6.19414">
        <ele>2091</ele>
        <time>2010-01-01T00:54:15Z</time>
      </trkpt>
      <trkpt lat="44.26586" lon="6.19416">
        <ele>2092</ele>
        <time>2010-01-01T00:54:15Z</time>
      </trkpt>
      <trkpt lat="44.26585" lon="6.19416">
        <ele>2092</ele>
        <time>2010-01-01T00:54:15Z</time>
      </trkpt>
      <trkpt lat="44.26583" lon="6.19417">
        <ele>2092</ele>
        <time>2010-01-01T00:54:16Z</time>
      </trkpt>
      <trkpt lat="44.26581" lon="6.19418">
        <ele>2092</ele>
        <time>2010-01-01T00:54:17Z</time>
      </trkpt>
      <trkpt lat="44.2658" lon="6.19419">
        <ele>2092</ele>
        <time>2010-01-01T00:54:17Z</time>
      </trkpt>
      <trkpt lat="44.26579" lon="6.1942">
        <ele>2092</ele>
        <time>2010-01-01T00:54:17Z</time>
      </trkpt>
      <trkpt lat="44.26578" lon="6.19422">
        <ele>2092</ele>
        <time>2010-01-01T00:54:18Z</time>
      </trkpt>
      <trkpt lat="44.26576" lon="6.19425">
        <ele>2091</ele>
        <time>2010-01-01T00:54:18Z</time>
      </trkpt>
      <trkpt lat="44.26572" lon="6.19428">
        <ele>2091</ele>
        <time>2010-01-01T00:54:20Z</time>
      </trkpt>
      <trkpt lat="44.26572" lon="6.19429">
        <ele>2091</ele>
        <time>2010-01-01T00:54:20Z</time>
      </trkpt>
      <trkpt lat="44.26571" lon="6.19429">
        <ele>2091</ele>
        <time>2010-01-01T00:54:20Z</time>
      </trkpt>
      <trkpt lat="44.26571" lon="6.19431">
        <ele>2091</ele>
        <time>2010-01-01T00:54:21Z</time>
      </trkpt>
      <trkpt lat="44.2657" lon="6.19432">
        <ele>2091</ele>
        <time>2010-01-01T00:54:21Z</time>
      </trkpt>
      <trkpt lat="44.26567" lon="6.19437">
        <ele>2090</ele>
        <time>2010-01-01T00:54:22Z</time>
      </trkpt>
      <trkpt lat="44.26561" lon="6.19442">
        <ele>2090</ele>
        <time>2010-01-01T00:54:24Z</time>
      </trkpt>
      <trkpt lat="44.26558" lon="6.19446">
        <ele>2091</ele>
        <time>2010-01-01T00:54:25Z</time>
      </trkpt>
      <trkpt lat="44.26558" lon="6.19446">
        <ele>2090</ele>
        <time>2010-01-01T00:54:25Z</time>
      </trkpt>
      <trkpt lat="44.26557" lon="6.19448">
        <ele>2090</ele>
        <time>2010-01-01T00:54:25Z</time>
      </trkpt>
      <trkpt lat="44.26556" lon="6.19448">
        <ele>2090</ele>
        <time>2010-01-01T00:54:25Z</time>
      </trkpt>
      <trkpt lat="44.26547" lon="6.19448">
        <ele>2091</ele>
        <time>2010-01-01T00:54:28Z</time>
      </trkpt>
      <trkpt lat="44.26542" lon="6.19449">
        <ele>2091</ele>
        <time>2010-01-01T00:54:29Z</time>
      </trkpt>
      <trkpt lat="44.26537" lon="6.19448">
        <ele>2092</ele>
        <time>2010-01-01T00:54:31Z</time>
      </trkpt>
      <trkpt lat="44.26531" lon="6.19448">
        <ele>2092</ele>
        <time>2010-01-01T00:54:32Z</time>
      </trkpt>
      <trkpt lat="44.26527" lon="6.19449">
        <ele>2092</ele>
        <time>2010-01-01T00:54:33Z</time>
      </trkpt>
      <trkpt lat="44.26522" lon="6.19448">
        <ele>2093</ele>
        <time>2010-01-01T00:54:35Z</time>
      </trkpt>
      <trkpt lat="44.26515" lon="6.19447">
        <ele>2093</ele>
        <time>2010-01-01T00:54:37Z</time>
      </trkpt>
      <trkpt lat="44.26507" lon="6.19447">
        <ele>2094</ele>
        <time>2010-01-01T00:54:39Z</time>
      </trkpt>
      <trkpt lat="44.265" lon="6.19447">
        <ele>2094</ele>
        <time>2010-01-01T00:54:41Z</time>
      </trkpt>
      <trkpt lat="44.26493" lon="6.19444">
        <ele>2094</ele>
        <time>2010-01-01T00:54:42Z</time>
      </trkpt>
      <trkpt lat="44.2648" lon="6.1944">
        <ele>2093</ele>
        <time>2010-01-01T00:54:46Z</time>
      </trkpt>
      <trkpt lat="44.26473" lon="6.19438">
        <ele>2092</ele>
        <time>2010-01-01T00:54:48Z</time>
      </trkpt>
      <trkpt lat="44.2645" lon="6.19428">
        <ele>2092</ele>
        <time>2010-01-01T00:54:54Z</time>
      </trkpt>
      <trkpt lat="44.26445" lon="6.19428">
        <ele>2093</ele>
        <time>2010-01-01T00:54:56Z</time>
      </trkpt>
      <trkpt lat="44.26426" lon="6.19427">
        <ele>2096</ele>
        <time>2010-01-01T00:55:01Z</time>
      </trkpt>
      <trkpt lat="44.26423" lon="6.19427">
        <ele>2097</ele>
        <time>2010-01-01T00:55:02Z</time>
      </trkpt>
      <trkpt lat="44.26419" lon="6.19428">
        <ele>2097</ele>
        <time>2010-01-01T00:55:03Z</time>
      </trkpt>
      <trkpt lat="44.26416" lon="6.19427">
        <ele>2098</ele>
        <time>2010-01-01T00:55:03Z</time>
      </trkpt>
      <trkpt lat="44.26408" lon="6.19427">
        <ele>2100</ele>
        <time>2010-01-01T00:55:05Z</time>
      </trkpt>
      <trkpt lat="44.26409" lon="6.19427">
        <ele>2100</ele>
        <time>2010-01-01T00:55:06Z</time>
      </trkpt>
      <trkpt lat="44.26409" lon="6.19427">
        <ele>2100</ele>
        <time>2010-01-01T00:55:06Z</time>
      </trkpt>
      <trkpt lat="44.26406" lon="6.19427">
        <ele>2100</ele>
        <time>2010-01-01T00:55:06Z</time>
      </trkpt>
      <trkpt lat="44.26405" lon="6.19427">
        <ele>2100</ele>
        <time>2010-01-01T00:55:07Z</time>
      </trkpt>
      <trkpt lat="44.26401" lon="6.19427">
        <ele>2101</ele>
        <time>2010-01-01T00:55:08Z</time>
      </trkpt>
      <trkpt lat="44.264" lon="6.19428">
        <ele>2102</ele>
        <time>2010-01-01T00:55:08Z</time>
      </trkpt>
      <trkpt lat="44.26398" lon="6.19428">
        <ele>2102</ele>
        <time>2010-01-01T00:55:08Z</time>
      </trkpt>
      <trkpt lat="44.26395" lon="6.19429">
        <ele>2103</ele>
        <time>2010-01-01T00:55:09Z</time>
      </trkpt>
      <trkpt lat="44.26392" lon="6.19428">
        <ele>2103</ele>
        <time>2010-01-01T00:55:10Z</time>
      </trkpt>
      <trkpt lat="44.26391" lon="6.19428">
        <ele>2104</ele>
        <time>2010-01-01T00:55:10Z</time>
      </trkpt>
      <trkpt lat="44.26389" lon="6.19429">
        <ele>2104</ele>
        <time>2010-01-01T00:55:11Z</time>
      </trkpt>
      <trkpt lat="44.26389" lon="6.19429">
        <ele>2104</ele>
        <time>2010-01-01T00:55:11Z</time>
      </trkpt>
      <trkpt lat="44.26386" lon="6.19428">
        <ele>2105</ele>
        <time>2010-01-01T00:55:12Z</time>
      </trkpt>
      <trkpt lat="44.26384" lon="6.19428">
        <ele>2105</ele>
        <time>2010-01-01T00:55:12Z</time>
      </trkpt>
      <trkpt lat="44.26382" lon="6.19427">
        <ele>2106</ele>
        <time>2010-01-01T00:55:13Z</time>
      </trkpt>
      <trkpt lat="44.2638" lon="6.19426">
        <ele>2106</ele>
        <time>2010-01-01T00:55:14Z</time>
      </trkpt>
      <trkpt lat="44.26379" lon="6.19426">
        <ele>2106</ele>
        <time>2010-01-01T00:55:14Z</time>
      </trkpt>
      <trkpt lat="44.26374" lon="6.19425">
        <ele>2108</ele>
        <time>2010-01-01T00:55:15Z</time>
      </trkpt>
      <trkpt lat="44.26374" lon="6.19425">
        <ele>2108</ele>
        <time>2010-01-01T00:55:15Z</time>
      </trkpt>
      <trkpt lat="44.26371" lon="6.19424">
        <ele>2108</ele>
        <time>2010-01-01T00:55:16Z</time>
      </trkpt>
      <trkpt lat="44.26366" lon="6.19424">
        <ele>2109</ele>
        <time>2010-01-01T00:55:17Z</time>
      </trkpt>
      <trkpt lat="44.26366" lon="6.19425">
        <ele>2109</ele>
        <time>2010-01-01T00:55:17Z</time>
      </trkpt>
      <trkpt lat="44.26366" lon="6.19426">
        <ele>2109</ele>
        <time>2010-01-01T00:55:18Z</time>
      </trkpt>
      <trkpt lat="44.26364" lon="6.19428">
        <ele>2110</ele>
        <time>2010-01-01T00:55:18Z</time>
      </trkpt>
      <trkpt lat="44.26362" lon="6.19429">
        <ele>2110</ele>
        <time>2010-01-01T00:55:19Z</time>
      </trkpt>
      <trkpt lat="44.2636" lon="6.19428">
        <ele>2110</ele>
        <time>2010-01-01T00:55:20Z</time>
      </trkpt>
      <trkpt lat="44.26357" lon="6.19427">
        <ele>2110</ele>
        <time>2010-01-01T00:55:20Z</time>
      </trkpt>
      <trkpt lat="44.26355" lon="6.19428">
        <ele>2110</ele>
        <time>2010-01-01T00:55:21Z</time>
      </trkpt>
      <trkpt lat="44.26355" lon="6.1943">
        <ele>2110</ele>
        <time>2010-01-01T00:55:21Z</time>
      </trkpt>
      <trkpt lat="44.26352" lon="6.1943">
        <ele>2110</ele>
        <time>2010-01-01T00:55:22Z</time>
      </trkpt>
      <trkpt lat="44.26349" lon="6.19429">
        <ele>2110</ele>
        <time>2010-01-01T00:55:23Z</time>
      </trkpt>
      <trkpt lat="44.26346" lon="6.19428">
        <ele>2110</ele>
        <time>2010-01-01T00:55:24Z</time>
      </trkpt>
      <trkpt lat="44.26342" lon="6.19424">
        <ele>2110</ele>
        <time>2010-01-01T00:55:25Z</time>
      </trkpt>
      <trkpt lat="44.26341" lon="6.19423">
        <ele>2109</ele>
        <time>2010-01-01T00:55:25Z</time>
      </trkpt>
      <trkpt lat="44.26337" lon="6.19419">
        <ele>2109</ele>
        <time>2010-01-01T00:55:27Z</time>
      </trkpt>
      <trkpt lat="44.26337" lon="6.1942">
        <ele>2109</ele>
        <time>2010-01-01T00:55:27Z</time>
      </trkpt>
      <trkpt lat="44.26337" lon="6.1942">
        <ele>2109</ele>
        <time>2010-01-01T00:55:27Z</time>
      </trkpt>
      <trkpt lat="44.26337" lon="6.1942">
        <ele>2109</ele>
        <time>2010-01-01T00:55:27Z</time>
      </trkpt>
      <trkpt lat="44.26337" lon="6.19421">
        <ele>2109</ele>
        <time>2010-01-01T00:55:27Z</time>
      </trkpt>
      <trkpt lat="44.26337" lon="6.19423">
        <ele>2109</ele>
        <time>2010-01-01T00:55:28Z</time>
      </trkpt>
      <trkpt lat="44.26333" lon="6.19433">
        <ele>2110</ele>
        <time>2010-01-01T00:55:30Z</time>
      </trkpt>
      <trkpt lat="44.26331" lon="6.19435">
        <ele>2109</ele>
        <time>2010-01-01T00:55:30Z</time>
      </trkpt>
      <trkpt lat="44.26323" lon="6.19436">
        <ele>2107</ele>
        <time>2010-01-01T00:55:33Z</time>
      </trkpt>
      <trkpt lat="44.26318" lon="6.19435">
        <ele>2106</ele>
        <time>2010-01-01T00:55:34Z</time>
      </trkpt>
      <trkpt lat="44.26311" lon="6.19434">
        <ele>2104</ele>
        <time>2010-01-01T00:55:36Z</time>
      </trkpt>
      <trkpt lat="44.26299" lon="6.19433">
        <ele>2103</ele>
        <time>2010-01-01T00:55:39Z</time>
      </trkpt>
      <trkpt lat="44.26287" lon="6.1943">
        <ele>2102</ele>
        <time>2010-01-01T00:55:42Z</time>
      </trkpt>
      <trkpt lat="44.26277" lon="6.19426">
        <ele>2102</ele>
        <time>2010-01-01T00:55:45Z</time>
      </trkpt>
      <trkpt lat="44.26276" lon="6.19426">
        <ele>2102</ele>
        <time>2010-01-01T00:55:45Z</time>
      </trkpt>
      <trkpt lat="44.26278" lon="6.19426">
        <ele>2102</ele>
        <time>2010-01-01T00:55:46Z</time>
      </trkpt>
      <trkpt lat="44.26279" lon="6.19426">
        <ele>2102</ele>
        <time>2010-01-01T00:55:46Z</time>
      </trkpt>
      <trkpt lat="44.26284" lon="6.19425">
        <ele>2102</ele>
        <time>2010-01-01T00:55:47Z</time>
      </trkpt>
      <trkpt lat="44.26284" lon="6.19424">
        <ele>2101</ele>
        <time>2010-01-01T00:55:48Z</time>
      </trkpt>
      <trkpt lat="44.26284" lon="6.19424">
        <ele>2101</ele>
        <time>2010-01-01T00:55:48Z</time>
      </trkpt>
      <trkpt lat="44.26284" lon="6.19424">
        <ele>2101</ele>
        <time>2010-01-01T00:55:48Z</time>
      </trkpt>
      <trkpt lat="44.26284" lon="6.19424">
        <ele>2101</ele>
        <time>2010-01-01T00:55:48Z</time>
      </trkpt>
      <trkpt lat="44.26285" lon="6.19424">
        <ele>2101</ele>
        <time>2010-01-01T00:55:48Z</time>
      </trkpt>
      <trkpt lat="44.26285" lon="6.19424">
        <ele>2101</ele>
        <time>2010-01-01T00:55:48Z</time>
      </trkpt>
      <trkpt lat="44.26285" lon="6.19425">
        <ele>2101</ele>
        <time>2010-01-01T00:55:48Z</time>
      </trkpt>
      <trkpt lat="44.26285" lon="6.19425">
        <ele>2101</ele>
        <time>2010-01-01T00:55:48Z</time>
      </trkpt>
      <trkpt lat="44.26285" lon="6.19425">
        <ele>2101</ele>
        <time>2010-01-01T00:55:48Z</time>
      </trkpt>
      <trkpt lat="44.26286" lon="6.19426">
        <ele>2102</ele>
        <time>2010-01-01T00:55:48Z</time>
      </trkpt>
      <trkpt lat="44.26285" lon="6.19425">
        <ele>2101</ele>
        <time>2010-01-01T00:55:49Z</time>
      </trkpt>
      <trkpt lat="44.26285" lon="6.19425">
        <ele>2101</ele>
        <time>2010-01-01T00:55:49Z</time>
      </trkpt>
      <trkpt lat="44.26286" lon="6.19425">
        <ele>2101</ele>
        <time>2010-01-01T00:55:49Z</time>
      </trkpt>
      <trkpt lat="44.26286" lon="6.19425">
        <ele>2101</ele>
        <time>2010-01-01T00:55:49Z</time>
      </trkpt>
      <trkpt lat="44.26286" lon="6.19425">
        <ele>2101</ele>
        <time>2010-01-01T00:55:49Z</time>
      </trkpt>
      <trkpt lat="44.26286" lon="6.19425">
        <ele>2101</ele>
        <time>2010-01-01T00:55:49Z</time>
      </trkpt>
      <trkpt lat="44.26286" lon="6.19425">
        <ele>2101</ele>
        <time>2010-01-01T00:55:49Z</time>
      </trkpt>
      <trkpt lat="44.26286" lon="6.19425">
        <ele>2101</ele>
        <time>2010-01-01T00:55:49Z</time>
      </trkpt>
      <trkpt lat="44.26286" lon="6.19425">
        <ele>2101</ele>
        <time>2010-01-01T00:55:49Z</time>
      </trkpt>
      <trkpt lat="44.26286" lon="6.19425">
        <ele>2101</ele>
        <time>2010-01-01T00:55:49Z</time>
      </trkpt>
      <trkpt lat="44.26286" lon="6.19425">
        <ele>2101</ele>
        <time>2010-01-01T00:55:49Z</time>
      </trkpt>
      <trkpt lat="44.26286" lon="6.19424">
        <ele>2101</ele>
        <time>2010-01-01T00:55:49Z</time>
      </trkpt>
      <trkpt lat="44.26286" lon="6.19425">
        <ele>2101</ele>
        <time>2010-01-01T00:55:49Z</time>
      </trkpt>
      <trkpt lat="44.26286" lon="6.19425">
        <ele>2101</ele>
        <time>2010-01-01T00:55:49Z</time>
      </trkpt>
      <trkpt lat="44.26286" lon="6.19425">
        <ele>2101</ele>
        <time>2010-01-01T00:55:49Z</time>
      </trkpt>
      <trkpt lat="44.26286" lon="6.19425">
        <ele>2101</ele>
        <time>2010-01-01T00:55:49Z</time>
      </trkpt>
      <trkpt lat="44.26286" lon="6.19425">
        <ele>2101</ele>
        <time>2010-01-01T00:55:49Z</time>
      </trkpt>
      <trkpt lat="44.26286" lon="6.19424">
        <ele>2101</ele>
        <time>2010-01-01T00:55:49Z</time>
      </trkpt>
      <trkpt lat="44.26287" lon="6.19425">
        <ele>2101</ele>
        <time>2010-01-01T00:55:49Z</time>
      </trkpt>
      <trkpt lat="44.26286" lon="6.19425">
        <ele>2101</ele>
        <time>2010-01-01T00:55:49Z</time>
      </trkpt>
      <trkpt lat="44.26286" lon="6.19425">
        <ele>2101</ele>
        <time>2010-01-01T00:55:49Z</time>
      </trkpt>
      <trkpt lat="44.26286" lon="6.19424">
        <ele>2101</ele>
        <time>2010-01-01T00:55:49Z</time>
      </trkpt>
      <trkpt lat="44.26287" lon="6.19424">
        <ele>2101</ele>
        <time>2010-01-01T00:55:50Z</time>
      </trkpt>
      <trkpt lat="44.26287" lon="6.19424">
        <ele>2101</ele>
        <time>2010-01-01T00:55:50Z</time>
      </trkpt>
      <trkpt lat="44.26287" lon="6.19424">
        <ele>2101</ele>
        <time>2010-01-01T00:55:50Z</time>
      </trkpt>
      <trkpt lat="44.26287" lon="6.19424">
        <ele>2101</ele>
        <time>2010-01-01T00:55:50Z</time>
      </trkpt>
      <trkpt lat="44.26287" lon="6.19424">
        <ele>2101</ele>
        <time>2010-01-01T00:55:50Z</time>
      </trkpt>
      <trkpt lat="44.26287" lon="6.19424">
        <ele>2101</ele>
        <time>2010-01-01T00:55:50Z</time>
      </trkpt>
      <trkpt lat="44.26287" lon="6.19424">
        <ele>2101</ele>
        <time>2010-01-01T00:55:50Z</time>
      </trkpt>
      <trkpt lat="44.26287" lon="6.19425">
        <ele>2101</ele>
        <time>2010-01-01T00:55:50Z</time>
      </trkpt>
      <trkpt lat="44.26287" lon="6.19425">
        <ele>2101</ele>
        <time>2010-01-01T00:55:50Z</time>
      </trkpt>
      <trkpt lat="44.26287" lon="6.19424">
        <ele>2101</ele>
        <time>2010-01-01T00:55:50Z</time>
      </trkpt>
      <trkpt lat="44.26287" lon="6.19425">
        <ele>2101</ele>
        <time>2010-01-01T00:55:50Z</time>
      </trkpt>
      <trkpt lat="44.26287" lon="6.19424">
        <ele>2101</ele>
        <time>2010-01-01T00:55:50Z</time>
      </trkpt>
      <trkpt lat="44.26286" lon="6.19424">
        <ele>2101</ele>
        <time>2010-01-01T00:55:50Z</time>
      </trkpt>
      <trkpt lat="44.26286" lon="6.19425">
        <ele>2101</ele>
        <time>2010-01-01T00:55:50Z</time>
      </trkpt>
      <trkpt lat="44.26286" lon="6.19425">
        <ele>2101</ele>
        <time>2010-01-01T00:55:50Z</time>
      </trkpt>
      <trkpt lat="44.26286" lon="6.19425">
        <ele>2101</ele>
        <time>2010-01-01T00:55:50Z</time>
      </trkpt>
      <trkpt lat="44.26286" lon="6.19425">
        <ele>2101</ele>
        <time>2010-01-01T00:55:50Z</time>
      </trkpt>
      <trkpt lat="44.26286" lon="6.19425">
        <ele>2101</ele>
        <time>2010-01-01T00:55:50Z</time>
      </trkpt>
      <trkpt lat="44.26286" lon="6.19425">
        <ele>2101</ele>
        <time>2010-01-01T00:55:50Z</time>
      </trkpt>
      <trkpt lat="44.26286" lon="6.19425">
        <ele>2101</ele>
        <time>2010-01-01T00:55:50Z</time>
      </trkpt>
      <trkpt lat="44.26286" lon="6.19426">
        <ele>2102</ele>
        <time>2010-01-01T00:55:50Z</time>
      </trkpt>
      <trkpt lat="44.26286" lon="6.19425">
        <ele>2102</ele>
        <time>2010-01-01T00:55:50Z</time>
      </trkpt>
      <trkpt lat="44.26286" lon="6.19426">
        <ele>2102</ele>
        <time>2010-01-01T00:55:51Z</time>
      </trkpt>
      <trkpt lat="44.26285" lon="6.19427">
        <ele>2102</ele>
        <time>2010-01-01T00:55:51Z</time>
      </trkpt>
      <trkpt lat="44.26284" lon="6.19427">
        <ele>2102</ele>
        <time>2010-01-01T00:55:51Z</time>
      </trkpt>
      <trkpt lat="44.26284" lon="6.19428">
        <ele>2102</ele>
        <time>2010-01-01T00:55:51Z</time>
      </trkpt>
      <trkpt lat="44.26283" lon="6.19429">
        <ele>2102</ele>
        <time>2010-01-01T00:55:51Z</time>
      </trkpt>
      <trkpt lat="44.26276" lon="6.19432">
        <ele>2102</ele>
        <time>2010-01-01T00:55:53Z</time>
      </trkpt>
      <trkpt lat="44.26272" lon="6.19433">
        <ele>2101</ele>
        <time>2010-01-01T00:55:55Z</time>
      </trkpt>
      <trkpt lat="44.26269" lon="6.19434">
        <ele>2101</ele>
        <time>2010-01-01T00:55:55Z</time>
      </trkpt>
      <trkpt lat="44.26262" lon="6.19435">
        <ele>2100</ele>
        <time>2010-01-01T00:55:57Z</time>
      </trkpt>
      <trkpt lat="44.26257" lon="6.19437">
        <ele>2100</ele>
        <time>2010-01-01T00:55:59Z</time>
      </trkpt>
      <trkpt lat="44.26248" lon="6.19439">
        <ele>2099</ele>
        <time>2010-01-01T00:56:01Z</time>
      </trkpt>
      <trkpt lat="44.2624" lon="6.19441">
        <ele>2096</ele>
        <time>2010-01-01T00:56:03Z</time>
      </trkpt>
      <trkpt lat="44.26236" lon="6.19442">
        <ele>2095</ele>
        <time>2010-01-01T00:56:04Z</time>
      </trkpt>
      <trkpt lat="44.26231" lon="6.19443">
        <ele>2093</ele>
        <time>2010-01-01T00:56:06Z</time>
      </trkpt>
      <trkpt lat="44.26227" lon="6.19444">
        <ele>2092</ele>
        <time>2010-01-01T00:56:07Z</time>
      </trkpt>
      <trkpt lat="44.26224" lon="6.19445">
        <ele>2091</ele>
        <time>2010-01-01T00:56:07Z</time>
      </trkpt>
      <trkpt lat="44.2622" lon="6.19446">
        <ele>2090</ele>
        <time>2010-01-01T00:56:09Z</time>
      </trkpt>
      <trkpt lat="44.26216" lon="6.19446">
        <ele>2089</ele>
        <time>2010-01-01T00:56:10Z</time>
      </trkpt>
      <trkpt lat="44.26212" lon="6.19445">
        <ele>2087</ele>
        <time>2010-01-01T00:56:11Z</time>
      </trkpt>
      <trkpt lat="44.26212" lon="6.19445">
        <ele>2087</ele>
        <time>2010-01-01T00:56:11Z</time>
      </trkpt>
      <trkpt lat="44.26213" lon="6.19446">
        <ele>2088</ele>
        <time>2010-01-01T00:56:11Z</time>
      </trkpt>
      <trkpt lat="44.26212" lon="6.19447">
        <ele>2088</ele>
        <time>2010-01-01T00:56:11Z</time>
      </trkpt>
      <trkpt lat="44.26211" lon="6.19452">
        <ele>2088</ele>
        <time>2010-01-01T00:56:12Z</time>
      </trkpt>
      <trkpt lat="44.2621" lon="6.19455">
        <ele>2088</ele>
        <time>2010-01-01T00:56:13Z</time>
      </trkpt>
      <trkpt lat="44.26208" lon="6.19465">
        <ele>2089</ele>
        <time>2010-01-01T00:56:15Z</time>
      </trkpt>
      <trkpt lat="44.26206" lon="6.19467">
        <ele>2088</ele>
        <time>2010-01-01T00:56:16Z</time>
      </trkpt>
      <trkpt lat="44.26205" lon="6.19469">
        <ele>2088</ele>
        <time>2010-01-01T00:56:16Z</time>
      </trkpt>
      <trkpt lat="44.26204" lon="6.1947">
        <ele>2088</ele>
        <time>2010-01-01T00:56:16Z</time>
      </trkpt>
      <trkpt lat="44.26203" lon="6.1947">
        <ele>2088</ele>
        <time>2010-01-01T00:56:16Z</time>
      </trkpt>
      <trkpt lat="44.26203" lon="6.1947">
        <ele>2088</ele>
        <time>2010-01-01T00:56:16Z</time>
      </trkpt>
      <trkpt lat="44.26203" lon="6.1947">
        <ele>2087</ele>
        <time>2010-01-01T00:56:17Z</time>
      </trkpt>
      <trkpt lat="44.26202" lon="6.19469">
        <ele>2087</ele>
        <time>2010-01-01T00:56:17Z</time>
      </trkpt>
      <trkpt lat="44.262" lon="6.19464">
        <ele>2086</ele>
        <time>2010-01-01T00:56:18Z</time>
      </trkpt>
      <trkpt lat="44.26199" lon="6.19463">
        <ele>2085</ele>
        <time>2010-01-01T00:56:18Z</time>
      </trkpt>
      <trkpt lat="44.26197" lon="6.19457">
        <ele>2084</ele>
        <time>2010-01-01T00:56:20Z</time>
      </trkpt>
      <trkpt lat="44.26195" lon="6.19453">
        <ele>2083</ele>
        <time>2010-01-01T00:56:20Z</time>
      </trkpt>
      <trkpt lat="44.26194" lon="6.19451">
        <ele>2082</ele>
        <time>2010-01-01T00:56:21Z</time>
      </trkpt>
      <trkpt lat="44.26192" lon="6.19449">
        <ele>2081</ele>
        <time>2010-01-01T00:56:22Z</time>
      </trkpt>
      <trkpt lat="44.2619" lon="6.19445">
        <ele>2080</ele>
        <time>2010-01-01T00:56:22Z</time>
      </trkpt>
      <trkpt lat="44.26188" lon="6.19441">
        <ele>2079</ele>
        <time>2010-01-01T00:56:23Z</time>
      </trkpt>
      <trkpt lat="44.26186" lon="6.19439">
        <ele>2078</ele>
        <time>2010-01-01T00:56:24Z</time>
      </trkpt>
      <trkpt lat="44.26186" lon="6.19436">
        <ele>2078</ele>
        <time>2010-01-01T00:56:25Z</time>
      </trkpt>
      <trkpt lat="44.26185" lon="6.19434">
        <ele>2077</ele>
        <time>2010-01-01T00:56:25Z</time>
      </trkpt>
      <trkpt lat="44.26185" lon="6.19434">
        <ele>2077</ele>
        <time>2010-01-01T00:56:25Z</time>
      </trkpt>
      <trkpt lat="44.26183" lon="6.19431">
        <ele>2077</ele>
        <time>2010-01-01T00:56:26Z</time>
      </trkpt>
      <trkpt lat="44.26183" lon="6.1943">
        <ele>2076</ele>
        <time>2010-01-01T00:56:26Z</time>
      </trkpt>
      <trkpt lat="44.26182" lon="6.19429">
        <ele>2076</ele>
        <time>2010-01-01T00:56:26Z</time>
      </trkpt>
      <trkpt lat="44.26181" lon="6.19429">
        <ele>2076</ele>
        <time>2010-01-01T00:56:26Z</time>
      </trkpt>
      <trkpt lat="44.26181" lon="6.19427">
        <ele>2076</ele>
        <time>2010-01-01T00:56:27Z</time>
      </trkpt>
      <trkpt lat="44.26177" lon="6.19421">
        <ele>2075</ele>
        <time>2010-01-01T00:56:28Z</time>
      </trkpt>
      <trkpt lat="44.26176" lon="6.19417">
        <ele>2074</ele>
        <time>2010-01-01T00:56:29Z</time>
      </trkpt>
      <trkpt lat="44.26175" lon="6.19412">
        <ele>2074</ele>
        <time>2010-01-01T00:56:30Z</time>
      </trkpt>
      <trkpt lat="44.26173" lon="6.19411">
        <ele>2073</ele>
        <time>2010-01-01T00:56:31Z</time>
      </trkpt>
      <trkpt lat="44.26174" lon="6.19411">
        <ele>2073</ele>
        <time>2010-01-01T00:56:31Z</time>
      </trkpt>
      <trkpt lat="44.26173" lon="6.1941">
        <ele>2073</ele>
        <time>2010-01-01T00:56:31Z</time>
      </trkpt>
      <trkpt lat="44.26173" lon="6.19408">
        <ele>2073</ele>
        <time>2010-01-01T00:56:31Z</time>
      </trkpt>
      <trkpt lat="44.26173" lon="6.19408">
        <ele>2073</ele>
        <time>2010-01-01T00:56:31Z</time>
      </trkpt>
      <trkpt lat="44.26173" lon="6.19407">
        <ele>2073</ele>
        <time>2010-01-01T00:56:31Z</time>
      </trkpt>
      <trkpt lat="44.26171" lon="6.19405">
        <ele>2072</ele>
        <time>2010-01-01T00:56:32Z</time>
      </trkpt>
      <trkpt lat="44.2617" lon="6.19405">
        <ele>2072</ele>
        <time>2010-01-01T00:56:32Z</time>
      </trkpt>
      <trkpt lat="44.2617" lon="6.19403">
        <ele>2072</ele>
        <time>2010-01-01T00:56:33Z</time>
      </trkpt>
      <trkpt lat="44.2617" lon="6.19402">
        <ele>2072</ele>
        <time>2010-01-01T00:56:33Z</time>
      </trkpt>
      <trkpt lat="44.2617" lon="6.19401">
        <ele>2072</ele>
        <time>2010-01-01T00:56:33Z</time>
      </trkpt>
      <trkpt lat="44.2617" lon="6.194">
        <ele>2072</ele>
        <time>2010-01-01T00:56:33Z</time>
      </trkpt>
      <trkpt lat="44.2617" lon="6.19395">
        <ele>2071</ele>
        <time>2010-01-01T00:56:34Z</time>
      </trkpt>
      <trkpt lat="44.26169" lon="6.19391">
        <ele>2071</ele>
        <time>2010-01-01T00:56:35Z</time>
      </trkpt>
      <trkpt lat="44.26168" lon="6.19387">
        <ele>2070</ele>
        <time>2010-01-01T00:56:36Z</time>
      </trkpt>
      <trkpt lat="44.26166" lon="6.19376">
        <ele>2067</ele>
        <time>2010-01-01T00:56:38Z</time>
      </trkpt>
      <trkpt lat="44.26165" lon="6.19372">
        <ele>2065</ele>
        <time>2010-01-01T00:56:39Z</time>
      </trkpt>
      <trkpt lat="44.26163" lon="6.19366">
        <ele>2064</ele>
        <time>2010-01-01T00:56:40Z</time>
      </trkpt>
      <trkpt lat="44.26158" lon="6.19357">
        <ele>2060</ele>
        <time>2010-01-01T00:56:42Z</time>
      </trkpt>
      <trkpt lat="44.26155" lon="6.19351">
        <ele>2058</ele>
        <time>2010-01-01T00:56:44Z</time>
      </trkpt>
      <trkpt lat="44.26151" lon="6.19344">
        <ele>2056</ele>
        <time>2010-01-01T00:56:45Z</time>
      </trkpt>
      <trkpt lat="44.26147" lon="6.19338">
        <ele>2054</ele>
        <time>2010-01-01T00:56:47Z</time>
      </trkpt>
      <trkpt lat="44.26143" lon="6.19332">
        <ele>2052</ele>
        <time>2010-01-01T00:56:48Z</time>
      </trkpt>
      <trkpt lat="44.26139" lon="6.19328">
        <ele>2051</ele>
        <time>2010-01-01T00:56:50Z</time>
      </trkpt>
      <trkpt lat="44.26134" lon="6.19327">
        <ele>2050</ele>
        <time>2010-01-01T00:56:51Z</time>
      </trkpt>
      <trkpt lat="44.26123" lon="6.19325">
        <ele>2049</ele>
        <time>2010-01-01T00:56:54Z</time>
      </trkpt>
      <trkpt lat="44.26116" lon="6.19321">
        <ele>2048</ele>
        <time>2010-01-01T00:56:56Z</time>
      </trkpt>
      <trkpt lat="44.2611" lon="6.19315">
        <ele>2046</ele>
        <time>2010-01-01T00:56:58Z</time>
      </trkpt>
      <trkpt lat="44.26103" lon="6.19308">
        <ele>2045</ele>
        <time>2010-01-01T00:57:00Z</time>
      </trkpt>
      <trkpt lat="44.26096" lon="6.193">
        <ele>2044</ele>
        <time>2010-01-01T00:57:03Z</time>
      </trkpt>
      <trkpt lat="44.26089" lon="6.19294">
        <ele>2043</ele>
        <time>2010-01-01T00:57:05Z</time>
      </trkpt>
      <trkpt lat="44.26084" lon="6.19288">
        <ele>2043</ele>
        <time>2010-01-01T00:57:07Z</time>
      </trkpt>
      <trkpt lat="44.2608" lon="6.19282">
        <ele>2042</ele>
        <time>2010-01-01T00:57:08Z</time>
      </trkpt>
      <trkpt lat="44.26073" lon="6.19271">
        <ele>2042</ele>
        <time>2010-01-01T00:57:11Z</time>
      </trkpt>
      <trkpt lat="44.26069" lon="6.19261">
        <ele>2042</ele>
        <time>2010-01-01T00:57:13Z</time>
      </trkpt>
      <trkpt lat="44.26067" lon="6.19255">
        <ele>2042</ele>
        <time>2010-01-01T00:57:14Z</time>
      </trkpt>
      <trkpt lat="44.26066" lon="6.19252">
        <ele>2042</ele>
        <time>2010-01-01T00:57:15Z</time>
      </trkpt>
      <trkpt lat="44.26065" lon="6.1925">
        <ele>2041</ele>
        <time>2010-01-01T00:57:16Z</time>
      </trkpt>
      <trkpt lat="44.26064" lon="6.19245">
        <ele>2040</ele>
        <time>2010-01-01T00:57:17Z</time>
      </trkpt>
      <trkpt lat="44.26062" lon="6.19238">
        <ele>2038</ele>
        <time>2010-01-01T00:57:18Z</time>
      </trkpt>
      <trkpt lat="44.2606" lon="6.19236">
        <ele>2038</ele>
        <time>2010-01-01T00:57:19Z</time>
      </trkpt>
      <trkpt lat="44.26055" lon="6.19232">
        <ele>2037</ele>
        <time>2010-01-01T00:57:20Z</time>
      </trkpt>
      <trkpt lat="44.26052" lon="6.19224">
        <ele>2035</ele>
        <time>2010-01-01T00:57:22Z</time>
      </trkpt>
      <trkpt lat="44.26052" lon="6.19217">
        <ele>2033</ele>
        <time>2010-01-01T00:57:23Z</time>
      </trkpt>
      <trkpt lat="44.26044" lon="6.19208">
        <ele>2032</ele>
        <time>2010-01-01T00:57:26Z</time>
      </trkpt>
      <trkpt lat="44.26041" lon="6.19205">
        <ele>2032</ele>
        <time>2010-01-01T00:57:27Z</time>
      </trkpt>
      <trkpt lat="44.26036" lon="6.19197">
        <ele>2032</ele>
        <time>2010-01-01T00:57:29Z</time>
      </trkpt>
      <trkpt lat="44.26033" lon="6.19193">
        <ele>2032</ele>
        <time>2010-01-01T00:57:30Z</time>
      </trkpt>
      <trkpt lat="44.2603" lon="6.19189">
        <ele>2033</ele>
        <time>2010-01-01T00:57:31Z</time>
      </trkpt>
      <trkpt lat="44.26025" lon="6.19177">
        <ele>2031</ele>
        <time>2010-01-01T00:57:34Z</time>
      </trkpt>
      <trkpt lat="44.26025" lon="6.19177">
        <ele>2032</ele>
        <time>2010-01-01T00:57:34Z</time>
      </trkpt>
      <trkpt lat="44.26025" lon="6.19176">
        <ele>2031</ele>
        <time>2010-01-01T00:57:34Z</time>
      </trkpt>
      <trkpt lat="44.26024" lon="6.19177">
        <ele>2031</ele>
        <time>2010-01-01T00:57:34Z</time>
      </trkpt>
      <trkpt lat="44.26022" lon="6.19176">
        <ele>2031</ele>
        <time>2010-01-01T00:57:35Z</time>
      </trkpt>
      <trkpt lat="44.26017" lon="6.19175">
        <ele>2032</ele>
        <time>2010-01-01T00:57:36Z</time>
      </trkpt>
      <trkpt lat="44.26012" lon="6.19176">
        <ele>2032</ele>
        <time>2010-01-01T00:57:37Z</time>
      </trkpt>
      <trkpt lat="44.26012" lon="6.19176">
        <ele>2032</ele>
        <time>2010-01-01T00:57:38Z</time>
      </trkpt>
      <trkpt lat="44.2601" lon="6.19174">
        <ele>2032</ele>
        <time>2010-01-01T00:57:38Z</time>
      </trkpt>
      <trkpt lat="44.26009" lon="6.19173">
        <ele>2032</ele>
        <time>2010-01-01T00:57:39Z</time>
      </trkpt>
      <trkpt lat="44.26004" lon="6.19168">
        <ele>2032</ele>
        <time>2010-01-01T00:57:40Z</time>
      </trkpt>
      <trkpt lat="44.25999" lon="6.19165">
        <ele>2032</ele>
        <time>2010-01-01T00:57:42Z</time>
      </trkpt>
      <trkpt lat="44.25995" lon="6.19162">
        <ele>2031</ele>
        <time>2010-01-01T00:57:43Z</time>
      </trkpt>
      <trkpt lat="44.2599" lon="6.1916">
        <ele>2031</ele>
        <time>2010-01-01T00:57:44Z</time>
      </trkpt>
      <trkpt lat="44.25985" lon="6.19157">
        <ele>2030</ele>
        <time>2010-01-01T00:57:46Z</time>
      </trkpt>
      <trkpt lat="44.25979" lon="6.19153">
        <ele>2029</ele>
        <time>2010-01-01T00:57:47Z</time>
      </trkpt>
      <trkpt lat="44.25975" lon="6.19152">
        <ele>2029</ele>
        <time>2010-01-01T00:57:49Z</time>
      </trkpt>
      <trkpt lat="44.25969" lon="6.19151">
        <ele>2028</ele>
        <time>2010-01-01T00:57:50Z</time>
      </trkpt>
      <trkpt lat="44.25962" lon="6.19146">
        <ele>2026</ele>
        <time>2010-01-01T00:57:52Z</time>
      </trkpt>
      <trkpt lat="44.25958" lon="6.19136">
        <ele>2025</ele>
        <time>2010-01-01T00:57:54Z</time>
      </trkpt>
      <trkpt lat="44.25953" lon="6.1912">
        <ele>2022</ele>
        <time>2010-01-01T00:57:58Z</time>
      </trkpt>
      <trkpt lat="44.2595" lon="6.19113">
        <ele>2021</ele>
        <time>2010-01-01T00:57:59Z</time>
      </trkpt>
      <trkpt lat="44.2594" lon="6.19095">
        <ele>2019</ele>
        <time>2010-01-01T00:58:04Z</time>
      </trkpt>
      <trkpt lat="44.25931" lon="6.19081">
        <ele>2017</ele>
        <time>2010-01-01T00:58:07Z</time>
      </trkpt>
      <trkpt lat="44.25929" lon="6.19075">
        <ele>2017</ele>
        <time>2010-01-01T00:58:09Z</time>
      </trkpt>
      <trkpt lat="44.25927" lon="6.1907">
        <ele>2016</ele>
        <time>2010-01-01T00:58:10Z</time>
      </trkpt>
      <trkpt lat="44.25925" lon="6.19064">
        <ele>2016</ele>
        <time>2010-01-01T00:58:11Z</time>
      </trkpt>
      <trkpt lat="44.25923" lon="6.19058">
        <ele>2015</ele>
        <time>2010-01-01T00:58:12Z</time>
      </trkpt>
      <trkpt lat="44.2592" lon="6.19052">
        <ele>2014</ele>
        <time>2010-01-01T00:58:14Z</time>
      </trkpt>
      <trkpt lat="44.25915" lon="6.1904">
        <ele>2013</ele>
        <time>2010-01-01T00:58:16Z</time>
      </trkpt>
      <trkpt lat="44.25911" lon="6.19034">
        <ele>2012</ele>
        <time>2010-01-01T00:58:18Z</time>
      </trkpt>
      <trkpt lat="44.25906" lon="6.19027">
        <ele>2010</ele>
        <time>2010-01-01T00:58:20Z</time>
      </trkpt>
      <trkpt lat="44.25901" lon="6.1902">
        <ele>2008</ele>
        <time>2010-01-01T00:58:22Z</time>
      </trkpt>
      <trkpt lat="44.25896" lon="6.19013">
        <ele>2006</ele>
        <time>2010-01-01T00:58:23Z</time>
      </trkpt>
      <trkpt lat="44.2589" lon="6.19005">
        <ele>2004</ele>
        <time>2010-01-01T00:58:26Z</time>
      </trkpt>
      <trkpt lat="44.25883" lon="6.18996">
        <ele>2002</ele>
        <time>2010-01-01T00:58:28Z</time>
      </trkpt>
      <trkpt lat="44.25878" lon="6.18987">
        <ele>2000</ele>
        <time>2010-01-01T00:58:30Z</time>
      </trkpt>
      <trkpt lat="44.25872" lon="6.18978">
        <ele>1998</ele>
        <time>2010-01-01T00:58:33Z</time>
      </trkpt>
      <trkpt lat="44.2586" lon="6.18965">
        <ele>1995</ele>
        <time>2010-01-01T00:58:37Z</time>
      </trkpt>
      <trkpt lat="44.25854" lon="6.18959">
        <ele>1995</ele>
        <time>2010-01-01T00:58:39Z</time>
      </trkpt>
      <trkpt lat="44.25846" lon="6.18951">
        <ele>1994</ele>
        <time>2010-01-01T00:58:41Z</time>
      </trkpt>
      <trkpt lat="44.25843" lon="6.18949">
        <ele>1994</ele>
        <time>2010-01-01T00:58:42Z</time>
      </trkpt>
      <trkpt lat="44.25835" lon="6.18944">
        <ele>1994</ele>
        <time>2010-01-01T00:58:44Z</time>
      </trkpt>
      <trkpt lat="44.25833" lon="6.18942">
        <ele>1994</ele>
        <time>2010-01-01T00:58:45Z</time>
      </trkpt>
      <trkpt lat="44.2583" lon="6.1894">
        <ele>1995</ele>
        <time>2010-01-01T00:58:46Z</time>
      </trkpt>
      <trkpt lat="44.25827" lon="6.18939">
        <ele>1995</ele>
        <time>2010-01-01T00:58:47Z</time>
      </trkpt>
      <trkpt lat="44.25822" lon="6.18935">
        <ele>1995</ele>
        <time>2010-01-01T00:58:48Z</time>
      </trkpt>
      <trkpt lat="44.25822" lon="6.18935">
        <ele>1995</ele>
        <time>2010-01-01T00:58:48Z</time>
      </trkpt>
      <trkpt lat="44.25823" lon="6.18935">
        <ele>1995</ele>
        <time>2010-01-01T00:58:48Z</time>
      </trkpt>
      <trkpt lat="44.25815" lon="6.18932">
        <ele>1996</ele>
        <time>2010-01-01T00:58:51Z</time>
      </trkpt>
      <trkpt lat="44.25805" lon="6.18924">
        <ele>1997</ele>
        <time>2010-01-01T00:58:54Z</time>
      </trkpt>
      <trkpt lat="44.25795" lon="6.18917">
        <ele>1997</ele>
        <time>2010-01-01T00:58:57Z</time>
      </trkpt>
      <trkpt lat="44.25788" lon="6.18912">
        <ele>1996</ele>
        <time>2010-01-01T00:58:59Z</time>
      </trkpt>
      <trkpt lat="44.25785" lon="6.1891">
        <ele>1995</ele>
        <time>2010-01-01T00:59:00Z</time>
      </trkpt>
      <trkpt lat="44.25769" lon="6.189">
        <ele>1994</ele>
        <time>2010-01-01T00:59:04Z</time>
      </trkpt>
      <trkpt lat="44.25761" lon="6.18894">
        <ele>1994</ele>
        <time>2010-01-01T00:59:07Z</time>
      </trkpt>
      <trkpt lat="44.25753" lon="6.18885">
        <ele>1994</ele>
        <time>2010-01-01T00:59:10Z</time>
      </trkpt>
      <trkpt lat="44.25749" lon="6.18882">
        <ele>1993</ele>
        <time>2010-01-01T00:59:11Z</time>
      </trkpt>
      <trkpt lat="44.25745" lon="6.18879">
        <ele>1993</ele>
        <time>2010-01-01T00:59:12Z</time>
      </trkpt>
      <trkpt lat="44.25742" lon="6.18876">
        <ele>1992</ele>
        <time>2010-01-01T00:59:13Z</time>
      </trkpt>
      <trkpt lat="44.25732" lon="6.18863">
        <ele>1991</ele>
        <time>2010-01-01T00:59:17Z</time>
      </trkpt>
      <trkpt lat="44.25723" lon="6.18851">
        <ele>1990</ele>
        <time>2010-01-01T00:59:20Z</time>
      </trkpt>
      <trkpt lat="44.25718" lon="6.18846">
        <ele>1988</ele>
        <time>2010-01-01T00:59:22Z</time>
      </trkpt>
      <trkpt lat="44.25713" lon="6.1884">
        <ele>1987</ele>
        <time>2010-01-01T00:59:23Z</time>
      </trkpt>
      <trkpt lat="44.257" lon="6.18826">
        <ele>1986</ele>
        <time>2010-01-01T00:59:28Z</time>
      </trkpt>
      <trkpt lat="44.25697" lon="6.18821">
        <ele>1985</ele>
        <time>2010-01-01T00:59:29Z</time>
      </trkpt>
      <trkpt lat="44.25694" lon="6.18814">
        <ele>1985</ele>
        <time>2010-01-01T00:59:31Z</time>
      </trkpt>
      <trkpt lat="44.25687" lon="6.188">
        <ele>1983</ele>
        <time>2010-01-01T00:59:34Z</time>
      </trkpt>
      <trkpt lat="44.2568" lon="6.18787">
        <ele>1980</ele>
        <time>2010-01-01T00:59:37Z</time>
      </trkpt>
      <trkpt lat="44.25677" lon="6.1878">
        <ele>1979</ele>
        <time>2010-01-01T00:59:38Z</time>
      </trkpt>
      <trkpt lat="44.25673" lon="6.18775">
        <ele>1978</ele>
        <time>2010-01-01T00:59:40Z</time>
      </trkpt>
      <trkpt lat="44.25669" lon="6.18769">
        <ele>1977</ele>
        <time>2010-01-01T00:59:41Z</time>
      </trkpt>
      <trkpt lat="44.25661" lon="6.18756">
        <ele>1974</ele>
        <time>2010-01-01T00:59:45Z</time>
      </trkpt>
      <trkpt lat="44.25658" lon="6.1875">
        <ele>1973</ele>
        <time>2010-01-01T00:59:46Z</time>
      </trkpt>
      <trkpt lat="44.25656" lon="6.18744">
        <ele>1972</ele>
        <time>2010-01-01T00:59:47Z</time>
      </trkpt>
      <trkpt lat="44.25653" lon="6.18737">
        <ele>1971</ele>
        <time>2010-01-01T00:59:49Z</time>
      </trkpt>
      <trkpt lat="44.25648" lon="6.18724">
        <ele>1969</ele>
        <time>2010-01-01T00:59:52Z</time>
      </trkpt>
      <trkpt lat="44.25639" lon="6.18715">
        <ele>1970</ele>
        <time>2010-01-01T00:59:55Z</time>
      </trkpt>
      <trkpt lat="44.25628" lon="6.18707">
        <ele>1968</ele>
        <time>2010-01-01T00:59:58Z</time>
      </trkpt>
      <trkpt lat="44.25623" lon="6.18705">
        <ele>1968</ele>
        <time>2010-01-01T00:59:59Z</time>
      </trkpt>
      <trkpt lat="44.25619" lon="6.18701">
        <ele>1968</ele>
        <time>2010-01-01T01:00:01Z</time>
      </trkpt>
      <trkpt lat="44.25607" lon="6.18691">
        <ele>1967</ele>
        <time>2010-01-01T01:00:04Z</time>
      </trkpt>
      <trkpt lat="44.25603" lon="6.18688">
        <ele>1966</ele>
        <time>2010-01-01T01:00:06Z</time>
      </trkpt>
      <trkpt lat="44.25599" lon="6.18684">
        <ele>1966</ele>
        <time>2010-01-01T01:00:07Z</time>
      </trkpt>
      <trkpt lat="44.25593" lon="6.18676">
        <ele>1965</ele>
        <time>2010-01-01T01:00:09Z</time>
      </trkpt>
      <trkpt lat="44.25579" lon="6.1866">
        <ele>1962</ele>
        <time>2010-01-01T01:00:14Z</time>
      </trkpt>
      <trkpt lat="44.25576" lon="6.18655">
        <ele>1961</ele>
        <time>2010-01-01T01:00:15Z</time>
      </trkpt>
      <trkpt lat="44.25573" lon="6.1865">
        <ele>1960</ele>
        <time>2010-01-01T01:00:17Z</time>
      </trkpt>
      <trkpt lat="44.25568" lon="6.18643">
        <ele>1959</ele>
        <time>2010-01-01T01:00:18Z</time>
      </trkpt>
      <trkpt lat="44.25566" lon="6.1864">
        <ele>1958</ele>
        <time>2010-01-01T01:00:19Z</time>
      </trkpt>
      <trkpt lat="44.25562" lon="6.18637">
        <ele>1958</ele>
        <time>2010-01-01T01:00:20Z</time>
      </trkpt>
      <trkpt lat="44.25561" lon="6.18634">
        <ele>1957</ele>
        <time>2010-01-01T01:00:21Z</time>
      </trkpt>
      <trkpt lat="44.25559" lon="6.1863">
        <ele>1956</ele>
        <time>2010-01-01T01:00:22Z</time>
      </trkpt>
      <trkpt lat="44.25557" lon="6.18624">
        <ele>1955</ele>
        <time>2010-01-01T01:00:23Z</time>
      </trkpt>
      <trkpt lat="44.25553" lon="6.18614">
        <ele>1952</ele>
        <time>2010-01-01T01:00:25Z</time>
      </trkpt>
      <trkpt lat="44.2555" lon="6.18611">
        <ele>1951</ele>
        <time>2010-01-01T01:00:26Z</time>
      </trkpt>
      <trkpt lat="44.25547" lon="6.18607">
        <ele>1949</ele>
        <time>2010-01-01T01:00:27Z</time>
      </trkpt>
      <trkpt lat="44.25542" lon="6.18599">
        <ele>1946</ele>
        <time>2010-01-01T01:00:30Z</time>
      </trkpt>
      <trkpt lat="44.25539" lon="6.18592">
        <ele>1944</ele>
        <time>2010-01-01T01:00:31Z</time>
      </trkpt>
      <trkpt lat="44.25536" lon="6.18586">
        <ele>1942</ele>
        <time>2010-01-01T01:00:33Z</time>
      </trkpt>
      <trkpt lat="44.25534" lon="6.1858">
        <ele>1940</ele>
        <time>2010-01-01T01:00:34Z</time>
      </trkpt>
      <trkpt lat="44.25531" lon="6.18574">
        <ele>1938</ele>
        <time>2010-01-01T01:00:35Z</time>
      </trkpt>
      <trkpt lat="44.25528" lon="6.18569">
        <ele>1937</ele>
        <time>2010-01-01T01:00:36Z</time>
      </trkpt>
      <trkpt lat="44.25525" lon="6.18564">
        <ele>1936</ele>
        <time>2010-01-01T01:00:38Z</time>
      </trkpt>
      <trkpt lat="44.25523" lon="6.18558">
        <ele>1934</ele>
        <time>2010-01-01T01:00:39Z</time>
      </trkpt>
      <trkpt lat="44.2552" lon="6.18552">
        <ele>1932</ele>
        <time>2010-01-01T01:00:40Z</time>
      </trkpt>
      <trkpt lat="44.25517" lon="6.18547">
        <ele>1931</ele>
        <time>2010-01-01T01:00:41Z</time>
      </trkpt>
      <trkpt lat="44.25511" lon="6.18536">
        <ele>1929</ele>
        <time>2010-01-01T01:00:44Z</time>
      </trkpt>
      <trkpt lat="44.25507" lon="6.1853">
        <ele>1929</ele>
        <time>2010-01-01T01:00:46Z</time>
      </trkpt>
      <trkpt lat="44.25504" lon="6.18524">
        <ele>1929</ele>
        <time>2010-01-01T01:00:47Z</time>
      </trkpt>
      <trkpt lat="44.25497" lon="6.18517">
        <ele>1928</ele>
        <time>2010-01-01T01:00:49Z</time>
      </trkpt>
      <trkpt lat="44.25492" lon="6.18514">
        <ele>1927</ele>
        <time>2010-01-01T01:00:51Z</time>
      </trkpt>
      <trkpt lat="44.25488" lon="6.18509">
        <ele>1926</ele>
        <time>2010-01-01T01:00:52Z</time>
      </trkpt>
      <trkpt lat="44.25483" lon="6.18504">
        <ele>1925</ele>
        <time>2010-01-01T01:00:54Z</time>
      </trkpt>
      <trkpt lat="44.25477" lon="6.18499">
        <ele>1923</ele>
        <time>2010-01-01T01:00:56Z</time>
      </trkpt>
      <trkpt lat="44.2547" lon="6.18494">
        <ele>1922</ele>
        <time>2010-01-01T01:00:58Z</time>
      </trkpt>
      <trkpt lat="44.25464" lon="6.1849">
        <ele>1921</ele>
        <time>2010-01-01T01:01:00Z</time>
      </trkpt>
      <trkpt lat="44.2546" lon="6.18487">
        <ele>1920</ele>
        <time>2010-01-01T01:01:01Z</time>
      </trkpt>
      <trkpt lat="44.25456" lon="6.18482">
        <ele>1919</ele>
        <time>2010-01-01T01:01:02Z</time>
      </trkpt>
      <trkpt lat="44.25457" lon="6.18483">
        <ele>1919</ele>
        <time>2010-01-01T01:01:03Z</time>
      </trkpt>
      <trkpt lat="44.25456" lon="6.18482">
        <ele>1919</ele>
        <time>2010-01-01T01:01:03Z</time>
      </trkpt>
      <trkpt lat="44.25456" lon="6.18482">
        <ele>1919</ele>
        <time>2010-01-01T01:01:03Z</time>
      </trkpt>
      <trkpt lat="44.25446" lon="6.18484">
        <ele>1918</ele>
        <time>2010-01-01T01:01:06Z</time>
      </trkpt>
      <trkpt lat="44.25441" lon="6.18483">
        <ele>1918</ele>
        <time>2010-01-01T01:01:07Z</time>
      </trkpt>
      <trkpt lat="44.25434" lon="6.18484">
        <ele>1916</ele>
        <time>2010-01-01T01:01:09Z</time>
      </trkpt>
      <trkpt lat="44.2543" lon="6.18483">
        <ele>1916</ele>
        <time>2010-01-01T01:01:10Z</time>
      </trkpt>
      <trkpt lat="44.25425" lon="6.18484">
        <ele>1915</ele>
        <time>2010-01-01T01:01:11Z</time>
      </trkpt>
      <trkpt lat="44.2542" lon="6.18483">
        <ele>1914</ele>
        <time>2010-01-01T01:01:12Z</time>
      </trkpt>
      <trkpt lat="44.25409" lon="6.18482">
        <ele>1913</ele>
        <time>2010-01-01T01:01:15Z</time>
      </trkpt>
      <trkpt lat="44.25403" lon="6.1848">
        <ele>1913</ele>
        <time>2010-01-01T01:01:17Z</time>
      </trkpt>
      <trkpt lat="44.25386" lon="6.18478">
        <ele>1912</ele>
        <time>2010-01-01T01:01:21Z</time>
      </trkpt>
      <trkpt lat="44.25381" lon="6.18476">
        <ele>1912</ele>
        <time>2010-01-01T01:01:23Z</time>
      </trkpt>
      <trkpt lat="44.25365" lon="6.1847">
        <ele>1912</ele>
        <time>2010-01-01T01:01:27Z</time>
      </trkpt>
      <trkpt lat="44.25362" lon="6.18469">
        <ele>1912</ele>
        <time>2010-01-01T01:01:28Z</time>
      </trkpt>
      <trkpt lat="44.25346" lon="6.18464">
        <ele>1914</ele>
        <time>2010-01-01T01:01:32Z</time>
      </trkpt>
      <trkpt lat="44.25339" lon="6.18465">
        <ele>1915</ele>
        <time>2010-01-01T01:01:34Z</time>
      </trkpt>
      <trkpt lat="44.25323" lon="6.18466">
        <ele>1916</ele>
        <time>2010-01-01T01:01:39Z</time>
      </trkpt>
      <trkpt lat="44.25317" lon="6.18467">
        <ele>1916</ele>
        <time>2010-01-01T01:01:40Z</time>
      </trkpt>
      <trkpt lat="44.2531" lon="6.18468">
        <ele>1916</ele>
        <time>2010-01-01T01:01:42Z</time>
      </trkpt>
      <trkpt lat="44.25308" lon="6.1847">
        <ele>1916</ele>
        <time>2010-01-01T01:01:43Z</time>
      </trkpt>
      <trkpt lat="44.25303" lon="6.18473">
        <ele>1916</ele>
        <time>2010-01-01T01:01:44Z</time>
      </trkpt>
      <trkpt lat="44.25296" lon="6.18474">
        <ele>1916</ele>
        <time>2010-01-01T01:01:46Z</time>
      </trkpt>
      <trkpt lat="44.25294" lon="6.18473">
        <ele>1915</ele>
        <time>2010-01-01T01:01:47Z</time>
      </trkpt>
      <trkpt lat="44.25293" lon="6.18473">
        <ele>1915</ele>
        <time>2010-01-01T01:01:47Z</time>
      </trkpt>
      <trkpt lat="44.25283" lon="6.18467">
        <ele>1914</ele>
        <time>2010-01-01T01:01:50Z</time>
      </trkpt>
      <trkpt lat="44.2528" lon="6.18464">
        <ele>1913</ele>
        <time>2010-01-01T01:01:51Z</time>
      </trkpt>
      <trkpt lat="44.25276" lon="6.1846">
        <ele>1913</ele>
        <time>2010-01-01T01:01:52Z</time>
      </trkpt>
      <trkpt lat="44.25273" lon="6.18456">
        <ele>1912</ele>
        <time>2010-01-01T01:01:53Z</time>
      </trkpt>
      <trkpt lat="44.25272" lon="6.18451">
        <ele>1912</ele>
        <time>2010-01-01T01:01:54Z</time>
      </trkpt>
      <trkpt lat="44.2527" lon="6.18448">
        <ele>1912</ele>
        <time>2010-01-01T01:01:55Z</time>
      </trkpt>
      <trkpt lat="44.25267" lon="6.18444">
        <ele>1911</ele>
        <time>2010-01-01T01:01:56Z</time>
      </trkpt>
      <trkpt lat="44.25265" lon="6.18449">
        <ele>1911</ele>
        <time>2010-01-01T01:01:57Z</time>
      </trkpt>
      <trkpt lat="44.25264" lon="6.18451">
        <ele>1911</ele>
        <time>2010-01-01T01:01:58Z</time>
      </trkpt>
      <trkpt lat="44.25257" lon="6.18463">
        <ele>1911</ele>
        <time>2010-01-01T01:02:00Z</time>
      </trkpt>
      <trkpt lat="44.25254" lon="6.18466">
        <ele>1910</ele>
        <time>2010-01-01T01:02:02Z</time>
      </trkpt>
      <trkpt lat="44.2525" lon="6.18471">
        <ele>1910</ele>
        <time>2010-01-01T01:02:03Z</time>
      </trkpt>
      <trkpt lat="44.25242" lon="6.18477">
        <ele>1909</ele>
        <time>2010-01-01T01:02:05Z</time>
      </trkpt>
      <trkpt lat="44.25238" lon="6.18478">
        <ele>1909</ele>
        <time>2010-01-01T01:02:06Z</time>
      </trkpt>
      <trkpt lat="44.25233" lon="6.18479">
        <ele>1908</ele>
        <time>2010-01-01T01:02:08Z</time>
      </trkpt>
      <trkpt lat="44.25227" lon="6.18481">
        <ele>1907</ele>
        <time>2010-01-01T01:02:09Z</time>
      </trkpt>
      <trkpt lat="44.25222" lon="6.18479">
        <ele>1906</ele>
        <time>2010-01-01T01:02:11Z</time>
      </trkpt>
      <trkpt lat="44.25214" lon="6.18476">
        <ele>1904</ele>
        <time>2010-01-01T01:02:13Z</time>
      </trkpt>
      <trkpt lat="44.25206" lon="6.18473">
        <ele>1901</ele>
        <time>2010-01-01T01:02:15Z</time>
      </trkpt>
      <trkpt lat="44.25198" lon="6.18471">
        <ele>1899</ele>
        <time>2010-01-01T01:02:17Z</time>
      </trkpt>
      <trkpt lat="44.25192" lon="6.18468">
        <ele>1897</ele>
        <time>2010-01-01T01:02:19Z</time>
      </trkpt>
      <trkpt lat="44.25187" lon="6.18466">
        <ele>1896</ele>
        <time>2010-01-01T01:02:20Z</time>
      </trkpt>
      <trkpt lat="44.25183" lon="6.18463">
        <ele>1895</ele>
        <time>2010-01-01T01:02:22Z</time>
      </trkpt>
      <trkpt lat="44.25177" lon="6.18455">
        <ele>1893</ele>
        <time>2010-01-01T01:02:24Z</time>
      </trkpt>
      <trkpt lat="44.25174" lon="6.1845">
        <ele>1891</ele>
        <time>2010-01-01T01:02:25Z</time>
      </trkpt>
      <trkpt lat="44.25162" lon="6.18434">
        <ele>1887</ele>
        <time>2010-01-01T01:02:30Z</time>
      </trkpt>
      <trkpt lat="44.25158" lon="6.18428">
        <ele>1886</ele>
        <time>2010-01-01T01:02:31Z</time>
      </trkpt>
      <trkpt lat="44.25153" lon="6.18424">
        <ele>1884</ele>
        <time>2010-01-01T01:02:33Z</time>
      </trkpt>
      <trkpt lat="44.2515" lon="6.18418">
        <ele>1883</ele>
        <time>2010-01-01T01:02:34Z</time>
      </trkpt>
      <trkpt lat="44.25146" lon="6.18414">
        <ele>1882</ele>
        <time>2010-01-01T01:02:35Z</time>
      </trkpt>
      <trkpt lat="44.25143" lon="6.1841">
        <ele>1881</ele>
        <time>2010-01-01T01:02:37Z</time>
      </trkpt>
      <trkpt lat="44.2514" lon="6.18407">
        <ele>1880</ele>
        <time>2010-01-01T01:02:37Z</time>
      </trkpt>
      <trkpt lat="44.25135" lon="6.18403">
        <ele>1879</ele>
        <time>2010-01-01T01:02:39Z</time>
      </trkpt>
      <trkpt lat="44.25132" lon="6.18397">
        <ele>1879</ele>
        <time>2010-01-01T01:02:40Z</time>
      </trkpt>
      <trkpt lat="44.25122" lon="6.1838">
        <ele>1877</ele>
        <time>2010-01-01T01:02:45Z</time>
      </trkpt>
      <trkpt lat="44.2512" lon="6.18377">
        <ele>1877</ele>
        <time>2010-01-01T01:02:45Z</time>
      </trkpt>
      <trkpt lat="44.25116" lon="6.18377">
        <ele>1877</ele>
        <time>2010-01-01T01:02:46Z</time>
      </trkpt>
      <trkpt lat="44.25113" lon="6.18376">
        <ele>1877</ele>
        <time>2010-01-01T01:02:47Z</time>
      </trkpt>
      <trkpt lat="44.25108" lon="6.18373">
        <ele>1876</ele>
        <time>2010-01-01T01:02:49Z</time>
      </trkpt>
      <trkpt lat="44.25105" lon="6.18371">
        <ele>1875</ele>
        <time>2010-01-01T01:02:50Z</time>
      </trkpt>
      <trkpt lat="44.25101" lon="6.18369">
        <ele>1875</ele>
        <time>2010-01-01T01:02:51Z</time>
      </trkpt>
      <trkpt lat="44.25097" lon="6.18365">
        <ele>1874</ele>
        <time>2010-01-01T01:02:52Z</time>
      </trkpt>
      <trkpt lat="44.25088" lon="6.18357">
        <ele>1872</ele>
        <time>2010-01-01T01:02:55Z</time>
      </trkpt>
      <trkpt lat="44.25085" lon="6.18349">
        <ele>1872</ele>
        <time>2010-01-01T01:02:57Z</time>
      </trkpt>
      <trkpt lat="44.25083" lon="6.18343">
        <ele>1871</ele>
        <time>2010-01-01T01:02:58Z</time>
      </trkpt>
      <trkpt lat="44.25081" lon="6.18339">
        <ele>1871</ele>
        <time>2010-01-01T01:02:59Z</time>
      </trkpt>
      <trkpt lat="44.2508" lon="6.18334">
        <ele>1871</ele>
        <time>2010-01-01T01:03:00Z</time>
      </trkpt>
      <trkpt lat="44.25077" lon="6.18321">
        <ele>1868</ele>
        <time>2010-01-01T01:03:02Z</time>
      </trkpt>
      <trkpt lat="44.25075" lon="6.18316">
        <ele>1867</ele>
        <time>2010-01-01T01:03:03Z</time>
      </trkpt>
      <trkpt lat="44.25069" lon="6.18296">
        <ele>1863</ele>
        <time>2010-01-01T01:03:08Z</time>
      </trkpt>
      <trkpt lat="44.25068" lon="6.1829">
        <ele>1863</ele>
        <time>2010-01-01T01:03:09Z</time>
      </trkpt>
      <trkpt lat="44.25066" lon="6.18286">
        <ele>1862</ele>
        <time>2010-01-01T01:03:10Z</time>
      </trkpt>
      <trkpt lat="44.25064" lon="6.1828">
        <ele>1861</ele>
        <time>2010-01-01T01:03:11Z</time>
      </trkpt>
      <trkpt lat="44.25062" lon="6.18274">
        <ele>1861</ele>
        <time>2010-01-01T01:03:12Z</time>
      </trkpt>
      <trkpt lat="44.25061" lon="6.18268">
        <ele>1861</ele>
        <time>2010-01-01T01:03:13Z</time>
      </trkpt>
      <trkpt lat="44.2506" lon="6.18263">
        <ele>1861</ele>
        <time>2010-01-01T01:03:14Z</time>
      </trkpt>
      <trkpt lat="44.25058" lon="6.18258">
        <ele>1861</ele>
        <time>2010-01-01T01:03:16Z</time>
      </trkpt>
      <trkpt lat="44.25055" lon="6.18248">
        <ele>1862</ele>
        <time>2010-01-01T01:03:18Z</time>
      </trkpt>
      <trkpt lat="44.25051" lon="6.18238">
        <ele>1862</ele>
        <time>2010-01-01T01:03:20Z</time>
      </trkpt>
      <trkpt lat="44.25042" lon="6.1822">
        <ele>1864</ele>
        <time>2010-01-01T01:03:24Z</time>
      </trkpt>
      <trkpt lat="44.25035" lon="6.1821">
        <ele>1865</ele>
        <time>2010-01-01T01:03:27Z</time>
      </trkpt>
      <trkpt lat="44.25031" lon="6.18203">
        <ele>1865</ele>
        <time>2010-01-01T01:03:28Z</time>
      </trkpt>
      <trkpt lat="44.25021" lon="6.18186">
        <ele>1864</ele>
        <time>2010-01-01T01:03:33Z</time>
      </trkpt>
      <trkpt lat="44.25012" lon="6.18169">
        <ele>1862</ele>
        <time>2010-01-01T01:03:37Z</time>
      </trkpt>
      <trkpt lat="44.25008" lon="6.18161">
        <ele>1861</ele>
        <time>2010-01-01T01:03:38Z</time>
      </trkpt>
      <trkpt lat="44.25006" lon="6.18155">
        <ele>1861</ele>
        <time>2010-01-01T01:03:40Z</time>
      </trkpt>
      <trkpt lat="44.25004" lon="6.18154">
        <ele>1860</ele>
        <time>2010-01-01T01:03:40Z</time>
      </trkpt>
      <trkpt lat="44.25004" lon="6.18151">
        <ele>1860</ele>
        <time>2010-01-01T01:03:41Z</time>
      </trkpt>
      <trkpt lat="44.25004" lon="6.18145">
        <ele>1860</ele>
        <time>2010-01-01T01:03:42Z</time>
      </trkpt>
      <trkpt lat="44.25001" lon="6.18137">
        <ele>1859</ele>
        <time>2010-01-01T01:03:44Z</time>
      </trkpt>
      <trkpt lat="44.24998" lon="6.18129">
        <ele>1858</ele>
        <time>2010-01-01T01:03:45Z</time>
      </trkpt>
      <trkpt lat="44.24995" lon="6.18121">
        <ele>1856</ele>
        <time>2010-01-01T01:03:47Z</time>
      </trkpt>
      <trkpt lat="44.24994" lon="6.18112">
        <ele>1855</ele>
        <time>2010-01-01T01:03:49Z</time>
      </trkpt>
      <trkpt lat="44.24994" lon="6.18105">
        <ele>1854</ele>
        <time>2010-01-01T01:03:50Z</time>
      </trkpt>
      <trkpt lat="44.24995" lon="6.18099">
        <ele>1853</ele>
        <time>2010-01-01T01:03:51Z</time>
      </trkpt>
      <trkpt lat="44.24995" lon="6.181">
        <ele>1853</ele>
        <time>2010-01-01T01:03:51Z</time>
      </trkpt>
      <trkpt lat="44.24995" lon="6.18088">
        <ele>1850</ele>
        <time>2010-01-01T01:03:54Z</time>
      </trkpt>
      <trkpt lat="44.24994" lon="6.18083">
        <ele>1848</ele>
        <time>2010-01-01T01:03:55Z</time>
      </trkpt>
      <trkpt lat="44.24993" lon="6.18077">
        <ele>1846</ele>
        <time>2010-01-01T01:03:56Z</time>
      </trkpt>
      <trkpt lat="44.24992" lon="6.18069">
        <ele>1844</ele>
        <time>2010-01-01T01:03:57Z</time>
      </trkpt>
      <trkpt lat="44.2499" lon="6.18061">
        <ele>1842</ele>
        <time>2010-01-01T01:03:59Z</time>
      </trkpt>
      <trkpt lat="44.24988" lon="6.18053">
        <ele>1840</ele>
        <time>2010-01-01T01:04:01Z</time>
      </trkpt>
      <trkpt lat="44.24986" lon="6.18045">
        <ele>1838</ele>
        <time>2010-01-01T01:04:02Z</time>
      </trkpt>
      <trkpt lat="44.24983" lon="6.18037">
        <ele>1836</ele>
        <time>2010-01-01T01:04:04Z</time>
      </trkpt>
      <trkpt lat="44.24981" lon="6.18028">
        <ele>1834</ele>
        <time>2010-01-01T01:04:06Z</time>
      </trkpt>
      <trkpt lat="44.24981" lon="6.1802">
        <ele>1832</ele>
        <time>2010-01-01T01:04:07Z</time>
      </trkpt>
      <trkpt lat="44.24981" lon="6.18011">
        <ele>1830</ele>
        <time>2010-01-01T01:04:09Z</time>
      </trkpt>
      <trkpt lat="44.24979" lon="6.17995">
        <ele>1826</ele>
        <time>2010-01-01T01:04:12Z</time>
      </trkpt>
      <trkpt lat="44.24979" lon="6.17982">
        <ele>1824</ele>
        <time>2010-01-01T01:04:14Z</time>
      </trkpt>
      <trkpt lat="44.24979" lon="6.17977">
        <ele>1823</ele>
        <time>2010-01-01T01:04:15Z</time>
      </trkpt>
      <trkpt lat="44.24977" lon="6.17951">
        <ele>1823</ele>
        <time>2010-01-01T01:04:20Z</time>
      </trkpt>
      <trkpt lat="44.24976" lon="6.17939">
        <ele>1824</ele>
        <time>2010-01-01T01:04:23Z</time>
      </trkpt>
      <trkpt lat="44.24974" lon="6.17914">
        <ele>1826</ele>
        <time>2010-01-01T01:04:28Z</time>
      </trkpt>
      <trkpt lat="44.24969" lon="6.17892">
        <ele>1825</ele>
        <time>2010-01-01T01:04:32Z</time>
      </trkpt>
      <trkpt lat="44.24969" lon="6.17887">
        <ele>1825</ele>
        <time>2010-01-01T01:04:33Z</time>
      </trkpt>
      <trkpt lat="44.24969" lon="6.17864">
        <ele>1825</ele>
        <time>2010-01-01T01:04:37Z</time>
      </trkpt>
      <trkpt lat="44.24966" lon="6.17843">
        <ele>1822</ele>
        <time>2010-01-01T01:04:41Z</time>
      </trkpt>
      <trkpt lat="44.24966" lon="6.17825">
        <ele>1822</ele>
        <time>2010-01-01T01:04:45Z</time>
      </trkpt>
      <trkpt lat="44.24966" lon="6.17804">
        <ele>1825</ele>
        <time>2010-01-01T01:04:49Z</time>
      </trkpt>
      <trkpt lat="44.24967" lon="6.17787">
        <ele>1825</ele>
        <time>2010-01-01T01:04:52Z</time>
      </trkpt>
      <trkpt lat="44.24967" lon="6.17777">
        <ele>1825</ele>
        <time>2010-01-01T01:04:54Z</time>
      </trkpt>
      <trkpt lat="44.24967" lon="6.17767">
        <ele>1823</ele>
        <time>2010-01-01T01:04:56Z</time>
      </trkpt>
      <trkpt lat="44.24967" lon="6.17763">
        <ele>1822</ele>
        <time>2010-01-01T01:04:57Z</time>
      </trkpt>
      <trkpt lat="44.24968" lon="6.17758">
        <ele>1822</ele>
        <time>2010-01-01T01:04:58Z</time>
      </trkpt>
      <trkpt lat="44.2497" lon="6.17745">
        <ele>1818</ele>
        <time>2010-01-01T01:05:00Z</time>
      </trkpt>
      <trkpt lat="44.2497" lon="6.1774">
        <ele>1816</ele>
        <time>2010-01-01T01:05:01Z</time>
      </trkpt>
      <trkpt lat="44.24971" lon="6.17735">
        <ele>1814</ele>
        <time>2010-01-01T01:05:02Z</time>
      </trkpt>
      <trkpt lat="44.24973" lon="6.17728">
        <ele>1812</ele>
        <time>2010-01-01T01:05:04Z</time>
      </trkpt>
      <trkpt lat="44.24973" lon="6.17721">
        <ele>1809</ele>
        <time>2010-01-01T01:05:05Z</time>
      </trkpt>
      <trkpt lat="44.24973" lon="6.17714">
        <ele>1809</ele>
        <time>2010-01-01T01:05:06Z</time>
      </trkpt>
      <trkpt lat="44.24971" lon="6.17692">
        <ele>1807</ele>
        <time>2010-01-01T01:05:11Z</time>
      </trkpt>
      <trkpt lat="44.24971" lon="6.17683">
        <ele>1807</ele>
        <time>2010-01-01T01:05:12Z</time>
      </trkpt>
      <trkpt lat="44.24971" lon="6.17674">
        <ele>1808</ele>
        <time>2010-01-01T01:05:14Z</time>
      </trkpt>
      <trkpt lat="44.24972" lon="6.17664">
        <ele>1809</ele>
        <time>2010-01-01T01:05:16Z</time>
      </trkpt>
      <trkpt lat="44.24971" lon="6.17654">
        <ele>1810</ele>
        <time>2010-01-01T01:05:18Z</time>
      </trkpt>
      <trkpt lat="44.2497" lon="6.17644">
        <ele>1811</ele>
        <time>2010-01-01T01:05:20Z</time>
      </trkpt>
      <trkpt lat="44.24969" lon="6.17634">
        <ele>1811</ele>
        <time>2010-01-01T01:05:22Z</time>
      </trkpt>
      <trkpt lat="44.24968" lon="6.17623">
        <ele>1810</ele>
        <time>2010-01-01T01:05:24Z</time>
      </trkpt>
      <trkpt lat="44.24967" lon="6.17612">
        <ele>1809</ele>
        <time>2010-01-01T01:05:26Z</time>
      </trkpt>
      <trkpt lat="44.24967" lon="6.17601">
        <ele>1807</ele>
        <time>2010-01-01T01:05:28Z</time>
      </trkpt>
      <trkpt lat="44.24966" lon="6.17589">
        <ele>1805</ele>
        <time>2010-01-01T01:05:30Z</time>
      </trkpt>
      <trkpt lat="44.24967" lon="6.17577">
        <ele>1803</ele>
        <time>2010-01-01T01:05:33Z</time>
      </trkpt>
      <trkpt lat="44.24964" lon="6.17566">
        <ele>1801</ele>
        <time>2010-01-01T01:05:35Z</time>
      </trkpt>
      <trkpt lat="44.2496" lon="6.17543">
        <ele>1797</ele>
        <time>2010-01-01T01:05:39Z</time>
      </trkpt>
      <trkpt lat="44.24957" lon="6.17532">
        <ele>1796</ele>
        <time>2010-01-01T01:05:42Z</time>
      </trkpt>
      <trkpt lat="44.24956" lon="6.1752">
        <ele>1796</ele>
        <time>2010-01-01T01:05:44Z</time>
      </trkpt>
      <trkpt lat="44.24953" lon="6.17501">
        <ele>1796</ele>
        <time>2010-01-01T01:05:48Z</time>
      </trkpt>
      <trkpt lat="44.24952" lon="6.17494">
        <ele>1795</ele>
        <time>2010-01-01T01:05:49Z</time>
      </trkpt>
      <trkpt lat="44.24951" lon="6.17491">
        <ele>1795</ele>
        <time>2010-01-01T01:05:50Z</time>
      </trkpt>
      <trkpt lat="44.24952" lon="6.17495">
        <ele>1795</ele>
        <time>2010-01-01T01:05:50Z</time>
      </trkpt>
      <trkpt lat="44.24952" lon="6.17493">
        <ele>1795</ele>
        <time>2010-01-01T01:05:50Z</time>
      </trkpt>
      <trkpt lat="44.24953" lon="6.17494">
        <ele>1795</ele>
        <time>2010-01-01T01:05:51Z</time>
      </trkpt>
      <trkpt lat="44.24953" lon="6.17494">
        <ele>1795</ele>
        <time>2010-01-01T01:05:51Z</time>
      </trkpt>
      <trkpt lat="44.24953" lon="6.17494">
        <ele>1795</ele>
        <time>2010-01-01T01:05:51Z</time>
      </trkpt>
      <trkpt lat="44.24952" lon="6.17493">
        <ele>1795</ele>
        <time>2010-01-01T01:05:51Z</time>
      </trkpt>
      <trkpt lat="44.24952" lon="6.17493">
        <ele>1795</ele>
        <time>2010-01-01T01:05:51Z</time>
      </trkpt>
      <trkpt lat="44.24952" lon="6.17493">
        <ele>1795</ele>
        <time>2010-01-01T01:05:51Z</time>
      </trkpt>
      <trkpt lat="44.24952" lon="6.17493">
        <ele>1795</ele>
        <time>2010-01-01T01:05:51Z</time>
      </trkpt>
      <trkpt lat="44.24951" lon="6.17492">
        <ele>1795</ele>
        <time>2010-01-01T01:05:51Z</time>
      </trkpt>
      <trkpt lat="44.2495" lon="6.17491">
        <ele>1795</ele>
        <time>2010-01-01T01:05:52Z</time>
      </trkpt>
      <trkpt lat="44.24944" lon="6.17487">
        <ele>1796</ele>
        <time>2010-01-01T01:05:53Z</time>
      </trkpt>
      <trkpt lat="44.24937" lon="6.17483">
        <ele>1794</ele>
        <time>2010-01-01T01:05:56Z</time>
      </trkpt>
      <trkpt lat="44.24929" lon="6.17476">
        <ele>1792</ele>
        <time>2010-01-01T01:05:58Z</time>
      </trkpt>
      <trkpt lat="44.24924" lon="6.1747">
        <ele>1791</ele>
        <time>2010-01-01T01:06:00Z</time>
      </trkpt>
      <trkpt lat="44.24918" lon="6.17455">
        <ele>1788</ele>
        <time>2010-01-01T01:06:03Z</time>
      </trkpt>
      <trkpt lat="44.24916" lon="6.17449">
        <ele>1787</ele>
        <time>2010-01-01T01:06:04Z</time>
      </trkpt>
      <trkpt lat="44.24915" lon="6.17443">
        <ele>1786</ele>
        <time>2010-01-01T01:06:06Z</time>
      </trkpt>
      <trkpt lat="44.24913" lon="6.17437">
        <ele>1784</ele>
        <time>2010-01-01T01:06:07Z</time>
      </trkpt>
      <trkpt lat="44.24911" lon="6.17431">
        <ele>1783</ele>
        <time>2010-01-01T01:06:08Z</time>
      </trkpt>
      <trkpt lat="44.24909" lon="6.17424">
        <ele>1781</ele>
        <time>2010-01-01T01:06:10Z</time>
      </trkpt>
      <trkpt lat="44.24906" lon="6.17418">
        <ele>1780</ele>
        <time>2010-01-01T01:06:11Z</time>
      </trkpt>
      <trkpt lat="44.24902" lon="6.17407">
        <ele>1778</ele>
        <time>2010-01-01T01:06:13Z</time>
      </trkpt>
      <trkpt lat="44.24899" lon="6.17402">
        <ele>1778</ele>
        <time>2010-01-01T01:06:15Z</time>
      </trkpt>
      <trkpt lat="44.24895" lon="6.17397">
        <ele>1777</ele>
        <time>2010-01-01T01:06:16Z</time>
      </trkpt>
      <trkpt lat="44.24893" lon="6.17391">
        <ele>1777</ele>
        <time>2010-01-01T01:06:17Z</time>
      </trkpt>
      <trkpt lat="44.24889" lon="6.17381">
        <ele>1776</ele>
        <time>2010-01-01T01:06:19Z</time>
      </trkpt>
      <trkpt lat="44.24886" lon="6.17376">
        <ele>1774</ele>
        <time>2010-01-01T01:06:21Z</time>
      </trkpt>
      <trkpt lat="44.24884" lon="6.1737">
        <ele>1773</ele>
        <time>2010-01-01T01:06:22Z</time>
      </trkpt>
      <trkpt lat="44.24883" lon="6.17363">
        <ele>1772</ele>
        <time>2010-01-01T01:06:23Z</time>
      </trkpt>
      <trkpt lat="44.2488" lon="6.17356">
        <ele>1770</ele>
        <time>2010-01-01T01:06:25Z</time>
      </trkpt>
      <trkpt lat="44.24878" lon="6.1735">
        <ele>1768</ele>
        <time>2010-01-01T01:06:26Z</time>
      </trkpt>
      <trkpt lat="44.24876" lon="6.17344">
        <ele>1766</ele>
        <time>2010-01-01T01:06:27Z</time>
      </trkpt>
      <trkpt lat="44.24873" lon="6.17336">
        <ele>1764</ele>
        <time>2010-01-01T01:06:29Z</time>
      </trkpt>
      <trkpt lat="44.24871" lon="6.1733">
        <ele>1762</ele>
        <time>2010-01-01T01:06:30Z</time>
      </trkpt>
      <trkpt lat="44.24869" lon="6.17325">
        <ele>1761</ele>
        <time>2010-01-01T01:06:31Z</time>
      </trkpt>
      <trkpt lat="44.24866" lon="6.17319">
        <ele>1760</ele>
        <time>2010-01-01T01:06:33Z</time>
      </trkpt>
      <trkpt lat="44.24866" lon="6.17319">
        <ele>1760</ele>
        <time>2010-01-01T01:06:33Z</time>
      </trkpt>
      <trkpt lat="44.24865" lon="6.17317">
        <ele>1760</ele>
        <time>2010-01-01T01:06:33Z</time>
      </trkpt>
      <trkpt lat="44.24865" lon="6.17315">
        <ele>1760</ele>
        <time>2010-01-01T01:06:34Z</time>
      </trkpt>
      <trkpt lat="44.24864" lon="6.17312">
        <ele>1760</ele>
        <time>2010-01-01T01:06:34Z</time>
      </trkpt>
      <trkpt lat="44.24865" lon="6.17312">
        <ele>1760</ele>
        <time>2010-01-01T01:06:35Z</time>
      </trkpt>
      <trkpt lat="44.24864" lon="6.17311">
        <ele>1760</ele>
        <time>2010-01-01T01:06:35Z</time>
      </trkpt>
      <trkpt lat="44.24865" lon="6.1731">
        <ele>1760</ele>
        <time>2010-01-01T01:06:35Z</time>
      </trkpt>
      <trkpt lat="44.24863" lon="6.17308">
        <ele>1760</ele>
        <time>2010-01-01T01:06:35Z</time>
      </trkpt>
      <trkpt lat="44.24863" lon="6.17308">
        <ele>1760</ele>
        <time>2010-01-01T01:06:36Z</time>
      </trkpt>
      <trkpt lat="44.24862" lon="6.17304">
        <ele>1759</ele>
        <time>2010-01-01T01:06:37Z</time>
      </trkpt>
      <trkpt lat="44.24861" lon="6.17302">
        <ele>1759</ele>
        <time>2010-01-01T01:06:37Z</time>
      </trkpt>
      <trkpt lat="44.24861" lon="6.17301">
        <ele>1759</ele>
        <time>2010-01-01T01:06:37Z</time>
      </trkpt>
      <trkpt lat="44.2486" lon="6.17297">
        <ele>1758</ele>
        <time>2010-01-01T01:06:38Z</time>
      </trkpt>
      <trkpt lat="44.2486" lon="6.17294">
        <ele>1758</ele>
        <time>2010-01-01T01:06:38Z</time>
      </trkpt>
      <trkpt lat="44.24859" lon="6.17288">
        <ele>1758</ele>
        <time>2010-01-01T01:06:40Z</time>
      </trkpt>
      <trkpt lat="44.24858" lon="6.17281">
        <ele>1757</ele>
        <time>2010-01-01T01:06:41Z</time>
      </trkpt>
      <trkpt lat="44.24858" lon="6.17279">
        <ele>1757</ele>
        <time>2010-01-01T01:06:41Z</time>
      </trkpt>
      <trkpt lat="44.24858" lon="6.17271">
        <ele>1756</ele>
        <time>2010-01-01T01:06:43Z</time>
      </trkpt>
      <trkpt lat="44.24857" lon="6.17264">
        <ele>1755</ele>
        <time>2010-01-01T01:06:44Z</time>
      </trkpt>
      <trkpt lat="44.24857" lon="6.17262">
        <ele>1755</ele>
        <time>2010-01-01T01:06:45Z</time>
      </trkpt>
      <trkpt lat="44.24857" lon="6.17262">
        <ele>1755</ele>
        <time>2010-01-01T01:06:45Z</time>
      </trkpt>
      <trkpt lat="44.24857" lon="6.17253">
        <ele>1753</ele>
        <time>2010-01-01T01:06:46Z</time>
      </trkpt>
      <trkpt lat="44.24852" lon="6.17231">
        <ele>1750</ele>
        <time>2010-01-01T01:06:51Z</time>
      </trkpt>
      <trkpt lat="44.24853" lon="6.17215">
        <ele>1750</ele>
        <time>2010-01-01T01:06:54Z</time>
      </trkpt>
      <trkpt lat="44.24852" lon="6.1721">
        <ele>1750</ele>
        <time>2010-01-01T01:06:55Z</time>
      </trkpt>
      <trkpt lat="44.24848" lon="6.17194">
        <ele>1750</ele>
        <time>2010-01-01T01:06:58Z</time>
      </trkpt>
      <trkpt lat="44.24845" lon="6.17179">
        <ele>1749</ele>
        <time>2010-01-01T01:07:01Z</time>
      </trkpt>
      <trkpt lat="44.24845" lon="6.17174">
        <ele>1749</ele>
        <time>2010-01-01T01:07:02Z</time>
      </trkpt>
      <trkpt lat="44.24846" lon="6.17167">
        <ele>1749</ele>
        <time>2010-01-01T01:07:03Z</time>
      </trkpt>
      <trkpt lat="44.24846" lon="6.1716">
        <ele>1750</ele>
        <time>2010-01-01T01:07:05Z</time>
      </trkpt>
      <trkpt lat="44.24844" lon="6.17157">
        <ele>1750</ele>
        <time>2010-01-01T01:07:06Z</time>
      </trkpt>
      <trkpt lat="44.24843" lon="6.17151">
        <ele>1750</ele>
        <time>2010-01-01T01:07:07Z</time>
      </trkpt>
      <trkpt lat="44.24842" lon="6.17149">
        <ele>1750</ele>
        <time>2010-01-01T01:07:07Z</time>
      </trkpt>
      <trkpt lat="44.24841" lon="6.17146">
        <ele>1751</ele>
        <time>2010-01-01T01:07:08Z</time>
      </trkpt>
      <trkpt lat="44.2484" lon="6.17137">
        <ele>1751</ele>
        <time>2010-01-01T01:07:10Z</time>
      </trkpt>
      <trkpt lat="44.24841" lon="6.17131">
        <ele>1751</ele>
        <time>2010-01-01T01:07:11Z</time>
      </trkpt>
      <trkpt lat="44.24839" lon="6.17122">
        <ele>1752</ele>
        <time>2010-01-01T01:07:12Z</time>
      </trkpt>
      <trkpt lat="44.24834" lon="6.17098">
        <ele>1752</ele>
        <time>2010-01-01T01:07:17Z</time>
      </trkpt>
      <trkpt lat="44.24834" lon="6.17078">
        <ele>1751</ele>
        <time>2010-01-01T01:07:21Z</time>
      </trkpt>
      <trkpt lat="44.24834" lon="6.17074">
        <ele>1751</ele>
        <time>2010-01-01T01:07:22Z</time>
      </trkpt>
      <trkpt lat="44.24836" lon="6.17071">
        <ele>1751</ele>
        <time>2010-01-01T01:07:23Z</time>
      </trkpt>
      <trkpt lat="44.24838" lon="6.17061">
        <ele>1751</ele>
        <time>2010-01-01T01:07:25Z</time>
      </trkpt>
      <trkpt lat="44.24836" lon="6.17045">
        <ele>1750</ele>
        <time>2010-01-01T01:07:28Z</time>
      </trkpt>
      <trkpt lat="44.24834" lon="6.1703">
        <ele>1750</ele>
        <time>2010-01-01T01:07:31Z</time>
      </trkpt>
      <trkpt lat="44.24831" lon="6.17017">
        <ele>1748</ele>
        <time>2010-01-01T01:07:33Z</time>
      </trkpt>
      <trkpt lat="44.24827" lon="6.17004">
        <ele>1746</ele>
        <time>2010-01-01T01:07:36Z</time>
      </trkpt>
      <trkpt lat="44.24825" lon="6.16998">
        <ele>1744</ele>
        <time>2010-01-01T01:07:37Z</time>
      </trkpt>
      <trkpt lat="44.24821" lon="6.16992">
        <ele>1742</ele>
        <time>2010-01-01T01:07:39Z</time>
      </trkpt>
      <trkpt lat="44.24817" lon="6.16985">
        <ele>1740</ele>
        <time>2010-01-01T01:07:40Z</time>
      </trkpt>
      <trkpt lat="44.24813" lon="6.16979">
        <ele>1738</ele>
        <time>2010-01-01T01:07:42Z</time>
      </trkpt>
      <trkpt lat="44.24809" lon="6.16973">
        <ele>1737</ele>
        <time>2010-01-01T01:07:44Z</time>
      </trkpt>
      <trkpt lat="44.24804" lon="6.16968">
        <ele>1736</ele>
        <time>2010-01-01T01:07:45Z</time>
      </trkpt>
      <trkpt lat="44.248" lon="6.16963">
        <ele>1734</ele>
        <time>2010-01-01T01:07:47Z</time>
      </trkpt>
      <trkpt lat="44.24797" lon="6.16959">
        <ele>1734</ele>
        <time>2010-01-01T01:07:48Z</time>
      </trkpt>
      <trkpt lat="44.24796" lon="6.16951">
        <ele>1732</ele>
        <time>2010-01-01T01:07:49Z</time>
      </trkpt>
      <trkpt lat="44.24797" lon="6.16946">
        <ele>1731</ele>
        <time>2010-01-01T01:07:50Z</time>
      </trkpt>
      <trkpt lat="44.24791" lon="6.16939">
        <ele>1730</ele>
        <time>2010-01-01T01:07:52Z</time>
      </trkpt>
      <trkpt lat="44.2479" lon="6.16936">
        <ele>1730</ele>
        <time>2010-01-01T01:07:53Z</time>
      </trkpt>
      <trkpt lat="44.24788" lon="6.16931">
        <ele>1730</ele>
        <time>2010-01-01T01:07:54Z</time>
      </trkpt>
      <trkpt lat="44.24789" lon="6.16932">
        <ele>1730</ele>
        <time>2010-01-01T01:07:54Z</time>
      </trkpt>
      <trkpt lat="44.24789" lon="6.16932">
        <ele>1730</ele>
        <time>2010-01-01T01:07:54Z</time>
      </trkpt>
      <trkpt lat="44.24788" lon="6.16926">
        <ele>1729</ele>
        <time>2010-01-01T01:07:56Z</time>
      </trkpt>
      <trkpt lat="44.24787" lon="6.16921">
        <ele>1729</ele>
        <time>2010-01-01T01:07:56Z</time>
      </trkpt>
      <trkpt lat="44.24785" lon="6.16912">
        <ele>1728</ele>
        <time>2010-01-01T01:07:58Z</time>
      </trkpt>
      <trkpt lat="44.24782" lon="6.16905">
        <ele>1728</ele>
        <time>2010-01-01T01:08:00Z</time>
      </trkpt>
      <trkpt lat="44.2478" lon="6.16899">
        <ele>1728</ele>
        <time>2010-01-01T01:08:01Z</time>
      </trkpt>
      <trkpt lat="44.2478" lon="6.16893">
        <ele>1728</ele>
        <time>2010-01-01T01:08:02Z</time>
      </trkpt>
      <trkpt lat="44.24778" lon="6.16883">
        <ele>1727</ele>
        <time>2010-01-01T01:08:04Z</time>
      </trkpt>
      <trkpt lat="44.24778" lon="6.1687">
        <ele>1725</ele>
        <time>2010-01-01T01:08:07Z</time>
      </trkpt>
      <trkpt lat="44.24776" lon="6.16865">
        <ele>1724</ele>
        <time>2010-01-01T01:08:08Z</time>
      </trkpt>
      <trkpt lat="44.24775" lon="6.16861">
        <ele>1723</ele>
        <time>2010-01-01T01:08:09Z</time>
      </trkpt>
      <trkpt lat="44.24772" lon="6.16852">
        <ele>1721</ele>
        <time>2010-01-01T01:08:11Z</time>
      </trkpt>
      <trkpt lat="44.2477" lon="6.16841">
        <ele>1718</ele>
        <time>2010-01-01T01:08:13Z</time>
      </trkpt>
      <trkpt lat="44.24767" lon="6.16834">
        <ele>1716</ele>
        <time>2010-01-01T01:08:14Z</time>
      </trkpt>
      <trkpt lat="44.24765" lon="6.16828">
        <ele>1714</ele>
        <time>2010-01-01T01:08:16Z</time>
      </trkpt>
      <trkpt lat="44.24763" lon="6.1682">
        <ele>1713</ele>
        <time>2010-01-01T01:08:17Z</time>
      </trkpt>
      <trkpt lat="44.2476" lon="6.1681">
        <ele>1710</ele>
        <time>2010-01-01T01:08:19Z</time>
      </trkpt>
      <trkpt lat="44.24759" lon="6.16804">
        <ele>1709</ele>
        <time>2010-01-01T01:08:20Z</time>
      </trkpt>
      <trkpt lat="44.24758" lon="6.168">
        <ele>1708</ele>
        <time>2010-01-01T01:08:21Z</time>
      </trkpt>
      <trkpt lat="44.24758" lon="6.1679">
        <ele>1707</ele>
        <time>2010-01-01T01:08:23Z</time>
      </trkpt>
      <trkpt lat="44.24755" lon="6.16785">
        <ele>1706</ele>
        <time>2010-01-01T01:08:24Z</time>
      </trkpt>
      <trkpt lat="44.24754" lon="6.16781">
        <ele>1705</ele>
        <time>2010-01-01T01:08:25Z</time>
      </trkpt>
      <trkpt lat="44.24753" lon="6.16778">
        <ele>1704</ele>
        <time>2010-01-01T01:08:26Z</time>
      </trkpt>
      <trkpt lat="44.24751" lon="6.16768">
        <ele>1702</ele>
        <time>2010-01-01T01:08:28Z</time>
      </trkpt>
      <trkpt lat="44.24752" lon="6.16763">
        <ele>1701</ele>
        <time>2010-01-01T01:08:29Z</time>
      </trkpt>
      <trkpt lat="44.2475" lon="6.1676">
        <ele>1700</ele>
        <time>2010-01-01T01:08:30Z</time>
      </trkpt>
      <trkpt lat="44.24748" lon="6.1676">
        <ele>1700</ele>
        <time>2010-01-01T01:08:30Z</time>
      </trkpt>
      <trkpt lat="44.24747" lon="6.16757">
        <ele>1699</ele>
        <time>2010-01-01T01:08:31Z</time>
      </trkpt>
      <trkpt lat="44.24745" lon="6.16753">
        <ele>1698</ele>
        <time>2010-01-01T01:08:32Z</time>
      </trkpt>
      <trkpt lat="44.24743" lon="6.16747">
        <ele>1696</ele>
        <time>2010-01-01T01:08:33Z</time>
      </trkpt>
      <trkpt lat="44.24742" lon="6.16741">
        <ele>1694</ele>
        <time>2010-01-01T01:08:34Z</time>
      </trkpt>
      <trkpt lat="44.24741" lon="6.16736">
        <ele>1693</ele>
        <time>2010-01-01T01:08:35Z</time>
      </trkpt>
      <trkpt lat="44.2474" lon="6.16728">
        <ele>1691</ele>
        <time>2010-01-01T01:08:37Z</time>
      </trkpt>
      <trkpt lat="44.2474" lon="6.16725">
        <ele>1691</ele>
        <time>2010-01-01T01:08:37Z</time>
      </trkpt>
      <trkpt lat="44.24739" lon="6.16716">
        <ele>1688</ele>
        <time>2010-01-01T01:08:39Z</time>
      </trkpt>
      <trkpt lat="44.24737" lon="6.16711">
        <ele>1687</ele>
        <time>2010-01-01T01:08:40Z</time>
      </trkpt>
      <trkpt lat="44.24734" lon="6.16705">
        <ele>1685</ele>
        <time>2010-01-01T01:08:42Z</time>
      </trkpt>
      <trkpt lat="44.24732" lon="6.167">
        <ele>1683</ele>
        <time>2010-01-01T01:08:43Z</time>
      </trkpt>
      <trkpt lat="44.2473" lon="6.16693">
        <ele>1681</ele>
        <time>2010-01-01T01:08:44Z</time>
      </trkpt>
      <trkpt lat="44.24728" lon="6.16684">
        <ele>1679</ele>
        <time>2010-01-01T01:08:46Z</time>
      </trkpt>
      <trkpt lat="44.24729" lon="6.16681">
        <ele>1678</ele>
        <time>2010-01-01T01:08:46Z</time>
      </trkpt>
      <trkpt lat="44.24728" lon="6.16678">
        <ele>1677</ele>
        <time>2010-01-01T01:08:47Z</time>
      </trkpt>
      <trkpt lat="44.24725" lon="6.16674">
        <ele>1675</ele>
        <time>2010-01-01T01:08:48Z</time>
      </trkpt>
      <trkpt lat="44.24725" lon="6.1667">
        <ele>1675</ele>
        <time>2010-01-01T01:08:49Z</time>
      </trkpt>
      <trkpt lat="44.24724" lon="6.16662">
        <ele>1673</ele>
        <time>2010-01-01T01:08:50Z</time>
      </trkpt>
      <trkpt lat="44.24722" lon="6.16657">
        <ele>1672</ele>
        <time>2010-01-01T01:08:52Z</time>
      </trkpt>
      <trkpt lat="44.24721" lon="6.16653">
        <ele>1671</ele>
        <time>2010-01-01T01:08:52Z</time>
      </trkpt>
      <trkpt lat="44.2472" lon="6.16643">
        <ele>1669</ele>
        <time>2010-01-01T01:08:54Z</time>
      </trkpt>
      <trkpt lat="44.24719" lon="6.16636">
        <ele>1668</ele>
        <time>2010-01-01T01:08:56Z</time>
      </trkpt>
      <trkpt lat="44.24718" lon="6.16634">
        <ele>1667</ele>
        <time>2010-01-01T01:08:56Z</time>
      </trkpt>
      <trkpt lat="44.24718" lon="6.16634">
        <ele>1667</ele>
        <time>2010-01-01T01:08:56Z</time>
      </trkpt>
      <trkpt lat="44.24719" lon="6.1663">
        <ele>1667</ele>
        <time>2010-01-01T01:08:57Z</time>
      </trkpt>
      <trkpt lat="44.24718" lon="6.16617">
        <ele>1666</ele>
        <time>2010-01-01T01:09:00Z</time>
      </trkpt>
      <trkpt lat="44.24715" lon="6.16612">
        <ele>1665</ele>
        <time>2010-01-01T01:09:01Z</time>
      </trkpt>
      <trkpt lat="44.24715" lon="6.16606">
        <ele>1665</ele>
        <time>2010-01-01T01:09:02Z</time>
      </trkpt>
      <trkpt lat="44.24714" lon="6.16599">
        <ele>1664</ele>
        <time>2010-01-01T01:09:03Z</time>
      </trkpt>
      <trkpt lat="44.24713" lon="6.16592">
        <ele>1664</ele>
        <time>2010-01-01T01:09:05Z</time>
      </trkpt>
      <trkpt lat="44.2471" lon="6.16584">
        <ele>1664</ele>
        <time>2010-01-01T01:09:06Z</time>
      </trkpt>
      <trkpt lat="44.24707" lon="6.16576">
        <ele>1663</ele>
        <time>2010-01-01T01:09:08Z</time>
      </trkpt>
      <trkpt lat="44.24704" lon="6.16559">
        <ele>1663</ele>
        <time>2010-01-01T01:09:11Z</time>
      </trkpt>
      <trkpt lat="44.247" lon="6.1654">
        <ele>1661</ele>
        <time>2010-01-01T01:09:15Z</time>
      </trkpt>
      <trkpt lat="44.24699" lon="6.1653">
        <ele>1659</ele>
        <time>2010-01-01T01:09:17Z</time>
      </trkpt>
      <trkpt lat="44.24695" lon="6.16522">
        <ele>1659</ele>
        <time>2010-01-01T01:09:19Z</time>
      </trkpt>
      <trkpt lat="44.24692" lon="6.16516">
        <ele>1658</ele>
        <time>2010-01-01T01:09:20Z</time>
      </trkpt>
      <trkpt lat="44.24689" lon="6.1651">
        <ele>1657</ele>
        <time>2010-01-01T01:09:22Z</time>
      </trkpt>
      <trkpt lat="44.24685" lon="6.16498">
        <ele>1655</ele>
        <time>2010-01-01T01:09:24Z</time>
      </trkpt>
      <trkpt lat="44.24683" lon="6.16488">
        <ele>1653</ele>
        <time>2010-01-01T01:09:26Z</time>
      </trkpt>
      <trkpt lat="44.24682" lon="6.16481">
        <ele>1652</ele>
        <time>2010-01-01T01:09:28Z</time>
      </trkpt>
      <trkpt lat="44.2468" lon="6.16469">
        <ele>1651</ele>
        <time>2010-01-01T01:09:30Z</time>
      </trkpt>
      <trkpt lat="44.24679" lon="6.16465">
        <ele>1650</ele>
        <time>2010-01-01T01:09:31Z</time>
      </trkpt>
      <trkpt lat="44.24677" lon="6.16454">
        <ele>1648</ele>
        <time>2010-01-01T01:09:33Z</time>
      </trkpt>
      <trkpt lat="44.24676" lon="6.16449">
        <ele>1648</ele>
        <time>2010-01-01T01:09:34Z</time>
      </trkpt>
      <trkpt lat="44.24676" lon="6.16443">
        <ele>1647</ele>
        <time>2010-01-01T01:09:35Z</time>
      </trkpt>
      <trkpt lat="44.24676" lon="6.16436">
        <ele>1647</ele>
        <time>2010-01-01T01:09:36Z</time>
      </trkpt>
      <trkpt lat="44.24675" lon="6.16428">
        <ele>1647</ele>
        <time>2010-01-01T01:09:38Z</time>
      </trkpt>
      <trkpt lat="44.24673" lon="6.16422">
        <ele>1647</ele>
        <time>2010-01-01T01:09:39Z</time>
      </trkpt>
      <trkpt lat="44.24672" lon="6.1641">
        <ele>1647</ele>
        <time>2010-01-01T01:09:41Z</time>
      </trkpt>
      <trkpt lat="44.2467" lon="6.16397">
        <ele>1646</ele>
        <time>2010-01-01T01:09:44Z</time>
      </trkpt>
      <trkpt lat="44.24669" lon="6.16384">
        <ele>1646</ele>
        <time>2010-01-01T01:09:47Z</time>
      </trkpt>
      <trkpt lat="44.2467" lon="6.16379">
        <ele>1645</ele>
        <time>2010-01-01T01:09:48Z</time>
      </trkpt>
      <trkpt lat="44.24669" lon="6.16374">
        <ele>1645</ele>
        <time>2010-01-01T01:09:48Z</time>
      </trkpt>
      <trkpt lat="44.24668" lon="6.16361">
        <ele>1643</ele>
        <time>2010-01-01T01:09:51Z</time>
      </trkpt>
      <trkpt lat="44.24667" lon="6.16354">
        <ele>1641</ele>
        <time>2010-01-01T01:09:52Z</time>
      </trkpt>
      <trkpt lat="44.24668" lon="6.16349">
        <ele>1640</ele>
        <time>2010-01-01T01:09:53Z</time>
      </trkpt>
      <trkpt lat="44.24668" lon="6.16339">
        <ele>1637</ele>
        <time>2010-01-01T01:09:55Z</time>
      </trkpt>
      <trkpt lat="44.2467" lon="6.16333">
        <ele>1635</ele>
        <time>2010-01-01T01:09:57Z</time>
      </trkpt>
      <trkpt lat="44.2467" lon="6.16329">
        <ele>1634</ele>
        <time>2010-01-01T01:09:57Z</time>
      </trkpt>
      <trkpt lat="44.2467" lon="6.16324">
        <ele>1633</ele>
        <time>2010-01-01T01:09:58Z</time>
      </trkpt>
      <trkpt lat="44.24671" lon="6.16319">
        <ele>1632</ele>
        <time>2010-01-01T01:09:59Z</time>
      </trkpt>
      <trkpt lat="44.2467" lon="6.16314">
        <ele>1632</ele>
        <time>2010-01-01T01:10:00Z</time>
      </trkpt>
      <trkpt lat="44.24669" lon="6.16308">
        <ele>1630</ele>
        <time>2010-01-01T01:10:01Z</time>
      </trkpt>
      <trkpt lat="44.24668" lon="6.16299">
        <ele>1629</ele>
        <time>2010-01-01T01:10:03Z</time>
      </trkpt>
      <trkpt lat="44.24669" lon="6.16291">
        <ele>1627</ele>
        <time>2010-01-01T01:10:05Z</time>
      </trkpt>
      <trkpt lat="44.24669" lon="6.16287">
        <ele>1626</ele>
        <time>2010-01-01T01:10:05Z</time>
      </trkpt>
      <trkpt lat="44.24671" lon="6.1628">
        <ele>1624</ele>
        <time>2010-01-01T01:10:07Z</time>
      </trkpt>
      <trkpt lat="44.2467" lon="6.16276">
        <ele>1624</ele>
        <time>2010-01-01T01:10:08Z</time>
      </trkpt>
      <trkpt lat="44.24669" lon="6.16272">
        <ele>1623</ele>
        <time>2010-01-01T01:10:08Z</time>
      </trkpt>
      <trkpt lat="44.24669" lon="6.16261">
        <ele>1622</ele>
        <time>2010-01-01T01:10:11Z</time>
      </trkpt>
      <trkpt lat="44.24669" lon="6.16254">
        <ele>1621</ele>
        <time>2010-01-01T01:10:12Z</time>
      </trkpt>
      <trkpt lat="44.24668" lon="6.1625">
        <ele>1621</ele>
        <time>2010-01-01T01:10:13Z</time>
      </trkpt>
      <trkpt lat="44.24671" lon="6.16242">
        <ele>1619</ele>
        <time>2010-01-01T01:10:14Z</time>
      </trkpt>
      <trkpt lat="44.24672" lon="6.16239">
        <ele>1618</ele>
        <time>2010-01-01T01:10:15Z</time>
      </trkpt>
      <trkpt lat="44.24671" lon="6.16234">
        <ele>1617</ele>
        <time>2010-01-01T01:10:16Z</time>
      </trkpt>
      <trkpt lat="44.24673" lon="6.16224">
        <ele>1614</ele>
        <time>2010-01-01T01:10:18Z</time>
      </trkpt>
      <trkpt lat="44.24672" lon="6.16226">
        <ele>1615</ele>
        <time>2010-01-01T01:10:18Z</time>
      </trkpt>
      <trkpt lat="44.24673" lon="6.16226">
        <ele>1615</ele>
        <time>2010-01-01T01:10:19Z</time>
      </trkpt>
      <trkpt lat="44.24673" lon="6.16226">
        <ele>1615</ele>
        <time>2010-01-01T01:10:19Z</time>
      </trkpt>
      <trkpt lat="44.24673" lon="6.16226">
        <ele>1615</ele>
        <time>2010-01-01T01:10:19Z</time>
      </trkpt>
      <trkpt lat="44.24673" lon="6.16227">
        <ele>1615</ele>
        <time>2010-01-01T01:10:19Z</time>
      </trkpt>
      <trkpt lat="44.24673" lon="6.16227">
        <ele>1615</ele>
        <time>2010-01-01T01:10:19Z</time>
      </trkpt>
      <trkpt lat="44.24673" lon="6.16227">
        <ele>1615</ele>
        <time>2010-01-01T01:10:19Z</time>
      </trkpt>
      <trkpt lat="44.24673" lon="6.16226">
        <ele>1615</ele>
        <time>2010-01-01T01:10:19Z</time>
      </trkpt>
      <trkpt lat="44.24673" lon="6.16221">
        <ele>1614</ele>
        <time>2010-01-01T01:10:20Z</time>
      </trkpt>
      <trkpt lat="44.24673" lon="6.16215">
        <ele>1613</ele>
        <time>2010-01-01T01:10:21Z</time>
      </trkpt>
      <trkpt lat="44.24675" lon="6.16207">
        <ele>1613</ele>
        <time>2010-01-01T01:10:23Z</time>
      </trkpt>
      <trkpt lat="44.24675" lon="6.16203">
        <ele>1613</ele>
        <time>2010-01-01T01:10:24Z</time>
      </trkpt>
      <trkpt lat="44.24676" lon="6.16199">
        <ele>1612</ele>
        <time>2010-01-01T01:10:24Z</time>
      </trkpt>
      <trkpt lat="44.24676" lon="6.16195">
        <ele>1612</ele>
        <time>2010-01-01T01:10:25Z</time>
      </trkpt>
      <trkpt lat="44.24675" lon="6.1619">
        <ele>1612</ele>
        <time>2010-01-01T01:10:26Z</time>
      </trkpt>
      <trkpt lat="44.24675" lon="6.16185">
        <ele>1611</ele>
        <time>2010-01-01T01:10:27Z</time>
      </trkpt>
      <trkpt lat="44.24676" lon="6.1618">
        <ele>1610</ele>
        <time>2010-01-01T01:10:28Z</time>
      </trkpt>
      <trkpt lat="44.24677" lon="6.16169">
        <ele>1609</ele>
        <time>2010-01-01T01:10:30Z</time>
      </trkpt>
      <trkpt lat="44.24676" lon="6.16165">
        <ele>1608</ele>
        <time>2010-01-01T01:10:31Z</time>
      </trkpt>
      <trkpt lat="44.24677" lon="6.16161">
        <ele>1608</ele>
        <time>2010-01-01T01:10:32Z</time>
      </trkpt>
      <trkpt lat="44.24677" lon="6.16157">
        <ele>1607</ele>
        <time>2010-01-01T01:10:32Z</time>
      </trkpt>
      <trkpt lat="44.24678" lon="6.16153">
        <ele>1607</ele>
        <time>2010-01-01T01:10:33Z</time>
      </trkpt>
      <trkpt lat="44.2468" lon="6.16149">
        <ele>1606</ele>
        <time>2010-01-01T01:10:34Z</time>
      </trkpt>
      <trkpt lat="44.24683" lon="6.16146">
        <ele>1606</ele>
        <time>2010-01-01T01:10:35Z</time>
      </trkpt>
      <trkpt lat="44.24685" lon="6.16139">
        <ele>1605</ele>
        <time>2010-01-01T01:10:37Z</time>
      </trkpt>
      <trkpt lat="44.24685" lon="6.16134">
        <ele>1604</ele>
        <time>2010-01-01T01:10:37Z</time>
      </trkpt>
      <trkpt lat="44.24684" lon="6.16128">
        <ele>1604</ele>
        <time>2010-01-01T01:10:38Z</time>
      </trkpt>
      <trkpt lat="44.24683" lon="6.16119">
        <ele>1602</ele>
        <time>2010-01-01T01:10:40Z</time>
      </trkpt>
      <trkpt lat="44.24683" lon="6.16113">
        <ele>1602</ele>
        <time>2010-01-01T01:10:41Z</time>
      </trkpt>
      <trkpt lat="44.24683" lon="6.16104">
        <ele>1600</ele>
        <time>2010-01-01T01:10:43Z</time>
      </trkpt>
      <trkpt lat="44.24682" lon="6.16094">
        <ele>1599</ele>
        <time>2010-01-01T01:10:45Z</time>
      </trkpt>
      <trkpt lat="44.24684" lon="6.16082">
        <ele>1598</ele>
        <time>2010-01-01T01:10:47Z</time>
      </trkpt>
      <trkpt lat="44.24685" lon="6.16077">
        <ele>1598</ele>
        <time>2010-01-01T01:10:48Z</time>
      </trkpt>
      <trkpt lat="44.24685" lon="6.16071">
        <ele>1597</ele>
        <time>2010-01-01T01:10:50Z</time>
      </trkpt>
      <trkpt lat="44.24684" lon="6.16066">
        <ele>1596</ele>
        <time>2010-01-01T01:10:51Z</time>
      </trkpt>
      <trkpt lat="44.24684" lon="6.16053">
        <ele>1595</ele>
        <time>2010-01-01T01:10:53Z</time>
      </trkpt>
      <trkpt lat="44.24684" lon="6.16045">
        <ele>1595</ele>
        <time>2010-01-01T01:10:55Z</time>
      </trkpt>
      <trkpt lat="44.24685" lon="6.16037">
        <ele>1594</ele>
        <time>2010-01-01T01:10:56Z</time>
      </trkpt>
      <trkpt lat="44.24685" lon="6.16029">
        <ele>1594</ele>
        <time>2010-01-01T01:10:58Z</time>
      </trkpt>
      <trkpt lat="44.24684" lon="6.16023">
        <ele>1593</ele>
        <time>2010-01-01T01:10:59Z</time>
      </trkpt>
      <trkpt lat="44.24684" lon="6.16017">
        <ele>1592</ele>
        <time>2010-01-01T01:11:00Z</time>
      </trkpt>
      <trkpt lat="44.24686" lon="6.16006">
        <ele>1591</ele>
        <time>2010-01-01T01:11:02Z</time>
      </trkpt>
      <trkpt lat="44.24686" lon="6.16001">
        <ele>1590</ele>
        <time>2010-01-01T01:11:03Z</time>
      </trkpt>
      <trkpt lat="44.24688" lon="6.15992">
        <ele>1588</ele>
        <time>2010-01-01T01:11:05Z</time>
      </trkpt>
      <trkpt lat="44.24688" lon="6.1599">
        <ele>1588</ele>
        <time>2010-01-01T01:11:05Z</time>
      </trkpt>
      <trkpt lat="44.24689" lon="6.15984">
        <ele>1587</ele>
        <time>2010-01-01T01:11:06Z</time>
      </trkpt>
      <trkpt lat="44.2469" lon="6.15979">
        <ele>1586</ele>
        <time>2010-01-01T01:11:07Z</time>
      </trkpt>
      <trkpt lat="44.24691" lon="6.15977">
        <ele>1586</ele>
        <time>2010-01-01T01:11:08Z</time>
      </trkpt>
      <trkpt lat="44.24692" lon="6.15975">
        <ele>1585</ele>
        <time>2010-01-01T01:11:08Z</time>
      </trkpt>
      <trkpt lat="44.24693" lon="6.15974">
        <ele>1586</ele>
        <time>2010-01-01T01:11:09Z</time>
      </trkpt>
      <trkpt lat="44.24694" lon="6.15973">
        <ele>1586</ele>
        <time>2010-01-01T01:11:09Z</time>
      </trkpt>
      <trkpt lat="44.24696" lon="6.15971">
        <ele>1585</ele>
        <time>2010-01-01T01:11:10Z</time>
      </trkpt>
      <trkpt lat="44.24696" lon="6.15969">
        <ele>1585</ele>
        <time>2010-01-01T01:11:10Z</time>
      </trkpt>
      <trkpt lat="44.24696" lon="6.15967">
        <ele>1584</ele>
        <time>2010-01-01T01:11:11Z</time>
      </trkpt>
      <trkpt lat="44.24696" lon="6.15964">
        <ele>1584</ele>
        <time>2010-01-01T01:11:11Z</time>
      </trkpt>
      <trkpt lat="44.24697" lon="6.15951">
        <ele>1581</ele>
        <time>2010-01-01T01:11:13Z</time>
      </trkpt>
      <trkpt lat="44.24697" lon="6.15949">
        <ele>1580</ele>
        <time>2010-01-01T01:11:14Z</time>
      </trkpt>
      <trkpt lat="44.24697" lon="6.15944">
        <ele>1579</ele>
        <time>2010-01-01T01:11:15Z</time>
      </trkpt>
      <trkpt lat="44.24698" lon="6.15935">
        <ele>1577</ele>
        <time>2010-01-01T01:11:17Z</time>
      </trkpt>
      <trkpt lat="44.24698" lon="6.15932">
        <ele>1576</ele>
        <time>2010-01-01T01:11:17Z</time>
      </trkpt>
      <trkpt lat="44.24699" lon="6.15927">
        <ele>1575</ele>
        <time>2010-01-01T01:11:18Z</time>
      </trkpt>
      <trkpt lat="44.24699" lon="6.15924">
        <ele>1574</ele>
        <time>2010-01-01T01:11:19Z</time>
      </trkpt>
      <trkpt lat="44.24699" lon="6.15917">
        <ele>1572</ele>
        <time>2010-01-01T01:11:20Z</time>
      </trkpt>
      <trkpt lat="44.24699" lon="6.15913">
        <ele>1571</ele>
        <time>2010-01-01T01:11:21Z</time>
      </trkpt>
      <trkpt lat="44.24701" lon="6.1591">
        <ele>1571</ele>
        <time>2010-01-01T01:11:21Z</time>
      </trkpt>
      <trkpt lat="44.247" lon="6.15904">
        <ele>1569</ele>
        <time>2010-01-01T01:11:23Z</time>
      </trkpt>
      <trkpt lat="44.24698" lon="6.15898">
        <ele>1568</ele>
        <time>2010-01-01T01:11:24Z</time>
      </trkpt>
      <trkpt lat="44.24698" lon="6.15894">
        <ele>1567</ele>
        <time>2010-01-01T01:11:25Z</time>
      </trkpt>
      <trkpt lat="44.24698" lon="6.1589">
        <ele>1567</ele>
        <time>2010-01-01T01:11:25Z</time>
      </trkpt>
      <trkpt lat="44.24697" lon="6.15881">
        <ele>1565</ele>
        <time>2010-01-01T01:11:27Z</time>
      </trkpt>
      <trkpt lat="44.24697" lon="6.15876">
        <ele>1564</ele>
        <time>2010-01-01T01:11:28Z</time>
      </trkpt>
      <trkpt lat="44.24698" lon="6.15871">
        <ele>1563</ele>
        <time>2010-01-01T01:11:29Z</time>
      </trkpt>
      <trkpt lat="44.24698" lon="6.15865">
        <ele>1562</ele>
        <time>2010-01-01T01:11:30Z</time>
      </trkpt>
      <trkpt lat="44.24697" lon="6.15858">
        <ele>1562</ele>
        <time>2010-01-01T01:11:32Z</time>
      </trkpt>
      <trkpt lat="44.24697" lon="6.15846">
        <ele>1560</ele>
        <time>2010-01-01T01:11:34Z</time>
      </trkpt>
      <trkpt lat="44.24696" lon="6.15842">
        <ele>1560</ele>
        <time>2010-01-01T01:11:35Z</time>
      </trkpt>
      <trkpt lat="44.24694" lon="6.15838">
        <ele>1560</ele>
        <time>2010-01-01T01:11:36Z</time>
      </trkpt>
      <trkpt lat="44.24693" lon="6.15834">
        <ele>1559</ele>
        <time>2010-01-01T01:11:36Z</time>
      </trkpt>
      <trkpt lat="44.24693" lon="6.1583">
        <ele>1559</ele>
        <time>2010-01-01T01:11:37Z</time>
      </trkpt>
      <trkpt lat="44.24693" lon="6.15825">
        <ele>1558</ele>
        <time>2010-01-01T01:11:38Z</time>
      </trkpt>
      <trkpt lat="44.24694" lon="6.15821">
        <ele>1558</ele>
        <time>2010-01-01T01:11:39Z</time>
      </trkpt>
      <trkpt lat="44.24693" lon="6.15815">
        <ele>1556</ele>
        <time>2010-01-01T01:11:40Z</time>
      </trkpt>
      <trkpt lat="44.24691" lon="6.15805">
        <ele>1555</ele>
        <time>2010-01-01T01:11:42Z</time>
      </trkpt>
      <trkpt lat="44.24691" lon="6.15799">
        <ele>1554</ele>
        <time>2010-01-01T01:11:43Z</time>
      </trkpt>
      <trkpt lat="44.24693" lon="6.15794">
        <ele>1553</ele>
        <time>2010-01-01T01:11:44Z</time>
      </trkpt>
      <trkpt lat="44.24697" lon="6.1579">
        <ele>1552</ele>
        <time>2010-01-01T01:11:46Z</time>
      </trkpt>
      <trkpt lat="44.24699" lon="6.15788">
        <ele>1551</ele>
        <time>2010-01-01T01:11:46Z</time>
      </trkpt>
      <trkpt lat="44.24699" lon="6.15787">
        <ele>1551</ele>
        <time>2010-01-01T01:11:46Z</time>
      </trkpt>
      <trkpt lat="44.24699" lon="6.15787">
        <ele>1551</ele>
        <time>2010-01-01T01:11:46Z</time>
      </trkpt>
      <trkpt lat="44.24699" lon="6.15787">
        <ele>1551</ele>
        <time>2010-01-01T01:11:46Z</time>
      </trkpt>
      <trkpt lat="44.24699" lon="6.15779">
        <ele>1550</ele>
        <time>2010-01-01T01:11:48Z</time>
      </trkpt>
      <trkpt lat="44.24698" lon="6.15767">
        <ele>1547</ele>
        <time>2010-01-01T01:11:50Z</time>
      </trkpt>
      <trkpt lat="44.24698" lon="6.1576">
        <ele>1546</ele>
        <time>2010-01-01T01:11:52Z</time>
      </trkpt>
      <trkpt lat="44.24697" lon="6.15753">
        <ele>1544</ele>
        <time>2010-01-01T01:11:53Z</time>
      </trkpt>
      <trkpt lat="44.24695" lon="6.15735">
        <ele>1542</ele>
        <time>2010-01-01T01:11:56Z</time>
      </trkpt>
      <trkpt lat="44.24694" lon="6.15727">
        <ele>1540</ele>
        <time>2010-01-01T01:11:58Z</time>
      </trkpt>
      <trkpt lat="44.24693" lon="6.15719">
        <ele>1539</ele>
        <time>2010-01-01T01:12:00Z</time>
      </trkpt>
      <trkpt lat="44.24688" lon="6.15698">
        <ele>1538</ele>
        <time>2010-01-01T01:12:04Z</time>
      </trkpt>
      <trkpt lat="44.24688" lon="6.15691">
        <ele>1537</ele>
        <time>2010-01-01T01:12:05Z</time>
      </trkpt>
      <trkpt lat="44.24685" lon="6.15681">
        <ele>1537</ele>
        <time>2010-01-01T01:12:07Z</time>
      </trkpt>
      <trkpt lat="44.24683" lon="6.15679">
        <ele>1537</ele>
        <time>2010-01-01T01:12:08Z</time>
      </trkpt>
      <trkpt lat="44.24677" lon="6.15668">
        <ele>1537</ele>
        <time>2010-01-01T01:12:11Z</time>
      </trkpt>
      <trkpt lat="44.24677" lon="6.1566">
        <ele>1536</ele>
        <time>2010-01-01T01:12:12Z</time>
      </trkpt>
      <trkpt lat="44.24678" lon="6.15655">
        <ele>1535</ele>
        <time>2010-01-01T01:12:13Z</time>
      </trkpt>
      <trkpt lat="44.24676" lon="6.15643">
        <ele>1533</ele>
        <time>2010-01-01T01:12:16Z</time>
      </trkpt>
      <trkpt lat="44.24675" lon="6.15636">
        <ele>1531</ele>
        <time>2010-01-01T01:12:17Z</time>
      </trkpt>
      <trkpt lat="44.24673" lon="6.15614">
        <ele>1529</ele>
        <time>2010-01-01T01:12:21Z</time>
      </trkpt>
      <trkpt lat="44.24675" lon="6.15605">
        <ele>1529</ele>
        <time>2010-01-01T01:12:23Z</time>
      </trkpt>
      <trkpt lat="44.24679" lon="6.15598">
        <ele>1529</ele>
        <time>2010-01-01T01:12:24Z</time>
      </trkpt>
      <trkpt lat="44.24681" lon="6.15596">
        <ele>1529</ele>
        <time>2010-01-01T01:12:25Z</time>
      </trkpt>
      <trkpt lat="44.24685" lon="6.15593">
        <ele>1529</ele>
        <time>2010-01-01T01:12:26Z</time>
      </trkpt>
      <trkpt lat="44.24688" lon="6.15589">
        <ele>1530</ele>
        <time>2010-01-01T01:12:27Z</time>
      </trkpt>
      <trkpt lat="44.2469" lon="6.15585">
        <ele>1530</ele>
        <time>2010-01-01T01:12:29Z</time>
      </trkpt>
      <trkpt lat="44.24694" lon="6.15579">
        <ele>1530</ele>
        <time>2010-01-01T01:12:30Z</time>
      </trkpt>
      <trkpt lat="44.24697" lon="6.15578">
        <ele>1529</ele>
        <time>2010-01-01T01:12:31Z</time>
      </trkpt>
      <trkpt lat="44.24701" lon="6.15572">
        <ele>1526</ele>
        <time>2010-01-01T01:12:32Z</time>
      </trkpt>
      <trkpt lat="44.247" lon="6.15566">
        <ele>1526</ele>
        <time>2010-01-01T01:12:34Z</time>
      </trkpt>
      <trkpt lat="44.24699" lon="6.1556">
        <ele>1526</ele>
        <time>2010-01-01T01:12:35Z</time>
      </trkpt>
      <trkpt lat="44.24698" lon="6.15556">
        <ele>1526</ele>
        <time>2010-01-01T01:12:36Z</time>
      </trkpt>
      <trkpt lat="44.24698" lon="6.15549">
        <ele>1526</ele>
        <time>2010-01-01T01:12:37Z</time>
      </trkpt>
      <trkpt lat="44.24698" lon="6.15547">
        <ele>1525</ele>
        <time>2010-01-01T01:12:37Z</time>
      </trkpt>
      <trkpt lat="44.24697" lon="6.15542">
        <ele>1526</ele>
        <time>2010-01-01T01:12:38Z</time>
      </trkpt>
      <trkpt lat="44.24697" lon="6.1554">
        <ele>1525</ele>
        <time>2010-01-01T01:12:39Z</time>
      </trkpt>
      <trkpt lat="44.24697" lon="6.15539">
        <ele>1525</ele>
        <time>2010-01-01T01:12:39Z</time>
      </trkpt>
      <trkpt lat="44.24697" lon="6.15531">
        <ele>1525</ele>
        <time>2010-01-01T01:12:40Z</time>
      </trkpt>
      <trkpt lat="44.24697" lon="6.15526">
        <ele>1525</ele>
        <time>2010-01-01T01:12:41Z</time>
      </trkpt>
      <trkpt lat="44.24696" lon="6.15521">
        <ele>1525</ele>
        <time>2010-01-01T01:12:42Z</time>
      </trkpt>
      <trkpt lat="44.24696" lon="6.15521">
        <ele>1525</ele>
        <time>2010-01-01T01:12:43Z</time>
      </trkpt>
      <trkpt lat="44.24697" lon="6.15517">
        <ele>1524</ele>
        <time>2010-01-01T01:12:43Z</time>
      </trkpt>
      <trkpt lat="44.24696" lon="6.15514">
        <ele>1525</ele>
        <time>2010-01-01T01:12:44Z</time>
      </trkpt>
      <trkpt lat="44.24696" lon="6.15512">
        <ele>1525</ele>
        <time>2010-01-01T01:12:44Z</time>
      </trkpt>
      <trkpt lat="44.24695" lon="6.15501">
        <ele>1524</ele>
        <time>2010-01-01T01:12:46Z</time>
      </trkpt>
      <trkpt lat="44.24694" lon="6.15494">
        <ele>1524</ele>
        <time>2010-01-01T01:12:48Z</time>
      </trkpt>
      <trkpt lat="44.24694" lon="6.15487">
        <ele>1524</ele>
        <time>2010-01-01T01:12:49Z</time>
      </trkpt>
      <trkpt lat="44.24694" lon="6.15484">
        <ele>1524</ele>
        <time>2010-01-01T01:12:50Z</time>
      </trkpt>
      <trkpt lat="44.24693" lon="6.15482">
        <ele>1524</ele>
        <time>2010-01-01T01:12:50Z</time>
      </trkpt>
      <trkpt lat="44.24693" lon="6.1548">
        <ele>1524</ele>
        <time>2010-01-01T01:12:50Z</time>
      </trkpt>
      <trkpt lat="44.2469" lon="6.15473">
        <ele>1524</ele>
        <time>2010-01-01T01:12:52Z</time>
      </trkpt>
      <trkpt lat="44.24688" lon="6.15459">
        <ele>1523</ele>
        <time>2010-01-01T01:12:55Z</time>
      </trkpt>
      <trkpt lat="44.24685" lon="6.15452">
        <ele>1523</ele>
        <time>2010-01-01T01:12:56Z</time>
      </trkpt>
      <trkpt lat="44.24682" lon="6.15435">
        <ele>1521</ele>
        <time>2010-01-01T01:13:00Z</time>
      </trkpt>
      <trkpt lat="44.24682" lon="6.15417">
        <ele>1517</ele>
        <time>2010-01-01T01:13:03Z</time>
      </trkpt>
      <trkpt lat="44.24681" lon="6.15415">
        <ele>1517</ele>
        <time>2010-01-01T01:13:04Z</time>
      </trkpt>
      <trkpt lat="44.24681" lon="6.15413">
        <ele>1517</ele>
        <time>2010-01-01T01:13:04Z</time>
      </trkpt>
      <trkpt lat="44.2468" lon="6.15413">
        <ele>1517</ele>
        <time>2010-01-01T01:13:04Z</time>
      </trkpt>
      <trkpt lat="44.2468" lon="6.15409">
        <ele>1516</ele>
        <time>2010-01-01T01:13:05Z</time>
      </trkpt>
      <trkpt lat="44.24679" lon="6.15405">
        <ele>1516</ele>
        <time>2010-01-01T01:13:05Z</time>
      </trkpt>
      <trkpt lat="44.24679" lon="6.15401">
        <ele>1515</ele>
        <time>2010-01-01T01:13:06Z</time>
      </trkpt>
      <trkpt lat="44.24678" lon="6.15395">
        <ele>1514</ele>
        <time>2010-01-01T01:13:07Z</time>
      </trkpt>
      <trkpt lat="44.24678" lon="6.15395">
        <ele>1514</ele>
        <time>2010-01-01T01:13:08Z</time>
      </trkpt>
      <trkpt lat="44.24678" lon="6.15394">
        <ele>1514</ele>
        <time>2010-01-01T01:13:08Z</time>
      </trkpt>
      <trkpt lat="44.24678" lon="6.15394">
        <ele>1514</ele>
        <time>2010-01-01T01:13:08Z</time>
      </trkpt>
      <trkpt lat="44.24678" lon="6.15389">
        <ele>1513</ele>
        <time>2010-01-01T01:13:09Z</time>
      </trkpt>
      <trkpt lat="44.24678" lon="6.15385">
        <ele>1512</ele>
        <time>2010-01-01T01:13:09Z</time>
      </trkpt>
      <trkpt lat="44.24676" lon="6.15375">
        <ele>1511</ele>
        <time>2010-01-01T01:13:11Z</time>
      </trkpt>
      <trkpt lat="44.24675" lon="6.15373">
        <ele>1511</ele>
        <time>2010-01-01T01:13:12Z</time>
      </trkpt>
      <trkpt lat="44.24675" lon="6.15369">
        <ele>1510</ele>
        <time>2010-01-01T01:13:13Z</time>
      </trkpt>
      <trkpt lat="44.24675" lon="6.15363">
        <ele>1509</ele>
        <time>2010-01-01T01:13:14Z</time>
      </trkpt>
      <trkpt lat="44.24673" lon="6.15356">
        <ele>1508</ele>
        <time>2010-01-01T01:13:15Z</time>
      </trkpt>
      <trkpt lat="44.24673" lon="6.15354">
        <ele>1507</ele>
        <time>2010-01-01T01:13:16Z</time>
      </trkpt>
      <trkpt lat="44.24673" lon="6.15351">
        <ele>1507</ele>
        <time>2010-01-01T01:13:16Z</time>
      </trkpt>
      <trkpt lat="44.24672" lon="6.15349">
        <ele>1507</ele>
        <time>2010-01-01T01:13:17Z</time>
      </trkpt>
      <trkpt lat="44.24671" lon="6.15347">
        <ele>1507</ele>
        <time>2010-01-01T01:13:17Z</time>
      </trkpt>
      <trkpt lat="44.2467" lon="6.15345">
        <ele>1506</ele>
        <time>2010-01-01T01:13:17Z</time>
      </trkpt>
      <trkpt lat="44.2467" lon="6.15342">
        <ele>1506</ele>
        <time>2010-01-01T01:13:18Z</time>
      </trkpt>
      <trkpt lat="44.2467" lon="6.15339">
        <ele>1505</ele>
        <time>2010-01-01T01:13:19Z</time>
      </trkpt>
      <trkpt lat="44.2467" lon="6.15334">
        <ele>1504</ele>
        <time>2010-01-01T01:13:20Z</time>
      </trkpt>
      <trkpt lat="44.24669" lon="6.15325">
        <ele>1503</ele>
        <time>2010-01-01T01:13:21Z</time>
      </trkpt>
      <trkpt lat="44.24667" lon="6.15322">
        <ele>1504</ele>
        <time>2010-01-01T01:13:22Z</time>
      </trkpt>
      <trkpt lat="44.24666" lon="6.15322">
        <ele>1504</ele>
        <time>2010-01-01T01:13:22Z</time>
      </trkpt>
      <trkpt lat="44.24666" lon="6.15322">
        <ele>1503</ele>
        <time>2010-01-01T01:13:22Z</time>
      </trkpt>
      <trkpt lat="44.24665" lon="6.15319">
        <ele>1503</ele>
        <time>2010-01-01T01:13:23Z</time>
      </trkpt>
      <trkpt lat="44.24665" lon="6.15317">
        <ele>1502</ele>
        <time>2010-01-01T01:13:23Z</time>
      </trkpt>
      <trkpt lat="44.24665" lon="6.15316">
        <ele>1502</ele>
        <time>2010-01-01T01:13:23Z</time>
      </trkpt>
      <trkpt lat="44.24665" lon="6.15316">
        <ele>1502</ele>
        <time>2010-01-01T01:13:23Z</time>
      </trkpt>
      <trkpt lat="44.24665" lon="6.15316">
        <ele>1502</ele>
        <time>2010-01-01T01:13:23Z</time>
      </trkpt>
      <trkpt lat="44.24664" lon="6.15315">
        <ele>1502</ele>
        <time>2010-01-01T01:13:24Z</time>
      </trkpt>
      <trkpt lat="44.24664" lon="6.15315">
        <ele>1502</ele>
        <time>2010-01-01T01:13:24Z</time>
      </trkpt>
      <trkpt lat="44.24664" lon="6.15314">
        <ele>1502</ele>
        <time>2010-01-01T01:13:24Z</time>
      </trkpt>
      <trkpt lat="44.24662" lon="6.15311">
        <ele>1501</ele>
        <time>2010-01-01T01:13:25Z</time>
      </trkpt>
      <trkpt lat="44.2466" lon="6.15305">
        <ele>1500</ele>
        <time>2010-01-01T01:13:26Z</time>
      </trkpt>
      <trkpt lat="44.24659" lon="6.15302">
        <ele>1499</ele>
        <time>2010-01-01T01:13:27Z</time>
      </trkpt>
      <trkpt lat="44.24657" lon="6.153">
        <ele>1499</ele>
        <time>2010-01-01T01:13:27Z</time>
      </trkpt>
      <trkpt lat="44.24656" lon="6.15299">
        <ele>1499</ele>
        <time>2010-01-01T01:13:28Z</time>
      </trkpt>
      <trkpt lat="44.24651" lon="6.15296">
        <ele>1498</ele>
        <time>2010-01-01T01:13:29Z</time>
      </trkpt>
      <trkpt lat="44.24649" lon="6.15293">
        <ele>1498</ele>
        <time>2010-01-01T01:13:30Z</time>
      </trkpt>
      <trkpt lat="44.24648" lon="6.15291">
        <ele>1497</ele>
        <time>2010-01-01T01:13:30Z</time>
      </trkpt>
      <trkpt lat="44.24647" lon="6.1529">
        <ele>1497</ele>
        <time>2010-01-01T01:13:31Z</time>
      </trkpt>
      <trkpt lat="44.24646" lon="6.15285">
        <ele>1496</ele>
        <time>2010-01-01T01:13:32Z</time>
      </trkpt>
      <trkpt lat="44.24645" lon="6.15282">
        <ele>1496</ele>
        <time>2010-01-01T01:13:32Z</time>
      </trkpt>
      <trkpt lat="44.24644" lon="6.15281">
        <ele>1495</ele>
        <time>2010-01-01T01:13:32Z</time>
      </trkpt>
      <trkpt lat="44.24643" lon="6.15278">
        <ele>1495</ele>
        <time>2010-01-01T01:13:33Z</time>
      </trkpt>
      <trkpt lat="44.24643" lon="6.15275">
        <ele>1494</ele>
        <time>2010-01-01T01:13:34Z</time>
      </trkpt>
      <trkpt lat="44.24643" lon="6.15271">
        <ele>1494</ele>
        <time>2010-01-01T01:13:34Z</time>
      </trkpt>
      <trkpt lat="44.24643" lon="6.15269">
        <ele>1493</ele>
        <time>2010-01-01T01:13:35Z</time>
      </trkpt>
      <trkpt lat="44.24642" lon="6.15262">
        <ele>1492</ele>
        <time>2010-01-01T01:13:36Z</time>
      </trkpt>
      <trkpt lat="44.24642" lon="6.15261">
        <ele>1492</ele>
        <time>2010-01-01T01:13:36Z</time>
      </trkpt>
      <trkpt lat="44.24642" lon="6.15261">
        <ele>1492</ele>
        <time>2010-01-01T01:13:36Z</time>
      </trkpt>
      <trkpt lat="44.24642" lon="6.15261">
        <ele>1492</ele>
        <time>2010-01-01T01:13:36Z</time>
      </trkpt>
      <trkpt lat="44.24642" lon="6.15256">
        <ele>1490</ele>
        <time>2010-01-01T01:13:37Z</time>
      </trkpt>
      <trkpt lat="44.24642" lon="6.15249">
        <ele>1489</ele>
        <time>2010-01-01T01:13:39Z</time>
      </trkpt>
      <trkpt lat="44.24643" lon="6.15241">
        <ele>1487</ele>
        <time>2010-01-01T01:13:40Z</time>
      </trkpt>
      <trkpt lat="44.24647" lon="6.15234">
        <ele>1486</ele>
        <time>2010-01-01T01:13:42Z</time>
      </trkpt>
      <trkpt lat="44.24649" lon="6.15231">
        <ele>1485</ele>
        <time>2010-01-01T01:13:43Z</time>
      </trkpt>
      <trkpt lat="44.24651" lon="6.15228">
        <ele>1484</ele>
        <time>2010-01-01T01:13:44Z</time>
      </trkpt>
      <trkpt lat="44.24652" lon="6.15225">
        <ele>1483</ele>
        <time>2010-01-01T01:13:44Z</time>
      </trkpt>
      <trkpt lat="44.24654" lon="6.1522">
        <ele>1482</ele>
        <time>2010-01-01T01:13:45Z</time>
      </trkpt>
      <trkpt lat="44.24656" lon="6.15216">
        <ele>1481</ele>
        <time>2010-01-01T01:13:46Z</time>
      </trkpt>
      <trkpt lat="44.24657" lon="6.15212">
        <ele>1480</ele>
        <time>2010-01-01T01:13:47Z</time>
      </trkpt>
      <trkpt lat="44.24659" lon="6.15208">
        <ele>1480</ele>
        <time>2010-01-01T01:13:48Z</time>
      </trkpt>
      <trkpt lat="44.24659" lon="6.15205">
        <ele>1479</ele>
        <time>2010-01-01T01:13:49Z</time>
      </trkpt>
      <trkpt lat="44.24655" lon="6.15198">
        <ele>1479</ele>
        <time>2010-01-01T01:13:50Z</time>
      </trkpt>
      <trkpt lat="44.24653" lon="6.15196">
        <ele>1479</ele>
        <time>2010-01-01T01:13:51Z</time>
      </trkpt>
      <trkpt lat="44.24653" lon="6.15196">
        <ele>1479</ele>
        <time>2010-01-01T01:13:51Z</time>
      </trkpt>
      <trkpt lat="44.24647" lon="6.1519">
        <ele>1479</ele>
        <time>2010-01-01T01:13:53Z</time>
      </trkpt>
      <trkpt lat="44.24645" lon="6.15188">
        <ele>1479</ele>
        <time>2010-01-01T01:13:54Z</time>
      </trkpt>
      <trkpt lat="44.24641" lon="6.15177">
        <ele>1478</ele>
        <time>2010-01-01T01:13:56Z</time>
      </trkpt>
      <trkpt lat="44.24646" lon="6.15165">
        <ele>1477</ele>
        <time>2010-01-01T01:13:58Z</time>
      </trkpt>
      <trkpt lat="44.24646" lon="6.15163">
        <ele>1477</ele>
        <time>2010-01-01T01:13:59Z</time>
      </trkpt>
      <trkpt lat="44.24645" lon="6.15161">
        <ele>1477</ele>
        <time>2010-01-01T01:13:59Z</time>
      </trkpt>
      <trkpt lat="44.24641" lon="6.15153">
        <ele>1476</ele>
        <time>2010-01-01T01:14:01Z</time>
      </trkpt>
      <trkpt lat="44.24639" lon="6.15149">
        <ele>1476</ele>
        <time>2010-01-01T01:14:02Z</time>
      </trkpt>
      <trkpt lat="44.24639" lon="6.15146">
        <ele>1476</ele>
        <time>2010-01-01T01:14:03Z</time>
      </trkpt>
      <trkpt lat="44.2464" lon="6.15141">
        <ele>1476</ele>
        <time>2010-01-01T01:14:04Z</time>
      </trkpt>
      <trkpt lat="44.24641" lon="6.1513">
        <ele>1474</ele>
        <time>2010-01-01T01:14:06Z</time>
      </trkpt>
      <trkpt lat="44.24641" lon="6.15125">
        <ele>1474</ele>
        <time>2010-01-01T01:14:07Z</time>
      </trkpt>
      <trkpt lat="44.24641" lon="6.15115">
        <ele>1473</ele>
        <time>2010-01-01T01:14:09Z</time>
      </trkpt>
      <trkpt lat="44.24638" lon="6.15111">
        <ele>1472</ele>
        <time>2010-01-01T01:14:10Z</time>
      </trkpt>
      <trkpt lat="44.24635" lon="6.15102">
        <ele>1471</ele>
        <time>2010-01-01T01:14:12Z</time>
      </trkpt>
      <trkpt lat="44.24635" lon="6.15096">
        <ele>1471</ele>
        <time>2010-01-01T01:14:13Z</time>
      </trkpt>
      <trkpt lat="44.24636" lon="6.15091">
        <ele>1470</ele>
        <time>2010-01-01T01:14:14Z</time>
      </trkpt>
      <trkpt lat="44.24638" lon="6.15087">
        <ele>1470</ele>
        <time>2010-01-01T01:14:15Z</time>
      </trkpt>
      <trkpt lat="44.24641" lon="6.15085">
        <ele>1469</ele>
        <time>2010-01-01T01:14:16Z</time>
      </trkpt>
      <trkpt lat="44.24641" lon="6.15085">
        <ele>1469</ele>
        <time>2010-01-01T01:14:16Z</time>
      </trkpt>
      <trkpt lat="44.2464" lon="6.15084">
        <ele>1469</ele>
        <time>2010-01-01T01:14:16Z</time>
      </trkpt>
      <trkpt lat="44.24639" lon="6.15084">
        <ele>1470</ele>
        <time>2010-01-01T01:14:16Z</time>
      </trkpt>
      <trkpt lat="44.24636" lon="6.15083">
        <ele>1469</ele>
        <time>2010-01-01T01:14:17Z</time>
      </trkpt>
      <trkpt lat="44.24632" lon="6.15082">
        <ele>1469</ele>
        <time>2010-01-01T01:14:18Z</time>
      </trkpt>
      <trkpt lat="44.24636" lon="6.15079">
        <ele>1469</ele>
        <time>2010-01-01T01:14:20Z</time>
      </trkpt>
      <trkpt lat="44.2464" lon="6.1508">
        <ele>1469</ele>
        <time>2010-01-01T01:14:21Z</time>
      </trkpt>
      <trkpt lat="44.24641" lon="6.15079">
        <ele>1468</ele>
        <time>2010-01-01T01:14:21Z</time>
      </trkpt>
      <trkpt lat="44.24647" lon="6.15078">
        <ele>1467</ele>
        <time>2010-01-01T01:14:23Z</time>
      </trkpt>
      <trkpt lat="44.2465" lon="6.15078">
        <ele>1466</ele>
        <time>2010-01-01T01:14:23Z</time>
      </trkpt>
      <trkpt lat="44.24654" lon="6.15078">
        <ele>1465</ele>
        <time>2010-01-01T01:14:24Z</time>
      </trkpt>
      <trkpt lat="44.24659" lon="6.15078">
        <ele>1464</ele>
        <time>2010-01-01T01:14:26Z</time>
      </trkpt>
      <trkpt lat="44.24661" lon="6.15076">
        <ele>1463</ele>
        <time>2010-01-01T01:14:26Z</time>
      </trkpt>
      <trkpt lat="44.24664" lon="6.15076">
        <ele>1463</ele>
        <time>2010-01-01T01:14:27Z</time>
      </trkpt>
      <trkpt lat="44.24671" lon="6.15076">
        <ele>1460</ele>
        <time>2010-01-01T01:14:29Z</time>
      </trkpt>
      <trkpt lat="44.24675" lon="6.15077">
        <ele>1459</ele>
        <time>2010-01-01T01:14:30Z</time>
      </trkpt>
      <trkpt lat="44.24679" lon="6.15078">
        <ele>1457</ele>
        <time>2010-01-01T01:14:31Z</time>
      </trkpt>
      <trkpt lat="44.24683" lon="6.1508">
        <ele>1456</ele>
        <time>2010-01-01T01:14:32Z</time>
      </trkpt>
      <trkpt lat="44.24687" lon="6.15082">
        <ele>1454</ele>
        <time>2010-01-01T01:14:34Z</time>
      </trkpt>
      <trkpt lat="44.24691" lon="6.15084">
        <ele>1453</ele>
        <time>2010-01-01T01:14:35Z</time>
      </trkpt>
      <trkpt lat="44.24694" lon="6.15086">
        <ele>1452</ele>
        <time>2010-01-01T01:14:36Z</time>
      </trkpt>
      <trkpt lat="44.24699" lon="6.1509">
        <ele>1450</ele>
        <time>2010-01-01T01:14:37Z</time>
      </trkpt>
      <trkpt lat="44.24704" lon="6.15095">
        <ele>1449</ele>
        <time>2010-01-01T01:14:39Z</time>
      </trkpt>
      <trkpt lat="44.24707" lon="6.15103">
        <ele>1448</ele>
        <time>2010-01-01T01:14:40Z</time>
      </trkpt>
      <trkpt lat="44.24709" lon="6.15112">
        <ele>1448</ele>
        <time>2010-01-01T01:14:42Z</time>
      </trkpt>
      <trkpt lat="44.2471" lon="6.15117">
        <ele>1449</ele>
        <time>2010-01-01T01:14:43Z</time>
      </trkpt>
      <trkpt lat="44.24712" lon="6.1512">
        <ele>1449</ele>
        <time>2010-01-01T01:14:44Z</time>
      </trkpt>
      <trkpt lat="44.24713" lon="6.1512">
        <ele>1448</ele>
        <time>2010-01-01T01:14:44Z</time>
      </trkpt>
      <trkpt lat="44.24715" lon="6.15118">
        <ele>1446</ele>
        <time>2010-01-01T01:14:45Z</time>
      </trkpt>
      <trkpt lat="44.24714" lon="6.15111">
        <ele>1445</ele>
        <time>2010-01-01T01:14:46Z</time>
      </trkpt>
      <trkpt lat="44.24716" lon="6.15107">
        <ele>1444</ele>
        <time>2010-01-01T01:14:47Z</time>
      </trkpt>
      <trkpt lat="44.24718" lon="6.15108">
        <ele>1443</ele>
        <time>2010-01-01T01:14:48Z</time>
      </trkpt>
      <trkpt lat="44.24721" lon="6.15113">
        <ele>1442</ele>
        <time>2010-01-01T01:14:49Z</time>
      </trkpt>
      <trkpt lat="44.24722" lon="6.15118">
        <ele>1442</ele>
        <time>2010-01-01T01:14:50Z</time>
      </trkpt>
      <trkpt lat="44.24725" lon="6.15122">
        <ele>1441</ele>
        <time>2010-01-01T01:14:51Z</time>
      </trkpt>
      <trkpt lat="44.24727" lon="6.15128">
        <ele>1441</ele>
        <time>2010-01-01T01:14:52Z</time>
      </trkpt>
      <trkpt lat="44.24727" lon="6.15134">
        <ele>1441</ele>
        <time>2010-01-01T01:14:53Z</time>
      </trkpt>
      <trkpt lat="44.24728" lon="6.15143">
        <ele>1442</ele>
        <time>2010-01-01T01:14:55Z</time>
      </trkpt>
      <trkpt lat="44.2473" lon="6.15148">
        <ele>1442</ele>
        <time>2010-01-01T01:14:56Z</time>
      </trkpt>
      <trkpt lat="44.24734" lon="6.15157">
        <ele>1439</ele>
        <time>2010-01-01T01:14:58Z</time>
      </trkpt>
      <trkpt lat="44.24736" lon="6.15162">
        <ele>1438</ele>
        <time>2010-01-01T01:14:59Z</time>
      </trkpt>
      <trkpt lat="44.24736" lon="6.15166">
        <ele>1438</ele>
        <time>2010-01-01T01:15:00Z</time>
      </trkpt>
      <trkpt lat="44.24739" lon="6.15172">
        <ele>1436</ele>
        <time>2010-01-01T01:15:02Z</time>
      </trkpt>
      <trkpt lat="44.24741" lon="6.15176">
        <ele>1435</ele>
        <time>2010-01-01T01:15:02Z</time>
      </trkpt>
      <trkpt lat="44.24743" lon="6.15179">
        <ele>1433</ele>
        <time>2010-01-01T01:15:03Z</time>
      </trkpt>
      <trkpt lat="44.24746" lon="6.15183">
        <ele>1431</ele>
        <time>2010-01-01T01:15:04Z</time>
      </trkpt>
      <trkpt lat="44.24748" lon="6.15187">
        <ele>1429</ele>
        <time>2010-01-01T01:15:05Z</time>
      </trkpt>
      <trkpt lat="44.2475" lon="6.15191">
        <ele>1427</ele>
        <time>2010-01-01T01:15:06Z</time>
      </trkpt>
      <trkpt lat="44.24752" lon="6.15196">
        <ele>1426</ele>
        <time>2010-01-01T01:15:07Z</time>
      </trkpt>
      <trkpt lat="44.24754" lon="6.15202">
        <ele>1425</ele>
        <time>2010-01-01T01:15:09Z</time>
      </trkpt>
      <trkpt lat="44.24755" lon="6.15207">
        <ele>1424</ele>
        <time>2010-01-01T01:15:09Z</time>
      </trkpt>
      <trkpt lat="44.24757" lon="6.15212">
        <ele>1423</ele>
        <time>2010-01-01T01:15:10Z</time>
      </trkpt>
      <trkpt lat="44.2476" lon="6.15222">
        <ele>1421</ele>
        <time>2010-01-01T01:15:13Z</time>
      </trkpt>
      <trkpt lat="44.24761" lon="6.15225">
        <ele>1420</ele>
        <time>2010-01-01T01:15:13Z</time>
      </trkpt>
      <trkpt lat="44.24763" lon="6.15227">
        <ele>1420</ele>
        <time>2010-01-01T01:15:14Z</time>
      </trkpt>
      <trkpt lat="44.24765" lon="6.1523">
        <ele>1418</ele>
        <time>2010-01-01T01:15:15Z</time>
      </trkpt>
      <trkpt lat="44.24769" lon="6.15236">
        <ele>1416</ele>
        <time>2010-01-01T01:15:16Z</time>
      </trkpt>
      <trkpt lat="44.24771" lon="6.15241">
        <ele>1416</ele>
        <time>2010-01-01T01:15:17Z</time>
      </trkpt>
      <trkpt lat="44.24773" lon="6.15245">
        <ele>1415</ele>
        <time>2010-01-01T01:15:18Z</time>
      </trkpt>
      <trkpt lat="44.24776" lon="6.15249">
        <ele>1414</ele>
        <time>2010-01-01T01:15:19Z</time>
      </trkpt>
      <trkpt lat="44.24778" lon="6.15253">
        <ele>1413</ele>
        <time>2010-01-01T01:15:20Z</time>
      </trkpt>
      <trkpt lat="44.2478" lon="6.15259">
        <ele>1413</ele>
        <time>2010-01-01T01:15:22Z</time>
      </trkpt>
      <trkpt lat="44.24781" lon="6.15264">
        <ele>1413</ele>
        <time>2010-01-01T01:15:23Z</time>
      </trkpt>
      <trkpt lat="44.24782" lon="6.15267">
        <ele>1413</ele>
        <time>2010-01-01T01:15:23Z</time>
      </trkpt>
      <trkpt lat="44.24783" lon="6.1527">
        <ele>1413</ele>
        <time>2010-01-01T01:15:24Z</time>
      </trkpt>
      <trkpt lat="44.24783" lon="6.15272">
        <ele>1413</ele>
        <time>2010-01-01T01:15:24Z</time>
      </trkpt>
      <trkpt lat="44.24784" lon="6.15276">
        <ele>1413</ele>
        <time>2010-01-01T01:15:25Z</time>
      </trkpt>
      <trkpt lat="44.24785" lon="6.15279">
        <ele>1413</ele>
        <time>2010-01-01T01:15:26Z</time>
      </trkpt>
      <trkpt lat="44.24786" lon="6.15279">
        <ele>1413</ele>
        <time>2010-01-01T01:15:26Z</time>
      </trkpt>
      <trkpt lat="44.24786" lon="6.15276">
        <ele>1412</ele>
        <time>2010-01-01T01:15:27Z</time>
      </trkpt>
      <trkpt lat="44.24786" lon="6.15274">
        <ele>1412</ele>
        <time>2010-01-01T01:15:27Z</time>
      </trkpt>
      <trkpt lat="44.24786" lon="6.15272">
        <ele>1412</ele>
        <time>2010-01-01T01:15:27Z</time>
      </trkpt>
      <trkpt lat="44.24789" lon="6.15273">
        <ele>1410</ele>
        <time>2010-01-01T01:15:28Z</time>
      </trkpt>
      <trkpt lat="44.24791" lon="6.15277">
        <ele>1410</ele>
        <time>2010-01-01T01:15:29Z</time>
      </trkpt>
      <trkpt lat="44.24794" lon="6.1528">
        <ele>1409</ele>
        <time>2010-01-01T01:15:30Z</time>
      </trkpt>
      <trkpt lat="44.24796" lon="6.15282">
        <ele>1409</ele>
        <time>2010-01-01T01:15:31Z</time>
      </trkpt>
      <trkpt lat="44.248" lon="6.15285">
        <ele>1408</ele>
        <time>2010-01-01T01:15:32Z</time>
      </trkpt>
      <trkpt lat="44.24804" lon="6.15289">
        <ele>1407</ele>
        <time>2010-01-01T01:15:33Z</time>
      </trkpt>
      <trkpt lat="44.24809" lon="6.15292">
        <ele>1405</ele>
        <time>2010-01-01T01:15:35Z</time>
      </trkpt>
      <trkpt lat="44.24812" lon="6.15297">
        <ele>1404</ele>
        <time>2010-01-01T01:15:36Z</time>
      </trkpt>
      <trkpt lat="44.24815" lon="6.15302">
        <ele>1403</ele>
        <time>2010-01-01T01:15:37Z</time>
      </trkpt>
      <trkpt lat="44.2482" lon="6.15308">
        <ele>1402</ele>
        <time>2010-01-01T01:15:39Z</time>
      </trkpt>
      <trkpt lat="44.24823" lon="6.15311">
        <ele>1401</ele>
        <time>2010-01-01T01:15:40Z</time>
      </trkpt>
      <trkpt lat="44.24825" lon="6.15314">
        <ele>1400</ele>
        <time>2010-01-01T01:15:41Z</time>
      </trkpt>
      <trkpt lat="44.24832" lon="6.15324">
        <ele>1398</ele>
        <time>2010-01-01T01:15:43Z</time>
      </trkpt>
      <trkpt lat="44.24835" lon="6.1533">
        <ele>1398</ele>
        <time>2010-01-01T01:15:45Z</time>
      </trkpt>
      <trkpt lat="44.24836" lon="6.15335">
        <ele>1398</ele>
        <time>2010-01-01T01:15:46Z</time>
      </trkpt>
      <trkpt lat="44.24841" lon="6.15341">
        <ele>1397</ele>
        <time>2010-01-01T01:15:47Z</time>
      </trkpt>
      <trkpt lat="44.24843" lon="6.15344">
        <ele>1396</ele>
        <time>2010-01-01T01:15:48Z</time>
      </trkpt>
      <trkpt lat="44.24846" lon="6.15347">
        <ele>1394</ele>
        <time>2010-01-01T01:15:49Z</time>
      </trkpt>
      <trkpt lat="44.2485" lon="6.15348">
        <ele>1393</ele>
        <time>2010-01-01T01:15:50Z</time>
      </trkpt>
      <trkpt lat="44.24853" lon="6.15348">
        <ele>1391</ele>
        <time>2010-01-01T01:15:51Z</time>
      </trkpt>
      <trkpt lat="44.24861" lon="6.15346">
        <ele>1387</ele>
        <time>2010-01-01T01:15:53Z</time>
      </trkpt>
      <trkpt lat="44.24866" lon="6.15344">
        <ele>1385</ele>
        <time>2010-01-01T01:15:55Z</time>
      </trkpt>
      <trkpt lat="44.2487" lon="6.15342">
        <ele>1384</ele>
        <time>2010-01-01T01:15:56Z</time>
      </trkpt>
      <trkpt lat="44.24875" lon="6.15341">
        <ele>1382</ele>
        <time>2010-01-01T01:15:57Z</time>
      </trkpt>
      <trkpt lat="44.24881" lon="6.15341">
        <ele>1381</ele>
        <time>2010-01-01T01:15:59Z</time>
      </trkpt>
      <trkpt lat="44.24885" lon="6.15342">
        <ele>1380</ele>
        <time>2010-01-01T01:16:00Z</time>
      </trkpt>
      <trkpt lat="44.2489" lon="6.15343">
        <ele>1379</ele>
        <time>2010-01-01T01:16:01Z</time>
      </trkpt>
      <trkpt lat="44.24896" lon="6.15344">
        <ele>1377</ele>
        <time>2010-01-01T01:16:03Z</time>
      </trkpt>
      <trkpt lat="44.24899" lon="6.15342">
        <ele>1377</ele>
        <time>2010-01-01T01:16:04Z</time>
      </trkpt>
      <trkpt lat="44.249" lon="6.15339">
        <ele>1376</ele>
        <time>2010-01-01T01:16:04Z</time>
      </trkpt>
      <trkpt lat="44.24902" lon="6.15338">
        <ele>1375</ele>
        <time>2010-01-01T01:16:05Z</time>
      </trkpt>
      <trkpt lat="44.24908" lon="6.15331">
        <ele>1373</ele>
        <time>2010-01-01T01:16:07Z</time>
      </trkpt>
      <trkpt lat="44.24909" lon="6.15327">
        <ele>1372</ele>
        <time>2010-01-01T01:16:08Z</time>
      </trkpt>
      <trkpt lat="44.2491" lon="6.15323">
        <ele>1372</ele>
        <time>2010-01-01T01:16:09Z</time>
      </trkpt>
      <trkpt lat="44.24909" lon="6.15319">
        <ele>1372</ele>
        <time>2010-01-01T01:16:09Z</time>
      </trkpt>
      <trkpt lat="44.24907" lon="6.15314">
        <ele>1372</ele>
        <time>2010-01-01T01:16:10Z</time>
      </trkpt>
      <trkpt lat="44.24902" lon="6.15308">
        <ele>1372</ele>
        <time>2010-01-01T01:16:12Z</time>
      </trkpt>
      <trkpt lat="44.249" lon="6.15299">
        <ele>1372</ele>
        <time>2010-01-01T01:16:14Z</time>
      </trkpt>
      <trkpt lat="44.24899" lon="6.15292">
        <ele>1372</ele>
        <time>2010-01-01T01:16:15Z</time>
      </trkpt>
      <trkpt lat="44.249" lon="6.15285">
        <ele>1371</ele>
        <time>2010-01-01T01:16:17Z</time>
      </trkpt>
      <trkpt lat="44.24902" lon="6.15279">
        <ele>1371</ele>
        <time>2010-01-01T01:16:18Z</time>
      </trkpt>
      <trkpt lat="44.24904" lon="6.15274">
        <ele>1370</ele>
        <time>2010-01-01T01:16:19Z</time>
      </trkpt>
      <trkpt lat="44.24905" lon="6.15268">
        <ele>1369</ele>
        <time>2010-01-01T01:16:20Z</time>
      </trkpt>
      <trkpt lat="44.24906" lon="6.15261">
        <ele>1369</ele>
        <time>2010-01-01T01:16:22Z</time>
      </trkpt>
      <trkpt lat="44.24908" lon="6.15254">
        <ele>1368</ele>
        <time>2010-01-01T01:16:23Z</time>
      </trkpt>
      <trkpt lat="44.2491" lon="6.15247">
        <ele>1367</ele>
        <time>2010-01-01T01:16:24Z</time>
      </trkpt>
      <trkpt lat="44.24912" lon="6.15232">
        <ele>1365</ele>
        <time>2010-01-01T01:16:27Z</time>
      </trkpt>
      <trkpt lat="44.24913" lon="6.15225">
        <ele>1365</ele>
        <time>2010-01-01T01:16:29Z</time>
      </trkpt>
      <trkpt lat="44.24915" lon="6.15212">
        <ele>1363</ele>
        <time>2010-01-01T01:16:31Z</time>
      </trkpt>
      <trkpt lat="44.24915" lon="6.15198">
        <ele>1361</ele>
        <time>2010-01-01T01:16:34Z</time>
      </trkpt>
      <trkpt lat="44.24914" lon="6.1519">
        <ele>1361</ele>
        <time>2010-01-01T01:16:35Z</time>
      </trkpt>
      <trkpt lat="44.24913" lon="6.15181">
        <ele>1360</ele>
        <time>2010-01-01T01:16:37Z</time>
      </trkpt>
      <trkpt lat="44.24913" lon="6.15173">
        <ele>1360</ele>
        <time>2010-01-01T01:16:39Z</time>
      </trkpt>
      <trkpt lat="44.24912" lon="6.15164">
        <ele>1359</ele>
        <time>2010-01-01T01:16:40Z</time>
      </trkpt>
      <trkpt lat="44.24911" lon="6.15155">
        <ele>1358</ele>
        <time>2010-01-01T01:16:42Z</time>
      </trkpt>
      <trkpt lat="44.2491" lon="6.15147">
        <ele>1358</ele>
        <time>2010-01-01T01:16:44Z</time>
      </trkpt>
      <trkpt lat="44.24909" lon="6.1514">
        <ele>1357</ele>
        <time>2010-01-01T01:16:45Z</time>
      </trkpt>
      <trkpt lat="44.24908" lon="6.15133">
        <ele>1356</ele>
        <time>2010-01-01T01:16:47Z</time>
      </trkpt>
      <trkpt lat="44.24908" lon="6.15125">
        <ele>1355</ele>
        <time>2010-01-01T01:16:48Z</time>
      </trkpt>
      <trkpt lat="44.24909" lon="6.15117">
        <ele>1354</ele>
        <time>2010-01-01T01:16:50Z</time>
      </trkpt>
      <trkpt lat="44.2491" lon="6.15109">
        <ele>1352</ele>
        <time>2010-01-01T01:16:51Z</time>
      </trkpt>
      <trkpt lat="44.24911" lon="6.151">
        <ele>1350</ele>
        <time>2010-01-01T01:16:53Z</time>
      </trkpt>
      <trkpt lat="44.24912" lon="6.15093">
        <ele>1349</ele>
        <time>2010-01-01T01:16:54Z</time>
      </trkpt>
      <trkpt lat="44.24913" lon="6.15088">
        <ele>1347</ele>
        <time>2010-01-01T01:16:55Z</time>
      </trkpt>
      <trkpt lat="44.24916" lon="6.15078">
        <ele>1345</ele>
        <time>2010-01-01T01:16:57Z</time>
      </trkpt>
      <trkpt lat="44.24917" lon="6.15073">
        <ele>1343</ele>
        <time>2010-01-01T01:16:58Z</time>
      </trkpt>
      <trkpt lat="44.24917" lon="6.15069">
        <ele>1343</ele>
        <time>2010-01-01T01:16:59Z</time>
      </trkpt>
      <trkpt lat="44.24917" lon="6.1506">
        <ele>1341</ele>
        <time>2010-01-01T01:17:01Z</time>
      </trkpt>
      <trkpt lat="44.24917" lon="6.1505">
        <ele>1339</ele>
        <time>2010-01-01T01:17:03Z</time>
      </trkpt>
      <trkpt lat="44.24918" lon="6.15041">
        <ele>1337</ele>
        <time>2010-01-01T01:17:05Z</time>
      </trkpt>
      <trkpt lat="44.24923" lon="6.15034">
        <ele>1334</ele>
        <time>2010-01-01T01:17:06Z</time>
      </trkpt>
      <trkpt lat="44.24924" lon="6.15029">
        <ele>1332</ele>
        <time>2010-01-01T01:17:07Z</time>
      </trkpt>
      <trkpt lat="44.24924" lon="6.15023">
        <ele>1331</ele>
        <time>2010-01-01T01:17:08Z</time>
      </trkpt>
      <trkpt lat="44.24924" lon="6.15014">
        <ele>1329</ele>
        <time>2010-01-01T01:17:10Z</time>
      </trkpt>
      <trkpt lat="44.24924" lon="6.15009">
        <ele>1328</ele>
        <time>2010-01-01T01:17:11Z</time>
      </trkpt>
      <trkpt lat="44.24924" lon="6.15001">
        <ele>1326</ele>
        <time>2010-01-01T01:17:13Z</time>
      </trkpt>
      <trkpt lat="44.24925" lon="6.14991">
        <ele>1323</ele>
        <time>2010-01-01T01:17:15Z</time>
      </trkpt>
      <trkpt lat="44.24925" lon="6.14983">
        <ele>1321</ele>
        <time>2010-01-01T01:17:16Z</time>
      </trkpt>
      <trkpt lat="44.24923" lon="6.14965">
        <ele>1318</ele>
        <time>2010-01-01T01:17:20Z</time>
      </trkpt>
      <trkpt lat="44.2492" lon="6.14949">
        <ele>1315</ele>
        <time>2010-01-01T01:17:23Z</time>
      </trkpt>
      <trkpt lat="44.24917" lon="6.14934">
        <ele>1313</ele>
        <time>2010-01-01T01:17:26Z</time>
      </trkpt>
      <trkpt lat="44.24916" lon="6.14927">
        <ele>1312</ele>
        <time>2010-01-01T01:17:27Z</time>
      </trkpt>
      <trkpt lat="44.24914" lon="6.14914">
        <ele>1309</ele>
        <time>2010-01-01T01:17:30Z</time>
      </trkpt>
      <trkpt lat="44.24913" lon="6.14909">
        <ele>1309</ele>
        <time>2010-01-01T01:17:31Z</time>
      </trkpt>
      <trkpt lat="44.24912" lon="6.14905">
        <ele>1308</ele>
        <time>2010-01-01T01:17:31Z</time>
      </trkpt>
      <trkpt lat="44.24909" lon="6.14895">
        <ele>1307</ele>
        <time>2010-01-01T01:17:33Z</time>
      </trkpt>
      <trkpt lat="44.24907" lon="6.14889">
        <ele>1306</ele>
        <time>2010-01-01T01:17:35Z</time>
      </trkpt>
      <trkpt lat="44.24905" lon="6.14882">
        <ele>1305</ele>
        <time>2010-01-01T01:17:36Z</time>
      </trkpt>
      <trkpt lat="44.24904" lon="6.14875">
        <ele>1303</ele>
        <time>2010-01-01T01:17:38Z</time>
      </trkpt>
      <trkpt lat="44.24903" lon="6.14862">
        <ele>1301</ele>
        <time>2010-01-01T01:17:40Z</time>
      </trkpt>
      <trkpt lat="44.24898" lon="6.14854">
        <ele>1301</ele>
        <time>2010-01-01T01:17:42Z</time>
      </trkpt>
      <trkpt lat="44.24894" lon="6.14853">
        <ele>1302</ele>
        <time>2010-01-01T01:17:43Z</time>
      </trkpt>
      <trkpt lat="44.24894" lon="6.14847">
        <ele>1301</ele>
        <time>2010-01-01T01:17:44Z</time>
      </trkpt>
      <trkpt lat="44.24894" lon="6.14842">
        <ele>1299</ele>
        <time>2010-01-01T01:17:45Z</time>
      </trkpt>
      <trkpt lat="44.24895" lon="6.14836">
        <ele>1297</ele>
        <time>2010-01-01T01:17:46Z</time>
      </trkpt>
      <trkpt lat="44.24896" lon="6.14829">
        <ele>1296</ele>
        <time>2010-01-01T01:17:48Z</time>
      </trkpt>
      <trkpt lat="44.24897" lon="6.14824">
        <ele>1294</ele>
        <time>2010-01-01T01:17:49Z</time>
      </trkpt>
      <trkpt lat="44.24899" lon="6.14821">
        <ele>1293</ele>
        <time>2010-01-01T01:17:50Z</time>
      </trkpt>
      <trkpt lat="44.24902" lon="6.14814">
        <ele>1291</ele>
        <time>2010-01-01T01:17:51Z</time>
      </trkpt>
      <trkpt lat="44.24904" lon="6.14807">
        <ele>1289</ele>
        <time>2010-01-01T01:17:53Z</time>
      </trkpt>
      <trkpt lat="44.24907" lon="6.14798">
        <ele>1288</ele>
        <time>2010-01-01T01:17:54Z</time>
      </trkpt>
      <trkpt lat="44.24908" lon="6.14795">
        <ele>1287</ele>
        <time>2010-01-01T01:17:55Z</time>
      </trkpt>
      <trkpt lat="44.24908" lon="6.14791">
        <ele>1287</ele>
        <time>2010-01-01T01:17:56Z</time>
      </trkpt>
      <trkpt lat="44.24907" lon="6.14783">
        <ele>1286</ele>
        <time>2010-01-01T01:17:57Z</time>
      </trkpt>
      <trkpt lat="44.24906" lon="6.1478">
        <ele>1286</ele>
        <time>2010-01-01T01:17:58Z</time>
      </trkpt>
      <trkpt lat="44.2491" lon="6.14774">
        <ele>1284</ele>
        <time>2010-01-01T01:18:00Z</time>
      </trkpt>
      <trkpt lat="44.24915" lon="6.14766">
        <ele>1282</ele>
        <time>2010-01-01T01:18:02Z</time>
      </trkpt>
      <trkpt lat="44.24916" lon="6.14757">
        <ele>1280</ele>
        <time>2010-01-01T01:18:03Z</time>
      </trkpt>
      <trkpt lat="44.24914" lon="6.14748">
        <ele>1279</ele>
        <time>2010-01-01T01:18:05Z</time>
      </trkpt>
      <trkpt lat="44.2491" lon="6.14743">
        <ele>1278</ele>
        <time>2010-01-01T01:18:07Z</time>
      </trkpt>
      <trkpt lat="44.24908" lon="6.1474">
        <ele>1278</ele>
        <time>2010-01-01T01:18:07Z</time>
      </trkpt>
      <trkpt lat="44.24908" lon="6.14734">
        <ele>1277</ele>
        <time>2010-01-01T01:18:08Z</time>
      </trkpt>
      <trkpt lat="44.24911" lon="6.14729">
        <ele>1275</ele>
        <time>2010-01-01T01:18:10Z</time>
      </trkpt>
      <trkpt lat="44.24916" lon="6.14722">
        <ele>1273</ele>
        <time>2010-01-01T01:18:11Z</time>
      </trkpt>
      <trkpt lat="44.24917" lon="6.14718">
        <ele>1271</ele>
        <time>2010-01-01T01:18:12Z</time>
      </trkpt>
      <trkpt lat="44.24919" lon="6.14714">
        <ele>1270</ele>
        <time>2010-01-01T01:18:13Z</time>
      </trkpt>
      <trkpt lat="44.24921" lon="6.14708">
        <ele>1267</ele>
        <time>2010-01-01T01:18:14Z</time>
      </trkpt>
      <trkpt lat="44.2492" lon="6.14706">
        <ele>1267</ele>
        <time>2010-01-01T01:18:15Z</time>
      </trkpt>
      <trkpt lat="44.2492" lon="6.14704">
        <ele>1267</ele>
        <time>2010-01-01T01:18:15Z</time>
      </trkpt>
      <trkpt lat="44.24918" lon="6.14701">
        <ele>1267</ele>
        <time>2010-01-01T01:18:16Z</time>
      </trkpt>
      <trkpt lat="44.24916" lon="6.14697">
        <ele>1267</ele>
        <time>2010-01-01T01:18:17Z</time>
      </trkpt>
      <trkpt lat="44.24916" lon="6.14692">
        <ele>1266</ele>
        <time>2010-01-01T01:18:18Z</time>
      </trkpt>
      <trkpt lat="44.24916" lon="6.14679">
        <ele>1262</ele>
        <time>2010-01-01T01:18:21Z</time>
      </trkpt>
      <trkpt lat="44.24916" lon="6.14672">
        <ele>1259</ele>
        <time>2010-01-01T01:18:22Z</time>
      </trkpt>
      <trkpt lat="44.24917" lon="6.14664">
        <ele>1256</ele>
        <time>2010-01-01T01:18:23Z</time>
      </trkpt>
      <trkpt lat="44.24918" lon="6.14656">
        <ele>1253</ele>
        <time>2010-01-01T01:18:25Z</time>
      </trkpt>
      <trkpt lat="44.2492" lon="6.1465">
        <ele>1250</ele>
        <time>2010-01-01T01:18:26Z</time>
      </trkpt>
      <trkpt lat="44.24921" lon="6.14646">
        <ele>1248</ele>
        <time>2010-01-01T01:18:27Z</time>
      </trkpt>
      <trkpt lat="44.24921" lon="6.14641">
        <ele>1247</ele>
        <time>2010-01-01T01:18:28Z</time>
      </trkpt>
      <trkpt lat="44.24917" lon="6.14639">
        <ele>1246</ele>
        <time>2010-01-01T01:18:29Z</time>
      </trkpt>
      <trkpt lat="44.24916" lon="6.14637">
        <ele>1246</ele>
        <time>2010-01-01T01:18:29Z</time>
      </trkpt>
      <trkpt lat="44.24917" lon="6.14636">
        <ele>1246</ele>
        <time>2010-01-01T01:18:30Z</time>
      </trkpt>
      <trkpt lat="44.2492" lon="6.14635">
        <ele>1245</ele>
        <time>2010-01-01T01:18:30Z</time>
      </trkpt>
      <trkpt lat="44.24923" lon="6.14633">
        <ele>1244</ele>
        <time>2010-01-01T01:18:31Z</time>
      </trkpt>
      <trkpt lat="44.24928" lon="6.14633">
        <ele>1243</ele>
        <time>2010-01-01T01:18:33Z</time>
      </trkpt>
      <trkpt lat="44.24931" lon="6.14633">
        <ele>1243</ele>
        <time>2010-01-01T01:18:33Z</time>
      </trkpt>
      <trkpt lat="44.24936" lon="6.14634">
        <ele>1242</ele>
        <time>2010-01-01T01:18:35Z</time>
      </trkpt>
      <trkpt lat="44.24937" lon="6.14636">
        <ele>1242</ele>
        <time>2010-01-01T01:18:35Z</time>
      </trkpt>
      <trkpt lat="44.24937" lon="6.14645">
        <ele>1244</ele>
        <time>2010-01-01T01:18:37Z</time>
      </trkpt>
      <trkpt lat="44.24941" lon="6.14648">
        <ele>1244</ele>
        <time>2010-01-01T01:18:38Z</time>
      </trkpt>
      <trkpt lat="44.24946" lon="6.14645">
        <ele>1242</ele>
        <time>2010-01-01T01:18:40Z</time>
      </trkpt>
      <trkpt lat="44.24951" lon="6.14639">
        <ele>1241</ele>
        <time>2010-01-01T01:18:41Z</time>
      </trkpt>
      <trkpt lat="44.24953" lon="6.14635">
        <ele>1240</ele>
        <time>2010-01-01T01:18:42Z</time>
      </trkpt>
      <trkpt lat="44.24955" lon="6.1463">
        <ele>1239</ele>
        <time>2010-01-01T01:18:43Z</time>
      </trkpt>
      <trkpt lat="44.24957" lon="6.14624">
        <ele>1238</ele>
        <time>2010-01-01T01:18:45Z</time>
      </trkpt>
      <trkpt lat="44.24958" lon="6.14619">
        <ele>1237</ele>
        <time>2010-01-01T01:18:46Z</time>
      </trkpt>
      <trkpt lat="44.24956" lon="6.14609">
        <ele>1236</ele>
        <time>2010-01-01T01:18:48Z</time>
      </trkpt>
      <trkpt lat="44.24952" lon="6.14596">
        <ele>1234</ele>
        <time>2010-01-01T01:18:50Z</time>
      </trkpt>
      <trkpt lat="44.2495" lon="6.14588">
        <ele>1232</ele>
        <time>2010-01-01T01:18:52Z</time>
      </trkpt>
      <trkpt lat="44.24947" lon="6.14579">
        <ele>1231</ele>
        <time>2010-01-01T01:18:54Z</time>
      </trkpt>
      <trkpt lat="44.24945" lon="6.14572">
        <ele>1230</ele>
        <time>2010-01-01T01:18:55Z</time>
      </trkpt>
      <trkpt lat="44.2494" lon="6.14565">
        <ele>1229</ele>
        <time>2010-01-01T01:18:57Z</time>
      </trkpt>
      <trkpt lat="44.24936" lon="6.14558">
        <ele>1229</ele>
        <time>2010-01-01T01:18:59Z</time>
      </trkpt>
      <trkpt lat="44.24933" lon="6.14548">
        <ele>1228</ele>
        <time>2010-01-01T01:19:01Z</time>
      </trkpt>
      <trkpt lat="44.24924" lon="6.14529">
        <ele>1226</ele>
        <time>2010-01-01T01:19:05Z</time>
      </trkpt>
      <trkpt lat="44.24921" lon="6.14525">
        <ele>1226</ele>
        <time>2010-01-01T01:19:06Z</time>
      </trkpt>
      <trkpt lat="44.24944" lon="6.14314">
        <ele>1219</ele>
        <time>2010-01-01T01:19:47Z</time>
      </trkpt>
      <trkpt lat="44.24924" lon="6.14078">
        <ele>1213</ele>
        <time>2010-01-01T01:20:33Z</time>
      </trkpt>
      <trkpt lat="44.24821" lon="6.13949">
        <ele>1196</ele>
        <time>2010-01-01T01:21:10Z</time>
      </trkpt>
      <trkpt lat="44.2478" lon="6.1393">
        <ele>1193</ele>
        <time>2010-01-01T01:21:21Z</time>
      </trkpt>
      <trkpt lat="44.24703" lon="6.13747">
        <ele>1185</ele>
        <time>2010-01-01T01:22:02Z</time>
      </trkpt>
      <trkpt lat="44.24608" lon="6.13554">
        <ele>1185</ele>
        <time>2010-01-01T01:22:47Z</time>
      </trkpt>
      <trkpt lat="44.24222" lon="6.13271">
        <ele>1162</ele>
        <time>2010-01-01T01:24:43Z</time>
      </trkpt>
      <trkpt lat="44.24014" lon="6.13039">
        <ele>1160</ele>
        <time>2010-01-01T01:25:54Z</time>
      </trkpt>
      <trkpt lat="44.23873" lon="6.12975">
        <ele>1140</ele>
        <time>2010-01-01T01:26:33Z</time>
      </trkpt>
      <trkpt lat="44.23845" lon="6.13009">
        <ele>1136</ele>
        <time>2010-01-01T01:26:43Z</time>
      </trkpt>
      <trkpt lat="44.23799" lon="6.12956">
        <ele>1134</ele>
        <time>2010-01-01T01:26:59Z</time>
      </trkpt>
      <trkpt lat="44.2375" lon="6.12913">
        <ele>1133</ele>
        <time>2010-01-01T01:27:15Z</time>
      </trkpt>
      <trkpt lat="44.23755" lon="6.12969">
        <ele>1134</ele>
        <time>2010-01-01T01:27:26Z</time>
      </trkpt>
      <trkpt lat="44.23757" lon="6.12974">
        <ele>1134</ele>
        <time>2010-01-01T01:27:27Z</time>
      </trkpt>
      <trkpt lat="44.23759" lon="6.1298">
        <ele>1135</ele>
        <time>2010-01-01T01:27:28Z</time>
      </trkpt>
      <trkpt lat="44.23761" lon="6.12985">
        <ele>1135</ele>
        <time>2010-01-01T01:27:29Z</time>
      </trkpt>
      <trkpt lat="44.23764" lon="6.1299">
        <ele>1135</ele>
        <time>2010-01-01T01:27:30Z</time>
      </trkpt>
      <trkpt lat="44.23767" lon="6.12995">
        <ele>1135</ele>
        <time>2010-01-01T01:27:32Z</time>
      </trkpt>
      <trkpt lat="44.2377" lon="6.13">
        <ele>1135</ele>
        <time>2010-01-01T01:27:33Z</time>
      </trkpt>
      <trkpt lat="44.23772" lon="6.13005">
        <ele>1135</ele>
        <time>2010-01-01T01:27:34Z</time>
      </trkpt>
      <trkpt lat="44.23774" lon="6.1301">
        <ele>1135</ele>
        <time>2010-01-01T01:27:35Z</time>
      </trkpt>
      <trkpt lat="44.23776" lon="6.13015">
        <ele>1135</ele>
        <time>2010-01-01T01:27:36Z</time>
      </trkpt>
      <trkpt lat="44.23779" lon="6.1302">
        <ele>1135</ele>
        <time>2010-01-01T01:27:37Z</time>
      </trkpt>
      <trkpt lat="44.23781" lon="6.13025">
        <ele>1135</ele>
        <time>2010-01-01T01:27:38Z</time>
      </trkpt>
      <trkpt lat="44.23783" lon="6.1303">
        <ele>1136</ele>
        <time>2010-01-01T01:27:40Z</time>
      </trkpt>
      <trkpt lat="44.23786" lon="6.13035">
        <ele>1136</ele>
        <time>2010-01-01T01:27:41Z</time>
      </trkpt>
      <trkpt lat="44.23789" lon="6.1304">
        <ele>1137</ele>
        <time>2010-01-01T01:27:42Z</time>
      </trkpt>
      <trkpt lat="44.23792" lon="6.13045">
        <ele>1137</ele>
        <time>2010-01-01T01:27:43Z</time>
      </trkpt>
      <trkpt lat="44.23795" lon="6.1305">
        <ele>1138</ele>
        <time>2010-01-01T01:27:44Z</time>
      </trkpt>
      <trkpt lat="44.23797" lon="6.13054">
        <ele>1138</ele>
        <time>2010-01-01T01:27:46Z</time>
      </trkpt>
      <trkpt lat="44.23799" lon="6.13058">
        <ele>1138</ele>
        <time>2010-01-01T01:27:46Z</time>
      </trkpt>
      <trkpt lat="44.23802" lon="6.13063">
        <ele>1138</ele>
        <time>2010-01-01T01:27:48Z</time>
      </trkpt>
      <trkpt lat="44.23805" lon="6.13068">
        <ele>1138</ele>
        <time>2010-01-01T01:27:49Z</time>
      </trkpt>
      <trkpt lat="44.23808" lon="6.13073">
        <ele>1138</ele>
        <time>2010-01-01T01:27:50Z</time>
      </trkpt>
      <trkpt lat="44.2381" lon="6.13078">
        <ele>1138</ele>
        <time>2010-01-01T01:27:51Z</time>
      </trkpt>
      <trkpt lat="44.23812" lon="6.13084">
        <ele>1138</ele>
        <time>2010-01-01T01:27:52Z</time>
      </trkpt>
      <trkpt lat="44.23815" lon="6.13089">
        <ele>1138</ele>
        <time>2010-01-01T01:27:54Z</time>
      </trkpt>
      <trkpt lat="44.23819" lon="6.13094">
        <ele>1138</ele>
        <time>2010-01-01T01:27:55Z</time>
      </trkpt>
      <trkpt lat="44.23822" lon="6.131">
        <ele>1138</ele>
        <time>2010-01-01T01:27:56Z</time>
      </trkpt>
      <trkpt lat="44.23824" lon="6.13105">
        <ele>1138</ele>
        <time>2010-01-01T01:27:58Z</time>
      </trkpt>
      <trkpt lat="44.23827" lon="6.1311">
        <ele>1138</ele>
        <time>2010-01-01T01:27:59Z</time>
      </trkpt>
      <trkpt lat="44.2383" lon="6.13116">
        <ele>1138</ele>
        <time>2010-01-01T01:28:00Z</time>
      </trkpt>
      <trkpt lat="44.23833" lon="6.13122">
        <ele>1138</ele>
        <time>2010-01-01T01:28:02Z</time>
      </trkpt>
      <trkpt lat="44.23835" lon="6.13127">
        <ele>1138</ele>
        <time>2010-01-01T01:28:03Z</time>
      </trkpt>
      <trkpt lat="44.23837" lon="6.13133">
        <ele>1138</ele>
        <time>2010-01-01T01:28:04Z</time>
      </trkpt>
      <trkpt lat="44.2384" lon="6.13137">
        <ele>1138</ele>
        <time>2010-01-01T01:28:05Z</time>
      </trkpt>
      <trkpt lat="44.23843" lon="6.13142">
        <ele>1138</ele>
        <time>2010-01-01T01:28:06Z</time>
      </trkpt>
      <trkpt lat="44.23846" lon="6.13147">
        <ele>1138</ele>
        <time>2010-01-01T01:28:08Z</time>
      </trkpt>
      <trkpt lat="44.23849" lon="6.13152">
        <ele>1138</ele>
        <time>2010-01-01T01:28:09Z</time>
      </trkpt>
      <trkpt lat="44.23851" lon="6.13157">
        <ele>1139</ele>
        <time>2010-01-01T01:28:10Z</time>
      </trkpt>
      <trkpt lat="44.23854" lon="6.13163">
        <ele>1139</ele>
        <time>2010-01-01T01:28:11Z</time>
      </trkpt>
      <trkpt lat="44.23856" lon="6.13167">
        <ele>1139</ele>
        <time>2010-01-01T01:28:12Z</time>
      </trkpt>
      <trkpt lat="44.23858" lon="6.13173">
        <ele>1140</ele>
        <time>2010-01-01T01:28:14Z</time>
      </trkpt>
      <trkpt lat="44.2386" lon="6.13177">
        <ele>1140</ele>
        <time>2010-01-01T01:28:15Z</time>
      </trkpt>
      <trkpt lat="44.23862" lon="6.13183">
        <ele>1140</ele>
        <time>2010-01-01T01:28:16Z</time>
      </trkpt>
      <trkpt lat="44.23864" lon="6.13187">
        <ele>1140</ele>
        <time>2010-01-01T01:28:17Z</time>
      </trkpt>
      <trkpt lat="44.23866" lon="6.13193">
        <ele>1140</ele>
        <time>2010-01-01T01:28:18Z</time>
      </trkpt>
      <trkpt lat="44.23869" lon="6.13198">
        <ele>1141</ele>
        <time>2010-01-01T01:28:19Z</time>
      </trkpt>
      <trkpt lat="44.23871" lon="6.13205">
        <ele>1141</ele>
        <time>2010-01-01T01:28:20Z</time>
      </trkpt>
      <trkpt lat="44.23872" lon="6.13211">
        <ele>1142</ele>
        <time>2010-01-01T01:28:22Z</time>
      </trkpt>
      <trkpt lat="44.23873" lon="6.13218">
        <ele>1143</ele>
        <time>2010-01-01T01:28:23Z</time>
      </trkpt>
      <trkpt lat="44.23875" lon="6.13225">
        <ele>1143</ele>
        <time>2010-01-01T01:28:24Z</time>
      </trkpt>
      <trkpt lat="44.23876" lon="6.13232">
        <ele>1144</ele>
        <time>2010-01-01T01:28:26Z</time>
      </trkpt>
      <trkpt lat="44.23876" lon="6.13239">
        <ele>1145</ele>
        <time>2010-01-01T01:28:27Z</time>
      </trkpt>
      <trkpt lat="44.23876" lon="6.13246">
        <ele>1146</ele>
        <time>2010-01-01T01:28:29Z</time>
      </trkpt>
      <trkpt lat="44.23876" lon="6.13254">
        <ele>1146</ele>
        <time>2010-01-01T01:28:30Z</time>
      </trkpt>
      <trkpt lat="44.23875" lon="6.13258">
        <ele>1147</ele>
        <time>2010-01-01T01:28:31Z</time>
      </trkpt>
      <trkpt lat="44.23876" lon="6.13265">
        <ele>1147</ele>
        <time>2010-01-01T01:28:32Z</time>
      </trkpt>
      <trkpt lat="44.23877" lon="6.13271">
        <ele>1147</ele>
        <time>2010-01-01T01:28:33Z</time>
      </trkpt>
      <trkpt lat="44.23878" lon="6.13277">
        <ele>1148</ele>
        <time>2010-01-01T01:28:35Z</time>
      </trkpt>
      <trkpt lat="44.23878" lon="6.13283">
        <ele>1148</ele>
        <time>2010-01-01T01:28:36Z</time>
      </trkpt>
      <trkpt lat="44.23879" lon="6.13289">
        <ele>1148</ele>
        <time>2010-01-01T01:28:37Z</time>
      </trkpt>
      <trkpt lat="44.23879" lon="6.13295">
        <ele>1148</ele>
        <time>2010-01-01T01:28:38Z</time>
      </trkpt>
      <trkpt lat="44.23879" lon="6.13301">
        <ele>1149</ele>
        <time>2010-01-01T01:28:39Z</time>
      </trkpt>
      <trkpt lat="44.23879" lon="6.13305">
        <ele>1149</ele>
        <time>2010-01-01T01:28:40Z</time>
      </trkpt>
      <trkpt lat="44.23879" lon="6.13309">
        <ele>1149</ele>
        <time>2010-01-01T01:28:41Z</time>
      </trkpt>
      <trkpt lat="44.23879" lon="6.13314">
        <ele>1150</ele>
        <time>2010-01-01T01:28:42Z</time>
      </trkpt>
      <trkpt lat="44.23878" lon="6.13319">
        <ele>1150</ele>
        <time>2010-01-01T01:28:43Z</time>
      </trkpt>
      <trkpt lat="44.23877" lon="6.13324">
        <ele>1151</ele>
        <time>2010-01-01T01:28:44Z</time>
      </trkpt>
      <trkpt lat="44.23877" lon="6.13328">
        <ele>1151</ele>
        <time>2010-01-01T01:28:44Z</time>
      </trkpt>
      <trkpt lat="44.23876" lon="6.13333">
        <ele>1151</ele>
        <time>2010-01-01T01:28:45Z</time>
      </trkpt>
      <trkpt lat="44.23876" lon="6.13339">
        <ele>1152</ele>
        <time>2010-01-01T01:28:46Z</time>
      </trkpt>
      <trkpt lat="44.23876" lon="6.13345">
        <ele>1152</ele>
        <time>2010-01-01T01:28:48Z</time>
      </trkpt>
      <trkpt lat="44.23876" lon="6.1335">
        <ele>1153</ele>
        <time>2010-01-01T01:28:49Z</time>
      </trkpt>
      <trkpt lat="44.23875" lon="6.13355">
        <ele>1153</ele>
        <time>2010-01-01T01:28:50Z</time>
      </trkpt>
      <trkpt lat="44.23874" lon="6.1336">
        <ele>1154</ele>
        <time>2010-01-01T01:28:51Z</time>
      </trkpt>
      <trkpt lat="44.23873" lon="6.13365">
        <ele>1155</ele>
        <time>2010-01-01T01:28:51Z</time>
      </trkpt>
      <trkpt lat="44.23872" lon="6.13368">
        <ele>1155</ele>
        <time>2010-01-01T01:28:52Z</time>
      </trkpt>
      <trkpt lat="44.23872" lon="6.13373">
        <ele>1156</ele>
        <time>2010-01-01T01:28:53Z</time>
      </trkpt>
      <trkpt lat="44.23872" lon="6.13379">
        <ele>1157</ele>
        <time>2010-01-01T01:28:54Z</time>
      </trkpt>
      <trkpt lat="44.23872" lon="6.13384">
        <ele>1157</ele>
        <time>2010-01-01T01:28:55Z</time>
      </trkpt>
      <trkpt lat="44.23872" lon="6.13389">
        <ele>1158</ele>
        <time>2010-01-01T01:28:56Z</time>
      </trkpt>
      <trkpt lat="44.23873" lon="6.13393">
        <ele>1158</ele>
        <time>2010-01-01T01:28:57Z</time>
      </trkpt>
      <trkpt lat="44.23875" lon="6.13399">
        <ele>1159</ele>
        <time>2010-01-01T01:28:58Z</time>
      </trkpt>
      <trkpt lat="44.23876" lon="6.13403">
        <ele>1160</ele>
        <time>2010-01-01T01:28:59Z</time>
      </trkpt>
      <trkpt lat="44.23877" lon="6.13407">
        <ele>1160</ele>
        <time>2010-01-01T01:29:00Z</time>
      </trkpt>
      <trkpt lat="44.23879" lon="6.13411">
        <ele>1160</ele>
        <time>2010-01-01T01:29:01Z</time>
      </trkpt>
      <trkpt lat="44.23882" lon="6.13414">
        <ele>1160</ele>
        <time>2010-01-01T01:29:02Z</time>
      </trkpt>
      <trkpt lat="44.23884" lon="6.13416">
        <ele>1160</ele>
        <time>2010-01-01T01:29:02Z</time>
      </trkpt>
      <trkpt lat="44.23886" lon="6.13419">
        <ele>1160</ele>
        <time>2010-01-01T01:29:03Z</time>
      </trkpt>
      <trkpt lat="44.23888" lon="6.13422">
        <ele>1160</ele>
        <time>2010-01-01T01:29:04Z</time>
      </trkpt>
      <trkpt lat="44.2389" lon="6.13426">
        <ele>1160</ele>
        <time>2010-01-01T01:29:05Z</time>
      </trkpt>
      <trkpt lat="44.23892" lon="6.13431">
        <ele>1161</ele>
        <time>2010-01-01T01:29:06Z</time>
      </trkpt>
      <trkpt lat="44.23894" lon="6.13434">
        <ele>1161</ele>
        <time>2010-01-01T01:29:07Z</time>
      </trkpt>
      <trkpt lat="44.23897" lon="6.13438">
        <ele>1161</ele>
        <time>2010-01-01T01:29:08Z</time>
      </trkpt>
      <trkpt lat="44.23899" lon="6.13442">
        <ele>1160</ele>
        <time>2010-01-01T01:29:09Z</time>
      </trkpt>
      <trkpt lat="44.23901" lon="6.13447">
        <ele>1161</ele>
        <time>2010-01-01T01:29:10Z</time>
      </trkpt>
      <trkpt lat="44.23902" lon="6.1345">
        <ele>1161</ele>
        <time>2010-01-01T01:29:11Z</time>
      </trkpt>
      <trkpt lat="44.23903" lon="6.13454">
        <ele>1161</ele>
        <time>2010-01-01T01:29:11Z</time>
      </trkpt>
      <trkpt lat="44.23905" lon="6.13459">
        <ele>1162</ele>
        <time>2010-01-01T01:29:12Z</time>
      </trkpt>
      <trkpt lat="44.23906" lon="6.13464">
        <ele>1162</ele>
        <time>2010-01-01T01:29:13Z</time>
      </trkpt>
      <trkpt lat="44.23907" lon="6.13468">
        <ele>1163</ele>
        <time>2010-01-01T01:29:14Z</time>
      </trkpt>
      <trkpt lat="44.23909" lon="6.13473">
        <ele>1163</ele>
        <time>2010-01-01T01:29:15Z</time>
      </trkpt>
      <trkpt lat="44.2391" lon="6.13477">
        <ele>1164</ele>
        <time>2010-01-01T01:29:16Z</time>
      </trkpt>
      <trkpt lat="44.23911" lon="6.13482">
        <ele>1165</ele>
        <time>2010-01-01T01:29:17Z</time>
      </trkpt>
      <trkpt lat="44.23912" lon="6.13487">
        <ele>1166</ele>
        <time>2010-01-01T01:29:18Z</time>
      </trkpt>
      <trkpt lat="44.23913" lon="6.13492">
        <ele>1166</ele>
        <time>2010-01-01T01:29:19Z</time>
      </trkpt>
      <trkpt lat="44.23914" lon="6.13496">
        <ele>1167</ele>
        <time>2010-01-01T01:29:20Z</time>
      </trkpt>
      <trkpt lat="44.23915" lon="6.13501">
        <ele>1168</ele>
        <time>2010-01-01T01:29:21Z</time>
      </trkpt>
      <trkpt lat="44.23916" lon="6.13505">
        <ele>1169</ele>
        <time>2010-01-01T01:29:22Z</time>
      </trkpt>
      <trkpt lat="44.23917" lon="6.13509">
        <ele>1169</ele>
        <time>2010-01-01T01:29:23Z</time>
      </trkpt>
      <trkpt lat="44.23918" lon="6.13513">
        <ele>1170</ele>
        <time>2010-01-01T01:29:23Z</time>
      </trkpt>
      <trkpt lat="44.2392" lon="6.13517">
        <ele>1170</ele>
        <time>2010-01-01T01:29:24Z</time>
      </trkpt>
      <trkpt lat="44.23922" lon="6.13522">
        <ele>1171</ele>
        <time>2010-01-01T01:29:25Z</time>
      </trkpt>
      <trkpt lat="44.23923" lon="6.13525">
        <ele>1172</ele>
        <time>2010-01-01T01:29:26Z</time>
      </trkpt>
      <trkpt lat="44.23925" lon="6.13529">
        <ele>1172</ele>
        <time>2010-01-01T01:29:27Z</time>
      </trkpt>
      <trkpt lat="44.23928" lon="6.13531">
        <ele>1172</ele>
        <time>2010-01-01T01:29:28Z</time>
      </trkpt>
      <trkpt lat="44.2393" lon="6.13534">
        <ele>1172</ele>
        <time>2010-01-01T01:29:29Z</time>
      </trkpt>
      <trkpt lat="44.23933" lon="6.13535">
        <ele>1171</ele>
        <time>2010-01-01T01:29:29Z</time>
      </trkpt>
      <trkpt lat="44.23936" lon="6.13537">
        <ele>1171</ele>
        <time>2010-01-01T01:29:30Z</time>
      </trkpt>
      <trkpt lat="44.23939" lon="6.13537">
        <ele>1170</ele>
        <time>2010-01-01T01:29:31Z</time>
      </trkpt>
      <trkpt lat="44.23942" lon="6.13538">
        <ele>1170</ele>
        <time>2010-01-01T01:29:32Z</time>
      </trkpt>
      <trkpt lat="44.23945" lon="6.13539">
        <ele>1169</ele>
        <time>2010-01-01T01:29:33Z</time>
      </trkpt>
      <trkpt lat="44.23947" lon="6.13541">
        <ele>1169</ele>
        <time>2010-01-01T01:29:33Z</time>
      </trkpt>
      <trkpt lat="44.2395" lon="6.13542">
        <ele>1169</ele>
        <time>2010-01-01T01:29:34Z</time>
      </trkpt>
      <trkpt lat="44.23953" lon="6.13545">
        <ele>1169</ele>
        <time>2010-01-01T01:29:35Z</time>
      </trkpt>
      <trkpt lat="44.23955" lon="6.13547">
        <ele>1169</ele>
        <time>2010-01-01T01:29:36Z</time>
      </trkpt>
      <trkpt lat="44.23957" lon="6.13552">
        <ele>1169</ele>
        <time>2010-01-01T01:29:37Z</time>
      </trkpt>
      <trkpt lat="44.23958" lon="6.13557">
        <ele>1170</ele>
        <time>2010-01-01T01:29:38Z</time>
      </trkpt>
      <trkpt lat="44.23959" lon="6.13561">
        <ele>1170</ele>
        <time>2010-01-01T01:29:39Z</time>
      </trkpt>
      <trkpt lat="44.23959" lon="6.13565">
        <ele>1171</ele>
        <time>2010-01-01T01:29:39Z</time>
      </trkpt>
      <trkpt lat="44.2396" lon="6.1357">
        <ele>1172</ele>
        <time>2010-01-01T01:29:40Z</time>
      </trkpt>
      <trkpt lat="44.2396" lon="6.13575">
        <ele>1173</ele>
        <time>2010-01-01T01:29:41Z</time>
      </trkpt>
      <trkpt lat="44.2396" lon="6.1358">
        <ele>1174</ele>
        <time>2010-01-01T01:29:42Z</time>
      </trkpt>
      <trkpt lat="44.2396" lon="6.13584">
        <ele>1175</ele>
        <time>2010-01-01T01:29:43Z</time>
      </trkpt>
      <trkpt lat="44.23961" lon="6.13588">
        <ele>1175</ele>
        <time>2010-01-01T01:29:44Z</time>
      </trkpt>
      <trkpt lat="44.23962" lon="6.13592">
        <ele>1176</ele>
        <time>2010-01-01T01:29:45Z</time>
      </trkpt>
      <trkpt lat="44.23962" lon="6.13597">
        <ele>1177</ele>
        <time>2010-01-01T01:29:45Z</time>
      </trkpt>
      <trkpt lat="44.23962" lon="6.13601">
        <ele>1178</ele>
        <time>2010-01-01T01:29:46Z</time>
      </trkpt>
      <trkpt lat="44.23963" lon="6.13605">
        <ele>1178</ele>
        <time>2010-01-01T01:29:47Z</time>
      </trkpt>
      <trkpt lat="44.23964" lon="6.1361">
        <ele>1179</ele>
        <time>2010-01-01T01:29:48Z</time>
      </trkpt>
      <trkpt lat="44.23965" lon="6.13614">
        <ele>1179</ele>
        <time>2010-01-01T01:29:49Z</time>
      </trkpt>
      <trkpt lat="44.23967" lon="6.13618">
        <ele>1180</ele>
        <time>2010-01-01T01:29:50Z</time>
      </trkpt>
      <trkpt lat="44.23969" lon="6.13621">
        <ele>1181</ele>
        <time>2010-01-01T01:29:51Z</time>
      </trkpt>
      <trkpt lat="44.2397" lon="6.13625">
        <ele>1181</ele>
        <time>2010-01-01T01:29:51Z</time>
      </trkpt>
      <trkpt lat="44.23972" lon="6.13627">
        <ele>1181</ele>
        <time>2010-01-01T01:29:52Z</time>
      </trkpt>
      <trkpt lat="44.23974" lon="6.1363">
        <ele>1182</ele>
        <time>2010-01-01T01:29:53Z</time>
      </trkpt>
      <trkpt lat="44.23978" lon="6.13633">
        <ele>1182</ele>
        <time>2010-01-01T01:29:54Z</time>
      </trkpt>
      <trkpt lat="44.2398" lon="6.13635">
        <ele>1183</ele>
        <time>2010-01-01T01:29:55Z</time>
      </trkpt>
      <trkpt lat="44.23983" lon="6.13637">
        <ele>1183</ele>
        <time>2010-01-01T01:29:55Z</time>
      </trkpt>
      <trkpt lat="44.23986" lon="6.13639">
        <ele>1183</ele>
        <time>2010-01-01T01:29:56Z</time>
      </trkpt>
      <trkpt lat="44.23989" lon="6.13641">
        <ele>1183</ele>
        <time>2010-01-01T01:29:57Z</time>
      </trkpt>
      <trkpt lat="44.23991" lon="6.13644">
        <ele>1184</ele>
        <time>2010-01-01T01:29:58Z</time>
      </trkpt>
      <trkpt lat="44.23994" lon="6.13647">
        <ele>1184</ele>
        <time>2010-01-01T01:29:59Z</time>
      </trkpt>
      <trkpt lat="44.23996" lon="6.1365">
        <ele>1185</ele>
        <time>2010-01-01T01:30:00Z</time>
      </trkpt>
      <trkpt lat="44.23998" lon="6.13653">
        <ele>1185</ele>
        <time>2010-01-01T01:30:01Z</time>
      </trkpt>
      <trkpt lat="44.24" lon="6.13656">
        <ele>1186</ele>
        <time>2010-01-01T01:30:01Z</time>
      </trkpt>
      <trkpt lat="44.24002" lon="6.1366">
        <ele>1186</ele>
        <time>2010-01-01T01:30:02Z</time>
      </trkpt>
      <trkpt lat="44.24003" lon="6.13665">
        <ele>1187</ele>
        <time>2010-01-01T01:30:03Z</time>
      </trkpt>
      <trkpt lat="44.24004" lon="6.1367">
        <ele>1188</ele>
        <time>2010-01-01T01:30:04Z</time>
      </trkpt>
      <trkpt lat="44.24005" lon="6.13673">
        <ele>1188</ele>
        <time>2010-01-01T01:30:05Z</time>
      </trkpt>
      <trkpt lat="44.24007" lon="6.13678">
        <ele>1188</ele>
        <time>2010-01-01T01:30:06Z</time>
      </trkpt>
      <trkpt lat="44.24008" lon="6.13681">
        <ele>1189</ele>
        <time>2010-01-01T01:30:07Z</time>
      </trkpt>
      <trkpt lat="44.24009" lon="6.13685">
        <ele>1189</ele>
        <time>2010-01-01T01:30:07Z</time>
      </trkpt>
      <trkpt lat="44.2401" lon="6.13689">
        <ele>1189</ele>
        <time>2010-01-01T01:30:08Z</time>
      </trkpt>
      <trkpt lat="44.24011" lon="6.13692">
        <ele>1190</ele>
        <time>2010-01-01T01:30:09Z</time>
      </trkpt>
      <trkpt lat="44.24012" lon="6.13697">
        <ele>1190</ele>
        <time>2010-01-01T01:30:10Z</time>
      </trkpt>
      <trkpt lat="44.24014" lon="6.13702">
        <ele>1191</ele>
        <time>2010-01-01T01:30:11Z</time>
      </trkpt>
      <trkpt lat="44.24015" lon="6.13707">
        <ele>1191</ele>
        <time>2010-01-01T01:30:12Z</time>
      </trkpt>
      <trkpt lat="44.24016" lon="6.1371">
        <ele>1192</ele>
        <time>2010-01-01T01:30:13Z</time>
      </trkpt>
      <trkpt lat="44.24017" lon="6.13714">
        <ele>1192</ele>
        <time>2010-01-01T01:30:13Z</time>
      </trkpt>
      <trkpt lat="44.24018" lon="6.13718">
        <ele>1193</ele>
        <time>2010-01-01T01:30:14Z</time>
      </trkpt>
      <trkpt lat="44.24019" lon="6.13722">
        <ele>1193</ele>
        <time>2010-01-01T01:30:15Z</time>
      </trkpt>
      <trkpt lat="44.2402" lon="6.13726">
        <ele>1194</ele>
        <time>2010-01-01T01:30:16Z</time>
      </trkpt>
      <trkpt lat="44.24021" lon="6.1373">
        <ele>1194</ele>
        <time>2010-01-01T01:30:17Z</time>
      </trkpt>
      <trkpt lat="44.24022" lon="6.13734">
        <ele>1194</ele>
        <time>2010-01-01T01:30:17Z</time>
      </trkpt>
      <trkpt lat="44.24023" lon="6.13739">
        <ele>1194</ele>
        <time>2010-01-01T01:30:18Z</time>
      </trkpt>
      <trkpt lat="44.24024" lon="6.13744">
        <ele>1195</ele>
        <time>2010-01-01T01:30:19Z</time>
      </trkpt>
      <trkpt lat="44.24025" lon="6.13748">
        <ele>1195</ele>
        <time>2010-01-01T01:30:20Z</time>
      </trkpt>
      <trkpt lat="44.24025" lon="6.13754">
        <ele>1196</ele>
        <time>2010-01-01T01:30:21Z</time>
      </trkpt>
      <trkpt lat="44.24026" lon="6.13758">
        <ele>1196</ele>
        <time>2010-01-01T01:30:22Z</time>
      </trkpt>
      <trkpt lat="44.24025" lon="6.13762">
        <ele>1197</ele>
        <time>2010-01-01T01:30:23Z</time>
      </trkpt>
      <trkpt lat="44.24025" lon="6.13767">
        <ele>1197</ele>
        <time>2010-01-01T01:30:24Z</time>
      </trkpt>
      <trkpt lat="44.24025" lon="6.13771">
        <ele>1198</ele>
        <time>2010-01-01T01:30:25Z</time>
      </trkpt>
      <trkpt lat="44.24024" lon="6.13775">
        <ele>1199</ele>
        <time>2010-01-01T01:30:25Z</time>
      </trkpt>
      <trkpt lat="44.24024" lon="6.13779">
        <ele>1199</ele>
        <time>2010-01-01T01:30:26Z</time>
      </trkpt>
      <trkpt lat="44.24024" lon="6.13783">
        <ele>1199</ele>
        <time>2010-01-01T01:30:27Z</time>
      </trkpt>
      <trkpt lat="44.24023" lon="6.13787">
        <ele>1200</ele>
        <time>2010-01-01T01:30:28Z</time>
      </trkpt>
      <trkpt lat="44.24023" lon="6.13793">
        <ele>1201</ele>
        <time>2010-01-01T01:30:29Z</time>
      </trkpt>
      <trkpt lat="44.24024" lon="6.13797">
        <ele>1201</ele>
        <time>2010-01-01T01:30:30Z</time>
      </trkpt>
      <trkpt lat="44.24023" lon="6.13801">
        <ele>1201</ele>
        <time>2010-01-01T01:30:30Z</time>
      </trkpt>
      <trkpt lat="44.24023" lon="6.13805">
        <ele>1202</ele>
        <time>2010-01-01T01:30:31Z</time>
      </trkpt>
      <trkpt lat="44.24022" lon="6.1381">
        <ele>1202</ele>
        <time>2010-01-01T01:30:32Z</time>
      </trkpt>
      <trkpt lat="44.24022" lon="6.13815">
        <ele>1203</ele>
        <time>2010-01-01T01:30:33Z</time>
      </trkpt>
      <trkpt lat="44.24021" lon="6.13819">
        <ele>1203</ele>
        <time>2010-01-01T01:30:34Z</time>
      </trkpt>
      <trkpt lat="44.24021" lon="6.13823">
        <ele>1203</ele>
        <time>2010-01-01T01:30:35Z</time>
      </trkpt>
      <trkpt lat="44.24021" lon="6.13827">
        <ele>1203</ele>
        <time>2010-01-01T01:30:35Z</time>
      </trkpt>
      <trkpt lat="44.2402" lon="6.13831">
        <ele>1203</ele>
        <time>2010-01-01T01:30:36Z</time>
      </trkpt>
      <trkpt lat="44.24019" lon="6.13836">
        <ele>1203</ele>
        <time>2010-01-01T01:30:37Z</time>
      </trkpt>
      <trkpt lat="44.24019" lon="6.1384">
        <ele>1203</ele>
        <time>2010-01-01T01:30:38Z</time>
      </trkpt>
      <trkpt lat="44.24019" lon="6.13844">
        <ele>1204</ele>
        <time>2010-01-01T01:30:39Z</time>
      </trkpt>
      <trkpt lat="44.24018" lon="6.13848">
        <ele>1204</ele>
        <time>2010-01-01T01:30:40Z</time>
      </trkpt>
      <trkpt lat="44.24016" lon="6.13852">
        <ele>1205</ele>
        <time>2010-01-01T01:30:40Z</time>
      </trkpt>
      <trkpt lat="44.24015" lon="6.13855">
        <ele>1205</ele>
        <time>2010-01-01T01:30:41Z</time>
      </trkpt>
      <trkpt lat="44.24013" lon="6.13859">
        <ele>1206</ele>
        <time>2010-01-01T01:30:42Z</time>
      </trkpt>
      <trkpt lat="44.24011" lon="6.13863">
        <ele>1206</ele>
        <time>2010-01-01T01:30:43Z</time>
      </trkpt>
      <trkpt lat="44.24009" lon="6.13866">
        <ele>1207</ele>
        <time>2010-01-01T01:30:44Z</time>
      </trkpt>
      <trkpt lat="44.24007" lon="6.13869">
        <ele>1207</ele>
        <time>2010-01-01T01:30:44Z</time>
      </trkpt>
      <trkpt lat="44.24005" lon="6.13871">
        <ele>1208</ele>
        <time>2010-01-01T01:30:45Z</time>
      </trkpt>
      <trkpt lat="44.24003" lon="6.13874">
        <ele>1208</ele>
        <time>2010-01-01T01:30:46Z</time>
      </trkpt>
      <trkpt lat="44.24001" lon="6.13878">
        <ele>1209</ele>
        <time>2010-01-01T01:30:47Z</time>
      </trkpt>
      <trkpt lat="44.23999" lon="6.13881">
        <ele>1209</ele>
        <time>2010-01-01T01:30:48Z</time>
      </trkpt>
      <trkpt lat="44.23997" lon="6.13883">
        <ele>1209</ele>
        <time>2010-01-01T01:30:48Z</time>
      </trkpt>
      <trkpt lat="44.23995" lon="6.13886">
        <ele>1210</ele>
        <time>2010-01-01T01:30:49Z</time>
      </trkpt>
      <trkpt lat="44.23993" lon="6.1389">
        <ele>1210</ele>
        <time>2010-01-01T01:30:50Z</time>
      </trkpt>
      <trkpt lat="44.23991" lon="6.13894">
        <ele>1210</ele>
        <time>2010-01-01T01:30:51Z</time>
      </trkpt>
      <trkpt lat="44.2399" lon="6.13897">
        <ele>1211</ele>
        <time>2010-01-01T01:30:52Z</time>
      </trkpt>
      <trkpt lat="44.23988" lon="6.13901">
        <ele>1211</ele>
        <time>2010-01-01T01:30:53Z</time>
      </trkpt>
      <trkpt lat="44.23987" lon="6.13905">
        <ele>1211</ele>
        <time>2010-01-01T01:30:53Z</time>
      </trkpt>
      <trkpt lat="44.23985" lon="6.13909">
        <ele>1211</ele>
        <time>2010-01-01T01:30:54Z</time>
      </trkpt>
      <trkpt lat="44.23985" lon="6.13913">
        <ele>1211</ele>
        <time>2010-01-01T01:30:55Z</time>
      </trkpt>
      <trkpt lat="44.23984" lon="6.13918">
        <ele>1211</ele>
        <time>2010-01-01T01:30:56Z</time>
      </trkpt>
      <trkpt lat="44.23984" lon="6.13922">
        <ele>1212</ele>
        <time>2010-01-01T01:30:57Z</time>
      </trkpt>
      <trkpt lat="44.23984" lon="6.13926">
        <ele>1212</ele>
        <time>2010-01-01T01:30:58Z</time>
      </trkpt>
      <trkpt lat="44.23984" lon="6.1393">
        <ele>1212</ele>
        <time>2010-01-01T01:30:58Z</time>
      </trkpt>
      <trkpt lat="44.23984" lon="6.13935">
        <ele>1212</ele>
        <time>2010-01-01T01:30:59Z</time>
      </trkpt>
      <trkpt lat="44.23984" lon="6.13939">
        <ele>1212</ele>
        <time>2010-01-01T01:31:00Z</time>
      </trkpt>
      <trkpt lat="44.23984" lon="6.13943">
        <ele>1212</ele>
        <time>2010-01-01T01:31:01Z</time>
      </trkpt>
      <trkpt lat="44.23985" lon="6.13948">
        <ele>1212</ele>
        <time>2010-01-01T01:31:02Z</time>
      </trkpt>
      <trkpt lat="44.23985" lon="6.13952">
        <ele>1212</ele>
        <time>2010-01-01T01:31:03Z</time>
      </trkpt>
      <trkpt lat="44.23987" lon="6.13956">
        <ele>1212</ele>
        <time>2010-01-01T01:31:03Z</time>
      </trkpt>
      <trkpt lat="44.23987" lon="6.13961">
        <ele>1212</ele>
        <time>2010-01-01T01:31:04Z</time>
      </trkpt>
      <trkpt lat="44.23988" lon="6.13965">
        <ele>1212</ele>
        <time>2010-01-01T01:31:05Z</time>
      </trkpt>
      <trkpt lat="44.23988" lon="6.13969">
        <ele>1212</ele>
        <time>2010-01-01T01:31:06Z</time>
      </trkpt>
      <trkpt lat="44.23987" lon="6.13972">
        <ele>1213</ele>
        <time>2010-01-01T01:31:07Z</time>
      </trkpt>
      <trkpt lat="44.23987" lon="6.13976">
        <ele>1213</ele>
        <time>2010-01-01T01:31:07Z</time>
      </trkpt>
      <trkpt lat="44.23987" lon="6.13981">
        <ele>1213</ele>
        <time>2010-01-01T01:31:08Z</time>
      </trkpt>
      <trkpt lat="44.23987" lon="6.13985">
        <ele>1213</ele>
        <time>2010-01-01T01:31:09Z</time>
      </trkpt>
      <trkpt lat="44.23986" lon="6.1399">
        <ele>1214</ele>
        <time>2010-01-01T01:31:10Z</time>
      </trkpt>
      <trkpt lat="44.23985" lon="6.13995">
        <ele>1214</ele>
        <time>2010-01-01T01:31:11Z</time>
      </trkpt>
      <trkpt lat="44.23983" lon="6.13998">
        <ele>1215</ele>
        <time>2010-01-01T01:31:12Z</time>
      </trkpt>
      <trkpt lat="44.23981" lon="6.14003">
        <ele>1216</ele>
        <time>2010-01-01T01:31:13Z</time>
      </trkpt>
      <trkpt lat="44.23979" lon="6.14006">
        <ele>1217</ele>
        <time>2010-01-01T01:31:14Z</time>
      </trkpt>
      <trkpt lat="44.23977" lon="6.1401">
        <ele>1218</ele>
        <time>2010-01-01T01:31:14Z</time>
      </trkpt>
      <trkpt lat="44.23975" lon="6.14014">
        <ele>1218</ele>
        <time>2010-01-01T01:31:15Z</time>
      </trkpt>
      <trkpt lat="44.23973" lon="6.14017">
        <ele>1219</ele>
        <time>2010-01-01T01:31:16Z</time>
      </trkpt>
      <trkpt lat="44.23971" lon="6.14022">
        <ele>1220</ele>
        <time>2010-01-01T01:31:17Z</time>
      </trkpt>
      <trkpt lat="44.23971" lon="6.14026">
        <ele>1220</ele>
        <time>2010-01-01T01:31:18Z</time>
      </trkpt>
      <trkpt lat="44.2397" lon="6.14031">
        <ele>1221</ele>
        <time>2010-01-01T01:31:19Z</time>
      </trkpt>
      <trkpt lat="44.23971" lon="6.14036">
        <ele>1221</ele>
        <time>2010-01-01T01:31:20Z</time>
      </trkpt>
      <trkpt lat="44.23971" lon="6.1404">
        <ele>1221</ele>
        <time>2010-01-01T01:31:21Z</time>
      </trkpt>
      <trkpt lat="44.23973" lon="6.14045">
        <ele>1221</ele>
        <time>2010-01-01T01:31:22Z</time>
      </trkpt>
      <trkpt lat="44.23976" lon="6.1405">
        <ele>1220</ele>
        <time>2010-01-01T01:31:23Z</time>
      </trkpt>
      <trkpt lat="44.23978" lon="6.14054">
        <ele>1220</ele>
        <time>2010-01-01T01:31:24Z</time>
      </trkpt>
      <trkpt lat="44.2398" lon="6.14059">
        <ele>1221</ele>
        <time>2010-01-01T01:31:25Z</time>
      </trkpt>
      <trkpt lat="44.23982" lon="6.14064">
        <ele>1221</ele>
        <time>2010-01-01T01:31:26Z</time>
      </trkpt>
      <trkpt lat="44.23983" lon="6.14068">
        <ele>1222</ele>
        <time>2010-01-01T01:31:27Z</time>
      </trkpt>
      <trkpt lat="44.23983" lon="6.14073">
        <ele>1222</ele>
        <time>2010-01-01T01:31:28Z</time>
      </trkpt>
      <trkpt lat="44.23983" lon="6.14077">
        <ele>1223</ele>
        <time>2010-01-01T01:31:29Z</time>
      </trkpt>
      <trkpt lat="44.23984" lon="6.14081">
        <ele>1224</ele>
        <time>2010-01-01T01:31:30Z</time>
      </trkpt>
      <trkpt lat="44.23984" lon="6.14086">
        <ele>1224</ele>
        <time>2010-01-01T01:31:30Z</time>
      </trkpt>
      <trkpt lat="44.23984" lon="6.14091">
        <ele>1225</ele>
        <time>2010-01-01T01:31:31Z</time>
      </trkpt>
      <trkpt lat="44.23984" lon="6.14095">
        <ele>1226</ele>
        <time>2010-01-01T01:31:32Z</time>
      </trkpt>
      <trkpt lat="44.23984" lon="6.14099">
        <ele>1227</ele>
        <time>2010-01-01T01:31:33Z</time>
      </trkpt>
      <trkpt lat="44.23984" lon="6.14104">
        <ele>1227</ele>
        <time>2010-01-01T01:31:34Z</time>
      </trkpt>
      <trkpt lat="44.23985" lon="6.14107">
        <ele>1228</ele>
        <time>2010-01-01T01:31:35Z</time>
      </trkpt>
      <trkpt lat="44.23986" lon="6.14112">
        <ele>1229</ele>
        <time>2010-01-01T01:31:35Z</time>
      </trkpt>
      <trkpt lat="44.23985" lon="6.14116">
        <ele>1229</ele>
        <time>2010-01-01T01:31:36Z</time>
      </trkpt>
      <trkpt lat="44.23985" lon="6.14121">
        <ele>1230</ele>
        <time>2010-01-01T01:31:37Z</time>
      </trkpt>
      <trkpt lat="44.23985" lon="6.14125">
        <ele>1231</ele>
        <time>2010-01-01T01:31:38Z</time>
      </trkpt>
      <trkpt lat="44.23985" lon="6.1413">
        <ele>1231</ele>
        <time>2010-01-01T01:31:39Z</time>
      </trkpt>
      <trkpt lat="44.23986" lon="6.14133">
        <ele>1232</ele>
        <time>2010-01-01T01:31:40Z</time>
      </trkpt>
      <trkpt lat="44.23986" lon="6.14137">
        <ele>1232</ele>
        <time>2010-01-01T01:31:40Z</time>
      </trkpt>
      <trkpt lat="44.23987" lon="6.14141">
        <ele>1233</ele>
        <time>2010-01-01T01:31:41Z</time>
      </trkpt>
      <trkpt lat="44.23989" lon="6.14146">
        <ele>1233</ele>
        <time>2010-01-01T01:31:42Z</time>
      </trkpt>
      <trkpt lat="44.23991" lon="6.14149">
        <ele>1234</ele>
        <time>2010-01-01T01:31:43Z</time>
      </trkpt>
      <trkpt lat="44.23993" lon="6.14153">
        <ele>1234</ele>
        <time>2010-01-01T01:31:44Z</time>
      </trkpt>
      <trkpt lat="44.23995" lon="6.14156">
        <ele>1234</ele>
        <time>2010-01-01T01:31:45Z</time>
      </trkpt>
      <trkpt lat="44.23997" lon="6.14158">
        <ele>1234</ele>
        <time>2010-01-01T01:31:45Z</time>
      </trkpt>
      <trkpt lat="44.24" lon="6.14161">
        <ele>1234</ele>
        <time>2010-01-01T01:31:46Z</time>
      </trkpt>
      <trkpt lat="44.24003" lon="6.14164">
        <ele>1234</ele>
        <time>2010-01-01T01:31:47Z</time>
      </trkpt>
      <trkpt lat="44.24006" lon="6.14167">
        <ele>1234</ele>
        <time>2010-01-01T01:31:48Z</time>
      </trkpt>
      <trkpt lat="44.24009" lon="6.14169">
        <ele>1234</ele>
        <time>2010-01-01T01:31:49Z</time>
      </trkpt>
      <trkpt lat="44.24012" lon="6.1417">
        <ele>1233</ele>
        <time>2010-01-01T01:31:50Z</time>
      </trkpt>
      <trkpt lat="44.24015" lon="6.14172">
        <ele>1233</ele>
        <time>2010-01-01T01:31:51Z</time>
      </trkpt>
      <trkpt lat="44.24018" lon="6.14173">
        <ele>1233</ele>
        <time>2010-01-01T01:31:52Z</time>
      </trkpt>
      <trkpt lat="44.24021" lon="6.14175">
        <ele>1233</ele>
        <time>2010-01-01T01:31:53Z</time>
      </trkpt>
      <trkpt lat="44.24023" lon="6.14176">
        <ele>1233</ele>
        <time>2010-01-01T01:31:53Z</time>
      </trkpt>
      <trkpt lat="44.24026" lon="6.14178">
        <ele>1233</ele>
        <time>2010-01-01T01:31:54Z</time>
      </trkpt>
      <trkpt lat="44.24028" lon="6.14181">
        <ele>1233</ele>
        <time>2010-01-01T01:31:55Z</time>
      </trkpt>
      <trkpt lat="44.24031" lon="6.14184">
        <ele>1233</ele>
        <time>2010-01-01T01:31:56Z</time>
      </trkpt>
      <trkpt lat="44.24032" lon="6.14187">
        <ele>1234</ele>
        <time>2010-01-01T01:31:56Z</time>
      </trkpt>
      <trkpt lat="44.24034" lon="6.14192">
        <ele>1234</ele>
        <time>2010-01-01T01:31:57Z</time>
      </trkpt>
      <trkpt lat="44.24036" lon="6.14197">
        <ele>1235</ele>
        <time>2010-01-01T01:31:59Z</time>
      </trkpt>
      <trkpt lat="44.24037" lon="6.14201">
        <ele>1236</ele>
        <time>2010-01-01T01:31:59Z</time>
      </trkpt>
      <trkpt lat="44.24039" lon="6.14205">
        <ele>1237</ele>
        <time>2010-01-01T01:32:00Z</time>
      </trkpt>
      <trkpt lat="44.24041" lon="6.14209">
        <ele>1238</ele>
        <time>2010-01-01T01:32:01Z</time>
      </trkpt>
      <trkpt lat="44.24043" lon="6.14214">
        <ele>1238</ele>
        <time>2010-01-01T01:32:02Z</time>
      </trkpt>
      <trkpt lat="44.24045" lon="6.14217">
        <ele>1239</ele>
        <time>2010-01-01T01:32:03Z</time>
      </trkpt>
      <trkpt lat="44.24046" lon="6.14221">
        <ele>1239</ele>
        <time>2010-01-01T01:32:04Z</time>
      </trkpt>
      <trkpt lat="44.24048" lon="6.14224">
        <ele>1240</ele>
        <time>2010-01-01T01:32:05Z</time>
      </trkpt>
      <trkpt lat="44.24049" lon="6.14228">
        <ele>1241</ele>
        <time>2010-01-01T01:32:05Z</time>
      </trkpt>
      <trkpt lat="44.24051" lon="6.14233">
        <ele>1241</ele>
        <time>2010-01-01T01:32:07Z</time>
      </trkpt>
      <trkpt lat="44.24053" lon="6.14236">
        <ele>1242</ele>
        <time>2010-01-01T01:32:07Z</time>
      </trkpt>
      <trkpt lat="44.24055" lon="6.14239">
        <ele>1242</ele>
        <time>2010-01-01T01:32:08Z</time>
      </trkpt>
      <trkpt lat="44.24056" lon="6.14243">
        <ele>1242</ele>
        <time>2010-01-01T01:32:09Z</time>
      </trkpt>
      <trkpt lat="44.24057" lon="6.14247">
        <ele>1242</ele>
        <time>2010-01-01T01:32:10Z</time>
      </trkpt>
      <trkpt lat="44.24059" lon="6.1425">
        <ele>1242</ele>
        <time>2010-01-01T01:32:11Z</time>
      </trkpt>
      <trkpt lat="44.2406" lon="6.14254">
        <ele>1243</ele>
        <time>2010-01-01T01:32:11Z</time>
      </trkpt>
      <trkpt lat="44.24061" lon="6.14258">
        <ele>1243</ele>
        <time>2010-01-01T01:32:12Z</time>
      </trkpt>
      <trkpt lat="44.24062" lon="6.14262">
        <ele>1243</ele>
        <time>2010-01-01T01:32:13Z</time>
      </trkpt>
      <trkpt lat="44.24063" lon="6.14266">
        <ele>1243</ele>
        <time>2010-01-01T01:32:14Z</time>
      </trkpt>
      <trkpt lat="44.24065" lon="6.1427">
        <ele>1242</ele>
        <time>2010-01-01T01:32:15Z</time>
      </trkpt>
      <trkpt lat="44.24067" lon="6.14274">
        <ele>1242</ele>
        <time>2010-01-01T01:32:15Z</time>
      </trkpt>
      <trkpt lat="44.24068" lon="6.14278">
        <ele>1242</ele>
        <time>2010-01-01T01:32:16Z</time>
      </trkpt>
      <trkpt lat="44.24069" lon="6.14283">
        <ele>1242</ele>
        <time>2010-01-01T01:32:17Z</time>
      </trkpt>
      <trkpt lat="44.2407" lon="6.14287">
        <ele>1242</ele>
        <time>2010-01-01T01:32:18Z</time>
      </trkpt>
      <trkpt lat="44.24071" lon="6.14292">
        <ele>1242</ele>
        <time>2010-01-01T01:32:19Z</time>
      </trkpt>
      <trkpt lat="44.24072" lon="6.14297">
        <ele>1242</ele>
        <time>2010-01-01T01:32:20Z</time>
      </trkpt>
      <trkpt lat="44.24072" lon="6.14301">
        <ele>1242</ele>
        <time>2010-01-01T01:32:21Z</time>
      </trkpt>
      <trkpt lat="44.24074" lon="6.14305">
        <ele>1242</ele>
        <time>2010-01-01T01:32:22Z</time>
      </trkpt>
      <trkpt lat="44.24075" lon="6.1431">
        <ele>1242</ele>
        <time>2010-01-01T01:32:23Z</time>
      </trkpt>
      <trkpt lat="44.24076" lon="6.14314">
        <ele>1243</ele>
        <time>2010-01-01T01:32:24Z</time>
      </trkpt>
      <trkpt lat="44.24076" lon="6.14318">
        <ele>1243</ele>
        <time>2010-01-01T01:32:24Z</time>
      </trkpt>
      <trkpt lat="44.24076" lon="6.14323">
        <ele>1244</ele>
        <time>2010-01-01T01:32:25Z</time>
      </trkpt>
      <trkpt lat="44.24077" lon="6.14327">
        <ele>1245</ele>
        <time>2010-01-01T01:32:26Z</time>
      </trkpt>
      <trkpt lat="44.24077" lon="6.14331">
        <ele>1246</ele>
        <time>2010-01-01T01:32:27Z</time>
      </trkpt>
      <trkpt lat="44.24078" lon="6.14335">
        <ele>1246</ele>
        <time>2010-01-01T01:32:28Z</time>
      </trkpt>
      <trkpt lat="44.24078" lon="6.14339">
        <ele>1247</ele>
        <time>2010-01-01T01:32:28Z</time>
      </trkpt>
      <trkpt lat="44.24078" lon="6.14343">
        <ele>1248</ele>
        <time>2010-01-01T01:32:29Z</time>
      </trkpt>
      <trkpt lat="44.24077" lon="6.14347">
        <ele>1249</ele>
        <time>2010-01-01T01:32:30Z</time>
      </trkpt>
      <trkpt lat="44.24077" lon="6.14352">
        <ele>1251</ele>
        <time>2010-01-01T01:32:31Z</time>
      </trkpt>
      <trkpt lat="44.24077" lon="6.14356">
        <ele>1252</ele>
        <time>2010-01-01T01:32:32Z</time>
      </trkpt>
      <trkpt lat="44.24077" lon="6.14362">
        <ele>1254</ele>
        <time>2010-01-01T01:32:33Z</time>
      </trkpt>
      <trkpt lat="44.24077" lon="6.14366">
        <ele>1255</ele>
        <time>2010-01-01T01:32:34Z</time>
      </trkpt>
      <trkpt lat="44.24078" lon="6.1437">
        <ele>1256</ele>
        <time>2010-01-01T01:32:34Z</time>
      </trkpt>
      <trkpt lat="44.24079" lon="6.14374">
        <ele>1257</ele>
        <time>2010-01-01T01:32:35Z</time>
      </trkpt>
      <trkpt lat="44.24079" lon="6.14378">
        <ele>1257</ele>
        <time>2010-01-01T01:32:36Z</time>
      </trkpt>
      <trkpt lat="44.2408" lon="6.14382">
        <ele>1258</ele>
        <time>2010-01-01T01:32:37Z</time>
      </trkpt>
      <trkpt lat="44.24081" lon="6.14385">
        <ele>1258</ele>
        <time>2010-01-01T01:32:37Z</time>
      </trkpt>
      <trkpt lat="44.24082" lon="6.14389">
        <ele>1259</ele>
        <time>2010-01-01T01:32:38Z</time>
      </trkpt>
      <trkpt lat="44.24083" lon="6.14393">
        <ele>1259</ele>
        <time>2010-01-01T01:32:39Z</time>
      </trkpt>
      <trkpt lat="44.24084" lon="6.14397">
        <ele>1259</ele>
        <time>2010-01-01T01:32:40Z</time>
      </trkpt>
      <trkpt lat="44.24085" lon="6.14401">
        <ele>1259</ele>
        <time>2010-01-01T01:32:41Z</time>
      </trkpt>
      <trkpt lat="44.24086" lon="6.14404">
        <ele>1259</ele>
        <time>2010-01-01T01:32:41Z</time>
      </trkpt>
      <trkpt lat="44.24087" lon="6.14408">
        <ele>1259</ele>
        <time>2010-01-01T01:32:42Z</time>
      </trkpt>
      <trkpt lat="44.24089" lon="6.14413">
        <ele>1259</ele>
        <time>2010-01-01T01:32:43Z</time>
      </trkpt>
      <trkpt lat="44.24091" lon="6.14418">
        <ele>1259</ele>
        <time>2010-01-01T01:32:44Z</time>
      </trkpt>
      <trkpt lat="44.24092" lon="6.14421">
        <ele>1258</ele>
        <time>2010-01-01T01:32:45Z</time>
      </trkpt>
      <trkpt lat="44.24094" lon="6.14427">
        <ele>1258</ele>
        <time>2010-01-01T01:32:46Z</time>
      </trkpt>
      <trkpt lat="44.24095" lon="6.14432">
        <ele>1259</ele>
        <time>2010-01-01T01:32:47Z</time>
      </trkpt>
      <trkpt lat="44.24096" lon="6.14435">
        <ele>1259</ele>
        <time>2010-01-01T01:32:48Z</time>
      </trkpt>
      <trkpt lat="44.24097" lon="6.14439">
        <ele>1259</ele>
        <time>2010-01-01T01:32:49Z</time>
      </trkpt>
      <trkpt lat="44.24099" lon="6.14444">
        <ele>1259</ele>
        <time>2010-01-01T01:32:50Z</time>
      </trkpt>
      <trkpt lat="44.24101" lon="6.14447">
        <ele>1259</ele>
        <time>2010-01-01T01:32:50Z</time>
      </trkpt>
      <trkpt lat="44.24102" lon="6.1445">
        <ele>1259</ele>
        <time>2010-01-01T01:32:51Z</time>
      </trkpt>
      <trkpt lat="44.24104" lon="6.14454">
        <ele>1259</ele>
        <time>2010-01-01T01:32:52Z</time>
      </trkpt>
      <trkpt lat="44.24106" lon="6.14458">
        <ele>1260</ele>
        <time>2010-01-01T01:32:53Z</time>
      </trkpt>
      <trkpt lat="44.24109" lon="6.14461">
        <ele>1260</ele>
        <time>2010-01-01T01:32:54Z</time>
      </trkpt>
      <trkpt lat="44.24111" lon="6.14465">
        <ele>1261</ele>
        <time>2010-01-01T01:32:55Z</time>
      </trkpt>
      <trkpt lat="44.24113" lon="6.14469">
        <ele>1261</ele>
        <time>2010-01-01T01:32:56Z</time>
      </trkpt>
      <trkpt lat="44.24114" lon="6.14473">
        <ele>1262</ele>
        <time>2010-01-01T01:32:56Z</time>
      </trkpt>
      <trkpt lat="44.24115" lon="6.14477">
        <ele>1261</ele>
        <time>2010-01-01T01:32:57Z</time>
      </trkpt>
      <trkpt lat="44.24116" lon="6.1448">
        <ele>1261</ele>
        <time>2010-01-01T01:32:58Z</time>
      </trkpt>
      <trkpt lat="44.24117" lon="6.14484">
        <ele>1261</ele>
        <time>2010-01-01T01:32:59Z</time>
      </trkpt>
      <trkpt lat="44.24117" lon="6.14489">
        <ele>1261</ele>
        <time>2010-01-01T01:33:00Z</time>
      </trkpt>
      <trkpt lat="44.24117" lon="6.14492">
        <ele>1261</ele>
        <time>2010-01-01T01:33:00Z</time>
      </trkpt>
      <trkpt lat="44.24117" lon="6.14496">
        <ele>1261</ele>
        <time>2010-01-01T01:33:01Z</time>
      </trkpt>
      <trkpt lat="44.24117" lon="6.14501">
        <ele>1262</ele>
        <time>2010-01-01T01:33:02Z</time>
      </trkpt>
      <trkpt lat="44.24117" lon="6.14505">
        <ele>1262</ele>
        <time>2010-01-01T01:33:03Z</time>
      </trkpt>
      <trkpt lat="44.24117" lon="6.14509">
        <ele>1263</ele>
        <time>2010-01-01T01:33:04Z</time>
      </trkpt>
      <trkpt lat="44.24117" lon="6.14513">
        <ele>1263</ele>
        <time>2010-01-01T01:33:04Z</time>
      </trkpt>
      <trkpt lat="44.24117" lon="6.14517">
        <ele>1263</ele>
        <time>2010-01-01T01:33:05Z</time>
      </trkpt>
      <trkpt lat="44.24117" lon="6.14521">
        <ele>1264</ele>
        <time>2010-01-01T01:33:06Z</time>
      </trkpt>
      <trkpt lat="44.24118" lon="6.14526">
        <ele>1264</ele>
        <time>2010-01-01T01:33:07Z</time>
      </trkpt>
      <trkpt lat="44.2412" lon="6.1453">
        <ele>1263</ele>
        <time>2010-01-01T01:33:08Z</time>
      </trkpt>
      <trkpt lat="44.24121" lon="6.14534">
        <ele>1264</ele>
        <time>2010-01-01T01:33:09Z</time>
      </trkpt>
      <trkpt lat="44.24121" lon="6.14538">
        <ele>1264</ele>
        <time>2010-01-01T01:33:09Z</time>
      </trkpt>
      <trkpt lat="44.24122" lon="6.14543">
        <ele>1264</ele>
        <time>2010-01-01T01:33:10Z</time>
      </trkpt>
      <trkpt lat="44.24123" lon="6.14547">
        <ele>1264</ele>
        <time>2010-01-01T01:33:11Z</time>
      </trkpt>
      <trkpt lat="44.24123" lon="6.14551">
        <ele>1265</ele>
        <time>2010-01-01T01:33:12Z</time>
      </trkpt>
      <trkpt lat="44.24124" lon="6.14555">
        <ele>1265</ele>
        <time>2010-01-01T01:33:13Z</time>
      </trkpt>
      <trkpt lat="44.24125" lon="6.14559">
        <ele>1264</ele>
        <time>2010-01-01T01:33:13Z</time>
      </trkpt>
      <trkpt lat="44.24126" lon="6.14564">
        <ele>1264</ele>
        <time>2010-01-01T01:33:14Z</time>
      </trkpt>
      <trkpt lat="44.24126" lon="6.14568">
        <ele>1264</ele>
        <time>2010-01-01T01:33:15Z</time>
      </trkpt>
      <trkpt lat="44.24126" lon="6.14573">
        <ele>1264</ele>
        <time>2010-01-01T01:33:16Z</time>
      </trkpt>
      <trkpt lat="44.24125" lon="6.14577">
        <ele>1265</ele>
        <time>2010-01-01T01:33:17Z</time>
      </trkpt>
      <trkpt lat="44.24125" lon="6.14581">
        <ele>1265</ele>
        <time>2010-01-01T01:33:18Z</time>
      </trkpt>
      <trkpt lat="44.24123" lon="6.14585">
        <ele>1266</ele>
        <time>2010-01-01T01:33:19Z</time>
      </trkpt>
      <trkpt lat="44.24122" lon="6.14589">
        <ele>1267</ele>
        <time>2010-01-01T01:33:19Z</time>
      </trkpt>
      <trkpt lat="44.24121" lon="6.14593">
        <ele>1268</ele>
        <time>2010-01-01T01:33:20Z</time>
      </trkpt>
      <trkpt lat="44.24119" lon="6.14596">
        <ele>1269</ele>
        <time>2010-01-01T01:33:21Z</time>
      </trkpt>
      <trkpt lat="44.24117" lon="6.146">
        <ele>1270</ele>
        <time>2010-01-01T01:33:22Z</time>
      </trkpt>
      <trkpt lat="44.24115" lon="6.14603">
        <ele>1271</ele>
        <time>2010-01-01T01:33:23Z</time>
      </trkpt>
      <trkpt lat="44.24113" lon="6.14606">
        <ele>1272</ele>
        <time>2010-01-01T01:33:23Z</time>
      </trkpt>
      <trkpt lat="44.24112" lon="6.14609">
        <ele>1273</ele>
        <time>2010-01-01T01:33:24Z</time>
      </trkpt>
      <trkpt lat="44.24109" lon="6.14614">
        <ele>1275</ele>
        <time>2010-01-01T01:33:25Z</time>
      </trkpt>
      <trkpt lat="44.24108" lon="6.14618">
        <ele>1276</ele>
        <time>2010-01-01T01:33:26Z</time>
      </trkpt>
      <trkpt lat="44.24106" lon="6.14621">
        <ele>1278</ele>
        <time>2010-01-01T01:33:27Z</time>
      </trkpt>
      <trkpt lat="44.24103" lon="6.14624">
        <ele>1280</ele>
        <time>2010-01-01T01:33:28Z</time>
      </trkpt>
      <trkpt lat="44.24102" lon="6.14627">
        <ele>1282</ele>
        <time>2010-01-01T01:33:29Z</time>
      </trkpt>
      <trkpt lat="44.24101" lon="6.14631">
        <ele>1283</ele>
        <time>2010-01-01T01:33:29Z</time>
      </trkpt>
      <trkpt lat="44.24101" lon="6.14636">
        <ele>1283</ele>
        <time>2010-01-01T01:33:30Z</time>
      </trkpt>
      <trkpt lat="44.24101" lon="6.1464">
        <ele>1282</ele>
        <time>2010-01-01T01:33:31Z</time>
      </trkpt>
      <trkpt lat="44.24103" lon="6.14644">
        <ele>1281</ele>
        <time>2010-01-01T01:33:32Z</time>
      </trkpt>
      <trkpt lat="44.24104" lon="6.14648">
        <ele>1280</ele>
        <time>2010-01-01T01:33:33Z</time>
      </trkpt>
      <trkpt lat="44.24105" lon="6.14651">
        <ele>1279</ele>
        <time>2010-01-01T01:33:33Z</time>
      </trkpt>
      <trkpt lat="44.24105" lon="6.14655">
        <ele>1279</ele>
        <time>2010-01-01T01:33:34Z</time>
      </trkpt>
      <trkpt lat="44.24103" lon="6.1466">
        <ele>1281</ele>
        <time>2010-01-01T01:33:35Z</time>
      </trkpt>
      <trkpt lat="44.24101" lon="6.14664">
        <ele>1283</ele>
        <time>2010-01-01T01:33:36Z</time>
      </trkpt>
      <trkpt lat="44.241" lon="6.14667">
        <ele>1284</ele>
        <time>2010-01-01T01:33:37Z</time>
      </trkpt>
      <trkpt lat="44.24099" lon="6.14671">
        <ele>1285</ele>
        <time>2010-01-01T01:33:38Z</time>
      </trkpt>
      <trkpt lat="44.24098" lon="6.14675">
        <ele>1287</ele>
        <time>2010-01-01T01:33:38Z</time>
      </trkpt>
      <trkpt lat="44.24098" lon="6.14679">
        <ele>1288</ele>
        <time>2010-01-01T01:33:39Z</time>
      </trkpt>
      <trkpt lat="44.24098" lon="6.14683">
        <ele>1289</ele>
        <time>2010-01-01T01:33:40Z</time>
      </trkpt>
      <trkpt lat="44.24098" lon="6.14688">
        <ele>1290</ele>
        <time>2010-01-01T01:33:41Z</time>
      </trkpt>
      <trkpt lat="44.24098" lon="6.14693">
        <ele>1291</ele>
        <time>2010-01-01T01:33:42Z</time>
      </trkpt>
      <trkpt lat="44.24099" lon="6.14697">
        <ele>1291</ele>
        <time>2010-01-01T01:33:43Z</time>
      </trkpt>
      <trkpt lat="44.24099" lon="6.14701">
        <ele>1291</ele>
        <time>2010-01-01T01:33:43Z</time>
      </trkpt>
      <trkpt lat="44.24099" lon="6.14706">
        <ele>1293</ele>
        <time>2010-01-01T01:33:44Z</time>
      </trkpt>
      <trkpt lat="44.24098" lon="6.1471">
        <ele>1294</ele>
        <time>2010-01-01T01:33:45Z</time>
      </trkpt>
      <trkpt lat="44.241" lon="6.14715">
        <ele>1295</ele>
        <time>2010-01-01T01:33:46Z</time>
      </trkpt>
      <trkpt lat="44.24101" lon="6.14719">
        <ele>1295</ele>
        <time>2010-01-01T01:33:47Z</time>
      </trkpt>
      <trkpt lat="44.24102" lon="6.14723">
        <ele>1296</ele>
        <time>2010-01-01T01:33:48Z</time>
      </trkpt>
      <trkpt lat="44.24103" lon="6.14727">
        <ele>1297</ele>
        <time>2010-01-01T01:33:49Z</time>
      </trkpt>
      <trkpt lat="44.24102" lon="6.14732">
        <ele>1299</ele>
        <time>2010-01-01T01:33:50Z</time>
      </trkpt>
      <trkpt lat="44.24102" lon="6.14735">
        <ele>1301</ele>
        <time>2010-01-01T01:33:50Z</time>
      </trkpt>
      <trkpt lat="44.24103" lon="6.14739">
        <ele>1302</ele>
        <time>2010-01-01T01:33:51Z</time>
      </trkpt>
      <trkpt lat="44.24105" lon="6.14744">
        <ele>1304</ele>
        <time>2010-01-01T01:33:52Z</time>
      </trkpt>
      <trkpt lat="44.24107" lon="6.14749">
        <ele>1305</ele>
        <time>2010-01-01T01:33:53Z</time>
      </trkpt>
      <trkpt lat="44.24108" lon="6.14755">
        <ele>1306</ele>
        <time>2010-01-01T01:33:54Z</time>
      </trkpt>
      <trkpt lat="44.24109" lon="6.1476">
        <ele>1306</ele>
        <time>2010-01-01T01:33:55Z</time>
      </trkpt>
      <trkpt lat="44.2411" lon="6.14765">
        <ele>1306</ele>
        <time>2010-01-01T01:33:56Z</time>
      </trkpt>
      <trkpt lat="44.24111" lon="6.14771">
        <ele>1307</ele>
        <time>2010-01-01T01:33:57Z</time>
      </trkpt>
      <trkpt lat="44.24111" lon="6.14776">
        <ele>1307</ele>
        <time>2010-01-01T01:33:59Z</time>
      </trkpt>
      <trkpt lat="44.2411" lon="6.14782">
        <ele>1308</ele>
        <time>2010-01-01T01:34:00Z</time>
      </trkpt>
      <trkpt lat="44.24109" lon="6.14788">
        <ele>1308</ele>
        <time>2010-01-01T01:34:01Z</time>
      </trkpt>
      <trkpt lat="44.24107" lon="6.14794">
        <ele>1309</ele>
        <time>2010-01-01T01:34:02Z</time>
      </trkpt>
      <trkpt lat="44.24105" lon="6.148">
        <ele>1309</ele>
        <time>2010-01-01T01:34:03Z</time>
      </trkpt>
      <trkpt lat="44.24103" lon="6.14806">
        <ele>1310</ele>
        <time>2010-01-01T01:34:05Z</time>
      </trkpt>
      <trkpt lat="44.24101" lon="6.14809">
        <ele>1311</ele>
        <time>2010-01-01T01:34:05Z</time>
      </trkpt>
      <trkpt lat="44.241" lon="6.14813">
        <ele>1312</ele>
        <time>2010-01-01T01:34:06Z</time>
      </trkpt>
      <trkpt lat="44.24099" lon="6.1482">
        <ele>1313</ele>
        <time>2010-01-01T01:34:08Z</time>
      </trkpt>
      <trkpt lat="44.24098" lon="6.14827">
        <ele>1314</ele>
        <time>2010-01-01T01:34:09Z</time>
      </trkpt>
      <trkpt lat="44.24097" lon="6.1483">
        <ele>1314</ele>
        <time>2010-01-01T01:34:10Z</time>
      </trkpt>
      <trkpt lat="44.24095" lon="6.14835">
        <ele>1315</ele>
        <time>2010-01-01T01:34:11Z</time>
      </trkpt>
      <trkpt lat="44.24096" lon="6.1484">
        <ele>1315</ele>
        <time>2010-01-01T01:34:11Z</time>
      </trkpt>
      <trkpt lat="44.24099" lon="6.14843">
        <ele>1313</ele>
        <time>2010-01-01T01:34:12Z</time>
      </trkpt>
      <trkpt lat="44.24102" lon="6.14845">
        <ele>1312</ele>
        <time>2010-01-01T01:34:13Z</time>
      </trkpt>
      <trkpt lat="44.24105" lon="6.14846">
        <ele>1310</ele>
        <time>2010-01-01T01:34:14Z</time>
      </trkpt>
      <trkpt lat="44.24108" lon="6.14846">
        <ele>1308</ele>
        <time>2010-01-01T01:34:15Z</time>
      </trkpt>
      <trkpt lat="44.24112" lon="6.14847">
        <ele>1307</ele>
        <time>2010-01-01T01:34:16Z</time>
      </trkpt>
      <trkpt lat="44.24115" lon="6.14851">
        <ele>1306</ele>
        <time>2010-01-01T01:34:17Z</time>
      </trkpt>
      <trkpt lat="44.24116" lon="6.14854">
        <ele>1306</ele>
        <time>2010-01-01T01:34:18Z</time>
      </trkpt>
      <trkpt lat="44.24118" lon="6.14857">
        <ele>1305</ele>
        <time>2010-01-01T01:34:19Z</time>
      </trkpt>
      <trkpt lat="44.2412" lon="6.14861">
        <ele>1305</ele>
        <time>2010-01-01T01:34:20Z</time>
      </trkpt>
      <trkpt lat="44.24121" lon="6.14866">
        <ele>1305</ele>
        <time>2010-01-01T01:34:21Z</time>
      </trkpt>
      <trkpt lat="44.24122" lon="6.1487">
        <ele>1305</ele>
        <time>2010-01-01T01:34:22Z</time>
      </trkpt>
      <trkpt lat="44.24123" lon="6.14875">
        <ele>1305</ele>
        <time>2010-01-01T01:34:23Z</time>
      </trkpt>
      <trkpt lat="44.24125" lon="6.14878">
        <ele>1304</ele>
        <time>2010-01-01T01:34:23Z</time>
      </trkpt>
      <trkpt lat="44.24128" lon="6.14883">
        <ele>1304</ele>
        <time>2010-01-01T01:34:24Z</time>
      </trkpt>
      <trkpt lat="44.24131" lon="6.14886">
        <ele>1303</ele>
        <time>2010-01-01T01:34:26Z</time>
      </trkpt>
      <trkpt lat="44.24134" lon="6.1489">
        <ele>1302</ele>
        <time>2010-01-01T01:34:27Z</time>
      </trkpt>
      <trkpt lat="44.24136" lon="6.14892">
        <ele>1302</ele>
        <time>2010-01-01T01:34:27Z</time>
      </trkpt>
      <trkpt lat="44.24139" lon="6.14895">
        <ele>1301</ele>
        <time>2010-01-01T01:34:28Z</time>
      </trkpt>
      <trkpt lat="44.24143" lon="6.14898">
        <ele>1302</ele>
        <time>2010-01-01T01:34:29Z</time>
      </trkpt>
      <trkpt lat="44.24145" lon="6.149">
        <ele>1302</ele>
        <time>2010-01-01T01:34:30Z</time>
      </trkpt>
      <trkpt lat="44.24147" lon="6.14903">
        <ele>1303</ele>
        <time>2010-01-01T01:34:31Z</time>
      </trkpt>
      <trkpt lat="44.2415" lon="6.14908">
        <ele>1303</ele>
        <time>2010-01-01T01:34:32Z</time>
      </trkpt>
      <trkpt lat="44.24152" lon="6.14912">
        <ele>1303</ele>
        <time>2010-01-01T01:34:33Z</time>
      </trkpt>
      <trkpt lat="44.24155" lon="6.14916">
        <ele>1303</ele>
        <time>2010-01-01T01:34:34Z</time>
      </trkpt>
      <trkpt lat="44.24157" lon="6.14921">
        <ele>1303</ele>
        <time>2010-01-01T01:34:35Z</time>
      </trkpt>
      <trkpt lat="44.24159" lon="6.14924">
        <ele>1304</ele>
        <time>2010-01-01T01:34:36Z</time>
      </trkpt>
      <trkpt lat="44.24163" lon="6.14927">
        <ele>1304</ele>
        <time>2010-01-01T01:34:37Z</time>
      </trkpt>
      <trkpt lat="44.24166" lon="6.1493">
        <ele>1305</ele>
        <time>2010-01-01T01:34:38Z</time>
      </trkpt>
      <trkpt lat="44.24169" lon="6.14932">
        <ele>1305</ele>
        <time>2010-01-01T01:34:39Z</time>
      </trkpt>
      <trkpt lat="44.24172" lon="6.14935">
        <ele>1306</ele>
        <time>2010-01-01T01:34:40Z</time>
      </trkpt>
      <trkpt lat="44.24174" lon="6.14939">
        <ele>1306</ele>
        <time>2010-01-01T01:34:41Z</time>
      </trkpt>
      <trkpt lat="44.24175" lon="6.14942">
        <ele>1306</ele>
        <time>2010-01-01T01:34:42Z</time>
      </trkpt>
      <trkpt lat="44.24175" lon="6.14947">
        <ele>1306</ele>
        <time>2010-01-01T01:34:43Z</time>
      </trkpt>
      <trkpt lat="44.24176" lon="6.14951">
        <ele>1306</ele>
        <time>2010-01-01T01:34:43Z</time>
      </trkpt>
      <trkpt lat="44.24177" lon="6.14955">
        <ele>1306</ele>
        <time>2010-01-01T01:34:44Z</time>
      </trkpt>
      <trkpt lat="44.24177" lon="6.14959">
        <ele>1306</ele>
        <time>2010-01-01T01:34:45Z</time>
      </trkpt>
      <trkpt lat="44.24178" lon="6.14964">
        <ele>1306</ele>
        <time>2010-01-01T01:34:46Z</time>
      </trkpt>
      <trkpt lat="44.24179" lon="6.14968">
        <ele>1305</ele>
        <time>2010-01-01T01:34:47Z</time>
      </trkpt>
      <trkpt lat="44.2418" lon="6.14971">
        <ele>1305</ele>
        <time>2010-01-01T01:34:48Z</time>
      </trkpt>
      <trkpt lat="44.24182" lon="6.14975">
        <ele>1305</ele>
        <time>2010-01-01T01:34:48Z</time>
      </trkpt>
      <trkpt lat="44.24183" lon="6.14978">
        <ele>1305</ele>
        <time>2010-01-01T01:34:49Z</time>
      </trkpt>
      <trkpt lat="44.24185" lon="6.14982">
        <ele>1304</ele>
        <time>2010-01-01T01:34:50Z</time>
      </trkpt>
      <trkpt lat="44.24188" lon="6.14987">
        <ele>1304</ele>
        <time>2010-01-01T01:34:51Z</time>
      </trkpt>
      <trkpt lat="44.2419" lon="6.14991">
        <ele>1303</ele>
        <time>2010-01-01T01:34:52Z</time>
      </trkpt>
      <trkpt lat="44.24193" lon="6.14995">
        <ele>1302</ele>
        <time>2010-01-01T01:34:53Z</time>
      </trkpt>
      <trkpt lat="44.24194" lon="6.14998">
        <ele>1302</ele>
        <time>2010-01-01T01:34:54Z</time>
      </trkpt>
      <trkpt lat="44.24196" lon="6.15001">
        <ele>1302</ele>
        <time>2010-01-01T01:34:55Z</time>
      </trkpt>
      <trkpt lat="44.24199" lon="6.15005">
        <ele>1303</ele>
        <time>2010-01-01T01:34:56Z</time>
      </trkpt>
      <trkpt lat="44.24201" lon="6.15008">
        <ele>1304</ele>
        <time>2010-01-01T01:34:56Z</time>
      </trkpt>
      <trkpt lat="44.24203" lon="6.15011">
        <ele>1305</ele>
        <time>2010-01-01T01:34:57Z</time>
      </trkpt>
      <trkpt lat="44.24204" lon="6.15015">
        <ele>1305</ele>
        <time>2010-01-01T01:34:58Z</time>
      </trkpt>
      <trkpt lat="44.24206" lon="6.15019">
        <ele>1305</ele>
        <time>2010-01-01T01:34:59Z</time>
      </trkpt>
      <trkpt lat="44.24207" lon="6.15024">
        <ele>1306</ele>
        <time>2010-01-01T01:35:00Z</time>
      </trkpt>
      <trkpt lat="44.24209" lon="6.15027">
        <ele>1306</ele>
        <time>2010-01-01T01:35:01Z</time>
      </trkpt>
      <trkpt lat="44.2421" lon="6.15031">
        <ele>1306</ele>
        <time>2010-01-01T01:35:02Z</time>
      </trkpt>
      <trkpt lat="44.24212" lon="6.15035">
        <ele>1307</ele>
        <time>2010-01-01T01:35:02Z</time>
      </trkpt>
      <trkpt lat="44.24213" lon="6.15039">
        <ele>1307</ele>
        <time>2010-01-01T01:35:03Z</time>
      </trkpt>
      <trkpt lat="44.24214" lon="6.15043">
        <ele>1307</ele>
        <time>2010-01-01T01:35:04Z</time>
      </trkpt>
      <trkpt lat="44.24214" lon="6.15048">
        <ele>1307</ele>
        <time>2010-01-01T01:35:05Z</time>
      </trkpt>
      <trkpt lat="44.24214" lon="6.15053">
        <ele>1306</ele>
        <time>2010-01-01T01:35:06Z</time>
      </trkpt>
      <trkpt lat="44.24212" lon="6.15058">
        <ele>1306</ele>
        <time>2010-01-01T01:35:07Z</time>
      </trkpt>
      <trkpt lat="44.24211" lon="6.15063">
        <ele>1306</ele>
        <time>2010-01-01T01:35:08Z</time>
      </trkpt>
      <trkpt lat="44.2421" lon="6.15068">
        <ele>1306</ele>
        <time>2010-01-01T01:35:09Z</time>
      </trkpt>
      <trkpt lat="44.24209" lon="6.15073">
        <ele>1306</ele>
        <time>2010-01-01T01:35:10Z</time>
      </trkpt>
      <trkpt lat="44.24208" lon="6.15079">
        <ele>1306</ele>
        <time>2010-01-01T01:35:11Z</time>
      </trkpt>
      <trkpt lat="44.24207" lon="6.15084">
        <ele>1306</ele>
        <time>2010-01-01T01:35:12Z</time>
      </trkpt>
      <trkpt lat="44.24206" lon="6.1509">
        <ele>1306</ele>
        <time>2010-01-01T01:35:13Z</time>
      </trkpt>
      <trkpt lat="44.24205" lon="6.15095">
        <ele>1306</ele>
        <time>2010-01-01T01:35:14Z</time>
      </trkpt>
      <trkpt lat="44.24204" lon="6.151">
        <ele>1307</ele>
        <time>2010-01-01T01:35:15Z</time>
      </trkpt>
      <trkpt lat="44.24203" lon="6.15105">
        <ele>1307</ele>
        <time>2010-01-01T01:35:16Z</time>
      </trkpt>
      <trkpt lat="44.24201" lon="6.1511">
        <ele>1307</ele>
        <time>2010-01-01T01:35:18Z</time>
      </trkpt>
      <trkpt lat="44.24198" lon="6.15115">
        <ele>1306</ele>
        <time>2010-01-01T01:35:19Z</time>
      </trkpt>
      <trkpt lat="44.24195" lon="6.15119">
        <ele>1306</ele>
        <time>2010-01-01T01:35:20Z</time>
      </trkpt>
      <trkpt lat="44.24192" lon="6.15124">
        <ele>1305</ele>
        <time>2010-01-01T01:35:21Z</time>
      </trkpt>
      <trkpt lat="44.24188" lon="6.15128">
        <ele>1305</ele>
        <time>2010-01-01T01:35:22Z</time>
      </trkpt>
      <trkpt lat="44.24184" lon="6.15132">
        <ele>1304</ele>
        <time>2010-01-01T01:35:24Z</time>
      </trkpt>
      <trkpt lat="44.24181" lon="6.15137">
        <ele>1303</ele>
        <time>2010-01-01T01:35:25Z</time>
      </trkpt>
      <trkpt lat="44.24179" lon="6.15144">
        <ele>1303</ele>
        <time>2010-01-01T01:35:26Z</time>
      </trkpt>
      <trkpt lat="44.24178" lon="6.1515">
        <ele>1302</ele>
        <time>2010-01-01T01:35:28Z</time>
      </trkpt>
      <trkpt lat="44.24177" lon="6.15157">
        <ele>1302</ele>
        <time>2010-01-01T01:35:29Z</time>
      </trkpt>
      <trkpt lat="44.24177" lon="6.15164">
        <ele>1301</ele>
        <time>2010-01-01T01:35:30Z</time>
      </trkpt>
      <trkpt lat="44.24176" lon="6.15171">
        <ele>1301</ele>
        <time>2010-01-01T01:35:32Z</time>
      </trkpt>
      <trkpt lat="44.24175" lon="6.15178">
        <ele>1302</ele>
        <time>2010-01-01T01:35:33Z</time>
      </trkpt>
      <trkpt lat="44.24174" lon="6.15182">
        <ele>1302</ele>
        <time>2010-01-01T01:35:34Z</time>
      </trkpt>
      <trkpt lat="44.24173" lon="6.15189">
        <ele>1303</ele>
        <time>2010-01-01T01:35:35Z</time>
      </trkpt>
      <trkpt lat="44.24172" lon="6.15193">
        <ele>1303</ele>
        <time>2010-01-01T01:35:36Z</time>
      </trkpt>
      <trkpt lat="44.24172" lon="6.15197">
        <ele>1303</ele>
        <time>2010-01-01T01:35:37Z</time>
      </trkpt>
      <trkpt lat="44.24172" lon="6.152">
        <ele>1304</ele>
        <time>2010-01-01T01:35:37Z</time>
      </trkpt>
      <trkpt lat="44.24171" lon="6.15204">
        <ele>1304</ele>
        <time>2010-01-01T01:35:38Z</time>
      </trkpt>
      <trkpt lat="44.24171" lon="6.15211">
        <ele>1304</ele>
        <time>2010-01-01T01:35:39Z</time>
      </trkpt>
      <trkpt lat="44.24173" lon="6.15217">
        <ele>1306</ele>
        <time>2010-01-01T01:35:41Z</time>
      </trkpt>
      <trkpt lat="44.24174" lon="6.15224">
        <ele>1307</ele>
        <time>2010-01-01T01:35:42Z</time>
      </trkpt>
      <trkpt lat="44.24176" lon="6.15228">
        <ele>1308</ele>
        <time>2010-01-01T01:35:43Z</time>
      </trkpt>
      <trkpt lat="44.24177" lon="6.15235">
        <ele>1309</ele>
        <time>2010-01-01T01:35:44Z</time>
      </trkpt>
      <trkpt lat="44.24177" lon="6.15239">
        <ele>1309</ele>
        <time>2010-01-01T01:35:45Z</time>
      </trkpt>
      <trkpt lat="44.24176" lon="6.15245">
        <ele>1309</ele>
        <time>2010-01-01T01:35:46Z</time>
      </trkpt>
      <trkpt lat="44.24175" lon="6.15252">
        <ele>1309</ele>
        <time>2010-01-01T01:35:47Z</time>
      </trkpt>
      <trkpt lat="44.24173" lon="6.15259">
        <ele>1309</ele>
        <time>2010-01-01T01:35:49Z</time>
      </trkpt>
      <trkpt lat="44.2417" lon="6.15265">
        <ele>1309</ele>
        <time>2010-01-01T01:35:50Z</time>
      </trkpt>
      <trkpt lat="44.24167" lon="6.1527">
        <ele>1309</ele>
        <time>2010-01-01T01:35:51Z</time>
      </trkpt>
      <trkpt lat="44.24164" lon="6.15275">
        <ele>1309</ele>
        <time>2010-01-01T01:35:53Z</time>
      </trkpt>
      <trkpt lat="44.24162" lon="6.1528">
        <ele>1310</ele>
        <time>2010-01-01T01:35:54Z</time>
      </trkpt>
      <trkpt lat="44.24159" lon="6.15284">
        <ele>1310</ele>
        <time>2010-01-01T01:35:55Z</time>
      </trkpt>
      <trkpt lat="44.24156" lon="6.15289">
        <ele>1310</ele>
        <time>2010-01-01T01:35:56Z</time>
      </trkpt>
      <trkpt lat="44.24153" lon="6.15292">
        <ele>1310</ele>
        <time>2010-01-01T01:35:57Z</time>
      </trkpt>
      <trkpt lat="44.2415" lon="6.15295">
        <ele>1310</ele>
        <time>2010-01-01T01:35:58Z</time>
      </trkpt>
      <trkpt lat="44.24147" lon="6.15298">
        <ele>1310</ele>
        <time>2010-01-01T01:35:59Z</time>
      </trkpt>
      <trkpt lat="44.24144" lon="6.153">
        <ele>1309</ele>
        <time>2010-01-01T01:36:00Z</time>
      </trkpt>
      <trkpt lat="44.24141" lon="6.15303">
        <ele>1309</ele>
        <time>2010-01-01T01:36:01Z</time>
      </trkpt>
      <trkpt lat="44.24138" lon="6.15305">
        <ele>1309</ele>
        <time>2010-01-01T01:36:02Z</time>
      </trkpt>
      <trkpt lat="44.24135" lon="6.15308">
        <ele>1309</ele>
        <time>2010-01-01T01:36:03Z</time>
      </trkpt>
      <trkpt lat="44.24132" lon="6.1531">
        <ele>1309</ele>
        <time>2010-01-01T01:36:04Z</time>
      </trkpt>
      <trkpt lat="44.24128" lon="6.15312">
        <ele>1308</ele>
        <time>2010-01-01T01:36:05Z</time>
      </trkpt>
      <trkpt lat="44.24123" lon="6.15314">
        <ele>1308</ele>
        <time>2010-01-01T01:36:06Z</time>
      </trkpt>
      <trkpt lat="44.2412" lon="6.15316">
        <ele>1307</ele>
        <time>2010-01-01T01:36:07Z</time>
      </trkpt>
      <trkpt lat="44.24116" lon="6.15318">
        <ele>1307</ele>
        <time>2010-01-01T01:36:08Z</time>
      </trkpt>
      <trkpt lat="44.24112" lon="6.1532">
        <ele>1306</ele>
        <time>2010-01-01T01:36:09Z</time>
      </trkpt>
      <trkpt lat="44.24109" lon="6.15322">
        <ele>1306</ele>
        <time>2010-01-01T01:36:10Z</time>
      </trkpt>
      <trkpt lat="44.24106" lon="6.15324">
        <ele>1306</ele>
        <time>2010-01-01T01:36:11Z</time>
      </trkpt>
      <trkpt lat="44.24102" lon="6.15326">
        <ele>1305</ele>
        <time>2010-01-01T01:36:12Z</time>
      </trkpt>
      <trkpt lat="44.24099" lon="6.15328">
        <ele>1305</ele>
        <time>2010-01-01T01:36:13Z</time>
      </trkpt>
      <trkpt lat="44.24096" lon="6.15329">
        <ele>1304</ele>
        <time>2010-01-01T01:36:14Z</time>
      </trkpt>
      <trkpt lat="44.24092" lon="6.15331">
        <ele>1304</ele>
        <time>2010-01-01T01:36:15Z</time>
      </trkpt>
      <trkpt lat="44.24088" lon="6.15334">
        <ele>1303</ele>
        <time>2010-01-01T01:36:16Z</time>
      </trkpt>
      <trkpt lat="44.24084" lon="6.15335">
        <ele>1302</ele>
        <time>2010-01-01T01:36:17Z</time>
      </trkpt>
      <trkpt lat="44.24081" lon="6.15337">
        <ele>1302</ele>
        <time>2010-01-01T01:36:18Z</time>
      </trkpt>
      <trkpt lat="44.24077" lon="6.15339">
        <ele>1302</ele>
        <time>2010-01-01T01:36:19Z</time>
      </trkpt>
      <trkpt lat="44.24074" lon="6.15339">
        <ele>1301</ele>
        <time>2010-01-01T01:36:20Z</time>
      </trkpt>
      <trkpt lat="44.2407" lon="6.1534">
        <ele>1301</ele>
        <time>2010-01-01T01:36:21Z</time>
      </trkpt>
      <trkpt lat="44.24066" lon="6.15341">
        <ele>1300</ele>
        <time>2010-01-01T01:36:22Z</time>
      </trkpt>
      <trkpt lat="44.24063" lon="6.15342">
        <ele>1300</ele>
        <time>2010-01-01T01:36:23Z</time>
      </trkpt>
      <trkpt lat="44.2406" lon="6.15344">
        <ele>1300</ele>
        <time>2010-01-01T01:36:24Z</time>
      </trkpt>
      <trkpt lat="44.24057" lon="6.15346">
        <ele>1300</ele>
        <time>2010-01-01T01:36:25Z</time>
      </trkpt>
      <trkpt lat="44.24055" lon="6.15348">
        <ele>1299</ele>
        <time>2010-01-01T01:36:26Z</time>
      </trkpt>
      <trkpt lat="44.24052" lon="6.1535">
        <ele>1299</ele>
        <time>2010-01-01T01:36:26Z</time>
      </trkpt>
      <trkpt lat="44.24051" lon="6.15354">
        <ele>1300</ele>
        <time>2010-01-01T01:36:27Z</time>
      </trkpt>
      <trkpt lat="44.2405" lon="6.15358">
        <ele>1300</ele>
        <time>2010-01-01T01:36:28Z</time>
      </trkpt>
      <trkpt lat="44.24048" lon="6.15364">
        <ele>1300</ele>
        <time>2010-01-01T01:36:29Z</time>
      </trkpt>
      <trkpt lat="44.24047" lon="6.15371">
        <ele>1301</ele>
        <time>2010-01-01T01:36:31Z</time>
      </trkpt>
      <trkpt lat="44.24047" lon="6.15375">
        <ele>1301</ele>
        <time>2010-01-01T01:36:31Z</time>
      </trkpt>
      <trkpt lat="44.24047" lon="6.15379">
        <ele>1302</ele>
        <time>2010-01-01T01:36:32Z</time>
      </trkpt>
      <trkpt lat="44.24047" lon="6.15385">
        <ele>1302</ele>
        <time>2010-01-01T01:36:33Z</time>
      </trkpt>
      <trkpt lat="44.24047" lon="6.15391">
        <ele>1303</ele>
        <time>2010-01-01T01:36:34Z</time>
      </trkpt>
      <trkpt lat="44.24045" lon="6.15396">
        <ele>1304</ele>
        <time>2010-01-01T01:36:36Z</time>
      </trkpt>
      <trkpt lat="44.24042" lon="6.15401">
        <ele>1304</ele>
        <time>2010-01-01T01:36:37Z</time>
      </trkpt>
      <trkpt lat="44.24039" lon="6.15404">
        <ele>1305</ele>
        <time>2010-01-01T01:36:38Z</time>
      </trkpt>
      <trkpt lat="44.24036" lon="6.15406">
        <ele>1305</ele>
        <time>2010-01-01T01:36:39Z</time>
      </trkpt>
      <trkpt lat="44.24033" lon="6.15405">
        <ele>1305</ele>
        <time>2010-01-01T01:36:40Z</time>
      </trkpt>
      <trkpt lat="44.2403" lon="6.15404">
        <ele>1304</ele>
        <time>2010-01-01T01:36:40Z</time>
      </trkpt>
      <trkpt lat="44.24024" lon="6.15403">
        <ele>1304</ele>
        <time>2010-01-01T01:36:42Z</time>
      </trkpt>
      <trkpt lat="44.24019" lon="6.15405">
        <ele>1303</ele>
        <time>2010-01-01T01:36:43Z</time>
      </trkpt>
      <trkpt lat="44.24017" lon="6.15406">
        <ele>1303</ele>
        <time>2010-01-01T01:36:44Z</time>
      </trkpt>
      <trkpt lat="44.24014" lon="6.15408">
        <ele>1303</ele>
        <time>2010-01-01T01:36:45Z</time>
      </trkpt>
      <trkpt lat="44.2401" lon="6.15413">
        <ele>1304</ele>
        <time>2010-01-01T01:36:46Z</time>
      </trkpt>
      <trkpt lat="44.24009" lon="6.15416">
        <ele>1304</ele>
        <time>2010-01-01T01:36:47Z</time>
      </trkpt>
      <trkpt lat="44.24005" lon="6.15421">
        <ele>1304</ele>
        <time>2010-01-01T01:36:48Z</time>
      </trkpt>
      <trkpt lat="44.24002" lon="6.15427">
        <ele>1305</ele>
        <time>2010-01-01T01:36:50Z</time>
      </trkpt>
      <trkpt lat="44.24" lon="6.1543">
        <ele>1305</ele>
        <time>2010-01-01T01:36:50Z</time>
      </trkpt>
      <trkpt lat="44.23998" lon="6.15432">
        <ele>1305</ele>
        <time>2010-01-01T01:36:51Z</time>
      </trkpt>
      <trkpt lat="44.23996" lon="6.15435">
        <ele>1305</ele>
        <time>2010-01-01T01:36:52Z</time>
      </trkpt>
      <trkpt lat="44.23993" lon="6.1544">
        <ele>1305</ele>
        <time>2010-01-01T01:36:53Z</time>
      </trkpt>
      <trkpt lat="44.23991" lon="6.15443">
        <ele>1305</ele>
        <time>2010-01-01T01:36:54Z</time>
      </trkpt>
      <trkpt lat="44.23989" lon="6.15446">
        <ele>1305</ele>
        <time>2010-01-01T01:36:55Z</time>
      </trkpt>
      <trkpt lat="44.23985" lon="6.15451">
        <ele>1305</ele>
        <time>2010-01-01T01:36:56Z</time>
      </trkpt>
      <trkpt lat="44.23981" lon="6.15456">
        <ele>1306</ele>
        <time>2010-01-01T01:36:57Z</time>
      </trkpt>
      <trkpt lat="44.23978" lon="6.15461">
        <ele>1306</ele>
        <time>2010-01-01T01:36:59Z</time>
      </trkpt>
      <trkpt lat="44.23975" lon="6.15467">
        <ele>1305</ele>
        <time>2010-01-01T01:37:00Z</time>
      </trkpt>
      <trkpt lat="44.23973" lon="6.1547">
        <ele>1305</ele>
        <time>2010-01-01T01:37:01Z</time>
      </trkpt>
      <trkpt lat="44.23971" lon="6.15473">
        <ele>1306</ele>
        <time>2010-01-01T01:37:02Z</time>
      </trkpt>
      <trkpt lat="44.23968" lon="6.15479">
        <ele>1306</ele>
        <time>2010-01-01T01:37:03Z</time>
      </trkpt>
      <trkpt lat="44.23966" lon="6.15482">
        <ele>1306</ele>
        <time>2010-01-01T01:37:04Z</time>
      </trkpt>
      <trkpt lat="44.23963" lon="6.15487">
        <ele>1307</ele>
        <time>2010-01-01T01:37:05Z</time>
      </trkpt>
      <trkpt lat="44.23959" lon="6.15493">
        <ele>1307</ele>
        <time>2010-01-01T01:37:07Z</time>
      </trkpt>
      <trkpt lat="44.23957" lon="6.15495">
        <ele>1307</ele>
        <time>2010-01-01T01:37:07Z</time>
      </trkpt>
      <trkpt lat="44.23955" lon="6.15498">
        <ele>1306</ele>
        <time>2010-01-01T01:37:08Z</time>
      </trkpt>
      <trkpt lat="44.23953" lon="6.155">
        <ele>1306</ele>
        <time>2010-01-01T01:37:09Z</time>
      </trkpt>
      <trkpt lat="44.2395" lon="6.15502">
        <ele>1305</ele>
        <time>2010-01-01T01:37:10Z</time>
      </trkpt>
      <trkpt lat="44.23948" lon="6.15505">
        <ele>1305</ele>
        <time>2010-01-01T01:37:10Z</time>
      </trkpt>
      <trkpt lat="44.23946" lon="6.15507">
        <ele>1304</ele>
        <time>2010-01-01T01:37:11Z</time>
      </trkpt>
      <trkpt lat="44.23943" lon="6.1551">
        <ele>1304</ele>
        <time>2010-01-01T01:37:12Z</time>
      </trkpt>
      <trkpt lat="44.23941" lon="6.15513">
        <ele>1304</ele>
        <time>2010-01-01T01:37:13Z</time>
      </trkpt>
      <trkpt lat="44.23939" lon="6.15516">
        <ele>1304</ele>
        <time>2010-01-01T01:37:14Z</time>
      </trkpt>
      <trkpt lat="44.23937" lon="6.15519">
        <ele>1304</ele>
        <time>2010-01-01T01:37:14Z</time>
      </trkpt>
      <trkpt lat="44.23935" lon="6.15522">
        <ele>1304</ele>
        <time>2010-01-01T01:37:15Z</time>
      </trkpt>
      <trkpt lat="44.23933" lon="6.15525">
        <ele>1304</ele>
        <time>2010-01-01T01:37:16Z</time>
      </trkpt>
      <trkpt lat="44.23931" lon="6.15528">
        <ele>1304</ele>
        <time>2010-01-01T01:37:17Z</time>
      </trkpt>
      <trkpt lat="44.2393" lon="6.15531">
        <ele>1304</ele>
        <time>2010-01-01T01:37:17Z</time>
      </trkpt>
      <trkpt lat="44.23928" lon="6.15535">
        <ele>1304</ele>
        <time>2010-01-01T01:37:18Z</time>
      </trkpt>
      <trkpt lat="44.23926" lon="6.15539">
        <ele>1304</ele>
        <time>2010-01-01T01:37:19Z</time>
      </trkpt>
      <trkpt lat="44.23925" lon="6.15544">
        <ele>1304</ele>
        <time>2010-01-01T01:37:20Z</time>
      </trkpt>
      <trkpt lat="44.23923" lon="6.15548">
        <ele>1304</ele>
        <time>2010-01-01T01:37:21Z</time>
      </trkpt>
      <trkpt lat="44.23922" lon="6.15552">
        <ele>1304</ele>
        <time>2010-01-01T01:37:22Z</time>
      </trkpt>
      <trkpt lat="44.23921" lon="6.15557">
        <ele>1303</ele>
        <time>2010-01-01T01:37:23Z</time>
      </trkpt>
      <trkpt lat="44.2392" lon="6.15562">
        <ele>1303</ele>
        <time>2010-01-01T01:37:24Z</time>
      </trkpt>
      <trkpt lat="44.23919" lon="6.15567">
        <ele>1303</ele>
        <time>2010-01-01T01:37:25Z</time>
      </trkpt>
      <trkpt lat="44.23918" lon="6.15572">
        <ele>1303</ele>
        <time>2010-01-01T01:37:26Z</time>
      </trkpt>
      <trkpt lat="44.23917" lon="6.15578">
        <ele>1303</ele>
        <time>2010-01-01T01:37:27Z</time>
      </trkpt>
      <trkpt lat="44.23917" lon="6.15585">
        <ele>1303</ele>
        <time>2010-01-01T01:37:28Z</time>
      </trkpt>
      <trkpt lat="44.23916" lon="6.15592">
        <ele>1302</ele>
        <time>2010-01-01T01:37:30Z</time>
      </trkpt>
      <trkpt lat="44.23915" lon="6.15599">
        <ele>1302</ele>
        <time>2010-01-01T01:37:31Z</time>
      </trkpt>
      <trkpt lat="44.23912" lon="6.15606">
        <ele>1302</ele>
        <time>2010-01-01T01:37:33Z</time>
      </trkpt>
      <trkpt lat="44.23909" lon="6.15612">
        <ele>1302</ele>
        <time>2010-01-01T01:37:34Z</time>
      </trkpt>
      <trkpt lat="44.23905" lon="6.15617">
        <ele>1302</ele>
        <time>2010-01-01T01:37:35Z</time>
      </trkpt>
      <trkpt lat="44.23901" lon="6.1562">
        <ele>1302</ele>
        <time>2010-01-01T01:37:37Z</time>
      </trkpt>
      <trkpt lat="44.23896" lon="6.15621">
        <ele>1301</ele>
        <time>2010-01-01T01:37:38Z</time>
      </trkpt>
      <trkpt lat="44.23892" lon="6.15623">
        <ele>1301</ele>
        <time>2010-01-01T01:37:39Z</time>
      </trkpt>
      <trkpt lat="44.23888" lon="6.15626">
        <ele>1301</ele>
        <time>2010-01-01T01:37:41Z</time>
      </trkpt>
      <trkpt lat="44.23884" lon="6.15629">
        <ele>1301</ele>
        <time>2010-01-01T01:37:42Z</time>
      </trkpt>
      <trkpt lat="44.2388" lon="6.15632">
        <ele>1302</ele>
        <time>2010-01-01T01:37:43Z</time>
      </trkpt>
      <trkpt lat="44.23877" lon="6.15635">
        <ele>1302</ele>
        <time>2010-01-01T01:37:44Z</time>
      </trkpt>
      <trkpt lat="44.23874" lon="6.15639">
        <ele>1302</ele>
        <time>2010-01-01T01:37:45Z</time>
      </trkpt>
      <trkpt lat="44.23872" lon="6.15643">
        <ele>1302</ele>
        <time>2010-01-01T01:37:46Z</time>
      </trkpt>
      <trkpt lat="44.23869" lon="6.15647">
        <ele>1302</ele>
        <time>2010-01-01T01:37:47Z</time>
      </trkpt>
      <trkpt lat="44.23866" lon="6.1565">
        <ele>1303</ele>
        <time>2010-01-01T01:37:48Z</time>
      </trkpt>
      <trkpt lat="44.23864" lon="6.15654">
        <ele>1303</ele>
        <time>2010-01-01T01:37:49Z</time>
      </trkpt>
      <trkpt lat="44.23861" lon="6.15658">
        <ele>1303</ele>
        <time>2010-01-01T01:37:50Z</time>
      </trkpt>
      <trkpt lat="44.23859" lon="6.15662">
        <ele>1303</ele>
        <time>2010-01-01T01:37:51Z</time>
      </trkpt>
      <trkpt lat="44.23857" lon="6.15667">
        <ele>1303</ele>
        <time>2010-01-01T01:37:52Z</time>
      </trkpt>
      <trkpt lat="44.23856" lon="6.15671">
        <ele>1304</ele>
        <time>2010-01-01T01:37:53Z</time>
      </trkpt>
      <trkpt lat="44.23854" lon="6.15675">
        <ele>1304</ele>
        <time>2010-01-01T01:37:54Z</time>
      </trkpt>
      <trkpt lat="44.23853" lon="6.1568">
        <ele>1304</ele>
        <time>2010-01-01T01:37:55Z</time>
      </trkpt>
      <trkpt lat="44.23852" lon="6.15685">
        <ele>1304</ele>
        <time>2010-01-01T01:37:56Z</time>
      </trkpt>
      <trkpt lat="44.23851" lon="6.1569">
        <ele>1304</ele>
        <time>2010-01-01T01:37:57Z</time>
      </trkpt>
      <trkpt lat="44.2385" lon="6.15695">
        <ele>1305</ele>
        <time>2010-01-01T01:37:58Z</time>
      </trkpt>
      <trkpt lat="44.23848" lon="6.15699">
        <ele>1305</ele>
        <time>2010-01-01T01:37:59Z</time>
      </trkpt>
      <trkpt lat="44.23847" lon="6.15704">
        <ele>1305</ele>
        <time>2010-01-01T01:37:59Z</time>
      </trkpt>
      <trkpt lat="44.23845" lon="6.15707">
        <ele>1306</ele>
        <time>2010-01-01T01:38:00Z</time>
      </trkpt>
      <trkpt lat="44.23842" lon="6.1571">
        <ele>1306</ele>
        <time>2010-01-01T01:38:01Z</time>
      </trkpt>
      <trkpt lat="44.2384" lon="6.15713">
        <ele>1306</ele>
        <time>2010-01-01T01:38:02Z</time>
      </trkpt>
      <trkpt lat="44.23837" lon="6.15715">
        <ele>1306</ele>
        <time>2010-01-01T01:38:03Z</time>
      </trkpt>
      <trkpt lat="44.23832" lon="6.15719">
        <ele>1306</ele>
        <time>2010-01-01T01:38:04Z</time>
      </trkpt>
      <trkpt lat="44.23829" lon="6.15721">
        <ele>1306</ele>
        <time>2010-01-01T01:38:05Z</time>
      </trkpt>
      <trkpt lat="44.23827" lon="6.15723">
        <ele>1306</ele>
        <time>2010-01-01T01:38:06Z</time>
      </trkpt>
      <trkpt lat="44.23824" lon="6.15725">
        <ele>1306</ele>
        <time>2010-01-01T01:38:07Z</time>
      </trkpt>
      <trkpt lat="44.23821" lon="6.15728">
        <ele>1305</ele>
        <time>2010-01-01T01:38:08Z</time>
      </trkpt>
      <trkpt lat="44.23819" lon="6.1573">
        <ele>1305</ele>
        <time>2010-01-01T01:38:09Z</time>
      </trkpt>
      <trkpt lat="44.23816" lon="6.15734">
        <ele>1305</ele>
        <time>2010-01-01T01:38:10Z</time>
      </trkpt>
      <trkpt lat="44.23814" lon="6.15738">
        <ele>1305</ele>
        <time>2010-01-01T01:38:10Z</time>
      </trkpt>
      <trkpt lat="44.23813" lon="6.15741">
        <ele>1305</ele>
        <time>2010-01-01T01:38:11Z</time>
      </trkpt>
      <trkpt lat="44.23811" lon="6.15745">
        <ele>1305</ele>
        <time>2010-01-01T01:38:12Z</time>
      </trkpt>
      <trkpt lat="44.2381" lon="6.1575">
        <ele>1305</ele>
        <time>2010-01-01T01:38:13Z</time>
      </trkpt>
      <trkpt lat="44.23809" lon="6.15754">
        <ele>1305</ele>
        <time>2010-01-01T01:38:14Z</time>
      </trkpt>
      <trkpt lat="44.23808" lon="6.15759">
        <ele>1305</ele>
        <time>2010-01-01T01:38:15Z</time>
      </trkpt>
      <trkpt lat="44.23807" lon="6.15764">
        <ele>1305</ele>
        <time>2010-01-01T01:38:16Z</time>
      </trkpt>
      <trkpt lat="44.23806" lon="6.15768">
        <ele>1305</ele>
        <time>2010-01-01T01:38:17Z</time>
      </trkpt>
      <trkpt lat="44.23805" lon="6.15773">
        <ele>1304</ele>
        <time>2010-01-01T01:38:18Z</time>
      </trkpt>
      <trkpt lat="44.23805" lon="6.15777">
        <ele>1304</ele>
        <time>2010-01-01T01:38:18Z</time>
      </trkpt>
      <trkpt lat="44.23804" lon="6.15781">
        <ele>1305</ele>
        <time>2010-01-01T01:38:19Z</time>
      </trkpt>
      <trkpt lat="44.23803" lon="6.15785">
        <ele>1305</ele>
        <time>2010-01-01T01:38:20Z</time>
      </trkpt>
      <trkpt lat="44.23803" lon="6.15789">
        <ele>1305</ele>
        <time>2010-01-01T01:38:21Z</time>
      </trkpt>
      <trkpt lat="44.23802" lon="6.15793">
        <ele>1305</ele>
        <time>2010-01-01T01:38:21Z</time>
      </trkpt>
      <trkpt lat="44.23802" lon="6.15797">
        <ele>1305</ele>
        <time>2010-01-01T01:38:22Z</time>
      </trkpt>
      <trkpt lat="44.23801" lon="6.15801">
        <ele>1306</ele>
        <time>2010-01-01T01:38:23Z</time>
      </trkpt>
      <trkpt lat="44.238" lon="6.15805">
        <ele>1306</ele>
        <time>2010-01-01T01:38:24Z</time>
      </trkpt>
      <trkpt lat="44.238" lon="6.15809">
        <ele>1306</ele>
        <time>2010-01-01T01:38:25Z</time>
      </trkpt>
      <trkpt lat="44.23799" lon="6.15813">
        <ele>1306</ele>
        <time>2010-01-01T01:38:25Z</time>
      </trkpt>
      <trkpt lat="44.23798" lon="6.15817">
        <ele>1307</ele>
        <time>2010-01-01T01:38:26Z</time>
      </trkpt>
      <trkpt lat="44.23797" lon="6.15821">
        <ele>1307</ele>
        <time>2010-01-01T01:38:27Z</time>
      </trkpt>
      <trkpt lat="44.23797" lon="6.15825">
        <ele>1307</ele>
        <time>2010-01-01T01:38:28Z</time>
      </trkpt>
      <trkpt lat="44.23796" lon="6.15829">
        <ele>1307</ele>
        <time>2010-01-01T01:38:29Z</time>
      </trkpt>
      <trkpt lat="44.23794" lon="6.15833">
        <ele>1307</ele>
        <time>2010-01-01T01:38:30Z</time>
      </trkpt>
      <trkpt lat="44.23793" lon="6.15837">
        <ele>1308</ele>
        <time>2010-01-01T01:38:30Z</time>
      </trkpt>
      <trkpt lat="44.23792" lon="6.1584">
        <ele>1308</ele>
        <time>2010-01-01T01:38:31Z</time>
      </trkpt>
      <trkpt lat="44.2379" lon="6.15844">
        <ele>1308</ele>
        <time>2010-01-01T01:38:32Z</time>
      </trkpt>
      <trkpt lat="44.23789" lon="6.15847">
        <ele>1308</ele>
        <time>2010-01-01T01:38:33Z</time>
      </trkpt>
      <trkpt lat="44.23786" lon="6.15853">
        <ele>1309</ele>
        <time>2010-01-01T01:38:34Z</time>
      </trkpt>
      <trkpt lat="44.23784" lon="6.15857">
        <ele>1309</ele>
        <time>2010-01-01T01:38:35Z</time>
      </trkpt>
      <trkpt lat="44.23783" lon="6.1586">
        <ele>1309</ele>
        <time>2010-01-01T01:38:36Z</time>
      </trkpt>
      <trkpt lat="44.23781" lon="6.15864">
        <ele>1308</ele>
        <time>2010-01-01T01:38:36Z</time>
      </trkpt>
      <trkpt lat="44.2378" lon="6.15867">
        <ele>1308</ele>
        <time>2010-01-01T01:38:37Z</time>
      </trkpt>
      <trkpt lat="44.23778" lon="6.15871">
        <ele>1308</ele>
        <time>2010-01-01T01:38:38Z</time>
      </trkpt>
      <trkpt lat="44.23776" lon="6.15874">
        <ele>1308</ele>
        <time>2010-01-01T01:38:39Z</time>
      </trkpt>
      <trkpt lat="44.23775" lon="6.15878">
        <ele>1308</ele>
        <time>2010-01-01T01:38:40Z</time>
      </trkpt>
      <trkpt lat="44.23773" lon="6.15881">
        <ele>1308</ele>
        <time>2010-01-01T01:38:40Z</time>
      </trkpt>
      <trkpt lat="44.23771" lon="6.15885">
        <ele>1308</ele>
        <time>2010-01-01T01:38:41Z</time>
      </trkpt>
      <trkpt lat="44.23769" lon="6.15888">
        <ele>1308</ele>
        <time>2010-01-01T01:38:42Z</time>
      </trkpt>
      <trkpt lat="44.23768" lon="6.15891">
        <ele>1308</ele>
        <time>2010-01-01T01:38:43Z</time>
      </trkpt>
      <trkpt lat="44.23766" lon="6.15895">
        <ele>1308</ele>
        <time>2010-01-01T01:38:44Z</time>
      </trkpt>
      <trkpt lat="44.23764" lon="6.15898">
        <ele>1308</ele>
        <time>2010-01-01T01:38:44Z</time>
      </trkpt>
      <trkpt lat="44.23762" lon="6.15901">
        <ele>1308</ele>
        <time>2010-01-01T01:38:45Z</time>
      </trkpt>
      <trkpt lat="44.2376" lon="6.15904">
        <ele>1307</ele>
        <time>2010-01-01T01:38:46Z</time>
      </trkpt>
      <trkpt lat="44.23758" lon="6.15907">
        <ele>1307</ele>
        <time>2010-01-01T01:38:47Z</time>
      </trkpt>
      <trkpt lat="44.23756" lon="6.1591">
        <ele>1307</ele>
        <time>2010-01-01T01:38:48Z</time>
      </trkpt>
      <trkpt lat="44.23754" lon="6.15913">
        <ele>1307</ele>
        <time>2010-01-01T01:38:48Z</time>
      </trkpt>
      <trkpt lat="44.23752" lon="6.15916">
        <ele>1307</ele>
        <time>2010-01-01T01:38:49Z</time>
      </trkpt>
      <trkpt lat="44.2375" lon="6.1592">
        <ele>1307</ele>
        <time>2010-01-01T01:38:50Z</time>
      </trkpt>
      <trkpt lat="44.23748" lon="6.15923">
        <ele>1308</ele>
        <time>2010-01-01T01:38:51Z</time>
      </trkpt>
      <trkpt lat="44.23746" lon="6.15926">
        <ele>1308</ele>
        <time>2010-01-01T01:38:52Z</time>
      </trkpt>
      <trkpt lat="44.23744" lon="6.1593">
        <ele>1309</ele>
        <time>2010-01-01T01:38:52Z</time>
      </trkpt>
      <trkpt lat="44.23742" lon="6.15933">
        <ele>1309</ele>
        <time>2010-01-01T01:38:53Z</time>
      </trkpt>
      <trkpt lat="44.2374" lon="6.15937">
        <ele>1309</ele>
        <time>2010-01-01T01:38:54Z</time>
      </trkpt>
      <trkpt lat="44.23738" lon="6.1594">
        <ele>1310</ele>
        <time>2010-01-01T01:38:55Z</time>
      </trkpt>
      <trkpt lat="44.23737" lon="6.15943">
        <ele>1310</ele>
        <time>2010-01-01T01:38:56Z</time>
      </trkpt>
      <trkpt lat="44.23735" lon="6.15946">
        <ele>1310</ele>
        <time>2010-01-01T01:38:56Z</time>
      </trkpt>
      <trkpt lat="44.23733" lon="6.15949">
        <ele>1310</ele>
        <time>2010-01-01T01:38:57Z</time>
      </trkpt>
      <trkpt lat="44.23732" lon="6.15952">
        <ele>1311</ele>
        <time>2010-01-01T01:38:58Z</time>
      </trkpt>
      <trkpt lat="44.2373" lon="6.15956">
        <ele>1311</ele>
        <time>2010-01-01T01:38:59Z</time>
      </trkpt>
      <trkpt lat="44.23728" lon="6.1596">
        <ele>1311</ele>
        <time>2010-01-01T01:39:00Z</time>
      </trkpt>
      <trkpt lat="44.23726" lon="6.15964">
        <ele>1311</ele>
        <time>2010-01-01T01:39:01Z</time>
      </trkpt>
      <trkpt lat="44.23725" lon="6.15968">
        <ele>1312</ele>
        <time>2010-01-01T01:39:01Z</time>
      </trkpt>
      <trkpt lat="44.23723" lon="6.15972">
        <ele>1312</ele>
        <time>2010-01-01T01:39:02Z</time>
      </trkpt>
      <trkpt lat="44.23721" lon="6.15976">
        <ele>1312</ele>
        <time>2010-01-01T01:39:03Z</time>
      </trkpt>
      <trkpt lat="44.2372" lon="6.1598">
        <ele>1312</ele>
        <time>2010-01-01T01:39:04Z</time>
      </trkpt>
      <trkpt lat="44.23718" lon="6.15984">
        <ele>1313</ele>
        <time>2010-01-01T01:39:05Z</time>
      </trkpt>
      <trkpt lat="44.23717" lon="6.15988">
        <ele>1313</ele>
        <time>2010-01-01T01:39:06Z</time>
      </trkpt>
      <trkpt lat="44.23715" lon="6.15992">
        <ele>1313</ele>
        <time>2010-01-01T01:39:07Z</time>
      </trkpt>
      <trkpt lat="44.23714" lon="6.15995">
        <ele>1313</ele>
        <time>2010-01-01T01:39:07Z</time>
      </trkpt>
      <trkpt lat="44.23712" lon="6.15999">
        <ele>1313</ele>
        <time>2010-01-01T01:39:08Z</time>
      </trkpt>
      <trkpt lat="44.2371" lon="6.16002">
        <ele>1313</ele>
        <time>2010-01-01T01:39:09Z</time>
      </trkpt>
      <trkpt lat="44.23708" lon="6.16007">
        <ele>1313</ele>
        <time>2010-01-01T01:39:10Z</time>
      </trkpt>
      <trkpt lat="44.23707" lon="6.16011">
        <ele>1313</ele>
        <time>2010-01-01T01:39:11Z</time>
      </trkpt>
      <trkpt lat="44.23705" lon="6.16015">
        <ele>1312</ele>
        <time>2010-01-01T01:39:12Z</time>
      </trkpt>
      <trkpt lat="44.23703" lon="6.16019">
        <ele>1312</ele>
        <time>2010-01-01T01:39:13Z</time>
      </trkpt>
      <trkpt lat="44.23701" lon="6.16022">
        <ele>1312</ele>
        <time>2010-01-01T01:39:13Z</time>
      </trkpt>
      <trkpt lat="44.237" lon="6.16026">
        <ele>1312</ele>
        <time>2010-01-01T01:39:14Z</time>
      </trkpt>
      <trkpt lat="44.23698" lon="6.16029">
        <ele>1311</ele>
        <time>2010-01-01T01:39:15Z</time>
      </trkpt>
      <trkpt lat="44.23696" lon="6.16033">
        <ele>1311</ele>
        <time>2010-01-01T01:39:16Z</time>
      </trkpt>
      <trkpt lat="44.23694" lon="6.16036">
        <ele>1311</ele>
        <time>2010-01-01T01:39:17Z</time>
      </trkpt>
      <trkpt lat="44.23691" lon="6.1604">
        <ele>1312</ele>
        <time>2010-01-01T01:39:18Z</time>
      </trkpt>
      <trkpt lat="44.2369" lon="6.16043">
        <ele>1312</ele>
        <time>2010-01-01T01:39:19Z</time>
      </trkpt>
      <trkpt lat="44.23688" lon="6.16046">
        <ele>1312</ele>
        <time>2010-01-01T01:39:19Z</time>
      </trkpt>
      <trkpt lat="44.23686" lon="6.1605">
        <ele>1312</ele>
        <time>2010-01-01T01:39:20Z</time>
      </trkpt>
      <trkpt lat="44.23684" lon="6.16053">
        <ele>1312</ele>
        <time>2010-01-01T01:39:21Z</time>
      </trkpt>
      <trkpt lat="44.23683" lon="6.16057">
        <ele>1312</ele>
        <time>2010-01-01T01:39:22Z</time>
      </trkpt>
      <trkpt lat="44.23681" lon="6.16061">
        <ele>1313</ele>
        <time>2010-01-01T01:39:23Z</time>
      </trkpt>
      <trkpt lat="44.23679" lon="6.16065">
        <ele>1313</ele>
        <time>2010-01-01T01:39:24Z</time>
      </trkpt>
      <trkpt lat="44.23677" lon="6.16069">
        <ele>1313</ele>
        <time>2010-01-01T01:39:25Z</time>
      </trkpt>
      <trkpt lat="44.23676" lon="6.16073">
        <ele>1313</ele>
        <time>2010-01-01T01:39:25Z</time>
      </trkpt>
      <trkpt lat="44.23674" lon="6.16077">
        <ele>1314</ele>
        <time>2010-01-01T01:39:26Z</time>
      </trkpt>
      <trkpt lat="44.23673" lon="6.16081">
        <ele>1314</ele>
        <time>2010-01-01T01:39:27Z</time>
      </trkpt>
      <trkpt lat="44.23671" lon="6.16085">
        <ele>1314</ele>
        <time>2010-01-01T01:39:28Z</time>
      </trkpt>
      <trkpt lat="44.2367" lon="6.16089">
        <ele>1314</ele>
        <time>2010-01-01T01:39:29Z</time>
      </trkpt>
      <trkpt lat="44.23669" lon="6.16092">
        <ele>1315</ele>
        <time>2010-01-01T01:39:30Z</time>
      </trkpt>
      <trkpt lat="44.23667" lon="6.16096">
        <ele>1315</ele>
        <time>2010-01-01T01:39:30Z</time>
      </trkpt>
      <trkpt lat="44.23664" lon="6.16101">
        <ele>1315</ele>
        <time>2010-01-01T01:39:32Z</time>
      </trkpt>
      <trkpt lat="44.2366" lon="6.16107">
        <ele>1316</ele>
        <time>2010-01-01T01:39:33Z</time>
      </trkpt>
      <trkpt lat="44.23657" lon="6.16111">
        <ele>1315</ele>
        <time>2010-01-01T01:39:34Z</time>
      </trkpt>
      <trkpt lat="44.23653" lon="6.16113">
        <ele>1315</ele>
        <time>2010-01-01T01:39:36Z</time>
      </trkpt>
      <trkpt lat="44.23648" lon="6.16116">
        <ele>1314</ele>
        <time>2010-01-01T01:39:37Z</time>
      </trkpt>
      <trkpt lat="44.23644" lon="6.16118">
        <ele>1314</ele>
        <time>2010-01-01T01:39:38Z</time>
      </trkpt>
      <trkpt lat="44.2364" lon="6.16121">
        <ele>1313</ele>
        <time>2010-01-01T01:39:39Z</time>
      </trkpt>
      <trkpt lat="44.23633" lon="6.16123">
        <ele>1312</ele>
        <time>2010-01-01T01:39:41Z</time>
      </trkpt>
      <trkpt lat="44.23629" lon="6.16126">
        <ele>1312</ele>
        <time>2010-01-01T01:39:42Z</time>
      </trkpt>
      <trkpt lat="44.23625" lon="6.16128">
        <ele>1312</ele>
        <time>2010-01-01T01:39:43Z</time>
      </trkpt>
      <trkpt lat="44.23622" lon="6.1613">
        <ele>1312</ele>
        <time>2010-01-01T01:39:44Z</time>
      </trkpt>
      <trkpt lat="44.23619" lon="6.16132">
        <ele>1311</ele>
        <time>2010-01-01T01:39:45Z</time>
      </trkpt>
      <trkpt lat="44.23616" lon="6.16134">
        <ele>1311</ele>
        <time>2010-01-01T01:39:46Z</time>
      </trkpt>
      <trkpt lat="44.23613" lon="6.16135">
        <ele>1311</ele>
        <time>2010-01-01T01:39:47Z</time>
      </trkpt>
      <trkpt lat="44.2361" lon="6.16137">
        <ele>1310</ele>
        <time>2010-01-01T01:39:48Z</time>
      </trkpt>
      <trkpt lat="44.23607" lon="6.16139">
        <ele>1310</ele>
        <time>2010-01-01T01:39:49Z</time>
      </trkpt>
      <trkpt lat="44.23604" lon="6.16141">
        <ele>1310</ele>
        <time>2010-01-01T01:39:50Z</time>
      </trkpt>
      <trkpt lat="44.236" lon="6.16143">
        <ele>1310</ele>
        <time>2010-01-01T01:39:51Z</time>
      </trkpt>
      <trkpt lat="44.23597" lon="6.16145">
        <ele>1310</ele>
        <time>2010-01-01T01:39:52Z</time>
      </trkpt>
      <trkpt lat="44.23594" lon="6.16146">
        <ele>1310</ele>
        <time>2010-01-01T01:39:52Z</time>
      </trkpt>
      <trkpt lat="44.23591" lon="6.16148">
        <ele>1309</ele>
        <time>2010-01-01T01:39:53Z</time>
      </trkpt>
      <trkpt lat="44.23588" lon="6.16148">
        <ele>1309</ele>
        <time>2010-01-01T01:39:54Z</time>
      </trkpt>
      <trkpt lat="44.23584" lon="6.16149">
        <ele>1309</ele>
        <time>2010-01-01T01:39:55Z</time>
      </trkpt>
      <trkpt lat="44.2358" lon="6.16147">
        <ele>1309</ele>
        <time>2010-01-01T01:39:56Z</time>
      </trkpt>
      <trkpt lat="44.23576" lon="6.16145">
        <ele>1309</ele>
        <time>2010-01-01T01:39:57Z</time>
      </trkpt>
      <trkpt lat="44.23571" lon="6.16143">
        <ele>1310</ele>
        <time>2010-01-01T01:39:59Z</time>
      </trkpt>
      <trkpt lat="44.23567" lon="6.16141">
        <ele>1310</ele>
        <time>2010-01-01T01:40:00Z</time>
      </trkpt>
      <trkpt lat="44.23562" lon="6.16139">
        <ele>1311</ele>
        <time>2010-01-01T01:40:01Z</time>
      </trkpt>
      <trkpt lat="44.23557" lon="6.16137">
        <ele>1312</ele>
        <time>2010-01-01T01:40:03Z</time>
      </trkpt>
      <trkpt lat="44.23552" lon="6.16135">
        <ele>1313</ele>
        <time>2010-01-01T01:40:04Z</time>
      </trkpt>
      <trkpt lat="44.2355" lon="6.16134">
        <ele>1314</ele>
        <time>2010-01-01T01:40:05Z</time>
      </trkpt>
      <trkpt lat="44.23547" lon="6.16133">
        <ele>1316</ele>
        <time>2010-01-01T01:40:06Z</time>
      </trkpt>
      <trkpt lat="44.23544" lon="6.16131">
        <ele>1317</ele>
        <time>2010-01-01T01:40:06Z</time>
      </trkpt>
      <trkpt lat="44.23541" lon="6.1613">
        <ele>1318</ele>
        <time>2010-01-01T01:40:07Z</time>
      </trkpt>
      <trkpt lat="44.23538" lon="6.16127">
        <ele>1320</ele>
        <time>2010-01-01T01:40:08Z</time>
      </trkpt>
      <trkpt lat="44.23536" lon="6.16124">
        <ele>1321</ele>
        <time>2010-01-01T01:40:09Z</time>
      </trkpt>
      <trkpt lat="44.23534" lon="6.16121">
        <ele>1322</ele>
        <time>2010-01-01T01:40:10Z</time>
      </trkpt>
      <trkpt lat="44.23532" lon="6.16117">
        <ele>1324</ele>
        <time>2010-01-01T01:40:11Z</time>
      </trkpt>
      <trkpt lat="44.23532" lon="6.16113">
        <ele>1325</ele>
        <time>2010-01-01T01:40:11Z</time>
      </trkpt>
      <trkpt lat="44.23532" lon="6.16109">
        <ele>1326</ele>
        <time>2010-01-01T01:40:12Z</time>
      </trkpt>
      <trkpt lat="44.23532" lon="6.16105">
        <ele>1326</ele>
        <time>2010-01-01T01:40:13Z</time>
      </trkpt>
      <trkpt lat="44.23534" lon="6.16099">
        <ele>1327</ele>
        <time>2010-01-01T01:40:14Z</time>
      </trkpt>
      <trkpt lat="44.23538" lon="6.16095">
        <ele>1327</ele>
        <time>2010-01-01T01:40:15Z</time>
      </trkpt>
      <trkpt lat="44.23541" lon="6.1609">
        <ele>1327</ele>
        <time>2010-01-01T01:40:17Z</time>
      </trkpt>
      <trkpt lat="44.23545" lon="6.16086">
        <ele>1326</ele>
        <time>2010-01-01T01:40:18Z</time>
      </trkpt>
      <trkpt lat="44.23549" lon="6.16082">
        <ele>1326</ele>
        <time>2010-01-01T01:40:19Z</time>
      </trkpt>
      <trkpt lat="44.23552" lon="6.16078">
        <ele>1326</ele>
        <time>2010-01-01T01:40:20Z</time>
      </trkpt>
      <trkpt lat="44.23554" lon="6.16074">
        <ele>1326</ele>
        <time>2010-01-01T01:40:21Z</time>
      </trkpt>
      <trkpt lat="44.23557" lon="6.1607">
        <ele>1326</ele>
        <time>2010-01-01T01:40:22Z</time>
      </trkpt>
      <trkpt lat="44.23559" lon="6.16066">
        <ele>1326</ele>
        <time>2010-01-01T01:40:23Z</time>
      </trkpt>
      <trkpt lat="44.23562" lon="6.16062">
        <ele>1326</ele>
        <time>2010-01-01T01:40:24Z</time>
      </trkpt>
      <trkpt lat="44.23564" lon="6.16058">
        <ele>1326</ele>
        <time>2010-01-01T01:40:25Z</time>
      </trkpt>
      <trkpt lat="44.23566" lon="6.16054">
        <ele>1326</ele>
        <time>2010-01-01T01:40:26Z</time>
      </trkpt>
      <trkpt lat="44.23568" lon="6.1605">
        <ele>1326</ele>
        <time>2010-01-01T01:40:27Z</time>
      </trkpt>
      <trkpt lat="44.2357" lon="6.16046">
        <ele>1326</ele>
        <time>2010-01-01T01:40:28Z</time>
      </trkpt>
      <trkpt lat="44.23571" lon="6.16041">
        <ele>1326</ele>
        <time>2010-01-01T01:40:29Z</time>
      </trkpt>
      <trkpt lat="44.23572" lon="6.16037">
        <ele>1326</ele>
        <time>2010-01-01T01:40:30Z</time>
      </trkpt>
      <trkpt lat="44.23574" lon="6.16034">
        <ele>1326</ele>
        <time>2010-01-01T01:40:31Z</time>
      </trkpt>
      <trkpt lat="44.23576" lon="6.16031">
        <ele>1326</ele>
        <time>2010-01-01T01:40:31Z</time>
      </trkpt>
      <trkpt lat="44.23578" lon="6.16028">
        <ele>1325</ele>
        <time>2010-01-01T01:40:32Z</time>
      </trkpt>
      <trkpt lat="44.2358" lon="6.16025">
        <ele>1325</ele>
        <time>2010-01-01T01:40:33Z</time>
      </trkpt>
      <trkpt lat="44.23581" lon="6.1602">
        <ele>1326</ele>
        <time>2010-01-01T01:40:34Z</time>
      </trkpt>
      <trkpt lat="44.23582" lon="6.16015">
        <ele>1326</ele>
        <time>2010-01-01T01:40:35Z</time>
      </trkpt>
      <trkpt lat="44.23583" lon="6.16011">
        <ele>1327</ele>
        <time>2010-01-01T01:40:36Z</time>
      </trkpt>
      <trkpt lat="44.23585" lon="6.16007">
        <ele>1327</ele>
        <time>2010-01-01T01:40:37Z</time>
      </trkpt>
      <trkpt lat="44.23586" lon="6.16003">
        <ele>1327</ele>
        <time>2010-01-01T01:40:38Z</time>
      </trkpt>
      <trkpt lat="44.23588" lon="6.15999">
        <ele>1327</ele>
        <time>2010-01-01T01:40:39Z</time>
      </trkpt>
      <trkpt lat="44.2359" lon="6.15994">
        <ele>1328</ele>
        <time>2010-01-01T01:40:40Z</time>
      </trkpt>
      <trkpt lat="44.23593" lon="6.15989">
        <ele>1328</ele>
        <time>2010-01-01T01:40:41Z</time>
      </trkpt>
      <trkpt lat="44.23595" lon="6.15985">
        <ele>1329</ele>
        <time>2010-01-01T01:40:42Z</time>
      </trkpt>
      <trkpt lat="44.23597" lon="6.1598">
        <ele>1329</ele>
        <time>2010-01-01T01:40:43Z</time>
      </trkpt>
      <trkpt lat="44.23599" lon="6.15976">
        <ele>1329</ele>
        <time>2010-01-01T01:40:44Z</time>
      </trkpt>
      <trkpt lat="44.236" lon="6.15972">
        <ele>1330</ele>
        <time>2010-01-01T01:40:45Z</time>
      </trkpt>
      <trkpt lat="44.23601" lon="6.15968">
        <ele>1330</ele>
        <time>2010-01-01T01:40:45Z</time>
      </trkpt>
      <trkpt lat="44.23603" lon="6.15964">
        <ele>1330</ele>
        <time>2010-01-01T01:40:46Z</time>
      </trkpt>
      <trkpt lat="44.23604" lon="6.15959">
        <ele>1331</ele>
        <time>2010-01-01T01:40:47Z</time>
      </trkpt>
      <trkpt lat="44.23605" lon="6.15955">
        <ele>1332</ele>
        <time>2010-01-01T01:40:48Z</time>
      </trkpt>
      <trkpt lat="44.23606" lon="6.1595">
        <ele>1332</ele>
        <time>2010-01-01T01:40:49Z</time>
      </trkpt>
      <trkpt lat="44.23607" lon="6.15945">
        <ele>1333</ele>
        <time>2010-01-01T01:40:50Z</time>
      </trkpt>
      <trkpt lat="44.23607" lon="6.15941">
        <ele>1333</ele>
        <time>2010-01-01T01:40:51Z</time>
      </trkpt>
      <trkpt lat="44.23609" lon="6.15937">
        <ele>1333</ele>
        <time>2010-01-01T01:40:52Z</time>
      </trkpt>
      <trkpt lat="44.2361" lon="6.15933">
        <ele>1333</ele>
        <time>2010-01-01T01:40:53Z</time>
      </trkpt>
      <trkpt lat="44.23611" lon="6.15929">
        <ele>1333</ele>
        <time>2010-01-01T01:40:53Z</time>
      </trkpt>
      <trkpt lat="44.23613" lon="6.15925">
        <ele>1333</ele>
        <time>2010-01-01T01:40:54Z</time>
      </trkpt>
      <trkpt lat="44.23614" lon="6.15922">
        <ele>1333</ele>
        <time>2010-01-01T01:40:55Z</time>
      </trkpt>
      <trkpt lat="44.23616" lon="6.15918">
        <ele>1333</ele>
        <time>2010-01-01T01:40:56Z</time>
      </trkpt>
      <trkpt lat="44.23618" lon="6.15915">
        <ele>1333</ele>
        <time>2010-01-01T01:40:57Z</time>
      </trkpt>
      <trkpt lat="44.2362" lon="6.15911">
        <ele>1333</ele>
        <time>2010-01-01T01:40:58Z</time>
      </trkpt>
      <trkpt lat="44.23621" lon="6.15906">
        <ele>1333</ele>
        <time>2010-01-01T01:40:59Z</time>
      </trkpt>
      <trkpt lat="44.23623" lon="6.15902">
        <ele>1333</ele>
        <time>2010-01-01T01:41:00Z</time>
      </trkpt>
      <trkpt lat="44.23623" lon="6.15898">
        <ele>1334</ele>
        <time>2010-01-01T01:41:00Z</time>
      </trkpt>
      <trkpt lat="44.23623" lon="6.15893">
        <ele>1334</ele>
        <time>2010-01-01T01:41:01Z</time>
      </trkpt>
      <trkpt lat="44.23623" lon="6.15889">
        <ele>1335</ele>
        <time>2010-01-01T01:41:02Z</time>
      </trkpt>
      <trkpt lat="44.23625" lon="6.15884">
        <ele>1335</ele>
        <time>2010-01-01T01:41:03Z</time>
      </trkpt>
      <trkpt lat="44.23626" lon="6.15879">
        <ele>1335</ele>
        <time>2010-01-01T01:41:04Z</time>
      </trkpt>
      <trkpt lat="44.23627" lon="6.15875">
        <ele>1336</ele>
        <time>2010-01-01T01:41:05Z</time>
      </trkpt>
      <trkpt lat="44.23628" lon="6.1587">
        <ele>1336</ele>
        <time>2010-01-01T01:41:06Z</time>
      </trkpt>
      <trkpt lat="44.23628" lon="6.15865">
        <ele>1336</ele>
        <time>2010-01-01T01:41:07Z</time>
      </trkpt>
      <trkpt lat="44.23628" lon="6.1586">
        <ele>1337</ele>
        <time>2010-01-01T01:41:08Z</time>
      </trkpt>
      <trkpt lat="44.23627" lon="6.15856">
        <ele>1337</ele>
        <time>2010-01-01T01:41:08Z</time>
      </trkpt>
      <trkpt lat="44.23627" lon="6.15851">
        <ele>1338</ele>
        <time>2010-01-01T01:41:09Z</time>
      </trkpt>
      <trkpt lat="44.23627" lon="6.15847">
        <ele>1339</ele>
        <time>2010-01-01T01:41:10Z</time>
      </trkpt>
      <trkpt lat="44.23628" lon="6.15842">
        <ele>1339</ele>
        <time>2010-01-01T01:41:11Z</time>
      </trkpt>
      <trkpt lat="44.23629" lon="6.15838">
        <ele>1339</ele>
        <time>2010-01-01T01:41:12Z</time>
      </trkpt>
      <trkpt lat="44.2363" lon="6.15834">
        <ele>1340</ele>
        <time>2010-01-01T01:41:13Z</time>
      </trkpt>
      <trkpt lat="44.23633" lon="6.1583">
        <ele>1339</ele>
        <time>2010-01-01T01:41:14Z</time>
      </trkpt>
      <trkpt lat="44.23635" lon="6.15826">
        <ele>1340</ele>
        <time>2010-01-01T01:41:15Z</time>
      </trkpt>
      <trkpt lat="44.23635" lon="6.15822">
        <ele>1340</ele>
        <time>2010-01-01T01:41:15Z</time>
      </trkpt>
      <trkpt lat="44.23636" lon="6.15819">
        <ele>1340</ele>
        <time>2010-01-01T01:41:16Z</time>
      </trkpt>
      <trkpt lat="44.23636" lon="6.15815">
        <ele>1341</ele>
        <time>2010-01-01T01:41:17Z</time>
      </trkpt>
      <trkpt lat="44.23637" lon="6.1581">
        <ele>1341</ele>
        <time>2010-01-01T01:41:18Z</time>
      </trkpt>
      <trkpt lat="44.23637" lon="6.15806">
        <ele>1342</ele>
        <time>2010-01-01T01:41:19Z</time>
      </trkpt>
      <trkpt lat="44.23636" lon="6.15802">
        <ele>1343</ele>
        <time>2010-01-01T01:41:19Z</time>
      </trkpt>
      <trkpt lat="44.23636" lon="6.15797">
        <ele>1343</ele>
        <time>2010-01-01T01:41:20Z</time>
      </trkpt>
      <trkpt lat="44.23637" lon="6.15792">
        <ele>1344</ele>
        <time>2010-01-01T01:41:21Z</time>
      </trkpt>
      <trkpt lat="44.23636" lon="6.15788">
        <ele>1344</ele>
        <time>2010-01-01T01:41:22Z</time>
      </trkpt>
      <trkpt lat="44.23636" lon="6.15783">
        <ele>1345</ele>
        <time>2010-01-01T01:41:23Z</time>
      </trkpt>
      <trkpt lat="44.23636" lon="6.15778">
        <ele>1346</ele>
        <time>2010-01-01T01:41:24Z</time>
      </trkpt>
      <trkpt lat="44.23636" lon="6.15774">
        <ele>1346</ele>
        <time>2010-01-01T01:41:25Z</time>
      </trkpt>
      <trkpt lat="44.23636" lon="6.15769">
        <ele>1347</ele>
        <time>2010-01-01T01:41:26Z</time>
      </trkpt>
      <trkpt lat="44.23636" lon="6.15765">
        <ele>1347</ele>
        <time>2010-01-01T01:41:27Z</time>
      </trkpt>
      <trkpt lat="44.23637" lon="6.1576">
        <ele>1347</ele>
        <time>2010-01-01T01:41:28Z</time>
      </trkpt>
      <trkpt lat="44.23638" lon="6.15756">
        <ele>1347</ele>
        <time>2010-01-01T01:41:28Z</time>
      </trkpt>
      <trkpt lat="44.2364" lon="6.15752">
        <ele>1347</ele>
        <time>2010-01-01T01:41:29Z</time>
      </trkpt>
      <trkpt lat="44.23642" lon="6.15749">
        <ele>1347</ele>
        <time>2010-01-01T01:41:30Z</time>
      </trkpt>
      <trkpt lat="44.23644" lon="6.15746">
        <ele>1347</ele>
        <time>2010-01-01T01:41:31Z</time>
      </trkpt>
      <trkpt lat="44.23647" lon="6.15742">
        <ele>1347</ele>
        <time>2010-01-01T01:41:32Z</time>
      </trkpt>
      <trkpt lat="44.23648" lon="6.15738">
        <ele>1347</ele>
        <time>2010-01-01T01:41:33Z</time>
      </trkpt>
      <trkpt lat="44.23651" lon="6.15734">
        <ele>1346</ele>
        <time>2010-01-01T01:41:34Z</time>
      </trkpt>
      <trkpt lat="44.23654" lon="6.15732">
        <ele>1346</ele>
        <time>2010-01-01T01:41:35Z</time>
      </trkpt>
      <trkpt lat="44.23656" lon="6.15729">
        <ele>1346</ele>
        <time>2010-01-01T01:41:35Z</time>
      </trkpt>
      <trkpt lat="44.23658" lon="6.15725">
        <ele>1345</ele>
        <time>2010-01-01T01:41:36Z</time>
      </trkpt>
      <trkpt lat="44.2366" lon="6.15722">
        <ele>1345</ele>
        <time>2010-01-01T01:41:37Z</time>
      </trkpt>
      <trkpt lat="44.23662" lon="6.15719">
        <ele>1345</ele>
        <time>2010-01-01T01:41:38Z</time>
      </trkpt>
      <trkpt lat="44.23664" lon="6.15715">
        <ele>1345</ele>
        <time>2010-01-01T01:41:39Z</time>
      </trkpt>
      <trkpt lat="44.23666" lon="6.1571">
        <ele>1346</ele>
        <time>2010-01-01T01:41:40Z</time>
      </trkpt>
      <trkpt lat="44.23667" lon="6.15707">
        <ele>1346</ele>
        <time>2010-01-01T01:41:41Z</time>
      </trkpt>
      <trkpt lat="44.23669" lon="6.15703">
        <ele>1346</ele>
        <time>2010-01-01T01:41:41Z</time>
      </trkpt>
      <trkpt lat="44.23671" lon="6.15698">
        <ele>1346</ele>
        <time>2010-01-01T01:41:43Z</time>
      </trkpt>
      <trkpt lat="44.23672" lon="6.15695">
        <ele>1346</ele>
        <time>2010-01-01T01:41:43Z</time>
      </trkpt>
      <trkpt lat="44.23673" lon="6.1569">
        <ele>1347</ele>
        <time>2010-01-01T01:41:44Z</time>
      </trkpt>
      <trkpt lat="44.23675" lon="6.15686">
        <ele>1347</ele>
        <time>2010-01-01T01:41:45Z</time>
      </trkpt>
      <trkpt lat="44.23676" lon="6.15682">
        <ele>1347</ele>
        <time>2010-01-01T01:41:46Z</time>
      </trkpt>
      <trkpt lat="44.23678" lon="6.15678">
        <ele>1348</ele>
        <time>2010-01-01T01:41:47Z</time>
      </trkpt>
      <trkpt lat="44.2368" lon="6.15674">
        <ele>1348</ele>
        <time>2010-01-01T01:41:48Z</time>
      </trkpt>
      <trkpt lat="44.23682" lon="6.15671">
        <ele>1347</ele>
        <time>2010-01-01T01:41:49Z</time>
      </trkpt>
      <trkpt lat="44.23685" lon="6.15667">
        <ele>1348</ele>
        <time>2010-01-01T01:41:50Z</time>
      </trkpt>
      <trkpt lat="44.23687" lon="6.15662">
        <ele>1347</ele>
        <time>2010-01-01T01:41:51Z</time>
      </trkpt>
      <trkpt lat="44.23688" lon="6.15658">
        <ele>1348</ele>
        <time>2010-01-01T01:41:52Z</time>
      </trkpt>
      <trkpt lat="44.2369" lon="6.15654">
        <ele>1348</ele>
        <time>2010-01-01T01:41:52Z</time>
      </trkpt>
      <trkpt lat="44.23691" lon="6.1565">
        <ele>1348</ele>
        <time>2010-01-01T01:41:53Z</time>
      </trkpt>
      <trkpt lat="44.23694" lon="6.15645">
        <ele>1348</ele>
        <time>2010-01-01T01:41:54Z</time>
      </trkpt>
      <trkpt lat="44.23696" lon="6.15641">
        <ele>1348</ele>
        <time>2010-01-01T01:41:55Z</time>
      </trkpt>
      <trkpt lat="44.23698" lon="6.15636">
        <ele>1349</ele>
        <time>2010-01-01T01:41:57Z</time>
      </trkpt>
      <trkpt lat="44.237" lon="6.15631">
        <ele>1349</ele>
        <time>2010-01-01T01:41:58Z</time>
      </trkpt>
      <trkpt lat="44.23702" lon="6.15627">
        <ele>1349</ele>
        <time>2010-01-01T01:41:59Z</time>
      </trkpt>
      <trkpt lat="44.23704" lon="6.15623">
        <ele>1349</ele>
        <time>2010-01-01T01:42:00Z</time>
      </trkpt>
      <trkpt lat="44.23706" lon="6.15619">
        <ele>1350</ele>
        <time>2010-01-01T01:42:01Z</time>
      </trkpt>
      <trkpt lat="44.23708" lon="6.15614">
        <ele>1350</ele>
        <time>2010-01-01T01:42:02Z</time>
      </trkpt>
      <trkpt lat="44.23709" lon="6.15609">
        <ele>1351</ele>
        <time>2010-01-01T01:42:03Z</time>
      </trkpt>
      <trkpt lat="44.2371" lon="6.15604">
        <ele>1351</ele>
        <time>2010-01-01T01:42:03Z</time>
      </trkpt>
      <trkpt lat="44.23712" lon="6.15599">
        <ele>1352</ele>
        <time>2010-01-01T01:42:05Z</time>
      </trkpt>
      <trkpt lat="44.23713" lon="6.15594">
        <ele>1353</ele>
        <time>2010-01-01T01:42:06Z</time>
      </trkpt>
      <trkpt lat="44.23714" lon="6.15589">
        <ele>1353</ele>
        <time>2010-01-01T01:42:07Z</time>
      </trkpt>
      <trkpt lat="44.23715" lon="6.15583">
        <ele>1354</ele>
        <time>2010-01-01T01:42:08Z</time>
      </trkpt>
      <trkpt lat="44.23716" lon="6.15578">
        <ele>1355</ele>
        <time>2010-01-01T01:42:09Z</time>
      </trkpt>
      <trkpt lat="44.23718" lon="6.15573">
        <ele>1355</ele>
        <time>2010-01-01T01:42:10Z</time>
      </trkpt>
      <trkpt lat="44.2372" lon="6.15568">
        <ele>1355</ele>
        <time>2010-01-01T01:42:11Z</time>
      </trkpt>
      <trkpt lat="44.23722" lon="6.15564">
        <ele>1355</ele>
        <time>2010-01-01T01:42:12Z</time>
      </trkpt>
      <trkpt lat="44.23723" lon="6.15559">
        <ele>1356</ele>
        <time>2010-01-01T01:42:13Z</time>
      </trkpt>
      <trkpt lat="44.23726" lon="6.15556">
        <ele>1356</ele>
        <time>2010-01-01T01:42:14Z</time>
      </trkpt>
      <trkpt lat="44.23729" lon="6.15553">
        <ele>1355</ele>
        <time>2010-01-01T01:42:15Z</time>
      </trkpt>
      <trkpt lat="44.23733" lon="6.1555">
        <ele>1354</ele>
        <time>2010-01-01T01:42:16Z</time>
      </trkpt>
      <trkpt lat="44.23736" lon="6.15549">
        <ele>1354</ele>
        <time>2010-01-01T01:42:17Z</time>
      </trkpt>
      <trkpt lat="44.23739" lon="6.15548">
        <ele>1353</ele>
        <time>2010-01-01T01:42:18Z</time>
      </trkpt>
      <trkpt lat="44.23742" lon="6.15548">
        <ele>1352</ele>
        <time>2010-01-01T01:42:19Z</time>
      </trkpt>
      <trkpt lat="44.23746" lon="6.15548">
        <ele>1351</ele>
        <time>2010-01-01T01:42:19Z</time>
      </trkpt>
      <trkpt lat="44.23749" lon="6.15548">
        <ele>1350</ele>
        <time>2010-01-01T01:42:20Z</time>
      </trkpt>
      <trkpt lat="44.23753" lon="6.15547">
        <ele>1350</ele>
        <time>2010-01-01T01:42:21Z</time>
      </trkpt>
      <trkpt lat="44.23756" lon="6.15547">
        <ele>1349</ele>
        <time>2010-01-01T01:42:22Z</time>
      </trkpt>
      <trkpt lat="44.23759" lon="6.15546">
        <ele>1348</ele>
        <time>2010-01-01T01:42:23Z</time>
      </trkpt>
      <trkpt lat="44.23763" lon="6.15545">
        <ele>1348</ele>
        <time>2010-01-01T01:42:24Z</time>
      </trkpt>
      <trkpt lat="44.23766" lon="6.15543">
        <ele>1347</ele>
        <time>2010-01-01T01:42:25Z</time>
      </trkpt>
      <trkpt lat="44.2377" lon="6.1554">
        <ele>1347</ele>
        <time>2010-01-01T01:42:26Z</time>
      </trkpt>
      <trkpt lat="44.23773" lon="6.15537">
        <ele>1347</ele>
        <time>2010-01-01T01:42:27Z</time>
      </trkpt>
      <trkpt lat="44.23775" lon="6.15533">
        <ele>1348</ele>
        <time>2010-01-01T01:42:28Z</time>
      </trkpt>
      <trkpt lat="44.23778" lon="6.15529">
        <ele>1348</ele>
        <time>2010-01-01T01:42:29Z</time>
      </trkpt>
      <trkpt lat="44.23781" lon="6.15525">
        <ele>1348</ele>
        <time>2010-01-01T01:42:30Z</time>
      </trkpt>
      <trkpt lat="44.23783" lon="6.1552">
        <ele>1348</ele>
        <time>2010-01-01T01:42:31Z</time>
      </trkpt>
      <trkpt lat="44.23785" lon="6.15515">
        <ele>1349</ele>
        <time>2010-01-01T01:42:33Z</time>
      </trkpt>
      <trkpt lat="44.23786" lon="6.15508">
        <ele>1350</ele>
        <time>2010-01-01T01:42:34Z</time>
      </trkpt>
      <trkpt lat="44.23788" lon="6.15503">
        <ele>1350</ele>
        <time>2010-01-01T01:42:35Z</time>
      </trkpt>
      <trkpt lat="44.2379" lon="6.15498">
        <ele>1351</ele>
        <time>2010-01-01T01:42:36Z</time>
      </trkpt>
      <trkpt lat="44.2379" lon="6.15493">
        <ele>1351</ele>
        <time>2010-01-01T01:42:37Z</time>
      </trkpt>
      <trkpt lat="44.23791" lon="6.15488">
        <ele>1351</ele>
        <time>2010-01-01T01:42:38Z</time>
      </trkpt>
      <trkpt lat="44.23791" lon="6.15484">
        <ele>1352</ele>
        <time>2010-01-01T01:42:39Z</time>
      </trkpt>
      <trkpt lat="44.23788" lon="6.15478">
        <ele>1354</ele>
        <time>2010-01-01T01:42:40Z</time>
      </trkpt>
      <trkpt lat="44.23786" lon="6.15475">
        <ele>1355</ele>
        <time>2010-01-01T01:42:41Z</time>
      </trkpt>
      <trkpt lat="44.23782" lon="6.15473">
        <ele>1356</ele>
        <time>2010-01-01T01:42:42Z</time>
      </trkpt>
      <trkpt lat="44.23778" lon="6.15474">
        <ele>1357</ele>
        <time>2010-01-01T01:42:43Z</time>
      </trkpt>
      <trkpt lat="44.23774" lon="6.15474">
        <ele>1358</ele>
        <time>2010-01-01T01:42:44Z</time>
      </trkpt>
      <trkpt lat="44.2377" lon="6.15476">
        <ele>1359</ele>
        <time>2010-01-01T01:42:45Z</time>
      </trkpt>
      <trkpt lat="44.23767" lon="6.15478">
        <ele>1359</ele>
        <time>2010-01-01T01:42:46Z</time>
      </trkpt>
      <trkpt lat="44.23765" lon="6.15481">
        <ele>1360</ele>
        <time>2010-01-01T01:42:47Z</time>
      </trkpt>
      <trkpt lat="44.23761" lon="6.15483">
        <ele>1360</ele>
        <time>2010-01-01T01:42:48Z</time>
      </trkpt>
      <trkpt lat="44.23758" lon="6.15486">
        <ele>1360</ele>
        <time>2010-01-01T01:42:49Z</time>
      </trkpt>
      <trkpt lat="44.23756" lon="6.15488">
        <ele>1360</ele>
        <time>2010-01-01T01:42:50Z</time>
      </trkpt>
      <trkpt lat="44.23753" lon="6.15492">
        <ele>1360</ele>
        <time>2010-01-01T01:42:51Z</time>
      </trkpt>
      <trkpt lat="44.2375" lon="6.15495">
        <ele>1360</ele>
        <time>2010-01-01T01:42:52Z</time>
      </trkpt>
      <trkpt lat="44.23748" lon="6.15498">
        <ele>1360</ele>
        <time>2010-01-01T01:42:53Z</time>
      </trkpt>
      <trkpt lat="44.23746" lon="6.155">
        <ele>1360</ele>
        <time>2010-01-01T01:42:53Z</time>
      </trkpt>
      <trkpt lat="44.23743" lon="6.15504">
        <ele>1360</ele>
        <time>2010-01-01T01:42:54Z</time>
      </trkpt>
      <trkpt lat="44.23741" lon="6.15509">
        <ele>1360</ele>
        <time>2010-01-01T01:42:55Z</time>
      </trkpt>
      <trkpt lat="44.23739" lon="6.15512">
        <ele>1360</ele>
        <time>2010-01-01T01:42:56Z</time>
      </trkpt>
      <trkpt lat="44.23737" lon="6.15515">
        <ele>1360</ele>
        <time>2010-01-01T01:42:57Z</time>
      </trkpt>
      <trkpt lat="44.23734" lon="6.15517">
        <ele>1360</ele>
        <time>2010-01-01T01:42:58Z</time>
      </trkpt>
      <trkpt lat="44.23731" lon="6.15519">
        <ele>1360</ele>
        <time>2010-01-01T01:42:59Z</time>
      </trkpt>
      <trkpt lat="44.23728" lon="6.15521">
        <ele>1360</ele>
        <time>2010-01-01T01:43:00Z</time>
      </trkpt>
      <trkpt lat="44.23725" lon="6.15523">
        <ele>1361</ele>
        <time>2010-01-01T01:43:00Z</time>
      </trkpt>
      <trkpt lat="44.23721" lon="6.15525">
        <ele>1362</ele>
        <time>2010-01-01T01:43:02Z</time>
      </trkpt>
      <trkpt lat="44.23717" lon="6.15526">
        <ele>1363</ele>
        <time>2010-01-01T01:43:03Z</time>
      </trkpt>
      <trkpt lat="44.23714" lon="6.15528">
        <ele>1364</ele>
        <time>2010-01-01T01:43:04Z</time>
      </trkpt>
      <trkpt lat="44.23711" lon="6.1553">
        <ele>1365</ele>
        <time>2010-01-01T01:43:04Z</time>
      </trkpt>
      <trkpt lat="44.23707" lon="6.15532">
        <ele>1366</ele>
        <time>2010-01-01T01:43:05Z</time>
      </trkpt>
      <trkpt lat="44.23704" lon="6.15535">
        <ele>1366</ele>
        <time>2010-01-01T01:43:07Z</time>
      </trkpt>
      <trkpt lat="44.237" lon="6.15539">
        <ele>1367</ele>
        <time>2010-01-01T01:43:08Z</time>
      </trkpt>
      <trkpt lat="44.23698" lon="6.15542">
        <ele>1368</ele>
        <time>2010-01-01T01:43:09Z</time>
      </trkpt>
      <trkpt lat="44.23695" lon="6.15547">
        <ele>1368</ele>
        <time>2010-01-01T01:43:10Z</time>
      </trkpt>
      <trkpt lat="44.23693" lon="6.15551">
        <ele>1368</ele>
        <time>2010-01-01T01:43:11Z</time>
      </trkpt>
      <trkpt lat="44.23693" lon="6.15555">
        <ele>1367</ele>
        <time>2010-01-01T01:43:12Z</time>
      </trkpt>
      <trkpt lat="44.23693" lon="6.15561">
        <ele>1366</ele>
        <time>2010-01-01T01:43:13Z</time>
      </trkpt>
      <trkpt lat="44.23692" lon="6.15566">
        <ele>1365</ele>
        <time>2010-01-01T01:43:14Z</time>
      </trkpt>
      <trkpt lat="44.23691" lon="6.15571">
        <ele>1364</ele>
        <time>2010-01-01T01:43:15Z</time>
      </trkpt>
      <trkpt lat="44.23689" lon="6.15574">
        <ele>1364</ele>
        <time>2010-01-01T01:43:15Z</time>
      </trkpt>
      <trkpt lat="44.23688" lon="6.15579">
        <ele>1364</ele>
        <time>2010-01-01T01:43:16Z</time>
      </trkpt>
      <trkpt lat="44.23686" lon="6.15583">
        <ele>1363</ele>
        <time>2010-01-01T01:43:17Z</time>
      </trkpt>
      <trkpt lat="44.23683" lon="6.15587">
        <ele>1364</ele>
        <time>2010-01-01T01:43:18Z</time>
      </trkpt>
      <trkpt lat="44.2368" lon="6.1559">
        <ele>1364</ele>
        <time>2010-01-01T01:43:19Z</time>
      </trkpt>
      <trkpt lat="44.23676" lon="6.15593">
        <ele>1364</ele>
        <time>2010-01-01T01:43:20Z</time>
      </trkpt>
      <trkpt lat="44.23673" lon="6.15595">
        <ele>1364</ele>
        <time>2010-01-01T01:43:21Z</time>
      </trkpt>
      <trkpt lat="44.2367" lon="6.15598">
        <ele>1365</ele>
        <time>2010-01-01T01:43:22Z</time>
      </trkpt>
      <trkpt lat="44.23666" lon="6.15599">
        <ele>1366</ele>
        <time>2010-01-01T01:43:24Z</time>
      </trkpt>
      <trkpt lat="44.23662" lon="6.15601">
        <ele>1366</ele>
        <time>2010-01-01T01:43:25Z</time>
      </trkpt>
      <trkpt lat="44.23658" lon="6.15602">
        <ele>1367</ele>
        <time>2010-01-01T01:43:26Z</time>
      </trkpt>
      <trkpt lat="44.23655" lon="6.15603">
        <ele>1368</ele>
        <time>2010-01-01T01:43:26Z</time>
      </trkpt>
      <trkpt lat="44.23652" lon="6.15605">
        <ele>1368</ele>
        <time>2010-01-01T01:43:27Z</time>
      </trkpt>
      <trkpt lat="44.23649" lon="6.15607">
        <ele>1369</ele>
        <time>2010-01-01T01:43:28Z</time>
      </trkpt>
      <trkpt lat="44.23645" lon="6.15608">
        <ele>1369</ele>
        <time>2010-01-01T01:43:29Z</time>
      </trkpt>
      <trkpt lat="44.23641" lon="6.1561">
        <ele>1370</ele>
        <time>2010-01-01T01:43:30Z</time>
      </trkpt>
      <trkpt lat="44.23638" lon="6.15612">
        <ele>1371</ele>
        <time>2010-01-01T01:43:31Z</time>
      </trkpt>
      <trkpt lat="44.23633" lon="6.15613">
        <ele>1373</ele>
        <time>2010-01-01T01:43:33Z</time>
      </trkpt>
      <trkpt lat="44.2363" lon="6.15616">
        <ele>1374</ele>
        <time>2010-01-01T01:43:34Z</time>
      </trkpt>
      <trkpt lat="44.23627" lon="6.15619">
        <ele>1374</ele>
        <time>2010-01-01T01:43:35Z</time>
      </trkpt>
      <trkpt lat="44.23624" lon="6.15622">
        <ele>1375</ele>
        <time>2010-01-01T01:43:36Z</time>
      </trkpt>
      <trkpt lat="44.23622" lon="6.15624">
        <ele>1375</ele>
        <time>2010-01-01T01:43:36Z</time>
      </trkpt>
      <trkpt lat="44.23619" lon="6.15626">
        <ele>1376</ele>
        <time>2010-01-01T01:43:37Z</time>
      </trkpt>
      <trkpt lat="44.23617" lon="6.15628">
        <ele>1376</ele>
        <time>2010-01-01T01:43:38Z</time>
      </trkpt>
      <trkpt lat="44.23615" lon="6.15631">
        <ele>1377</ele>
        <time>2010-01-01T01:43:39Z</time>
      </trkpt>
      <trkpt lat="44.23611" lon="6.15633">
        <ele>1378</ele>
        <time>2010-01-01T01:43:40Z</time>
      </trkpt>
      <trkpt lat="44.23608" lon="6.15635">
        <ele>1378</ele>
        <time>2010-01-01T01:43:41Z</time>
      </trkpt>
      <trkpt lat="44.23605" lon="6.15636">
        <ele>1379</ele>
        <time>2010-01-01T01:43:42Z</time>
      </trkpt>
      <trkpt lat="44.23602" lon="6.15638">
        <ele>1380</ele>
        <time>2010-01-01T01:43:42Z</time>
      </trkpt>
      <trkpt lat="44.23598" lon="6.1564">
        <ele>1381</ele>
        <time>2010-01-01T01:43:44Z</time>
      </trkpt>
      <trkpt lat="44.23595" lon="6.15642">
        <ele>1382</ele>
        <time>2010-01-01T01:43:44Z</time>
      </trkpt>
      <trkpt lat="44.23591" lon="6.15643">
        <ele>1383</ele>
        <time>2010-01-01T01:43:45Z</time>
      </trkpt>
      <trkpt lat="44.23589" lon="6.15645">
        <ele>1383</ele>
        <time>2010-01-01T01:43:46Z</time>
      </trkpt>
      <trkpt lat="44.23586" lon="6.15647">
        <ele>1384</ele>
        <time>2010-01-01T01:43:47Z</time>
      </trkpt>
      <trkpt lat="44.23582" lon="6.15649">
        <ele>1385</ele>
        <time>2010-01-01T01:43:48Z</time>
      </trkpt>
      <trkpt lat="44.2358" lon="6.15652">
        <ele>1385</ele>
        <time>2010-01-01T01:43:49Z</time>
      </trkpt>
      <trkpt lat="44.23578" lon="6.15656">
        <ele>1385</ele>
        <time>2010-01-01T01:43:50Z</time>
      </trkpt>
      <trkpt lat="44.23575" lon="6.15659">
        <ele>1386</ele>
        <time>2010-01-01T01:43:51Z</time>
      </trkpt>
      <trkpt lat="44.23572" lon="6.15662">
        <ele>1386</ele>
        <time>2010-01-01T01:43:52Z</time>
      </trkpt>
      <trkpt lat="44.23569" lon="6.15664">
        <ele>1386</ele>
        <time>2010-01-01T01:43:53Z</time>
      </trkpt>
      <trkpt lat="44.23566" lon="6.15665">
        <ele>1387</ele>
        <time>2010-01-01T01:43:53Z</time>
      </trkpt>
      <trkpt lat="44.23563" lon="6.15666">
        <ele>1388</ele>
        <time>2010-01-01T01:43:54Z</time>
      </trkpt>
      <trkpt lat="44.2356" lon="6.15668">
        <ele>1389</ele>
        <time>2010-01-01T01:43:55Z</time>
      </trkpt>
      <trkpt lat="44.23558" lon="6.1567">
        <ele>1389</ele>
        <time>2010-01-01T01:43:56Z</time>
      </trkpt>
      <trkpt lat="44.23555" lon="6.15671">
        <ele>1390</ele>
        <time>2010-01-01T01:43:57Z</time>
      </trkpt>
      <trkpt lat="44.23552" lon="6.15673">
        <ele>1390</ele>
        <time>2010-01-01T01:43:57Z</time>
      </trkpt>
      <trkpt lat="44.23549" lon="6.15674">
        <ele>1391</ele>
        <time>2010-01-01T01:43:58Z</time>
      </trkpt>
      <trkpt lat="44.23546" lon="6.15675">
        <ele>1391</ele>
        <time>2010-01-01T01:43:59Z</time>
      </trkpt>
      <trkpt lat="44.23543" lon="6.15677">
        <ele>1392</ele>
        <time>2010-01-01T01:44:00Z</time>
      </trkpt>
      <trkpt lat="44.23539" lon="6.15677">
        <ele>1393</ele>
        <time>2010-01-01T01:44:01Z</time>
      </trkpt>
      <trkpt lat="44.23536" lon="6.15679">
        <ele>1394</ele>
        <time>2010-01-01T01:44:02Z</time>
      </trkpt>
      <trkpt lat="44.23533" lon="6.15681">
        <ele>1394</ele>
        <time>2010-01-01T01:44:03Z</time>
      </trkpt>
      <trkpt lat="44.2353" lon="6.15682">
        <ele>1394</ele>
        <time>2010-01-01T01:44:04Z</time>
      </trkpt>
      <trkpt lat="44.23527" lon="6.15684">
        <ele>1395</ele>
        <time>2010-01-01T01:44:04Z</time>
      </trkpt>
      <trkpt lat="44.23524" lon="6.15687">
        <ele>1395</ele>
        <time>2010-01-01T01:44:05Z</time>
      </trkpt>
      <trkpt lat="44.23522" lon="6.1569">
        <ele>1395</ele>
        <time>2010-01-01T01:44:06Z</time>
      </trkpt>
      <trkpt lat="44.23521" lon="6.15694">
        <ele>1395</ele>
        <time>2010-01-01T01:44:07Z</time>
      </trkpt>
      <trkpt lat="44.2352" lon="6.15697">
        <ele>1394</ele>
        <time>2010-01-01T01:44:08Z</time>
      </trkpt>
      <trkpt lat="44.23519" lon="6.15701">
        <ele>1394</ele>
        <time>2010-01-01T01:44:08Z</time>
      </trkpt>
      <trkpt lat="44.23518" lon="6.15706">
        <ele>1393</ele>
        <time>2010-01-01T01:44:09Z</time>
      </trkpt>
      <trkpt lat="44.23516" lon="6.1571">
        <ele>1393</ele>
        <time>2010-01-01T01:44:10Z</time>
      </trkpt>
      <trkpt lat="44.23513" lon="6.15712">
        <ele>1393</ele>
        <time>2010-01-01T01:44:11Z</time>
      </trkpt>
      <trkpt lat="44.2351" lon="6.15714">
        <ele>1393</ele>
        <time>2010-01-01T01:44:12Z</time>
      </trkpt>
      <trkpt lat="44.23507" lon="6.15716">
        <ele>1394</ele>
        <time>2010-01-01T01:44:13Z</time>
      </trkpt>
      <trkpt lat="44.23504" lon="6.15718">
        <ele>1394</ele>
        <time>2010-01-01T01:44:14Z</time>
      </trkpt>
      <trkpt lat="44.23501" lon="6.15719">
        <ele>1395</ele>
        <time>2010-01-01T01:44:15Z</time>
      </trkpt>
      <trkpt lat="44.23498" lon="6.15721">
        <ele>1395</ele>
        <time>2010-01-01T01:44:16Z</time>
      </trkpt>
      <trkpt lat="44.23495" lon="6.15724">
        <ele>1396</ele>
        <time>2010-01-01T01:44:17Z</time>
      </trkpt>
      <trkpt lat="44.23491" lon="6.15726">
        <ele>1396</ele>
        <time>2010-01-01T01:44:18Z</time>
      </trkpt>
      <trkpt lat="44.23489" lon="6.15727">
        <ele>1396</ele>
        <time>2010-01-01T01:44:18Z</time>
      </trkpt>
      <trkpt lat="44.23485" lon="6.15728">
        <ele>1397</ele>
        <time>2010-01-01T01:44:19Z</time>
      </trkpt>
      <trkpt lat="44.23482" lon="6.1573">
        <ele>1397</ele>
        <time>2010-01-01T01:44:20Z</time>
      </trkpt>
      <trkpt lat="44.23479" lon="6.15731">
        <ele>1398</ele>
        <time>2010-01-01T01:44:21Z</time>
      </trkpt>
      <trkpt lat="44.23475" lon="6.15733">
        <ele>1398</ele>
        <time>2010-01-01T01:44:22Z</time>
      </trkpt>
      <trkpt lat="44.23471" lon="6.15735">
        <ele>1399</ele>
        <time>2010-01-01T01:44:23Z</time>
      </trkpt>
      <trkpt lat="44.23468" lon="6.15736">
        <ele>1400</ele>
        <time>2010-01-01T01:44:24Z</time>
      </trkpt>
      <trkpt lat="44.23465" lon="6.15738">
        <ele>1401</ele>
        <time>2010-01-01T01:44:25Z</time>
      </trkpt>
      <trkpt lat="44.23462" lon="6.1574">
        <ele>1401</ele>
        <time>2010-01-01T01:44:26Z</time>
      </trkpt>
      <trkpt lat="44.23459" lon="6.15742">
        <ele>1402</ele>
        <time>2010-01-01T01:44:27Z</time>
      </trkpt>
      <trkpt lat="44.23457" lon="6.15744">
        <ele>1402</ele>
        <time>2010-01-01T01:44:28Z</time>
      </trkpt>
      <trkpt lat="44.23454" lon="6.15746">
        <ele>1403</ele>
        <time>2010-01-01T01:44:28Z</time>
      </trkpt>
      <trkpt lat="44.23451" lon="6.15749">
        <ele>1403</ele>
        <time>2010-01-01T01:44:29Z</time>
      </trkpt>
      <trkpt lat="44.23448" lon="6.15752">
        <ele>1404</ele>
        <time>2010-01-01T01:44:30Z</time>
      </trkpt>
      <trkpt lat="44.23446" lon="6.15756">
        <ele>1404</ele>
        <time>2010-01-01T01:44:31Z</time>
      </trkpt>
      <trkpt lat="44.23443" lon="6.15759">
        <ele>1404</ele>
        <time>2010-01-01T01:44:32Z</time>
      </trkpt>
      <trkpt lat="44.2344" lon="6.1576">
        <ele>1405</ele>
        <time>2010-01-01T01:44:33Z</time>
      </trkpt>
      <trkpt lat="44.23438" lon="6.15762">
        <ele>1406</ele>
        <time>2010-01-01T01:44:34Z</time>
      </trkpt>
      <trkpt lat="44.23434" lon="6.15765">
        <ele>1407</ele>
        <time>2010-01-01T01:44:35Z</time>
      </trkpt>
      <trkpt lat="44.23432" lon="6.15767">
        <ele>1407</ele>
        <time>2010-01-01T01:44:36Z</time>
      </trkpt>
      <trkpt lat="44.23429" lon="6.1577">
        <ele>1408</ele>
        <time>2010-01-01T01:44:37Z</time>
      </trkpt>
      <trkpt lat="44.23426" lon="6.15773">
        <ele>1408</ele>
        <time>2010-01-01T01:44:38Z</time>
      </trkpt>
      <trkpt lat="44.23423" lon="6.15777">
        <ele>1408</ele>
        <time>2010-01-01T01:44:39Z</time>
      </trkpt>
      <trkpt lat="44.23421" lon="6.15779">
        <ele>1408</ele>
        <time>2010-01-01T01:44:39Z</time>
      </trkpt>
      <trkpt lat="44.23419" lon="6.15782">
        <ele>1409</ele>
        <time>2010-01-01T01:44:40Z</time>
      </trkpt>
      <trkpt lat="44.23416" lon="6.15784">
        <ele>1409</ele>
        <time>2010-01-01T01:44:41Z</time>
      </trkpt>
      <trkpt lat="44.23413" lon="6.15787">
        <ele>1410</ele>
        <time>2010-01-01T01:44:42Z</time>
      </trkpt>
      <trkpt lat="44.23411" lon="6.1579">
        <ele>1410</ele>
        <time>2010-01-01T01:44:43Z</time>
      </trkpt>
      <trkpt lat="44.23408" lon="6.15793">
        <ele>1410</ele>
        <time>2010-01-01T01:44:44Z</time>
      </trkpt>
      <trkpt lat="44.23406" lon="6.15796">
        <ele>1410</ele>
        <time>2010-01-01T01:44:45Z</time>
      </trkpt>
      <trkpt lat="44.23404" lon="6.15799">
        <ele>1410</ele>
        <time>2010-01-01T01:44:45Z</time>
      </trkpt>
      <trkpt lat="44.23402" lon="6.15801">
        <ele>1410</ele>
        <time>2010-01-01T01:44:46Z</time>
      </trkpt>
      <trkpt lat="44.234" lon="6.15804">
        <ele>1410</ele>
        <time>2010-01-01T01:44:47Z</time>
      </trkpt>
      <trkpt lat="44.23397" lon="6.15807">
        <ele>1411</ele>
        <time>2010-01-01T01:44:48Z</time>
      </trkpt>
      <trkpt lat="44.23395" lon="6.15809">
        <ele>1411</ele>
        <time>2010-01-01T01:44:48Z</time>
      </trkpt>
      <trkpt lat="44.23392" lon="6.15811">
        <ele>1411</ele>
        <time>2010-01-01T01:44:49Z</time>
      </trkpt>
      <trkpt lat="44.2339" lon="6.15814">
        <ele>1412</ele>
        <time>2010-01-01T01:44:50Z</time>
      </trkpt>
      <trkpt lat="44.23387" lon="6.15817">
        <ele>1412</ele>
        <time>2010-01-01T01:44:51Z</time>
      </trkpt>
      <trkpt lat="44.23384" lon="6.15819">
        <ele>1413</ele>
        <time>2010-01-01T01:44:52Z</time>
      </trkpt>
      <trkpt lat="44.23382" lon="6.15821">
        <ele>1414</ele>
        <time>2010-01-01T01:44:53Z</time>
      </trkpt>
      <trkpt lat="44.23379" lon="6.15825">
        <ele>1415</ele>
        <time>2010-01-01T01:44:54Z</time>
      </trkpt>
      <trkpt lat="44.23377" lon="6.15828">
        <ele>1415</ele>
        <time>2010-01-01T01:44:54Z</time>
      </trkpt>
      <trkpt lat="44.23375" lon="6.15831">
        <ele>1415</ele>
        <time>2010-01-01T01:44:55Z</time>
      </trkpt>
      <trkpt lat="44.23372" lon="6.15835">
        <ele>1415</ele>
        <time>2010-01-01T01:44:56Z</time>
      </trkpt>
      <trkpt lat="44.23369" lon="6.15837">
        <ele>1416</ele>
        <time>2010-01-01T01:44:57Z</time>
      </trkpt>
      <trkpt lat="44.23367" lon="6.15839">
        <ele>1416</ele>
        <time>2010-01-01T01:44:58Z</time>
      </trkpt>
      <trkpt lat="44.23365" lon="6.15842">
        <ele>1416</ele>
        <time>2010-01-01T01:44:59Z</time>
      </trkpt>
      <trkpt lat="44.23363" lon="6.15847">
        <ele>1415</ele>
        <time>2010-01-01T01:45:00Z</time>
      </trkpt>
      <trkpt lat="44.23362" lon="6.15851">
        <ele>1414</ele>
        <time>2010-01-01T01:45:00Z</time>
      </trkpt>
      <trkpt lat="44.23361" lon="6.15855">
        <ele>1413</ele>
        <time>2010-01-01T01:45:01Z</time>
      </trkpt>
      <trkpt lat="44.2336" lon="6.15858">
        <ele>1412</ele>
        <time>2010-01-01T01:45:02Z</time>
      </trkpt>
      <trkpt lat="44.23358" lon="6.15863">
        <ele>1412</ele>
        <time>2010-01-01T01:45:03Z</time>
      </trkpt>
      <trkpt lat="44.23355" lon="6.15867">
        <ele>1411</ele>
        <time>2010-01-01T01:45:04Z</time>
      </trkpt>
      <trkpt lat="44.23353" lon="6.1587">
        <ele>1411</ele>
        <time>2010-01-01T01:45:05Z</time>
      </trkpt>
      <trkpt lat="44.2335" lon="6.15872">
        <ele>1412</ele>
        <time>2010-01-01T01:45:06Z</time>
      </trkpt>
      <trkpt lat="44.23348" lon="6.15874">
        <ele>1412</ele>
        <time>2010-01-01T01:45:07Z</time>
      </trkpt>
      <trkpt lat="44.23344" lon="6.15875">
        <ele>1413</ele>
        <time>2010-01-01T01:45:08Z</time>
      </trkpt>
      <trkpt lat="44.2334" lon="6.15877">
        <ele>1414</ele>
        <time>2010-01-01T01:45:09Z</time>
      </trkpt>
      <trkpt lat="44.23337" lon="6.15878">
        <ele>1416</ele>
        <time>2010-01-01T01:45:10Z</time>
      </trkpt>
      <trkpt lat="44.23333" lon="6.15879">
        <ele>1417</ele>
        <time>2010-01-01T01:45:11Z</time>
      </trkpt>
      <trkpt lat="44.2333" lon="6.1588">
        <ele>1418</ele>
        <time>2010-01-01T01:45:11Z</time>
      </trkpt>
      <trkpt lat="44.23327" lon="6.1588">
        <ele>1419</ele>
        <time>2010-01-01T01:45:12Z</time>
      </trkpt>
      <trkpt lat="44.23324" lon="6.15881">
        <ele>1419</ele>
        <time>2010-01-01T01:45:13Z</time>
      </trkpt>
      <trkpt lat="44.23321" lon="6.15882">
        <ele>1420</ele>
        <time>2010-01-01T01:45:14Z</time>
      </trkpt>
      <trkpt lat="44.23317" lon="6.15883">
        <ele>1421</ele>
        <time>2010-01-01T01:45:15Z</time>
      </trkpt>
      <trkpt lat="44.23314" lon="6.15884">
        <ele>1422</ele>
        <time>2010-01-01T01:45:16Z</time>
      </trkpt>
      <trkpt lat="44.23311" lon="6.15886">
        <ele>1422</ele>
        <time>2010-01-01T01:45:17Z</time>
      </trkpt>
      <trkpt lat="44.23307" lon="6.15887">
        <ele>1423</ele>
        <time>2010-01-01T01:45:18Z</time>
      </trkpt>
      <trkpt lat="44.23304" lon="6.15888">
        <ele>1424</ele>
        <time>2010-01-01T01:45:18Z</time>
      </trkpt>
      <trkpt lat="44.233" lon="6.15888">
        <ele>1425</ele>
        <time>2010-01-01T01:45:19Z</time>
      </trkpt>
      <trkpt lat="44.23297" lon="6.1589">
        <ele>1426</ele>
        <time>2010-01-01T01:45:20Z</time>
      </trkpt>
      <trkpt lat="44.23293" lon="6.15891">
        <ele>1427</ele>
        <time>2010-01-01T01:45:21Z</time>
      </trkpt>
      <trkpt lat="44.2329" lon="6.15892">
        <ele>1429</ele>
        <time>2010-01-01T01:45:22Z</time>
      </trkpt>
      <trkpt lat="44.23286" lon="6.15893">
        <ele>1430</ele>
        <time>2010-01-01T01:45:24Z</time>
      </trkpt>
      <trkpt lat="44.23283" lon="6.15894">
        <ele>1431</ele>
        <time>2010-01-01T01:45:24Z</time>
      </trkpt>
      <trkpt lat="44.23279" lon="6.15895">
        <ele>1433</ele>
        <time>2010-01-01T01:45:25Z</time>
      </trkpt>
      <trkpt lat="44.23276" lon="6.15896">
        <ele>1434</ele>
        <time>2010-01-01T01:45:26Z</time>
      </trkpt>
      <trkpt lat="44.23273" lon="6.15898">
        <ele>1435</ele>
        <time>2010-01-01T01:45:27Z</time>
      </trkpt>
      <trkpt lat="44.2327" lon="6.159">
        <ele>1436</ele>
        <time>2010-01-01T01:45:28Z</time>
      </trkpt>
      <trkpt lat="44.23267" lon="6.15903">
        <ele>1437</ele>
        <time>2010-01-01T01:45:29Z</time>
      </trkpt>
      <trkpt lat="44.23265" lon="6.15908">
        <ele>1437</ele>
        <time>2010-01-01T01:45:30Z</time>
      </trkpt>
      <trkpt lat="44.23263" lon="6.15912">
        <ele>1437</ele>
        <time>2010-01-01T01:45:31Z</time>
      </trkpt>
      <trkpt lat="44.23262" lon="6.15916">
        <ele>1437</ele>
        <time>2010-01-01T01:45:32Z</time>
      </trkpt>
      <trkpt lat="44.23262" lon="6.1592">
        <ele>1436</ele>
        <time>2010-01-01T01:45:33Z</time>
      </trkpt>
      <trkpt lat="44.23262" lon="6.15924">
        <ele>1436</ele>
        <time>2010-01-01T01:45:33Z</time>
      </trkpt>
      <trkpt lat="44.23263" lon="6.15928">
        <ele>1435</ele>
        <time>2010-01-01T01:45:34Z</time>
      </trkpt>
      <trkpt lat="44.23264" lon="6.15932">
        <ele>1434</ele>
        <time>2010-01-01T01:45:35Z</time>
      </trkpt>
      <trkpt lat="44.23265" lon="6.15938">
        <ele>1434</ele>
        <time>2010-01-01T01:45:36Z</time>
      </trkpt>
      <trkpt lat="44.23266" lon="6.15943">
        <ele>1433</ele>
        <time>2010-01-01T01:45:37Z</time>
      </trkpt>
      <trkpt lat="44.23266" lon="6.15948">
        <ele>1432</ele>
        <time>2010-01-01T01:45:38Z</time>
      </trkpt>
      <trkpt lat="44.23266" lon="6.15953">
        <ele>1432</ele>
        <time>2010-01-01T01:45:39Z</time>
      </trkpt>
      <trkpt lat="44.23267" lon="6.15957">
        <ele>1432</ele>
        <time>2010-01-01T01:45:40Z</time>
      </trkpt>
      <trkpt lat="44.23267" lon="6.15961">
        <ele>1432</ele>
        <time>2010-01-01T01:45:41Z</time>
      </trkpt>
      <trkpt lat="44.23266" lon="6.15966">
        <ele>1432</ele>
        <time>2010-01-01T01:45:42Z</time>
      </trkpt>
      <trkpt lat="44.23265" lon="6.1597">
        <ele>1432</ele>
        <time>2010-01-01T01:45:42Z</time>
      </trkpt>
      <trkpt lat="44.23265" lon="6.15974">
        <ele>1432</ele>
        <time>2010-01-01T01:45:43Z</time>
      </trkpt>
      <trkpt lat="44.23264" lon="6.15978">
        <ele>1433</ele>
        <time>2010-01-01T01:45:44Z</time>
      </trkpt>
      <trkpt lat="44.23262" lon="6.15983">
        <ele>1433</ele>
        <time>2010-01-01T01:45:45Z</time>
      </trkpt>
      <trkpt lat="44.23261" lon="6.15987">
        <ele>1433</ele>
        <time>2010-01-01T01:45:46Z</time>
      </trkpt>
      <trkpt lat="44.2326" lon="6.15992">
        <ele>1434</ele>
        <time>2010-01-01T01:45:47Z</time>
      </trkpt>
      <trkpt lat="44.23259" lon="6.15997">
        <ele>1434</ele>
        <time>2010-01-01T01:45:48Z</time>
      </trkpt>
      <trkpt lat="44.23258" lon="6.16001">
        <ele>1434</ele>
        <time>2010-01-01T01:45:49Z</time>
      </trkpt>
      <trkpt lat="44.23256" lon="6.16005">
        <ele>1435</ele>
        <time>2010-01-01T01:45:49Z</time>
      </trkpt>
      <trkpt lat="44.23255" lon="6.16009">
        <ele>1435</ele>
        <time>2010-01-01T01:45:50Z</time>
      </trkpt>
      <trkpt lat="44.23255" lon="6.16013">
        <ele>1435</ele>
        <time>2010-01-01T01:45:51Z</time>
      </trkpt>
      <trkpt lat="44.23255" lon="6.16018">
        <ele>1435</ele>
        <time>2010-01-01T01:45:52Z</time>
      </trkpt>
      <trkpt lat="44.23256" lon="6.16023">
        <ele>1434</ele>
        <time>2010-01-01T01:45:53Z</time>
      </trkpt>
      <trkpt lat="44.23257" lon="6.16027">
        <ele>1434</ele>
        <time>2010-01-01T01:45:54Z</time>
      </trkpt>
      <trkpt lat="44.23258" lon="6.16031">
        <ele>1433</ele>
        <time>2010-01-01T01:45:55Z</time>
      </trkpt>
      <trkpt lat="44.2326" lon="6.16035">
        <ele>1433</ele>
        <time>2010-01-01T01:45:56Z</time>
      </trkpt>
      <trkpt lat="44.23263" lon="6.16038">
        <ele>1432</ele>
        <time>2010-01-01T01:45:57Z</time>
      </trkpt>
      <trkpt lat="44.23264" lon="6.16042">
        <ele>1431</ele>
        <time>2010-01-01T01:45:57Z</time>
      </trkpt>
      <trkpt lat="44.23264" lon="6.16047">
        <ele>1431</ele>
        <time>2010-01-01T01:45:58Z</time>
      </trkpt>
      <trkpt lat="44.23264" lon="6.16051">
        <ele>1432</ele>
        <time>2010-01-01T01:45:59Z</time>
      </trkpt>
      <trkpt lat="44.23263" lon="6.16056">
        <ele>1432</ele>
        <time>2010-01-01T01:46:00Z</time>
      </trkpt>
      <trkpt lat="44.23261" lon="6.1606">
        <ele>1433</ele>
        <time>2010-01-01T01:46:01Z</time>
      </trkpt>
      <trkpt lat="44.2326" lon="6.16065">
        <ele>1433</ele>
        <time>2010-01-01T01:46:02Z</time>
      </trkpt>
      <trkpt lat="44.23258" lon="6.16069">
        <ele>1434</ele>
        <time>2010-01-01T01:46:03Z</time>
      </trkpt>
      <trkpt lat="44.23256" lon="6.16073">
        <ele>1435</ele>
        <time>2010-01-01T01:46:04Z</time>
      </trkpt>
      <trkpt lat="44.23255" lon="6.16077">
        <ele>1436</ele>
        <time>2010-01-01T01:46:04Z</time>
      </trkpt>
      <trkpt lat="44.23253" lon="6.16081">
        <ele>1437</ele>
        <time>2010-01-01T01:46:05Z</time>
      </trkpt>
      <trkpt lat="44.23252" lon="6.16084">
        <ele>1437</ele>
        <time>2010-01-01T01:46:06Z</time>
      </trkpt>
      <trkpt lat="44.23251" lon="6.16088">
        <ele>1437</ele>
        <time>2010-01-01T01:46:07Z</time>
      </trkpt>
      <trkpt lat="44.2325" lon="6.16092">
        <ele>1438</ele>
        <time>2010-01-01T01:46:08Z</time>
      </trkpt>
      <trkpt lat="44.23248" lon="6.16096">
        <ele>1437</ele>
        <time>2010-01-01T01:46:09Z</time>
      </trkpt>
      <trkpt lat="44.23246" lon="6.161">
        <ele>1437</ele>
        <time>2010-01-01T01:46:09Z</time>
      </trkpt>
      <trkpt lat="44.23245" lon="6.16103">
        <ele>1438</ele>
        <time>2010-01-01T01:46:10Z</time>
      </trkpt>
      <trkpt lat="44.23243" lon="6.16106">
        <ele>1438</ele>
        <time>2010-01-01T01:46:11Z</time>
      </trkpt>
      <trkpt lat="44.23241" lon="6.1611">
        <ele>1438</ele>
        <time>2010-01-01T01:46:12Z</time>
      </trkpt>
      <trkpt lat="44.2324" lon="6.16113">
        <ele>1438</ele>
        <time>2010-01-01T01:46:13Z</time>
      </trkpt>
      <trkpt lat="44.23237" lon="6.16116">
        <ele>1439</ele>
        <time>2010-01-01T01:46:13Z</time>
      </trkpt>
      <trkpt lat="44.23234" lon="6.16119">
        <ele>1440</ele>
        <time>2010-01-01T01:46:14Z</time>
      </trkpt>
      <trkpt lat="44.23232" lon="6.16122">
        <ele>1440</ele>
        <time>2010-01-01T01:46:15Z</time>
      </trkpt>
      <trkpt lat="44.23229" lon="6.16124">
        <ele>1441</ele>
        <time>2010-01-01T01:46:16Z</time>
      </trkpt>
      <trkpt lat="44.23226" lon="6.16127">
        <ele>1442</ele>
        <time>2010-01-01T01:46:17Z</time>
      </trkpt>
      <trkpt lat="44.23223" lon="6.16129">
        <ele>1443</ele>
        <time>2010-01-01T01:46:18Z</time>
      </trkpt>
      <trkpt lat="44.23219" lon="6.1613">
        <ele>1443</ele>
        <time>2010-01-01T01:46:19Z</time>
      </trkpt>
      <trkpt lat="44.23216" lon="6.1613">
        <ele>1444</ele>
        <time>2010-01-01T01:46:20Z</time>
      </trkpt>
      <trkpt lat="44.23212" lon="6.1613">
        <ele>1445</ele>
        <time>2010-01-01T01:46:21Z</time>
      </trkpt>
      <trkpt lat="44.23209" lon="6.1613">
        <ele>1446</ele>
        <time>2010-01-01T01:46:22Z</time>
      </trkpt>
      <trkpt lat="44.23206" lon="6.1613">
        <ele>1446</ele>
        <time>2010-01-01T01:46:22Z</time>
      </trkpt>
      <trkpt lat="44.23202" lon="6.1613">
        <ele>1447</ele>
        <time>2010-01-01T01:46:23Z</time>
      </trkpt>
      <trkpt lat="44.232" lon="6.16131">
        <ele>1448</ele>
        <time>2010-01-01T01:46:24Z</time>
      </trkpt>
      <trkpt lat="44.23196" lon="6.16131">
        <ele>1448</ele>
        <time>2010-01-01T01:46:25Z</time>
      </trkpt>
      <trkpt lat="44.23192" lon="6.16133">
        <ele>1449</ele>
        <time>2010-01-01T01:46:26Z</time>
      </trkpt>
      <trkpt lat="44.23189" lon="6.16136">
        <ele>1449</ele>
        <time>2010-01-01T01:46:27Z</time>
      </trkpt>
      <trkpt lat="44.23186" lon="6.16138">
        <ele>1450</ele>
        <time>2010-01-01T01:46:28Z</time>
      </trkpt>
      <trkpt lat="44.23183" lon="6.1614">
        <ele>1450</ele>
        <time>2010-01-01T01:46:29Z</time>
      </trkpt>
      <trkpt lat="44.2318" lon="6.16142">
        <ele>1451</ele>
        <time>2010-01-01T01:46:30Z</time>
      </trkpt>
      <trkpt lat="44.23177" lon="6.16144">
        <ele>1451</ele>
        <time>2010-01-01T01:46:31Z</time>
      </trkpt>
      <trkpt lat="44.23174" lon="6.16146">
        <ele>1452</ele>
        <time>2010-01-01T01:46:32Z</time>
      </trkpt>
      <trkpt lat="44.2317" lon="6.16148">
        <ele>1452</ele>
        <time>2010-01-01T01:46:33Z</time>
      </trkpt>
      <trkpt lat="44.23168" lon="6.16151">
        <ele>1453</ele>
        <time>2010-01-01T01:46:34Z</time>
      </trkpt>
      <trkpt lat="44.23165" lon="6.16153">
        <ele>1453</ele>
        <time>2010-01-01T01:46:34Z</time>
      </trkpt>
      <trkpt lat="44.23163" lon="6.16157">
        <ele>1454</ele>
        <time>2010-01-01T01:46:35Z</time>
      </trkpt>
      <trkpt lat="44.2316" lon="6.16158">
        <ele>1454</ele>
        <time>2010-01-01T01:46:36Z</time>
      </trkpt>
      <trkpt lat="44.23157" lon="6.16161">
        <ele>1455</ele>
        <time>2010-01-01T01:46:37Z</time>
      </trkpt>
      <trkpt lat="44.23155" lon="6.16164">
        <ele>1455</ele>
        <time>2010-01-01T01:46:38Z</time>
      </trkpt>
      <trkpt lat="44.23153" lon="6.16166">
        <ele>1455</ele>
        <time>2010-01-01T01:46:39Z</time>
      </trkpt>
      <trkpt lat="44.2315" lon="6.16169">
        <ele>1456</ele>
        <time>2010-01-01T01:46:39Z</time>
      </trkpt>
      <trkpt lat="44.23148" lon="6.16171">
        <ele>1456</ele>
        <time>2010-01-01T01:46:40Z</time>
      </trkpt>
      <trkpt lat="44.23146" lon="6.16175">
        <ele>1457</ele>
        <time>2010-01-01T01:46:41Z</time>
      </trkpt>
      <trkpt lat="44.23144" lon="6.16178">
        <ele>1457</ele>
        <time>2010-01-01T01:46:42Z</time>
      </trkpt>
      <trkpt lat="44.23141" lon="6.16181">
        <ele>1457</ele>
        <time>2010-01-01T01:46:43Z</time>
      </trkpt>
      <trkpt lat="44.23139" lon="6.16184">
        <ele>1457</ele>
        <time>2010-01-01T01:46:44Z</time>
      </trkpt>
      <trkpt lat="44.23137" lon="6.16187">
        <ele>1458</ele>
        <time>2010-01-01T01:46:44Z</time>
      </trkpt>
      <trkpt lat="44.23135" lon="6.1619">
        <ele>1458</ele>
        <time>2010-01-01T01:46:45Z</time>
      </trkpt>
      <trkpt lat="44.23133" lon="6.16193">
        <ele>1458</ele>
        <time>2010-01-01T01:46:46Z</time>
      </trkpt>
      <trkpt lat="44.23131" lon="6.16197">
        <ele>1459</ele>
        <time>2010-01-01T01:46:47Z</time>
      </trkpt>
      <trkpt lat="44.23129" lon="6.16201">
        <ele>1459</ele>
        <time>2010-01-01T01:46:48Z</time>
      </trkpt>
      <trkpt lat="44.23127" lon="6.16204">
        <ele>1460</ele>
        <time>2010-01-01T01:46:49Z</time>
      </trkpt>
      <trkpt lat="44.23125" lon="6.16208">
        <ele>1460</ele>
        <time>2010-01-01T01:46:50Z</time>
      </trkpt>
      <trkpt lat="44.23124" lon="6.16212">
        <ele>1460</ele>
        <time>2010-01-01T01:46:50Z</time>
      </trkpt>
      <trkpt lat="44.23122" lon="6.16217">
        <ele>1460</ele>
        <time>2010-01-01T01:46:51Z</time>
      </trkpt>
      <trkpt lat="44.23121" lon="6.1622">
        <ele>1460</ele>
        <time>2010-01-01T01:46:52Z</time>
      </trkpt>
      <trkpt lat="44.23119" lon="6.16224">
        <ele>1460</ele>
        <time>2010-01-01T01:46:53Z</time>
      </trkpt>
      <trkpt lat="44.23118" lon="6.16227">
        <ele>1461</ele>
        <time>2010-01-01T01:46:54Z</time>
      </trkpt>
      <trkpt lat="44.23116" lon="6.16232">
        <ele>1461</ele>
        <time>2010-01-01T01:46:55Z</time>
      </trkpt>
      <trkpt lat="44.23114" lon="6.16235">
        <ele>1461</ele>
        <time>2010-01-01T01:46:56Z</time>
      </trkpt>
      <trkpt lat="44.23112" lon="6.16238">
        <ele>1461</ele>
        <time>2010-01-01T01:46:56Z</time>
      </trkpt>
      <trkpt lat="44.2311" lon="6.16242">
        <ele>1461</ele>
        <time>2010-01-01T01:46:57Z</time>
      </trkpt>
      <trkpt lat="44.23108" lon="6.16246">
        <ele>1462</ele>
        <time>2010-01-01T01:46:58Z</time>
      </trkpt>
      <trkpt lat="44.23106" lon="6.1625">
        <ele>1462</ele>
        <time>2010-01-01T01:46:59Z</time>
      </trkpt>
      <trkpt lat="44.23104" lon="6.16254">
        <ele>1463</ele>
        <time>2010-01-01T01:47:00Z</time>
      </trkpt>
      <trkpt lat="44.23103" lon="6.16257">
        <ele>1463</ele>
        <time>2010-01-01T01:47:01Z</time>
      </trkpt>
      <trkpt lat="44.23101" lon="6.1626">
        <ele>1463</ele>
        <time>2010-01-01T01:47:01Z</time>
      </trkpt>
      <trkpt lat="44.23099" lon="6.16264">
        <ele>1464</ele>
        <time>2010-01-01T01:47:02Z</time>
      </trkpt>
      <trkpt lat="44.23097" lon="6.16268">
        <ele>1465</ele>
        <time>2010-01-01T01:47:03Z</time>
      </trkpt>
      <trkpt lat="44.23096" lon="6.16273">
        <ele>1465</ele>
        <time>2010-01-01T01:47:04Z</time>
      </trkpt>
      <trkpt lat="44.23094" lon="6.16278">
        <ele>1465</ele>
        <time>2010-01-01T01:47:05Z</time>
      </trkpt>
      <trkpt lat="44.23093" lon="6.16281">
        <ele>1466</ele>
        <time>2010-01-01T01:47:06Z</time>
      </trkpt>
      <trkpt lat="44.23092" lon="6.16285">
        <ele>1466</ele>
        <time>2010-01-01T01:47:07Z</time>
      </trkpt>
      <trkpt lat="44.2309" lon="6.16288">
        <ele>1466</ele>
        <time>2010-01-01T01:47:08Z</time>
      </trkpt>
      <trkpt lat="44.23089" lon="6.16292">
        <ele>1467</ele>
        <time>2010-01-01T01:47:08Z</time>
      </trkpt>
      <trkpt lat="44.23087" lon="6.16297">
        <ele>1467</ele>
        <time>2010-01-01T01:47:09Z</time>
      </trkpt>
      <trkpt lat="44.23086" lon="6.163">
        <ele>1467</ele>
        <time>2010-01-01T01:47:10Z</time>
      </trkpt>
      <trkpt lat="44.23085" lon="6.16304">
        <ele>1468</ele>
        <time>2010-01-01T01:47:11Z</time>
      </trkpt>
      <trkpt lat="44.23083" lon="6.16309">
        <ele>1468</ele>
        <time>2010-01-01T01:47:12Z</time>
      </trkpt>
      <trkpt lat="44.23082" lon="6.16314">
        <ele>1468</ele>
        <time>2010-01-01T01:47:13Z</time>
      </trkpt>
      <trkpt lat="44.23082" lon="6.16318">
        <ele>1468</ele>
        <time>2010-01-01T01:47:14Z</time>
      </trkpt>
      <trkpt lat="44.23081" lon="6.16322">
        <ele>1468</ele>
        <time>2010-01-01T01:47:15Z</time>
      </trkpt>
      <trkpt lat="44.23079" lon="6.16326">
        <ele>1468</ele>
        <time>2010-01-01T01:47:15Z</time>
      </trkpt>
      <trkpt lat="44.23078" lon="6.1633">
        <ele>1468</ele>
        <time>2010-01-01T01:47:16Z</time>
      </trkpt>
      <trkpt lat="44.23077" lon="6.16335">
        <ele>1468</ele>
        <time>2010-01-01T01:47:17Z</time>
      </trkpt>
      <trkpt lat="44.23076" lon="6.16339">
        <ele>1469</ele>
        <time>2010-01-01T01:47:18Z</time>
      </trkpt>
      <trkpt lat="44.23074" lon="6.16342">
        <ele>1470</ele>
        <time>2010-01-01T01:47:19Z</time>
      </trkpt>
      <trkpt lat="44.23072" lon="6.16345">
        <ele>1470</ele>
        <time>2010-01-01T01:47:20Z</time>
      </trkpt>
      <trkpt lat="44.23071" lon="6.16349">
        <ele>1470</ele>
        <time>2010-01-01T01:47:20Z</time>
      </trkpt>
      <trkpt lat="44.23071" lon="6.16354">
        <ele>1470</ele>
        <time>2010-01-01T01:47:21Z</time>
      </trkpt>
      <trkpt lat="44.2307" lon="6.16358">
        <ele>1470</ele>
        <time>2010-01-01T01:47:22Z</time>
      </trkpt>
      <trkpt lat="44.23068" lon="6.16363">
        <ele>1471</ele>
        <time>2010-01-01T01:47:23Z</time>
      </trkpt>
      <trkpt lat="44.23066" lon="6.16367">
        <ele>1472</ele>
        <time>2010-01-01T01:47:24Z</time>
      </trkpt>
      <trkpt lat="44.23065" lon="6.16372">
        <ele>1472</ele>
        <time>2010-01-01T01:47:25Z</time>
      </trkpt>
      <trkpt lat="44.23063" lon="6.16377">
        <ele>1473</ele>
        <time>2010-01-01T01:47:26Z</time>
      </trkpt>
      <trkpt lat="44.23062" lon="6.1638">
        <ele>1474</ele>
        <time>2010-01-01T01:47:27Z</time>
      </trkpt>
      <trkpt lat="44.2306" lon="6.16383">
        <ele>1474</ele>
        <time>2010-01-01T01:47:28Z</time>
      </trkpt>
      <trkpt lat="44.23059" lon="6.16387">
        <ele>1475</ele>
        <time>2010-01-01T01:47:28Z</time>
      </trkpt>
      <trkpt lat="44.23058" lon="6.16392">
        <ele>1475</ele>
        <time>2010-01-01T01:47:29Z</time>
      </trkpt>
      <trkpt lat="44.23058" lon="6.16397">
        <ele>1475</ele>
        <time>2010-01-01T01:47:30Z</time>
      </trkpt>
      <trkpt lat="44.23057" lon="6.16401">
        <ele>1476</ele>
        <time>2010-01-01T01:47:31Z</time>
      </trkpt>
      <trkpt lat="44.23057" lon="6.16405">
        <ele>1476</ele>
        <time>2010-01-01T01:47:32Z</time>
      </trkpt>
      <trkpt lat="44.23058" lon="6.16409">
        <ele>1475</ele>
        <time>2010-01-01T01:47:33Z</time>
      </trkpt>
      <trkpt lat="44.23059" lon="6.16413">
        <ele>1475</ele>
        <time>2010-01-01T01:47:33Z</time>
      </trkpt>
      <trkpt lat="44.2306" lon="6.16418">
        <ele>1474</ele>
        <time>2010-01-01T01:47:35Z</time>
      </trkpt>
      <trkpt lat="44.23062" lon="6.16423">
        <ele>1473</ele>
        <time>2010-01-01T01:47:35Z</time>
      </trkpt>
      <trkpt lat="44.23062" lon="6.16428">
        <ele>1472</ele>
        <time>2010-01-01T01:47:37Z</time>
      </trkpt>
      <trkpt lat="44.23063" lon="6.16433">
        <ele>1472</ele>
        <time>2010-01-01T01:47:38Z</time>
      </trkpt>
      <trkpt lat="44.23063" lon="6.16437">
        <ele>1471</ele>
        <time>2010-01-01T01:47:38Z</time>
      </trkpt>
      <trkpt lat="44.23064" lon="6.16441">
        <ele>1471</ele>
        <time>2010-01-01T01:47:39Z</time>
      </trkpt>
      <trkpt lat="44.23065" lon="6.16445">
        <ele>1471</ele>
        <time>2010-01-01T01:47:40Z</time>
      </trkpt>
      <trkpt lat="44.23066" lon="6.16448">
        <ele>1470</ele>
        <time>2010-01-01T01:47:41Z</time>
      </trkpt>
      <trkpt lat="44.23066" lon="6.16452">
        <ele>1470</ele>
        <time>2010-01-01T01:47:41Z</time>
      </trkpt>
      <trkpt lat="44.23067" lon="6.16456">
        <ele>1470</ele>
        <time>2010-01-01T01:47:42Z</time>
      </trkpt>
      <trkpt lat="44.23067" lon="6.1646">
        <ele>1470</ele>
        <time>2010-01-01T01:47:43Z</time>
      </trkpt>
      <trkpt lat="44.23067" lon="6.16464">
        <ele>1469</ele>
        <time>2010-01-01T01:47:44Z</time>
      </trkpt>
      <trkpt lat="44.23067" lon="6.16469">
        <ele>1469</ele>
        <time>2010-01-01T01:47:45Z</time>
      </trkpt>
      <trkpt lat="44.23067" lon="6.16473">
        <ele>1469</ele>
        <time>2010-01-01T01:47:45Z</time>
      </trkpt>
      <trkpt lat="44.23067" lon="6.16477">
        <ele>1469</ele>
        <time>2010-01-01T01:47:46Z</time>
      </trkpt>
      <trkpt lat="44.23066" lon="6.16482">
        <ele>1470</ele>
        <time>2010-01-01T01:47:47Z</time>
      </trkpt>
      <trkpt lat="44.23065" lon="6.16486">
        <ele>1470</ele>
        <time>2010-01-01T01:47:48Z</time>
      </trkpt>
      <trkpt lat="44.23063" lon="6.16489">
        <ele>1471</ele>
        <time>2010-01-01T01:47:49Z</time>
      </trkpt>
      <trkpt lat="44.23062" lon="6.16493">
        <ele>1472</ele>
        <time>2010-01-01T01:47:49Z</time>
      </trkpt>
      <trkpt lat="44.23061" lon="6.16497">
        <ele>1472</ele>
        <time>2010-01-01T01:47:50Z</time>
      </trkpt>
      <trkpt lat="44.2306" lon="6.16501">
        <ele>1473</ele>
        <time>2010-01-01T01:47:51Z</time>
      </trkpt>
      <trkpt lat="44.23059" lon="6.16504">
        <ele>1473</ele>
        <time>2010-01-01T01:47:52Z</time>
      </trkpt>
      <trkpt lat="44.23058" lon="6.16509">
        <ele>1473</ele>
        <time>2010-01-01T01:47:53Z</time>
      </trkpt>
      <trkpt lat="44.23057" lon="6.16513">
        <ele>1473</ele>
        <time>2010-01-01T01:47:53Z</time>
      </trkpt>
      <trkpt lat="44.23056" lon="6.16517">
        <ele>1473</ele>
        <time>2010-01-01T01:47:54Z</time>
      </trkpt>
      <trkpt lat="44.23055" lon="6.1652">
        <ele>1473</ele>
        <time>2010-01-01T01:47:55Z</time>
      </trkpt>
      <trkpt lat="44.23054" lon="6.16524">
        <ele>1474</ele>
        <time>2010-01-01T01:47:56Z</time>
      </trkpt>
      <trkpt lat="44.23053" lon="6.16529">
        <ele>1474</ele>
        <time>2010-01-01T01:47:57Z</time>
      </trkpt>
      <trkpt lat="44.23051" lon="6.16534">
        <ele>1475</ele>
        <time>2010-01-01T01:47:58Z</time>
      </trkpt>
      <trkpt lat="44.2305" lon="6.16537">
        <ele>1475</ele>
        <time>2010-01-01T01:47:58Z</time>
      </trkpt>
      <trkpt lat="44.23048" lon="6.1654">
        <ele>1476</ele>
        <time>2010-01-01T01:47:59Z</time>
      </trkpt>
      <trkpt lat="44.23045" lon="6.16542">
        <ele>1477</ele>
        <time>2010-01-01T01:48:00Z</time>
      </trkpt>
      <trkpt lat="44.23043" lon="6.16546">
        <ele>1478</ele>
        <time>2010-01-01T01:48:01Z</time>
      </trkpt>
      <trkpt lat="44.2304" lon="6.1655">
        <ele>1479</ele>
        <time>2010-01-01T01:48:02Z</time>
      </trkpt>
      <trkpt lat="44.23037" lon="6.16553">
        <ele>1480</ele>
        <time>2010-01-01T01:48:03Z</time>
      </trkpt>
      <trkpt lat="44.23035" lon="6.16556">
        <ele>1480</ele>
        <time>2010-01-01T01:48:04Z</time>
      </trkpt>
      <trkpt lat="44.23033" lon="6.16559">
        <ele>1481</ele>
        <time>2010-01-01T01:48:05Z</time>
      </trkpt>
      <trkpt lat="44.23031" lon="6.16562">
        <ele>1481</ele>
        <time>2010-01-01T01:48:05Z</time>
      </trkpt>
      <trkpt lat="44.23028" lon="6.16565">
        <ele>1482</ele>
        <time>2010-01-01T01:48:06Z</time>
      </trkpt>
      <trkpt lat="44.23026" lon="6.16568">
        <ele>1482</ele>
        <time>2010-01-01T01:48:07Z</time>
      </trkpt>
      <trkpt lat="44.23024" lon="6.16571">
        <ele>1482</ele>
        <time>2010-01-01T01:48:08Z</time>
      </trkpt>
      <trkpt lat="44.23022" lon="6.16575">
        <ele>1482</ele>
        <time>2010-01-01T01:48:09Z</time>
      </trkpt>
      <trkpt lat="44.23019" lon="6.16579">
        <ele>1482</ele>
        <time>2010-01-01T01:48:10Z</time>
      </trkpt>
      <trkpt lat="44.23017" lon="6.16581">
        <ele>1483</ele>
        <time>2010-01-01T01:48:11Z</time>
      </trkpt>
      <trkpt lat="44.23014" lon="6.16584">
        <ele>1483</ele>
        <time>2010-01-01T01:48:12Z</time>
      </trkpt>
      <trkpt lat="44.23011" lon="6.16587">
        <ele>1484</ele>
        <time>2010-01-01T01:48:13Z</time>
      </trkpt>
      <trkpt lat="44.23008" lon="6.16589">
        <ele>1484</ele>
        <time>2010-01-01T01:48:13Z</time>
      </trkpt>
      <trkpt lat="44.23006" lon="6.16592">
        <ele>1485</ele>
        <time>2010-01-01T01:48:14Z</time>
      </trkpt>
      <trkpt lat="44.23003" lon="6.16594">
        <ele>1485</ele>
        <time>2010-01-01T01:48:15Z</time>
      </trkpt>
      <trkpt lat="44.23" lon="6.16595">
        <ele>1486</ele>
        <time>2010-01-01T01:48:16Z</time>
      </trkpt>
      <trkpt lat="44.22997" lon="6.16597">
        <ele>1487</ele>
        <time>2010-01-01T01:48:17Z</time>
      </trkpt>
      <trkpt lat="44.22994" lon="6.16599">
        <ele>1488</ele>
        <time>2010-01-01T01:48:18Z</time>
      </trkpt>
      <trkpt lat="44.22991" lon="6.166">
        <ele>1488</ele>
        <time>2010-01-01T01:48:19Z</time>
      </trkpt>
      <trkpt lat="44.22988" lon="6.16602">
        <ele>1489</ele>
        <time>2010-01-01T01:48:19Z</time>
      </trkpt>
      <trkpt lat="44.22985" lon="6.16604">
        <ele>1490</ele>
        <time>2010-01-01T01:48:20Z</time>
      </trkpt>
      <trkpt lat="44.22982" lon="6.16606">
        <ele>1490</ele>
        <time>2010-01-01T01:48:21Z</time>
      </trkpt>
      <trkpt lat="44.22979" lon="6.16608">
        <ele>1491</ele>
        <time>2010-01-01T01:48:22Z</time>
      </trkpt>
      <trkpt lat="44.22977" lon="6.1661">
        <ele>1492</ele>
        <time>2010-01-01T01:48:23Z</time>
      </trkpt>
      <trkpt lat="44.22974" lon="6.16612">
        <ele>1492</ele>
        <time>2010-01-01T01:48:24Z</time>
      </trkpt>
      <trkpt lat="44.22971" lon="6.16615">
        <ele>1494</ele>
        <time>2010-01-01T01:48:25Z</time>
      </trkpt>
      <trkpt lat="44.22968" lon="6.16617">
        <ele>1495</ele>
        <time>2010-01-01T01:48:25Z</time>
      </trkpt>
      <trkpt lat="44.22965" lon="6.1662">
        <ele>1496</ele>
        <time>2010-01-01T01:48:26Z</time>
      </trkpt>
      <trkpt lat="44.22963" lon="6.16622">
        <ele>1497</ele>
        <time>2010-01-01T01:48:27Z</time>
      </trkpt>
      <trkpt lat="44.2296" lon="6.16625">
        <ele>1498</ele>
        <time>2010-01-01T01:48:28Z</time>
      </trkpt>
      <trkpt lat="44.22956" lon="6.16627">
        <ele>1500</ele>
        <time>2010-01-01T01:48:29Z</time>
      </trkpt>
      <trkpt lat="44.22953" lon="6.16628">
        <ele>1501</ele>
        <time>2010-01-01T01:48:30Z</time>
      </trkpt>
      <trkpt lat="44.2295" lon="6.16629">
        <ele>1503</ele>
        <time>2010-01-01T01:48:31Z</time>
      </trkpt>
      <trkpt lat="44.22947" lon="6.16631">
        <ele>1505</ele>
        <time>2010-01-01T01:48:32Z</time>
      </trkpt>
      <trkpt lat="44.22945" lon="6.16633">
        <ele>1506</ele>
        <time>2010-01-01T01:48:32Z</time>
      </trkpt>
      <trkpt lat="44.22943" lon="6.16635">
        <ele>1507</ele>
        <time>2010-01-01T01:48:33Z</time>
      </trkpt>
      <trkpt lat="44.22941" lon="6.16638">
        <ele>1508</ele>
        <time>2010-01-01T01:48:34Z</time>
      </trkpt>
      <trkpt lat="44.22939" lon="6.1664">
        <ele>1509</ele>
        <time>2010-01-01T01:48:35Z</time>
      </trkpt>
      <trkpt lat="44.22937" lon="6.16643">
        <ele>1510</ele>
        <time>2010-01-01T01:48:35Z</time>
      </trkpt>
      <trkpt lat="44.22934" lon="6.16646">
        <ele>1511</ele>
        <time>2010-01-01T01:48:36Z</time>
      </trkpt>
      <trkpt lat="44.22932" lon="6.1665">
        <ele>1512</ele>
        <time>2010-01-01T01:48:37Z</time>
      </trkpt>
      <trkpt lat="44.2293" lon="6.16654">
        <ele>1512</ele>
        <time>2010-01-01T01:48:38Z</time>
      </trkpt>
      <trkpt lat="44.22929" lon="6.16659">
        <ele>1511</ele>
        <time>2010-01-01T01:48:39Z</time>
      </trkpt>
      <trkpt lat="44.2293" lon="6.16663">
        <ele>1510</ele>
        <time>2010-01-01T01:48:40Z</time>
      </trkpt>
      <trkpt lat="44.22931" lon="6.16667">
        <ele>1509</ele>
        <time>2010-01-01T01:48:41Z</time>
      </trkpt>
      <trkpt lat="44.22932" lon="6.16672">
        <ele>1508</ele>
        <time>2010-01-01T01:48:42Z</time>
      </trkpt>
      <trkpt lat="44.22934" lon="6.16676">
        <ele>1506</ele>
        <time>2010-01-01T01:48:43Z</time>
      </trkpt>
      <trkpt lat="44.22936" lon="6.16681">
        <ele>1504</ele>
        <time>2010-01-01T01:48:44Z</time>
      </trkpt>
      <trkpt lat="44.22939" lon="6.16685">
        <ele>1502</ele>
        <time>2010-01-01T01:48:45Z</time>
      </trkpt>
      <trkpt lat="44.22941" lon="6.1669">
        <ele>1500</ele>
        <time>2010-01-01T01:48:46Z</time>
      </trkpt>
      <trkpt lat="44.22945" lon="6.16694">
        <ele>1497</ele>
        <time>2010-01-01T01:48:47Z</time>
      </trkpt>
      <trkpt lat="44.22948" lon="6.16698">
        <ele>1496</ele>
        <time>2010-01-01T01:48:48Z</time>
      </trkpt>
      <trkpt lat="44.22951" lon="6.16701">
        <ele>1495</ele>
        <time>2010-01-01T01:48:49Z</time>
      </trkpt>
      <trkpt lat="44.22953" lon="6.16706">
        <ele>1494</ele>
        <time>2010-01-01T01:48:50Z</time>
      </trkpt>
      <trkpt lat="44.22955" lon="6.1671">
        <ele>1494</ele>
        <time>2010-01-01T01:48:51Z</time>
      </trkpt>
      <trkpt lat="44.22958" lon="6.16714">
        <ele>1493</ele>
        <time>2010-01-01T01:48:52Z</time>
      </trkpt>
      <trkpt lat="44.2296" lon="6.16718">
        <ele>1492</ele>
        <time>2010-01-01T01:48:53Z</time>
      </trkpt>
      <trkpt lat="44.22961" lon="6.16723">
        <ele>1492</ele>
        <time>2010-01-01T01:48:54Z</time>
      </trkpt>
      <trkpt lat="44.22962" lon="6.16727">
        <ele>1493</ele>
        <time>2010-01-01T01:48:55Z</time>
      </trkpt>
      <trkpt lat="44.22963" lon="6.16732">
        <ele>1494</ele>
        <time>2010-01-01T01:48:56Z</time>
      </trkpt>
      <trkpt lat="44.22964" lon="6.16737">
        <ele>1494</ele>
        <time>2010-01-01T01:48:57Z</time>
      </trkpt>
      <trkpt lat="44.22966" lon="6.16741">
        <ele>1495</ele>
        <time>2010-01-01T01:48:58Z</time>
      </trkpt>
      <trkpt lat="44.22967" lon="6.16745">
        <ele>1495</ele>
        <time>2010-01-01T01:48:59Z</time>
      </trkpt>
      <trkpt lat="44.22968" lon="6.1675">
        <ele>1496</ele>
        <time>2010-01-01T01:49:00Z</time>
      </trkpt>
      <trkpt lat="44.22969" lon="6.16754">
        <ele>1496</ele>
        <time>2010-01-01T01:49:01Z</time>
      </trkpt>
      <trkpt lat="44.2297" lon="6.16758">
        <ele>1496</ele>
        <time>2010-01-01T01:49:02Z</time>
      </trkpt>
      <trkpt lat="44.22972" lon="6.16762">
        <ele>1496</ele>
        <time>2010-01-01T01:49:02Z</time>
      </trkpt>
      <trkpt lat="44.22974" lon="6.16766">
        <ele>1496</ele>
        <time>2010-01-01T01:49:03Z</time>
      </trkpt>
      <trkpt lat="44.22977" lon="6.16769">
        <ele>1495</ele>
        <time>2010-01-01T01:49:04Z</time>
      </trkpt>
      <trkpt lat="44.22979" lon="6.16772">
        <ele>1495</ele>
        <time>2010-01-01T01:49:05Z</time>
      </trkpt>
      <trkpt lat="44.2298" lon="6.16776">
        <ele>1495</ele>
        <time>2010-01-01T01:49:06Z</time>
      </trkpt>
      <trkpt lat="44.22982" lon="6.1678">
        <ele>1495</ele>
        <time>2010-01-01T01:49:07Z</time>
      </trkpt>
      <trkpt lat="44.22984" lon="6.16784">
        <ele>1495</ele>
        <time>2010-01-01T01:49:08Z</time>
      </trkpt>
      <trkpt lat="44.22985" lon="6.16789">
        <ele>1495</ele>
        <time>2010-01-01T01:49:09Z</time>
      </trkpt>
      <trkpt lat="44.22986" lon="6.16794">
        <ele>1496</ele>
        <time>2010-01-01T01:49:10Z</time>
      </trkpt>
      <trkpt lat="44.22987" lon="6.168">
        <ele>1497</ele>
        <time>2010-01-01T01:49:11Z</time>
      </trkpt>
      <trkpt lat="44.22987" lon="6.16805">
        <ele>1498</ele>
        <time>2010-01-01T01:49:12Z</time>
      </trkpt>
      <trkpt lat="44.22988" lon="6.16811">
        <ele>1498</ele>
        <time>2010-01-01T01:49:13Z</time>
      </trkpt>
      <trkpt lat="44.22988" lon="6.16816">
        <ele>1500</ele>
        <time>2010-01-01T01:49:14Z</time>
      </trkpt>
      <trkpt lat="44.22988" lon="6.16822">
        <ele>1502</ele>
        <time>2010-01-01T01:49:15Z</time>
      </trkpt>
      <trkpt lat="44.22987" lon="6.16828">
        <ele>1504</ele>
        <time>2010-01-01T01:49:16Z</time>
      </trkpt>
      <trkpt lat="44.22986" lon="6.16834">
        <ele>1505</ele>
        <time>2010-01-01T01:49:17Z</time>
      </trkpt>
      <trkpt lat="44.22985" lon="6.1684">
        <ele>1507</ele>
        <time>2010-01-01T01:49:19Z</time>
      </trkpt>
      <trkpt lat="44.22984" lon="6.16845">
        <ele>1508</ele>
        <time>2010-01-01T01:49:20Z</time>
      </trkpt>
      <trkpt lat="44.22984" lon="6.1685">
        <ele>1509</ele>
        <time>2010-01-01T01:49:21Z</time>
      </trkpt>
      <trkpt lat="44.22984" lon="6.16855">
        <ele>1510</ele>
        <time>2010-01-01T01:49:22Z</time>
      </trkpt>
      <trkpt lat="44.22984" lon="6.16861">
        <ele>1510</ele>
        <time>2010-01-01T01:49:23Z</time>
      </trkpt>
      <trkpt lat="44.22984" lon="6.16867">
        <ele>1511</ele>
        <time>2010-01-01T01:49:24Z</time>
      </trkpt>
      <trkpt lat="44.22983" lon="6.16873">
        <ele>1512</ele>
        <time>2010-01-01T01:49:25Z</time>
      </trkpt>
      <trkpt lat="44.22982" lon="6.16878">
        <ele>1512</ele>
        <time>2010-01-01T01:49:26Z</time>
      </trkpt>
      <trkpt lat="44.22982" lon="6.16884">
        <ele>1512</ele>
        <time>2010-01-01T01:49:27Z</time>
      </trkpt>
      <trkpt lat="44.22981" lon="6.16889">
        <ele>1513</ele>
        <time>2010-01-01T01:49:28Z</time>
      </trkpt>
      <trkpt lat="44.22981" lon="6.16894">
        <ele>1514</ele>
        <time>2010-01-01T01:49:29Z</time>
      </trkpt>
      <trkpt lat="44.2298" lon="6.16899">
        <ele>1514</ele>
        <time>2010-01-01T01:49:30Z</time>
      </trkpt>
      <trkpt lat="44.22979" lon="6.16905">
        <ele>1514</ele>
        <time>2010-01-01T01:49:31Z</time>
      </trkpt>
      <trkpt lat="44.2298" lon="6.16911">
        <ele>1514</ele>
        <time>2010-01-01T01:49:32Z</time>
      </trkpt>
      <trkpt lat="44.2298" lon="6.16916">
        <ele>1514</ele>
        <time>2010-01-01T01:49:33Z</time>
      </trkpt>
      <trkpt lat="44.22981" lon="6.16921">
        <ele>1514</ele>
        <time>2010-01-01T01:49:34Z</time>
      </trkpt>
      <trkpt lat="44.22981" lon="6.16927">
        <ele>1514</ele>
        <time>2010-01-01T01:49:35Z</time>
      </trkpt>
      <trkpt lat="44.22981" lon="6.16932">
        <ele>1514</ele>
        <time>2010-01-01T01:49:36Z</time>
      </trkpt>
      <trkpt lat="44.22979" lon="6.16938">
        <ele>1515</ele>
        <time>2010-01-01T01:49:38Z</time>
      </trkpt>
      <trkpt lat="44.22978" lon="6.16943">
        <ele>1515</ele>
        <time>2010-01-01T01:49:39Z</time>
      </trkpt>
      <trkpt lat="44.22977" lon="6.16948">
        <ele>1515</ele>
        <time>2010-01-01T01:49:40Z</time>
      </trkpt>
      <trkpt lat="44.22976" lon="6.16954">
        <ele>1515</ele>
        <time>2010-01-01T01:49:41Z</time>
      </trkpt>
      <trkpt lat="44.22975" lon="6.16959">
        <ele>1515</ele>
        <time>2010-01-01T01:49:42Z</time>
      </trkpt>
      <trkpt lat="44.22972" lon="6.16965">
        <ele>1516</ele>
        <time>2010-01-01T01:49:43Z</time>
      </trkpt>
      <trkpt lat="44.22969" lon="6.1697">
        <ele>1518</ele>
        <time>2010-01-01T01:49:44Z</time>
      </trkpt>
      <trkpt lat="44.22965" lon="6.16976">
        <ele>1520</ele>
        <time>2010-01-01T01:49:46Z</time>
      </trkpt>
      <trkpt lat="44.22963" lon="6.1698">
        <ele>1521</ele>
        <time>2010-01-01T01:49:47Z</time>
      </trkpt>
      <trkpt lat="44.2296" lon="6.16985">
        <ele>1522</ele>
        <time>2010-01-01T01:49:48Z</time>
      </trkpt>
      <trkpt lat="44.22957" lon="6.16989">
        <ele>1524</ele>
        <time>2010-01-01T01:49:49Z</time>
      </trkpt>
      <trkpt lat="44.22955" lon="6.16993">
        <ele>1524</ele>
        <time>2010-01-01T01:49:50Z</time>
      </trkpt>
      <trkpt lat="44.22953" lon="6.16998">
        <ele>1525</ele>
        <time>2010-01-01T01:49:51Z</time>
      </trkpt>
      <trkpt lat="44.22951" lon="6.17003">
        <ele>1525</ele>
        <time>2010-01-01T01:49:52Z</time>
      </trkpt>
      <trkpt lat="44.22949" lon="6.17007">
        <ele>1525</ele>
        <time>2010-01-01T01:49:53Z</time>
      </trkpt>
      <trkpt lat="44.22947" lon="6.17011">
        <ele>1525</ele>
        <time>2010-01-01T01:49:54Z</time>
      </trkpt>
      <trkpt lat="44.22944" lon="6.17016">
        <ele>1526</ele>
        <time>2010-01-01T01:49:55Z</time>
      </trkpt>
      <trkpt lat="44.22942" lon="6.1702">
        <ele>1526</ele>
        <time>2010-01-01T01:49:56Z</time>
      </trkpt>
      <trkpt lat="44.22939" lon="6.17023">
        <ele>1526</ele>
        <time>2010-01-01T01:49:57Z</time>
      </trkpt>
      <trkpt lat="44.22936" lon="6.17028">
        <ele>1527</ele>
        <time>2010-01-01T01:49:59Z</time>
      </trkpt>
      <trkpt lat="44.22934" lon="6.17031">
        <ele>1527</ele>
        <time>2010-01-01T01:50:00Z</time>
      </trkpt>
      <trkpt lat="44.22931" lon="6.17035">
        <ele>1528</ele>
        <time>2010-01-01T01:50:00Z</time>
      </trkpt>
      <trkpt lat="44.22928" lon="6.17038">
        <ele>1528</ele>
        <time>2010-01-01T01:50:01Z</time>
      </trkpt>
      <trkpt lat="44.22924" lon="6.1704">
        <ele>1529</ele>
        <time>2010-01-01T01:50:03Z</time>
      </trkpt>
      <trkpt lat="44.2292" lon="6.17043">
        <ele>1530</ele>
        <time>2010-01-01T01:50:04Z</time>
      </trkpt>
      <trkpt lat="44.22916" lon="6.17046">
        <ele>1531</ele>
        <time>2010-01-01T01:50:05Z</time>
      </trkpt>
      <trkpt lat="44.22912" lon="6.17048">
        <ele>1531</ele>
        <time>2010-01-01T01:50:06Z</time>
      </trkpt>
      <trkpt lat="44.22909" lon="6.1705">
        <ele>1532</ele>
        <time>2010-01-01T01:50:07Z</time>
      </trkpt>
      <trkpt lat="44.22905" lon="6.17052">
        <ele>1533</ele>
        <time>2010-01-01T01:50:08Z</time>
      </trkpt>
      <trkpt lat="44.22902" lon="6.17055">
        <ele>1533</ele>
        <time>2010-01-01T01:50:09Z</time>
      </trkpt>
      <trkpt lat="44.22898" lon="6.17057">
        <ele>1534</ele>
        <time>2010-01-01T01:50:10Z</time>
      </trkpt>
      <trkpt lat="44.22894" lon="6.17061">
        <ele>1535</ele>
        <time>2010-01-01T01:50:12Z</time>
      </trkpt>
      <trkpt lat="44.2289" lon="6.17064">
        <ele>1536</ele>
        <time>2010-01-01T01:50:13Z</time>
      </trkpt>
      <trkpt lat="44.22886" lon="6.17067">
        <ele>1538</ele>
        <time>2010-01-01T01:50:14Z</time>
      </trkpt>
      <trkpt lat="44.22884" lon="6.17069">
        <ele>1538</ele>
        <time>2010-01-01T01:50:15Z</time>
      </trkpt>
      <trkpt lat="44.2288" lon="6.17072">
        <ele>1539</ele>
        <time>2010-01-01T01:50:16Z</time>
      </trkpt>
      <trkpt lat="44.22875" lon="6.17075">
        <ele>1541</ele>
        <time>2010-01-01T01:50:17Z</time>
      </trkpt>
      <trkpt lat="44.22873" lon="6.17077">
        <ele>1541</ele>
        <time>2010-01-01T01:50:18Z</time>
      </trkpt>
      <trkpt lat="44.22871" lon="6.1708">
        <ele>1542</ele>
        <time>2010-01-01T01:50:19Z</time>
      </trkpt>
      <trkpt lat="44.2287" lon="6.17085">
        <ele>1542</ele>
        <time>2010-01-01T01:50:20Z</time>
      </trkpt>
      <trkpt lat="44.22871" lon="6.17091">
        <ele>1541</ele>
        <time>2010-01-01T01:50:21Z</time>
      </trkpt>
      <trkpt lat="44.22872" lon="6.17097">
        <ele>1539</ele>
        <time>2010-01-01T01:50:22Z</time>
      </trkpt>
      <trkpt lat="44.22874" lon="6.17102">
        <ele>1538</ele>
        <time>2010-01-01T01:50:23Z</time>
      </trkpt>
      <trkpt lat="44.22876" lon="6.17106">
        <ele>1537</ele>
        <time>2010-01-01T01:50:24Z</time>
      </trkpt>
      <trkpt lat="44.22879" lon="6.1711">
        <ele>1535</ele>
        <time>2010-01-01T01:50:25Z</time>
      </trkpt>
      <trkpt lat="44.22881" lon="6.17115">
        <ele>1534</ele>
        <time>2010-01-01T01:50:26Z</time>
      </trkpt>
      <trkpt lat="44.22882" lon="6.1712">
        <ele>1534</ele>
        <time>2010-01-01T01:50:27Z</time>
      </trkpt>
      <trkpt lat="44.22882" lon="6.17124">
        <ele>1534</ele>
        <time>2010-01-01T01:50:28Z</time>
      </trkpt>
      <trkpt lat="44.22882" lon="6.17129">
        <ele>1533</ele>
        <time>2010-01-01T01:50:29Z</time>
      </trkpt>
      <trkpt lat="44.22884" lon="6.17134">
        <ele>1533</ele>
        <time>2010-01-01T01:50:30Z</time>
      </trkpt>
      <trkpt lat="44.22886" lon="6.17139">
        <ele>1532</ele>
        <time>2010-01-01T01:50:31Z</time>
      </trkpt>
      <trkpt lat="44.22887" lon="6.17145">
        <ele>1532</ele>
        <time>2010-01-01T01:50:32Z</time>
      </trkpt>
      <trkpt lat="44.22888" lon="6.17152">
        <ele>1532</ele>
        <time>2010-01-01T01:50:34Z</time>
      </trkpt>
      <trkpt lat="44.22889" lon="6.17157">
        <ele>1532</ele>
        <time>2010-01-01T01:50:35Z</time>
      </trkpt>
      <trkpt lat="44.22891" lon="6.17163">
        <ele>1532</ele>
        <time>2010-01-01T01:50:36Z</time>
      </trkpt>
      <trkpt lat="44.22892" lon="6.17169">
        <ele>1531</ele>
        <time>2010-01-01T01:50:37Z</time>
      </trkpt>
      <trkpt lat="44.22893" lon="6.17175">
        <ele>1532</ele>
        <time>2010-01-01T01:50:38Z</time>
      </trkpt>
      <trkpt lat="44.22895" lon="6.1718">
        <ele>1532</ele>
        <time>2010-01-01T01:50:39Z</time>
      </trkpt>
      <trkpt lat="44.22895" lon="6.17185">
        <ele>1532</ele>
        <time>2010-01-01T01:50:40Z</time>
      </trkpt>
      <trkpt lat="44.22895" lon="6.1719">
        <ele>1533</ele>
        <time>2010-01-01T01:50:41Z</time>
      </trkpt>
      <trkpt lat="44.22893" lon="6.17196">
        <ele>1534</ele>
        <time>2010-01-01T01:50:42Z</time>
      </trkpt>
      <trkpt lat="44.22891" lon="6.17201">
        <ele>1535</ele>
        <time>2010-01-01T01:50:44Z</time>
      </trkpt>
      <trkpt lat="44.2289" lon="6.17206">
        <ele>1536</ele>
        <time>2010-01-01T01:50:45Z</time>
      </trkpt>
      <trkpt lat="44.22888" lon="6.1721">
        <ele>1537</ele>
        <time>2010-01-01T01:50:45Z</time>
      </trkpt>
      <trkpt lat="44.22887" lon="6.17215">
        <ele>1538</ele>
        <time>2010-01-01T01:50:47Z</time>
      </trkpt>
      <trkpt lat="44.22885" lon="6.1722">
        <ele>1539</ele>
        <time>2010-01-01T01:50:48Z</time>
      </trkpt>
      <trkpt lat="44.22885" lon="6.17225">
        <ele>1540</ele>
        <time>2010-01-01T01:50:48Z</time>
      </trkpt>
      <trkpt lat="44.22883" lon="6.1723">
        <ele>1541</ele>
        <time>2010-01-01T01:50:49Z</time>
      </trkpt>
      <trkpt lat="44.22882" lon="6.17234">
        <ele>1541</ele>
        <time>2010-01-01T01:50:50Z</time>
      </trkpt>
      <trkpt lat="44.2288" lon="6.17238">
        <ele>1543</ele>
        <time>2010-01-01T01:50:51Z</time>
      </trkpt>
      <trkpt lat="44.22878" lon="6.17242">
        <ele>1544</ele>
        <time>2010-01-01T01:50:52Z</time>
      </trkpt>
      <trkpt lat="44.22876" lon="6.17247">
        <ele>1545</ele>
        <time>2010-01-01T01:50:53Z</time>
      </trkpt>
      <trkpt lat="44.22875" lon="6.17251">
        <ele>1546</ele>
        <time>2010-01-01T01:50:54Z</time>
      </trkpt>
      <trkpt lat="44.22873" lon="6.17255">
        <ele>1547</ele>
        <time>2010-01-01T01:50:55Z</time>
      </trkpt>
      <trkpt lat="44.22872" lon="6.1726">
        <ele>1548</ele>
        <time>2010-01-01T01:50:56Z</time>
      </trkpt>
      <trkpt lat="44.22871" lon="6.17265">
        <ele>1549</ele>
        <time>2010-01-01T01:50:57Z</time>
      </trkpt>
      <trkpt lat="44.22869" lon="6.1727">
        <ele>1549</ele>
        <time>2010-01-01T01:50:58Z</time>
      </trkpt>
      <trkpt lat="44.22868" lon="6.17274">
        <ele>1550</ele>
        <time>2010-01-01T01:50:59Z</time>
      </trkpt>
      <trkpt lat="44.22867" lon="6.17278">
        <ele>1551</ele>
        <time>2010-01-01T01:51:00Z</time>
      </trkpt>
      <trkpt lat="44.22867" lon="6.17283">
        <ele>1551</ele>
        <time>2010-01-01T01:51:01Z</time>
      </trkpt>
      <trkpt lat="44.22866" lon="6.17287">
        <ele>1551</ele>
        <time>2010-01-01T01:51:01Z</time>
      </trkpt>
      <trkpt lat="44.22865" lon="6.17292">
        <ele>1552</ele>
        <time>2010-01-01T01:51:02Z</time>
      </trkpt>
      <trkpt lat="44.22863" lon="6.17296">
        <ele>1553</ele>
        <time>2010-01-01T01:51:03Z</time>
      </trkpt>
      <trkpt lat="44.22861" lon="6.173">
        <ele>1553</ele>
        <time>2010-01-01T01:51:04Z</time>
      </trkpt>
      <trkpt lat="44.2286" lon="6.17305">
        <ele>1554</ele>
        <time>2010-01-01T01:51:05Z</time>
      </trkpt>
      <trkpt lat="44.22859" lon="6.17309">
        <ele>1554</ele>
        <time>2010-01-01T01:51:06Z</time>
      </trkpt>
      <trkpt lat="44.22859" lon="6.17314">
        <ele>1554</ele>
        <time>2010-01-01T01:51:07Z</time>
      </trkpt>
      <trkpt lat="44.22858" lon="6.17318">
        <ele>1554</ele>
        <time>2010-01-01T01:51:08Z</time>
      </trkpt>
      <trkpt lat="44.22858" lon="6.17322">
        <ele>1553</ele>
        <time>2010-01-01T01:51:09Z</time>
      </trkpt>
      <trkpt lat="44.22858" lon="6.17327">
        <ele>1553</ele>
        <time>2010-01-01T01:51:09Z</time>
      </trkpt>
      <trkpt lat="44.22859" lon="6.17331">
        <ele>1552</ele>
        <time>2010-01-01T01:51:10Z</time>
      </trkpt>
      <trkpt lat="44.22859" lon="6.17336">
        <ele>1552</ele>
        <time>2010-01-01T01:51:11Z</time>
      </trkpt>
      <trkpt lat="44.22858" lon="6.1734">
        <ele>1551</ele>
        <time>2010-01-01T01:51:12Z</time>
      </trkpt>
      <trkpt lat="44.22857" lon="6.17345">
        <ele>1551</ele>
        <time>2010-01-01T01:51:13Z</time>
      </trkpt>
      <trkpt lat="44.22858" lon="6.17349">
        <ele>1551</ele>
        <time>2010-01-01T01:51:14Z</time>
      </trkpt>
      <trkpt lat="44.22858" lon="6.17353">
        <ele>1550</ele>
        <time>2010-01-01T01:51:15Z</time>
      </trkpt>
      <trkpt lat="44.22858" lon="6.17357">
        <ele>1549</ele>
        <time>2010-01-01T01:51:15Z</time>
      </trkpt>
      <trkpt lat="44.22859" lon="6.17361">
        <ele>1549</ele>
        <time>2010-01-01T01:51:16Z</time>
      </trkpt>
      <trkpt lat="44.22859" lon="6.17366">
        <ele>1548</ele>
        <time>2010-01-01T01:51:17Z</time>
      </trkpt>
      <trkpt lat="44.22859" lon="6.1737">
        <ele>1548</ele>
        <time>2010-01-01T01:51:18Z</time>
      </trkpt>
      <trkpt lat="44.22859" lon="6.17375">
        <ele>1548</ele>
        <time>2010-01-01T01:51:19Z</time>
      </trkpt>
      <trkpt lat="44.22858" lon="6.17379">
        <ele>1548</ele>
        <time>2010-01-01T01:51:20Z</time>
      </trkpt>
      <trkpt lat="44.22858" lon="6.17384">
        <ele>1548</ele>
        <time>2010-01-01T01:51:21Z</time>
      </trkpt>
      <trkpt lat="44.22858" lon="6.17388">
        <ele>1548</ele>
        <time>2010-01-01T01:51:21Z</time>
      </trkpt>
      <trkpt lat="44.22857" lon="6.17392">
        <ele>1548</ele>
        <time>2010-01-01T01:51:22Z</time>
      </trkpt>
      <trkpt lat="44.22856" lon="6.17397">
        <ele>1548</ele>
        <time>2010-01-01T01:51:23Z</time>
      </trkpt>
      <trkpt lat="44.22855" lon="6.174">
        <ele>1548</ele>
        <time>2010-01-01T01:51:24Z</time>
      </trkpt>
      <trkpt lat="44.22855" lon="6.17404">
        <ele>1549</ele>
        <time>2010-01-01T01:51:25Z</time>
      </trkpt>
      <trkpt lat="44.22854" lon="6.1741">
        <ele>1549</ele>
        <time>2010-01-01T01:51:26Z</time>
      </trkpt>
      <trkpt lat="44.22853" lon="6.17414">
        <ele>1549</ele>
        <time>2010-01-01T01:51:26Z</time>
      </trkpt>
      <trkpt lat="44.22852" lon="6.17418">
        <ele>1550</ele>
        <time>2010-01-01T01:51:27Z</time>
      </trkpt>
      <trkpt lat="44.22852" lon="6.17422">
        <ele>1550</ele>
        <time>2010-01-01T01:51:28Z</time>
      </trkpt>
      <trkpt lat="44.22851" lon="6.17427">
        <ele>1550</ele>
        <time>2010-01-01T01:51:29Z</time>
      </trkpt>
      <trkpt lat="44.2285" lon="6.17431">
        <ele>1551</ele>
        <time>2010-01-01T01:51:30Z</time>
      </trkpt>
      <trkpt lat="44.22849" lon="6.17435">
        <ele>1551</ele>
        <time>2010-01-01T01:51:31Z</time>
      </trkpt>
      <trkpt lat="44.22849" lon="6.17439">
        <ele>1552</ele>
        <time>2010-01-01T01:51:31Z</time>
      </trkpt>
      <trkpt lat="44.22847" lon="6.17444">
        <ele>1552</ele>
        <time>2010-01-01T01:51:32Z</time>
      </trkpt>
      <trkpt lat="44.22846" lon="6.17449">
        <ele>1553</ele>
        <time>2010-01-01T01:51:33Z</time>
      </trkpt>
      <trkpt lat="44.22845" lon="6.17453">
        <ele>1554</ele>
        <time>2010-01-01T01:51:34Z</time>
      </trkpt>
      <trkpt lat="44.22844" lon="6.17458">
        <ele>1554</ele>
        <time>2010-01-01T01:51:35Z</time>
      </trkpt>
      <trkpt lat="44.22843" lon="6.17462">
        <ele>1555</ele>
        <time>2010-01-01T01:51:36Z</time>
      </trkpt>
      <trkpt lat="44.22841" lon="6.17466">
        <ele>1555</ele>
        <time>2010-01-01T01:51:37Z</time>
      </trkpt>
      <trkpt lat="44.2284" lon="6.17469">
        <ele>1556</ele>
        <time>2010-01-01T01:51:38Z</time>
      </trkpt>
      <trkpt lat="44.22839" lon="6.17473">
        <ele>1556</ele>
        <time>2010-01-01T01:51:38Z</time>
      </trkpt>
      <trkpt lat="44.22838" lon="6.17478">
        <ele>1557</ele>
        <time>2010-01-01T01:51:39Z</time>
      </trkpt>
      <trkpt lat="44.22838" lon="6.17484">
        <ele>1556</ele>
        <time>2010-01-01T01:51:40Z</time>
      </trkpt>
      <trkpt lat="44.22837" lon="6.17487">
        <ele>1556</ele>
        <time>2010-01-01T01:51:41Z</time>
      </trkpt>
      <trkpt lat="44.22836" lon="6.17491">
        <ele>1557</ele>
        <time>2010-01-01T01:51:42Z</time>
      </trkpt>
      <trkpt lat="44.22835" lon="6.17496">
        <ele>1557</ele>
        <time>2010-01-01T01:51:43Z</time>
      </trkpt>
      <trkpt lat="44.22834" lon="6.17499">
        <ele>1557</ele>
        <time>2010-01-01T01:51:44Z</time>
      </trkpt>
      <trkpt lat="44.22832" lon="6.17504">
        <ele>1558</ele>
        <time>2010-01-01T01:51:45Z</time>
      </trkpt>
      <trkpt lat="44.22831" lon="6.17508">
        <ele>1559</ele>
        <time>2010-01-01T01:51:45Z</time>
      </trkpt>
      <trkpt lat="44.2283" lon="6.17512">
        <ele>1559</ele>
        <time>2010-01-01T01:51:46Z</time>
      </trkpt>
      <trkpt lat="44.22828" lon="6.17516">
        <ele>1560</ele>
        <time>2010-01-01T01:51:47Z</time>
      </trkpt>
      <trkpt lat="44.22827" lon="6.1752">
        <ele>1560</ele>
        <time>2010-01-01T01:51:48Z</time>
      </trkpt>
      <trkpt lat="44.22826" lon="6.17524">
        <ele>1561</ele>
        <time>2010-01-01T01:51:49Z</time>
      </trkpt>
      <trkpt lat="44.22825" lon="6.17528">
        <ele>1561</ele>
        <time>2010-01-01T01:51:50Z</time>
      </trkpt>
      <trkpt lat="44.22824" lon="6.17532">
        <ele>1561</ele>
        <time>2010-01-01T01:51:51Z</time>
      </trkpt>
      <trkpt lat="44.22823" lon="6.17536">
        <ele>1562</ele>
        <time>2010-01-01T01:51:51Z</time>
      </trkpt>
      <trkpt lat="44.22823" lon="6.1754">
        <ele>1562</ele>
        <time>2010-01-01T01:51:52Z</time>
      </trkpt>
      <trkpt lat="44.22822" lon="6.17544">
        <ele>1562</ele>
        <time>2010-01-01T01:51:53Z</time>
      </trkpt>
      <trkpt lat="44.22821" lon="6.17549">
        <ele>1562</ele>
        <time>2010-01-01T01:51:54Z</time>
      </trkpt>
      <trkpt lat="44.2282" lon="6.17554">
        <ele>1563</ele>
        <time>2010-01-01T01:51:55Z</time>
      </trkpt>
      <trkpt lat="44.22818" lon="6.17559">
        <ele>1564</ele>
        <time>2010-01-01T01:51:56Z</time>
      </trkpt>
      <trkpt lat="44.22817" lon="6.17563">
        <ele>1564</ele>
        <time>2010-01-01T01:51:57Z</time>
      </trkpt>
      <trkpt lat="44.22816" lon="6.17566">
        <ele>1565</ele>
        <time>2010-01-01T01:51:57Z</time>
      </trkpt>
      <trkpt lat="44.22816" lon="6.17572">
        <ele>1565</ele>
        <time>2010-01-01T01:51:58Z</time>
      </trkpt>
      <trkpt lat="44.22816" lon="6.17577">
        <ele>1565</ele>
        <time>2010-01-01T01:52:00Z</time>
      </trkpt>
      <trkpt lat="44.22814" lon="6.17581">
        <ele>1566</ele>
        <time>2010-01-01T01:52:00Z</time>
      </trkpt>
      <trkpt lat="44.22813" lon="6.17585">
        <ele>1567</ele>
        <time>2010-01-01T01:52:01Z</time>
      </trkpt>
      <trkpt lat="44.22811" lon="6.1759">
        <ele>1567</ele>
        <time>2010-01-01T01:52:02Z</time>
      </trkpt>
      <trkpt lat="44.22809" lon="6.17594">
        <ele>1568</ele>
        <time>2010-01-01T01:52:03Z</time>
      </trkpt>
      <trkpt lat="44.22807" lon="6.17598">
        <ele>1568</ele>
        <time>2010-01-01T01:52:04Z</time>
      </trkpt>
      <trkpt lat="44.22806" lon="6.17602">
        <ele>1569</ele>
        <time>2010-01-01T01:52:05Z</time>
      </trkpt>
      <trkpt lat="44.22804" lon="6.17606">
        <ele>1569</ele>
        <time>2010-01-01T01:52:06Z</time>
      </trkpt>
      <trkpt lat="44.22802" lon="6.1761">
        <ele>1570</ele>
        <time>2010-01-01T01:52:07Z</time>
      </trkpt>
      <trkpt lat="44.228" lon="6.17614">
        <ele>1570</ele>
        <time>2010-01-01T01:52:08Z</time>
      </trkpt>
      <trkpt lat="44.22797" lon="6.17617">
        <ele>1571</ele>
        <time>2010-01-01T01:52:09Z</time>
      </trkpt>
      <trkpt lat="44.22794" lon="6.1762">
        <ele>1571</ele>
        <time>2010-01-01T01:52:10Z</time>
      </trkpt>
      <trkpt lat="44.22791" lon="6.17623">
        <ele>1572</ele>
        <time>2010-01-01T01:52:11Z</time>
      </trkpt>
      <trkpt lat="44.22789" lon="6.17626">
        <ele>1572</ele>
        <time>2010-01-01T01:52:11Z</time>
      </trkpt>
      <trkpt lat="44.22788" lon="6.17629">
        <ele>1573</ele>
        <time>2010-01-01T01:52:12Z</time>
      </trkpt>
      <trkpt lat="44.22786" lon="6.17633">
        <ele>1573</ele>
        <time>2010-01-01T01:52:13Z</time>
      </trkpt>
      <trkpt lat="44.22785" lon="6.17637">
        <ele>1573</ele>
        <time>2010-01-01T01:52:14Z</time>
      </trkpt>
      <trkpt lat="44.22785" lon="6.17641">
        <ele>1573</ele>
        <time>2010-01-01T01:52:15Z</time>
      </trkpt>
      <trkpt lat="44.22786" lon="6.17646">
        <ele>1573</ele>
        <time>2010-01-01T01:52:15Z</time>
      </trkpt>
      <trkpt lat="44.22787" lon="6.1765">
        <ele>1572</ele>
        <time>2010-01-01T01:52:16Z</time>
      </trkpt>
      <trkpt lat="44.22787" lon="6.17655">
        <ele>1572</ele>
        <time>2010-01-01T01:52:17Z</time>
      </trkpt>
      <trkpt lat="44.22787" lon="6.17659">
        <ele>1572</ele>
        <time>2010-01-01T01:52:18Z</time>
      </trkpt>
      <trkpt lat="44.22789" lon="6.17663">
        <ele>1571</ele>
        <time>2010-01-01T01:52:19Z</time>
      </trkpt>
      <trkpt lat="44.2279" lon="6.17668">
        <ele>1571</ele>
        <time>2010-01-01T01:52:20Z</time>
      </trkpt>
      <trkpt lat="44.2279" lon="6.17673">
        <ele>1571</ele>
        <time>2010-01-01T01:52:21Z</time>
      </trkpt>
      <trkpt lat="44.22791" lon="6.17677">
        <ele>1570</ele>
        <time>2010-01-01T01:52:22Z</time>
      </trkpt>
      <trkpt lat="44.22791" lon="6.17681">
        <ele>1570</ele>
        <time>2010-01-01T01:52:22Z</time>
      </trkpt>
      <trkpt lat="44.2279" lon="6.17686">
        <ele>1570</ele>
        <time>2010-01-01T01:52:23Z</time>
      </trkpt>
      <trkpt lat="44.2279" lon="6.1769">
        <ele>1570</ele>
        <time>2010-01-01T01:52:24Z</time>
      </trkpt>
      <trkpt lat="44.22789" lon="6.17694">
        <ele>1570</ele>
        <time>2010-01-01T01:52:25Z</time>
      </trkpt>
      <trkpt lat="44.22789" lon="6.17699">
        <ele>1570</ele>
        <time>2010-01-01T01:52:26Z</time>
      </trkpt>
      <trkpt lat="44.22788" lon="6.17703">
        <ele>1570</ele>
        <time>2010-01-01T01:52:27Z</time>
      </trkpt>
      <trkpt lat="44.22788" lon="6.17707">
        <ele>1570</ele>
        <time>2010-01-01T01:52:27Z</time>
      </trkpt>
      <trkpt lat="44.22787" lon="6.17711">
        <ele>1570</ele>
        <time>2010-01-01T01:52:28Z</time>
      </trkpt>
      <trkpt lat="44.22786" lon="6.17715">
        <ele>1570</ele>
        <time>2010-01-01T01:52:29Z</time>
      </trkpt>
      <trkpt lat="44.22785" lon="6.17719">
        <ele>1570</ele>
        <time>2010-01-01T01:52:30Z</time>
      </trkpt>
      <trkpt lat="44.22784" lon="6.17724">
        <ele>1571</ele>
        <time>2010-01-01T01:52:31Z</time>
      </trkpt>
      <trkpt lat="44.22783" lon="6.17728">
        <ele>1571</ele>
        <time>2010-01-01T01:52:31Z</time>
      </trkpt>
      <trkpt lat="44.22782" lon="6.17732">
        <ele>1571</ele>
        <time>2010-01-01T01:52:32Z</time>
      </trkpt>
      <trkpt lat="44.2278" lon="6.17736">
        <ele>1571</ele>
        <time>2010-01-01T01:52:33Z</time>
      </trkpt>
      <trkpt lat="44.22778" lon="6.1774">
        <ele>1571</ele>
        <time>2010-01-01T01:52:34Z</time>
      </trkpt>
      <trkpt lat="44.22776" lon="6.17743">
        <ele>1571</ele>
        <time>2010-01-01T01:52:35Z</time>
      </trkpt>
      <trkpt lat="44.22773" lon="6.17747">
        <ele>1572</ele>
        <time>2010-01-01T01:52:36Z</time>
      </trkpt>
      <trkpt lat="44.2277" lon="6.1775">
        <ele>1572</ele>
        <time>2010-01-01T01:52:37Z</time>
      </trkpt>
      <trkpt lat="44.22767" lon="6.17752">
        <ele>1573</ele>
        <time>2010-01-01T01:52:38Z</time>
      </trkpt>
      <trkpt lat="44.22764" lon="6.17755">
        <ele>1573</ele>
        <time>2010-01-01T01:52:39Z</time>
      </trkpt>
      <trkpt lat="44.22761" lon="6.17757">
        <ele>1574</ele>
        <time>2010-01-01T01:52:40Z</time>
      </trkpt>
      <trkpt lat="44.22757" lon="6.17758">
        <ele>1574</ele>
        <time>2010-01-01T01:52:41Z</time>
      </trkpt>
      <trkpt lat="44.22754" lon="6.17759">
        <ele>1575</ele>
        <time>2010-01-01T01:52:42Z</time>
      </trkpt>
      <trkpt lat="44.22751" lon="6.17759">
        <ele>1575</ele>
        <time>2010-01-01T01:52:43Z</time>
      </trkpt>
      <trkpt lat="44.22748" lon="6.1776">
        <ele>1576</ele>
        <time>2010-01-01T01:52:43Z</time>
      </trkpt>
      <trkpt lat="44.22745" lon="6.1776">
        <ele>1576</ele>
        <time>2010-01-01T01:52:44Z</time>
      </trkpt>
      <trkpt lat="44.22741" lon="6.17759">
        <ele>1577</ele>
        <time>2010-01-01T01:52:45Z</time>
      </trkpt>
      <trkpt lat="44.22739" lon="6.17757">
        <ele>1577</ele>
        <time>2010-01-01T01:52:46Z</time>
      </trkpt>
      <trkpt lat="44.22735" lon="6.17755">
        <ele>1578</ele>
        <time>2010-01-01T01:52:47Z</time>
      </trkpt>
      <trkpt lat="44.22733" lon="6.17752">
        <ele>1579</ele>
        <time>2010-01-01T01:52:48Z</time>
      </trkpt>
      <trkpt lat="44.22728" lon="6.17745">
        <ele>1581</ele>
        <time>2010-01-01T01:52:50Z</time>
      </trkpt>
      <trkpt lat="44.22725" lon="6.17745">
        <ele>1581</ele>
        <time>2010-01-01T01:52:51Z</time>
      </trkpt>
      <trkpt lat="44.22721" lon="6.17744">
        <ele>1582</ele>
        <time>2010-01-01T01:52:52Z</time>
      </trkpt>
      <trkpt lat="44.22717" lon="6.17743">
        <ele>1583</ele>
        <time>2010-01-01T01:52:53Z</time>
      </trkpt>
      <trkpt lat="44.22714" lon="6.17743">
        <ele>1584</ele>
        <time>2010-01-01T01:52:53Z</time>
      </trkpt>
      <trkpt lat="44.22711" lon="6.17743">
        <ele>1584</ele>
        <time>2010-01-01T01:52:54Z</time>
      </trkpt>
      <trkpt lat="44.22708" lon="6.17744">
        <ele>1585</ele>
        <time>2010-01-01T01:52:55Z</time>
      </trkpt>
      <trkpt lat="44.22705" lon="6.17746">
        <ele>1585</ele>
        <time>2010-01-01T01:52:56Z</time>
      </trkpt>
      <trkpt lat="44.22701" lon="6.17748">
        <ele>1585</ele>
        <time>2010-01-01T01:52:57Z</time>
      </trkpt>
      <trkpt lat="44.22698" lon="6.17751">
        <ele>1586</ele>
        <time>2010-01-01T01:52:58Z</time>
      </trkpt>
      <trkpt lat="44.22696" lon="6.17753">
        <ele>1586</ele>
        <time>2010-01-01T01:52:59Z</time>
      </trkpt>
      <trkpt lat="44.22693" lon="6.17755">
        <ele>1586</ele>
        <time>2010-01-01T01:53:00Z</time>
      </trkpt>
      <trkpt lat="44.22691" lon="6.17758">
        <ele>1586</ele>
        <time>2010-01-01T01:53:00Z</time>
      </trkpt>
      <trkpt lat="44.22689" lon="6.17761">
        <ele>1587</ele>
        <time>2010-01-01T01:53:01Z</time>
      </trkpt>
      <trkpt lat="44.22686" lon="6.17765">
        <ele>1587</ele>
        <time>2010-01-01T01:53:02Z</time>
      </trkpt>
      <trkpt lat="44.22684" lon="6.17768">
        <ele>1587</ele>
        <time>2010-01-01T01:53:03Z</time>
      </trkpt>
      <trkpt lat="44.22682" lon="6.17772">
        <ele>1588</ele>
        <time>2010-01-01T01:53:04Z</time>
      </trkpt>
      <trkpt lat="44.2268" lon="6.17775">
        <ele>1588</ele>
        <time>2010-01-01T01:53:05Z</time>
      </trkpt>
      <trkpt lat="44.22678" lon="6.17778">
        <ele>1588</ele>
        <time>2010-01-01T01:53:05Z</time>
      </trkpt>
      <trkpt lat="44.22676" lon="6.17783">
        <ele>1588</ele>
        <time>2010-01-01T01:53:07Z</time>
      </trkpt>
      <trkpt lat="44.22675" lon="6.17788">
        <ele>1588</ele>
        <time>2010-01-01T01:53:08Z</time>
      </trkpt>
      <trkpt lat="44.22673" lon="6.17793">
        <ele>1588</ele>
        <time>2010-01-01T01:53:09Z</time>
      </trkpt>
      <trkpt lat="44.22672" lon="6.17798">
        <ele>1588</ele>
        <time>2010-01-01T01:53:10Z</time>
      </trkpt>
      <trkpt lat="44.2267" lon="6.17802">
        <ele>1588</ele>
        <time>2010-01-01T01:53:10Z</time>
      </trkpt>
      <trkpt lat="44.22669" lon="6.17805">
        <ele>1588</ele>
        <time>2010-01-01T01:53:11Z</time>
      </trkpt>
      <trkpt lat="44.22667" lon="6.17809">
        <ele>1588</ele>
        <time>2010-01-01T01:53:12Z</time>
      </trkpt>
      <trkpt lat="44.22665" lon="6.17813">
        <ele>1588</ele>
        <time>2010-01-01T01:53:13Z</time>
      </trkpt>
      <trkpt lat="44.22664" lon="6.17816">
        <ele>1588</ele>
        <time>2010-01-01T01:53:14Z</time>
      </trkpt>
      <trkpt lat="44.22662" lon="6.1782">
        <ele>1588</ele>
        <time>2010-01-01T01:53:15Z</time>
      </trkpt>
      <trkpt lat="44.2266" lon="6.17823">
        <ele>1589</ele>
        <time>2010-01-01T01:53:15Z</time>
      </trkpt>
      <trkpt lat="44.22658" lon="6.17827">
        <ele>1589</ele>
        <time>2010-01-01T01:53:16Z</time>
      </trkpt>
      <trkpt lat="44.22656" lon="6.1783">
        <ele>1589</ele>
        <time>2010-01-01T01:53:17Z</time>
      </trkpt>
      <trkpt lat="44.22654" lon="6.17834">
        <ele>1590</ele>
        <time>2010-01-01T01:53:18Z</time>
      </trkpt>
      <trkpt lat="44.22652" lon="6.17837">
        <ele>1590</ele>
        <time>2010-01-01T01:53:19Z</time>
      </trkpt>
      <trkpt lat="44.2265" lon="6.1784">
        <ele>1591</ele>
        <time>2010-01-01T01:53:20Z</time>
      </trkpt>
      <trkpt lat="44.22648" lon="6.17843">
        <ele>1592</ele>
        <time>2010-01-01T01:53:21Z</time>
      </trkpt>
      <trkpt lat="44.22646" lon="6.17847">
        <ele>1592</ele>
        <time>2010-01-01T01:53:21Z</time>
      </trkpt>
      <trkpt lat="44.22643" lon="6.1785">
        <ele>1592</ele>
        <time>2010-01-01T01:53:22Z</time>
      </trkpt>
      <trkpt lat="44.22641" lon="6.17853">
        <ele>1593</ele>
        <time>2010-01-01T01:53:23Z</time>
      </trkpt>
      <trkpt lat="44.22639" lon="6.17856">
        <ele>1594</ele>
        <time>2010-01-01T01:53:24Z</time>
      </trkpt>
      <trkpt lat="44.22636" lon="6.17859">
        <ele>1595</ele>
        <time>2010-01-01T01:53:25Z</time>
      </trkpt>
      <trkpt lat="44.22633" lon="6.17861">
        <ele>1596</ele>
        <time>2010-01-01T01:53:26Z</time>
      </trkpt>
      <trkpt lat="44.22631" lon="6.17864">
        <ele>1597</ele>
        <time>2010-01-01T01:53:27Z</time>
      </trkpt>
      <trkpt lat="44.22628" lon="6.17867">
        <ele>1598</ele>
        <time>2010-01-01T01:53:27Z</time>
      </trkpt>
      <trkpt lat="44.22626" lon="6.17871">
        <ele>1599</ele>
        <time>2010-01-01T01:53:28Z</time>
      </trkpt>
      <trkpt lat="44.22623" lon="6.17873">
        <ele>1600</ele>
        <time>2010-01-01T01:53:29Z</time>
      </trkpt>
      <trkpt lat="44.2262" lon="6.17876">
        <ele>1601</ele>
        <time>2010-01-01T01:53:30Z</time>
      </trkpt>
      <trkpt lat="44.22617" lon="6.17879">
        <ele>1603</ele>
        <time>2010-01-01T01:53:31Z</time>
      </trkpt>
      <trkpt lat="44.22614" lon="6.17883">
        <ele>1604</ele>
        <time>2010-01-01T01:53:32Z</time>
      </trkpt>
      <trkpt lat="44.22613" lon="6.17886">
        <ele>1604</ele>
        <time>2010-01-01T01:53:33Z</time>
      </trkpt>
      <trkpt lat="44.22613" lon="6.1789">
        <ele>1604</ele>
        <time>2010-01-01T01:53:34Z</time>
      </trkpt>
      <trkpt lat="44.22613" lon="6.17895">
        <ele>1603</ele>
        <time>2010-01-01T01:53:35Z</time>
      </trkpt>
      <trkpt lat="44.22613" lon="6.17899">
        <ele>1603</ele>
        <time>2010-01-01T01:53:35Z</time>
      </trkpt>
      <trkpt lat="44.22614" lon="6.17904">
        <ele>1602</ele>
        <time>2010-01-01T01:53:36Z</time>
      </trkpt>
      <trkpt lat="44.22615" lon="6.17909">
        <ele>1602</ele>
        <time>2010-01-01T01:53:37Z</time>
      </trkpt>
      <trkpt lat="44.22616" lon="6.17914">
        <ele>1601</ele>
        <time>2010-01-01T01:53:38Z</time>
      </trkpt>
      <trkpt lat="44.22617" lon="6.17918">
        <ele>1600</ele>
        <time>2010-01-01T01:53:39Z</time>
      </trkpt>
      <trkpt lat="44.22619" lon="6.17923">
        <ele>1600</ele>
        <time>2010-01-01T01:53:40Z</time>
      </trkpt>
      <trkpt lat="44.22619" lon="6.17927">
        <ele>1600</ele>
        <time>2010-01-01T01:53:41Z</time>
      </trkpt>
      <trkpt lat="44.2262" lon="6.17932">
        <ele>1600</ele>
        <time>2010-01-01T01:53:42Z</time>
      </trkpt>
      <trkpt lat="44.2262" lon="6.17936">
        <ele>1600</ele>
        <time>2010-01-01T01:53:43Z</time>
      </trkpt>
      <trkpt lat="44.22621" lon="6.17941">
        <ele>1600</ele>
        <time>2010-01-01T01:53:44Z</time>
      </trkpt>
      <trkpt lat="44.22621" lon="6.17945">
        <ele>1601</ele>
        <time>2010-01-01T01:53:44Z</time>
      </trkpt>
      <trkpt lat="44.22621" lon="6.1795">
        <ele>1601</ele>
        <time>2010-01-01T01:53:45Z</time>
      </trkpt>
      <trkpt lat="44.2262" lon="6.17954">
        <ele>1602</ele>
        <time>2010-01-01T01:53:46Z</time>
      </trkpt>
      <trkpt lat="44.22619" lon="6.17958">
        <ele>1602</ele>
        <time>2010-01-01T01:53:47Z</time>
      </trkpt>
      <trkpt lat="44.22619" lon="6.17963">
        <ele>1603</ele>
        <time>2010-01-01T01:53:48Z</time>
      </trkpt>
      <trkpt lat="44.22619" lon="6.17967">
        <ele>1603</ele>
        <time>2010-01-01T01:53:49Z</time>
      </trkpt>
      <trkpt lat="44.22619" lon="6.17972">
        <ele>1604</ele>
        <time>2010-01-01T01:53:50Z</time>
      </trkpt>
      <trkpt lat="44.22618" lon="6.17976">
        <ele>1604</ele>
        <time>2010-01-01T01:53:50Z</time>
      </trkpt>
      <trkpt lat="44.22617" lon="6.1798">
        <ele>1604</ele>
        <time>2010-01-01T01:53:51Z</time>
      </trkpt>
      <trkpt lat="44.22616" lon="6.17984">
        <ele>1605</ele>
        <time>2010-01-01T01:53:52Z</time>
      </trkpt>
      <trkpt lat="44.22615" lon="6.17987">
        <ele>1605</ele>
        <time>2010-01-01T01:53:53Z</time>
      </trkpt>
      <trkpt lat="44.22614" lon="6.17993">
        <ele>1606</ele>
        <time>2010-01-01T01:53:54Z</time>
      </trkpt>
      <trkpt lat="44.22611" lon="6.17996">
        <ele>1607</ele>
        <time>2010-01-01T01:53:55Z</time>
      </trkpt>
      <trkpt lat="44.22609" lon="6.18">
        <ele>1608</ele>
        <time>2010-01-01T01:53:56Z</time>
      </trkpt>
      <trkpt lat="44.22606" lon="6.18004">
        <ele>1609</ele>
        <time>2010-01-01T01:53:57Z</time>
      </trkpt>
      <trkpt lat="44.22604" lon="6.18007">
        <ele>1610</ele>
        <time>2010-01-01T01:53:58Z</time>
      </trkpt>
      <trkpt lat="44.22601" lon="6.1801">
        <ele>1611</ele>
        <time>2010-01-01T01:53:59Z</time>
      </trkpt>
      <trkpt lat="44.22598" lon="6.18014">
        <ele>1611</ele>
        <time>2010-01-01T01:54:00Z</time>
      </trkpt>
      <trkpt lat="44.22595" lon="6.18017">
        <ele>1612</ele>
        <time>2010-01-01T01:54:01Z</time>
      </trkpt>
      <trkpt lat="44.22593" lon="6.1802">
        <ele>1612</ele>
        <time>2010-01-01T01:54:01Z</time>
      </trkpt>
      <trkpt lat="44.2259" lon="6.18023">
        <ele>1613</ele>
        <time>2010-01-01T01:54:02Z</time>
      </trkpt>
      <trkpt lat="44.22588" lon="6.18025">
        <ele>1614</ele>
        <time>2010-01-01T01:54:03Z</time>
      </trkpt>
      <trkpt lat="44.22585" lon="6.18028">
        <ele>1614</ele>
        <time>2010-01-01T01:54:04Z</time>
      </trkpt>
      <trkpt lat="44.22583" lon="6.18031">
        <ele>1614</ele>
        <time>2010-01-01T01:54:05Z</time>
      </trkpt>
      <trkpt lat="44.22581" lon="6.18034">
        <ele>1615</ele>
        <time>2010-01-01T01:54:06Z</time>
      </trkpt>
      <trkpt lat="44.22579" lon="6.18037">
        <ele>1615</ele>
        <time>2010-01-01T01:54:07Z</time>
      </trkpt>
      <trkpt lat="44.22575" lon="6.1804">
        <ele>1616</ele>
        <time>2010-01-01T01:54:08Z</time>
      </trkpt>
      <trkpt lat="44.22573" lon="6.18042">
        <ele>1617</ele>
        <time>2010-01-01T01:54:08Z</time>
      </trkpt>
      <trkpt lat="44.2257" lon="6.18045">
        <ele>1618</ele>
        <time>2010-01-01T01:54:09Z</time>
      </trkpt>
      <trkpt lat="44.22567" lon="6.18047">
        <ele>1619</ele>
        <time>2010-01-01T01:54:10Z</time>
      </trkpt>
      <trkpt lat="44.22564" lon="6.18049">
        <ele>1619</ele>
        <time>2010-01-01T01:54:11Z</time>
      </trkpt>
      <trkpt lat="44.22561" lon="6.18052">
        <ele>1620</ele>
        <time>2010-01-01T01:54:12Z</time>
      </trkpt>
      <trkpt lat="44.22557" lon="6.18054">
        <ele>1621</ele>
        <time>2010-01-01T01:54:13Z</time>
      </trkpt>
      <trkpt lat="44.22554" lon="6.18056">
        <ele>1622</ele>
        <time>2010-01-01T01:54:14Z</time>
      </trkpt>
      <trkpt lat="44.22551" lon="6.18058">
        <ele>1622</ele>
        <time>2010-01-01T01:54:15Z</time>
      </trkpt>
      <trkpt lat="44.22548" lon="6.1806">
        <ele>1623</ele>
        <time>2010-01-01T01:54:16Z</time>
      </trkpt>
      <trkpt lat="44.22545" lon="6.18063">
        <ele>1623</ele>
        <time>2010-01-01T01:54:17Z</time>
      </trkpt>
      <trkpt lat="44.22542" lon="6.18065">
        <ele>1624</ele>
        <time>2010-01-01T01:54:18Z</time>
      </trkpt>
      <trkpt lat="44.22539" lon="6.18068">
        <ele>1624</ele>
        <time>2010-01-01T01:54:19Z</time>
      </trkpt>
      <trkpt lat="44.22536" lon="6.18071">
        <ele>1624</ele>
        <time>2010-01-01T01:54:20Z</time>
      </trkpt>
      <trkpt lat="44.22533" lon="6.18073">
        <ele>1625</ele>
        <time>2010-01-01T01:54:21Z</time>
      </trkpt>
      <trkpt lat="44.22529" lon="6.18076">
        <ele>1625</ele>
        <time>2010-01-01T01:54:22Z</time>
      </trkpt>
      <trkpt lat="44.22526" lon="6.18078">
        <ele>1626</ele>
        <time>2010-01-01T01:54:23Z</time>
      </trkpt>
      <trkpt lat="44.22523" lon="6.1808">
        <ele>1626</ele>
        <time>2010-01-01T01:54:23Z</time>
      </trkpt>
      <trkpt lat="44.22521" lon="6.18083">
        <ele>1626</ele>
        <time>2010-01-01T01:54:24Z</time>
      </trkpt>
      <trkpt lat="44.22518" lon="6.18085">
        <ele>1626</ele>
        <time>2010-01-01T01:54:25Z</time>
      </trkpt>
      <trkpt lat="44.22515" lon="6.18089">
        <ele>1627</ele>
        <time>2010-01-01T01:54:26Z</time>
      </trkpt>
      <trkpt lat="44.22513" lon="6.18091">
        <ele>1627</ele>
        <time>2010-01-01T01:54:27Z</time>
      </trkpt>
      <trkpt lat="44.22511" lon="6.18095">
        <ele>1627</ele>
        <time>2010-01-01T01:54:28Z</time>
      </trkpt>
      <trkpt lat="44.22509" lon="6.18098">
        <ele>1627</ele>
        <time>2010-01-01T01:54:29Z</time>
      </trkpt>
      <trkpt lat="44.22507" lon="6.18101">
        <ele>1628</ele>
        <time>2010-01-01T01:54:29Z</time>
      </trkpt>
      <trkpt lat="44.22505" lon="6.18105">
        <ele>1628</ele>
        <time>2010-01-01T01:54:30Z</time>
      </trkpt>
      <trkpt lat="44.22504" lon="6.18109">
        <ele>1628</ele>
        <time>2010-01-01T01:54:31Z</time>
      </trkpt>
      <trkpt lat="44.22502" lon="6.18113">
        <ele>1628</ele>
        <time>2010-01-01T01:54:32Z</time>
      </trkpt>
      <trkpt lat="44.22501" lon="6.18116">
        <ele>1628</ele>
        <time>2010-01-01T01:54:33Z</time>
      </trkpt>
      <trkpt lat="44.22499" lon="6.18119">
        <ele>1628</ele>
        <time>2010-01-01T01:54:33Z</time>
      </trkpt>
      <trkpt lat="44.22496" lon="6.18123">
        <ele>1628</ele>
        <time>2010-01-01T01:54:34Z</time>
      </trkpt>
      <trkpt lat="44.22494" lon="6.18127">
        <ele>1629</ele>
        <time>2010-01-01T01:54:35Z</time>
      </trkpt>
      <trkpt lat="44.22492" lon="6.18131">
        <ele>1629</ele>
        <time>2010-01-01T01:54:36Z</time>
      </trkpt>
      <trkpt lat="44.22489" lon="6.18134">
        <ele>1629</ele>
        <time>2010-01-01T01:54:37Z</time>
      </trkpt>
      <trkpt lat="44.22486" lon="6.18138">
        <ele>1629</ele>
        <time>2010-01-01T01:54:39Z</time>
      </trkpt>
      <trkpt lat="44.22482" lon="6.18141">
        <ele>1629</ele>
        <time>2010-01-01T01:54:40Z</time>
      </trkpt>
      <trkpt lat="44.22479" lon="6.18144">
        <ele>1630</ele>
        <time>2010-01-01T01:54:41Z</time>
      </trkpt>
      <trkpt lat="44.22477" lon="6.18148">
        <ele>1630</ele>
        <time>2010-01-01T01:54:42Z</time>
      </trkpt>
      <trkpt lat="44.22475" lon="6.18152">
        <ele>1630</ele>
        <time>2010-01-01T01:54:42Z</time>
      </trkpt>
      <trkpt lat="44.22473" lon="6.18155">
        <ele>1630</ele>
        <time>2010-01-01T01:54:43Z</time>
      </trkpt>
      <trkpt lat="44.22472" lon="6.18159">
        <ele>1630</ele>
        <time>2010-01-01T01:54:44Z</time>
      </trkpt>
      <trkpt lat="44.22471" lon="6.18163">
        <ele>1630</ele>
        <time>2010-01-01T01:54:45Z</time>
      </trkpt>
      <trkpt lat="44.2247" lon="6.18168">
        <ele>1629</ele>
        <time>2010-01-01T01:54:46Z</time>
      </trkpt>
      <trkpt lat="44.2247" lon="6.18172">
        <ele>1629</ele>
        <time>2010-01-01T01:54:47Z</time>
      </trkpt>
      <trkpt lat="44.22468" lon="6.18175">
        <ele>1628</ele>
        <time>2010-01-01T01:54:47Z</time>
      </trkpt>
      <trkpt lat="44.22467" lon="6.18181">
        <ele>1627</ele>
        <time>2010-01-01T01:54:48Z</time>
      </trkpt>
      <trkpt lat="44.22465" lon="6.18184">
        <ele>1627</ele>
        <time>2010-01-01T01:54:49Z</time>
      </trkpt>
      <trkpt lat="44.22464" lon="6.18188">
        <ele>1626</ele>
        <time>2010-01-01T01:54:50Z</time>
      </trkpt>
      <trkpt lat="44.22464" lon="6.18184">
        <ele>1627</ele>
        <time>2010-01-01T01:54:51Z</time>
      </trkpt>
      <trkpt lat="44.22465" lon="6.18179">
        <ele>1628</ele>
        <time>2010-01-01T01:54:52Z</time>
      </trkpt>
      <trkpt lat="44.22464" lon="6.18175">
        <ele>1629</ele>
        <time>2010-01-01T01:54:53Z</time>
      </trkpt>
      <trkpt lat="44.22462" lon="6.1817">
        <ele>1630</ele>
        <time>2010-01-01T01:54:53Z</time>
      </trkpt>
      <trkpt lat="44.2246" lon="6.18168">
        <ele>1630</ele>
        <time>2010-01-01T01:54:54Z</time>
      </trkpt>
      <trkpt lat="44.22457" lon="6.1817">
        <ele>1630</ele>
        <time>2010-01-01T01:54:55Z</time>
      </trkpt>
      <trkpt lat="44.22456" lon="6.18174">
        <ele>1629</ele>
        <time>2010-01-01T01:54:56Z</time>
      </trkpt>
      <trkpt lat="44.22454" lon="6.18175">
        <ele>1630</ele>
        <time>2010-01-01T01:54:57Z</time>
      </trkpt>
      <trkpt lat="44.2245" lon="6.18176">
        <ele>1630</ele>
        <time>2010-01-01T01:54:58Z</time>
      </trkpt>
      <trkpt lat="44.22447" lon="6.18176">
        <ele>1630</ele>
        <time>2010-01-01T01:54:58Z</time>
      </trkpt>
      <trkpt lat="44.22444" lon="6.18177">
        <ele>1630</ele>
        <time>2010-01-01T01:54:59Z</time>
      </trkpt>
      <trkpt lat="44.22441" lon="6.18179">
        <ele>1631</ele>
        <time>2010-01-01T01:55:00Z</time>
      </trkpt>
      <trkpt lat="44.22439" lon="6.18182">
        <ele>1631</ele>
        <time>2010-01-01T01:55:01Z</time>
      </trkpt>
      <trkpt lat="44.22436" lon="6.18185">
        <ele>1632</ele>
        <time>2010-01-01T01:55:02Z</time>
      </trkpt>
      <trkpt lat="44.22434" lon="6.18187">
        <ele>1632</ele>
        <time>2010-01-01T01:55:02Z</time>
      </trkpt>
      <trkpt lat="44.22431" lon="6.18188">
        <ele>1633</ele>
        <time>2010-01-01T01:55:03Z</time>
      </trkpt>
      <trkpt lat="44.22428" lon="6.1819">
        <ele>1633</ele>
        <time>2010-01-01T01:55:04Z</time>
      </trkpt>
      <trkpt lat="44.22425" lon="6.18192">
        <ele>1634</ele>
        <time>2010-01-01T01:55:05Z</time>
      </trkpt>
      <trkpt lat="44.22423" lon="6.18195">
        <ele>1634</ele>
        <time>2010-01-01T01:55:06Z</time>
      </trkpt>
      <trkpt lat="44.2242" lon="6.18196">
        <ele>1635</ele>
        <time>2010-01-01T01:55:07Z</time>
      </trkpt>
      <trkpt lat="44.22417" lon="6.18196">
        <ele>1635</ele>
        <time>2010-01-01T01:55:07Z</time>
      </trkpt>
      <trkpt lat="44.22415" lon="6.18199">
        <ele>1635</ele>
        <time>2010-01-01T01:55:08Z</time>
      </trkpt>
      <trkpt lat="44.22413" lon="6.18203">
        <ele>1635</ele>
        <time>2010-01-01T01:55:09Z</time>
      </trkpt>
      <trkpt lat="44.2241" lon="6.18204">
        <ele>1636</ele>
        <time>2010-01-01T01:55:10Z</time>
      </trkpt>
      <trkpt lat="44.22407" lon="6.18205">
        <ele>1636</ele>
        <time>2010-01-01T01:55:11Z</time>
      </trkpt>
      <trkpt lat="44.22403" lon="6.18207">
        <ele>1637</ele>
        <time>2010-01-01T01:55:12Z</time>
      </trkpt>
      <trkpt lat="44.224" lon="6.18209">
        <ele>1637</ele>
        <time>2010-01-01T01:55:13Z</time>
      </trkpt>
      <trkpt lat="44.22396" lon="6.18211">
        <ele>1638</ele>
        <time>2010-01-01T01:55:14Z</time>
      </trkpt>
      <trkpt lat="44.22393" lon="6.18212">
        <ele>1638</ele>
        <time>2010-01-01T01:55:15Z</time>
      </trkpt>
      <trkpt lat="44.22389" lon="6.18213">
        <ele>1639</ele>
        <time>2010-01-01T01:55:16Z</time>
      </trkpt>
      <trkpt lat="44.22386" lon="6.18213">
        <ele>1640</ele>
        <time>2010-01-01T01:55:17Z</time>
      </trkpt>
      <trkpt lat="44.22383" lon="6.18213">
        <ele>1641</ele>
        <time>2010-01-01T01:55:18Z</time>
      </trkpt>
      <trkpt lat="44.2238" lon="6.18213">
        <ele>1642</ele>
        <time>2010-01-01T01:55:18Z</time>
      </trkpt>
      <trkpt lat="44.22376" lon="6.18213">
        <ele>1643</ele>
        <time>2010-01-01T01:55:19Z</time>
      </trkpt>
      <trkpt lat="44.22373" lon="6.18212">
        <ele>1644</ele>
        <time>2010-01-01T01:55:20Z</time>
      </trkpt>
      <trkpt lat="44.2237" lon="6.18213">
        <ele>1645</ele>
        <time>2010-01-01T01:55:21Z</time>
      </trkpt>
      <trkpt lat="44.22367" lon="6.18212">
        <ele>1647</ele>
        <time>2010-01-01T01:55:22Z</time>
      </trkpt>
      <trkpt lat="44.22364" lon="6.18212">
        <ele>1647</ele>
        <time>2010-01-01T01:55:23Z</time>
      </trkpt>
      <trkpt lat="44.22361" lon="6.18212">
        <ele>1648</ele>
        <time>2010-01-01T01:55:23Z</time>
      </trkpt>
      <trkpt lat="44.22358" lon="6.18212">
        <ele>1649</ele>
        <time>2010-01-01T01:55:24Z</time>
      </trkpt>
      <trkpt lat="44.22355" lon="6.18212">
        <ele>1651</ele>
        <time>2010-01-01T01:55:25Z</time>
      </trkpt>
      <trkpt lat="44.22351" lon="6.18212">
        <ele>1651</ele>
        <time>2010-01-01T01:55:26Z</time>
      </trkpt>
      <trkpt lat="44.22349" lon="6.18213">
        <ele>1652</ele>
        <time>2010-01-01T01:55:27Z</time>
      </trkpt>
      <trkpt lat="44.22346" lon="6.18214">
        <ele>1653</ele>
        <time>2010-01-01T01:55:28Z</time>
      </trkpt>
      <trkpt lat="44.22343" lon="6.18216">
        <ele>1654</ele>
        <time>2010-01-01T01:55:28Z</time>
      </trkpt>
      <trkpt lat="44.2234" lon="6.18217">
        <ele>1655</ele>
        <time>2010-01-01T01:55:29Z</time>
      </trkpt>
      <trkpt lat="44.22337" lon="6.18217">
        <ele>1656</ele>
        <time>2010-01-01T01:55:30Z</time>
      </trkpt>
      <trkpt lat="44.22334" lon="6.18217">
        <ele>1657</ele>
        <time>2010-01-01T01:55:31Z</time>
      </trkpt>
      <trkpt lat="44.22331" lon="6.18219">
        <ele>1658</ele>
        <time>2010-01-01T01:55:32Z</time>
      </trkpt>
      <trkpt lat="44.22328" lon="6.18221">
        <ele>1659</ele>
        <time>2010-01-01T01:55:32Z</time>
      </trkpt>
      <trkpt lat="44.22326" lon="6.18224">
        <ele>1660</ele>
        <time>2010-01-01T01:55:33Z</time>
      </trkpt>
      <trkpt lat="44.22324" lon="6.18227">
        <ele>1661</ele>
        <time>2010-01-01T01:55:34Z</time>
      </trkpt>
      <trkpt lat="44.22324" lon="6.18232">
        <ele>1662</ele>
        <time>2010-01-01T01:55:35Z</time>
      </trkpt>
      <trkpt lat="44.22327" lon="6.18236">
        <ele>1661</ele>
        <time>2010-01-01T01:55:36Z</time>
      </trkpt>
      <trkpt lat="44.2233" lon="6.18239">
        <ele>1660</ele>
        <time>2010-01-01T01:55:37Z</time>
      </trkpt>
      <trkpt lat="44.22333" lon="6.18243">
        <ele>1659</ele>
        <time>2010-01-01T01:55:38Z</time>
      </trkpt>
      <trkpt lat="44.22335" lon="6.18247">
        <ele>1658</ele>
        <time>2010-01-01T01:55:39Z</time>
      </trkpt>
      <trkpt lat="44.22338" lon="6.18252">
        <ele>1658</ele>
        <time>2010-01-01T01:55:40Z</time>
      </trkpt>
      <trkpt lat="44.2234" lon="6.18256">
        <ele>1657</ele>
        <time>2010-01-01T01:55:41Z</time>
      </trkpt>
      <trkpt lat="44.22341" lon="6.18262">
        <ele>1657</ele>
        <time>2010-01-01T01:55:42Z</time>
      </trkpt>
      <trkpt lat="44.22342" lon="6.18266">
        <ele>1658</ele>
        <time>2010-01-01T01:55:43Z</time>
      </trkpt>
      <trkpt lat="44.22344" lon="6.18271">
        <ele>1658</ele>
        <time>2010-01-01T01:55:44Z</time>
      </trkpt>
      <trkpt lat="44.22345" lon="6.18276">
        <ele>1658</ele>
        <time>2010-01-01T01:55:45Z</time>
      </trkpt>
      <trkpt lat="44.22346" lon="6.18282">
        <ele>1659</ele>
        <time>2010-01-01T01:55:46Z</time>
      </trkpt>
      <trkpt lat="44.22347" lon="6.18287">
        <ele>1659</ele>
        <time>2010-01-01T01:55:47Z</time>
      </trkpt>
      <trkpt lat="44.22348" lon="6.18292">
        <ele>1660</ele>
        <time>2010-01-01T01:55:48Z</time>
      </trkpt>
      <trkpt lat="44.22348" lon="6.18297">
        <ele>1660</ele>
        <time>2010-01-01T01:55:49Z</time>
      </trkpt>
      <trkpt lat="44.22348" lon="6.18301">
        <ele>1661</ele>
        <time>2010-01-01T01:55:50Z</time>
      </trkpt>
      <trkpt lat="44.22346" lon="6.18303">
        <ele>1663</ele>
        <time>2010-01-01T01:55:51Z</time>
      </trkpt>
      <trkpt lat="44.22346" lon="6.18307">
        <ele>1664</ele>
        <time>2010-01-01T01:55:52Z</time>
      </trkpt>
      <trkpt lat="44.22348" lon="6.18315">
        <ele>1664</ele>
        <time>2010-01-01T01:55:53Z</time>
      </trkpt>
      <trkpt lat="44.22348" lon="6.1832">
        <ele>1665</ele>
        <time>2010-01-01T01:55:54Z</time>
      </trkpt>
      <trkpt lat="44.22349" lon="6.18325">
        <ele>1665</ele>
        <time>2010-01-01T01:55:55Z</time>
      </trkpt>
      <trkpt lat="44.2235" lon="6.18328">
        <ele>1665</ele>
        <time>2010-01-01T01:55:56Z</time>
      </trkpt>
      <trkpt lat="44.22353" lon="6.18332">
        <ele>1665</ele>
        <time>2010-01-01T01:55:57Z</time>
      </trkpt>
      <trkpt lat="44.22354" lon="6.18336">
        <ele>1665</ele>
        <time>2010-01-01T01:55:58Z</time>
      </trkpt>
      <trkpt lat="44.22355" lon="6.1834">
        <ele>1665</ele>
        <time>2010-01-01T01:55:59Z</time>
      </trkpt>
      <trkpt lat="44.22356" lon="6.18345">
        <ele>1665</ele>
        <time>2010-01-01T01:55:59Z</time>
      </trkpt>
      <trkpt lat="44.22356" lon="6.18349">
        <ele>1665</ele>
        <time>2010-01-01T01:56:00Z</time>
      </trkpt>
      <trkpt lat="44.22357" lon="6.18353">
        <ele>1665</ele>
        <time>2010-01-01T01:56:01Z</time>
      </trkpt>
      <trkpt lat="44.22358" lon="6.18357">
        <ele>1665</ele>
        <time>2010-01-01T01:56:02Z</time>
      </trkpt>
      <trkpt lat="44.22358" lon="6.18362">
        <ele>1666</ele>
        <time>2010-01-01T01:56:03Z</time>
      </trkpt>
      <trkpt lat="44.22359" lon="6.18366">
        <ele>1665</ele>
        <time>2010-01-01T01:56:04Z</time>
      </trkpt>
      <trkpt lat="44.2236" lon="6.1837">
        <ele>1665</ele>
        <time>2010-01-01T01:56:04Z</time>
      </trkpt>
      <trkpt lat="44.22361" lon="6.18374">
        <ele>1665</ele>
        <time>2010-01-01T01:56:05Z</time>
      </trkpt>
      <trkpt lat="44.22361" lon="6.18378">
        <ele>1664</ele>
        <time>2010-01-01T01:56:06Z</time>
      </trkpt>
      <trkpt lat="44.22363" lon="6.18382">
        <ele>1664</ele>
        <time>2010-01-01T01:56:07Z</time>
      </trkpt>
      <trkpt lat="44.22363" lon="6.18386">
        <ele>1664</ele>
        <time>2010-01-01T01:56:08Z</time>
      </trkpt>
      <trkpt lat="44.22363" lon="6.1839">
        <ele>1664</ele>
        <time>2010-01-01T01:56:08Z</time>
      </trkpt>
      <trkpt lat="44.22363" lon="6.18395">
        <ele>1664</ele>
        <time>2010-01-01T01:56:09Z</time>
      </trkpt>
      <trkpt lat="44.22363" lon="6.18399">
        <ele>1664</ele>
        <time>2010-01-01T01:56:10Z</time>
      </trkpt>
      <trkpt lat="44.22363" lon="6.18403">
        <ele>1664</ele>
        <time>2010-01-01T01:56:11Z</time>
      </trkpt>
      <trkpt lat="44.22364" lon="6.18407">
        <ele>1664</ele>
        <time>2010-01-01T01:56:12Z</time>
      </trkpt>
      <trkpt lat="44.22364" lon="6.18411">
        <ele>1664</ele>
        <time>2010-01-01T01:56:12Z</time>
      </trkpt>
      <trkpt lat="44.22364" lon="6.18415">
        <ele>1664</ele>
        <time>2010-01-01T01:56:13Z</time>
      </trkpt>
      <trkpt lat="44.22363" lon="6.18419">
        <ele>1664</ele>
        <time>2010-01-01T01:56:14Z</time>
      </trkpt>
      <trkpt lat="44.22363" lon="6.18424">
        <ele>1665</ele>
        <time>2010-01-01T01:56:15Z</time>
      </trkpt>
      <trkpt lat="44.22362" lon="6.18428">
        <ele>1665</ele>
        <time>2010-01-01T01:56:16Z</time>
      </trkpt>
      <trkpt lat="44.22362" lon="6.18432">
        <ele>1665</ele>
        <time>2010-01-01T01:56:16Z</time>
      </trkpt>
      <trkpt lat="44.22361" lon="6.18436">
        <ele>1666</ele>
        <time>2010-01-01T01:56:17Z</time>
      </trkpt>
      <trkpt lat="44.2236" lon="6.1844">
        <ele>1667</ele>
        <time>2010-01-01T01:56:18Z</time>
      </trkpt>
      <trkpt lat="44.22357" lon="6.18442">
        <ele>1668</ele>
        <time>2010-01-01T01:56:19Z</time>
      </trkpt>
      <trkpt lat="44.22356" lon="6.18446">
        <ele>1669</ele>
        <time>2010-01-01T01:56:20Z</time>
      </trkpt>
      <trkpt lat="44.22354" lon="6.18448">
        <ele>1670</ele>
        <time>2010-01-01T01:56:20Z</time>
      </trkpt>
      <trkpt lat="44.22352" lon="6.18452">
        <ele>1671</ele>
        <time>2010-01-01T01:56:21Z</time>
      </trkpt>
      <trkpt lat="44.22351" lon="6.18456">
        <ele>1672</ele>
        <time>2010-01-01T01:56:22Z</time>
      </trkpt>
      <trkpt lat="44.22351" lon="6.1846">
        <ele>1672</ele>
        <time>2010-01-01T01:56:23Z</time>
      </trkpt>
      <trkpt lat="44.22349" lon="6.18463">
        <ele>1673</ele>
        <time>2010-01-01T01:56:23Z</time>
      </trkpt>
      <trkpt lat="44.22347" lon="6.18465">
        <ele>1674</ele>
        <time>2010-01-01T01:56:24Z</time>
      </trkpt>
      <trkpt lat="44.22344" lon="6.18467">
        <ele>1676</ele>
        <time>2010-01-01T01:56:25Z</time>
      </trkpt>
      <trkpt lat="44.22341" lon="6.18469">
        <ele>1677</ele>
        <time>2010-01-01T01:56:26Z</time>
      </trkpt>
      <trkpt lat="44.2234" lon="6.18473">
        <ele>1678</ele>
        <time>2010-01-01T01:56:27Z</time>
      </trkpt>
      <trkpt lat="44.22337" lon="6.18481">
        <ele>1679</ele>
        <time>2010-01-01T01:56:28Z</time>
      </trkpt>
      <trkpt lat="44.22336" lon="6.18485">
        <ele>1679</ele>
        <time>2010-01-01T01:56:29Z</time>
      </trkpt>
      <trkpt lat="44.22334" lon="6.18487">
        <ele>1680</ele>
        <time>2010-01-01T01:56:30Z</time>
      </trkpt>
      <trkpt lat="44.22331" lon="6.18489">
        <ele>1681</ele>
        <time>2010-01-01T01:56:31Z</time>
      </trkpt>
      <trkpt lat="44.22329" lon="6.18491">
        <ele>1682</ele>
        <time>2010-01-01T01:56:32Z</time>
      </trkpt>
      <trkpt lat="44.22329" lon="6.18496">
        <ele>1681</ele>
        <time>2010-01-01T01:56:32Z</time>
      </trkpt>
      <trkpt lat="44.22327" lon="6.18498">
        <ele>1682</ele>
        <time>2010-01-01T01:56:33Z</time>
      </trkpt>
      <trkpt lat="44.22324" lon="6.185">
        <ele>1683</ele>
        <time>2010-01-01T01:56:34Z</time>
      </trkpt>
      <trkpt lat="44.22322" lon="6.18503">
        <ele>1684</ele>
        <time>2010-01-01T01:56:35Z</time>
      </trkpt>
      <trkpt lat="44.22319" lon="6.18505">
        <ele>1685</ele>
        <time>2010-01-01T01:56:36Z</time>
      </trkpt>
      <trkpt lat="44.22316" lon="6.18508">
        <ele>1686</ele>
        <time>2010-01-01T01:56:37Z</time>
      </trkpt>
      <trkpt lat="44.22313" lon="6.1851">
        <ele>1687</ele>
        <time>2010-01-01T01:56:37Z</time>
      </trkpt>
      <trkpt lat="44.22301" lon="6.18522">
        <ele>1691</ele>
        <time>2010-01-01T01:56:41Z</time>
      </trkpt>
      <trkpt lat="44.22298" lon="6.18524">
        <ele>1692</ele>
        <time>2010-01-01T01:56:42Z</time>
      </trkpt>
      <trkpt lat="44.22296" lon="6.18527">
        <ele>1693</ele>
        <time>2010-01-01T01:56:43Z</time>
      </trkpt>
      <trkpt lat="44.22294" lon="6.18531">
        <ele>1693</ele>
        <time>2010-01-01T01:56:44Z</time>
      </trkpt>
      <trkpt lat="44.22293" lon="6.18534">
        <ele>1694</ele>
        <time>2010-01-01T01:56:45Z</time>
      </trkpt>
      <trkpt lat="44.2229" lon="6.18537">
        <ele>1694</ele>
        <time>2010-01-01T01:56:46Z</time>
      </trkpt>
      <trkpt lat="44.22287" lon="6.18538">
        <ele>1695</ele>
        <time>2010-01-01T01:56:46Z</time>
      </trkpt>
      <trkpt lat="44.22285" lon="6.18541">
        <ele>1696</ele>
        <time>2010-01-01T01:56:47Z</time>
      </trkpt>
      <trkpt lat="44.22282" lon="6.18543">
        <ele>1697</ele>
        <time>2010-01-01T01:56:48Z</time>
      </trkpt>
      <trkpt lat="44.2228" lon="6.18547">
        <ele>1697</ele>
        <time>2010-01-01T01:56:49Z</time>
      </trkpt>
      <trkpt lat="44.22278" lon="6.18549">
        <ele>1698</ele>
        <time>2010-01-01T01:56:50Z</time>
      </trkpt>
      <trkpt lat="44.22276" lon="6.18552">
        <ele>1699</ele>
        <time>2010-01-01T01:56:50Z</time>
      </trkpt>
      <trkpt lat="44.22274" lon="6.18555">
        <ele>1699</ele>
        <time>2010-01-01T01:56:51Z</time>
      </trkpt>
      <trkpt lat="44.22272" lon="6.18558">
        <ele>1699</ele>
        <time>2010-01-01T01:56:52Z</time>
      </trkpt>
      <trkpt lat="44.2227" lon="6.18562">
        <ele>1700</ele>
        <time>2010-01-01T01:56:53Z</time>
      </trkpt>
      <trkpt lat="44.22268" lon="6.18564">
        <ele>1700</ele>
        <time>2010-01-01T01:56:54Z</time>
      </trkpt>
      <trkpt lat="44.22265" lon="6.18567">
        <ele>1701</ele>
        <time>2010-01-01T01:56:54Z</time>
      </trkpt>
      <trkpt lat="44.22263" lon="6.18569">
        <ele>1702</ele>
        <time>2010-01-01T01:56:55Z</time>
      </trkpt>
      <trkpt lat="44.2226" lon="6.18571">
        <ele>1703</ele>
        <time>2010-01-01T01:56:56Z</time>
      </trkpt>
      <trkpt lat="44.22257" lon="6.18572">
        <ele>1704</ele>
        <time>2010-01-01T01:56:57Z</time>
      </trkpt>
      <trkpt lat="44.22254" lon="6.18574">
        <ele>1705</ele>
        <time>2010-01-01T01:56:58Z</time>
      </trkpt>
      <trkpt lat="44.22252" lon="6.18576">
        <ele>1706</ele>
        <time>2010-01-01T01:56:58Z</time>
      </trkpt>
      <trkpt lat="44.22249" lon="6.18579">
        <ele>1706</ele>
        <time>2010-01-01T01:56:59Z</time>
      </trkpt>
      <trkpt lat="44.22248" lon="6.18583">
        <ele>1706</ele>
        <time>2010-01-01T01:57:00Z</time>
      </trkpt>
      <trkpt lat="44.22246" lon="6.18587">
        <ele>1705</ele>
        <time>2010-01-01T01:57:01Z</time>
      </trkpt>
      <trkpt lat="44.22244" lon="6.18589">
        <ele>1705</ele>
        <time>2010-01-01T01:57:02Z</time>
      </trkpt>
      <trkpt lat="44.22237" lon="6.18602">
        <ele>1703</ele>
        <time>2010-01-01T01:57:05Z</time>
      </trkpt>
      <trkpt lat="44.22235" lon="6.18604">
        <ele>1703</ele>
        <time>2010-01-01T01:57:06Z</time>
      </trkpt>
      <trkpt lat="44.22233" lon="6.18607">
        <ele>1702</ele>
        <time>2010-01-01T01:57:06Z</time>
      </trkpt>
      <trkpt lat="44.2223" lon="6.18611">
        <ele>1702</ele>
        <time>2010-01-01T01:57:07Z</time>
      </trkpt>
      <trkpt lat="44.22228" lon="6.18613">
        <ele>1702</ele>
        <time>2010-01-01T01:57:08Z</time>
      </trkpt>
      <trkpt lat="44.22226" lon="6.18616">
        <ele>1702</ele>
        <time>2010-01-01T01:57:09Z</time>
      </trkpt>
      <trkpt lat="44.22225" lon="6.18621">
        <ele>1702</ele>
        <time>2010-01-01T01:57:10Z</time>
      </trkpt>
      <trkpt lat="44.22224" lon="6.18625">
        <ele>1701</ele>
        <time>2010-01-01T01:57:11Z</time>
      </trkpt>
      <trkpt lat="44.22223" lon="6.18628">
        <ele>1701</ele>
        <time>2010-01-01T01:57:11Z</time>
      </trkpt>
      <trkpt lat="44.2222" lon="6.18631">
        <ele>1701</ele>
        <time>2010-01-01T01:57:12Z</time>
      </trkpt>
      <trkpt lat="44.22218" lon="6.18634">
        <ele>1701</ele>
        <time>2010-01-01T01:57:13Z</time>
      </trkpt>
      <trkpt lat="44.22217" lon="6.18638">
        <ele>1701</ele>
        <time>2010-01-01T01:57:14Z</time>
      </trkpt>
      <trkpt lat="44.2222" lon="6.18643">
        <ele>1700</ele>
        <time>2010-01-01T01:57:15Z</time>
      </trkpt>
      <trkpt lat="44.22222" lon="6.18646">
        <ele>1699</ele>
        <time>2010-01-01T01:57:16Z</time>
      </trkpt>
      <trkpt lat="44.22223" lon="6.18651">
        <ele>1698</ele>
        <time>2010-01-01T01:57:17Z</time>
      </trkpt>
      <trkpt lat="44.22223" lon="6.18655">
        <ele>1698</ele>
        <time>2010-01-01T01:57:18Z</time>
      </trkpt>
      <trkpt lat="44.22223" lon="6.1866">
        <ele>1698</ele>
        <time>2010-01-01T01:57:19Z</time>
      </trkpt>
      <trkpt lat="44.22223" lon="6.18664">
        <ele>1698</ele>
        <time>2010-01-01T01:57:19Z</time>
      </trkpt>
      <trkpt lat="44.22223" lon="6.18668">
        <ele>1697</ele>
        <time>2010-01-01T01:57:20Z</time>
      </trkpt>
      <trkpt lat="44.22223" lon="6.18673">
        <ele>1697</ele>
        <time>2010-01-01T01:57:21Z</time>
      </trkpt>
      <trkpt lat="44.22223" lon="6.18678">
        <ele>1698</ele>
        <time>2010-01-01T01:57:22Z</time>
      </trkpt>
      <trkpt lat="44.22222" lon="6.18681">
        <ele>1698</ele>
        <time>2010-01-01T01:57:23Z</time>
      </trkpt>
      <trkpt lat="44.22221" lon="6.18685">
        <ele>1698</ele>
        <time>2010-01-01T01:57:23Z</time>
      </trkpt>
      <trkpt lat="44.22222" lon="6.1869">
        <ele>1698</ele>
        <time>2010-01-01T01:57:24Z</time>
      </trkpt>
      <trkpt lat="44.22222" lon="6.18694">
        <ele>1699</ele>
        <time>2010-01-01T01:57:25Z</time>
      </trkpt>
      <trkpt lat="44.22222" lon="6.18698">
        <ele>1698</ele>
        <time>2010-01-01T01:57:26Z</time>
      </trkpt>
      <trkpt lat="44.22222" lon="6.18705">
        <ele>1698</ele>
        <time>2010-01-01T01:57:27Z</time>
      </trkpt>
      <trkpt lat="44.22221" lon="6.18711">
        <ele>1698</ele>
        <time>2010-01-01T01:57:28Z</time>
      </trkpt>
      <trkpt lat="44.22221" lon="6.18718">
        <ele>1697</ele>
        <time>2010-01-01T01:57:30Z</time>
      </trkpt>
      <trkpt lat="44.2222" lon="6.18725">
        <ele>1697</ele>
        <time>2010-01-01T01:57:31Z</time>
      </trkpt>
      <trkpt lat="44.2222" lon="6.1873">
        <ele>1696</ele>
        <time>2010-01-01T01:57:32Z</time>
      </trkpt>
      <trkpt lat="44.22219" lon="6.18735">
        <ele>1696</ele>
        <time>2010-01-01T01:57:33Z</time>
      </trkpt>
      <trkpt lat="44.22217" lon="6.18741">
        <ele>1696</ele>
        <time>2010-01-01T01:57:34Z</time>
      </trkpt>
      <trkpt lat="44.22215" lon="6.18747">
        <ele>1696</ele>
        <time>2010-01-01T01:57:36Z</time>
      </trkpt>
      <trkpt lat="44.22213" lon="6.18752">
        <ele>1696</ele>
        <time>2010-01-01T01:57:37Z</time>
      </trkpt>
      <trkpt lat="44.22211" lon="6.18756">
        <ele>1696</ele>
        <time>2010-01-01T01:57:38Z</time>
      </trkpt>
      <trkpt lat="44.22209" lon="6.1876">
        <ele>1696</ele>
        <time>2010-01-01T01:57:39Z</time>
      </trkpt>
      <trkpt lat="44.22207" lon="6.18764">
        <ele>1696</ele>
        <time>2010-01-01T01:57:40Z</time>
      </trkpt>
      <trkpt lat="44.22205" lon="6.18768">
        <ele>1696</ele>
        <time>2010-01-01T01:57:40Z</time>
      </trkpt>
      <trkpt lat="44.22204" lon="6.18772">
        <ele>1697</ele>
        <time>2010-01-01T01:57:41Z</time>
      </trkpt>
      <trkpt lat="44.22202" lon="6.18776">
        <ele>1697</ele>
        <time>2010-01-01T01:57:42Z</time>
      </trkpt>
      <trkpt lat="44.22201" lon="6.1878">
        <ele>1697</ele>
        <time>2010-01-01T01:57:43Z</time>
      </trkpt>
      <trkpt lat="44.22199" lon="6.18785">
        <ele>1697</ele>
        <time>2010-01-01T01:57:44Z</time>
      </trkpt>
      <trkpt lat="44.22197" lon="6.18789">
        <ele>1697</ele>
        <time>2010-01-01T01:57:45Z</time>
      </trkpt>
      <trkpt lat="44.22196" lon="6.18793">
        <ele>1697</ele>
        <time>2010-01-01T01:57:46Z</time>
      </trkpt>
      <trkpt lat="44.22195" lon="6.18798">
        <ele>1697</ele>
        <time>2010-01-01T01:57:47Z</time>
      </trkpt>
      <trkpt lat="44.22194" lon="6.18802">
        <ele>1696</ele>
        <time>2010-01-01T01:57:48Z</time>
      </trkpt>
      <trkpt lat="44.22193" lon="6.18807">
        <ele>1696</ele>
        <time>2010-01-01T01:57:49Z</time>
      </trkpt>
      <trkpt lat="44.22192" lon="6.18811">
        <ele>1696</ele>
        <time>2010-01-01T01:57:49Z</time>
      </trkpt>
      <trkpt lat="44.22191" lon="6.18815">
        <ele>1695</ele>
        <time>2010-01-01T01:57:50Z</time>
      </trkpt>
      <trkpt lat="44.2219" lon="6.1882">
        <ele>1695</ele>
        <time>2010-01-01T01:57:51Z</time>
      </trkpt>
      <trkpt lat="44.22189" lon="6.18824">
        <ele>1695</ele>
        <time>2010-01-01T01:57:52Z</time>
      </trkpt>
      <trkpt lat="44.22187" lon="6.18828">
        <ele>1695</ele>
        <time>2010-01-01T01:57:53Z</time>
      </trkpt>
      <trkpt lat="44.22185" lon="6.18832">
        <ele>1695</ele>
        <time>2010-01-01T01:57:54Z</time>
      </trkpt>
      <trkpt lat="44.22183" lon="6.18836">
        <ele>1695</ele>
        <time>2010-01-01T01:57:55Z</time>
      </trkpt>
      <trkpt lat="44.22182" lon="6.1884">
        <ele>1696</ele>
        <time>2010-01-01T01:57:56Z</time>
      </trkpt>
      <trkpt lat="44.2218" lon="6.18843">
        <ele>1696</ele>
        <time>2010-01-01T01:57:56Z</time>
      </trkpt>
      <trkpt lat="44.22177" lon="6.18845">
        <ele>1697</ele>
        <time>2010-01-01T01:57:57Z</time>
      </trkpt>
      <trkpt lat="44.22174" lon="6.18846">
        <ele>1698</ele>
        <time>2010-01-01T01:57:58Z</time>
      </trkpt>
      <trkpt lat="44.22172" lon="6.18848">
        <ele>1698</ele>
        <time>2010-01-01T01:57:59Z</time>
      </trkpt>
      <trkpt lat="44.22169" lon="6.18851">
        <ele>1699</ele>
        <time>2010-01-01T01:58:00Z</time>
      </trkpt>
      <trkpt lat="44.22168" lon="6.18855">
        <ele>1698</ele>
        <time>2010-01-01T01:58:00Z</time>
      </trkpt>
      <trkpt lat="44.22167" lon="6.18859">
        <ele>1698</ele>
        <time>2010-01-01T01:58:01Z</time>
      </trkpt>
      <trkpt lat="44.22166" lon="6.18863">
        <ele>1698</ele>
        <time>2010-01-01T01:58:02Z</time>
      </trkpt>
      <trkpt lat="44.22164" lon="6.18867">
        <ele>1698</ele>
        <time>2010-01-01T01:58:03Z</time>
      </trkpt>
      <trkpt lat="44.22162" lon="6.18871">
        <ele>1699</ele>
        <time>2010-01-01T01:58:04Z</time>
      </trkpt>
      <trkpt lat="44.22159" lon="6.18873">
        <ele>1699</ele>
        <time>2010-01-01T01:58:05Z</time>
      </trkpt>
      <trkpt lat="44.22157" lon="6.18876">
        <ele>1700</ele>
        <time>2010-01-01T01:58:06Z</time>
      </trkpt>
      <trkpt lat="44.22155" lon="6.18879">
        <ele>1700</ele>
        <time>2010-01-01T01:58:06Z</time>
      </trkpt>
      <trkpt lat="44.22153" lon="6.18883">
        <ele>1700</ele>
        <time>2010-01-01T01:58:07Z</time>
      </trkpt>
      <trkpt lat="44.2215" lon="6.18885">
        <ele>1700</ele>
        <time>2010-01-01T01:58:08Z</time>
      </trkpt>
      <trkpt lat="44.22147" lon="6.18886">
        <ele>1700</ele>
        <time>2010-01-01T01:58:09Z</time>
      </trkpt>
      <trkpt lat="44.22146" lon="6.18891">
        <ele>1700</ele>
        <time>2010-01-01T01:58:10Z</time>
      </trkpt>
      <trkpt lat="44.22145" lon="6.18895">
        <ele>1700</ele>
        <time>2010-01-01T01:58:11Z</time>
      </trkpt>
      <trkpt lat="44.22143" lon="6.18898">
        <ele>1699</ele>
        <time>2010-01-01T01:58:11Z</time>
      </trkpt>
      <trkpt lat="44.22141" lon="6.18901">
        <ele>1699</ele>
        <time>2010-01-01T01:58:12Z</time>
      </trkpt>
      <trkpt lat="44.22139" lon="6.18905">
        <ele>1699</ele>
        <time>2010-01-01T01:58:13Z</time>
      </trkpt>
      <trkpt lat="44.22137" lon="6.18908">
        <ele>1699</ele>
        <time>2010-01-01T01:58:14Z</time>
      </trkpt>
      <trkpt lat="44.22136" lon="6.18911">
        <ele>1699</ele>
        <time>2010-01-01T01:58:15Z</time>
      </trkpt>
      <trkpt lat="44.22134" lon="6.18915">
        <ele>1699</ele>
        <time>2010-01-01T01:58:15Z</time>
      </trkpt>
      <trkpt lat="44.22132" lon="6.1892">
        <ele>1699</ele>
        <time>2010-01-01T01:58:17Z</time>
      </trkpt>
      <trkpt lat="44.2213" lon="6.18923">
        <ele>1699</ele>
        <time>2010-01-01T01:58:17Z</time>
      </trkpt>
      <trkpt lat="44.22126" lon="6.18923">
        <ele>1699</ele>
        <time>2010-01-01T01:58:18Z</time>
      </trkpt>
      <trkpt lat="44.22123" lon="6.18923">
        <ele>1700</ele>
        <time>2010-01-01T01:58:19Z</time>
      </trkpt>
      <trkpt lat="44.22118" lon="6.18927">
        <ele>1700</ele>
        <time>2010-01-01T01:58:21Z</time>
      </trkpt>
      <trkpt lat="44.22119" lon="6.18931">
        <ele>1699</ele>
        <time>2010-01-01T01:58:22Z</time>
      </trkpt>
      <trkpt lat="44.22116" lon="6.18929">
        <ele>1700</ele>
        <time>2010-01-01T01:58:22Z</time>
      </trkpt>
      <trkpt lat="44.22113" lon="6.18931">
        <ele>1700</ele>
        <time>2010-01-01T01:58:23Z</time>
      </trkpt>
      <trkpt lat="44.22116" lon="6.18928">
        <ele>1700</ele>
        <time>2010-01-01T01:58:24Z</time>
      </trkpt>
      <trkpt lat="44.22119" lon="6.18927">
        <ele>1700</ele>
        <time>2010-01-01T01:58:25Z</time>
      </trkpt>
      <trkpt lat="44.22122" lon="6.18924">
        <ele>1700</ele>
        <time>2010-01-01T01:58:26Z</time>
      </trkpt>
      <trkpt lat="44.22124" lon="6.18921">
        <ele>1700</ele>
        <time>2010-01-01T01:58:27Z</time>
      </trkpt>
      <trkpt lat="44.22128" lon="6.18916">
        <ele>1700</ele>
        <time>2010-01-01T01:58:28Z</time>
      </trkpt>
      <trkpt lat="44.2213" lon="6.18911">
        <ele>1700</ele>
        <time>2010-01-01T01:58:29Z</time>
      </trkpt>
      <trkpt lat="44.22131" lon="6.18906">
        <ele>1701</ele>
        <time>2010-01-01T01:58:30Z</time>
      </trkpt>
      <trkpt lat="44.22132" lon="6.18902">
        <ele>1701</ele>
        <time>2010-01-01T01:58:31Z</time>
      </trkpt>
      <trkpt lat="44.22133" lon="6.18897">
        <ele>1702</ele>
        <time>2010-01-01T01:58:32Z</time>
      </trkpt>
      <trkpt lat="44.22133" lon="6.18893">
        <ele>1702</ele>
        <time>2010-01-01T01:58:33Z</time>
      </trkpt>
      <trkpt lat="44.22134" lon="6.18888">
        <ele>1703</ele>
        <time>2010-01-01T01:58:34Z</time>
      </trkpt>
      <trkpt lat="44.22134" lon="6.18885">
        <ele>1704</ele>
        <time>2010-01-01T01:58:35Z</time>
      </trkpt>
      <trkpt lat="44.22135" lon="6.1888">
        <ele>1705</ele>
        <time>2010-01-01T01:58:36Z</time>
      </trkpt>
      <trkpt lat="44.22135" lon="6.18876">
        <ele>1706</ele>
        <time>2010-01-01T01:58:36Z</time>
      </trkpt>
      <trkpt lat="44.22136" lon="6.18872">
        <ele>1707</ele>
        <time>2010-01-01T01:58:37Z</time>
      </trkpt>
      <trkpt lat="44.22138" lon="6.18868">
        <ele>1707</ele>
        <time>2010-01-01T01:58:38Z</time>
      </trkpt>
      <trkpt lat="44.22139" lon="6.18863">
        <ele>1708</ele>
        <time>2010-01-01T01:58:39Z</time>
      </trkpt>
      <trkpt lat="44.22141" lon="6.18859">
        <ele>1709</ele>
        <time>2010-01-01T01:58:40Z</time>
      </trkpt>
      <trkpt lat="44.22142" lon="6.18854">
        <ele>1709</ele>
        <time>2010-01-01T01:58:41Z</time>
      </trkpt>
      <trkpt lat="44.22143" lon="6.1885">
        <ele>1710</ele>
        <time>2010-01-01T01:58:42Z</time>
      </trkpt>
      <trkpt lat="44.22144" lon="6.18845">
        <ele>1710</ele>
        <time>2010-01-01T01:58:43Z</time>
      </trkpt>
      <trkpt lat="44.22145" lon="6.1884">
        <ele>1711</ele>
        <time>2010-01-01T01:58:44Z</time>
      </trkpt>
      <trkpt lat="44.22145" lon="6.18836">
        <ele>1712</ele>
        <time>2010-01-01T01:58:45Z</time>
      </trkpt>
      <trkpt lat="44.22146" lon="6.18831">
        <ele>1713</ele>
        <time>2010-01-01T01:58:46Z</time>
      </trkpt>
      <trkpt lat="44.22147" lon="6.18826">
        <ele>1713</ele>
        <time>2010-01-01T01:58:46Z</time>
      </trkpt>
      <trkpt lat="44.22149" lon="6.18822">
        <ele>1713</ele>
        <time>2010-01-01T01:58:47Z</time>
      </trkpt>
      <trkpt lat="44.2215" lon="6.18817">
        <ele>1714</ele>
        <time>2010-01-01T01:58:48Z</time>
      </trkpt>
      <trkpt lat="44.22151" lon="6.18812">
        <ele>1714</ele>
        <time>2010-01-01T01:58:49Z</time>
      </trkpt>
      <trkpt lat="44.22152" lon="6.18808">
        <ele>1714</ele>
        <time>2010-01-01T01:58:50Z</time>
      </trkpt>
      <trkpt lat="44.22153" lon="6.18804">
        <ele>1714</ele>
        <time>2010-01-01T01:58:51Z</time>
      </trkpt>
      <trkpt lat="44.22154" lon="6.18799">
        <ele>1714</ele>
        <time>2010-01-01T01:58:52Z</time>
      </trkpt>
      <trkpt lat="44.22153" lon="6.18794">
        <ele>1714</ele>
        <time>2010-01-01T01:58:53Z</time>
      </trkpt>
      <trkpt lat="44.22152" lon="6.1879">
        <ele>1714</ele>
        <time>2010-01-01T01:58:54Z</time>
      </trkpt>
      <trkpt lat="44.22152" lon="6.18785">
        <ele>1715</ele>
        <time>2010-01-01T01:58:55Z</time>
      </trkpt>
      <trkpt lat="44.22151" lon="6.1878">
        <ele>1715</ele>
        <time>2010-01-01T01:58:56Z</time>
      </trkpt>
      <trkpt lat="44.2215" lon="6.18775">
        <ele>1715</ele>
        <time>2010-01-01T01:58:57Z</time>
      </trkpt>
      <trkpt lat="44.22149" lon="6.18771">
        <ele>1716</ele>
        <time>2010-01-01T01:58:58Z</time>
      </trkpt>
      <trkpt lat="44.22148" lon="6.18766">
        <ele>1716</ele>
        <time>2010-01-01T01:58:58Z</time>
      </trkpt>
      <trkpt lat="44.22149" lon="6.18761">
        <ele>1716</ele>
        <time>2010-01-01T01:58:59Z</time>
      </trkpt>
      <trkpt lat="44.22149" lon="6.18755">
        <ele>1716</ele>
        <time>2010-01-01T01:59:01Z</time>
      </trkpt>
      <trkpt lat="44.2215" lon="6.1875">
        <ele>1716</ele>
        <time>2010-01-01T01:59:02Z</time>
      </trkpt>
      <trkpt lat="44.2215" lon="6.18745">
        <ele>1717</ele>
        <time>2010-01-01T01:59:03Z</time>
      </trkpt>
      <trkpt lat="44.22151" lon="6.18741">
        <ele>1718</ele>
        <time>2010-01-01T01:59:03Z</time>
      </trkpt>
      <trkpt lat="44.22152" lon="6.18737">
        <ele>1718</ele>
        <time>2010-01-01T01:59:04Z</time>
      </trkpt>
      <trkpt lat="44.22153" lon="6.18732">
        <ele>1719</ele>
        <time>2010-01-01T01:59:05Z</time>
      </trkpt>
      <trkpt lat="44.22154" lon="6.18727">
        <ele>1719</ele>
        <time>2010-01-01T01:59:06Z</time>
      </trkpt>
      <trkpt lat="44.22155" lon="6.18723">
        <ele>1720</ele>
        <time>2010-01-01T01:59:07Z</time>
      </trkpt>
      <trkpt lat="44.22155" lon="6.18717">
        <ele>1720</ele>
        <time>2010-01-01T01:59:08Z</time>
      </trkpt>
      <trkpt lat="44.22154" lon="6.18713">
        <ele>1721</ele>
        <time>2010-01-01T01:59:09Z</time>
      </trkpt>
      <trkpt lat="44.22156" lon="6.18709">
        <ele>1720</ele>
        <time>2010-01-01T01:59:10Z</time>
      </trkpt>
      <trkpt lat="44.22157" lon="6.18704">
        <ele>1721</ele>
        <time>2010-01-01T01:59:11Z</time>
      </trkpt>
      <trkpt lat="44.22157" lon="6.187">
        <ele>1721</ele>
        <time>2010-01-01T01:59:11Z</time>
      </trkpt>
      <trkpt lat="44.22157" lon="6.18696">
        <ele>1721</ele>
        <time>2010-01-01T01:59:12Z</time>
      </trkpt>
      <trkpt lat="44.22159" lon="6.18693">
        <ele>1720</ele>
        <time>2010-01-01T01:59:13Z</time>
      </trkpt>
      <trkpt lat="44.22161" lon="6.18689">
        <ele>1720</ele>
        <time>2010-01-01T01:59:14Z</time>
      </trkpt>
      <trkpt lat="44.22161" lon="6.18685">
        <ele>1719</ele>
        <time>2010-01-01T01:59:15Z</time>
      </trkpt>
      <trkpt lat="44.2216" lon="6.18681">
        <ele>1720</ele>
        <time>2010-01-01T01:59:15Z</time>
      </trkpt>
      <trkpt lat="44.2216" lon="6.18677">
        <ele>1719</ele>
        <time>2010-01-01T01:59:16Z</time>
      </trkpt>
      <trkpt lat="44.2216" lon="6.18673">
        <ele>1720</ele>
        <time>2010-01-01T01:59:17Z</time>
      </trkpt>
      <trkpt lat="44.2216" lon="6.18669">
        <ele>1719</ele>
        <time>2010-01-01T01:59:18Z</time>
      </trkpt>
      <trkpt lat="44.22161" lon="6.18664">
        <ele>1719</ele>
        <time>2010-01-01T01:59:19Z</time>
      </trkpt>
      <trkpt lat="44.22161" lon="6.1866">
        <ele>1719</ele>
        <time>2010-01-01T01:59:19Z</time>
      </trkpt>
      <trkpt lat="44.22162" lon="6.18655">
        <ele>1718</ele>
        <time>2010-01-01T01:59:20Z</time>
      </trkpt>
      <trkpt lat="44.22163" lon="6.1865">
        <ele>1718</ele>
        <time>2010-01-01T01:59:21Z</time>
      </trkpt>
      <trkpt lat="44.22163" lon="6.18645">
        <ele>1718</ele>
        <time>2010-01-01T01:59:22Z</time>
      </trkpt>
      <trkpt lat="44.22163" lon="6.1864">
        <ele>1717</ele>
        <time>2010-01-01T01:59:23Z</time>
      </trkpt>
      <trkpt lat="44.22162" lon="6.18636">
        <ele>1718</ele>
        <time>2010-01-01T01:59:24Z</time>
      </trkpt>
      <trkpt lat="44.22162" lon="6.1863">
        <ele>1719</ele>
        <time>2010-01-01T01:59:25Z</time>
      </trkpt>
      <trkpt lat="44.22162" lon="6.18626">
        <ele>1719</ele>
        <time>2010-01-01T01:59:26Z</time>
      </trkpt>
      <trkpt lat="44.22162" lon="6.1862">
        <ele>1720</ele>
        <time>2010-01-01T01:59:27Z</time>
      </trkpt>
      <trkpt lat="44.22162" lon="6.18616">
        <ele>1720</ele>
        <time>2010-01-01T01:59:28Z</time>
      </trkpt>
      <trkpt lat="44.22162" lon="6.18612">
        <ele>1721</ele>
        <time>2010-01-01T01:59:29Z</time>
      </trkpt>
      <trkpt lat="44.22162" lon="6.18607">
        <ele>1721</ele>
        <time>2010-01-01T01:59:30Z</time>
      </trkpt>
      <trkpt lat="44.22162" lon="6.18602">
        <ele>1722</ele>
        <time>2010-01-01T01:59:31Z</time>
      </trkpt>
      <trkpt lat="44.22162" lon="6.18598">
        <ele>1722</ele>
        <time>2010-01-01T01:59:31Z</time>
      </trkpt>
      <trkpt lat="44.22162" lon="6.18594">
        <ele>1722</ele>
        <time>2010-01-01T01:59:32Z</time>
      </trkpt>
      <trkpt lat="44.22163" lon="6.18589">
        <ele>1723</ele>
        <time>2010-01-01T01:59:33Z</time>
      </trkpt>
      <trkpt lat="44.22164" lon="6.18584">
        <ele>1723</ele>
        <time>2010-01-01T01:59:34Z</time>
      </trkpt>
      <trkpt lat="44.22166" lon="6.1858">
        <ele>1723</ele>
        <time>2010-01-01T01:59:35Z</time>
      </trkpt>
      <trkpt lat="44.22167" lon="6.18576">
        <ele>1723</ele>
        <time>2010-01-01T01:59:36Z</time>
      </trkpt>
      <trkpt lat="44.22166" lon="6.18572">
        <ele>1724</ele>
        <time>2010-01-01T01:59:37Z</time>
      </trkpt>
      <trkpt lat="44.22167" lon="6.18569">
        <ele>1724</ele>
        <time>2010-01-01T01:59:37Z</time>
      </trkpt>
      <trkpt lat="44.22168" lon="6.18565">
        <ele>1724</ele>
        <time>2010-01-01T01:59:38Z</time>
      </trkpt>
      <trkpt lat="44.22169" lon="6.1856">
        <ele>1725</ele>
        <time>2010-01-01T01:59:39Z</time>
      </trkpt>
      <trkpt lat="44.2217" lon="6.18555">
        <ele>1725</ele>
        <time>2010-01-01T01:59:40Z</time>
      </trkpt>
      <trkpt lat="44.22172" lon="6.1855">
        <ele>1725</ele>
        <time>2010-01-01T01:59:41Z</time>
      </trkpt>
      <trkpt lat="44.22174" lon="6.18546">
        <ele>1726</ele>
        <time>2010-01-01T01:59:42Z</time>
      </trkpt>
      <trkpt lat="44.22175" lon="6.18541">
        <ele>1726</ele>
        <time>2010-01-01T01:59:43Z</time>
      </trkpt>
      <trkpt lat="44.22178" lon="6.18537">
        <ele>1726</ele>
        <time>2010-01-01T01:59:44Z</time>
      </trkpt>
      <trkpt lat="44.22181" lon="6.18532">
        <ele>1726</ele>
        <time>2010-01-01T01:59:45Z</time>
      </trkpt>
      <trkpt lat="44.22184" lon="6.18528">
        <ele>1726</ele>
        <time>2010-01-01T01:59:46Z</time>
      </trkpt>
      <trkpt lat="44.22186" lon="6.18523">
        <ele>1726</ele>
        <time>2010-01-01T01:59:48Z</time>
      </trkpt>
      <trkpt lat="44.22188" lon="6.18519">
        <ele>1726</ele>
        <time>2010-01-01T01:59:49Z</time>
      </trkpt>
      <trkpt lat="44.22189" lon="6.18514">
        <ele>1726</ele>
        <time>2010-01-01T01:59:49Z</time>
      </trkpt>
      <trkpt lat="44.2219" lon="6.18509">
        <ele>1726</ele>
        <time>2010-01-01T01:59:51Z</time>
      </trkpt>
      <trkpt lat="44.22191" lon="6.18504">
        <ele>1726</ele>
        <time>2010-01-01T01:59:51Z</time>
      </trkpt>
      <trkpt lat="44.22191" lon="6.18499">
        <ele>1726</ele>
        <time>2010-01-01T01:59:52Z</time>
      </trkpt>
      <trkpt lat="44.22191" lon="6.18494">
        <ele>1726</ele>
        <time>2010-01-01T01:59:53Z</time>
      </trkpt>
      <trkpt lat="44.22192" lon="6.18488">
        <ele>1726</ele>
        <time>2010-01-01T01:59:54Z</time>
      </trkpt>
      <trkpt lat="44.22192" lon="6.18483">
        <ele>1726</ele>
        <time>2010-01-01T01:59:56Z</time>
      </trkpt>
      <trkpt lat="44.22192" lon="6.18477">
        <ele>1726</ele>
        <time>2010-01-01T01:59:57Z</time>
      </trkpt>
      <trkpt lat="44.22192" lon="6.18472">
        <ele>1726</ele>
        <time>2010-01-01T01:59:58Z</time>
      </trkpt>
      <trkpt lat="44.22193" lon="6.18467">
        <ele>1727</ele>
        <time>2010-01-01T01:59:59Z</time>
      </trkpt>
      <trkpt lat="44.22193" lon="6.18461">
        <ele>1727</ele>
        <time>2010-01-01T02:00:00Z</time>
      </trkpt>
      <trkpt lat="44.22193" lon="6.18456">
        <ele>1727</ele>
        <time>2010-01-01T02:00:01Z</time>
      </trkpt>
      <trkpt lat="44.22192" lon="6.18451">
        <ele>1728</ele>
        <time>2010-01-01T02:00:02Z</time>
      </trkpt>
      <trkpt lat="44.22191" lon="6.18446">
        <ele>1729</ele>
        <time>2010-01-01T02:00:03Z</time>
      </trkpt>
      <trkpt lat="44.22191" lon="6.18441">
        <ele>1729</ele>
        <time>2010-01-01T02:00:04Z</time>
      </trkpt>
      <trkpt lat="44.22192" lon="6.18436">
        <ele>1729</ele>
        <time>2010-01-01T02:00:05Z</time>
      </trkpt>
      <trkpt lat="44.22191" lon="6.1843">
        <ele>1730</ele>
        <time>2010-01-01T02:00:06Z</time>
      </trkpt>
      <trkpt lat="44.22192" lon="6.18424">
        <ele>1730</ele>
        <time>2010-01-01T02:00:07Z</time>
      </trkpt>
      <trkpt lat="44.22192" lon="6.18418">
        <ele>1730</ele>
        <time>2010-01-01T02:00:08Z</time>
      </trkpt>
      <trkpt lat="44.22193" lon="6.18412">
        <ele>1729</ele>
        <time>2010-01-01T02:00:09Z</time>
      </trkpt>
      <trkpt lat="44.22193" lon="6.18405">
        <ele>1729</ele>
        <time>2010-01-01T02:00:11Z</time>
      </trkpt>
      <trkpt lat="44.22194" lon="6.18399">
        <ele>1728</ele>
        <time>2010-01-01T02:00:12Z</time>
      </trkpt>
      <trkpt lat="44.22193" lon="6.18392">
        <ele>1727</ele>
        <time>2010-01-01T02:00:13Z</time>
      </trkpt>
      <trkpt lat="44.22192" lon="6.18385">
        <ele>1727</ele>
        <time>2010-01-01T02:00:14Z</time>
      </trkpt>
      <trkpt lat="44.22191" lon="6.18379">
        <ele>1727</ele>
        <time>2010-01-01T02:00:16Z</time>
      </trkpt>
      <trkpt lat="44.22189" lon="6.18373">
        <ele>1727</ele>
        <time>2010-01-01T02:00:17Z</time>
      </trkpt>
      <trkpt lat="44.22187" lon="6.18368">
        <ele>1727</ele>
        <time>2010-01-01T02:00:18Z</time>
      </trkpt>
      <trkpt lat="44.22185" lon="6.18363">
        <ele>1727</ele>
        <time>2010-01-01T02:00:19Z</time>
      </trkpt>
      <trkpt lat="44.22184" lon="6.18358">
        <ele>1728</ele>
        <time>2010-01-01T02:00:20Z</time>
      </trkpt>
      <trkpt lat="44.22182" lon="6.18353">
        <ele>1728</ele>
        <time>2010-01-01T02:00:21Z</time>
      </trkpt>
      <trkpt lat="44.2218" lon="6.18348">
        <ele>1728</ele>
        <time>2010-01-01T02:00:22Z</time>
      </trkpt>
      <trkpt lat="44.22178" lon="6.18343">
        <ele>1728</ele>
        <time>2010-01-01T02:00:23Z</time>
      </trkpt>
      <trkpt lat="44.22176" lon="6.18339">
        <ele>1729</ele>
        <time>2010-01-01T02:00:24Z</time>
      </trkpt>
      <trkpt lat="44.22174" lon="6.18335">
        <ele>1729</ele>
        <time>2010-01-01T02:00:25Z</time>
      </trkpt>
      <trkpt lat="44.22171" lon="6.18332">
        <ele>1730</ele>
        <time>2010-01-01T02:00:26Z</time>
      </trkpt>
      <trkpt lat="44.22169" lon="6.18328">
        <ele>1731</ele>
        <time>2010-01-01T02:00:27Z</time>
      </trkpt>
      <trkpt lat="44.22167" lon="6.18325">
        <ele>1732</ele>
        <time>2010-01-01T02:00:28Z</time>
      </trkpt>
      <trkpt lat="44.22164" lon="6.18321">
        <ele>1733</ele>
        <time>2010-01-01T02:00:29Z</time>
      </trkpt>
      <trkpt lat="44.22163" lon="6.18317">
        <ele>1734</ele>
        <time>2010-01-01T02:00:30Z</time>
      </trkpt>
      <trkpt lat="44.22165" lon="6.18312">
        <ele>1733</ele>
        <time>2010-01-01T02:00:31Z</time>
      </trkpt>
      <trkpt lat="44.22168" lon="6.18307">
        <ele>1731</ele>
        <time>2010-01-01T02:00:32Z</time>
      </trkpt>
      <trkpt lat="44.2217" lon="6.18302">
        <ele>1731</ele>
        <time>2010-01-01T02:00:33Z</time>
      </trkpt>
      <trkpt lat="44.2217" lon="6.18297">
        <ele>1732</ele>
        <time>2010-01-01T02:00:34Z</time>
      </trkpt>
      <trkpt lat="44.22171" lon="6.18291">
        <ele>1732</ele>
        <time>2010-01-01T02:00:35Z</time>
      </trkpt>
      <trkpt lat="44.22171" lon="6.18286">
        <ele>1733</ele>
        <time>2010-01-01T02:00:36Z</time>
      </trkpt>
      <trkpt lat="44.22172" lon="6.1828">
        <ele>1734</ele>
        <time>2010-01-01T02:00:37Z</time>
      </trkpt>
      <trkpt lat="44.22172" lon="6.18275">
        <ele>1735</ele>
        <time>2010-01-01T02:00:38Z</time>
      </trkpt>
      <trkpt lat="44.22172" lon="6.18269">
        <ele>1735</ele>
        <time>2010-01-01T02:00:39Z</time>
      </trkpt>
      <trkpt lat="44.22172" lon="6.18264">
        <ele>1736</ele>
        <time>2010-01-01T02:00:40Z</time>
      </trkpt>
      <trkpt lat="44.22171" lon="6.18259">
        <ele>1737</ele>
        <time>2010-01-01T02:00:41Z</time>
      </trkpt>
      <trkpt lat="44.22171" lon="6.18255">
        <ele>1738</ele>
        <time>2010-01-01T02:00:42Z</time>
      </trkpt>
      <trkpt lat="44.22171" lon="6.18249">
        <ele>1738</ele>
        <time>2010-01-01T02:00:43Z</time>
      </trkpt>
      <trkpt lat="44.2217" lon="6.18244">
        <ele>1738</ele>
        <time>2010-01-01T02:00:44Z</time>
      </trkpt>
      <trkpt lat="44.22169" lon="6.18239">
        <ele>1738</ele>
        <time>2010-01-01T02:00:45Z</time>
      </trkpt>
      <trkpt lat="44.22168" lon="6.18234">
        <ele>1737</ele>
        <time>2010-01-01T02:00:46Z</time>
      </trkpt>
      <trkpt lat="44.22167" lon="6.18229">
        <ele>1737</ele>
        <time>2010-01-01T02:00:47Z</time>
      </trkpt>
      <trkpt lat="44.22166" lon="6.18224">
        <ele>1737</ele>
        <time>2010-01-01T02:00:48Z</time>
      </trkpt>
      <trkpt lat="44.22165" lon="6.18218">
        <ele>1738</ele>
        <time>2010-01-01T02:00:49Z</time>
      </trkpt>
      <trkpt lat="44.22164" lon="6.18213">
        <ele>1739</ele>
        <time>2010-01-01T02:00:51Z</time>
      </trkpt>
      <trkpt lat="44.22163" lon="6.18207">
        <ele>1740</ele>
        <time>2010-01-01T02:00:52Z</time>
      </trkpt>
      <trkpt lat="44.22161" lon="6.18202">
        <ele>1741</ele>
        <time>2010-01-01T02:00:53Z</time>
      </trkpt>
      <trkpt lat="44.2216" lon="6.18197">
        <ele>1742</ele>
        <time>2010-01-01T02:00:54Z</time>
      </trkpt>
      <trkpt lat="44.22159" lon="6.18193">
        <ele>1743</ele>
        <time>2010-01-01T02:00:54Z</time>
      </trkpt>
      <trkpt lat="44.22158" lon="6.18189">
        <ele>1744</ele>
        <time>2010-01-01T02:00:55Z</time>
      </trkpt>
      <trkpt lat="44.22158" lon="6.18184">
        <ele>1744</ele>
        <time>2010-01-01T02:00:56Z</time>
      </trkpt>
      <trkpt lat="44.22157" lon="6.18178">
        <ele>1744</ele>
        <time>2010-01-01T02:00:57Z</time>
      </trkpt>
      <trkpt lat="44.22156" lon="6.18172">
        <ele>1744</ele>
        <time>2010-01-01T02:00:59Z</time>
      </trkpt>
      <trkpt lat="44.22155" lon="6.18167">
        <ele>1745</ele>
        <time>2010-01-01T02:01:00Z</time>
      </trkpt>
      <trkpt lat="44.22153" lon="6.1816">
        <ele>1747</ele>
        <time>2010-01-01T02:01:01Z</time>
      </trkpt>
      <trkpt lat="44.22153" lon="6.18155">
        <ele>1748</ele>
        <time>2010-01-01T02:01:02Z</time>
      </trkpt>
      <trkpt lat="44.22152" lon="6.1815">
        <ele>1749</ele>
        <time>2010-01-01T02:01:03Z</time>
      </trkpt>
      <trkpt lat="44.22151" lon="6.18145">
        <ele>1750</ele>
        <time>2010-01-01T02:01:04Z</time>
      </trkpt>
      <trkpt lat="44.2215" lon="6.18141">
        <ele>1750</ele>
        <time>2010-01-01T02:01:05Z</time>
      </trkpt>
      <trkpt lat="44.22149" lon="6.18137">
        <ele>1751</ele>
        <time>2010-01-01T02:01:06Z</time>
      </trkpt>
      <trkpt lat="44.22149" lon="6.18132">
        <ele>1752</ele>
        <time>2010-01-01T02:01:07Z</time>
      </trkpt>
      <trkpt lat="44.22149" lon="6.18125">
        <ele>1752</ele>
        <time>2010-01-01T02:01:08Z</time>
      </trkpt>
      <trkpt lat="44.2215" lon="6.18119">
        <ele>1753</ele>
        <time>2010-01-01T02:01:09Z</time>
      </trkpt>
      <trkpt lat="44.2215" lon="6.18114">
        <ele>1753</ele>
        <time>2010-01-01T02:01:10Z</time>
      </trkpt>
      <trkpt lat="44.22149" lon="6.18108">
        <ele>1754</ele>
        <time>2010-01-01T02:01:11Z</time>
      </trkpt>
      <trkpt lat="44.22149" lon="6.18104">
        <ele>1755</ele>
        <time>2010-01-01T02:01:12Z</time>
      </trkpt>
      <trkpt lat="44.22149" lon="6.181">
        <ele>1756</ele>
        <time>2010-01-01T02:01:13Z</time>
      </trkpt>
      <trkpt lat="44.22149" lon="6.18095">
        <ele>1756</ele>
        <time>2010-01-01T02:01:14Z</time>
      </trkpt>
      <trkpt lat="44.2215" lon="6.1809">
        <ele>1757</ele>
        <time>2010-01-01T02:01:15Z</time>
      </trkpt>
      <trkpt lat="44.2215" lon="6.18086">
        <ele>1757</ele>
        <time>2010-01-01T02:01:15Z</time>
      </trkpt>
      <trkpt lat="44.22149" lon="6.18082">
        <ele>1758</ele>
        <time>2010-01-01T02:01:16Z</time>
      </trkpt>
      <trkpt lat="44.22149" lon="6.18078">
        <ele>1759</ele>
        <time>2010-01-01T02:01:17Z</time>
      </trkpt>
      <trkpt lat="44.22152" lon="6.18076">
        <ele>1758</ele>
        <time>2010-01-01T02:01:18Z</time>
      </trkpt>
      <trkpt lat="44.22156" lon="6.18079">
        <ele>1755</ele>
        <time>2010-01-01T02:01:19Z</time>
      </trkpt>
      <trkpt lat="44.22159" lon="6.18081">
        <ele>1753</ele>
        <time>2010-01-01T02:01:20Z</time>
      </trkpt>
      <trkpt lat="44.22162" lon="6.18081">
        <ele>1751</ele>
        <time>2010-01-01T02:01:21Z</time>
      </trkpt>
      <trkpt lat="44.22166" lon="6.18082">
        <ele>1749</ele>
        <time>2010-01-01T02:01:22Z</time>
      </trkpt>
      <trkpt lat="44.22169" lon="6.18083">
        <ele>1747</ele>
        <time>2010-01-01T02:01:23Z</time>
      </trkpt>
      <trkpt lat="44.22172" lon="6.18082">
        <ele>1746</ele>
        <time>2010-01-01T02:01:24Z</time>
      </trkpt>
      <trkpt lat="44.22176" lon="6.18081">
        <ele>1745</ele>
        <time>2010-01-01T02:01:25Z</time>
      </trkpt>
      <trkpt lat="44.22181" lon="6.18082">
        <ele>1743</ele>
        <time>2010-01-01T02:01:26Z</time>
      </trkpt>
      <trkpt lat="44.22184" lon="6.18082">
        <ele>1741</ele>
        <time>2010-01-01T02:01:27Z</time>
      </trkpt>
      <trkpt lat="44.22187" lon="6.18082">
        <ele>1740</ele>
        <time>2010-01-01T02:01:28Z</time>
      </trkpt>
      <trkpt lat="44.2219" lon="6.18082">
        <ele>1739</ele>
        <time>2010-01-01T02:01:28Z</time>
      </trkpt>
      <trkpt lat="44.22193" lon="6.18081">
        <ele>1737</ele>
        <time>2010-01-01T02:01:29Z</time>
      </trkpt>
      <trkpt lat="44.22197" lon="6.18081">
        <ele>1736</ele>
        <time>2010-01-01T02:01:30Z</time>
      </trkpt>
      <trkpt lat="44.22199" lon="6.18079">
        <ele>1736</ele>
        <time>2010-01-01T02:01:31Z</time>
      </trkpt>
      <trkpt lat="44.22203" lon="6.18079">
        <ele>1734</ele>
        <time>2010-01-01T02:01:32Z</time>
      </trkpt>
      <trkpt lat="44.22206" lon="6.18078">
        <ele>1733</ele>
        <time>2010-01-01T02:01:33Z</time>
      </trkpt>
      <trkpt lat="44.22208" lon="6.18077">
        <ele>1733</ele>
        <time>2010-01-01T02:01:33Z</time>
      </trkpt>
      <trkpt lat="44.22211" lon="6.18075">
        <ele>1732</ele>
        <time>2010-01-01T02:01:34Z</time>
      </trkpt>
      <trkpt lat="44.22214" lon="6.18073">
        <ele>1732</ele>
        <time>2010-01-01T02:01:35Z</time>
      </trkpt>
      <trkpt lat="44.22216" lon="6.1807">
        <ele>1732</ele>
        <time>2010-01-01T02:01:36Z</time>
      </trkpt>
      <trkpt lat="44.22218" lon="6.18066">
        <ele>1732</ele>
        <time>2010-01-01T02:01:37Z</time>
      </trkpt>
      <trkpt lat="44.22221" lon="6.18061">
        <ele>1732</ele>
        <time>2010-01-01T02:01:38Z</time>
      </trkpt>
      <trkpt lat="44.22223" lon="6.18058">
        <ele>1732</ele>
        <time>2010-01-01T02:01:39Z</time>
      </trkpt>
      <trkpt lat="44.22225" lon="6.18055">
        <ele>1732</ele>
        <time>2010-01-01T02:01:40Z</time>
      </trkpt>
      <trkpt lat="44.22227" lon="6.1805">
        <ele>1733</ele>
        <time>2010-01-01T02:01:41Z</time>
      </trkpt>
      <trkpt lat="44.22229" lon="6.18046">
        <ele>1733</ele>
        <time>2010-01-01T02:01:42Z</time>
      </trkpt>
      <trkpt lat="44.22231" lon="6.18042">
        <ele>1734</ele>
        <time>2010-01-01T02:01:43Z</time>
      </trkpt>
      <trkpt lat="44.22233" lon="6.18037">
        <ele>1736</ele>
        <time>2010-01-01T02:01:44Z</time>
      </trkpt>
      <trkpt lat="44.22235" lon="6.18032">
        <ele>1737</ele>
        <time>2010-01-01T02:01:45Z</time>
      </trkpt>
      <trkpt lat="44.22237" lon="6.18027">
        <ele>1738</ele>
        <time>2010-01-01T02:01:46Z</time>
      </trkpt>
      <trkpt lat="44.22239" lon="6.18022">
        <ele>1739</ele>
        <time>2010-01-01T02:01:47Z</time>
      </trkpt>
      <trkpt lat="44.22241" lon="6.18018">
        <ele>1740</ele>
        <time>2010-01-01T02:01:48Z</time>
      </trkpt>
      <trkpt lat="44.22243" lon="6.18013">
        <ele>1741</ele>
        <time>2010-01-01T02:01:49Z</time>
      </trkpt>
      <trkpt lat="44.22244" lon="6.18008">
        <ele>1742</ele>
        <time>2010-01-01T02:01:50Z</time>
      </trkpt>
      <trkpt lat="44.22246" lon="6.18003">
        <ele>1743</ele>
        <time>2010-01-01T02:01:51Z</time>
      </trkpt>
      <trkpt lat="44.22247" lon="6.17998">
        <ele>1744</ele>
        <time>2010-01-01T02:01:52Z</time>
      </trkpt>
      <trkpt lat="44.22249" lon="6.17993">
        <ele>1745</ele>
        <time>2010-01-01T02:01:53Z</time>
      </trkpt>
      <trkpt lat="44.2225" lon="6.17988">
        <ele>1745</ele>
        <time>2010-01-01T02:01:54Z</time>
      </trkpt>
      <trkpt lat="44.22252" lon="6.17983">
        <ele>1746</ele>
        <time>2010-01-01T02:01:55Z</time>
      </trkpt>
      <trkpt lat="44.22254" lon="6.17978">
        <ele>1746</ele>
        <time>2010-01-01T02:01:56Z</time>
      </trkpt>
      <trkpt lat="44.22256" lon="6.17973">
        <ele>1746</ele>
        <time>2010-01-01T02:01:57Z</time>
      </trkpt>
      <trkpt lat="44.22258" lon="6.17969">
        <ele>1747</ele>
        <time>2010-01-01T02:01:58Z</time>
      </trkpt>
      <trkpt lat="44.22259" lon="6.17964">
        <ele>1747</ele>
        <time>2010-01-01T02:01:59Z</time>
      </trkpt>
      <trkpt lat="44.22261" lon="6.17959">
        <ele>1747</ele>
        <time>2010-01-01T02:02:00Z</time>
      </trkpt>
      <trkpt lat="44.22262" lon="6.17954">
        <ele>1748</ele>
        <time>2010-01-01T02:02:01Z</time>
      </trkpt>
      <trkpt lat="44.22264" lon="6.17949">
        <ele>1748</ele>
        <time>2010-01-01T02:02:02Z</time>
      </trkpt>
      <trkpt lat="44.22265" lon="6.17944">
        <ele>1749</ele>
        <time>2010-01-01T02:02:04Z</time>
      </trkpt>
      <trkpt lat="44.22266" lon="6.17939">
        <ele>1748</ele>
        <time>2010-01-01T02:02:05Z</time>
      </trkpt>
      <trkpt lat="44.22268" lon="6.17934">
        <ele>1748</ele>
        <time>2010-01-01T02:02:06Z</time>
      </trkpt>
      <trkpt lat="44.22269" lon="6.17929">
        <ele>1748</ele>
        <time>2010-01-01T02:02:07Z</time>
      </trkpt>
      <trkpt lat="44.2227" lon="6.17924">
        <ele>1748</ele>
        <time>2010-01-01T02:02:07Z</time>
      </trkpt>
      <trkpt lat="44.22271" lon="6.17919">
        <ele>1748</ele>
        <time>2010-01-01T02:02:09Z</time>
      </trkpt>
      <trkpt lat="44.22272" lon="6.17913">
        <ele>1748</ele>
        <time>2010-01-01T02:02:10Z</time>
      </trkpt>
      <trkpt lat="44.22273" lon="6.17908">
        <ele>1749</ele>
        <time>2010-01-01T02:02:11Z</time>
      </trkpt>
      <trkpt lat="44.22274" lon="6.17903">
        <ele>1749</ele>
        <time>2010-01-01T02:02:12Z</time>
      </trkpt>
      <trkpt lat="44.22276" lon="6.17897">
        <ele>1749</ele>
        <time>2010-01-01T02:02:13Z</time>
      </trkpt>
      <trkpt lat="44.22277" lon="6.17892">
        <ele>1749</ele>
        <time>2010-01-01T02:02:14Z</time>
      </trkpt>
      <trkpt lat="44.22277" lon="6.17888">
        <ele>1750</ele>
        <time>2010-01-01T02:02:15Z</time>
      </trkpt>
      <trkpt lat="44.22278" lon="6.17883">
        <ele>1750</ele>
        <time>2010-01-01T02:02:16Z</time>
      </trkpt>
      <trkpt lat="44.2228" lon="6.17878">
        <ele>1750</ele>
        <time>2010-01-01T02:02:17Z</time>
      </trkpt>
      <trkpt lat="44.22281" lon="6.17873">
        <ele>1750</ele>
        <time>2010-01-01T02:02:18Z</time>
      </trkpt>
      <trkpt lat="44.22281" lon="6.17868">
        <ele>1750</ele>
        <time>2010-01-01T02:02:19Z</time>
      </trkpt>
      <trkpt lat="44.22281" lon="6.17863">
        <ele>1751</ele>
        <time>2010-01-01T02:02:20Z</time>
      </trkpt>
      <trkpt lat="44.22282" lon="6.1786">
        <ele>1751</ele>
        <time>2010-01-01T02:02:20Z</time>
      </trkpt>
      <trkpt lat="44.22284" lon="6.17857">
        <ele>1751</ele>
        <time>2010-01-01T02:02:21Z</time>
      </trkpt>
      <trkpt lat="44.22286" lon="6.17852">
        <ele>1751</ele>
        <time>2010-01-01T02:02:22Z</time>
      </trkpt>
      <trkpt lat="44.22287" lon="6.17848">
        <ele>1751</ele>
        <time>2010-01-01T02:02:23Z</time>
      </trkpt>
      <trkpt lat="44.22288" lon="6.17844">
        <ele>1751</ele>
        <time>2010-01-01T02:02:24Z</time>
      </trkpt>
      <trkpt lat="44.22288" lon="6.17839">
        <ele>1751</ele>
        <time>2010-01-01T02:02:25Z</time>
      </trkpt>
      <trkpt lat="44.22289" lon="6.17835">
        <ele>1751</ele>
        <time>2010-01-01T02:02:26Z</time>
      </trkpt>
      <trkpt lat="44.2229" lon="6.17831">
        <ele>1752</ele>
        <time>2010-01-01T02:02:26Z</time>
      </trkpt>
      <trkpt lat="44.2229" lon="6.17826">
        <ele>1752</ele>
        <time>2010-01-01T02:02:27Z</time>
      </trkpt>
      <trkpt lat="44.22291" lon="6.17821">
        <ele>1752</ele>
        <time>2010-01-01T02:02:28Z</time>
      </trkpt>
      <trkpt lat="44.22292" lon="6.17816">
        <ele>1751</ele>
        <time>2010-01-01T02:02:29Z</time>
      </trkpt>
      <trkpt lat="44.22293" lon="6.17811">
        <ele>1751</ele>
        <time>2010-01-01T02:02:30Z</time>
      </trkpt>
      <trkpt lat="44.22294" lon="6.17806">
        <ele>1751</ele>
        <time>2010-01-01T02:02:31Z</time>
      </trkpt>
      <trkpt lat="44.22295" lon="6.17801">
        <ele>1750</ele>
        <time>2010-01-01T02:02:32Z</time>
      </trkpt>
      <trkpt lat="44.22296" lon="6.17796">
        <ele>1750</ele>
        <time>2010-01-01T02:02:33Z</time>
      </trkpt>
      <trkpt lat="44.22296" lon="6.17791">
        <ele>1750</ele>
        <time>2010-01-01T02:02:34Z</time>
      </trkpt>
      <trkpt lat="44.22297" lon="6.17786">
        <ele>1750</ele>
        <time>2010-01-01T02:02:35Z</time>
      </trkpt>
      <trkpt lat="44.22298" lon="6.17781">
        <ele>1749</ele>
        <time>2010-01-01T02:02:36Z</time>
      </trkpt>
      <trkpt lat="44.22299" lon="6.17776">
        <ele>1749</ele>
        <time>2010-01-01T02:02:37Z</time>
      </trkpt>
      <trkpt lat="44.22301" lon="6.1777">
        <ele>1750</ele>
        <time>2010-01-01T02:02:38Z</time>
      </trkpt>
      <trkpt lat="44.22302" lon="6.17766">
        <ele>1750</ele>
        <time>2010-01-01T02:02:39Z</time>
      </trkpt>
      <trkpt lat="44.22303" lon="6.1776">
        <ele>1751</ele>
        <time>2010-01-01T02:02:40Z</time>
      </trkpt>
      <trkpt lat="44.22304" lon="6.17755">
        <ele>1752</ele>
        <time>2010-01-01T02:02:41Z</time>
      </trkpt>
      <trkpt lat="44.22305" lon="6.1775">
        <ele>1753</ele>
        <time>2010-01-01T02:02:42Z</time>
      </trkpt>
      <trkpt lat="44.22306" lon="6.17744">
        <ele>1754</ele>
        <time>2010-01-01T02:02:44Z</time>
      </trkpt>
      <trkpt lat="44.22306" lon="6.17739">
        <ele>1754</ele>
        <time>2010-01-01T02:02:45Z</time>
      </trkpt>
      <trkpt lat="44.22307" lon="6.17734">
        <ele>1755</ele>
        <time>2010-01-01T02:02:45Z</time>
      </trkpt>
      <trkpt lat="44.22307" lon="6.1773">
        <ele>1755</ele>
        <time>2010-01-01T02:02:46Z</time>
      </trkpt>
      <trkpt lat="44.22308" lon="6.17724">
        <ele>1756</ele>
        <time>2010-01-01T02:02:47Z</time>
      </trkpt>
      <trkpt lat="44.22308" lon="6.17719">
        <ele>1757</ele>
        <time>2010-01-01T02:02:48Z</time>
      </trkpt>
      <trkpt lat="44.22308" lon="6.17714">
        <ele>1757</ele>
        <time>2010-01-01T02:02:49Z</time>
      </trkpt>
      <trkpt lat="44.22309" lon="6.17709">
        <ele>1758</ele>
        <time>2010-01-01T02:02:50Z</time>
      </trkpt>
      <trkpt lat="44.2231" lon="6.17703">
        <ele>1758</ele>
        <time>2010-01-01T02:02:51Z</time>
      </trkpt>
      <trkpt lat="44.22311" lon="6.17698">
        <ele>1758</ele>
        <time>2010-01-01T02:02:53Z</time>
      </trkpt>
      <trkpt lat="44.22312" lon="6.17693">
        <ele>1758</ele>
        <time>2010-01-01T02:02:53Z</time>
      </trkpt>
      <trkpt lat="44.22313" lon="6.17688">
        <ele>1758</ele>
        <time>2010-01-01T02:02:54Z</time>
      </trkpt>
      <trkpt lat="44.22314" lon="6.17682">
        <ele>1758</ele>
        <time>2010-01-01T02:02:56Z</time>
      </trkpt>
      <trkpt lat="44.22316" lon="6.17677">
        <ele>1757</ele>
        <time>2010-01-01T02:02:57Z</time>
      </trkpt>
      <trkpt lat="44.22317" lon="6.17673">
        <ele>1757</ele>
        <time>2010-01-01T02:02:58Z</time>
      </trkpt>
      <trkpt lat="44.22318" lon="6.17667">
        <ele>1757</ele>
        <time>2010-01-01T02:02:59Z</time>
      </trkpt>
      <trkpt lat="44.22319" lon="6.17662">
        <ele>1757</ele>
        <time>2010-01-01T02:03:00Z</time>
      </trkpt>
      <trkpt lat="44.2232" lon="6.17657">
        <ele>1757</ele>
        <time>2010-01-01T02:03:01Z</time>
      </trkpt>
      <trkpt lat="44.22322" lon="6.17652">
        <ele>1756</ele>
        <time>2010-01-01T02:03:02Z</time>
      </trkpt>
      <trkpt lat="44.22323" lon="6.17647">
        <ele>1756</ele>
        <time>2010-01-01T02:03:03Z</time>
      </trkpt>
      <trkpt lat="44.22324" lon="6.17643">
        <ele>1756</ele>
        <time>2010-01-01T02:03:04Z</time>
      </trkpt>
      <trkpt lat="44.22325" lon="6.17638">
        <ele>1757</ele>
        <time>2010-01-01T02:03:05Z</time>
      </trkpt>
      <trkpt lat="44.22325" lon="6.17634">
        <ele>1757</ele>
        <time>2010-01-01T02:03:05Z</time>
      </trkpt>
      <trkpt lat="44.22326" lon="6.17629">
        <ele>1758</ele>
        <time>2010-01-01T02:03:06Z</time>
      </trkpt>
      <trkpt lat="44.22328" lon="6.17624">
        <ele>1758</ele>
        <time>2010-01-01T02:03:07Z</time>
      </trkpt>
      <trkpt lat="44.22329" lon="6.1762">
        <ele>1758</ele>
        <time>2010-01-01T02:03:08Z</time>
      </trkpt>
      <trkpt lat="44.2233" lon="6.17616">
        <ele>1759</ele>
        <time>2010-01-01T02:03:09Z</time>
      </trkpt>
      <trkpt lat="44.22331" lon="6.17611">
        <ele>1759</ele>
        <time>2010-01-01T02:03:10Z</time>
      </trkpt>
      <trkpt lat="44.22333" lon="6.17607">
        <ele>1758</ele>
        <time>2010-01-01T02:03:11Z</time>
      </trkpt>
      <trkpt lat="44.22334" lon="6.17602">
        <ele>1759</ele>
        <time>2010-01-01T02:03:12Z</time>
      </trkpt>
      <trkpt lat="44.22335" lon="6.17596">
        <ele>1760</ele>
        <time>2010-01-01T02:03:13Z</time>
      </trkpt>
      <trkpt lat="44.22335" lon="6.1759">
        <ele>1761</ele>
        <time>2010-01-01T02:03:14Z</time>
      </trkpt>
      <trkpt lat="44.22335" lon="6.17586">
        <ele>1762</ele>
        <time>2010-01-01T02:03:15Z</time>
      </trkpt>
      <trkpt lat="44.22337" lon="6.17582">
        <ele>1762</ele>
        <time>2010-01-01T02:03:16Z</time>
      </trkpt>
      <trkpt lat="44.22338" lon="6.17577">
        <ele>1762</ele>
        <time>2010-01-01T02:03:17Z</time>
      </trkpt>
      <trkpt lat="44.22339" lon="6.17572">
        <ele>1762</ele>
        <time>2010-01-01T02:03:18Z</time>
      </trkpt>
      <trkpt lat="44.2234" lon="6.17567">
        <ele>1763</ele>
        <time>2010-01-01T02:03:19Z</time>
      </trkpt>
      <trkpt lat="44.22342" lon="6.17562">
        <ele>1763</ele>
        <time>2010-01-01T02:03:20Z</time>
      </trkpt>
      <trkpt lat="44.22343" lon="6.17556">
        <ele>1763</ele>
        <time>2010-01-01T02:03:21Z</time>
      </trkpt>
      <trkpt lat="44.22344" lon="6.1755">
        <ele>1763</ele>
        <time>2010-01-01T02:03:22Z</time>
      </trkpt>
      <trkpt lat="44.22345" lon="6.17543">
        <ele>1764</ele>
        <time>2010-01-01T02:03:24Z</time>
      </trkpt>
      <trkpt lat="44.22346" lon="6.17537">
        <ele>1764</ele>
        <time>2010-01-01T02:03:25Z</time>
      </trkpt>
      <trkpt lat="44.22348" lon="6.17531">
        <ele>1764</ele>
        <time>2010-01-01T02:03:26Z</time>
      </trkpt>
      <trkpt lat="44.22349" lon="6.17524">
        <ele>1764</ele>
        <time>2010-01-01T02:03:27Z</time>
      </trkpt>
      <trkpt lat="44.22351" lon="6.17518">
        <ele>1764</ele>
        <time>2010-01-01T02:03:29Z</time>
      </trkpt>
      <trkpt lat="44.22352" lon="6.17512">
        <ele>1764</ele>
        <time>2010-01-01T02:03:30Z</time>
      </trkpt>
      <trkpt lat="44.22354" lon="6.17506">
        <ele>1764</ele>
        <time>2010-01-01T02:03:31Z</time>
      </trkpt>
      <trkpt lat="44.22356" lon="6.175">
        <ele>1764</ele>
        <time>2010-01-01T02:03:32Z</time>
      </trkpt>
      <trkpt lat="44.22358" lon="6.17495">
        <ele>1763</ele>
        <time>2010-01-01T02:03:33Z</time>
      </trkpt>
      <trkpt lat="44.2236" lon="6.17489">
        <ele>1763</ele>
        <time>2010-01-01T02:03:35Z</time>
      </trkpt>
      <trkpt lat="44.22361" lon="6.17483">
        <ele>1763</ele>
        <time>2010-01-01T02:03:36Z</time>
      </trkpt>
      <trkpt lat="44.22363" lon="6.17477">
        <ele>1763</ele>
        <time>2010-01-01T02:03:37Z</time>
      </trkpt>
      <trkpt lat="44.22364" lon="6.1747">
        <ele>1763</ele>
        <time>2010-01-01T02:03:39Z</time>
      </trkpt>
      <trkpt lat="44.22365" lon="6.17463">
        <ele>1763</ele>
        <time>2010-01-01T02:03:40Z</time>
      </trkpt>
      <trkpt lat="44.22365" lon="6.17458">
        <ele>1763</ele>
        <time>2010-01-01T02:03:41Z</time>
      </trkpt>
      <trkpt lat="44.22366" lon="6.17452">
        <ele>1763</ele>
        <time>2010-01-01T02:03:42Z</time>
      </trkpt>
      <trkpt lat="44.22367" lon="6.17446">
        <ele>1763</ele>
        <time>2010-01-01T02:03:43Z</time>
      </trkpt>
      <trkpt lat="44.22367" lon="6.1744">
        <ele>1763</ele>
        <time>2010-01-01T02:03:44Z</time>
      </trkpt>
      <trkpt lat="44.22369" lon="6.17436">
        <ele>1763</ele>
        <time>2010-01-01T02:03:45Z</time>
      </trkpt>
      <trkpt lat="44.22372" lon="6.17431">
        <ele>1762</ele>
        <time>2010-01-01T02:03:46Z</time>
      </trkpt>
      <trkpt lat="44.22374" lon="6.17425">
        <ele>1762</ele>
        <time>2010-01-01T02:03:48Z</time>
      </trkpt>
      <trkpt lat="44.22375" lon="6.17422">
        <ele>1762</ele>
        <time>2010-01-01T02:03:48Z</time>
      </trkpt>
      <trkpt lat="44.22378" lon="6.17419">
        <ele>1761</ele>
        <time>2010-01-01T02:03:49Z</time>
      </trkpt>
      <trkpt lat="44.2238" lon="6.17415">
        <ele>1760</ele>
        <time>2010-01-01T02:03:50Z</time>
      </trkpt>
      <trkpt lat="44.22382" lon="6.1741">
        <ele>1760</ele>
        <time>2010-01-01T02:03:51Z</time>
      </trkpt>
      <trkpt lat="44.22385" lon="6.17405">
        <ele>1759</ele>
        <time>2010-01-01T02:03:52Z</time>
      </trkpt>
      <trkpt lat="44.22387" lon="6.17401">
        <ele>1758</ele>
        <time>2010-01-01T02:03:54Z</time>
      </trkpt>
      <trkpt lat="44.2239" lon="6.17395">
        <ele>1758</ele>
        <time>2010-01-01T02:03:55Z</time>
      </trkpt>
      <trkpt lat="44.22392" lon="6.17389">
        <ele>1758</ele>
        <time>2010-01-01T02:03:56Z</time>
      </trkpt>
      <trkpt lat="44.22394" lon="6.17384">
        <ele>1758</ele>
        <time>2010-01-01T02:03:57Z</time>
      </trkpt>
      <trkpt lat="44.22397" lon="6.17378">
        <ele>1758</ele>
        <time>2010-01-01T02:03:59Z</time>
      </trkpt>
      <trkpt lat="44.22399" lon="6.17373">
        <ele>1758</ele>
        <time>2010-01-01T02:04:00Z</time>
      </trkpt>
      <trkpt lat="44.224" lon="6.17368">
        <ele>1758</ele>
        <time>2010-01-01T02:04:01Z</time>
      </trkpt>
      <trkpt lat="44.22402" lon="6.17362">
        <ele>1759</ele>
        <time>2010-01-01T02:04:02Z</time>
      </trkpt>
      <trkpt lat="44.22403" lon="6.17357">
        <ele>1759</ele>
        <time>2010-01-01T02:04:03Z</time>
      </trkpt>
      <trkpt lat="44.22405" lon="6.1735">
        <ele>1760</ele>
        <time>2010-01-01T02:04:04Z</time>
      </trkpt>
      <trkpt lat="44.22407" lon="6.17344">
        <ele>1761</ele>
        <time>2010-01-01T02:04:06Z</time>
      </trkpt>
      <trkpt lat="44.22409" lon="6.1734">
        <ele>1761</ele>
        <time>2010-01-01T02:04:07Z</time>
      </trkpt>
      <trkpt lat="44.22411" lon="6.17336">
        <ele>1761</ele>
        <time>2010-01-01T02:04:08Z</time>
      </trkpt>
      <trkpt lat="44.22412" lon="6.1733">
        <ele>1761</ele>
        <time>2010-01-01T02:04:09Z</time>
      </trkpt>
      <trkpt lat="44.22413" lon="6.17324">
        <ele>1762</ele>
        <time>2010-01-01T02:04:10Z</time>
      </trkpt>
      <trkpt lat="44.22413" lon="6.17319">
        <ele>1763</ele>
        <time>2010-01-01T02:04:11Z</time>
      </trkpt>
      <trkpt lat="44.22414" lon="6.17315">
        <ele>1763</ele>
        <time>2010-01-01T02:04:12Z</time>
      </trkpt>
      <trkpt lat="44.22415" lon="6.1731">
        <ele>1764</ele>
        <time>2010-01-01T02:04:13Z</time>
      </trkpt>
      <trkpt lat="44.22416" lon="6.17304">
        <ele>1764</ele>
        <time>2010-01-01T02:04:14Z</time>
      </trkpt>
      <trkpt lat="44.22416" lon="6.17299">
        <ele>1764</ele>
        <time>2010-01-01T02:04:15Z</time>
      </trkpt>
      <trkpt lat="44.22416" lon="6.17294">
        <ele>1765</ele>
        <time>2010-01-01T02:04:16Z</time>
      </trkpt>
      <trkpt lat="44.22418" lon="6.17289">
        <ele>1765</ele>
        <time>2010-01-01T02:04:17Z</time>
      </trkpt>
      <trkpt lat="44.22419" lon="6.17284">
        <ele>1764</ele>
        <time>2010-01-01T02:04:18Z</time>
      </trkpt>
      <trkpt lat="44.2242" lon="6.17277">
        <ele>1764</ele>
        <time>2010-01-01T02:04:19Z</time>
      </trkpt>
      <trkpt lat="44.22421" lon="6.17271">
        <ele>1764</ele>
        <time>2010-01-01T02:04:20Z</time>
      </trkpt>
      <trkpt lat="44.22422" lon="6.17266">
        <ele>1763</ele>
        <time>2010-01-01T02:04:21Z</time>
      </trkpt>
      <trkpt lat="44.22422" lon="6.1726">
        <ele>1763</ele>
        <time>2010-01-01T02:04:23Z</time>
      </trkpt>
      <trkpt lat="44.22422" lon="6.17254">
        <ele>1763</ele>
        <time>2010-01-01T02:04:24Z</time>
      </trkpt>
      <trkpt lat="44.22422" lon="6.17249">
        <ele>1763</ele>
        <time>2010-01-01T02:04:25Z</time>
      </trkpt>
      <trkpt lat="44.22421" lon="6.17243">
        <ele>1763</ele>
        <time>2010-01-01T02:04:26Z</time>
      </trkpt>
      <trkpt lat="44.22421" lon="6.17237">
        <ele>1763</ele>
        <time>2010-01-01T02:04:27Z</time>
      </trkpt>
      <trkpt lat="44.22421" lon="6.17231">
        <ele>1762</ele>
        <time>2010-01-01T02:04:28Z</time>
      </trkpt>
      <trkpt lat="44.22421" lon="6.17224">
        <ele>1762</ele>
        <time>2010-01-01T02:04:29Z</time>
      </trkpt>
      <trkpt lat="44.22421" lon="6.17217">
        <ele>1762</ele>
        <time>2010-01-01T02:04:31Z</time>
      </trkpt>
      <trkpt lat="44.2242" lon="6.17212">
        <ele>1762</ele>
        <time>2010-01-01T02:04:32Z</time>
      </trkpt>
      <trkpt lat="44.22418" lon="6.17207">
        <ele>1762</ele>
        <time>2010-01-01T02:04:33Z</time>
      </trkpt>
      <trkpt lat="44.22417" lon="6.17201">
        <ele>1763</ele>
        <time>2010-01-01T02:04:34Z</time>
      </trkpt>
      <trkpt lat="44.22416" lon="6.17195">
        <ele>1763</ele>
        <time>2010-01-01T02:04:35Z</time>
      </trkpt>
      <trkpt lat="44.22414" lon="6.1719">
        <ele>1764</ele>
        <time>2010-01-01T02:04:36Z</time>
      </trkpt>
      <trkpt lat="44.22411" lon="6.17185">
        <ele>1765</ele>
        <time>2010-01-01T02:04:37Z</time>
      </trkpt>
      <trkpt lat="44.22409" lon="6.17181">
        <ele>1766</ele>
        <time>2010-01-01T02:04:38Z</time>
      </trkpt>
      <trkpt lat="44.22407" lon="6.17176">
        <ele>1766</ele>
        <time>2010-01-01T02:04:39Z</time>
      </trkpt>
      <trkpt lat="44.22405" lon="6.1717">
        <ele>1766</ele>
        <time>2010-01-01T02:04:41Z</time>
      </trkpt>
      <trkpt lat="44.22403" lon="6.17164">
        <ele>1766</ele>
        <time>2010-01-01T02:04:42Z</time>
      </trkpt>
      <trkpt lat="44.224" lon="6.17158">
        <ele>1766</ele>
        <time>2010-01-01T02:04:43Z</time>
      </trkpt>
      <trkpt lat="44.22398" lon="6.17153">
        <ele>1766</ele>
        <time>2010-01-01T02:04:44Z</time>
      </trkpt>
      <trkpt lat="44.22395" lon="6.17148">
        <ele>1766</ele>
        <time>2010-01-01T02:04:46Z</time>
      </trkpt>
      <trkpt lat="44.22391" lon="6.17144">
        <ele>1766</ele>
        <time>2010-01-01T02:04:47Z</time>
      </trkpt>
      <trkpt lat="44.22389" lon="6.1714">
        <ele>1766</ele>
        <time>2010-01-01T02:04:48Z</time>
      </trkpt>
      <trkpt lat="44.22386" lon="6.17135">
        <ele>1766</ele>
        <time>2010-01-01T02:04:49Z</time>
      </trkpt>
      <trkpt lat="44.22384" lon="6.17131">
        <ele>1766</ele>
        <time>2010-01-01T02:04:50Z</time>
      </trkpt>
      <trkpt lat="44.22381" lon="6.17128">
        <ele>1767</ele>
        <time>2010-01-01T02:04:51Z</time>
      </trkpt>
      <trkpt lat="44.22377" lon="6.17123">
        <ele>1768</ele>
        <time>2010-01-01T02:04:52Z</time>
      </trkpt>
      <trkpt lat="44.22374" lon="6.17119">
        <ele>1768</ele>
        <time>2010-01-01T02:04:54Z</time>
      </trkpt>
      <trkpt lat="44.22371" lon="6.17115">
        <ele>1769</ele>
        <time>2010-01-01T02:04:55Z</time>
      </trkpt>
      <trkpt lat="44.22368" lon="6.17112">
        <ele>1769</ele>
        <time>2010-01-01T02:04:56Z</time>
      </trkpt>
      <trkpt lat="44.22366" lon="6.17109">
        <ele>1770</ele>
        <time>2010-01-01T02:04:56Z</time>
      </trkpt>
      <trkpt lat="44.22363" lon="6.17105">
        <ele>1770</ele>
        <time>2010-01-01T02:04:57Z</time>
      </trkpt>
      <trkpt lat="44.22361" lon="6.17102">
        <ele>1771</ele>
        <time>2010-01-01T02:04:58Z</time>
      </trkpt>
      <trkpt lat="44.22358" lon="6.17098">
        <ele>1771</ele>
        <time>2010-01-01T02:04:59Z</time>
      </trkpt>
      <trkpt lat="44.22355" lon="6.17094">
        <ele>1772</ele>
        <time>2010-01-01T02:05:01Z</time>
      </trkpt>
      <trkpt lat="44.22351" lon="6.17089">
        <ele>1773</ele>
        <time>2010-01-01T02:05:02Z</time>
      </trkpt>
      <trkpt lat="44.22348" lon="6.17085">
        <ele>1774</ele>
        <time>2010-01-01T02:05:03Z</time>
      </trkpt>
      <trkpt lat="44.22344" lon="6.17082">
        <ele>1775</ele>
        <time>2010-01-01T02:05:04Z</time>
      </trkpt>
      <trkpt lat="44.22341" lon="6.17078">
        <ele>1776</ele>
        <time>2010-01-01T02:05:06Z</time>
      </trkpt>
      <trkpt lat="44.22337" lon="6.17074">
        <ele>1777</ele>
        <time>2010-01-01T02:05:07Z</time>
      </trkpt>
      <trkpt lat="44.22335" lon="6.17071">
        <ele>1777</ele>
        <time>2010-01-01T02:05:08Z</time>
      </trkpt>
      <trkpt lat="44.22332" lon="6.17067">
        <ele>1778</ele>
        <time>2010-01-01T02:05:09Z</time>
      </trkpt>
      <trkpt lat="44.2233" lon="6.17062">
        <ele>1777</ele>
        <time>2010-01-01T02:05:10Z</time>
      </trkpt>
      <trkpt lat="44.2233" lon="6.17055">
        <ele>1777</ele>
        <time>2010-01-01T02:05:11Z</time>
      </trkpt>
      <trkpt lat="44.22331" lon="6.17049">
        <ele>1776</ele>
        <time>2010-01-01T02:05:12Z</time>
      </trkpt>
      <trkpt lat="44.22334" lon="6.17044">
        <ele>1775</ele>
        <time>2010-01-01T02:05:13Z</time>
      </trkpt>
      <trkpt lat="44.22337" lon="6.17039">
        <ele>1774</ele>
        <time>2010-01-01T02:05:15Z</time>
      </trkpt>
      <trkpt lat="44.2234" lon="6.17035">
        <ele>1773</ele>
        <time>2010-01-01T02:05:16Z</time>
      </trkpt>
      <trkpt lat="44.22343" lon="6.17032">
        <ele>1772</ele>
        <time>2010-01-01T02:05:17Z</time>
      </trkpt>
      <trkpt lat="44.22345" lon="6.17029">
        <ele>1771</ele>
        <time>2010-01-01T02:05:18Z</time>
      </trkpt>
      <trkpt lat="44.22347" lon="6.17023">
        <ele>1771</ele>
        <time>2010-01-01T02:05:19Z</time>
      </trkpt>
      <trkpt lat="44.2235" lon="6.17019">
        <ele>1771</ele>
        <time>2010-01-01T02:05:20Z</time>
      </trkpt>
      <trkpt lat="44.22355" lon="6.17015">
        <ele>1770</ele>
        <time>2010-01-01T02:05:21Z</time>
      </trkpt>
      <trkpt lat="44.22358" lon="6.17013">
        <ele>1770</ele>
        <time>2010-01-01T02:05:22Z</time>
      </trkpt>
      <trkpt lat="44.2236" lon="6.17012">
        <ele>1770</ele>
        <time>2010-01-01T02:05:23Z</time>
      </trkpt>
      <trkpt lat="44.22365" lon="6.17009">
        <ele>1769</ele>
        <time>2010-01-01T02:05:24Z</time>
      </trkpt>
      <trkpt lat="44.22369" lon="6.17005">
        <ele>1769</ele>
        <time>2010-01-01T02:05:26Z</time>
      </trkpt>
      <trkpt lat="44.22372" lon="6.17004">
        <ele>1768</ele>
        <time>2010-01-01T02:05:27Z</time>
      </trkpt>
      <trkpt lat="44.22376" lon="6.17002">
        <ele>1768</ele>
        <time>2010-01-01T02:05:27Z</time>
      </trkpt>
      <trkpt lat="44.22379" lon="6.17001">
        <ele>1767</ele>
        <time>2010-01-01T02:05:29Z</time>
      </trkpt>
      <trkpt lat="44.22384" lon="6.16999">
        <ele>1766</ele>
        <time>2010-01-01T02:05:30Z</time>
      </trkpt>
      <trkpt lat="44.22388" lon="6.16998">
        <ele>1765</ele>
        <time>2010-01-01T02:05:31Z</time>
      </trkpt>
      <trkpt lat="44.22393" lon="6.16997">
        <ele>1764</ele>
        <time>2010-01-01T02:05:32Z</time>
      </trkpt>
      <trkpt lat="44.22398" lon="6.16995">
        <ele>1764</ele>
        <time>2010-01-01T02:05:34Z</time>
      </trkpt>
      <trkpt lat="44.22403" lon="6.16994">
        <ele>1763</ele>
        <time>2010-01-01T02:05:35Z</time>
      </trkpt>
      <trkpt lat="44.22408" lon="6.16992">
        <ele>1763</ele>
        <time>2010-01-01T02:05:36Z</time>
      </trkpt>
      <trkpt lat="44.22413" lon="6.1699">
        <ele>1762</ele>
        <time>2010-01-01T02:05:38Z</time>
      </trkpt>
      <trkpt lat="44.22417" lon="6.16989">
        <ele>1762</ele>
        <time>2010-01-01T02:05:39Z</time>
      </trkpt>
      <trkpt lat="44.22422" lon="6.16986">
        <ele>1762</ele>
        <time>2010-01-01T02:05:40Z</time>
      </trkpt>
      <trkpt lat="44.22425" lon="6.16984">
        <ele>1762</ele>
        <time>2010-01-01T02:05:41Z</time>
      </trkpt>
      <trkpt lat="44.22427" lon="6.16981">
        <ele>1763</ele>
        <time>2010-01-01T02:05:42Z</time>
      </trkpt>
      <trkpt lat="44.22429" lon="6.16978">
        <ele>1763</ele>
        <time>2010-01-01T02:05:43Z</time>
      </trkpt>
      <trkpt lat="44.22431" lon="6.16974">
        <ele>1764</ele>
        <time>2010-01-01T02:05:44Z</time>
      </trkpt>
      <trkpt lat="44.22432" lon="6.16971">
        <ele>1765</ele>
        <time>2010-01-01T02:05:44Z</time>
      </trkpt>
      <trkpt lat="44.22435" lon="6.16965">
        <ele>1765</ele>
        <time>2010-01-01T02:05:46Z</time>
      </trkpt>
      <trkpt lat="44.22437" lon="6.16961">
        <ele>1765</ele>
        <time>2010-01-01T02:05:47Z</time>
      </trkpt>
      <trkpt lat="44.22438" lon="6.16957">
        <ele>1765</ele>
        <time>2010-01-01T02:05:47Z</time>
      </trkpt>
      <trkpt lat="44.22439" lon="6.16953">
        <ele>1765</ele>
        <time>2010-01-01T02:05:48Z</time>
      </trkpt>
      <trkpt lat="44.2244" lon="6.1695">
        <ele>1765</ele>
        <time>2010-01-01T02:05:49Z</time>
      </trkpt>
      <trkpt lat="44.22441" lon="6.16946">
        <ele>1765</ele>
        <time>2010-01-01T02:05:50Z</time>
      </trkpt>
      <trkpt lat="44.22441" lon="6.16942">
        <ele>1766</ele>
        <time>2010-01-01T02:05:50Z</time>
      </trkpt>
      <trkpt lat="44.22442" lon="6.16938">
        <ele>1766</ele>
        <time>2010-01-01T02:05:51Z</time>
      </trkpt>
      <trkpt lat="44.22443" lon="6.16934">
        <ele>1767</ele>
        <time>2010-01-01T02:05:52Z</time>
      </trkpt>
      <trkpt lat="44.22444" lon="6.1693">
        <ele>1767</ele>
        <time>2010-01-01T02:05:53Z</time>
      </trkpt>
      <trkpt lat="44.22444" lon="6.16926">
        <ele>1768</ele>
        <time>2010-01-01T02:05:54Z</time>
      </trkpt>
      <trkpt lat="44.22445" lon="6.16922">
        <ele>1768</ele>
        <time>2010-01-01T02:05:54Z</time>
      </trkpt>
      <trkpt lat="44.22446" lon="6.16916">
        <ele>1769</ele>
        <time>2010-01-01T02:05:56Z</time>
      </trkpt>
      <trkpt lat="44.22447" lon="6.16909">
        <ele>1769</ele>
        <time>2010-01-01T02:05:57Z</time>
      </trkpt>
      <trkpt lat="44.22448" lon="6.16903">
        <ele>1769</ele>
        <time>2010-01-01T02:05:58Z</time>
      </trkpt>
      <trkpt lat="44.22448" lon="6.16897">
        <ele>1769</ele>
        <time>2010-01-01T02:05:59Z</time>
      </trkpt>
      <trkpt lat="44.22449" lon="6.16891">
        <ele>1769</ele>
        <time>2010-01-01T02:06:00Z</time>
      </trkpt>
      <trkpt lat="44.2245" lon="6.16885">
        <ele>1769</ele>
        <time>2010-01-01T02:06:02Z</time>
      </trkpt>
      <trkpt lat="44.22451" lon="6.16879">
        <ele>1770</ele>
        <time>2010-01-01T02:06:03Z</time>
      </trkpt>
      <trkpt lat="44.22452" lon="6.16874">
        <ele>1769</ele>
        <time>2010-01-01T02:06:04Z</time>
      </trkpt>
      <trkpt lat="44.22454" lon="6.1687">
        <ele>1769</ele>
        <time>2010-01-01T02:06:05Z</time>
      </trkpt>
      <trkpt lat="44.22454" lon="6.16863">
        <ele>1769</ele>
        <time>2010-01-01T02:06:06Z</time>
      </trkpt>
      <trkpt lat="44.22452" lon="6.16856">
        <ele>1770</ele>
        <time>2010-01-01T02:06:08Z</time>
      </trkpt>
      <trkpt lat="44.22452" lon="6.16852">
        <ele>1771</ele>
        <time>2010-01-01T02:06:08Z</time>
      </trkpt>
      <trkpt lat="44.22451" lon="6.16844">
        <ele>1771</ele>
        <time>2010-01-01T02:06:10Z</time>
      </trkpt>
      <trkpt lat="44.22451" lon="6.1684">
        <ele>1772</ele>
        <time>2010-01-01T02:06:10Z</time>
      </trkpt>
      <trkpt lat="44.22451" lon="6.16833">
        <ele>1772</ele>
        <time>2010-01-01T02:06:12Z</time>
      </trkpt>
      <trkpt lat="44.22451" lon="6.16829">
        <ele>1772</ele>
        <time>2010-01-01T02:06:13Z</time>
      </trkpt>
      <trkpt lat="44.22451" lon="6.16822">
        <ele>1772</ele>
        <time>2010-01-01T02:06:14Z</time>
      </trkpt>
      <trkpt lat="44.22451" lon="6.16815">
        <ele>1772</ele>
        <time>2010-01-01T02:06:15Z</time>
      </trkpt>
      <trkpt lat="44.22452" lon="6.16808">
        <ele>1772</ele>
        <time>2010-01-01T02:06:17Z</time>
      </trkpt>
      <trkpt lat="44.22452" lon="6.16801">
        <ele>1772</ele>
        <time>2010-01-01T02:06:18Z</time>
      </trkpt>
      <trkpt lat="44.22452" lon="6.16795">
        <ele>1773</ele>
        <time>2010-01-01T02:06:19Z</time>
      </trkpt>
      <trkpt lat="44.22452" lon="6.1679">
        <ele>1773</ele>
        <time>2010-01-01T02:06:20Z</time>
      </trkpt>
      <trkpt lat="44.22451" lon="6.16786">
        <ele>1773</ele>
        <time>2010-01-01T02:06:21Z</time>
      </trkpt>
      <trkpt lat="44.22452" lon="6.16782">
        <ele>1773</ele>
        <time>2010-01-01T02:06:22Z</time>
      </trkpt>
      <trkpt lat="44.22452" lon="6.16777">
        <ele>1773</ele>
        <time>2010-01-01T02:06:23Z</time>
      </trkpt>
      <trkpt lat="44.22453" lon="6.16771">
        <ele>1772</ele>
        <time>2010-01-01T02:06:24Z</time>
      </trkpt>
      <trkpt lat="44.22454" lon="6.16764">
        <ele>1772</ele>
        <time>2010-01-01T02:06:25Z</time>
      </trkpt>
      <trkpt lat="44.22453" lon="6.16758">
        <ele>1772</ele>
        <time>2010-01-01T02:06:26Z</time>
      </trkpt>
      <trkpt lat="44.22452" lon="6.16751">
        <ele>1772</ele>
        <time>2010-01-01T02:06:28Z</time>
      </trkpt>
      <trkpt lat="44.22451" lon="6.16745">
        <ele>1772</ele>
        <time>2010-01-01T02:06:29Z</time>
      </trkpt>
      <trkpt lat="44.2245" lon="6.16739">
        <ele>1773</ele>
        <time>2010-01-01T02:06:30Z</time>
      </trkpt>
      <trkpt lat="44.22449" lon="6.16732">
        <ele>1773</ele>
        <time>2010-01-01T02:06:31Z</time>
      </trkpt>
      <trkpt lat="44.22448" lon="6.16726">
        <ele>1774</ele>
        <time>2010-01-01T02:06:33Z</time>
      </trkpt>
      <trkpt lat="44.22448" lon="6.16721">
        <ele>1774</ele>
        <time>2010-01-01T02:06:34Z</time>
      </trkpt>
      <trkpt lat="44.22449" lon="6.16716">
        <ele>1772</ele>
        <time>2010-01-01T02:06:35Z</time>
      </trkpt>
      <trkpt lat="44.22449" lon="6.16712">
        <ele>1772</ele>
        <time>2010-01-01T02:06:35Z</time>
      </trkpt>
      <trkpt lat="44.22449" lon="6.16707">
        <ele>1771</ele>
        <time>2010-01-01T02:06:36Z</time>
      </trkpt>
      <trkpt lat="44.22448" lon="6.16703">
        <ele>1771</ele>
        <time>2010-01-01T02:06:37Z</time>
      </trkpt>
      <trkpt lat="44.22447" lon="6.16698">
        <ele>1771</ele>
        <time>2010-01-01T02:06:38Z</time>
      </trkpt>
      <trkpt lat="44.22446" lon="6.16694">
        <ele>1771</ele>
        <time>2010-01-01T02:06:39Z</time>
      </trkpt>
      <trkpt lat="44.22445" lon="6.1669">
        <ele>1771</ele>
        <time>2010-01-01T02:06:40Z</time>
      </trkpt>
      <trkpt lat="44.22445" lon="6.16685">
        <ele>1770</ele>
        <time>2010-01-01T02:06:41Z</time>
      </trkpt>
      <trkpt lat="44.22445" lon="6.1668">
        <ele>1770</ele>
        <time>2010-01-01T02:06:42Z</time>
      </trkpt>
      <trkpt lat="44.22443" lon="6.16674">
        <ele>1770</ele>
        <time>2010-01-01T02:06:43Z</time>
      </trkpt>
      <trkpt lat="44.22442" lon="6.16668">
        <ele>1770</ele>
        <time>2010-01-01T02:06:44Z</time>
      </trkpt>
      <trkpt lat="44.22441" lon="6.16664">
        <ele>1770</ele>
        <time>2010-01-01T02:06:45Z</time>
      </trkpt>
      <trkpt lat="44.2244" lon="6.1666">
        <ele>1770</ele>
        <time>2010-01-01T02:06:46Z</time>
      </trkpt>
      <trkpt lat="44.22439" lon="6.16656">
        <ele>1770</ele>
        <time>2010-01-01T02:06:46Z</time>
      </trkpt>
      <trkpt lat="44.22438" lon="6.16652">
        <ele>1770</ele>
        <time>2010-01-01T02:06:47Z</time>
      </trkpt>
      <trkpt lat="44.22439" lon="6.16647">
        <ele>1769</ele>
        <time>2010-01-01T02:06:48Z</time>
      </trkpt>
      <trkpt lat="44.22439" lon="6.16642">
        <ele>1769</ele>
        <time>2010-01-01T02:06:49Z</time>
      </trkpt>
      <trkpt lat="44.22437" lon="6.16633">
        <ele>1769</ele>
        <time>2010-01-01T02:06:51Z</time>
      </trkpt>
      <trkpt lat="44.22437" lon="6.16628">
        <ele>1768</ele>
        <time>2010-01-01T02:06:52Z</time>
      </trkpt>
      <trkpt lat="44.22437" lon="6.16623">
        <ele>1768</ele>
        <time>2010-01-01T02:06:53Z</time>
      </trkpt>
      <trkpt lat="44.22438" lon="6.16616">
        <ele>1767</ele>
        <time>2010-01-01T02:06:54Z</time>
      </trkpt>
      <trkpt lat="44.22439" lon="6.1661">
        <ele>1766</ele>
        <time>2010-01-01T02:06:55Z</time>
      </trkpt>
      <trkpt lat="44.22441" lon="6.16604">
        <ele>1766</ele>
        <time>2010-01-01T02:06:57Z</time>
      </trkpt>
      <trkpt lat="44.22442" lon="6.16597">
        <ele>1766</ele>
        <time>2010-01-01T02:06:58Z</time>
      </trkpt>
      <trkpt lat="44.22444" lon="6.16593">
        <ele>1765</ele>
        <time>2010-01-01T02:06:59Z</time>
      </trkpt>
      <trkpt lat="44.22446" lon="6.16588">
        <ele>1765</ele>
        <time>2010-01-01T02:07:00Z</time>
      </trkpt>
      <trkpt lat="44.22448" lon="6.16583">
        <ele>1764</ele>
        <time>2010-01-01T02:07:01Z</time>
      </trkpt>
      <trkpt lat="44.22449" lon="6.16579">
        <ele>1764</ele>
        <time>2010-01-01T02:07:02Z</time>
      </trkpt>
      <trkpt lat="44.2245" lon="6.16575">
        <ele>1765</ele>
        <time>2010-01-01T02:07:03Z</time>
      </trkpt>
      <trkpt lat="44.22452" lon="6.16571">
        <ele>1764</ele>
        <time>2010-01-01T02:07:04Z</time>
      </trkpt>
      <trkpt lat="44.22455" lon="6.16566">
        <ele>1764</ele>
        <time>2010-01-01T02:07:05Z</time>
      </trkpt>
      <trkpt lat="44.22457" lon="6.16563">
        <ele>1764</ele>
        <time>2010-01-01T02:07:06Z</time>
      </trkpt>
      <trkpt lat="44.22458" lon="6.16559">
        <ele>1764</ele>
        <time>2010-01-01T02:07:06Z</time>
      </trkpt>
      <trkpt lat="44.2246" lon="6.16556">
        <ele>1763</ele>
        <time>2010-01-01T02:07:07Z</time>
      </trkpt>
      <trkpt lat="44.22462" lon="6.16553">
        <ele>1763</ele>
        <time>2010-01-01T02:07:08Z</time>
      </trkpt>
      <trkpt lat="44.22463" lon="6.1655">
        <ele>1763</ele>
        <time>2010-01-01T02:07:09Z</time>
      </trkpt>
      <trkpt lat="44.22465" lon="6.16546">
        <ele>1763</ele>
        <time>2010-01-01T02:07:10Z</time>
      </trkpt>
      <trkpt lat="44.22467" lon="6.16543">
        <ele>1764</ele>
        <time>2010-01-01T02:07:10Z</time>
      </trkpt>
      <trkpt lat="44.22469" lon="6.16539">
        <ele>1764</ele>
        <time>2010-01-01T02:07:11Z</time>
      </trkpt>
      <trkpt lat="44.22471" lon="6.16536">
        <ele>1764</ele>
        <time>2010-01-01T02:07:12Z</time>
      </trkpt>
      <trkpt lat="44.22474" lon="6.16531">
        <ele>1764</ele>
        <time>2010-01-01T02:07:13Z</time>
      </trkpt>
      <trkpt lat="44.22477" lon="6.16525">
        <ele>1765</ele>
        <time>2010-01-01T02:07:15Z</time>
      </trkpt>
      <trkpt lat="44.22479" lon="6.16521">
        <ele>1765</ele>
        <time>2010-01-01T02:07:16Z</time>
      </trkpt>
      <trkpt lat="44.22481" lon="6.16518">
        <ele>1766</ele>
        <time>2010-01-01T02:07:16Z</time>
      </trkpt>
      <trkpt lat="44.22482" lon="6.16514">
        <ele>1766</ele>
        <time>2010-01-01T02:07:17Z</time>
      </trkpt>
      <trkpt lat="44.22484" lon="6.16511">
        <ele>1767</ele>
        <time>2010-01-01T02:07:18Z</time>
      </trkpt>
      <trkpt lat="44.22486" lon="6.16505">
        <ele>1768</ele>
        <time>2010-01-01T02:07:19Z</time>
      </trkpt>
      <trkpt lat="44.22488" lon="6.16502">
        <ele>1768</ele>
        <time>2010-01-01T02:07:20Z</time>
      </trkpt>
      <trkpt lat="44.2249" lon="6.16499">
        <ele>1769</ele>
        <time>2010-01-01T02:07:21Z</time>
      </trkpt>
      <trkpt lat="44.22492" lon="6.16496">
        <ele>1769</ele>
        <time>2010-01-01T02:07:22Z</time>
      </trkpt>
      <trkpt lat="44.22494" lon="6.16491">
        <ele>1770</ele>
        <time>2010-01-01T02:07:23Z</time>
      </trkpt>
      <trkpt lat="44.22496" lon="6.16487">
        <ele>1771</ele>
        <time>2010-01-01T02:07:24Z</time>
      </trkpt>
      <trkpt lat="44.22498" lon="6.16482">
        <ele>1772</ele>
        <time>2010-01-01T02:07:25Z</time>
      </trkpt>
      <trkpt lat="44.22499" lon="6.16479">
        <ele>1773</ele>
        <time>2010-01-01T02:07:25Z</time>
      </trkpt>
      <trkpt lat="44.22502" lon="6.16477">
        <ele>1772</ele>
        <time>2010-01-01T02:07:26Z</time>
      </trkpt>
      <trkpt lat="44.22504" lon="6.16472">
        <ele>1772</ele>
        <time>2010-01-01T02:07:27Z</time>
      </trkpt>
      <trkpt lat="44.22507" lon="6.16466">
        <ele>1772</ele>
        <time>2010-01-01T02:07:29Z</time>
      </trkpt>
      <trkpt lat="44.22509" lon="6.16461">
        <ele>1771</ele>
        <time>2010-01-01T02:07:30Z</time>
      </trkpt>
      <trkpt lat="44.22511" lon="6.16454">
        <ele>1771</ele>
        <time>2010-01-01T02:07:31Z</time>
      </trkpt>
      <trkpt lat="44.22513" lon="6.16449">
        <ele>1770</ele>
        <time>2010-01-01T02:07:32Z</time>
      </trkpt>
      <trkpt lat="44.22515" lon="6.16443">
        <ele>1770</ele>
        <time>2010-01-01T02:07:33Z</time>
      </trkpt>
      <trkpt lat="44.22516" lon="6.16439">
        <ele>1768</ele>
        <time>2010-01-01T02:07:34Z</time>
      </trkpt>
      <trkpt lat="44.22518" lon="6.16434">
        <ele>1767</ele>
        <time>2010-01-01T02:07:36Z</time>
      </trkpt>
      <trkpt lat="44.2252" lon="6.16428">
        <ele>1765</ele>
        <time>2010-01-01T02:07:37Z</time>
      </trkpt>
      <trkpt lat="44.22521" lon="6.16422">
        <ele>1764</ele>
        <time>2010-01-01T02:07:38Z</time>
      </trkpt>
      <trkpt lat="44.22522" lon="6.16415">
        <ele>1763</ele>
        <time>2010-01-01T02:07:39Z</time>
      </trkpt>
      <trkpt lat="44.22523" lon="6.16411">
        <ele>1763</ele>
        <time>2010-01-01T02:07:40Z</time>
      </trkpt>
      <trkpt lat="44.22524" lon="6.16406">
        <ele>1762</ele>
        <time>2010-01-01T02:07:41Z</time>
      </trkpt>
      <trkpt lat="44.22525" lon="6.164">
        <ele>1762</ele>
        <time>2010-01-01T02:07:42Z</time>
      </trkpt>
      <trkpt lat="44.22526" lon="6.16395">
        <ele>1761</ele>
        <time>2010-01-01T02:07:43Z</time>
      </trkpt>
      <trkpt lat="44.22527" lon="6.16389">
        <ele>1761</ele>
        <time>2010-01-01T02:07:44Z</time>
      </trkpt>
      <trkpt lat="44.22528" lon="6.16382">
        <ele>1760</ele>
        <time>2010-01-01T02:07:46Z</time>
      </trkpt>
      <trkpt lat="44.22529" lon="6.16376">
        <ele>1760</ele>
        <time>2010-01-01T02:07:47Z</time>
      </trkpt>
      <trkpt lat="44.2253" lon="6.1637">
        <ele>1760</ele>
        <time>2010-01-01T02:07:48Z</time>
      </trkpt>
      <trkpt lat="44.22531" lon="6.16363">
        <ele>1759</ele>
        <time>2010-01-01T02:07:49Z</time>
      </trkpt>
      <trkpt lat="44.22532" lon="6.16356">
        <ele>1759</ele>
        <time>2010-01-01T02:07:51Z</time>
      </trkpt>
      <trkpt lat="44.22534" lon="6.1635">
        <ele>1759</ele>
        <time>2010-01-01T02:07:52Z</time>
      </trkpt>
      <trkpt lat="44.22535" lon="6.16342">
        <ele>1758</ele>
        <time>2010-01-01T02:07:54Z</time>
      </trkpt>
      <trkpt lat="44.22536" lon="6.16339">
        <ele>1758</ele>
        <time>2010-01-01T02:07:54Z</time>
      </trkpt>
      <trkpt lat="44.22537" lon="6.16335">
        <ele>1758</ele>
        <time>2010-01-01T02:07:55Z</time>
      </trkpt>
      <trkpt lat="44.22538" lon="6.16331">
        <ele>1758</ele>
        <time>2010-01-01T02:07:56Z</time>
      </trkpt>
      <trkpt lat="44.2254" lon="6.16326">
        <ele>1758</ele>
        <time>2010-01-01T02:07:57Z</time>
      </trkpt>
      <trkpt lat="44.22541" lon="6.16322">
        <ele>1757</ele>
        <time>2010-01-01T02:07:58Z</time>
      </trkpt>
      <trkpt lat="44.22543" lon="6.16317">
        <ele>1757</ele>
        <time>2010-01-01T02:07:59Z</time>
      </trkpt>
      <trkpt lat="44.22544" lon="6.16313">
        <ele>1757</ele>
        <time>2010-01-01T02:08:00Z</time>
      </trkpt>
      <trkpt lat="44.22546" lon="6.16308">
        <ele>1757</ele>
        <time>2010-01-01T02:08:01Z</time>
      </trkpt>
      <trkpt lat="44.22548" lon="6.16305">
        <ele>1757</ele>
        <time>2010-01-01T02:08:02Z</time>
      </trkpt>
      <trkpt lat="44.2255" lon="6.16301">
        <ele>1757</ele>
        <time>2010-01-01T02:08:02Z</time>
      </trkpt>
      <trkpt lat="44.22552" lon="6.16297">
        <ele>1757</ele>
        <time>2010-01-01T02:08:03Z</time>
      </trkpt>
      <trkpt lat="44.22554" lon="6.16293">
        <ele>1758</ele>
        <time>2010-01-01T02:08:04Z</time>
      </trkpt>
      <trkpt lat="44.22557" lon="6.16288">
        <ele>1758</ele>
        <time>2010-01-01T02:08:05Z</time>
      </trkpt>
      <trkpt lat="44.22559" lon="6.16284">
        <ele>1759</ele>
        <time>2010-01-01T02:08:07Z</time>
      </trkpt>
      <trkpt lat="44.22561" lon="6.1628">
        <ele>1760</ele>
        <time>2010-01-01T02:08:08Z</time>
      </trkpt>
      <trkpt lat="44.22563" lon="6.16276">
        <ele>1760</ele>
        <time>2010-01-01T02:08:08Z</time>
      </trkpt>
      <trkpt lat="44.22564" lon="6.16272">
        <ele>1761</ele>
        <time>2010-01-01T02:08:09Z</time>
      </trkpt>
      <trkpt lat="44.22565" lon="6.16268">
        <ele>1762</ele>
        <time>2010-01-01T02:08:10Z</time>
      </trkpt>
      <trkpt lat="44.22566" lon="6.16264">
        <ele>1762</ele>
        <time>2010-01-01T02:08:11Z</time>
      </trkpt>
      <trkpt lat="44.22568" lon="6.16261">
        <ele>1763</ele>
        <time>2010-01-01T02:08:12Z</time>
      </trkpt>
      <trkpt lat="44.2257" lon="6.16256">
        <ele>1764</ele>
        <time>2010-01-01T02:08:13Z</time>
      </trkpt>
      <trkpt lat="44.22571" lon="6.16252">
        <ele>1765</ele>
        <time>2010-01-01T02:08:14Z</time>
      </trkpt>
      <trkpt lat="44.22572" lon="6.16249">
        <ele>1766</ele>
        <time>2010-01-01T02:08:14Z</time>
      </trkpt>
      <trkpt lat="44.22574" lon="6.16243">
        <ele>1766</ele>
        <time>2010-01-01T02:08:15Z</time>
      </trkpt>
      <trkpt lat="44.22576" lon="6.1624">
        <ele>1767</ele>
        <time>2010-01-01T02:08:16Z</time>
      </trkpt>
      <trkpt lat="44.22577" lon="6.16236">
        <ele>1767</ele>
        <time>2010-01-01T02:08:17Z</time>
      </trkpt>
      <trkpt lat="44.22578" lon="6.16232">
        <ele>1767</ele>
        <time>2010-01-01T02:08:18Z</time>
      </trkpt>
      <trkpt lat="44.2258" lon="6.16228">
        <ele>1768</ele>
        <time>2010-01-01T02:08:19Z</time>
      </trkpt>
      <trkpt lat="44.22581" lon="6.16223">
        <ele>1768</ele>
        <time>2010-01-01T02:08:20Z</time>
      </trkpt>
      <trkpt lat="44.22582" lon="6.16218">
        <ele>1768</ele>
        <time>2010-01-01T02:08:21Z</time>
      </trkpt>
      <trkpt lat="44.22583" lon="6.16212">
        <ele>1768</ele>
        <time>2010-01-01T02:08:22Z</time>
      </trkpt>
      <trkpt lat="44.22584" lon="6.16209">
        <ele>1768</ele>
        <time>2010-01-01T02:08:23Z</time>
      </trkpt>
      <trkpt lat="44.22586" lon="6.16205">
        <ele>1767</ele>
        <time>2010-01-01T02:08:23Z</time>
      </trkpt>
      <trkpt lat="44.22587" lon="6.16198">
        <ele>1766</ele>
        <time>2010-01-01T02:08:25Z</time>
      </trkpt>
      <trkpt lat="44.22588" lon="6.16193">
        <ele>1765</ele>
        <time>2010-01-01T02:08:26Z</time>
      </trkpt>
      <trkpt lat="44.22589" lon="6.16189">
        <ele>1763</ele>
        <time>2010-01-01T02:08:27Z</time>
      </trkpt>
      <trkpt lat="44.22591" lon="6.16184">
        <ele>1762</ele>
        <time>2010-01-01T02:08:28Z</time>
      </trkpt>
      <trkpt lat="44.22592" lon="6.1618">
        <ele>1761</ele>
        <time>2010-01-01T02:08:28Z</time>
      </trkpt>
      <trkpt lat="44.22593" lon="6.16176">
        <ele>1760</ele>
        <time>2010-01-01T02:08:29Z</time>
      </trkpt>
      <trkpt lat="44.22594" lon="6.16172">
        <ele>1759</ele>
        <time>2010-01-01T02:08:30Z</time>
      </trkpt>
      <trkpt lat="44.22595" lon="6.16168">
        <ele>1759</ele>
        <time>2010-01-01T02:08:31Z</time>
      </trkpt>
      <trkpt lat="44.22595" lon="6.16164">
        <ele>1758</ele>
        <time>2010-01-01T02:08:32Z</time>
      </trkpt>
      <trkpt lat="44.22597" lon="6.16159">
        <ele>1757</ele>
        <time>2010-01-01T02:08:33Z</time>
      </trkpt>
      <trkpt lat="44.22598" lon="6.16155">
        <ele>1756</ele>
        <time>2010-01-01T02:08:33Z</time>
      </trkpt>
      <trkpt lat="44.22597" lon="6.1616">
        <ele>1756</ele>
        <time>2010-01-01T02:08:34Z</time>
      </trkpt>
      <trkpt lat="44.22596" lon="6.16165">
        <ele>1757</ele>
        <time>2010-01-01T02:08:35Z</time>
      </trkpt>
      <trkpt lat="44.22593" lon="6.16164">
        <ele>1760</ele>
        <time>2010-01-01T02:08:36Z</time>
      </trkpt>
      <trkpt lat="44.22596" lon="6.16161">
        <ele>1758</ele>
        <time>2010-01-01T02:08:37Z</time>
      </trkpt>
      <trkpt lat="44.226" lon="6.16161">
        <ele>1754</ele>
        <time>2010-01-01T02:08:38Z</time>
      </trkpt>
      <trkpt lat="44.22601" lon="6.16157">
        <ele>1753</ele>
        <time>2010-01-01T02:08:39Z</time>
      </trkpt>
      <trkpt lat="44.22602" lon="6.16153">
        <ele>1753</ele>
        <time>2010-01-01T02:08:40Z</time>
      </trkpt>
      <trkpt lat="44.22603" lon="6.16148">
        <ele>1753</ele>
        <time>2010-01-01T02:08:41Z</time>
      </trkpt>
      <trkpt lat="44.22603" lon="6.16144">
        <ele>1752</ele>
        <time>2010-01-01T02:08:41Z</time>
      </trkpt>
      <trkpt lat="44.22604" lon="6.16138">
        <ele>1752</ele>
        <time>2010-01-01T02:08:43Z</time>
      </trkpt>
      <trkpt lat="44.22605" lon="6.16133">
        <ele>1752</ele>
        <time>2010-01-01T02:08:44Z</time>
      </trkpt>
      <trkpt lat="44.22606" lon="6.16129">
        <ele>1752</ele>
        <time>2010-01-01T02:08:44Z</time>
      </trkpt>
      <trkpt lat="44.22607" lon="6.16125">
        <ele>1752</ele>
        <time>2010-01-01T02:08:45Z</time>
      </trkpt>
      <trkpt lat="44.22608" lon="6.16121">
        <ele>1752</ele>
        <time>2010-01-01T02:08:46Z</time>
      </trkpt>
      <trkpt lat="44.22609" lon="6.16117">
        <ele>1752</ele>
        <time>2010-01-01T02:08:47Z</time>
      </trkpt>
      <trkpt lat="44.22609" lon="6.16113">
        <ele>1753</ele>
        <time>2010-01-01T02:08:48Z</time>
      </trkpt>
      <trkpt lat="44.2261" lon="6.16108">
        <ele>1753</ele>
        <time>2010-01-01T02:08:49Z</time>
      </trkpt>
      <trkpt lat="44.22611" lon="6.16104">
        <ele>1753</ele>
        <time>2010-01-01T02:08:49Z</time>
      </trkpt>
      <trkpt lat="44.22612" lon="6.16099">
        <ele>1752</ele>
        <time>2010-01-01T02:08:50Z</time>
      </trkpt>
      <trkpt lat="44.22613" lon="6.16092">
        <ele>1752</ele>
        <time>2010-01-01T02:08:52Z</time>
      </trkpt>
      <trkpt lat="44.22614" lon="6.16088">
        <ele>1752</ele>
        <time>2010-01-01T02:08:53Z</time>
      </trkpt>
      <trkpt lat="44.22615" lon="6.16085">
        <ele>1753</ele>
        <time>2010-01-01T02:08:53Z</time>
      </trkpt>
      <trkpt lat="44.22616" lon="6.16081">
        <ele>1752</ele>
        <time>2010-01-01T02:08:54Z</time>
      </trkpt>
      <trkpt lat="44.22617" lon="6.16075">
        <ele>1751</ele>
        <time>2010-01-01T02:08:55Z</time>
      </trkpt>
      <trkpt lat="44.22618" lon="6.16071">
        <ele>1751</ele>
        <time>2010-01-01T02:08:56Z</time>
      </trkpt>
      <trkpt lat="44.22619" lon="6.16065">
        <ele>1750</ele>
        <time>2010-01-01T02:08:57Z</time>
      </trkpt>
      <trkpt lat="44.2262" lon="6.1606">
        <ele>1750</ele>
        <time>2010-01-01T02:08:58Z</time>
      </trkpt>
      <trkpt lat="44.22621" lon="6.16053">
        <ele>1749</ele>
        <time>2010-01-01T02:09:00Z</time>
      </trkpt>
      <trkpt lat="44.22621" lon="6.16045">
        <ele>1747</ele>
        <time>2010-01-01T02:09:01Z</time>
      </trkpt>
      <trkpt lat="44.22622" lon="6.16041">
        <ele>1746</ele>
        <time>2010-01-01T02:09:02Z</time>
      </trkpt>
      <trkpt lat="44.22622" lon="6.16038">
        <ele>1745</ele>
        <time>2010-01-01T02:09:03Z</time>
      </trkpt>
      <trkpt lat="44.22623" lon="6.16034">
        <ele>1744</ele>
        <time>2010-01-01T02:09:03Z</time>
      </trkpt>
      <trkpt lat="44.22623" lon="6.1603">
        <ele>1742</ele>
        <time>2010-01-01T02:09:04Z</time>
      </trkpt>
      <trkpt lat="44.22624" lon="6.16026">
        <ele>1741</ele>
        <time>2010-01-01T02:09:05Z</time>
      </trkpt>
      <trkpt lat="44.22625" lon="6.16022">
        <ele>1740</ele>
        <time>2010-01-01T02:09:06Z</time>
      </trkpt>
      <trkpt lat="44.22627" lon="6.16017">
        <ele>1739</ele>
        <time>2010-01-01T02:09:07Z</time>
      </trkpt>
      <trkpt lat="44.22628" lon="6.16013">
        <ele>1738</ele>
        <time>2010-01-01T02:09:08Z</time>
      </trkpt>
      <trkpt lat="44.22629" lon="6.16008">
        <ele>1736</ele>
        <time>2010-01-01T02:09:09Z</time>
      </trkpt>
      <trkpt lat="44.22631" lon="6.16003">
        <ele>1735</ele>
        <time>2010-01-01T02:09:10Z</time>
      </trkpt>
      <trkpt lat="44.22632" lon="6.15997">
        <ele>1734</ele>
        <time>2010-01-01T02:09:11Z</time>
      </trkpt>
      <trkpt lat="44.22633" lon="6.15992">
        <ele>1734</ele>
        <time>2010-01-01T02:09:12Z</time>
      </trkpt>
      <trkpt lat="44.22635" lon="6.15987">
        <ele>1734</ele>
        <time>2010-01-01T02:09:13Z</time>
      </trkpt>
      <trkpt lat="44.22636" lon="6.15983">
        <ele>1735</ele>
        <time>2010-01-01T02:09:14Z</time>
      </trkpt>
      <trkpt lat="44.22638" lon="6.15978">
        <ele>1735</ele>
        <time>2010-01-01T02:09:15Z</time>
      </trkpt>
      <trkpt lat="44.22639" lon="6.15974">
        <ele>1736</ele>
        <time>2010-01-01T02:09:16Z</time>
      </trkpt>
      <trkpt lat="44.22639" lon="6.1597">
        <ele>1736</ele>
        <time>2010-01-01T02:09:16Z</time>
      </trkpt>
      <trkpt lat="44.22641" lon="6.15963">
        <ele>1736</ele>
        <time>2010-01-01T02:09:18Z</time>
      </trkpt>
      <trkpt lat="44.22642" lon="6.15959">
        <ele>1735</ele>
        <time>2010-01-01T02:09:19Z</time>
      </trkpt>
      <trkpt lat="44.22643" lon="6.15954">
        <ele>1735</ele>
        <time>2010-01-01T02:09:20Z</time>
      </trkpt>
      <trkpt lat="44.22643" lon="6.15958">
        <ele>1735</ele>
        <time>2010-01-01T02:09:20Z</time>
      </trkpt>
      <trkpt lat="44.22641" lon="6.15961">
        <ele>1736</ele>
        <time>2010-01-01T02:09:21Z</time>
      </trkpt>
      <trkpt lat="44.2264" lon="6.15966">
        <ele>1736</ele>
        <time>2010-01-01T02:09:22Z</time>
      </trkpt>
      <trkpt lat="44.2264" lon="6.1597">
        <ele>1736</ele>
        <time>2010-01-01T02:09:23Z</time>
      </trkpt>
      <trkpt lat="44.22641" lon="6.15967">
        <ele>1736</ele>
        <time>2010-01-01T02:09:24Z</time>
      </trkpt>
      <trkpt lat="44.22641" lon="6.15971">
        <ele>1736</ele>
        <time>2010-01-01T02:09:24Z</time>
      </trkpt>
      <trkpt lat="44.22639" lon="6.15975">
        <ele>1736</ele>
        <time>2010-01-01T02:09:25Z</time>
      </trkpt>
      <trkpt lat="44.22636" lon="6.15975">
        <ele>1735</ele>
        <time>2010-01-01T02:09:26Z</time>
      </trkpt>
      <trkpt lat="44.22633" lon="6.15975">
        <ele>1734</ele>
        <time>2010-01-01T02:09:27Z</time>
      </trkpt>
      <trkpt lat="44.22634" lon="6.1598">
        <ele>1734</ele>
        <time>2010-01-01T02:09:28Z</time>
      </trkpt>
      <trkpt lat="44.22637" lon="6.15979">
        <ele>1735</ele>
        <time>2010-01-01T02:09:29Z</time>
      </trkpt>
      <trkpt lat="44.22638" lon="6.15975">
        <ele>1736</ele>
        <time>2010-01-01T02:09:29Z</time>
      </trkpt>
      <trkpt lat="44.2264" lon="6.15972">
        <ele>1736</ele>
        <time>2010-01-01T02:09:30Z</time>
      </trkpt>
      <trkpt lat="44.22642" lon="6.15969">
        <ele>1736</ele>
        <time>2010-01-01T02:09:31Z</time>
      </trkpt>
      <trkpt lat="44.22644" lon="6.15965">
        <ele>1736</ele>
        <time>2010-01-01T02:09:32Z</time>
      </trkpt>
      <trkpt lat="44.22645" lon="6.15961">
        <ele>1735</ele>
        <time>2010-01-01T02:09:33Z</time>
      </trkpt>
      <trkpt lat="44.22643" lon="6.15959">
        <ele>1735</ele>
        <time>2010-01-01T02:09:34Z</time>
      </trkpt>
      <trkpt lat="44.22641" lon="6.15955">
        <ele>1735</ele>
        <time>2010-01-01T02:09:34Z</time>
      </trkpt>
      <trkpt lat="44.22637" lon="6.15961">
        <ele>1735</ele>
        <time>2010-01-01T02:09:36Z</time>
      </trkpt>
      <trkpt lat="44.22635" lon="6.15966">
        <ele>1734</ele>
        <time>2010-01-01T02:09:37Z</time>
      </trkpt>
      <trkpt lat="44.22631" lon="6.15971">
        <ele>1733</ele>
        <time>2010-01-01T02:09:38Z</time>
      </trkpt>
      <trkpt lat="44.22629" lon="6.15974">
        <ele>1732</ele>
        <time>2010-01-01T02:09:39Z</time>
      </trkpt>
      <trkpt lat="44.22625" lon="6.15978">
        <ele>1731</ele>
        <time>2010-01-01T02:09:40Z</time>
      </trkpt>
      <trkpt lat="44.22623" lon="6.15979">
        <ele>1730</ele>
        <time>2010-01-01T02:09:41Z</time>
      </trkpt>
      <trkpt lat="44.2262" lon="6.15984">
        <ele>1731</ele>
        <time>2010-01-01T02:09:42Z</time>
      </trkpt>
      <trkpt lat="44.22619" lon="6.1599">
        <ele>1732</ele>
        <time>2010-01-01T02:09:43Z</time>
      </trkpt>
      <trkpt lat="44.22619" lon="6.15997">
        <ele>1734</ele>
        <time>2010-01-01T02:09:45Z</time>
      </trkpt>
      <trkpt lat="44.22618" lon="6.16">
        <ele>1735</ele>
        <time>2010-01-01T02:09:45Z</time>
      </trkpt>
      <trkpt lat="44.22615" lon="6.16003">
        <ele>1736</ele>
        <time>2010-01-01T02:09:46Z</time>
      </trkpt>
      <trkpt lat="44.22613" lon="6.16005">
        <ele>1736</ele>
        <time>2010-01-01T02:09:47Z</time>
      </trkpt>
      <trkpt lat="44.2261" lon="6.16008">
        <ele>1737</ele>
        <time>2010-01-01T02:09:48Z</time>
      </trkpt>
      <trkpt lat="44.22608" lon="6.16011">
        <ele>1736</ele>
        <time>2010-01-01T02:09:49Z</time>
      </trkpt>
      <trkpt lat="44.22605" lon="6.16015">
        <ele>1736</ele>
        <time>2010-01-01T02:09:50Z</time>
      </trkpt>
      <trkpt lat="44.22603" lon="6.16018">
        <ele>1736</ele>
        <time>2010-01-01T02:09:51Z</time>
      </trkpt>
      <trkpt lat="44.226" lon="6.16021">
        <ele>1737</ele>
        <time>2010-01-01T02:09:52Z</time>
      </trkpt>
      <trkpt lat="44.22598" lon="6.16024">
        <ele>1737</ele>
        <time>2010-01-01T02:09:52Z</time>
      </trkpt>
      <trkpt lat="44.22595" lon="6.16026">
        <ele>1737</ele>
        <time>2010-01-01T02:09:53Z</time>
      </trkpt>
      <trkpt lat="44.22591" lon="6.16028">
        <ele>1737</ele>
        <time>2010-01-01T02:09:54Z</time>
      </trkpt>
      <trkpt lat="44.22588" lon="6.1603">
        <ele>1737</ele>
        <time>2010-01-01T02:09:55Z</time>
      </trkpt>
      <trkpt lat="44.22585" lon="6.16032">
        <ele>1737</ele>
        <time>2010-01-01T02:09:56Z</time>
      </trkpt>
      <trkpt lat="44.22581" lon="6.16035">
        <ele>1737</ele>
        <time>2010-01-01T02:09:57Z</time>
      </trkpt>
      <trkpt lat="44.22578" lon="6.16037">
        <ele>1735</ele>
        <time>2010-01-01T02:09:58Z</time>
      </trkpt>
      <trkpt lat="44.22576" lon="6.1604">
        <ele>1734</ele>
        <time>2010-01-01T02:09:59Z</time>
      </trkpt>
      <trkpt lat="44.22573" lon="6.16042">
        <ele>1734</ele>
        <time>2010-01-01T02:10:00Z</time>
      </trkpt>
      <trkpt lat="44.22574" lon="6.16039">
        <ele>1733</ele>
        <time>2010-01-01T02:10:01Z</time>
      </trkpt>
      <trkpt lat="44.22577" lon="6.16037">
        <ele>1734</ele>
        <time>2010-01-01T02:10:02Z</time>
      </trkpt>
      <trkpt lat="44.2258" lon="6.16032">
        <ele>1734</ele>
        <time>2010-01-01T02:10:03Z</time>
      </trkpt>
      <trkpt lat="44.22583" lon="6.16028">
        <ele>1735</ele>
        <time>2010-01-01T02:10:04Z</time>
      </trkpt>
      <trkpt lat="44.22585" lon="6.16025">
        <ele>1734</ele>
        <time>2010-01-01T02:10:05Z</time>
      </trkpt>
      <trkpt lat="44.22587" lon="6.16022">
        <ele>1734</ele>
        <time>2010-01-01T02:10:06Z</time>
      </trkpt>
      <trkpt lat="44.22589" lon="6.16019">
        <ele>1733</ele>
        <time>2010-01-01T02:10:06Z</time>
      </trkpt>
      <trkpt lat="44.22591" lon="6.16015">
        <ele>1732</ele>
        <time>2010-01-01T02:10:07Z</time>
      </trkpt>
      <trkpt lat="44.22593" lon="6.16011">
        <ele>1731</ele>
        <time>2010-01-01T02:10:08Z</time>
      </trkpt>
      <trkpt lat="44.22596" lon="6.16006">
        <ele>1731</ele>
        <time>2010-01-01T02:10:09Z</time>
      </trkpt>
      <trkpt lat="44.22598" lon="6.16003">
        <ele>1730</ele>
        <time>2010-01-01T02:10:10Z</time>
      </trkpt>
      <trkpt lat="44.22596" lon="6.16002">
        <ele>1729</ele>
        <time>2010-01-01T02:10:11Z</time>
      </trkpt>
      <trkpt lat="44.22592" lon="6.16005">
        <ele>1729</ele>
        <time>2010-01-01T02:10:12Z</time>
      </trkpt>
      <trkpt lat="44.2259" lon="6.16008">
        <ele>1729</ele>
        <time>2010-01-01T02:10:13Z</time>
      </trkpt>
      <trkpt lat="44.22587" lon="6.16011">
        <ele>1729</ele>
        <time>2010-01-01T02:10:14Z</time>
      </trkpt>
      <trkpt lat="44.22584" lon="6.16014">
        <ele>1729</ele>
        <time>2010-01-01T02:10:15Z</time>
      </trkpt>
      <trkpt lat="44.22581" lon="6.16016">
        <ele>1729</ele>
        <time>2010-01-01T02:10:16Z</time>
      </trkpt>
      <trkpt lat="44.22578" lon="6.16018">
        <ele>1728</ele>
        <time>2010-01-01T02:10:17Z</time>
      </trkpt>
      <trkpt lat="44.22575" lon="6.1602">
        <ele>1727</ele>
        <time>2010-01-01T02:10:17Z</time>
      </trkpt>
      <trkpt lat="44.22573" lon="6.16022">
        <ele>1726</ele>
        <time>2010-01-01T02:10:18Z</time>
      </trkpt>
      <trkpt lat="44.22569" lon="6.16024">
        <ele>1724</ele>
        <time>2010-01-01T02:10:19Z</time>
      </trkpt>
      <trkpt lat="44.22566" lon="6.16026">
        <ele>1723</ele>
        <time>2010-01-01T02:10:20Z</time>
      </trkpt>
      <trkpt lat="44.22562" lon="6.16028">
        <ele>1721</ele>
        <time>2010-01-01T02:10:21Z</time>
      </trkpt>
      <trkpt lat="44.22558" lon="6.16031">
        <ele>1719</ele>
        <time>2010-01-01T02:10:22Z</time>
      </trkpt>
      <trkpt lat="44.22555" lon="6.16033">
        <ele>1718</ele>
        <time>2010-01-01T02:10:24Z</time>
      </trkpt>
      <trkpt lat="44.22552" lon="6.16036">
        <ele>1716</ele>
        <time>2010-01-01T02:10:25Z</time>
      </trkpt>
      <trkpt lat="44.22549" lon="6.1604">
        <ele>1713</ele>
        <time>2010-01-01T02:10:25Z</time>
      </trkpt>
      <trkpt lat="44.22546" lon="6.16042">
        <ele>1712</ele>
        <time>2010-01-01T02:10:26Z</time>
      </trkpt>
      <trkpt lat="44.22544" lon="6.16045">
        <ele>1710</ele>
        <time>2010-01-01T02:10:27Z</time>
      </trkpt>
      <trkpt lat="44.22541" lon="6.16047">
        <ele>1707</ele>
        <time>2010-01-01T02:10:28Z</time>
      </trkpt>
      <trkpt lat="44.22538" lon="6.16049">
        <ele>1705</ele>
        <time>2010-01-01T02:10:29Z</time>
      </trkpt>
      <trkpt lat="44.22535" lon="6.16051">
        <ele>1702</ele>
        <time>2010-01-01T02:10:30Z</time>
      </trkpt>
      <trkpt lat="44.22533" lon="6.16052">
        <ele>1700</ele>
        <time>2010-01-01T02:10:30Z</time>
      </trkpt>
      <trkpt lat="44.22529" lon="6.16053">
        <ele>1696</ele>
        <time>2010-01-01T02:10:31Z</time>
      </trkpt>
      <trkpt lat="44.22526" lon="6.16055">
        <ele>1694</ele>
        <time>2010-01-01T02:10:32Z</time>
      </trkpt>
      <trkpt lat="44.22523" lon="6.16057">
        <ele>1692</ele>
        <time>2010-01-01T02:10:33Z</time>
      </trkpt>
      <trkpt lat="44.22519" lon="6.16059">
        <ele>1690</ele>
        <time>2010-01-01T02:10:34Z</time>
      </trkpt>
      <trkpt lat="44.22516" lon="6.16061">
        <ele>1688</ele>
        <time>2010-01-01T02:10:35Z</time>
      </trkpt>
      <trkpt lat="44.22512" lon="6.16063">
        <ele>1687</ele>
        <time>2010-01-01T02:10:36Z</time>
      </trkpt>
      <trkpt lat="44.2251" lon="6.16065">
        <ele>1685</ele>
        <time>2010-01-01T02:10:37Z</time>
      </trkpt>
      <trkpt lat="44.22507" lon="6.16065">
        <ele>1682</ele>
        <time>2010-01-01T02:10:38Z</time>
      </trkpt>
      <trkpt lat="44.22507" lon="6.1606">
        <ele>1681</ele>
        <time>2010-01-01T02:10:39Z</time>
      </trkpt>
      <trkpt lat="44.22509" lon="6.16058">
        <ele>1683</ele>
        <time>2010-01-01T02:10:40Z</time>
      </trkpt>
      <trkpt lat="44.22512" lon="6.16056">
        <ele>1684</ele>
        <time>2010-01-01T02:10:40Z</time>
      </trkpt>
      <trkpt lat="44.22515" lon="6.16052">
        <ele>1685</ele>
        <time>2010-01-01T02:10:41Z</time>
      </trkpt>
      <trkpt lat="44.22519" lon="6.16048">
        <ele>1687</ele>
        <time>2010-01-01T02:10:43Z</time>
      </trkpt>
      <trkpt lat="44.22522" lon="6.16046">
        <ele>1688</ele>
        <time>2010-01-01T02:10:44Z</time>
      </trkpt>
      <trkpt lat="44.22525" lon="6.16043">
        <ele>1689</ele>
        <time>2010-01-01T02:10:45Z</time>
      </trkpt>
      <trkpt lat="44.22527" lon="6.16041">
        <ele>1689</ele>
        <time>2010-01-01T02:10:45Z</time>
      </trkpt>
      <trkpt lat="44.22529" lon="6.16038">
        <ele>1691</ele>
        <time>2010-01-01T02:10:46Z</time>
      </trkpt>
      <trkpt lat="44.22532" lon="6.16035">
        <ele>1693</ele>
        <time>2010-01-01T02:10:47Z</time>
      </trkpt>
      <trkpt lat="44.22537" lon="6.16031">
        <ele>1697</ele>
        <time>2010-01-01T02:10:49Z</time>
      </trkpt>
      <trkpt lat="44.22541" lon="6.16029">
        <ele>1700</ele>
        <time>2010-01-01T02:10:50Z</time>
      </trkpt>
      <trkpt lat="44.22545" lon="6.16025">
        <ele>1704</ele>
        <time>2010-01-01T02:10:51Z</time>
      </trkpt>
      <trkpt lat="44.22547" lon="6.16022">
        <ele>1705</ele>
        <time>2010-01-01T02:10:52Z</time>
      </trkpt>
      <trkpt lat="44.22549" lon="6.16019">
        <ele>1707</ele>
        <time>2010-01-01T02:10:53Z</time>
      </trkpt>
      <trkpt lat="44.22551" lon="6.16016">
        <ele>1708</ele>
        <time>2010-01-01T02:10:53Z</time>
      </trkpt>
      <trkpt lat="44.22553" lon="6.16014">
        <ele>1710</ele>
        <time>2010-01-01T02:10:54Z</time>
      </trkpt>
      <trkpt lat="44.22557" lon="6.16009">
        <ele>1712</ele>
        <time>2010-01-01T02:10:55Z</time>
      </trkpt>
      <trkpt lat="44.2256" lon="6.16005">
        <ele>1712</ele>
        <time>2010-01-01T02:10:57Z</time>
      </trkpt>
      <trkpt lat="44.22562" lon="6.16002">
        <ele>1712</ele>
        <time>2010-01-01T02:10:57Z</time>
      </trkpt>
      <trkpt lat="44.22564" lon="6.15999">
        <ele>1712</ele>
        <time>2010-01-01T02:10:58Z</time>
      </trkpt>
      <trkpt lat="44.22566" lon="6.15996">
        <ele>1712</ele>
        <time>2010-01-01T02:10:59Z</time>
      </trkpt>
      <trkpt lat="44.22568" lon="6.15993">
        <ele>1712</ele>
        <time>2010-01-01T02:11:00Z</time>
      </trkpt>
      <trkpt lat="44.22571" lon="6.1599">
        <ele>1712</ele>
        <time>2010-01-01T02:11:01Z</time>
      </trkpt>
      <trkpt lat="44.22573" lon="6.15987">
        <ele>1712</ele>
        <time>2010-01-01T02:11:01Z</time>
      </trkpt>
      <trkpt lat="44.22575" lon="6.15983">
        <ele>1711</ele>
        <time>2010-01-01T02:11:02Z</time>
      </trkpt>
      <trkpt lat="44.22577" lon="6.1598">
        <ele>1710</ele>
        <time>2010-01-01T02:11:03Z</time>
      </trkpt>
      <trkpt lat="44.22578" lon="6.15976">
        <ele>1709</ele>
        <time>2010-01-01T02:11:04Z</time>
      </trkpt>
      <trkpt lat="44.22581" lon="6.15971">
        <ele>1708</ele>
        <time>2010-01-01T02:11:05Z</time>
      </trkpt>
      <trkpt lat="44.22584" lon="6.15965">
        <ele>1707</ele>
        <time>2010-01-01T02:11:07Z</time>
      </trkpt>
      <trkpt lat="44.22587" lon="6.1596">
        <ele>1706</ele>
        <time>2010-01-01T02:11:08Z</time>
      </trkpt>
      <trkpt lat="44.2259" lon="6.15954">
        <ele>1705</ele>
        <time>2010-01-01T02:11:09Z</time>
      </trkpt>
      <trkpt lat="44.22592" lon="6.15948">
        <ele>1704</ele>
        <time>2010-01-01T02:11:10Z</time>
      </trkpt>
      <trkpt lat="44.22593" lon="6.15944">
        <ele>1703</ele>
        <time>2010-01-01T02:11:11Z</time>
      </trkpt>
      <trkpt lat="44.22594" lon="6.1594">
        <ele>1703</ele>
        <time>2010-01-01T02:11:12Z</time>
      </trkpt>
      <trkpt lat="44.22596" lon="6.15934">
        <ele>1702</ele>
        <time>2010-01-01T02:11:13Z</time>
      </trkpt>
      <trkpt lat="44.22599" lon="6.1593">
        <ele>1703</ele>
        <time>2010-01-01T02:11:14Z</time>
      </trkpt>
      <trkpt lat="44.22603" lon="6.15924">
        <ele>1704</ele>
        <time>2010-01-01T02:11:16Z</time>
      </trkpt>
      <trkpt lat="44.22605" lon="6.15921">
        <ele>1705</ele>
        <time>2010-01-01T02:11:17Z</time>
      </trkpt>
      <trkpt lat="44.22607" lon="6.15917">
        <ele>1705</ele>
        <time>2010-01-01T02:11:18Z</time>
      </trkpt>
      <trkpt lat="44.22608" lon="6.15914">
        <ele>1706</ele>
        <time>2010-01-01T02:11:18Z</time>
      </trkpt>
      <trkpt lat="44.22609" lon="6.1591">
        <ele>1706</ele>
        <time>2010-01-01T02:11:19Z</time>
      </trkpt>
      <trkpt lat="44.2261" lon="6.15905">
        <ele>1706</ele>
        <time>2010-01-01T02:11:20Z</time>
      </trkpt>
      <trkpt lat="44.22611" lon="6.15901">
        <ele>1706</ele>
        <time>2010-01-01T02:11:21Z</time>
      </trkpt>
      <trkpt lat="44.22613" lon="6.15897">
        <ele>1707</ele>
        <time>2010-01-01T02:11:22Z</time>
      </trkpt>
      <trkpt lat="44.22615" lon="6.15894">
        <ele>1708</ele>
        <time>2010-01-01T02:11:23Z</time>
      </trkpt>
      <trkpt lat="44.22616" lon="6.1589">
        <ele>1709</ele>
        <time>2010-01-01T02:11:23Z</time>
      </trkpt>
      <trkpt lat="44.22618" lon="6.15884">
        <ele>1710</ele>
        <time>2010-01-01T02:11:25Z</time>
      </trkpt>
      <trkpt lat="44.22619" lon="6.1588">
        <ele>1710</ele>
        <time>2010-01-01T02:11:26Z</time>
      </trkpt>
      <trkpt lat="44.22621" lon="6.15876">
        <ele>1711</ele>
        <time>2010-01-01T02:11:26Z</time>
      </trkpt>
      <trkpt lat="44.22622" lon="6.15873">
        <ele>1712</ele>
        <time>2010-01-01T02:11:27Z</time>
      </trkpt>
      <trkpt lat="44.22624" lon="6.15867">
        <ele>1713</ele>
        <time>2010-01-01T02:11:28Z</time>
      </trkpt>
      <trkpt lat="44.22626" lon="6.15861">
        <ele>1713</ele>
        <time>2010-01-01T02:11:30Z</time>
      </trkpt>
      <trkpt lat="44.22627" lon="6.15857">
        <ele>1713</ele>
        <time>2010-01-01T02:11:30Z</time>
      </trkpt>
      <trkpt lat="44.22629" lon="6.1585">
        <ele>1712</ele>
        <time>2010-01-01T02:11:32Z</time>
      </trkpt>
      <trkpt lat="44.2263" lon="6.15846">
        <ele>1711</ele>
        <time>2010-01-01T02:11:33Z</time>
      </trkpt>
      <trkpt lat="44.22631" lon="6.15842">
        <ele>1710</ele>
        <time>2010-01-01T02:11:34Z</time>
      </trkpt>
      <trkpt lat="44.22632" lon="6.15838">
        <ele>1709</ele>
        <time>2010-01-01T02:11:34Z</time>
      </trkpt>
      <trkpt lat="44.22633" lon="6.15834">
        <ele>1709</ele>
        <time>2010-01-01T02:11:35Z</time>
      </trkpt>
      <trkpt lat="44.22635" lon="6.15828">
        <ele>1708</ele>
        <time>2010-01-01T02:11:36Z</time>
      </trkpt>
      <trkpt lat="44.22637" lon="6.15824">
        <ele>1707</ele>
        <time>2010-01-01T02:11:37Z</time>
      </trkpt>
      <trkpt lat="44.22637" lon="6.1582">
        <ele>1705</ele>
        <time>2010-01-01T02:11:38Z</time>
      </trkpt>
      <trkpt lat="44.22639" lon="6.15815">
        <ele>1704</ele>
        <time>2010-01-01T02:11:39Z</time>
      </trkpt>
      <trkpt lat="44.22639" lon="6.15811">
        <ele>1702</ele>
        <time>2010-01-01T02:11:40Z</time>
      </trkpt>
      <trkpt lat="44.22641" lon="6.15807">
        <ele>1700</ele>
        <time>2010-01-01T02:11:41Z</time>
      </trkpt>
      <trkpt lat="44.22643" lon="6.15803">
        <ele>1701</ele>
        <time>2010-01-01T02:11:42Z</time>
      </trkpt>
      <trkpt lat="44.22645" lon="6.158">
        <ele>1701</ele>
        <time>2010-01-01T02:11:43Z</time>
      </trkpt>
      <trkpt lat="44.22646" lon="6.15796">
        <ele>1701</ele>
        <time>2010-01-01T02:11:43Z</time>
      </trkpt>
      <trkpt lat="44.22648" lon="6.15793">
        <ele>1701</ele>
        <time>2010-01-01T02:11:44Z</time>
      </trkpt>
      <trkpt lat="44.22649" lon="6.15789">
        <ele>1701</ele>
        <time>2010-01-01T02:11:45Z</time>
      </trkpt>
      <trkpt lat="44.22649" lon="6.15784">
        <ele>1700</ele>
        <time>2010-01-01T02:11:46Z</time>
      </trkpt>
      <trkpt lat="44.22651" lon="6.15779">
        <ele>1700</ele>
        <time>2010-01-01T02:11:47Z</time>
      </trkpt>
      <trkpt lat="44.22654" lon="6.15774">
        <ele>1701</ele>
        <time>2010-01-01T02:11:48Z</time>
      </trkpt>
      <trkpt lat="44.22656" lon="6.15769">
        <ele>1702</ele>
        <time>2010-01-01T02:11:49Z</time>
      </trkpt>
      <trkpt lat="44.22659" lon="6.15765">
        <ele>1704</ele>
        <time>2010-01-01T02:11:50Z</time>
      </trkpt>
      <trkpt lat="44.22661" lon="6.15761">
        <ele>1704</ele>
        <time>2010-01-01T02:11:51Z</time>
      </trkpt>
      <trkpt lat="44.22664" lon="6.15755">
        <ele>1705</ele>
        <time>2010-01-01T02:11:53Z</time>
      </trkpt>
      <trkpt lat="44.22665" lon="6.15751">
        <ele>1706</ele>
        <time>2010-01-01T02:11:53Z</time>
      </trkpt>
      <trkpt lat="44.22666" lon="6.15748">
        <ele>1705</ele>
        <time>2010-01-01T02:11:54Z</time>
      </trkpt>
      <trkpt lat="44.22668" lon="6.15744">
        <ele>1706</ele>
        <time>2010-01-01T02:11:55Z</time>
      </trkpt>
      <trkpt lat="44.2267" lon="6.15738">
        <ele>1705</ele>
        <time>2010-01-01T02:11:56Z</time>
      </trkpt>
      <trkpt lat="44.22672" lon="6.15733">
        <ele>1705</ele>
        <time>2010-01-01T02:11:57Z</time>
      </trkpt>
      <trkpt lat="44.22673" lon="6.15729">
        <ele>1704</ele>
        <time>2010-01-01T02:11:58Z</time>
      </trkpt>
      <trkpt lat="44.22675" lon="6.15726">
        <ele>1704</ele>
        <time>2010-01-01T02:11:59Z</time>
      </trkpt>
      <trkpt lat="44.22676" lon="6.15722">
        <ele>1704</ele>
        <time>2010-01-01T02:12:00Z</time>
      </trkpt>
      <trkpt lat="44.22678" lon="6.15718">
        <ele>1703</ele>
        <time>2010-01-01T02:12:01Z</time>
      </trkpt>
      <trkpt lat="44.2268" lon="6.15714">
        <ele>1702</ele>
        <time>2010-01-01T02:12:02Z</time>
      </trkpt>
      <trkpt lat="44.22682" lon="6.1571">
        <ele>1702</ele>
        <time>2010-01-01T02:12:02Z</time>
      </trkpt>
      <trkpt lat="44.22683" lon="6.15705">
        <ele>1701</ele>
        <time>2010-01-01T02:12:03Z</time>
      </trkpt>
      <trkpt lat="44.22685" lon="6.15701">
        <ele>1700</ele>
        <time>2010-01-01T02:12:04Z</time>
      </trkpt>
      <trkpt lat="44.22687" lon="6.15696">
        <ele>1700</ele>
        <time>2010-01-01T02:12:05Z</time>
      </trkpt>
      <trkpt lat="44.2269" lon="6.15691">
        <ele>1699</ele>
        <time>2010-01-01T02:12:06Z</time>
      </trkpt>
      <trkpt lat="44.22692" lon="6.15686">
        <ele>1699</ele>
        <time>2010-01-01T02:12:08Z</time>
      </trkpt>
      <trkpt lat="44.22695" lon="6.15679">
        <ele>1700</ele>
        <time>2010-01-01T02:12:09Z</time>
      </trkpt>
      <trkpt lat="44.22697" lon="6.15674">
        <ele>1699</ele>
        <time>2010-01-01T02:12:10Z</time>
      </trkpt>
      <trkpt lat="44.22699" lon="6.15668">
        <ele>1698</ele>
        <time>2010-01-01T02:12:12Z</time>
      </trkpt>
      <trkpt lat="44.22701" lon="6.15663">
        <ele>1698</ele>
        <time>2010-01-01T02:12:13Z</time>
      </trkpt>
      <trkpt lat="44.22703" lon="6.15659">
        <ele>1697</ele>
        <time>2010-01-01T02:12:14Z</time>
      </trkpt>
      <trkpt lat="44.22705" lon="6.15654">
        <ele>1696</ele>
        <time>2010-01-01T02:12:15Z</time>
      </trkpt>
      <trkpt lat="44.22707" lon="6.1565">
        <ele>1696</ele>
        <time>2010-01-01T02:12:16Z</time>
      </trkpt>
      <trkpt lat="44.22709" lon="6.15644">
        <ele>1695</ele>
        <time>2010-01-01T02:12:17Z</time>
      </trkpt>
      <trkpt lat="44.22711" lon="6.15639">
        <ele>1694</ele>
        <time>2010-01-01T02:12:18Z</time>
      </trkpt>
      <trkpt lat="44.22713" lon="6.15635">
        <ele>1694</ele>
        <time>2010-01-01T02:12:19Z</time>
      </trkpt>
      <trkpt lat="44.22714" lon="6.1563">
        <ele>1693</ele>
        <time>2010-01-01T02:12:20Z</time>
      </trkpt>
      <trkpt lat="44.22716" lon="6.15627">
        <ele>1692</ele>
        <time>2010-01-01T02:12:21Z</time>
      </trkpt>
      <trkpt lat="44.22718" lon="6.15622">
        <ele>1692</ele>
        <time>2010-01-01T02:12:22Z</time>
      </trkpt>
      <trkpt lat="44.2272" lon="6.15617">
        <ele>1691</ele>
        <time>2010-01-01T02:12:23Z</time>
      </trkpt>
      <trkpt lat="44.22722" lon="6.15612">
        <ele>1691</ele>
        <time>2010-01-01T02:12:24Z</time>
      </trkpt>
      <trkpt lat="44.22723" lon="6.15605">
        <ele>1688</ele>
        <time>2010-01-01T02:12:25Z</time>
      </trkpt>
      <trkpt lat="44.22724" lon="6.15599">
        <ele>1687</ele>
        <time>2010-01-01T02:12:27Z</time>
      </trkpt>
      <trkpt lat="44.22727" lon="6.15592">
        <ele>1686</ele>
        <time>2010-01-01T02:12:28Z</time>
      </trkpt>
      <trkpt lat="44.22728" lon="6.15588">
        <ele>1685</ele>
        <time>2010-01-01T02:12:29Z</time>
      </trkpt>
      <trkpt lat="44.22729" lon="6.15584">
        <ele>1685</ele>
        <time>2010-01-01T02:12:30Z</time>
      </trkpt>
      <trkpt lat="44.2273" lon="6.1558">
        <ele>1684</ele>
        <time>2010-01-01T02:12:31Z</time>
      </trkpt>
      <trkpt lat="44.22731" lon="6.15577">
        <ele>1683</ele>
        <time>2010-01-01T02:12:31Z</time>
      </trkpt>
      <trkpt lat="44.22733" lon="6.15571">
        <ele>1683</ele>
        <time>2010-01-01T02:12:32Z</time>
      </trkpt>
      <trkpt lat="44.22736" lon="6.15565">
        <ele>1683</ele>
        <time>2010-01-01T02:12:34Z</time>
      </trkpt>
      <trkpt lat="44.22737" lon="6.15561">
        <ele>1683</ele>
        <time>2010-01-01T02:12:35Z</time>
      </trkpt>
      <trkpt lat="44.22739" lon="6.15557">
        <ele>1683</ele>
        <time>2010-01-01T02:12:36Z</time>
      </trkpt>
      <trkpt lat="44.22742" lon="6.15553">
        <ele>1683</ele>
        <time>2010-01-01T02:12:37Z</time>
      </trkpt>
      <trkpt lat="44.22744" lon="6.15549">
        <ele>1683</ele>
        <time>2010-01-01T02:12:37Z</time>
      </trkpt>
      <trkpt lat="44.22746" lon="6.15546">
        <ele>1683</ele>
        <time>2010-01-01T02:12:38Z</time>
      </trkpt>
      <trkpt lat="44.22748" lon="6.15541">
        <ele>1682</ele>
        <time>2010-01-01T02:12:40Z</time>
      </trkpt>
      <trkpt lat="44.22749" lon="6.15537">
        <ele>1681</ele>
        <time>2010-01-01T02:12:40Z</time>
      </trkpt>
      <trkpt lat="44.2275" lon="6.15534">
        <ele>1681</ele>
        <time>2010-01-01T02:12:41Z</time>
      </trkpt>
      <trkpt lat="44.22753" lon="6.15529">
        <ele>1680</ele>
        <time>2010-01-01T02:12:42Z</time>
      </trkpt>
      <trkpt lat="44.22756" lon="6.15524">
        <ele>1681</ele>
        <time>2010-01-01T02:12:43Z</time>
      </trkpt>
      <trkpt lat="44.22759" lon="6.1552">
        <ele>1681</ele>
        <time>2010-01-01T02:12:45Z</time>
      </trkpt>
      <trkpt lat="44.22761" lon="6.15515">
        <ele>1681</ele>
        <time>2010-01-01T02:12:46Z</time>
      </trkpt>
      <trkpt lat="44.22761" lon="6.1551">
        <ele>1678</ele>
        <time>2010-01-01T02:12:47Z</time>
      </trkpt>
      <trkpt lat="44.22764" lon="6.15503">
        <ele>1677</ele>
        <time>2010-01-01T02:12:48Z</time>
      </trkpt>
      <trkpt lat="44.22766" lon="6.155">
        <ele>1678</ele>
        <time>2010-01-01T02:12:49Z</time>
      </trkpt>
      <trkpt lat="44.22769" lon="6.15497">
        <ele>1678</ele>
        <time>2010-01-01T02:12:50Z</time>
      </trkpt>
      <trkpt lat="44.22772" lon="6.15494">
        <ele>1678</ele>
        <time>2010-01-01T02:12:51Z</time>
      </trkpt>
      <trkpt lat="44.22775" lon="6.15492">
        <ele>1678</ele>
        <time>2010-01-01T02:12:52Z</time>
      </trkpt>
      <trkpt lat="44.22779" lon="6.15488">
        <ele>1677</ele>
        <time>2010-01-01T02:12:53Z</time>
      </trkpt>
      <trkpt lat="44.22782" lon="6.15486">
        <ele>1678</ele>
        <time>2010-01-01T02:12:54Z</time>
      </trkpt>
      <trkpt lat="44.22785" lon="6.15485">
        <ele>1678</ele>
        <time>2010-01-01T02:12:55Z</time>
      </trkpt>
      <trkpt lat="44.22788" lon="6.15483">
        <ele>1678</ele>
        <time>2010-01-01T02:12:56Z</time>
      </trkpt>
      <trkpt lat="44.22792" lon="6.1548">
        <ele>1677</ele>
        <time>2010-01-01T02:12:57Z</time>
      </trkpt>
      <trkpt lat="44.22796" lon="6.15477">
        <ele>1676</ele>
        <time>2010-01-01T02:12:58Z</time>
      </trkpt>
      <trkpt lat="44.22799" lon="6.15473">
        <ele>1674</ele>
        <time>2010-01-01T02:12:59Z</time>
      </trkpt>
      <trkpt lat="44.22804" lon="6.15471">
        <ele>1674</ele>
        <time>2010-01-01T02:13:01Z</time>
      </trkpt>
      <trkpt lat="44.22806" lon="6.15469">
        <ele>1674</ele>
        <time>2010-01-01T02:13:01Z</time>
      </trkpt>
      <trkpt lat="44.22811" lon="6.15469">
        <ele>1677</ele>
        <time>2010-01-01T02:13:02Z</time>
      </trkpt>
      <trkpt lat="44.22813" lon="6.15465">
        <ele>1677</ele>
        <time>2010-01-01T02:13:03Z</time>
      </trkpt>
      <trkpt lat="44.22818" lon="6.15459">
        <ele>1676</ele>
        <time>2010-01-01T02:13:05Z</time>
      </trkpt>
      <trkpt lat="44.22823" lon="6.15456">
        <ele>1677</ele>
        <time>2010-01-01T02:13:07Z</time>
      </trkpt>
      <trkpt lat="44.22827" lon="6.15452">
        <ele>1676</ele>
        <time>2010-01-01T02:13:08Z</time>
      </trkpt>
      <trkpt lat="44.2283" lon="6.15449">
        <ele>1675</ele>
        <time>2010-01-01T02:13:09Z</time>
      </trkpt>
      <trkpt lat="44.22833" lon="6.15443">
        <ele>1672</ele>
        <time>2010-01-01T02:13:10Z</time>
      </trkpt>
      <trkpt lat="44.22836" lon="6.1544">
        <ele>1672</ele>
        <time>2010-01-01T02:13:11Z</time>
      </trkpt>
      <trkpt lat="44.22839" lon="6.15437">
        <ele>1671</ele>
        <time>2010-01-01T02:13:12Z</time>
      </trkpt>
      <trkpt lat="44.22842" lon="6.15439">
        <ele>1675</ele>
        <time>2010-01-01T02:13:13Z</time>
      </trkpt>
      <trkpt lat="44.22847" lon="6.15435">
        <ele>1676</ele>
        <time>2010-01-01T02:13:15Z</time>
      </trkpt>
      <trkpt lat="44.22851" lon="6.15431">
        <ele>1675</ele>
        <time>2010-01-01T02:13:16Z</time>
      </trkpt>
      <trkpt lat="44.22853" lon="6.15428">
        <ele>1675</ele>
        <time>2010-01-01T02:13:17Z</time>
      </trkpt>
      <trkpt lat="44.22855" lon="6.15425">
        <ele>1673</ele>
        <time>2010-01-01T02:13:18Z</time>
      </trkpt>
      <trkpt lat="44.22858" lon="6.15422">
        <ele>1672</ele>
        <time>2010-01-01T02:13:18Z</time>
      </trkpt>
      <trkpt lat="44.2286" lon="6.1542">
        <ele>1671</ele>
        <time>2010-01-01T02:13:19Z</time>
      </trkpt>
      <trkpt lat="44.22862" lon="6.15417">
        <ele>1670</ele>
        <time>2010-01-01T02:13:20Z</time>
      </trkpt>
      <trkpt lat="44.22866" lon="6.15415">
        <ele>1672</ele>
        <time>2010-01-01T02:13:21Z</time>
      </trkpt>
      <trkpt lat="44.22868" lon="6.15412">
        <ele>1673</ele>
        <time>2010-01-01T02:13:22Z</time>
      </trkpt>
      <trkpt lat="44.22872" lon="6.15408">
        <ele>1673</ele>
        <time>2010-01-01T02:13:23Z</time>
      </trkpt>
      <trkpt lat="44.22875" lon="6.15403">
        <ele>1673</ele>
        <time>2010-01-01T02:13:24Z</time>
      </trkpt>
      <trkpt lat="44.22879" lon="6.15399">
        <ele>1674</ele>
        <time>2010-01-01T02:13:26Z</time>
      </trkpt>
      <trkpt lat="44.22882" lon="6.15397">
        <ele>1675</ele>
        <time>2010-01-01T02:13:27Z</time>
      </trkpt>
      <trkpt lat="44.22884" lon="6.15393">
        <ele>1673</ele>
        <time>2010-01-01T02:13:27Z</time>
      </trkpt>
      <trkpt lat="44.22886" lon="6.1539">
        <ele>1672</ele>
        <time>2010-01-01T02:13:28Z</time>
      </trkpt>
      <trkpt lat="44.22883" lon="6.15388">
        <ele>1668</ele>
        <time>2010-01-01T02:13:29Z</time>
      </trkpt>
      <trkpt lat="44.22879" lon="6.1539">
        <ele>1665</ele>
        <time>2010-01-01T02:13:30Z</time>
      </trkpt>
      <trkpt lat="44.22874" lon="6.15393">
        <ele>1663</ele>
        <time>2010-01-01T02:13:32Z</time>
      </trkpt>
      <trkpt lat="44.22871" lon="6.15394">
        <ele>1662</ele>
        <time>2010-01-01T02:13:33Z</time>
      </trkpt>
      <trkpt lat="44.22867" lon="6.15398">
        <ele>1661</ele>
        <time>2010-01-01T02:13:34Z</time>
      </trkpt>
      <trkpt lat="44.22862" lon="6.154">
        <ele>1657</ele>
        <time>2010-01-01T02:13:35Z</time>
      </trkpt>
      <trkpt lat="44.22858" lon="6.15401">
        <ele>1656</ele>
        <time>2010-01-01T02:13:36Z</time>
      </trkpt>
      <trkpt lat="44.22853" lon="6.15404">
        <ele>1656</ele>
        <time>2010-01-01T02:13:38Z</time>
      </trkpt>
      <trkpt lat="44.2285" lon="6.15405">
        <ele>1656</ele>
        <time>2010-01-01T02:13:38Z</time>
      </trkpt>
      <trkpt lat="44.22847" lon="6.15406">
        <ele>1655</ele>
        <time>2010-01-01T02:13:39Z</time>
      </trkpt>
      <trkpt lat="44.22843" lon="6.15408">
        <ele>1655</ele>
        <time>2010-01-01T02:13:41Z</time>
      </trkpt>
      <trkpt lat="44.22839" lon="6.1541">
        <ele>1655</ele>
        <time>2010-01-01T02:13:42Z</time>
      </trkpt>
      <trkpt lat="44.22836" lon="6.15413">
        <ele>1655</ele>
        <time>2010-01-01T02:13:43Z</time>
      </trkpt>
      <trkpt lat="44.22832" lon="6.15415">
        <ele>1655</ele>
        <time>2010-01-01T02:13:44Z</time>
      </trkpt>
      <trkpt lat="44.22829" lon="6.15419">
        <ele>1656</ele>
        <time>2010-01-01T02:13:45Z</time>
      </trkpt>
      <trkpt lat="44.22826" lon="6.15422">
        <ele>1657</ele>
        <time>2010-01-01T02:13:46Z</time>
      </trkpt>
      <trkpt lat="44.22823" lon="6.15424">
        <ele>1657</ele>
        <time>2010-01-01T02:13:47Z</time>
      </trkpt>
      <trkpt lat="44.2282" lon="6.15425">
        <ele>1657</ele>
        <time>2010-01-01T02:13:48Z</time>
      </trkpt>
      <trkpt lat="44.22817" lon="6.15425">
        <ele>1657</ele>
        <time>2010-01-01T02:13:48Z</time>
      </trkpt>
      <trkpt lat="44.22813" lon="6.15426">
        <ele>1656</ele>
        <time>2010-01-01T02:13:49Z</time>
      </trkpt>
      <trkpt lat="44.2281" lon="6.15427">
        <ele>1656</ele>
        <time>2010-01-01T02:13:50Z</time>
      </trkpt>
      <trkpt lat="44.22806" lon="6.15428">
        <ele>1655</ele>
        <time>2010-01-01T02:13:51Z</time>
      </trkpt>
      <trkpt lat="44.22802" lon="6.1543">
        <ele>1654</ele>
        <time>2010-01-01T02:13:52Z</time>
      </trkpt>
      <trkpt lat="44.22799" lon="6.15432">
        <ele>1654</ele>
        <time>2010-01-01T02:13:53Z</time>
      </trkpt>
      <trkpt lat="44.22796" lon="6.15435">
        <ele>1654</ele>
        <time>2010-01-01T02:13:54Z</time>
      </trkpt>
      <trkpt lat="44.22793" lon="6.15438">
        <ele>1654</ele>
        <time>2010-01-01T02:13:55Z</time>
      </trkpt>
      <trkpt lat="44.2279" lon="6.15439">
        <ele>1654</ele>
        <time>2010-01-01T02:13:56Z</time>
      </trkpt>
      <trkpt lat="44.22785" lon="6.1544">
        <ele>1653</ele>
        <time>2010-01-01T02:13:57Z</time>
      </trkpt>
      <trkpt lat="44.22782" lon="6.15439">
        <ele>1652</ele>
        <time>2010-01-01T02:13:58Z</time>
      </trkpt>
      <trkpt lat="44.2278" lon="6.15436">
        <ele>1650</ele>
        <time>2010-01-01T02:13:59Z</time>
      </trkpt>
      <trkpt lat="44.22783" lon="6.15433">
        <ele>1650</ele>
        <time>2010-01-01T02:14:00Z</time>
      </trkpt>
      <trkpt lat="44.22787" lon="6.15429">
        <ele>1650</ele>
        <time>2010-01-01T02:14:01Z</time>
      </trkpt>
      <trkpt lat="44.2279" lon="6.15425">
        <ele>1649</ele>
        <time>2010-01-01T02:14:02Z</time>
      </trkpt>
      <trkpt lat="44.22795" lon="6.1542">
        <ele>1649</ele>
        <time>2010-01-01T02:14:04Z</time>
      </trkpt>
      <trkpt lat="44.228" lon="6.15418">
        <ele>1650</ele>
        <time>2010-01-01T02:14:05Z</time>
      </trkpt>
      <trkpt lat="44.22802" lon="6.15416">
        <ele>1650</ele>
        <time>2010-01-01T02:14:06Z</time>
      </trkpt>
      <trkpt lat="44.22805" lon="6.15414">
        <ele>1650</ele>
        <time>2010-01-01T02:14:07Z</time>
      </trkpt>
      <trkpt lat="44.22807" lon="6.15412">
        <ele>1650</ele>
        <time>2010-01-01T02:14:08Z</time>
      </trkpt>
      <trkpt lat="44.22809" lon="6.15409">
        <ele>1649</ele>
        <time>2010-01-01T02:14:08Z</time>
      </trkpt>
      <trkpt lat="44.22812" lon="6.15406">
        <ele>1648</ele>
        <time>2010-01-01T02:14:09Z</time>
      </trkpt>
      <trkpt lat="44.22815" lon="6.15404">
        <ele>1647</ele>
        <time>2010-01-01T02:14:10Z</time>
      </trkpt>
      <trkpt lat="44.22818" lon="6.15403">
        <ele>1647</ele>
        <time>2010-01-01T02:14:11Z</time>
      </trkpt>
      <trkpt lat="44.2282" lon="6.15402">
        <ele>1647</ele>
        <time>2010-01-01T02:14:12Z</time>
      </trkpt>
      <trkpt lat="44.22824" lon="6.15399">
        <ele>1646</ele>
        <time>2010-01-01T02:14:13Z</time>
      </trkpt>
      <trkpt lat="44.22826" lon="6.15397">
        <ele>1645</ele>
        <time>2010-01-01T02:14:13Z</time>
      </trkpt>
      <trkpt lat="44.22833" lon="6.15387">
        <ele>1642</ele>
        <time>2010-01-01T02:14:16Z</time>
      </trkpt>
      <trkpt lat="44.22836" lon="6.15382">
        <ele>1640</ele>
        <time>2010-01-01T02:14:17Z</time>
      </trkpt>
      <trkpt lat="44.22838" lon="6.1538">
        <ele>1640</ele>
        <time>2010-01-01T02:14:18Z</time>
      </trkpt>
      <trkpt lat="44.22842" lon="6.15374">
        <ele>1638</ele>
        <time>2010-01-01T02:14:19Z</time>
      </trkpt>
      <trkpt lat="44.22844" lon="6.15371">
        <ele>1637</ele>
        <time>2010-01-01T02:14:20Z</time>
      </trkpt>
      <trkpt lat="44.22848" lon="6.15367">
        <ele>1636</ele>
        <time>2010-01-01T02:14:22Z</time>
      </trkpt>
      <trkpt lat="44.22851" lon="6.15366">
        <ele>1636</ele>
        <time>2010-01-01T02:14:22Z</time>
      </trkpt>
      <trkpt lat="44.22854" lon="6.15364">
        <ele>1636</ele>
        <time>2010-01-01T02:14:23Z</time>
      </trkpt>
      <trkpt lat="44.22857" lon="6.15362">
        <ele>1636</ele>
        <time>2010-01-01T02:14:24Z</time>
      </trkpt>
      <trkpt lat="44.22861" lon="6.15358">
        <ele>1635</ele>
        <time>2010-01-01T02:14:25Z</time>
      </trkpt>
      <trkpt lat="44.22865" lon="6.15355">
        <ele>1635</ele>
        <time>2010-01-01T02:14:27Z</time>
      </trkpt>
      <trkpt lat="44.22869" lon="6.15351">
        <ele>1635</ele>
        <time>2010-01-01T02:14:28Z</time>
      </trkpt>
      <trkpt lat="44.22873" lon="6.15347">
        <ele>1635</ele>
        <time>2010-01-01T02:14:29Z</time>
      </trkpt>
      <trkpt lat="44.22875" lon="6.15343">
        <ele>1634</ele>
        <time>2010-01-01T02:14:30Z</time>
      </trkpt>
      <trkpt lat="44.22877" lon="6.1534">
        <ele>1632</ele>
        <time>2010-01-01T02:14:31Z</time>
      </trkpt>
      <trkpt lat="44.22879" lon="6.15336">
        <ele>1631</ele>
        <time>2010-01-01T02:14:32Z</time>
      </trkpt>
      <trkpt lat="44.22882" lon="6.1533">
        <ele>1629</ele>
        <time>2010-01-01T02:14:33Z</time>
      </trkpt>
      <trkpt lat="44.22885" lon="6.15325">
        <ele>1627</ele>
        <time>2010-01-01T02:14:35Z</time>
      </trkpt>
      <trkpt lat="44.22887" lon="6.15321">
        <ele>1626</ele>
        <time>2010-01-01T02:14:36Z</time>
      </trkpt>
      <trkpt lat="44.2289" lon="6.15317">
        <ele>1626</ele>
        <time>2010-01-01T02:14:37Z</time>
      </trkpt>
      <trkpt lat="44.22893" lon="6.15314">
        <ele>1626</ele>
        <time>2010-01-01T02:14:38Z</time>
      </trkpt>
      <trkpt lat="44.22895" lon="6.15311">
        <ele>1626</ele>
        <time>2010-01-01T02:14:38Z</time>
      </trkpt>
      <trkpt lat="44.22898" lon="6.15308">
        <ele>1626</ele>
        <time>2010-01-01T02:14:39Z</time>
      </trkpt>
      <trkpt lat="44.22901" lon="6.15305">
        <ele>1626</ele>
        <time>2010-01-01T02:14:40Z</time>
      </trkpt>
      <trkpt lat="44.22903" lon="6.15301">
        <ele>1627</ele>
        <time>2010-01-01T02:14:41Z</time>
      </trkpt>
      <trkpt lat="44.22906" lon="6.15297">
        <ele>1626</ele>
        <time>2010-01-01T02:14:42Z</time>
      </trkpt>
      <trkpt lat="44.22908" lon="6.15293">
        <ele>1627</ele>
        <time>2010-01-01T02:14:43Z</time>
      </trkpt>
      <trkpt lat="44.22912" lon="6.1529">
        <ele>1627</ele>
        <time>2010-01-01T02:14:44Z</time>
      </trkpt>
      <trkpt lat="44.22914" lon="6.15287">
        <ele>1627</ele>
        <time>2010-01-01T02:14:45Z</time>
      </trkpt>
      <trkpt lat="44.22917" lon="6.15282">
        <ele>1627</ele>
        <time>2010-01-01T02:14:46Z</time>
      </trkpt>
      <trkpt lat="44.22919" lon="6.15278">
        <ele>1626</ele>
        <time>2010-01-01T02:14:47Z</time>
      </trkpt>
      <trkpt lat="44.22923" lon="6.15274">
        <ele>1627</ele>
        <time>2010-01-01T02:14:49Z</time>
      </trkpt>
      <trkpt lat="44.22926" lon="6.15272">
        <ele>1627</ele>
        <time>2010-01-01T02:14:50Z</time>
      </trkpt>
      <trkpt lat="44.22928" lon="6.15269">
        <ele>1627</ele>
        <time>2010-01-01T02:14:50Z</time>
      </trkpt>
      <trkpt lat="44.22931" lon="6.15266">
        <ele>1627</ele>
        <time>2010-01-01T02:14:51Z</time>
      </trkpt>
      <trkpt lat="44.22934" lon="6.15263">
        <ele>1627</ele>
        <time>2010-01-01T02:14:52Z</time>
      </trkpt>
      <trkpt lat="44.22938" lon="6.15258">
        <ele>1627</ele>
        <time>2010-01-01T02:14:54Z</time>
      </trkpt>
      <trkpt lat="44.22941" lon="6.15254">
        <ele>1626</ele>
        <time>2010-01-01T02:14:55Z</time>
      </trkpt>
      <trkpt lat="44.22944" lon="6.15251">
        <ele>1626</ele>
        <time>2010-01-01T02:14:56Z</time>
      </trkpt>
      <trkpt lat="44.22946" lon="6.15247">
        <ele>1625</ele>
        <time>2010-01-01T02:14:57Z</time>
      </trkpt>
      <trkpt lat="44.22949" lon="6.15243">
        <ele>1624</ele>
        <time>2010-01-01T02:14:58Z</time>
      </trkpt>
      <trkpt lat="44.22951" lon="6.15238">
        <ele>1623</ele>
        <time>2010-01-01T02:14:59Z</time>
      </trkpt>
      <trkpt lat="44.22954" lon="6.15236">
        <ele>1622</ele>
        <time>2010-01-01T02:15:00Z</time>
      </trkpt>
      <trkpt lat="44.22956" lon="6.15234">
        <ele>1623</ele>
        <time>2010-01-01T02:15:01Z</time>
      </trkpt>
      <trkpt lat="44.22962" lon="6.15229">
        <ele>1622</ele>
        <time>2010-01-01T02:15:02Z</time>
      </trkpt>
      <trkpt lat="44.22966" lon="6.15225">
        <ele>1622</ele>
        <time>2010-01-01T02:15:04Z</time>
      </trkpt>
      <trkpt lat="44.2297" lon="6.1522">
        <ele>1622</ele>
        <time>2010-01-01T02:15:05Z</time>
      </trkpt>
      <trkpt lat="44.22974" lon="6.15216">
        <ele>1622</ele>
        <time>2010-01-01T02:15:06Z</time>
      </trkpt>
      <trkpt lat="44.22976" lon="6.15212">
        <ele>1622</ele>
        <time>2010-01-01T02:15:07Z</time>
      </trkpt>
      <trkpt lat="44.22981" lon="6.152">
        <ele>1619</ele>
        <time>2010-01-01T02:15:10Z</time>
      </trkpt>
      <trkpt lat="44.22984" lon="6.15196">
        <ele>1619</ele>
        <time>2010-01-01T02:15:11Z</time>
      </trkpt>
      <trkpt lat="44.22986" lon="6.1519">
        <ele>1617</ele>
        <time>2010-01-01T02:15:13Z</time>
      </trkpt>
      <trkpt lat="44.22989" lon="6.15186">
        <ele>1617</ele>
        <time>2010-01-01T02:15:14Z</time>
      </trkpt>
      <trkpt lat="44.22992" lon="6.15184">
        <ele>1617</ele>
        <time>2010-01-01T02:15:14Z</time>
      </trkpt>
      <trkpt lat="44.22996" lon="6.1518">
        <ele>1617</ele>
        <time>2010-01-01T02:15:16Z</time>
      </trkpt>
      <trkpt lat="44.23" lon="6.15176">
        <ele>1617</ele>
        <time>2010-01-01T02:15:17Z</time>
      </trkpt>
      <trkpt lat="44.23005" lon="6.15173">
        <ele>1618</ele>
        <time>2010-01-01T02:15:18Z</time>
      </trkpt>
      <trkpt lat="44.23008" lon="6.15169">
        <ele>1617</ele>
        <time>2010-01-01T02:15:20Z</time>
      </trkpt>
      <trkpt lat="44.23014" lon="6.15166">
        <ele>1619</ele>
        <time>2010-01-01T02:15:21Z</time>
      </trkpt>
      <trkpt lat="44.23017" lon="6.15162">
        <ele>1618</ele>
        <time>2010-01-01T02:15:22Z</time>
      </trkpt>
      <trkpt lat="44.2302" lon="6.15159">
        <ele>1618</ele>
        <time>2010-01-01T02:15:24Z</time>
      </trkpt>
      <trkpt lat="44.23025" lon="6.1515">
        <ele>1615</ele>
        <time>2010-01-01T02:15:26Z</time>
      </trkpt>
      <trkpt lat="44.23029" lon="6.15145">
        <ele>1614</ele>
        <time>2010-01-01T02:15:27Z</time>
      </trkpt>
      <trkpt lat="44.23031" lon="6.15139">
        <ele>1612</ele>
        <time>2010-01-01T02:15:28Z</time>
      </trkpt>
      <trkpt lat="44.23034" lon="6.15136">
        <ele>1611</ele>
        <time>2010-01-01T02:15:29Z</time>
      </trkpt>
      <trkpt lat="44.23036" lon="6.15133">
        <ele>1611</ele>
        <time>2010-01-01T02:15:30Z</time>
      </trkpt>
      <trkpt lat="44.23039" lon="6.15129">
        <ele>1610</ele>
        <time>2010-01-01T02:15:31Z</time>
      </trkpt>
      <trkpt lat="44.23041" lon="6.15124">
        <ele>1608</ele>
        <time>2010-01-01T02:15:32Z</time>
      </trkpt>
      <trkpt lat="44.23043" lon="6.15121">
        <ele>1608</ele>
        <time>2010-01-01T02:15:33Z</time>
      </trkpt>
      <trkpt lat="44.23046" lon="6.15117">
        <ele>1607</ele>
        <time>2010-01-01T02:15:34Z</time>
      </trkpt>
      <trkpt lat="44.23049" lon="6.15114">
        <ele>1607</ele>
        <time>2010-01-01T02:15:35Z</time>
      </trkpt>
      <trkpt lat="44.23053" lon="6.1511">
        <ele>1607</ele>
        <time>2010-01-01T02:15:36Z</time>
      </trkpt>
      <trkpt lat="44.23056" lon="6.15107">
        <ele>1607</ele>
        <time>2010-01-01T02:15:38Z</time>
      </trkpt>
      <trkpt lat="44.2306" lon="6.15104">
        <ele>1607</ele>
        <time>2010-01-01T02:15:39Z</time>
      </trkpt>
      <trkpt lat="44.23063" lon="6.15101">
        <ele>1607</ele>
        <time>2010-01-01T02:15:40Z</time>
      </trkpt>
      <trkpt lat="44.23066" lon="6.15098">
        <ele>1607</ele>
        <time>2010-01-01T02:15:41Z</time>
      </trkpt>
      <trkpt lat="44.2307" lon="6.15095">
        <ele>1607</ele>
        <time>2010-01-01T02:15:42Z</time>
      </trkpt>
      <trkpt lat="44.23073" lon="6.15092">
        <ele>1607</ele>
        <time>2010-01-01T02:15:43Z</time>
      </trkpt>
      <trkpt lat="44.23076" lon="6.15088">
        <ele>1607</ele>
        <time>2010-01-01T02:15:44Z</time>
      </trkpt>
      <trkpt lat="44.23079" lon="6.15084">
        <ele>1606</ele>
        <time>2010-01-01T02:15:45Z</time>
      </trkpt>
      <trkpt lat="44.23082" lon="6.1508">
        <ele>1605</ele>
        <time>2010-01-01T02:15:46Z</time>
      </trkpt>
      <trkpt lat="44.23085" lon="6.15075">
        <ele>1605</ele>
        <time>2010-01-01T02:15:47Z</time>
      </trkpt>
      <trkpt lat="44.23087" lon="6.1507">
        <ele>1604</ele>
        <time>2010-01-01T02:15:48Z</time>
      </trkpt>
      <trkpt lat="44.23089" lon="6.15065">
        <ele>1602</ele>
        <time>2010-01-01T02:15:50Z</time>
      </trkpt>
      <trkpt lat="44.2309" lon="6.1506">
        <ele>1601</ele>
        <time>2010-01-01T02:15:50Z</time>
      </trkpt>
      <trkpt lat="44.23093" lon="6.15055">
        <ele>1599</ele>
        <time>2010-01-01T02:15:52Z</time>
      </trkpt>
      <trkpt lat="44.23095" lon="6.1505">
        <ele>1598</ele>
        <time>2010-01-01T02:15:53Z</time>
      </trkpt>
      <trkpt lat="44.23098" lon="6.15045">
        <ele>1597</ele>
        <time>2010-01-01T02:15:54Z</time>
      </trkpt>
      <trkpt lat="44.231" lon="6.1504">
        <ele>1596</ele>
        <time>2010-01-01T02:15:55Z</time>
      </trkpt>
      <trkpt lat="44.23103" lon="6.15035">
        <ele>1595</ele>
        <time>2010-01-01T02:15:56Z</time>
      </trkpt>
      <trkpt lat="44.23108" lon="6.15029">
        <ele>1596</ele>
        <time>2010-01-01T02:15:58Z</time>
      </trkpt>
      <trkpt lat="44.23112" lon="6.15025">
        <ele>1595</ele>
        <time>2010-01-01T02:15:59Z</time>
      </trkpt>
      <trkpt lat="44.23114" lon="6.15021">
        <ele>1594</ele>
        <time>2010-01-01T02:16:00Z</time>
      </trkpt>
      <trkpt lat="44.23116" lon="6.15017">
        <ele>1593</ele>
        <time>2010-01-01T02:16:01Z</time>
      </trkpt>
      <trkpt lat="44.23122" lon="6.15015">
        <ele>1595</ele>
        <time>2010-01-01T02:16:03Z</time>
      </trkpt>
      <trkpt lat="44.23126" lon="6.15009">
        <ele>1593</ele>
        <time>2010-01-01T02:16:04Z</time>
      </trkpt>
      <trkpt lat="44.23131" lon="6.15005">
        <ele>1593</ele>
        <time>2010-01-01T02:16:06Z</time>
      </trkpt>
      <trkpt lat="44.23135" lon="6.15001">
        <ele>1593</ele>
        <time>2010-01-01T02:16:07Z</time>
      </trkpt>
      <trkpt lat="44.23143" lon="6.14996">
        <ele>1593</ele>
        <time>2010-01-01T02:16:10Z</time>
      </trkpt>
      <trkpt lat="44.23148" lon="6.14994">
        <ele>1593</ele>
        <time>2010-01-01T02:16:11Z</time>
      </trkpt>
      <trkpt lat="44.23151" lon="6.14988">
        <ele>1591</ele>
        <time>2010-01-01T02:16:13Z</time>
      </trkpt>
      <trkpt lat="44.23155" lon="6.14984">
        <ele>1590</ele>
        <time>2010-01-01T02:16:14Z</time>
      </trkpt>
      <trkpt lat="44.23159" lon="6.1498">
        <ele>1590</ele>
        <time>2010-01-01T02:16:15Z</time>
      </trkpt>
      <trkpt lat="44.23163" lon="6.14978">
        <ele>1590</ele>
        <time>2010-01-01T02:16:16Z</time>
      </trkpt>
      <trkpt lat="44.23166" lon="6.14977">
        <ele>1591</ele>
        <time>2010-01-01T02:16:17Z</time>
      </trkpt>
      <trkpt lat="44.23169" lon="6.14971">
        <ele>1590</ele>
        <time>2010-01-01T02:16:18Z</time>
      </trkpt>
      <trkpt lat="44.23174" lon="6.14968">
        <ele>1590</ele>
        <time>2010-01-01T02:16:20Z</time>
      </trkpt>
      <trkpt lat="44.23176" lon="6.14965">
        <ele>1590</ele>
        <time>2010-01-01T02:16:21Z</time>
      </trkpt>
      <trkpt lat="44.23179" lon="6.14963">
        <ele>1590</ele>
        <time>2010-01-01T02:16:21Z</time>
      </trkpt>
      <trkpt lat="44.23181" lon="6.14961">
        <ele>1590</ele>
        <time>2010-01-01T02:16:22Z</time>
      </trkpt>
      <trkpt lat="44.23184" lon="6.14958">
        <ele>1590</ele>
        <time>2010-01-01T02:16:23Z</time>
      </trkpt>
      <trkpt lat="44.23187" lon="6.14955">
        <ele>1590</ele>
        <time>2010-01-01T02:16:24Z</time>
      </trkpt>
      <trkpt lat="44.2319" lon="6.14951">
        <ele>1590</ele>
        <time>2010-01-01T02:16:25Z</time>
      </trkpt>
      <trkpt lat="44.23192" lon="6.14949">
        <ele>1590</ele>
        <time>2010-01-01T02:16:26Z</time>
      </trkpt>
      <trkpt lat="44.23194" lon="6.14945">
        <ele>1590</ele>
        <time>2010-01-01T02:16:27Z</time>
      </trkpt>
      <trkpt lat="44.23197" lon="6.14941">
        <ele>1590</ele>
        <time>2010-01-01T02:16:28Z</time>
      </trkpt>
      <trkpt lat="44.232" lon="6.14937">
        <ele>1588</ele>
        <time>2010-01-01T02:16:29Z</time>
      </trkpt>
      <trkpt lat="44.23204" lon="6.14932">
        <ele>1588</ele>
        <time>2010-01-01T02:16:30Z</time>
      </trkpt>
      <trkpt lat="44.23206" lon="6.1493">
        <ele>1587</ele>
        <time>2010-01-01T02:16:31Z</time>
      </trkpt>
      <trkpt lat="44.23208" lon="6.14926">
        <ele>1586</ele>
        <time>2010-01-01T02:16:32Z</time>
      </trkpt>
      <trkpt lat="44.2321" lon="6.14923">
        <ele>1585</ele>
        <time>2010-01-01T02:16:33Z</time>
      </trkpt>
      <trkpt lat="44.23213" lon="6.14919">
        <ele>1585</ele>
        <time>2010-01-01T02:16:34Z</time>
      </trkpt>
      <trkpt lat="44.23216" lon="6.14917">
        <ele>1585</ele>
        <time>2010-01-01T02:16:35Z</time>
      </trkpt>
      <trkpt lat="44.23219" lon="6.14914">
        <ele>1585</ele>
        <time>2010-01-01T02:16:36Z</time>
      </trkpt>
      <trkpt lat="44.23221" lon="6.1491">
        <ele>1584</ele>
        <time>2010-01-01T02:16:37Z</time>
      </trkpt>
      <trkpt lat="44.23224" lon="6.14906">
        <ele>1583</ele>
        <time>2010-01-01T02:16:38Z</time>
      </trkpt>
      <trkpt lat="44.23226" lon="6.14902">
        <ele>1582</ele>
        <time>2010-01-01T02:16:39Z</time>
      </trkpt>
      <trkpt lat="44.23229" lon="6.14897">
        <ele>1581</ele>
        <time>2010-01-01T02:16:40Z</time>
      </trkpt>
      <trkpt lat="44.23232" lon="6.14893">
        <ele>1580</ele>
        <time>2010-01-01T02:16:41Z</time>
      </trkpt>
      <trkpt lat="44.23234" lon="6.1489">
        <ele>1579</ele>
        <time>2010-01-01T02:16:42Z</time>
      </trkpt>
      <trkpt lat="44.23237" lon="6.14886">
        <ele>1578</ele>
        <time>2010-01-01T02:16:43Z</time>
      </trkpt>
      <trkpt lat="44.2324" lon="6.14883">
        <ele>1577</ele>
        <time>2010-01-01T02:16:44Z</time>
      </trkpt>
      <trkpt lat="44.23243" lon="6.1488">
        <ele>1577</ele>
        <time>2010-01-01T02:16:45Z</time>
      </trkpt>
      <trkpt lat="44.23245" lon="6.14878">
        <ele>1577</ele>
        <time>2010-01-01T02:16:46Z</time>
      </trkpt>
      <trkpt lat="44.23252" lon="6.14875">
        <ele>1578</ele>
        <time>2010-01-01T02:16:48Z</time>
      </trkpt>
      <trkpt lat="44.23257" lon="6.14867">
        <ele>1576</ele>
        <time>2010-01-01T02:16:50Z</time>
      </trkpt>
      <trkpt lat="44.23262" lon="6.14862">
        <ele>1576</ele>
        <time>2010-01-01T02:16:51Z</time>
      </trkpt>
      <trkpt lat="44.23265" lon="6.14858">
        <ele>1575</ele>
        <time>2010-01-01T02:16:52Z</time>
      </trkpt>
      <trkpt lat="44.23268" lon="6.14855">
        <ele>1575</ele>
        <time>2010-01-01T02:16:53Z</time>
      </trkpt>
      <trkpt lat="44.23271" lon="6.14852">
        <ele>1574</ele>
        <time>2010-01-01T02:16:54Z</time>
      </trkpt>
      <trkpt lat="44.23274" lon="6.14849">
        <ele>1574</ele>
        <time>2010-01-01T02:16:55Z</time>
      </trkpt>
      <trkpt lat="44.23277" lon="6.14846">
        <ele>1574</ele>
        <time>2010-01-01T02:16:56Z</time>
      </trkpt>
      <trkpt lat="44.2328" lon="6.14842">
        <ele>1573</ele>
        <time>2010-01-01T02:16:57Z</time>
      </trkpt>
      <trkpt lat="44.23283" lon="6.14838">
        <ele>1573</ele>
        <time>2010-01-01T02:16:58Z</time>
      </trkpt>
      <trkpt lat="44.23286" lon="6.14834">
        <ele>1573</ele>
        <time>2010-01-01T02:17:00Z</time>
      </trkpt>
      <trkpt lat="44.23288" lon="6.1483">
        <ele>1572</ele>
        <time>2010-01-01T02:17:01Z</time>
      </trkpt>
      <trkpt lat="44.23291" lon="6.14827">
        <ele>1572</ele>
        <time>2010-01-01T02:17:01Z</time>
      </trkpt>
      <trkpt lat="44.23293" lon="6.14823">
        <ele>1571</ele>
        <time>2010-01-01T02:17:02Z</time>
      </trkpt>
      <trkpt lat="44.23296" lon="6.14818">
        <ele>1570</ele>
        <time>2010-01-01T02:17:04Z</time>
      </trkpt>
      <trkpt lat="44.23298" lon="6.14813">
        <ele>1569</ele>
        <time>2010-01-01T02:17:05Z</time>
      </trkpt>
      <trkpt lat="44.23301" lon="6.1481">
        <ele>1569</ele>
        <time>2010-01-01T02:17:06Z</time>
      </trkpt>
      <trkpt lat="44.23303" lon="6.14808">
        <ele>1569</ele>
        <time>2010-01-01T02:17:06Z</time>
      </trkpt>
      <trkpt lat="44.23306" lon="6.14806">
        <ele>1570</ele>
        <time>2010-01-01T02:17:07Z</time>
      </trkpt>
      <trkpt lat="44.23309" lon="6.14803">
        <ele>1570</ele>
        <time>2010-01-01T02:17:08Z</time>
      </trkpt>
      <trkpt lat="44.23311" lon="6.14801">
        <ele>1570</ele>
        <time>2010-01-01T02:17:09Z</time>
      </trkpt>
      <trkpt lat="44.23314" lon="6.14799">
        <ele>1570</ele>
        <time>2010-01-01T02:17:10Z</time>
      </trkpt>
      <trkpt lat="44.23317" lon="6.14796">
        <ele>1570</ele>
        <time>2010-01-01T02:17:11Z</time>
      </trkpt>
      <trkpt lat="44.2332" lon="6.14794">
        <ele>1569</ele>
        <time>2010-01-01T02:17:12Z</time>
      </trkpt>
      <trkpt lat="44.23322" lon="6.14791">
        <ele>1569</ele>
        <time>2010-01-01T02:17:13Z</time>
      </trkpt>
      <trkpt lat="44.23325" lon="6.14787">
        <ele>1568</ele>
        <time>2010-01-01T02:17:14Z</time>
      </trkpt>
      <trkpt lat="44.23328" lon="6.14783">
        <ele>1567</ele>
        <time>2010-01-01T02:17:15Z</time>
      </trkpt>
      <trkpt lat="44.23332" lon="6.14779">
        <ele>1566</ele>
        <time>2010-01-01T02:17:16Z</time>
      </trkpt>
      <trkpt lat="44.23335" lon="6.14774">
        <ele>1565</ele>
        <time>2010-01-01T02:17:17Z</time>
      </trkpt>
      <trkpt lat="44.23339" lon="6.14769">
        <ele>1565</ele>
        <time>2010-01-01T02:17:18Z</time>
      </trkpt>
      <trkpt lat="44.23342" lon="6.14766">
        <ele>1564</ele>
        <time>2010-01-01T02:17:20Z</time>
      </trkpt>
      <trkpt lat="44.23344" lon="6.14763">
        <ele>1563</ele>
        <time>2010-01-01T02:17:20Z</time>
      </trkpt>
      <trkpt lat="44.23346" lon="6.1476">
        <ele>1563</ele>
        <time>2010-01-01T02:17:21Z</time>
      </trkpt>
      <trkpt lat="44.23349" lon="6.14757">
        <ele>1562</ele>
        <time>2010-01-01T02:17:22Z</time>
      </trkpt>
      <trkpt lat="44.23351" lon="6.14753">
        <ele>1561</ele>
        <time>2010-01-01T02:17:23Z</time>
      </trkpt>
      <trkpt lat="44.23353" lon="6.1475">
        <ele>1560</ele>
        <time>2010-01-01T02:17:24Z</time>
      </trkpt>
      <trkpt lat="44.23354" lon="6.14745">
        <ele>1557</ele>
        <time>2010-01-01T02:17:25Z</time>
      </trkpt>
      <trkpt lat="44.23349" lon="6.14746">
        <ele>1556</ele>
        <time>2010-01-01T02:17:26Z</time>
      </trkpt>
      <trkpt lat="44.23346" lon="6.14749">
        <ele>1556</ele>
        <time>2010-01-01T02:17:27Z</time>
      </trkpt>
      <trkpt lat="44.23342" lon="6.14751">
        <ele>1556</ele>
        <time>2010-01-01T02:17:28Z</time>
      </trkpt>
      <trkpt lat="44.23339" lon="6.14753">
        <ele>1556</ele>
        <time>2010-01-01T02:17:29Z</time>
      </trkpt>
      <trkpt lat="44.23335" lon="6.14754">
        <ele>1555</ele>
        <time>2010-01-01T02:17:30Z</time>
      </trkpt>
      <trkpt lat="44.23332" lon="6.14754">
        <ele>1554</ele>
        <time>2010-01-01T02:17:31Z</time>
      </trkpt>
      <trkpt lat="44.23329" lon="6.14754">
        <ele>1553</ele>
        <time>2010-01-01T02:17:32Z</time>
      </trkpt>
      <trkpt lat="44.23326" lon="6.14755">
        <ele>1551</ele>
        <time>2010-01-01T02:17:33Z</time>
      </trkpt>
      <trkpt lat="44.23322" lon="6.14756">
        <ele>1550</ele>
        <time>2010-01-01T02:17:34Z</time>
      </trkpt>
      <trkpt lat="44.23319" lon="6.14756">
        <ele>1549</ele>
        <time>2010-01-01T02:17:34Z</time>
      </trkpt>
      <trkpt lat="44.23316" lon="6.14757">
        <ele>1548</ele>
        <time>2010-01-01T02:17:35Z</time>
      </trkpt>
      <trkpt lat="44.23313" lon="6.14759">
        <ele>1548</ele>
        <time>2010-01-01T02:17:36Z</time>
      </trkpt>
      <trkpt lat="44.2331" lon="6.14761">
        <ele>1548</ele>
        <time>2010-01-01T02:17:37Z</time>
      </trkpt>
      <trkpt lat="44.23308" lon="6.14762">
        <ele>1547</ele>
        <time>2010-01-01T02:17:38Z</time>
      </trkpt>
      <trkpt lat="44.23305" lon="6.14764">
        <ele>1547</ele>
        <time>2010-01-01T02:17:39Z</time>
      </trkpt>
      <trkpt lat="44.23301" lon="6.14766">
        <ele>1547</ele>
        <time>2010-01-01T02:17:40Z</time>
      </trkpt>
      <trkpt lat="44.23298" lon="6.14769">
        <ele>1547</ele>
        <time>2010-01-01T02:17:41Z</time>
      </trkpt>
      <trkpt lat="44.23295" lon="6.14771">
        <ele>1546</ele>
        <time>2010-01-01T02:17:41Z</time>
      </trkpt>
      <trkpt lat="44.23292" lon="6.14773">
        <ele>1546</ele>
        <time>2010-01-01T02:17:42Z</time>
      </trkpt>
      <trkpt lat="44.23288" lon="6.14775">
        <ele>1545</ele>
        <time>2010-01-01T02:17:44Z</time>
      </trkpt>
      <trkpt lat="44.23284" lon="6.14777">
        <ele>1544</ele>
        <time>2010-01-01T02:17:45Z</time>
      </trkpt>
      <trkpt lat="44.23279" lon="6.14778">
        <ele>1542</ele>
        <time>2010-01-01T02:17:46Z</time>
      </trkpt>
      <trkpt lat="44.23274" lon="6.1478">
        <ele>1541</ele>
        <time>2010-01-01T02:17:47Z</time>
      </trkpt>
      <trkpt lat="44.2327" lon="6.14782">
        <ele>1541</ele>
        <time>2010-01-01T02:17:49Z</time>
      </trkpt>
      <trkpt lat="44.23266" lon="6.14785">
        <ele>1541</ele>
        <time>2010-01-01T02:17:50Z</time>
      </trkpt>
      <trkpt lat="44.23262" lon="6.14788">
        <ele>1541</ele>
        <time>2010-01-01T02:17:51Z</time>
      </trkpt>
      <trkpt lat="44.23258" lon="6.1479">
        <ele>1541</ele>
        <time>2010-01-01T02:17:52Z</time>
      </trkpt>
      <trkpt lat="44.23254" lon="6.14792">
        <ele>1541</ele>
        <time>2010-01-01T02:17:53Z</time>
      </trkpt>
      <trkpt lat="44.2325" lon="6.14794">
        <ele>1541</ele>
        <time>2010-01-01T02:17:54Z</time>
      </trkpt>
      <trkpt lat="44.23247" lon="6.14795">
        <ele>1541</ele>
        <time>2010-01-01T02:17:55Z</time>
      </trkpt>
      <trkpt lat="44.23243" lon="6.14797">
        <ele>1540</ele>
        <time>2010-01-01T02:17:56Z</time>
      </trkpt>
      <trkpt lat="44.2324" lon="6.14799">
        <ele>1540</ele>
        <time>2010-01-01T02:17:57Z</time>
      </trkpt>
      <trkpt lat="44.23236" lon="6.14801">
        <ele>1541</ele>
        <time>2010-01-01T02:17:58Z</time>
      </trkpt>
      <trkpt lat="44.23232" lon="6.14804">
        <ele>1541</ele>
        <time>2010-01-01T02:17:59Z</time>
      </trkpt>
      <trkpt lat="44.23228" lon="6.14807">
        <ele>1541</ele>
        <time>2010-01-01T02:18:01Z</time>
      </trkpt>
      <trkpt lat="44.23223" lon="6.14809">
        <ele>1540</ele>
        <time>2010-01-01T02:18:02Z</time>
      </trkpt>
      <trkpt lat="44.23219" lon="6.14812">
        <ele>1540</ele>
        <time>2010-01-01T02:18:03Z</time>
      </trkpt>
      <trkpt lat="44.23215" lon="6.14812">
        <ele>1538</ele>
        <time>2010-01-01T02:18:04Z</time>
      </trkpt>
      <trkpt lat="44.23211" lon="6.14814">
        <ele>1538</ele>
        <time>2010-01-01T02:18:05Z</time>
      </trkpt>
      <trkpt lat="44.23209" lon="6.14816">
        <ele>1538</ele>
        <time>2010-01-01T02:18:06Z</time>
      </trkpt>
      <trkpt lat="44.23206" lon="6.14816">
        <ele>1536</ele>
        <time>2010-01-01T02:18:07Z</time>
      </trkpt>
      <trkpt lat="44.23203" lon="6.14817">
        <ele>1536</ele>
        <time>2010-01-01T02:18:08Z</time>
      </trkpt>
      <trkpt lat="44.23199" lon="6.14819">
        <ele>1535</ele>
        <time>2010-01-01T02:18:09Z</time>
      </trkpt>
      <trkpt lat="44.23196" lon="6.14822">
        <ele>1536</ele>
        <time>2010-01-01T02:18:10Z</time>
      </trkpt>
      <trkpt lat="44.23193" lon="6.14823">
        <ele>1534</ele>
        <time>2010-01-01T02:18:11Z</time>
      </trkpt>
      <trkpt lat="44.23189" lon="6.14822">
        <ele>1533</ele>
        <time>2010-01-01T02:18:12Z</time>
      </trkpt>
      <trkpt lat="44.23184" lon="6.14823">
        <ele>1531</ele>
        <time>2010-01-01T02:18:13Z</time>
      </trkpt>
      <trkpt lat="44.23181" lon="6.14823">
        <ele>1530</ele>
        <time>2010-01-01T02:18:14Z</time>
      </trkpt>
      <trkpt lat="44.23177" lon="6.14824">
        <ele>1530</ele>
        <time>2010-01-01T02:18:15Z</time>
      </trkpt>
      <trkpt lat="44.23174" lon="6.14826">
        <ele>1529</ele>
        <time>2010-01-01T02:18:16Z</time>
      </trkpt>
      <trkpt lat="44.23169" lon="6.14833">
        <ele>1530</ele>
        <time>2010-01-01T02:18:18Z</time>
      </trkpt>
      <trkpt lat="44.23164" lon="6.14835">
        <ele>1529</ele>
        <time>2010-01-01T02:18:19Z</time>
      </trkpt>
      <trkpt lat="44.2316" lon="6.14837">
        <ele>1528</ele>
        <time>2010-01-01T02:18:20Z</time>
      </trkpt>
      <trkpt lat="44.23157" lon="6.1484">
        <ele>1528</ele>
        <time>2010-01-01T02:18:21Z</time>
      </trkpt>
      <trkpt lat="44.23153" lon="6.14844">
        <ele>1528</ele>
        <time>2010-01-01T02:18:23Z</time>
      </trkpt>
      <trkpt lat="44.23149" lon="6.14848">
        <ele>1529</ele>
        <time>2010-01-01T02:18:24Z</time>
      </trkpt>
      <trkpt lat="44.23145" lon="6.14849">
        <ele>1528</ele>
        <time>2010-01-01T02:18:25Z</time>
      </trkpt>
      <trkpt lat="44.23141" lon="6.1485">
        <ele>1526</ele>
        <time>2010-01-01T02:18:26Z</time>
      </trkpt>
      <trkpt lat="44.23136" lon="6.14851">
        <ele>1525</ele>
        <time>2010-01-01T02:18:27Z</time>
      </trkpt>
      <trkpt lat="44.23132" lon="6.14856">
        <ele>1526</ele>
        <time>2010-01-01T02:18:29Z</time>
      </trkpt>
      <trkpt lat="44.23129" lon="6.14858">
        <ele>1525</ele>
        <time>2010-01-01T02:18:30Z</time>
      </trkpt>
      <trkpt lat="44.23126" lon="6.14861">
        <ele>1525</ele>
        <time>2010-01-01T02:18:31Z</time>
      </trkpt>
      <trkpt lat="44.23122" lon="6.14862">
        <ele>1525</ele>
        <time>2010-01-01T02:18:32Z</time>
      </trkpt>
      <trkpt lat="44.23119" lon="6.14865">
        <ele>1524</ele>
        <time>2010-01-01T02:18:33Z</time>
      </trkpt>
      <trkpt lat="44.23117" lon="6.14867">
        <ele>1524</ele>
        <time>2010-01-01T02:18:34Z</time>
      </trkpt>
      <trkpt lat="44.23114" lon="6.14869">
        <ele>1524</ele>
        <time>2010-01-01T02:18:34Z</time>
      </trkpt>
      <trkpt lat="44.23109" lon="6.14871">
        <ele>1524</ele>
        <time>2010-01-01T02:18:36Z</time>
      </trkpt>
      <trkpt lat="44.23106" lon="6.14873">
        <ele>1523</ele>
        <time>2010-01-01T02:18:36Z</time>
      </trkpt>
      <trkpt lat="44.23103" lon="6.14875">
        <ele>1522</ele>
        <time>2010-01-01T02:18:37Z</time>
      </trkpt>
      <trkpt lat="44.23099" lon="6.14876">
        <ele>1522</ele>
        <time>2010-01-01T02:18:38Z</time>
      </trkpt>
      <trkpt lat="44.23096" lon="6.14877">
        <ele>1521</ele>
        <time>2010-01-01T02:18:39Z</time>
      </trkpt>
      <trkpt lat="44.23093" lon="6.14879">
        <ele>1520</ele>
        <time>2010-01-01T02:18:40Z</time>
      </trkpt>
      <trkpt lat="44.23088" lon="6.1488">
        <ele>1519</ele>
        <time>2010-01-01T02:18:42Z</time>
      </trkpt>
      <trkpt lat="44.23085" lon="6.14881">
        <ele>1518</ele>
        <time>2010-01-01T02:18:42Z</time>
      </trkpt>
      <trkpt lat="44.23082" lon="6.14882">
        <ele>1518</ele>
        <time>2010-01-01T02:18:43Z</time>
      </trkpt>
      <trkpt lat="44.23078" lon="6.14883">
        <ele>1518</ele>
        <time>2010-01-01T02:18:44Z</time>
      </trkpt>
      <trkpt lat="44.23075" lon="6.14885">
        <ele>1518</ele>
        <time>2010-01-01T02:18:45Z</time>
      </trkpt>
      <trkpt lat="44.23071" lon="6.14886">
        <ele>1518</ele>
        <time>2010-01-01T02:18:46Z</time>
      </trkpt>
      <trkpt lat="44.23067" lon="6.14887">
        <ele>1517</ele>
        <time>2010-01-01T02:18:47Z</time>
      </trkpt>
      <trkpt lat="44.23063" lon="6.14888">
        <ele>1517</ele>
        <time>2010-01-01T02:18:48Z</time>
      </trkpt>
      <trkpt lat="44.23059" lon="6.14889">
        <ele>1517</ele>
        <time>2010-01-01T02:18:50Z</time>
      </trkpt>
      <trkpt lat="44.23056" lon="6.14891">
        <ele>1517</ele>
        <time>2010-01-01T02:18:50Z</time>
      </trkpt>
      <trkpt lat="44.23053" lon="6.14892">
        <ele>1517</ele>
        <time>2010-01-01T02:18:51Z</time>
      </trkpt>
      <trkpt lat="44.2305" lon="6.14893">
        <ele>1517</ele>
        <time>2010-01-01T02:18:52Z</time>
      </trkpt>
      <trkpt lat="44.23047" lon="6.14894">
        <ele>1517</ele>
        <time>2010-01-01T02:18:53Z</time>
      </trkpt>
      <trkpt lat="44.23042" lon="6.14895">
        <ele>1516</ele>
        <time>2010-01-01T02:18:54Z</time>
      </trkpt>
      <trkpt lat="44.23035" lon="6.14895">
        <ele>1515</ele>
        <time>2010-01-01T02:18:56Z</time>
      </trkpt>
      <trkpt lat="44.23031" lon="6.14895">
        <ele>1514</ele>
        <time>2010-01-01T02:18:57Z</time>
      </trkpt>
      <trkpt lat="44.23025" lon="6.14898">
        <ele>1514</ele>
        <time>2010-01-01T02:18:59Z</time>
      </trkpt>
      <trkpt lat="44.2302" lon="6.14901">
        <ele>1513</ele>
        <time>2010-01-01T02:19:00Z</time>
      </trkpt>
      <trkpt lat="44.23015" lon="6.14903">
        <ele>1512</ele>
        <time>2010-01-01T02:19:02Z</time>
      </trkpt>
      <trkpt lat="44.2301" lon="6.14906">
        <ele>1512</ele>
        <time>2010-01-01T02:19:03Z</time>
      </trkpt>
      <trkpt lat="44.23005" lon="6.14909">
        <ele>1511</ele>
        <time>2010-01-01T02:19:05Z</time>
      </trkpt>
      <trkpt lat="44.23" lon="6.14913">
        <ele>1511</ele>
        <time>2010-01-01T02:19:06Z</time>
      </trkpt>
      <trkpt lat="44.22994" lon="6.14916">
        <ele>1510</ele>
        <time>2010-01-01T02:19:08Z</time>
      </trkpt>
      <trkpt lat="44.2299" lon="6.14919">
        <ele>1509</ele>
        <time>2010-01-01T02:19:09Z</time>
      </trkpt>
      <trkpt lat="44.22987" lon="6.14922">
        <ele>1509</ele>
        <time>2010-01-01T02:19:10Z</time>
      </trkpt>
      <trkpt lat="44.22984" lon="6.14925">
        <ele>1508</ele>
        <time>2010-01-01T02:19:11Z</time>
      </trkpt>
      <trkpt lat="44.2298" lon="6.14927">
        <ele>1508</ele>
        <time>2010-01-01T02:19:12Z</time>
      </trkpt>
      <trkpt lat="44.22976" lon="6.14929">
        <ele>1506</ele>
        <time>2010-01-01T02:19:13Z</time>
      </trkpt>
      <trkpt lat="44.22972" lon="6.14931">
        <ele>1505</ele>
        <time>2010-01-01T02:19:14Z</time>
      </trkpt>
      <trkpt lat="44.22971" lon="6.14941">
        <ele>1508</ele>
        <time>2010-01-01T02:19:16Z</time>
      </trkpt>
      <trkpt lat="44.22967" lon="6.14944">
        <ele>1508</ele>
        <time>2010-01-01T02:19:17Z</time>
      </trkpt>
      <trkpt lat="44.22965" lon="6.14947">
        <ele>1508</ele>
        <time>2010-01-01T02:19:18Z</time>
      </trkpt>
      <trkpt lat="44.22962" lon="6.14951">
        <ele>1509</ele>
        <time>2010-01-01T02:19:19Z</time>
      </trkpt>
      <trkpt lat="44.22959" lon="6.14954">
        <ele>1509</ele>
        <time>2010-01-01T02:19:20Z</time>
      </trkpt>
      <trkpt lat="44.22954" lon="6.14957">
        <ele>1508</ele>
        <time>2010-01-01T02:19:22Z</time>
      </trkpt>
      <trkpt lat="44.2295" lon="6.14958">
        <ele>1507</ele>
        <time>2010-01-01T02:19:23Z</time>
      </trkpt>
      <trkpt lat="44.22947" lon="6.14959">
        <ele>1507</ele>
        <time>2010-01-01T02:19:24Z</time>
      </trkpt>
      <trkpt lat="44.22943" lon="6.14961">
        <ele>1506</ele>
        <time>2010-01-01T02:19:25Z</time>
      </trkpt>
      <trkpt lat="44.2294" lon="6.14964">
        <ele>1506</ele>
        <time>2010-01-01T02:19:26Z</time>
      </trkpt>
      <trkpt lat="44.22937" lon="6.14965">
        <ele>1506</ele>
        <time>2010-01-01T02:19:27Z</time>
      </trkpt>
      <trkpt lat="44.22933" lon="6.14968">
        <ele>1506</ele>
        <time>2010-01-01T02:19:28Z</time>
      </trkpt>
      <trkpt lat="44.22929" lon="6.1497">
        <ele>1506</ele>
        <time>2010-01-01T02:19:29Z</time>
      </trkpt>
      <trkpt lat="44.22924" lon="6.14972">
        <ele>1506</ele>
        <time>2010-01-01T02:19:30Z</time>
      </trkpt>
      <trkpt lat="44.2292" lon="6.14974">
        <ele>1506</ele>
        <time>2010-01-01T02:19:31Z</time>
      </trkpt>
      <trkpt lat="44.22914" lon="6.1497">
        <ele>1503</ele>
        <time>2010-01-01T02:19:33Z</time>
      </trkpt>
      <trkpt lat="44.22909" lon="6.14968">
        <ele>1502</ele>
        <time>2010-01-01T02:19:34Z</time>
      </trkpt>
      <trkpt lat="44.22904" lon="6.14968">
        <ele>1502</ele>
        <time>2010-01-01T02:19:36Z</time>
      </trkpt>
      <trkpt lat="44.229" lon="6.14967">
        <ele>1501</ele>
        <time>2010-01-01T02:19:37Z</time>
      </trkpt>
      <trkpt lat="44.22895" lon="6.14964">
        <ele>1500</ele>
        <time>2010-01-01T02:19:38Z</time>
      </trkpt>
      <trkpt lat="44.2289" lon="6.14963">
        <ele>1499</ele>
        <time>2010-01-01T02:19:40Z</time>
      </trkpt>
      <trkpt lat="44.22886" lon="6.14965">
        <ele>1499</ele>
        <time>2010-01-01T02:19:41Z</time>
      </trkpt>
      <trkpt lat="44.22881" lon="6.14966">
        <ele>1500</ele>
        <time>2010-01-01T02:19:42Z</time>
      </trkpt>
      <trkpt lat="44.22876" lon="6.14968">
        <ele>1500</ele>
        <time>2010-01-01T02:19:44Z</time>
      </trkpt>
      <trkpt lat="44.22871" lon="6.14969">
        <ele>1501</ele>
        <time>2010-01-01T02:19:45Z</time>
      </trkpt>
      <trkpt lat="44.22864" lon="6.14968">
        <ele>1500</ele>
        <time>2010-01-01T02:19:47Z</time>
      </trkpt>
      <trkpt lat="44.22859" lon="6.14967">
        <ele>1500</ele>
        <time>2010-01-01T02:19:48Z</time>
      </trkpt>
      <trkpt lat="44.22855" lon="6.14963">
        <ele>1498</ele>
        <time>2010-01-01T02:19:49Z</time>
      </trkpt>
      <trkpt lat="44.22851" lon="6.14959">
        <ele>1496</ele>
        <time>2010-01-01T02:19:51Z</time>
      </trkpt>
      <trkpt lat="44.22846" lon="6.14958">
        <ele>1496</ele>
        <time>2010-01-01T02:19:52Z</time>
      </trkpt>
      <trkpt lat="44.22841" lon="6.14959">
        <ele>1496</ele>
        <time>2010-01-01T02:19:53Z</time>
      </trkpt>
      <trkpt lat="44.22837" lon="6.14959">
        <ele>1496</ele>
        <time>2010-01-01T02:19:55Z</time>
      </trkpt>
      <trkpt lat="44.22832" lon="6.1496">
        <ele>1496</ele>
        <time>2010-01-01T02:19:56Z</time>
      </trkpt>
      <trkpt lat="44.22829" lon="6.14958">
        <ele>1495</ele>
        <time>2010-01-01T02:19:57Z</time>
      </trkpt>
      <trkpt lat="44.22824" lon="6.14957">
        <ele>1494</ele>
        <time>2010-01-01T02:19:58Z</time>
      </trkpt>
      <trkpt lat="44.22819" lon="6.14958">
        <ele>1493</ele>
        <time>2010-01-01T02:19:59Z</time>
      </trkpt>
      <trkpt lat="44.22813" lon="6.14957">
        <ele>1492</ele>
        <time>2010-01-01T02:20:01Z</time>
      </trkpt>
      <trkpt lat="44.22808" lon="6.14956">
        <ele>1491</ele>
        <time>2010-01-01T02:20:02Z</time>
      </trkpt>
      <trkpt lat="44.22802" lon="6.14955">
        <ele>1489</ele>
        <time>2010-01-01T02:20:04Z</time>
      </trkpt>
      <trkpt lat="44.22796" lon="6.14953">
        <ele>1488</ele>
        <time>2010-01-01T02:20:06Z</time>
      </trkpt>
      <trkpt lat="44.2279" lon="6.14955">
        <ele>1488</ele>
        <time>2010-01-01T02:20:07Z</time>
      </trkpt>
      <trkpt lat="44.22785" lon="6.14957">
        <ele>1488</ele>
        <time>2010-01-01T02:20:08Z</time>
      </trkpt>
      <trkpt lat="44.22781" lon="6.14957">
        <ele>1487</ele>
        <time>2010-01-01T02:20:10Z</time>
      </trkpt>
      <trkpt lat="44.22777" lon="6.14959">
        <ele>1487</ele>
        <time>2010-01-01T02:20:11Z</time>
      </trkpt>
      <trkpt lat="44.22773" lon="6.14959">
        <ele>1487</ele>
        <time>2010-01-01T02:20:12Z</time>
      </trkpt>
      <trkpt lat="44.22769" lon="6.14958">
        <ele>1487</ele>
        <time>2010-01-01T02:20:13Z</time>
      </trkpt>
      <trkpt lat="44.22763" lon="6.14959">
        <ele>1487</ele>
        <time>2010-01-01T02:20:14Z</time>
      </trkpt>
      <trkpt lat="44.22757" lon="6.14959">
        <ele>1487</ele>
        <time>2010-01-01T02:20:16Z</time>
      </trkpt>
      <trkpt lat="44.22752" lon="6.14959">
        <ele>1486</ele>
        <time>2010-01-01T02:20:18Z</time>
      </trkpt>
      <trkpt lat="44.22746" lon="6.14958">
        <ele>1486</ele>
        <time>2010-01-01T02:20:19Z</time>
      </trkpt>
      <trkpt lat="44.22741" lon="6.1496">
        <ele>1486</ele>
        <time>2010-01-01T02:20:20Z</time>
      </trkpt>
      <trkpt lat="44.22737" lon="6.14959">
        <ele>1485</ele>
        <time>2010-01-01T02:20:21Z</time>
      </trkpt>
      <trkpt lat="44.22733" lon="6.14959">
        <ele>1485</ele>
        <time>2010-01-01T02:20:22Z</time>
      </trkpt>
      <trkpt lat="44.22728" lon="6.14957">
        <ele>1484</ele>
        <time>2010-01-01T02:20:24Z</time>
      </trkpt>
      <trkpt lat="44.22723" lon="6.14955">
        <ele>1483</ele>
        <time>2010-01-01T02:20:25Z</time>
      </trkpt>
      <trkpt lat="44.22719" lon="6.14955">
        <ele>1482</ele>
        <time>2010-01-01T02:20:26Z</time>
      </trkpt>
      <trkpt lat="44.22711" lon="6.14956">
        <ele>1480</ele>
        <time>2010-01-01T02:20:28Z</time>
      </trkpt>
      <trkpt lat="44.22705" lon="6.14957">
        <ele>1479</ele>
        <time>2010-01-01T02:20:30Z</time>
      </trkpt>
      <trkpt lat="44.22699" lon="6.14957">
        <ele>1478</ele>
        <time>2010-01-01T02:20:32Z</time>
      </trkpt>
      <trkpt lat="44.22694" lon="6.14955">
        <ele>1476</ele>
        <time>2010-01-01T02:20:33Z</time>
      </trkpt>
      <trkpt lat="44.22689" lon="6.14953">
        <ele>1475</ele>
        <time>2010-01-01T02:20:35Z</time>
      </trkpt>
      <trkpt lat="44.22683" lon="6.14952">
        <ele>1474</ele>
        <time>2010-01-01T02:20:36Z</time>
      </trkpt>
      <trkpt lat="44.22678" lon="6.1495">
        <ele>1473</ele>
        <time>2010-01-01T02:20:37Z</time>
      </trkpt>
      <trkpt lat="44.22673" lon="6.14949">
        <ele>1472</ele>
        <time>2010-01-01T02:20:39Z</time>
      </trkpt>
      <trkpt lat="44.22668" lon="6.14949">
        <ele>1472</ele>
        <time>2010-01-01T02:20:40Z</time>
      </trkpt>
      <trkpt lat="44.22663" lon="6.14948">
        <ele>1471</ele>
        <time>2010-01-01T02:20:41Z</time>
      </trkpt>
      <trkpt lat="44.22659" lon="6.14948">
        <ele>1470</ele>
        <time>2010-01-01T02:20:43Z</time>
      </trkpt>
      <trkpt lat="44.22655" lon="6.14954">
        <ele>1471</ele>
        <time>2010-01-01T02:20:44Z</time>
      </trkpt>
      <trkpt lat="44.22649" lon="6.14952">
        <ele>1470</ele>
        <time>2010-01-01T02:20:46Z</time>
      </trkpt>
      <trkpt lat="44.22646" lon="6.14953">
        <ele>1470</ele>
        <time>2010-01-01T02:20:47Z</time>
      </trkpt>
      <trkpt lat="44.22642" lon="6.14952">
        <ele>1469</ele>
        <time>2010-01-01T02:20:48Z</time>
      </trkpt>
      <trkpt lat="44.22638" lon="6.14957">
        <ele>1469</ele>
        <time>2010-01-01T02:20:49Z</time>
      </trkpt>
      <trkpt lat="44.22633" lon="6.14961">
        <ele>1469</ele>
        <time>2010-01-01T02:20:51Z</time>
      </trkpt>
      <trkpt lat="44.22628" lon="6.14964">
        <ele>1468</ele>
        <time>2010-01-01T02:20:52Z</time>
      </trkpt>
      <trkpt lat="44.22625" lon="6.14968">
        <ele>1468</ele>
        <time>2010-01-01T02:20:53Z</time>
      </trkpt>
      <trkpt lat="44.22621" lon="6.14972">
        <ele>1468</ele>
        <time>2010-01-01T02:20:55Z</time>
      </trkpt>
      <trkpt lat="44.22618" lon="6.14974">
        <ele>1467</ele>
        <time>2010-01-01T02:20:55Z</time>
      </trkpt>
      <trkpt lat="44.22615" lon="6.14975">
        <ele>1467</ele>
        <time>2010-01-01T02:20:56Z</time>
      </trkpt>
      <trkpt lat="44.2261" lon="6.14977">
        <ele>1466</ele>
        <time>2010-01-01T02:20:58Z</time>
      </trkpt>
      <trkpt lat="44.22606" lon="6.14982">
        <ele>1465</ele>
        <time>2010-01-01T02:20:59Z</time>
      </trkpt>
      <trkpt lat="44.22603" lon="6.14987">
        <ele>1465</ele>
        <time>2010-01-01T02:21:00Z</time>
      </trkpt>
      <trkpt lat="44.22601" lon="6.14992">
        <ele>1465</ele>
        <time>2010-01-01T02:21:01Z</time>
      </trkpt>
      <trkpt lat="44.22601" lon="6.14998">
        <ele>1466</ele>
        <time>2010-01-01T02:21:03Z</time>
      </trkpt>
      <trkpt lat="44.226" lon="6.15004">
        <ele>1466</ele>
        <time>2010-01-01T02:21:04Z</time>
      </trkpt>
      <trkpt lat="44.226" lon="6.15009">
        <ele>1466</ele>
        <time>2010-01-01T02:21:05Z</time>
      </trkpt>
      <trkpt lat="44.22598" lon="6.15016">
        <ele>1467</ele>
        <time>2010-01-01T02:21:06Z</time>
      </trkpt>
      <trkpt lat="44.22595" lon="6.15021">
        <ele>1466</ele>
        <time>2010-01-01T02:21:07Z</time>
      </trkpt>
      <trkpt lat="44.22592" lon="6.15024">
        <ele>1466</ele>
        <time>2010-01-01T02:21:08Z</time>
      </trkpt>
      <trkpt lat="44.22588" lon="6.15026">
        <ele>1465</ele>
        <time>2010-01-01T02:21:10Z</time>
      </trkpt>
      <trkpt lat="44.22585" lon="6.1503">
        <ele>1465</ele>
        <time>2010-01-01T02:21:11Z</time>
      </trkpt>
      <trkpt lat="44.22582" lon="6.15033">
        <ele>1465</ele>
        <time>2010-01-01T02:21:12Z</time>
      </trkpt>
      <trkpt lat="44.2258" lon="6.15037">
        <ele>1466</ele>
        <time>2010-01-01T02:21:13Z</time>
      </trkpt>
      <trkpt lat="44.22577" lon="6.15039">
        <ele>1466</ele>
        <time>2010-01-01T02:21:14Z</time>
      </trkpt>
      <trkpt lat="44.22572" lon="6.15038">
        <ele>1465</ele>
        <time>2010-01-01T02:21:15Z</time>
      </trkpt>
      <trkpt lat="44.2257" lon="6.15033">
        <ele>1464</ele>
        <time>2010-01-01T02:21:16Z</time>
      </trkpt>
      <trkpt lat="44.22568" lon="6.1503">
        <ele>1463</ele>
        <time>2010-01-01T02:21:17Z</time>
      </trkpt>
      <trkpt lat="44.22565" lon="6.15028">
        <ele>1463</ele>
        <time>2010-01-01T02:21:18Z</time>
      </trkpt>
      <trkpt lat="44.22562" lon="6.15025">
        <ele>1462</ele>
        <time>2010-01-01T02:21:19Z</time>
      </trkpt>
      <trkpt lat="44.2256" lon="6.15023">
        <ele>1461</ele>
        <time>2010-01-01T02:21:19Z</time>
      </trkpt>
      <trkpt lat="44.22557" lon="6.15021">
        <ele>1461</ele>
        <time>2010-01-01T02:21:20Z</time>
      </trkpt>
      <trkpt lat="44.22553" lon="6.15019">
        <ele>1460</ele>
        <time>2010-01-01T02:21:21Z</time>
      </trkpt>
      <trkpt lat="44.22551" lon="6.15022">
        <ele>1460</ele>
        <time>2010-01-01T02:21:22Z</time>
      </trkpt>
      <trkpt lat="44.22548" lon="6.15023">
        <ele>1459</ele>
        <time>2010-01-01T02:21:23Z</time>
      </trkpt>
      <trkpt lat="44.22545" lon="6.15024">
        <ele>1459</ele>
        <time>2010-01-01T02:21:24Z</time>
      </trkpt>
      <trkpt lat="44.22542" lon="6.15027">
        <ele>1458</ele>
        <time>2010-01-01T02:21:25Z</time>
      </trkpt>
      <trkpt lat="44.22539" lon="6.1503">
        <ele>1458</ele>
        <time>2010-01-01T02:21:26Z</time>
      </trkpt>
      <trkpt lat="44.22537" lon="6.15033">
        <ele>1458</ele>
        <time>2010-01-01T02:21:27Z</time>
      </trkpt>
      <trkpt lat="44.22534" lon="6.15036">
        <ele>1458</ele>
        <time>2010-01-01T02:21:28Z</time>
      </trkpt>
      <trkpt lat="44.2253" lon="6.15039">
        <ele>1458</ele>
        <time>2010-01-01T02:21:29Z</time>
      </trkpt>
      <trkpt lat="44.22527" lon="6.15041">
        <ele>1457</ele>
        <time>2010-01-01T02:21:30Z</time>
      </trkpt>
      <trkpt lat="44.22523" lon="6.15043">
        <ele>1456</ele>
        <time>2010-01-01T02:21:31Z</time>
      </trkpt>
      <trkpt lat="44.2252" lon="6.15046">
        <ele>1456</ele>
        <time>2010-01-01T02:21:32Z</time>
      </trkpt>
      <trkpt lat="44.22517" lon="6.1505">
        <ele>1455</ele>
        <time>2010-01-01T02:21:33Z</time>
      </trkpt>
      <trkpt lat="44.22515" lon="6.15054">
        <ele>1456</ele>
        <time>2010-01-01T02:21:34Z</time>
      </trkpt>
      <trkpt lat="44.22514" lon="6.15059">
        <ele>1456</ele>
        <time>2010-01-01T02:21:35Z</time>
      </trkpt>
      <trkpt lat="44.22513" lon="6.15064">
        <ele>1457</ele>
        <time>2010-01-01T02:21:36Z</time>
      </trkpt>
      <trkpt lat="44.22512" lon="6.15072">
        <ele>1457</ele>
        <time>2010-01-01T02:21:37Z</time>
      </trkpt>
      <trkpt lat="44.2251" lon="6.15075">
        <ele>1458</ele>
        <time>2010-01-01T02:21:38Z</time>
      </trkpt>
      <trkpt lat="44.22508" lon="6.1508">
        <ele>1457</ele>
        <time>2010-01-01T02:21:39Z</time>
      </trkpt>
      <trkpt lat="44.22503" lon="6.15086">
        <ele>1457</ele>
        <time>2010-01-01T02:21:41Z</time>
      </trkpt>
      <trkpt lat="44.22499" lon="6.15092">
        <ele>1456</ele>
        <time>2010-01-01T02:21:42Z</time>
      </trkpt>
      <trkpt lat="44.22495" lon="6.15098">
        <ele>1455</ele>
        <time>2010-01-01T02:21:44Z</time>
      </trkpt>
      <trkpt lat="44.2249" lon="6.15104">
        <ele>1454</ele>
        <time>2010-01-01T02:21:46Z</time>
      </trkpt>
      <trkpt lat="44.22486" lon="6.15109">
        <ele>1454</ele>
        <time>2010-01-01T02:21:47Z</time>
      </trkpt>
      <trkpt lat="44.22484" lon="6.15113">
        <ele>1454</ele>
        <time>2010-01-01T02:21:48Z</time>
      </trkpt>
      <trkpt lat="44.22483" lon="6.15117">
        <ele>1454</ele>
        <time>2010-01-01T02:21:49Z</time>
      </trkpt>
      <trkpt lat="44.22481" lon="6.15121">
        <ele>1453</ele>
        <time>2010-01-01T02:21:50Z</time>
      </trkpt>
      <trkpt lat="44.22478" lon="6.15121">
        <ele>1452</ele>
        <time>2010-01-01T02:21:51Z</time>
      </trkpt>
      <trkpt lat="44.22474" lon="6.15122">
        <ele>1451</ele>
        <time>2010-01-01T02:21:52Z</time>
      </trkpt>
      <trkpt lat="44.2247" lon="6.15123">
        <ele>1450</ele>
        <time>2010-01-01T02:21:53Z</time>
      </trkpt>
      <trkpt lat="44.22467" lon="6.15124">
        <ele>1450</ele>
        <time>2010-01-01T02:21:54Z</time>
      </trkpt>
      <trkpt lat="44.22463" lon="6.1513">
        <ele>1449</ele>
        <time>2010-01-01T02:21:55Z</time>
      </trkpt>
      <trkpt lat="44.22459" lon="6.15133">
        <ele>1449</ele>
        <time>2010-01-01T02:21:56Z</time>
      </trkpt>
      <trkpt lat="44.22455" lon="6.15135">
        <ele>1448</ele>
        <time>2010-01-01T02:21:58Z</time>
      </trkpt>
      <trkpt lat="44.22451" lon="6.15138">
        <ele>1447</ele>
        <time>2010-01-01T02:21:59Z</time>
      </trkpt>
      <trkpt lat="44.22447" lon="6.1514">
        <ele>1446</ele>
        <time>2010-01-01T02:22:00Z</time>
      </trkpt>
      <trkpt lat="44.22443" lon="6.15143">
        <ele>1446</ele>
        <time>2010-01-01T02:22:01Z</time>
      </trkpt>
      <trkpt lat="44.22439" lon="6.15141">
        <ele>1445</ele>
        <time>2010-01-01T02:22:02Z</time>
      </trkpt>
      <trkpt lat="44.22436" lon="6.15138">
        <ele>1444</ele>
        <time>2010-01-01T02:22:03Z</time>
      </trkpt>
      <trkpt lat="44.22433" lon="6.15137">
        <ele>1443</ele>
        <time>2010-01-01T02:22:04Z</time>
      </trkpt>
      <trkpt lat="44.22431" lon="6.15138">
        <ele>1443</ele>
        <time>2010-01-01T02:22:05Z</time>
      </trkpt>
      <trkpt lat="44.22428" lon="6.15144">
        <ele>1443</ele>
        <time>2010-01-01T02:22:06Z</time>
      </trkpt>
      <trkpt lat="44.22425" lon="6.15149">
        <ele>1444</ele>
        <time>2010-01-01T02:22:07Z</time>
      </trkpt>
      <trkpt lat="44.22421" lon="6.15155">
        <ele>1444</ele>
        <time>2010-01-01T02:22:09Z</time>
      </trkpt>
      <trkpt lat="44.2242" lon="6.15159">
        <ele>1445</ele>
        <time>2010-01-01T02:22:10Z</time>
      </trkpt>
      <trkpt lat="44.2242" lon="6.15163">
        <ele>1445</ele>
        <time>2010-01-01T02:22:10Z</time>
      </trkpt>
      <trkpt lat="44.22418" lon="6.15167">
        <ele>1446</ele>
        <time>2010-01-01T02:22:11Z</time>
      </trkpt>
      <trkpt lat="44.22415" lon="6.15169">
        <ele>1446</ele>
        <time>2010-01-01T02:22:12Z</time>
      </trkpt>
      <trkpt lat="44.22411" lon="6.15169">
        <ele>1445</ele>
        <time>2010-01-01T02:22:13Z</time>
      </trkpt>
      <trkpt lat="44.22408" lon="6.15169">
        <ele>1445</ele>
        <time>2010-01-01T02:22:14Z</time>
      </trkpt>
      <trkpt lat="44.22405" lon="6.15171">
        <ele>1445</ele>
        <time>2010-01-01T02:22:15Z</time>
      </trkpt>
      <trkpt lat="44.22401" lon="6.15173">
        <ele>1445</ele>
        <time>2010-01-01T02:22:16Z</time>
      </trkpt>
      <trkpt lat="44.22397" lon="6.15175">
        <ele>1445</ele>
        <time>2010-01-01T02:22:17Z</time>
      </trkpt>
      <trkpt lat="44.22393" lon="6.15177">
        <ele>1444</ele>
        <time>2010-01-01T02:22:18Z</time>
      </trkpt>
      <trkpt lat="44.22389" lon="6.15179">
        <ele>1444</ele>
        <time>2010-01-01T02:22:19Z</time>
      </trkpt>
      <trkpt lat="44.22383" lon="6.15179">
        <ele>1443</ele>
        <time>2010-01-01T02:22:21Z</time>
      </trkpt>
      <trkpt lat="44.22376" lon="6.15179">
        <ele>1442</ele>
        <time>2010-01-01T02:22:23Z</time>
      </trkpt>
      <trkpt lat="44.22371" lon="6.15178">
        <ele>1441</ele>
        <time>2010-01-01T02:22:24Z</time>
      </trkpt>
      <trkpt lat="44.22366" lon="6.15174">
        <ele>1439</ele>
        <time>2010-01-01T02:22:26Z</time>
      </trkpt>
      <trkpt lat="44.22361" lon="6.15177">
        <ele>1439</ele>
        <time>2010-01-01T02:22:27Z</time>
      </trkpt>
      <trkpt lat="44.22353" lon="6.15178">
        <ele>1438</ele>
        <time>2010-01-01T02:22:29Z</time>
      </trkpt>
      <trkpt lat="44.22347" lon="6.15177">
        <ele>1437</ele>
        <time>2010-01-01T02:22:31Z</time>
      </trkpt>
      <trkpt lat="44.2234" lon="6.15175">
        <ele>1435</ele>
        <time>2010-01-01T02:22:33Z</time>
      </trkpt>
      <trkpt lat="44.22335" lon="6.15174">
        <ele>1434</ele>
        <time>2010-01-01T02:22:34Z</time>
      </trkpt>
      <trkpt lat="44.22329" lon="6.15174">
        <ele>1434</ele>
        <time>2010-01-01T02:22:36Z</time>
      </trkpt>
      <trkpt lat="44.22323" lon="6.15173">
        <ele>1433</ele>
        <time>2010-01-01T02:22:37Z</time>
      </trkpt>
      <trkpt lat="44.22317" lon="6.15174">
        <ele>1433</ele>
        <time>2010-01-01T02:22:39Z</time>
      </trkpt>
      <trkpt lat="44.22313" lon="6.15172">
        <ele>1432</ele>
        <time>2010-01-01T02:22:40Z</time>
      </trkpt>
      <trkpt lat="44.22307" lon="6.15172">
        <ele>1432</ele>
        <time>2010-01-01T02:22:41Z</time>
      </trkpt>
      <trkpt lat="44.22303" lon="6.15175">
        <ele>1432</ele>
        <time>2010-01-01T02:22:43Z</time>
      </trkpt>
      <trkpt lat="44.22298" lon="6.15177">
        <ele>1431</ele>
        <time>2010-01-01T02:22:44Z</time>
      </trkpt>
      <trkpt lat="44.22293" lon="6.15178">
        <ele>1431</ele>
        <time>2010-01-01T02:22:45Z</time>
      </trkpt>
      <trkpt lat="44.22289" lon="6.15179">
        <ele>1431</ele>
        <time>2010-01-01T02:22:47Z</time>
      </trkpt>
      <trkpt lat="44.22284" lon="6.1518">
        <ele>1430</ele>
        <time>2010-01-01T02:22:48Z</time>
      </trkpt>
      <trkpt lat="44.22279" lon="6.15179">
        <ele>1430</ele>
        <time>2010-01-01T02:22:49Z</time>
      </trkpt>
      <trkpt lat="44.22274" lon="6.15176">
        <ele>1428</ele>
        <time>2010-01-01T02:22:51Z</time>
      </trkpt>
      <trkpt lat="44.2227" lon="6.15172">
        <ele>1427</ele>
        <time>2010-01-01T02:22:52Z</time>
      </trkpt>
      <trkpt lat="44.22267" lon="6.15168">
        <ele>1426</ele>
        <time>2010-01-01T02:22:53Z</time>
      </trkpt>
      <trkpt lat="44.22262" lon="6.15161">
        <ele>1424</ele>
        <time>2010-01-01T02:22:55Z</time>
      </trkpt>
      <trkpt lat="44.22259" lon="6.1516">
        <ele>1424</ele>
        <time>2010-01-01T02:22:56Z</time>
      </trkpt>
      <trkpt lat="44.22255" lon="6.1516">
        <ele>1423</ele>
        <time>2010-01-01T02:22:57Z</time>
      </trkpt>
      <trkpt lat="44.22249" lon="6.15159">
        <ele>1422</ele>
        <time>2010-01-01T02:22:59Z</time>
      </trkpt>
      <trkpt lat="44.22243" lon="6.15157">
        <ele>1421</ele>
        <time>2010-01-01T02:23:00Z</time>
      </trkpt>
      <trkpt lat="44.22237" lon="6.15155">
        <ele>1420</ele>
        <time>2010-01-01T02:23:02Z</time>
      </trkpt>
      <trkpt lat="44.22232" lon="6.15158">
        <ele>1420</ele>
        <time>2010-01-01T02:23:03Z</time>
      </trkpt>
      <trkpt lat="44.22227" lon="6.15159">
        <ele>1420</ele>
        <time>2010-01-01T02:23:05Z</time>
      </trkpt>
      <trkpt lat="44.22223" lon="6.15162">
        <ele>1420</ele>
        <time>2010-01-01T02:23:06Z</time>
      </trkpt>
      <trkpt lat="44.2222" lon="6.15165">
        <ele>1420</ele>
        <time>2010-01-01T02:23:07Z</time>
      </trkpt>
      <trkpt lat="44.22216" lon="6.1517">
        <ele>1420</ele>
        <time>2010-01-01T02:23:08Z</time>
      </trkpt>
      <trkpt lat="44.22211" lon="6.15172">
        <ele>1420</ele>
        <time>2010-01-01T02:23:10Z</time>
      </trkpt>
      <trkpt lat="44.22206" lon="6.15174">
        <ele>1420</ele>
        <time>2010-01-01T02:23:11Z</time>
      </trkpt>
      <trkpt lat="44.22202" lon="6.15172">
        <ele>1419</ele>
        <time>2010-01-01T02:23:12Z</time>
      </trkpt>
      <trkpt lat="44.22199" lon="6.15169">
        <ele>1418</ele>
        <time>2010-01-01T02:23:13Z</time>
      </trkpt>
      <trkpt lat="44.222" lon="6.15164">
        <ele>1418</ele>
        <time>2010-01-01T02:23:14Z</time>
      </trkpt>
      <trkpt lat="44.22202" lon="6.1516">
        <ele>1418</ele>
        <time>2010-01-01T02:23:15Z</time>
      </trkpt>
      <trkpt lat="44.22205" lon="6.15157">
        <ele>1418</ele>
        <time>2010-01-01T02:23:16Z</time>
      </trkpt>
      <trkpt lat="44.22208" lon="6.15154">
        <ele>1418</ele>
        <time>2010-01-01T02:23:17Z</time>
      </trkpt>
      <trkpt lat="44.22208" lon="6.15149">
        <ele>1417</ele>
        <time>2010-01-01T02:23:18Z</time>
      </trkpt>
      <trkpt lat="44.22209" lon="6.15144">
        <ele>1417</ele>
        <time>2010-01-01T02:23:19Z</time>
      </trkpt>
      <trkpt lat="44.22209" lon="6.1514">
        <ele>1416</ele>
        <time>2010-01-01T02:23:20Z</time>
      </trkpt>
      <trkpt lat="44.22212" lon="6.15133">
        <ele>1416</ele>
        <time>2010-01-01T02:23:21Z</time>
      </trkpt>
      <trkpt lat="44.22209" lon="6.15131">
        <ele>1415</ele>
        <time>2010-01-01T02:23:22Z</time>
      </trkpt>
      <trkpt lat="44.22211" lon="6.15124">
        <ele>1415</ele>
        <time>2010-01-01T02:23:24Z</time>
      </trkpt>
      <trkpt lat="44.22211" lon="6.1512">
        <ele>1414</ele>
        <time>2010-01-01T02:23:24Z</time>
      </trkpt>
      <trkpt lat="44.22212" lon="6.15115">
        <ele>1414</ele>
        <time>2010-01-01T02:23:25Z</time>
      </trkpt>
      <trkpt lat="44.22212" lon="6.1511">
        <ele>1413</ele>
        <time>2010-01-01T02:23:26Z</time>
      </trkpt>
      <trkpt lat="44.22213" lon="6.15105">
        <ele>1413</ele>
        <time>2010-01-01T02:23:27Z</time>
      </trkpt>
      <trkpt lat="44.22214" lon="6.15099">
        <ele>1412</ele>
        <time>2010-01-01T02:23:29Z</time>
      </trkpt>
      <trkpt lat="44.22215" lon="6.15094">
        <ele>1412</ele>
        <time>2010-01-01T02:23:30Z</time>
      </trkpt>
      <trkpt lat="44.22216" lon="6.15088">
        <ele>1411</ele>
        <time>2010-01-01T02:23:31Z</time>
      </trkpt>
      <trkpt lat="44.22218" lon="6.15082">
        <ele>1411</ele>
        <time>2010-01-01T02:23:32Z</time>
      </trkpt>
      <trkpt lat="44.22221" lon="6.15075">
        <ele>1410</ele>
        <time>2010-01-01T02:23:34Z</time>
      </trkpt>
      <trkpt lat="44.22225" lon="6.15067">
        <ele>1411</ele>
        <time>2010-01-01T02:23:35Z</time>
      </trkpt>
      <trkpt lat="44.22229" lon="6.15059">
        <ele>1411</ele>
        <time>2010-01-01T02:23:37Z</time>
      </trkpt>
      <trkpt lat="44.22232" lon="6.15051">
        <ele>1411</ele>
        <time>2010-01-01T02:23:39Z</time>
      </trkpt>
      <trkpt lat="44.22236" lon="6.15035">
        <ele>1411</ele>
        <time>2010-01-01T02:23:42Z</time>
      </trkpt>
      <trkpt lat="44.22232" lon="6.15027">
        <ele>1409</ele>
        <time>2010-01-01T02:23:44Z</time>
      </trkpt>
      <trkpt lat="44.22231" lon="6.15017">
        <ele>1408</ele>
        <time>2010-01-01T02:23:46Z</time>
      </trkpt>
      <trkpt lat="44.22229" lon="6.15007">
        <ele>1406</ele>
        <time>2010-01-01T02:23:48Z</time>
      </trkpt>
      <trkpt lat="44.2223" lon="6.14998">
        <ele>1405</ele>
        <time>2010-01-01T02:23:50Z</time>
      </trkpt>
      <trkpt lat="44.22229" lon="6.1499">
        <ele>1405</ele>
        <time>2010-01-01T02:23:51Z</time>
      </trkpt>
      <trkpt lat="44.2223" lon="6.14984">
        <ele>1404</ele>
        <time>2010-01-01T02:23:53Z</time>
      </trkpt>
      <trkpt lat="44.22233" lon="6.14977">
        <ele>1404</ele>
        <time>2010-01-01T02:23:54Z</time>
      </trkpt>
      <trkpt lat="44.22234" lon="6.1497">
        <ele>1403</ele>
        <time>2010-01-01T02:23:55Z</time>
      </trkpt>
      <trkpt lat="44.22235" lon="6.14965">
        <ele>1403</ele>
        <time>2010-01-01T02:23:56Z</time>
      </trkpt>
      <trkpt lat="44.22238" lon="6.14962">
        <ele>1403</ele>
        <time>2010-01-01T02:23:57Z</time>
      </trkpt>
      <trkpt lat="44.22242" lon="6.14957">
        <ele>1402</ele>
        <time>2010-01-01T02:23:59Z</time>
      </trkpt>
      <trkpt lat="44.22248" lon="6.14954">
        <ele>1402</ele>
        <time>2010-01-01T02:24:01Z</time>
      </trkpt>
      <trkpt lat="44.22251" lon="6.14958">
        <ele>1403</ele>
        <time>2010-01-01T02:24:02Z</time>
      </trkpt>
      <trkpt lat="44.22254" lon="6.1496">
        <ele>1403</ele>
        <time>2010-01-01T02:24:02Z</time>
      </trkpt>
      <trkpt lat="44.22259" lon="6.1496">
        <ele>1404</ele>
        <time>2010-01-01T02:24:04Z</time>
      </trkpt>
      <trkpt lat="44.22263" lon="6.1496">
        <ele>1404</ele>
        <time>2010-01-01T02:24:05Z</time>
      </trkpt>
      <trkpt lat="44.22268" lon="6.14958">
        <ele>1404</ele>
        <time>2010-01-01T02:24:06Z</time>
      </trkpt>
      <trkpt lat="44.22272" lon="6.14956">
        <ele>1404</ele>
        <time>2010-01-01T02:24:07Z</time>
      </trkpt>
      <trkpt lat="44.22275" lon="6.14959">
        <ele>1405</ele>
        <time>2010-01-01T02:24:08Z</time>
      </trkpt>
      <trkpt lat="44.22277" lon="6.14959">
        <ele>1405</ele>
        <time>2010-01-01T02:24:09Z</time>
      </trkpt>
      <trkpt lat="44.22277" lon="6.14963">
        <ele>1406</ele>
        <time>2010-01-01T02:24:10Z</time>
      </trkpt>
      <trkpt lat="44.22278" lon="6.14966">
        <ele>1406</ele>
        <time>2010-01-01T02:24:11Z</time>
      </trkpt>
      <trkpt lat="44.22281" lon="6.14966">
        <ele>1407</ele>
        <time>2010-01-01T02:24:11Z</time>
      </trkpt>
      <trkpt lat="44.22283" lon="6.14963">
        <ele>1406</ele>
        <time>2010-01-01T02:24:12Z</time>
      </trkpt>
      <trkpt lat="44.22287" lon="6.14957">
        <ele>1406</ele>
        <time>2010-01-01T02:24:14Z</time>
      </trkpt>
      <trkpt lat="44.22288" lon="6.14953">
        <ele>1405</ele>
        <time>2010-01-01T02:24:15Z</time>
      </trkpt>
      <trkpt lat="44.2229" lon="6.14949">
        <ele>1404</ele>
        <time>2010-01-01T02:24:15Z</time>
      </trkpt>
      <trkpt lat="44.22293" lon="6.14942">
        <ele>1403</ele>
        <time>2010-01-01T02:24:17Z</time>
      </trkpt>
      <trkpt lat="44.22297" lon="6.14938">
        <ele>1403</ele>
        <time>2010-01-01T02:24:18Z</time>
      </trkpt>
      <trkpt lat="44.22299" lon="6.14934">
        <ele>1402</ele>
        <time>2010-01-01T02:24:19Z</time>
      </trkpt>
      <trkpt lat="44.223" lon="6.14927">
        <ele>1402</ele>
        <time>2010-01-01T02:24:21Z</time>
      </trkpt>
      <trkpt lat="44.22297" lon="6.14922">
        <ele>1401</ele>
        <time>2010-01-01T02:24:22Z</time>
      </trkpt>
      <trkpt lat="44.22294" lon="6.1492">
        <ele>1400</ele>
        <time>2010-01-01T02:24:23Z</time>
      </trkpt>
      <trkpt lat="44.2229" lon="6.14918">
        <ele>1399</ele>
        <time>2010-01-01T02:24:24Z</time>
      </trkpt>
      <trkpt lat="44.22286" lon="6.14916">
        <ele>1399</ele>
        <time>2010-01-01T02:24:25Z</time>
      </trkpt>
      <trkpt lat="44.22283" lon="6.14914">
        <ele>1399</ele>
        <time>2010-01-01T02:24:26Z</time>
      </trkpt>
      <trkpt lat="44.22278" lon="6.14913">
        <ele>1398</ele>
        <time>2010-01-01T02:24:27Z</time>
      </trkpt>
      <trkpt lat="44.22276" lon="6.14909">
        <ele>1398</ele>
        <time>2010-01-01T02:24:28Z</time>
      </trkpt>
      <trkpt lat="44.22274" lon="6.14907">
        <ele>1398</ele>
        <time>2010-01-01T02:24:29Z</time>
      </trkpt>
      <trkpt lat="44.22272" lon="6.14903">
        <ele>1398</ele>
        <time>2010-01-01T02:24:30Z</time>
      </trkpt>
      <trkpt lat="44.2227" lon="6.149">
        <ele>1398</ele>
        <time>2010-01-01T02:24:30Z</time>
      </trkpt>
      <trkpt lat="44.22268" lon="6.14895">
        <ele>1397</ele>
        <time>2010-01-01T02:24:31Z</time>
      </trkpt>
      <trkpt lat="44.22267" lon="6.14892">
        <ele>1397</ele>
        <time>2010-01-01T02:24:32Z</time>
      </trkpt>
      <trkpt lat="44.22267" lon="6.14888">
        <ele>1397</ele>
        <time>2010-01-01T02:24:33Z</time>
      </trkpt>
      <trkpt lat="44.22265" lon="6.1488">
        <ele>1396</ele>
        <time>2010-01-01T02:24:34Z</time>
      </trkpt>
      <trkpt lat="44.22264" lon="6.14876">
        <ele>1396</ele>
        <time>2010-01-01T02:24:35Z</time>
      </trkpt>
      <trkpt lat="44.22264" lon="6.14872">
        <ele>1395</ele>
        <time>2010-01-01T02:24:36Z</time>
      </trkpt>
      <trkpt lat="44.22264" lon="6.14867">
        <ele>1395</ele>
        <time>2010-01-01T02:24:37Z</time>
      </trkpt>
      <trkpt lat="44.22264" lon="6.14862">
        <ele>1395</ele>
        <time>2010-01-01T02:24:38Z</time>
      </trkpt>
      <trkpt lat="44.22265" lon="6.14857">
        <ele>1394</ele>
        <time>2010-01-01T02:24:39Z</time>
      </trkpt>
      <trkpt lat="44.22267" lon="6.14851">
        <ele>1393</ele>
        <time>2010-01-01T02:24:40Z</time>
      </trkpt>
      <trkpt lat="44.22268" lon="6.14846">
        <ele>1393</ele>
        <time>2010-01-01T02:24:41Z</time>
      </trkpt>
      <trkpt lat="44.2227" lon="6.1484">
        <ele>1392</ele>
        <time>2010-01-01T02:24:42Z</time>
      </trkpt>
      <trkpt lat="44.22272" lon="6.14833">
        <ele>1392</ele>
        <time>2010-01-01T02:24:44Z</time>
      </trkpt>
      <trkpt lat="44.22275" lon="6.14822">
        <ele>1390</ele>
        <time>2010-01-01T02:24:46Z</time>
      </trkpt>
      <trkpt lat="44.22275" lon="6.14816">
        <ele>1388</ele>
        <time>2010-01-01T02:24:47Z</time>
      </trkpt>
      <trkpt lat="44.22278" lon="6.14809">
        <ele>1387</ele>
        <time>2010-01-01T02:24:49Z</time>
      </trkpt>
      <trkpt lat="44.22281" lon="6.14802">
        <ele>1386</ele>
        <time>2010-01-01T02:24:50Z</time>
      </trkpt>
      <trkpt lat="44.22285" lon="6.14798">
        <ele>1386</ele>
        <time>2010-01-01T02:24:52Z</time>
      </trkpt>
      <trkpt lat="44.22289" lon="6.14795">
        <ele>1386</ele>
        <time>2010-01-01T02:24:53Z</time>
      </trkpt>
      <trkpt lat="44.22295" lon="6.14792">
        <ele>1387</ele>
        <time>2010-01-01T02:24:54Z</time>
      </trkpt>
      <trkpt lat="44.223" lon="6.14792">
        <ele>1387</ele>
        <time>2010-01-01T02:24:56Z</time>
      </trkpt>
      <trkpt lat="44.22305" lon="6.1479">
        <ele>1388</ele>
        <time>2010-01-01T02:24:57Z</time>
      </trkpt>
      <trkpt lat="44.22311" lon="6.14788">
        <ele>1388</ele>
        <time>2010-01-01T02:24:59Z</time>
      </trkpt>
      <trkpt lat="44.22312" lon="6.14784">
        <ele>1387</ele>
        <time>2010-01-01T02:25:00Z</time>
      </trkpt>
      <trkpt lat="44.22314" lon="6.1478">
        <ele>1386</ele>
        <time>2010-01-01T02:25:01Z</time>
      </trkpt>
      <trkpt lat="44.22315" lon="6.14775">
        <ele>1386</ele>
        <time>2010-01-01T02:25:02Z</time>
      </trkpt>
      <trkpt lat="44.22317" lon="6.14769">
        <ele>1385</ele>
        <time>2010-01-01T02:25:03Z</time>
      </trkpt>
      <trkpt lat="44.22317" lon="6.14761">
        <ele>1383</ele>
        <time>2010-01-01T02:25:04Z</time>
      </trkpt>
      <trkpt lat="44.22318" lon="6.14753">
        <ele>1382</ele>
        <time>2010-01-01T02:25:06Z</time>
      </trkpt>
      <trkpt lat="44.22317" lon="6.14747">
        <ele>1381</ele>
        <time>2010-01-01T02:25:07Z</time>
      </trkpt>
      <trkpt lat="44.22314" lon="6.14742">
        <ele>1380</ele>
        <time>2010-01-01T02:25:08Z</time>
      </trkpt>
      <trkpt lat="44.2231" lon="6.14739">
        <ele>1379</ele>
        <time>2010-01-01T02:25:09Z</time>
      </trkpt>
      <trkpt lat="44.22306" lon="6.14735">
        <ele>1378</ele>
        <time>2010-01-01T02:25:11Z</time>
      </trkpt>
      <trkpt lat="44.22301" lon="6.14728">
        <ele>1376</ele>
        <time>2010-01-01T02:25:13Z</time>
      </trkpt>
      <trkpt lat="44.22299" lon="6.14724">
        <ele>1375</ele>
        <time>2010-01-01T02:25:14Z</time>
      </trkpt>
      <trkpt lat="44.223" lon="6.14719">
        <ele>1374</ele>
        <time>2010-01-01T02:25:14Z</time>
      </trkpt>
      <trkpt lat="44.22299" lon="6.14713">
        <ele>1373</ele>
        <time>2010-01-01T02:25:16Z</time>
      </trkpt>
      <trkpt lat="44.22296" lon="6.1471">
        <ele>1372</ele>
        <time>2010-01-01T02:25:17Z</time>
      </trkpt>
      <trkpt lat="44.22292" lon="6.14709">
        <ele>1372</ele>
        <time>2010-01-01T02:25:18Z</time>
      </trkpt>
      <trkpt lat="44.22289" lon="6.14703">
        <ele>1371</ele>
        <time>2010-01-01T02:25:19Z</time>
      </trkpt>
      <trkpt lat="44.22289" lon="6.14696">
        <ele>1370</ele>
        <time>2010-01-01T02:25:20Z</time>
      </trkpt>
      <trkpt lat="44.2229" lon="6.14691">
        <ele>1369</ele>
        <time>2010-01-01T02:25:21Z</time>
      </trkpt>
      <trkpt lat="44.22291" lon="6.14686">
        <ele>1369</ele>
        <time>2010-01-01T02:25:22Z</time>
      </trkpt>
      <trkpt lat="44.22292" lon="6.1468">
        <ele>1368</ele>
        <time>2010-01-01T02:25:24Z</time>
      </trkpt>
      <trkpt lat="44.22295" lon="6.14671">
        <ele>1367</ele>
        <time>2010-01-01T02:25:26Z</time>
      </trkpt>
      <trkpt lat="44.22295" lon="6.14665">
        <ele>1367</ele>
        <time>2010-01-01T02:25:27Z</time>
      </trkpt>
      <trkpt lat="44.22296" lon="6.14659">
        <ele>1366</ele>
        <time>2010-01-01T02:25:28Z</time>
      </trkpt>
      <trkpt lat="44.22299" lon="6.14655">
        <ele>1366</ele>
        <time>2010-01-01T02:25:29Z</time>
      </trkpt>
      <trkpt lat="44.22303" lon="6.14646">
        <ele>1366</ele>
        <time>2010-01-01T02:25:31Z</time>
      </trkpt>
      <trkpt lat="44.22306" lon="6.14641">
        <ele>1366</ele>
        <time>2010-01-01T02:25:32Z</time>
      </trkpt>
      <trkpt lat="44.2231" lon="6.14634">
        <ele>1366</ele>
        <time>2010-01-01T02:25:34Z</time>
      </trkpt>
      <trkpt lat="44.22314" lon="6.14629">
        <ele>1366</ele>
        <time>2010-01-01T02:25:35Z</time>
      </trkpt>
      <trkpt lat="44.22317" lon="6.14623">
        <ele>1365</ele>
        <time>2010-01-01T02:25:37Z</time>
      </trkpt>
      <trkpt lat="44.22319" lon="6.14618">
        <ele>1365</ele>
        <time>2010-01-01T02:25:38Z</time>
      </trkpt>
      <trkpt lat="44.22322" lon="6.14611">
        <ele>1365</ele>
        <time>2010-01-01T02:25:39Z</time>
      </trkpt>
      <trkpt lat="44.22322" lon="6.14607">
        <ele>1364</ele>
        <time>2010-01-01T02:25:40Z</time>
      </trkpt>
      <trkpt lat="44.22319" lon="6.14604">
        <ele>1364</ele>
        <time>2010-01-01T02:25:41Z</time>
      </trkpt>
      <trkpt lat="44.22317" lon="6.14602">
        <ele>1363</ele>
        <time>2010-01-01T02:25:42Z</time>
      </trkpt>
      <trkpt lat="44.22311" lon="6.14601">
        <ele>1362</ele>
        <time>2010-01-01T02:25:43Z</time>
      </trkpt>
      <trkpt lat="44.22306" lon="6.14602">
        <ele>1362</ele>
        <time>2010-01-01T02:25:45Z</time>
      </trkpt>
      <trkpt lat="44.22303" lon="6.14602">
        <ele>1361</ele>
        <time>2010-01-01T02:25:46Z</time>
      </trkpt>
      <trkpt lat="44.22299" lon="6.14602">
        <ele>1361</ele>
        <time>2010-01-01T02:25:47Z</time>
      </trkpt>
      <trkpt lat="44.22295" lon="6.14601">
        <ele>1360</ele>
        <time>2010-01-01T02:25:48Z</time>
      </trkpt>
      <trkpt lat="44.22291" lon="6.14601">
        <ele>1359</ele>
        <time>2010-01-01T02:25:49Z</time>
      </trkpt>
      <trkpt lat="44.22286" lon="6.14601">
        <ele>1359</ele>
        <time>2010-01-01T02:25:50Z</time>
      </trkpt>
      <trkpt lat="44.22281" lon="6.14596">
        <ele>1358</ele>
        <time>2010-01-01T02:25:52Z</time>
      </trkpt>
      <trkpt lat="44.22276" lon="6.14595">
        <ele>1357</ele>
        <time>2010-01-01T02:25:53Z</time>
      </trkpt>
      <trkpt lat="44.2227" lon="6.14596">
        <ele>1356</ele>
        <time>2010-01-01T02:25:55Z</time>
      </trkpt>
      <trkpt lat="44.22266" lon="6.14598">
        <ele>1356</ele>
        <time>2010-01-01T02:25:56Z</time>
      </trkpt>
      <trkpt lat="44.2226" lon="6.14603">
        <ele>1356</ele>
        <time>2010-01-01T02:25:58Z</time>
      </trkpt>
      <trkpt lat="44.22257" lon="6.14607">
        <ele>1355</ele>
        <time>2010-01-01T02:25:59Z</time>
      </trkpt>
      <trkpt lat="44.22254" lon="6.14614">
        <ele>1355</ele>
        <time>2010-01-01T02:26:00Z</time>
      </trkpt>
      <trkpt lat="44.2225" lon="6.14618">
        <ele>1355</ele>
        <time>2010-01-01T02:26:02Z</time>
      </trkpt>
      <trkpt lat="44.22246" lon="6.14622">
        <ele>1355</ele>
        <time>2010-01-01T02:26:03Z</time>
      </trkpt>
      <trkpt lat="44.22243" lon="6.14625">
        <ele>1355</ele>
        <time>2010-01-01T02:26:04Z</time>
      </trkpt>
      <trkpt lat="44.22239" lon="6.14628">
        <ele>1355</ele>
        <time>2010-01-01T02:26:05Z</time>
      </trkpt>
      <trkpt lat="44.22233" lon="6.14631">
        <ele>1354</ele>
        <time>2010-01-01T02:26:07Z</time>
      </trkpt>
      <trkpt lat="44.22228" lon="6.14636">
        <ele>1354</ele>
        <time>2010-01-01T02:26:08Z</time>
      </trkpt>
      <trkpt lat="44.22225" lon="6.14642">
        <ele>1354</ele>
        <time>2010-01-01T02:26:10Z</time>
      </trkpt>
      <trkpt lat="44.22222" lon="6.14649">
        <ele>1354</ele>
        <time>2010-01-01T02:26:11Z</time>
      </trkpt>
      <trkpt lat="44.22218" lon="6.1466">
        <ele>1355</ele>
        <time>2010-01-01T02:26:14Z</time>
      </trkpt>
      <trkpt lat="44.22217" lon="6.14666">
        <ele>1355</ele>
        <time>2010-01-01T02:26:15Z</time>
      </trkpt>
      <trkpt lat="44.22215" lon="6.14672">
        <ele>1356</ele>
        <time>2010-01-01T02:26:16Z</time>
      </trkpt>
      <trkpt lat="44.22211" lon="6.14677">
        <ele>1357</ele>
        <time>2010-01-01T02:26:18Z</time>
      </trkpt>
      <trkpt lat="44.22207" lon="6.14679">
        <ele>1357</ele>
        <time>2010-01-01T02:26:19Z</time>
      </trkpt>
      <trkpt lat="44.22202" lon="6.14676">
        <ele>1356</ele>
        <time>2010-01-01T02:26:20Z</time>
      </trkpt>
      <trkpt lat="44.22198" lon="6.14672">
        <ele>1356</ele>
        <time>2010-01-01T02:26:22Z</time>
      </trkpt>
      <trkpt lat="44.22194" lon="6.14667">
        <ele>1355</ele>
        <time>2010-01-01T02:26:23Z</time>
      </trkpt>
      <trkpt lat="44.22191" lon="6.14662">
        <ele>1354</ele>
        <time>2010-01-01T02:26:24Z</time>
      </trkpt>
      <trkpt lat="44.22188" lon="6.14656">
        <ele>1354</ele>
        <time>2010-01-01T02:26:26Z</time>
      </trkpt>
      <trkpt lat="44.22184" lon="6.1465">
        <ele>1354</ele>
        <time>2010-01-01T02:26:27Z</time>
      </trkpt>
      <trkpt lat="44.22181" lon="6.14645">
        <ele>1353</ele>
        <time>2010-01-01T02:26:28Z</time>
      </trkpt>
      <trkpt lat="44.2218" lon="6.14638">
        <ele>1352</ele>
        <time>2010-01-01T02:26:30Z</time>
      </trkpt>
      <trkpt lat="44.22176" lon="6.1463">
        <ele>1351</ele>
        <time>2010-01-01T02:26:32Z</time>
      </trkpt>
      <trkpt lat="44.22174" lon="6.14624">
        <ele>1350</ele>
        <time>2010-01-01T02:26:33Z</time>
      </trkpt>
      <trkpt lat="44.22171" lon="6.14618">
        <ele>1349</ele>
        <time>2010-01-01T02:26:34Z</time>
      </trkpt>
      <trkpt lat="44.22169" lon="6.14613">
        <ele>1349</ele>
        <time>2010-01-01T02:26:35Z</time>
      </trkpt>
      <trkpt lat="44.22161" lon="6.14608">
        <ele>1347</ele>
        <time>2010-01-01T02:26:38Z</time>
      </trkpt>
      <trkpt lat="44.22155" lon="6.14604">
        <ele>1346</ele>
        <time>2010-01-01T02:26:40Z</time>
      </trkpt>
      <trkpt lat="44.22147" lon="6.14601">
        <ele>1344</ele>
        <time>2010-01-01T02:26:42Z</time>
      </trkpt>
      <trkpt lat="44.2214" lon="6.14601">
        <ele>1344</ele>
        <time>2010-01-01T02:26:44Z</time>
      </trkpt>
      <trkpt lat="44.22133" lon="6.14601">
        <ele>1343</ele>
        <time>2010-01-01T02:26:45Z</time>
      </trkpt>
      <trkpt lat="44.22126" lon="6.14601">
        <ele>1342</ele>
        <time>2010-01-01T02:26:47Z</time>
      </trkpt>
      <trkpt lat="44.22119" lon="6.14605">
        <ele>1342</ele>
        <time>2010-01-01T02:26:49Z</time>
      </trkpt>
      <trkpt lat="44.22112" lon="6.14608">
        <ele>1342</ele>
        <time>2010-01-01T02:26:51Z</time>
      </trkpt>
      <trkpt lat="44.22105" lon="6.14612">
        <ele>1342</ele>
        <time>2010-01-01T02:26:53Z</time>
      </trkpt>
      <trkpt lat="44.22099" lon="6.14614">
        <ele>1341</ele>
        <time>2010-01-01T02:26:55Z</time>
      </trkpt>
      <trkpt lat="44.22092" lon="6.14617">
        <ele>1341</ele>
        <time>2010-01-01T02:26:57Z</time>
      </trkpt>
      <trkpt lat="44.22084" lon="6.14622">
        <ele>1341</ele>
        <time>2010-01-01T02:26:59Z</time>
      </trkpt>
      <trkpt lat="44.22076" lon="6.14627">
        <ele>1340</ele>
        <time>2010-01-01T02:27:02Z</time>
      </trkpt>
      <trkpt lat="44.22068" lon="6.14632">
        <ele>1340</ele>
        <time>2010-01-01T02:27:04Z</time>
      </trkpt>
      <trkpt lat="44.22061" lon="6.14639">
        <ele>1339</ele>
        <time>2010-01-01T02:27:06Z</time>
      </trkpt>
      <trkpt lat="44.22054" lon="6.14645">
        <ele>1339</ele>
        <time>2010-01-01T02:27:08Z</time>
      </trkpt>
      <trkpt lat="44.22047" lon="6.14649">
        <ele>1339</ele>
        <time>2010-01-01T02:27:10Z</time>
      </trkpt>
      <trkpt lat="44.22038" lon="6.14652">
        <ele>1338</ele>
        <time>2010-01-01T02:27:13Z</time>
      </trkpt>
      <trkpt lat="44.2203" lon="6.14653">
        <ele>1337</ele>
        <time>2010-01-01T02:27:15Z</time>
      </trkpt>
      <trkpt lat="44.22021" lon="6.14653">
        <ele>1337</ele>
        <time>2010-01-01T02:27:17Z</time>
      </trkpt>
      <trkpt lat="44.22013" lon="6.14653">
        <ele>1338</ele>
        <time>2010-01-01T02:27:20Z</time>
      </trkpt>
      <trkpt lat="44.22005" lon="6.14649">
        <ele>1337</ele>
        <time>2010-01-01T02:27:22Z</time>
      </trkpt>
      <trkpt lat="44.21997" lon="6.14646">
        <ele>1337</ele>
        <time>2010-01-01T02:27:24Z</time>
      </trkpt>
      <trkpt lat="44.21991" lon="6.14642">
        <ele>1337</ele>
        <time>2010-01-01T02:27:26Z</time>
      </trkpt>
      <trkpt lat="44.21983" lon="6.14638">
        <ele>1337</ele>
        <time>2010-01-01T02:27:28Z</time>
      </trkpt>
      <trkpt lat="44.21976" lon="6.14636">
        <ele>1337</ele>
        <time>2010-01-01T02:27:30Z</time>
      </trkpt>
      <trkpt lat="44.2197" lon="6.14634">
        <ele>1337</ele>
        <time>2010-01-01T02:27:31Z</time>
      </trkpt>
      <trkpt lat="44.21964" lon="6.14633">
        <ele>1336</ele>
        <time>2010-01-01T02:27:33Z</time>
      </trkpt>
      <trkpt lat="44.21956" lon="6.14633">
        <ele>1336</ele>
        <time>2010-01-01T02:27:35Z</time>
      </trkpt>
      <trkpt lat="44.2195" lon="6.14634">
        <ele>1335</ele>
        <time>2010-01-01T02:27:37Z</time>
      </trkpt>
      <trkpt lat="44.21943" lon="6.14636">
        <ele>1335</ele>
        <time>2010-01-01T02:27:39Z</time>
      </trkpt>
      <trkpt lat="44.21938" lon="6.14641">
        <ele>1335</ele>
        <time>2010-01-01T02:27:41Z</time>
      </trkpt>
      <trkpt lat="44.21933" lon="6.14645">
        <ele>1336</ele>
        <time>2010-01-01T02:27:42Z</time>
      </trkpt>
      <trkpt lat="44.21928" lon="6.14651">
        <ele>1336</ele>
        <time>2010-01-01T02:27:44Z</time>
      </trkpt>
      <trkpt lat="44.21922" lon="6.14655">
        <ele>1336</ele>
        <time>2010-01-01T02:27:46Z</time>
      </trkpt>
      <trkpt lat="44.21918" lon="6.14658">
        <ele>1337</ele>
        <time>2010-01-01T02:27:47Z</time>
      </trkpt>
      <trkpt lat="44.21913" lon="6.14663">
        <ele>1337</ele>
        <time>2010-01-01T02:27:48Z</time>
      </trkpt>
      <trkpt lat="44.21908" lon="6.14669">
        <ele>1337</ele>
        <time>2010-01-01T02:27:50Z</time>
      </trkpt>
      <trkpt lat="44.21904" lon="6.14674">
        <ele>1337</ele>
        <time>2010-01-01T02:27:52Z</time>
      </trkpt>
      <trkpt lat="44.219" lon="6.14679">
        <ele>1336</ele>
        <time>2010-01-01T02:27:53Z</time>
      </trkpt>
      <trkpt lat="44.21896" lon="6.14682">
        <ele>1336</ele>
        <time>2010-01-01T02:27:54Z</time>
      </trkpt>
      <trkpt lat="44.21891" lon="6.14688">
        <ele>1336</ele>
        <time>2010-01-01T02:27:56Z</time>
      </trkpt>
      <trkpt lat="44.21888" lon="6.14692">
        <ele>1336</ele>
        <time>2010-01-01T02:27:57Z</time>
      </trkpt>
      <trkpt lat="44.21884" lon="6.14697">
        <ele>1335</ele>
        <time>2010-01-01T02:27:59Z</time>
      </trkpt>
      <trkpt lat="44.21881" lon="6.14701">
        <ele>1335</ele>
        <time>2010-01-01T02:28:00Z</time>
      </trkpt>
      <trkpt lat="44.21878" lon="6.14705">
        <ele>1335</ele>
        <time>2010-01-01T02:28:01Z</time>
      </trkpt>
      <trkpt lat="44.21876" lon="6.14708">
        <ele>1335</ele>
        <time>2010-01-01T02:28:02Z</time>
      </trkpt>
      <trkpt lat="44.21873" lon="6.14709">
        <ele>1334</ele>
        <time>2010-01-01T02:28:02Z</time>
      </trkpt>
      <trkpt lat="44.21872" lon="6.14704">
        <ele>1333</ele>
        <time>2010-01-01T02:28:03Z</time>
      </trkpt>
      <trkpt lat="44.2187" lon="6.14699">
        <ele>1332</ele>
        <time>2010-01-01T02:28:04Z</time>
      </trkpt>
      <trkpt lat="44.21869" lon="6.14692">
        <ele>1331</ele>
        <time>2010-01-01T02:28:06Z</time>
      </trkpt>
      <trkpt lat="44.21868" lon="6.14685">
        <ele>1331</ele>
        <time>2010-01-01T02:28:07Z</time>
      </trkpt>
      <trkpt lat="44.21867" lon="6.14679">
        <ele>1330</ele>
        <time>2010-01-01T02:28:08Z</time>
      </trkpt>
      <trkpt lat="44.21866" lon="6.14673">
        <ele>1330</ele>
        <time>2010-01-01T02:28:10Z</time>
      </trkpt>
      <trkpt lat="44.21866" lon="6.14665">
        <ele>1329</ele>
        <time>2010-01-01T02:28:11Z</time>
      </trkpt>
      <trkpt lat="44.21864" lon="6.14656">
        <ele>1329</ele>
        <time>2010-01-01T02:28:13Z</time>
      </trkpt>
      <trkpt lat="44.21862" lon="6.14648">
        <ele>1328</ele>
        <time>2010-01-01T02:28:14Z</time>
      </trkpt>
      <trkpt lat="44.21859" lon="6.14641">
        <ele>1327</ele>
        <time>2010-01-01T02:28:16Z</time>
      </trkpt>
      <trkpt lat="44.21857" lon="6.14632">
        <ele>1326</ele>
        <time>2010-01-01T02:28:18Z</time>
      </trkpt>
      <trkpt lat="44.21855" lon="6.14624">
        <ele>1325</ele>
        <time>2010-01-01T02:28:19Z</time>
      </trkpt>
      <trkpt lat="44.21853" lon="6.14614">
        <ele>1324</ele>
        <time>2010-01-01T02:28:21Z</time>
      </trkpt>
      <trkpt lat="44.21852" lon="6.14602">
        <ele>1323</ele>
        <time>2010-01-01T02:28:24Z</time>
      </trkpt>
      <trkpt lat="44.21854" lon="6.14584">
        <ele>1323</ele>
        <time>2010-01-01T02:28:27Z</time>
      </trkpt>
      <trkpt lat="44.21856" lon="6.14576">
        <ele>1323</ele>
        <time>2010-01-01T02:28:29Z</time>
      </trkpt>
      <trkpt lat="44.21856" lon="6.14564">
        <ele>1322</ele>
        <time>2010-01-01T02:28:31Z</time>
      </trkpt>
      <trkpt lat="44.21859" lon="6.14553">
        <ele>1322</ele>
        <time>2010-01-01T02:28:33Z</time>
      </trkpt>
      <trkpt lat="44.21861" lon="6.14541">
        <ele>1322</ele>
        <time>2010-01-01T02:28:36Z</time>
      </trkpt>
      <trkpt lat="44.21862" lon="6.14529">
        <ele>1322</ele>
        <time>2010-01-01T02:28:38Z</time>
      </trkpt>
      <trkpt lat="44.21864" lon="6.14516">
        <ele>1320</ele>
        <time>2010-01-01T02:28:41Z</time>
      </trkpt>
      <trkpt lat="44.2187" lon="6.14501">
        <ele>1319</ele>
        <time>2010-01-01T02:28:44Z</time>
      </trkpt>
      <trkpt lat="44.21875" lon="6.14489">
        <ele>1318</ele>
        <time>2010-01-01T02:28:47Z</time>
      </trkpt>
      <trkpt lat="44.21879" lon="6.14478">
        <ele>1318</ele>
        <time>2010-01-01T02:28:49Z</time>
      </trkpt>
      <trkpt lat="44.21883" lon="6.14468">
        <ele>1317</ele>
        <time>2010-01-01T02:28:51Z</time>
      </trkpt>
      <trkpt lat="44.21886" lon="6.14457">
        <ele>1316</ele>
        <time>2010-01-01T02:28:53Z</time>
      </trkpt>
      <trkpt lat="44.21891" lon="6.14451">
        <ele>1316</ele>
        <time>2010-01-01T02:28:55Z</time>
      </trkpt>
      <trkpt lat="44.21894" lon="6.14444">
        <ele>1315</ele>
        <time>2010-01-01T02:28:57Z</time>
      </trkpt>
      <trkpt lat="44.21898" lon="6.14439">
        <ele>1314</ele>
        <time>2010-01-01T02:28:58Z</time>
      </trkpt>
      <trkpt lat="44.21903" lon="6.14433">
        <ele>1314</ele>
        <time>2010-01-01T02:29:00Z</time>
      </trkpt>
      <trkpt lat="44.21909" lon="6.14431">
        <ele>1314</ele>
        <time>2010-01-01T02:29:02Z</time>
      </trkpt>
      <trkpt lat="44.21911" lon="6.14427">
        <ele>1314</ele>
        <time>2010-01-01T02:29:02Z</time>
      </trkpt>
      <trkpt lat="44.21912" lon="6.14423">
        <ele>1313</ele>
        <time>2010-01-01T02:29:03Z</time>
      </trkpt>
      <trkpt lat="44.21916" lon="6.14418">
        <ele>1313</ele>
        <time>2010-01-01T02:29:05Z</time>
      </trkpt>
      <trkpt lat="44.21914" lon="6.14413">
        <ele>1311</ele>
        <time>2010-01-01T02:29:06Z</time>
      </trkpt>
      <trkpt lat="44.21913" lon="6.14407">
        <ele>1309</ele>
        <time>2010-01-01T02:29:07Z</time>
      </trkpt>
      <trkpt lat="44.21909" lon="6.14406">
        <ele>1308</ele>
        <time>2010-01-01T02:29:08Z</time>
      </trkpt>
      <trkpt lat="44.21905" lon="6.14405">
        <ele>1308</ele>
        <time>2010-01-01T02:29:09Z</time>
      </trkpt>
      <trkpt lat="44.21902" lon="6.14405">
        <ele>1307</ele>
        <time>2010-01-01T02:29:09Z</time>
      </trkpt>
      <trkpt lat="44.21897" lon="6.14405">
        <ele>1306</ele>
        <time>2010-01-01T02:29:11Z</time>
      </trkpt>
      <trkpt lat="44.21894" lon="6.14405">
        <ele>1306</ele>
        <time>2010-01-01T02:29:12Z</time>
      </trkpt>
      <trkpt lat="44.21891" lon="6.14406">
        <ele>1306</ele>
        <time>2010-01-01T02:29:12Z</time>
      </trkpt>
      <trkpt lat="44.21888" lon="6.14406">
        <ele>1305</ele>
        <time>2010-01-01T02:29:13Z</time>
      </trkpt>
      <trkpt lat="44.21883" lon="6.14408">
        <ele>1304</ele>
        <time>2010-01-01T02:29:15Z</time>
      </trkpt>
      <trkpt lat="44.21881" lon="6.1441">
        <ele>1304</ele>
        <time>2010-01-01T02:29:15Z</time>
      </trkpt>
      <trkpt lat="44.21879" lon="6.14414">
        <ele>1304</ele>
        <time>2010-01-01T02:29:16Z</time>
      </trkpt>
      <trkpt lat="44.21877" lon="6.14419">
        <ele>1305</ele>
        <time>2010-01-01T02:29:17Z</time>
      </trkpt>
      <trkpt lat="44.21876" lon="6.14424">
        <ele>1306</ele>
        <time>2010-01-01T02:29:18Z</time>
      </trkpt>
      <trkpt lat="44.21875" lon="6.14428">
        <ele>1307</ele>
        <time>2010-01-01T02:29:19Z</time>
      </trkpt>
      <trkpt lat="44.21873" lon="6.14432">
        <ele>1308</ele>
        <time>2010-01-01T02:29:20Z</time>
      </trkpt>
      <trkpt lat="44.21872" lon="6.14437">
        <ele>1308</ele>
        <time>2010-01-01T02:29:21Z</time>
      </trkpt>
      <trkpt lat="44.21871" lon="6.14441">
        <ele>1309</ele>
        <time>2010-01-01T02:29:22Z</time>
      </trkpt>
      <trkpt lat="44.21869" lon="6.14446">
        <ele>1310</ele>
        <time>2010-01-01T02:29:23Z</time>
      </trkpt>
      <trkpt lat="44.21868" lon="6.1445">
        <ele>1310</ele>
        <time>2010-01-01T02:29:24Z</time>
      </trkpt>
      <trkpt lat="44.21865" lon="6.14455">
        <ele>1311</ele>
        <time>2010-01-01T02:29:25Z</time>
      </trkpt>
      <trkpt lat="44.21862" lon="6.14459">
        <ele>1311</ele>
        <time>2010-01-01T02:29:26Z</time>
      </trkpt>
      <trkpt lat="44.2186" lon="6.14464">
        <ele>1311</ele>
        <time>2010-01-01T02:29:27Z</time>
      </trkpt>
      <trkpt lat="44.21858" lon="6.14469">
        <ele>1312</ele>
        <time>2010-01-01T02:29:28Z</time>
      </trkpt>
      <trkpt lat="44.21857" lon="6.14473">
        <ele>1312</ele>
        <time>2010-01-01T02:29:29Z</time>
      </trkpt>
      <trkpt lat="44.21855" lon="6.14479">
        <ele>1312</ele>
        <time>2010-01-01T02:29:30Z</time>
      </trkpt>
      <trkpt lat="44.21853" lon="6.14484">
        <ele>1313</ele>
        <time>2010-01-01T02:29:31Z</time>
      </trkpt>
      <trkpt lat="44.21851" lon="6.14488">
        <ele>1312</ele>
        <time>2010-01-01T02:29:32Z</time>
      </trkpt>
      <trkpt lat="44.21849" lon="6.14492">
        <ele>1312</ele>
        <time>2010-01-01T02:29:33Z</time>
      </trkpt>
      <trkpt lat="44.21847" lon="6.14497">
        <ele>1312</ele>
        <time>2010-01-01T02:29:34Z</time>
      </trkpt>
      <trkpt lat="44.21845" lon="6.145">
        <ele>1312</ele>
        <time>2010-01-01T02:29:35Z</time>
      </trkpt>
      <trkpt lat="44.21843" lon="6.14503">
        <ele>1311</ele>
        <time>2010-01-01T02:29:36Z</time>
      </trkpt>
      <trkpt lat="44.2184" lon="6.14507">
        <ele>1311</ele>
        <time>2010-01-01T02:29:37Z</time>
      </trkpt>
      <trkpt lat="44.21837" lon="6.14511">
        <ele>1310</ele>
        <time>2010-01-01T02:29:38Z</time>
      </trkpt>
      <trkpt lat="44.21835" lon="6.14516">
        <ele>1309</ele>
        <time>2010-01-01T02:29:39Z</time>
      </trkpt>
      <trkpt lat="44.21832" lon="6.14521">
        <ele>1309</ele>
        <time>2010-01-01T02:29:41Z</time>
      </trkpt>
      <trkpt lat="44.2183" lon="6.14527">
        <ele>1308</ele>
        <time>2010-01-01T02:29:42Z</time>
      </trkpt>
      <trkpt lat="44.21828" lon="6.14533">
        <ele>1308</ele>
        <time>2010-01-01T02:29:43Z</time>
      </trkpt>
      <trkpt lat="44.21826" lon="6.14539">
        <ele>1308</ele>
        <time>2010-01-01T02:29:44Z</time>
      </trkpt>
      <trkpt lat="44.21823" lon="6.14545">
        <ele>1308</ele>
        <time>2010-01-01T02:29:46Z</time>
      </trkpt>
      <trkpt lat="44.21822" lon="6.14552">
        <ele>1308</ele>
        <time>2010-01-01T02:29:47Z</time>
      </trkpt>
      <trkpt lat="44.2182" lon="6.14559">
        <ele>1308</ele>
        <time>2010-01-01T02:29:48Z</time>
      </trkpt>
      <trkpt lat="44.21819" lon="6.14566">
        <ele>1309</ele>
        <time>2010-01-01T02:29:50Z</time>
      </trkpt>
      <trkpt lat="44.21817" lon="6.14573">
        <ele>1309</ele>
        <time>2010-01-01T02:29:51Z</time>
      </trkpt>
      <trkpt lat="44.21815" lon="6.14579">
        <ele>1310</ele>
        <time>2010-01-01T02:29:52Z</time>
      </trkpt>
      <trkpt lat="44.21814" lon="6.14585">
        <ele>1310</ele>
        <time>2010-01-01T02:29:54Z</time>
      </trkpt>
      <trkpt lat="44.21812" lon="6.14589">
        <ele>1310</ele>
        <time>2010-01-01T02:29:55Z</time>
      </trkpt>
      <trkpt lat="44.2181" lon="6.14594">
        <ele>1310</ele>
        <time>2010-01-01T02:29:56Z</time>
      </trkpt>
      <trkpt lat="44.21808" lon="6.14597">
        <ele>1310</ele>
        <time>2010-01-01T02:29:57Z</time>
      </trkpt>
      <trkpt lat="44.21805" lon="6.14599">
        <ele>1310</ele>
        <time>2010-01-01T02:29:58Z</time>
      </trkpt>
      <trkpt lat="44.218" lon="6.14599">
        <ele>1308</ele>
        <time>2010-01-01T02:29:59Z</time>
      </trkpt>
      <trkpt lat="44.21797" lon="6.14598">
        <ele>1308</ele>
        <time>2010-01-01T02:30:00Z</time>
      </trkpt>
      <trkpt lat="44.21793" lon="6.14595">
        <ele>1307</ele>
        <time>2010-01-01T02:30:01Z</time>
      </trkpt>
      <trkpt lat="44.2179" lon="6.14592">
        <ele>1306</ele>
        <time>2010-01-01T02:30:02Z</time>
      </trkpt>
      <trkpt lat="44.21787" lon="6.14588">
        <ele>1305</ele>
        <time>2010-01-01T02:30:03Z</time>
      </trkpt>
      <trkpt lat="44.21785" lon="6.14583">
        <ele>1304</ele>
        <time>2010-01-01T02:30:04Z</time>
      </trkpt>
      <trkpt lat="44.21784" lon="6.14573">
        <ele>1302</ele>
        <time>2010-01-01T02:30:06Z</time>
      </trkpt>
      <trkpt lat="44.21785" lon="6.14567">
        <ele>1302</ele>
        <time>2010-01-01T02:30:07Z</time>
      </trkpt>
      <trkpt lat="44.21786" lon="6.14562">
        <ele>1301</ele>
        <time>2010-01-01T02:30:08Z</time>
      </trkpt>
      <trkpt lat="44.21786" lon="6.14554">
        <ele>1301</ele>
        <time>2010-01-01T02:30:10Z</time>
      </trkpt>
      <trkpt lat="44.21784" lon="6.1455">
        <ele>1300</ele>
        <time>2010-01-01T02:30:11Z</time>
      </trkpt>
      <trkpt lat="44.21784" lon="6.14543">
        <ele>1299</ele>
        <time>2010-01-01T02:30:12Z</time>
      </trkpt>
      <trkpt lat="44.21782" lon="6.14532">
        <ele>1298</ele>
        <time>2010-01-01T02:30:14Z</time>
      </trkpt>
      <trkpt lat="44.21781" lon="6.14522">
        <ele>1296</ele>
        <time>2010-01-01T02:30:16Z</time>
      </trkpt>
      <trkpt lat="44.2178" lon="6.14513">
        <ele>1295</ele>
        <time>2010-01-01T02:30:18Z</time>
      </trkpt>
      <trkpt lat="44.21779" lon="6.14505">
        <ele>1294</ele>
        <time>2010-01-01T02:30:19Z</time>
      </trkpt>
      <trkpt lat="44.21781" lon="6.14497">
        <ele>1294</ele>
        <time>2010-01-01T02:30:21Z</time>
      </trkpt>
      <trkpt lat="44.21782" lon="6.14486">
        <ele>1293</ele>
        <time>2010-01-01T02:30:23Z</time>
      </trkpt>
      <trkpt lat="44.21784" lon="6.14476">
        <ele>1292</ele>
        <time>2010-01-01T02:30:25Z</time>
      </trkpt>
      <trkpt lat="44.21786" lon="6.14464">
        <ele>1291</ele>
        <time>2010-01-01T02:30:27Z</time>
      </trkpt>
      <trkpt lat="44.21787" lon="6.14454">
        <ele>1289</ele>
        <time>2010-01-01T02:30:29Z</time>
      </trkpt>
      <trkpt lat="44.21786" lon="6.14443">
        <ele>1287</ele>
        <time>2010-01-01T02:30:31Z</time>
      </trkpt>
      <trkpt lat="44.21786" lon="6.14434">
        <ele>1285</ele>
        <time>2010-01-01T02:30:33Z</time>
      </trkpt>
      <trkpt lat="44.21782" lon="6.14432">
        <ele>1284</ele>
        <time>2010-01-01T02:30:34Z</time>
      </trkpt>
      <trkpt lat="44.21779" lon="6.1443">
        <ele>1283</ele>
        <time>2010-01-01T02:30:35Z</time>
      </trkpt>
      <trkpt lat="44.21776" lon="6.14427">
        <ele>1283</ele>
        <time>2010-01-01T02:30:36Z</time>
      </trkpt>
      <trkpt lat="44.21774" lon="6.14422">
        <ele>1282</ele>
        <time>2010-01-01T02:30:37Z</time>
      </trkpt>
      <trkpt lat="44.21774" lon="6.14416">
        <ele>1281</ele>
        <time>2010-01-01T02:30:38Z</time>
      </trkpt>
      <trkpt lat="44.21776" lon="6.14412">
        <ele>1281</ele>
        <time>2010-01-01T02:30:39Z</time>
      </trkpt>
      <trkpt lat="44.21776" lon="6.14407">
        <ele>1282</ele>
        <time>2010-01-01T02:30:40Z</time>
      </trkpt>
      <trkpt lat="44.21775" lon="6.14403">
        <ele>1282</ele>
        <time>2010-01-01T02:30:41Z</time>
      </trkpt>
      <trkpt lat="44.21775" lon="6.14398">
        <ele>1282</ele>
        <time>2010-01-01T02:30:42Z</time>
      </trkpt>
      <trkpt lat="44.21774" lon="6.14394">
        <ele>1282</ele>
        <time>2010-01-01T02:30:43Z</time>
      </trkpt>
      <trkpt lat="44.21773" lon="6.14389">
        <ele>1282</ele>
        <time>2010-01-01T02:30:44Z</time>
      </trkpt>
      <trkpt lat="44.21773" lon="6.14385">
        <ele>1283</ele>
        <time>2010-01-01T02:30:44Z</time>
      </trkpt>
      <trkpt lat="44.21772" lon="6.14381">
        <ele>1283</ele>
        <time>2010-01-01T02:30:45Z</time>
      </trkpt>
      <trkpt lat="44.21773" lon="6.14375">
        <ele>1284</ele>
        <time>2010-01-01T02:30:46Z</time>
      </trkpt>
      <trkpt lat="44.21772" lon="6.1437">
        <ele>1285</ele>
        <time>2010-01-01T02:30:47Z</time>
      </trkpt>
      <trkpt lat="44.21772" lon="6.14365">
        <ele>1286</ele>
        <time>2010-01-01T02:30:48Z</time>
      </trkpt>
      <trkpt lat="44.21771" lon="6.1436">
        <ele>1287</ele>
        <time>2010-01-01T02:30:49Z</time>
      </trkpt>
      <trkpt lat="44.2177" lon="6.14356">
        <ele>1288</ele>
        <time>2010-01-01T02:30:50Z</time>
      </trkpt>
      <trkpt lat="44.21769" lon="6.14352">
        <ele>1289</ele>
        <time>2010-01-01T02:30:51Z</time>
      </trkpt>
      <trkpt lat="44.21768" lon="6.14347">
        <ele>1290</ele>
        <time>2010-01-01T02:30:52Z</time>
      </trkpt>
      <trkpt lat="44.21767" lon="6.14343">
        <ele>1291</ele>
        <time>2010-01-01T02:30:53Z</time>
      </trkpt>
      <trkpt lat="44.21766" lon="6.14339">
        <ele>1292</ele>
        <time>2010-01-01T02:30:53Z</time>
      </trkpt>
      <trkpt lat="44.21764" lon="6.14336">
        <ele>1293</ele>
        <time>2010-01-01T02:30:54Z</time>
      </trkpt>
      <trkpt lat="44.21762" lon="6.14332">
        <ele>1294</ele>
        <time>2010-01-01T02:30:55Z</time>
      </trkpt>
      <trkpt lat="44.21761" lon="6.14329">
        <ele>1294</ele>
        <time>2010-01-01T02:30:56Z</time>
      </trkpt>
      <trkpt lat="44.21762" lon="6.14325">
        <ele>1295</ele>
        <time>2010-01-01T02:30:57Z</time>
      </trkpt>
      <trkpt lat="44.21764" lon="6.14322">
        <ele>1295</ele>
        <time>2010-01-01T02:30:57Z</time>
      </trkpt>
      <trkpt lat="44.21766" lon="6.14319">
        <ele>1295</ele>
        <time>2010-01-01T02:30:58Z</time>
      </trkpt>
      <trkpt lat="44.21767" lon="6.14313">
        <ele>1296</ele>
        <time>2010-01-01T02:30:59Z</time>
      </trkpt>
      <trkpt lat="44.2177" lon="6.14311">
        <ele>1297</ele>
        <time>2010-01-01T02:31:00Z</time>
      </trkpt>
      <trkpt lat="44.21772" lon="6.14307">
        <ele>1297</ele>
        <time>2010-01-01T02:31:01Z</time>
      </trkpt>
      <trkpt lat="44.21773" lon="6.14303">
        <ele>1298</ele>
        <time>2010-01-01T02:31:02Z</time>
      </trkpt>
      <trkpt lat="44.21775" lon="6.14299">
        <ele>1298</ele>
        <time>2010-01-01T02:31:03Z</time>
      </trkpt>
      <trkpt lat="44.21777" lon="6.14295">
        <ele>1299</ele>
        <time>2010-01-01T02:31:04Z</time>
      </trkpt>
      <trkpt lat="44.21779" lon="6.14291">
        <ele>1299</ele>
        <time>2010-01-01T02:31:05Z</time>
      </trkpt>
      <trkpt lat="44.21781" lon="6.14287">
        <ele>1300</ele>
        <time>2010-01-01T02:31:06Z</time>
      </trkpt>
      <trkpt lat="44.21783" lon="6.14282">
        <ele>1300</ele>
        <time>2010-01-01T02:31:07Z</time>
      </trkpt>
      <trkpt lat="44.21784" lon="6.14278">
        <ele>1301</ele>
        <time>2010-01-01T02:31:08Z</time>
      </trkpt>
      <trkpt lat="44.21786" lon="6.14274">
        <ele>1301</ele>
        <time>2010-01-01T02:31:08Z</time>
      </trkpt>
      <trkpt lat="44.21787" lon="6.14271">
        <ele>1302</ele>
        <time>2010-01-01T02:31:09Z</time>
      </trkpt>
      <trkpt lat="44.21789" lon="6.14267">
        <ele>1302</ele>
        <time>2010-01-01T02:31:10Z</time>
      </trkpt>
      <trkpt lat="44.21791" lon="6.14264">
        <ele>1303</ele>
        <time>2010-01-01T02:31:11Z</time>
      </trkpt>
      <trkpt lat="44.21794" lon="6.1426">
        <ele>1303</ele>
        <time>2010-01-01T02:31:12Z</time>
      </trkpt>
      <trkpt lat="44.21795" lon="6.14256">
        <ele>1304</ele>
        <time>2010-01-01T02:31:13Z</time>
      </trkpt>
      <trkpt lat="44.21797" lon="6.14252">
        <ele>1304</ele>
        <time>2010-01-01T02:31:13Z</time>
      </trkpt>
      <trkpt lat="44.21799" lon="6.1425">
        <ele>1305</ele>
        <time>2010-01-01T02:31:14Z</time>
      </trkpt>
      <trkpt lat="44.21802" lon="6.14247">
        <ele>1305</ele>
        <time>2010-01-01T02:31:15Z</time>
      </trkpt>
      <trkpt lat="44.21804" lon="6.14243">
        <ele>1306</ele>
        <time>2010-01-01T02:31:16Z</time>
      </trkpt>
      <trkpt lat="44.21806" lon="6.1424">
        <ele>1306</ele>
        <time>2010-01-01T02:31:17Z</time>
      </trkpt>
      <trkpt lat="44.21808" lon="6.14236">
        <ele>1306</ele>
        <time>2010-01-01T02:31:18Z</time>
      </trkpt>
      <trkpt lat="44.2181" lon="6.14232">
        <ele>1306</ele>
        <time>2010-01-01T02:31:19Z</time>
      </trkpt>
      <trkpt lat="44.21811" lon="6.14228">
        <ele>1307</ele>
        <time>2010-01-01T02:31:20Z</time>
      </trkpt>
      <trkpt lat="44.21812" lon="6.14223">
        <ele>1307</ele>
        <time>2010-01-01T02:31:21Z</time>
      </trkpt>
      <trkpt lat="44.21813" lon="6.14219">
        <ele>1308</ele>
        <time>2010-01-01T02:31:21Z</time>
      </trkpt>
      <trkpt lat="44.21814" lon="6.14214">
        <ele>1308</ele>
        <time>2010-01-01T02:31:22Z</time>
      </trkpt>
      <trkpt lat="44.21815" lon="6.14211">
        <ele>1308</ele>
        <time>2010-01-01T02:31:23Z</time>
      </trkpt>
      <trkpt lat="44.21816" lon="6.14206">
        <ele>1308</ele>
        <time>2010-01-01T02:31:24Z</time>
      </trkpt>
      <trkpt lat="44.21817" lon="6.14202">
        <ele>1308</ele>
        <time>2010-01-01T02:31:25Z</time>
      </trkpt>
      <trkpt lat="44.21819" lon="6.14197">
        <ele>1308</ele>
        <time>2010-01-01T02:31:26Z</time>
      </trkpt>
      <trkpt lat="44.21821" lon="6.14193">
        <ele>1308</ele>
        <time>2010-01-01T02:31:27Z</time>
      </trkpt>
      <trkpt lat="44.21823" lon="6.1419">
        <ele>1309</ele>
        <time>2010-01-01T02:31:28Z</time>
      </trkpt>
      <trkpt lat="44.21825" lon="6.14186">
        <ele>1309</ele>
        <time>2010-01-01T02:31:29Z</time>
      </trkpt>
      <trkpt lat="44.21827" lon="6.14182">
        <ele>1309</ele>
        <time>2010-01-01T02:31:30Z</time>
      </trkpt>
      <trkpt lat="44.2183" lon="6.14179">
        <ele>1309</ele>
        <time>2010-01-01T02:31:30Z</time>
      </trkpt>
      <trkpt lat="44.21824" lon="6.14184">
        <ele>1309</ele>
        <time>2010-01-01T02:31:32Z</time>
      </trkpt>
      <trkpt lat="44.21822" lon="6.14189">
        <ele>1309</ele>
        <time>2010-01-01T02:31:33Z</time>
      </trkpt>
      <trkpt lat="44.21821" lon="6.14193">
        <ele>1308</ele>
        <time>2010-01-01T02:31:34Z</time>
      </trkpt>
      <trkpt lat="44.21822" lon="6.14189">
        <ele>1309</ele>
        <time>2010-01-01T02:31:35Z</time>
      </trkpt>
      <trkpt lat="44.21821" lon="6.14184">
        <ele>1310</ele>
        <time>2010-01-01T02:31:36Z</time>
      </trkpt>
      <trkpt lat="44.21822" lon="6.14179">
        <ele>1310</ele>
        <time>2010-01-01T02:31:37Z</time>
      </trkpt>
      <trkpt lat="44.21823" lon="6.14175">
        <ele>1311</ele>
        <time>2010-01-01T02:31:38Z</time>
      </trkpt>
      <trkpt lat="44.21823" lon="6.14171">
        <ele>1311</ele>
        <time>2010-01-01T02:31:38Z</time>
      </trkpt>
      <trkpt lat="44.21824" lon="6.14167">
        <ele>1311</ele>
        <time>2010-01-01T02:31:39Z</time>
      </trkpt>
      <trkpt lat="44.21825" lon="6.14163">
        <ele>1312</ele>
        <time>2010-01-01T02:31:40Z</time>
      </trkpt>
      <trkpt lat="44.21825" lon="6.14158">
        <ele>1313</ele>
        <time>2010-01-01T02:31:41Z</time>
      </trkpt>
      <trkpt lat="44.21825" lon="6.14154">
        <ele>1313</ele>
        <time>2010-01-01T02:31:42Z</time>
      </trkpt>
      <trkpt lat="44.21825" lon="6.14151">
        <ele>1314</ele>
        <time>2010-01-01T02:31:42Z</time>
      </trkpt>
      <trkpt lat="44.21826" lon="6.14145">
        <ele>1314</ele>
        <time>2010-01-01T02:31:43Z</time>
      </trkpt>
      <trkpt lat="44.21826" lon="6.14142">
        <ele>1315</ele>
        <time>2010-01-01T02:31:44Z</time>
      </trkpt>
      <trkpt lat="44.21825" lon="6.14138">
        <ele>1316</ele>
        <time>2010-01-01T02:31:45Z</time>
      </trkpt>
      <trkpt lat="44.21822" lon="6.14137">
        <ele>1316</ele>
        <time>2010-01-01T02:31:46Z</time>
      </trkpt>
      <trkpt lat="44.21819" lon="6.14138">
        <ele>1317</ele>
        <time>2010-01-01T02:31:47Z</time>
      </trkpt>
      <trkpt lat="44.21816" lon="6.14138">
        <ele>1317</ele>
        <time>2010-01-01T02:31:47Z</time>
      </trkpt>
      <trkpt lat="44.21813" lon="6.14135">
        <ele>1318</ele>
        <time>2010-01-01T02:31:48Z</time>
      </trkpt>
      <trkpt lat="44.21813" lon="6.14132">
        <ele>1318</ele>
        <time>2010-01-01T02:31:49Z</time>
      </trkpt>
      <trkpt lat="44.21812" lon="6.14127">
        <ele>1319</ele>
        <time>2010-01-01T02:31:50Z</time>
      </trkpt>
      <trkpt lat="44.21811" lon="6.14122">
        <ele>1320</ele>
        <time>2010-01-01T02:31:51Z</time>
      </trkpt>
      <trkpt lat="44.2181" lon="6.14118">
        <ele>1321</ele>
        <time>2010-01-01T02:31:52Z</time>
      </trkpt>
      <trkpt lat="44.2181" lon="6.14112">
        <ele>1322</ele>
        <time>2010-01-01T02:31:53Z</time>
      </trkpt>
      <trkpt lat="44.2181" lon="6.14107">
        <ele>1322</ele>
        <time>2010-01-01T02:31:54Z</time>
      </trkpt>
      <trkpt lat="44.21809" lon="6.14104">
        <ele>1323</ele>
        <time>2010-01-01T02:31:55Z</time>
      </trkpt>
      <trkpt lat="44.21809" lon="6.141">
        <ele>1323</ele>
        <time>2010-01-01T02:31:55Z</time>
      </trkpt>
      <trkpt lat="44.21809" lon="6.14095">
        <ele>1324</ele>
        <time>2010-01-01T02:31:56Z</time>
      </trkpt>
      <trkpt lat="44.21808" lon="6.1409">
        <ele>1324</ele>
        <time>2010-01-01T02:31:57Z</time>
      </trkpt>
      <trkpt lat="44.21808" lon="6.14085">
        <ele>1325</ele>
        <time>2010-01-01T02:31:58Z</time>
      </trkpt>
      <trkpt lat="44.21809" lon="6.14081">
        <ele>1325</ele>
        <time>2010-01-01T02:31:59Z</time>
      </trkpt>
      <trkpt lat="44.21809" lon="6.14077">
        <ele>1325</ele>
        <time>2010-01-01T02:32:00Z</time>
      </trkpt>
      <trkpt lat="44.2181" lon="6.14073">
        <ele>1326</ele>
        <time>2010-01-01T02:32:01Z</time>
      </trkpt>
      <trkpt lat="44.2181" lon="6.14069">
        <ele>1326</ele>
        <time>2010-01-01T02:32:01Z</time>
      </trkpt>
      <trkpt lat="44.21811" lon="6.14064">
        <ele>1327</ele>
        <time>2010-01-01T02:32:02Z</time>
      </trkpt>
      <trkpt lat="44.21812" lon="6.1406">
        <ele>1327</ele>
        <time>2010-01-01T02:32:03Z</time>
      </trkpt>
      <trkpt lat="44.21813" lon="6.14056">
        <ele>1327</ele>
        <time>2010-01-01T02:32:04Z</time>
      </trkpt>
      <trkpt lat="44.21814" lon="6.14052">
        <ele>1328</ele>
        <time>2010-01-01T02:32:05Z</time>
      </trkpt>
      <trkpt lat="44.21814" lon="6.14047">
        <ele>1328</ele>
        <time>2010-01-01T02:32:06Z</time>
      </trkpt>
      <trkpt lat="44.21813" lon="6.14043">
        <ele>1329</ele>
        <time>2010-01-01T02:32:06Z</time>
      </trkpt>
      <trkpt lat="44.21812" lon="6.14039">
        <ele>1330</ele>
        <time>2010-01-01T02:32:07Z</time>
      </trkpt>
      <trkpt lat="44.21809" lon="6.1404">
        <ele>1331</ele>
        <time>2010-01-01T02:32:08Z</time>
      </trkpt>
      <trkpt lat="44.21807" lon="6.14043">
        <ele>1331</ele>
        <time>2010-01-01T02:32:09Z</time>
      </trkpt>
      <trkpt lat="44.21805" lon="6.14046">
        <ele>1331</ele>
        <time>2010-01-01T02:32:10Z</time>
      </trkpt>
      <trkpt lat="44.21803" lon="6.14048">
        <ele>1331</ele>
        <time>2010-01-01T02:32:10Z</time>
      </trkpt>
      <trkpt lat="44.218" lon="6.1405">
        <ele>1332</ele>
        <time>2010-01-01T02:32:11Z</time>
      </trkpt>
      <trkpt lat="44.21798" lon="6.14054">
        <ele>1332</ele>
        <time>2010-01-01T02:32:12Z</time>
      </trkpt>
      <trkpt lat="44.21795" lon="6.14058">
        <ele>1332</ele>
        <time>2010-01-01T02:32:13Z</time>
      </trkpt>
      <trkpt lat="44.21793" lon="6.14062">
        <ele>1332</ele>
        <time>2010-01-01T02:32:14Z</time>
      </trkpt>
      <trkpt lat="44.21791" lon="6.14066">
        <ele>1332</ele>
        <time>2010-01-01T02:32:15Z</time>
      </trkpt>
      <trkpt lat="44.21789" lon="6.14069">
        <ele>1331</ele>
        <time>2010-01-01T02:32:16Z</time>
      </trkpt>
      <trkpt lat="44.21787" lon="6.14073">
        <ele>1331</ele>
        <time>2010-01-01T02:32:17Z</time>
      </trkpt>
      <trkpt lat="44.21784" lon="6.14077">
        <ele>1331</ele>
        <time>2010-01-01T02:32:18Z</time>
      </trkpt>
      <trkpt lat="44.21781" lon="6.14081">
        <ele>1331</ele>
        <time>2010-01-01T02:32:19Z</time>
      </trkpt>
      <trkpt lat="44.21778" lon="6.14085">
        <ele>1331</ele>
        <time>2010-01-01T02:32:20Z</time>
      </trkpt>
      <trkpt lat="44.21775" lon="6.14089">
        <ele>1332</ele>
        <time>2010-01-01T02:32:21Z</time>
      </trkpt>
      <trkpt lat="44.21773" lon="6.14091">
        <ele>1332</ele>
        <time>2010-01-01T02:32:22Z</time>
      </trkpt>
      <trkpt lat="44.21769" lon="6.14095">
        <ele>1332</ele>
        <time>2010-01-01T02:32:23Z</time>
      </trkpt>
      <trkpt lat="44.21766" lon="6.14098">
        <ele>1332</ele>
        <time>2010-01-01T02:32:24Z</time>
      </trkpt>
      <trkpt lat="44.21763" lon="6.14101">
        <ele>1332</ele>
        <time>2010-01-01T02:32:25Z</time>
      </trkpt>
      <trkpt lat="44.2176" lon="6.14105">
        <ele>1333</ele>
        <time>2010-01-01T02:32:26Z</time>
      </trkpt>
      <trkpt lat="44.21757" lon="6.14108">
        <ele>1333</ele>
        <time>2010-01-01T02:32:27Z</time>
      </trkpt>
      <trkpt lat="44.21754" lon="6.14112">
        <ele>1333</ele>
        <time>2010-01-01T02:32:28Z</time>
      </trkpt>
      <trkpt lat="44.21751" lon="6.14117">
        <ele>1333</ele>
        <time>2010-01-01T02:32:30Z</time>
      </trkpt>
      <trkpt lat="44.21749" lon="6.14121">
        <ele>1332</ele>
        <time>2010-01-01T02:32:31Z</time>
      </trkpt>
      <trkpt lat="44.21746" lon="6.14125">
        <ele>1332</ele>
        <time>2010-01-01T02:32:32Z</time>
      </trkpt>
      <trkpt lat="44.21742" lon="6.14127">
        <ele>1333</ele>
        <time>2010-01-01T02:32:33Z</time>
      </trkpt>
      <trkpt lat="44.21739" lon="6.14129">
        <ele>1333</ele>
        <time>2010-01-01T02:32:34Z</time>
      </trkpt>
      <trkpt lat="44.21735" lon="6.14131">
        <ele>1333</ele>
        <time>2010-01-01T02:32:35Z</time>
      </trkpt>
      <trkpt lat="44.21732" lon="6.14132">
        <ele>1333</ele>
        <time>2010-01-01T02:32:36Z</time>
      </trkpt>
      <trkpt lat="44.21728" lon="6.14133">
        <ele>1334</ele>
        <time>2010-01-01T02:32:37Z</time>
      </trkpt>
      <trkpt lat="44.21723" lon="6.14133">
        <ele>1335</ele>
        <time>2010-01-01T02:32:38Z</time>
      </trkpt>
      <trkpt lat="44.2172" lon="6.14134">
        <ele>1335</ele>
        <time>2010-01-01T02:32:39Z</time>
      </trkpt>
      <trkpt lat="44.21716" lon="6.14134">
        <ele>1336</ele>
        <time>2010-01-01T02:32:40Z</time>
      </trkpt>
      <trkpt lat="44.21712" lon="6.14135">
        <ele>1337</ele>
        <time>2010-01-01T02:32:41Z</time>
      </trkpt>
      <trkpt lat="44.21708" lon="6.14135">
        <ele>1338</ele>
        <time>2010-01-01T02:32:42Z</time>
      </trkpt>
      <trkpt lat="44.21705" lon="6.14134">
        <ele>1338</ele>
        <time>2010-01-01T02:32:43Z</time>
      </trkpt>
      <trkpt lat="44.21701" lon="6.14135">
        <ele>1339</ele>
        <time>2010-01-01T02:32:44Z</time>
      </trkpt>
      <trkpt lat="44.21698" lon="6.14138">
        <ele>1339</ele>
        <time>2010-01-01T02:32:45Z</time>
      </trkpt>
      <trkpt lat="44.21695" lon="6.14142">
        <ele>1339</ele>
        <time>2010-01-01T02:32:46Z</time>
      </trkpt>
      <trkpt lat="44.21695" lon="6.14146">
        <ele>1338</ele>
        <time>2010-01-01T02:32:47Z</time>
      </trkpt>
      <trkpt lat="44.21695" lon="6.14152">
        <ele>1336</ele>
        <time>2010-01-01T02:32:48Z</time>
      </trkpt>
      <trkpt lat="44.21694" lon="6.14157">
        <ele>1335</ele>
        <time>2010-01-01T02:32:49Z</time>
      </trkpt>
      <trkpt lat="44.21693" lon="6.14162">
        <ele>1334</ele>
        <time>2010-01-01T02:32:50Z</time>
      </trkpt>
      <trkpt lat="44.21692" lon="6.14168">
        <ele>1333</ele>
        <time>2010-01-01T02:32:51Z</time>
      </trkpt>
      <trkpt lat="44.21689" lon="6.14174">
        <ele>1333</ele>
        <time>2010-01-01T02:32:53Z</time>
      </trkpt>
      <trkpt lat="44.21686" lon="6.14179">
        <ele>1333</ele>
        <time>2010-01-01T02:32:54Z</time>
      </trkpt>
      <trkpt lat="44.21683" lon="6.14184">
        <ele>1333</ele>
        <time>2010-01-01T02:32:55Z</time>
      </trkpt>
      <trkpt lat="44.2168" lon="6.14188">
        <ele>1333</ele>
        <time>2010-01-01T02:32:56Z</time>
      </trkpt>
      <trkpt lat="44.21676" lon="6.14192">
        <ele>1333</ele>
        <time>2010-01-01T02:32:58Z</time>
      </trkpt>
      <trkpt lat="44.21673" lon="6.14197">
        <ele>1334</ele>
        <time>2010-01-01T02:32:59Z</time>
      </trkpt>
      <trkpt lat="44.2167" lon="6.14201">
        <ele>1333</ele>
        <time>2010-01-01T02:33:00Z</time>
      </trkpt>
      <trkpt lat="44.21667" lon="6.14204">
        <ele>1334</ele>
        <time>2010-01-01T02:33:01Z</time>
      </trkpt>
      <trkpt lat="44.21665" lon="6.14207">
        <ele>1334</ele>
        <time>2010-01-01T02:33:02Z</time>
      </trkpt>
      <trkpt lat="44.21662" lon="6.1421">
        <ele>1334</ele>
        <time>2010-01-01T02:33:03Z</time>
      </trkpt>
      <trkpt lat="44.2166" lon="6.14213">
        <ele>1334</ele>
        <time>2010-01-01T02:33:03Z</time>
      </trkpt>
      <trkpt lat="44.21657" lon="6.14216">
        <ele>1334</ele>
        <time>2010-01-01T02:33:04Z</time>
      </trkpt>
      <trkpt lat="44.21654" lon="6.14218">
        <ele>1334</ele>
        <time>2010-01-01T02:33:05Z</time>
      </trkpt>
      <trkpt lat="44.21652" lon="6.14221">
        <ele>1335</ele>
        <time>2010-01-01T02:33:06Z</time>
      </trkpt>
      <trkpt lat="44.21649" lon="6.14223">
        <ele>1335</ele>
        <time>2010-01-01T02:33:07Z</time>
      </trkpt>
      <trkpt lat="44.21645" lon="6.14226">
        <ele>1336</ele>
        <time>2010-01-01T02:33:08Z</time>
      </trkpt>
      <trkpt lat="44.21641" lon="6.14229">
        <ele>1337</ele>
        <time>2010-01-01T02:33:09Z</time>
      </trkpt>
      <trkpt lat="44.21637" lon="6.14231">
        <ele>1338</ele>
        <time>2010-01-01T02:33:11Z</time>
      </trkpt>
      <trkpt lat="44.21633" lon="6.14232">
        <ele>1339</ele>
        <time>2010-01-01T02:33:12Z</time>
      </trkpt>
      <trkpt lat="44.21629" lon="6.14233">
        <ele>1340</ele>
        <time>2010-01-01T02:33:13Z</time>
      </trkpt>
      <trkpt lat="44.21626" lon="6.14237">
        <ele>1340</ele>
        <time>2010-01-01T02:33:14Z</time>
      </trkpt>
      <trkpt lat="44.21623" lon="6.14243">
        <ele>1340</ele>
        <time>2010-01-01T02:33:15Z</time>
      </trkpt>
      <trkpt lat="44.2162" lon="6.14248">
        <ele>1340</ele>
        <time>2010-01-01T02:33:16Z</time>
      </trkpt>
      <trkpt lat="44.21618" lon="6.14251">
        <ele>1340</ele>
        <time>2010-01-01T02:33:17Z</time>
      </trkpt>
      <trkpt lat="44.21615" lon="6.14256">
        <ele>1340</ele>
        <time>2010-01-01T02:33:18Z</time>
      </trkpt>
      <trkpt lat="44.21612" lon="6.14259">
        <ele>1341</ele>
        <time>2010-01-01T02:33:19Z</time>
      </trkpt>
      <trkpt lat="44.21608" lon="6.14262">
        <ele>1342</ele>
        <time>2010-01-01T02:33:21Z</time>
      </trkpt>
      <trkpt lat="44.21605" lon="6.14266">
        <ele>1342</ele>
        <time>2010-01-01T02:33:22Z</time>
      </trkpt>
      <trkpt lat="44.21602" lon="6.14272">
        <ele>1342</ele>
        <time>2010-01-01T02:33:23Z</time>
      </trkpt>
      <trkpt lat="44.21599" lon="6.14277">
        <ele>1341</ele>
        <time>2010-01-01T02:33:24Z</time>
      </trkpt>
      <trkpt lat="44.21597" lon="6.14281">
        <ele>1341</ele>
        <time>2010-01-01T02:33:25Z</time>
      </trkpt>
      <trkpt lat="44.21594" lon="6.14285">
        <ele>1341</ele>
        <time>2010-01-01T02:33:26Z</time>
      </trkpt>
      <trkpt lat="44.21593" lon="6.14289">
        <ele>1341</ele>
        <time>2010-01-01T02:33:27Z</time>
      </trkpt>
      <trkpt lat="44.2159" lon="6.14294">
        <ele>1341</ele>
        <time>2010-01-01T02:33:28Z</time>
      </trkpt>
      <trkpt lat="44.21587" lon="6.14297">
        <ele>1341</ele>
        <time>2010-01-01T02:33:29Z</time>
      </trkpt>
      <trkpt lat="44.21583" lon="6.14301">
        <ele>1341</ele>
        <time>2010-01-01T02:33:31Z</time>
      </trkpt>
      <trkpt lat="44.2158" lon="6.14304">
        <ele>1341</ele>
        <time>2010-01-01T02:33:32Z</time>
      </trkpt>
      <trkpt lat="44.21578" lon="6.14308">
        <ele>1341</ele>
        <time>2010-01-01T02:33:33Z</time>
      </trkpt>
      <trkpt lat="44.21575" lon="6.14312">
        <ele>1340</ele>
        <time>2010-01-01T02:33:34Z</time>
      </trkpt>
      <trkpt lat="44.21572" lon="6.14316">
        <ele>1340</ele>
        <time>2010-01-01T02:33:35Z</time>
      </trkpt>
      <trkpt lat="44.2157" lon="6.14321">
        <ele>1340</ele>
        <time>2010-01-01T02:33:36Z</time>
      </trkpt>
      <trkpt lat="44.21567" lon="6.14324">
        <ele>1340</ele>
        <time>2010-01-01T02:33:37Z</time>
      </trkpt>
      <trkpt lat="44.21564" lon="6.14326">
        <ele>1340</ele>
        <time>2010-01-01T02:33:38Z</time>
      </trkpt>
      <trkpt lat="44.21562" lon="6.14327">
        <ele>1341</ele>
        <time>2010-01-01T02:33:38Z</time>
      </trkpt>
      <trkpt lat="44.21559" lon="6.14327">
        <ele>1341</ele>
        <time>2010-01-01T02:33:39Z</time>
      </trkpt>
      <trkpt lat="44.21556" lon="6.14332">
        <ele>1341</ele>
        <time>2010-01-01T02:33:40Z</time>
      </trkpt>
      <trkpt lat="44.21553" lon="6.14334">
        <ele>1341</ele>
        <time>2010-01-01T02:33:41Z</time>
      </trkpt>
      <trkpt lat="44.2155" lon="6.14335">
        <ele>1342</ele>
        <time>2010-01-01T02:33:42Z</time>
      </trkpt>
      <trkpt lat="44.21547" lon="6.14335">
        <ele>1343</ele>
        <time>2010-01-01T02:33:43Z</time>
      </trkpt>
      <trkpt lat="44.21545" lon="6.14333">
        <ele>1344</ele>
        <time>2010-01-01T02:33:44Z</time>
      </trkpt>
      <trkpt lat="44.21545" lon="6.14325">
        <ele>1347</ele>
        <time>2010-01-01T02:33:45Z</time>
      </trkpt>
      <trkpt lat="44.21546" lon="6.14321">
        <ele>1347</ele>
        <time>2010-01-01T02:33:46Z</time>
      </trkpt>
      <trkpt lat="44.21548" lon="6.14317">
        <ele>1348</ele>
        <time>2010-01-01T02:33:47Z</time>
      </trkpt>
      <trkpt lat="44.21551" lon="6.14313">
        <ele>1348</ele>
        <time>2010-01-01T02:33:48Z</time>
      </trkpt>
      <trkpt lat="44.21553" lon="6.1431">
        <ele>1348</ele>
        <time>2010-01-01T02:33:49Z</time>
      </trkpt>
      <trkpt lat="44.21555" lon="6.14305">
        <ele>1349</ele>
        <time>2010-01-01T02:33:50Z</time>
      </trkpt>
      <trkpt lat="44.21557" lon="6.14302">
        <ele>1349</ele>
        <time>2010-01-01T02:33:51Z</time>
      </trkpt>
      <trkpt lat="44.21558" lon="6.14298">
        <ele>1350</ele>
        <time>2010-01-01T02:33:51Z</time>
      </trkpt>
      <trkpt lat="44.2156" lon="6.14294">
        <ele>1350</ele>
        <time>2010-01-01T02:33:52Z</time>
      </trkpt>
      <trkpt lat="44.21561" lon="6.1429">
        <ele>1351</ele>
        <time>2010-01-01T02:33:53Z</time>
      </trkpt>
      <trkpt lat="44.21563" lon="6.14286">
        <ele>1351</ele>
        <time>2010-01-01T02:33:54Z</time>
      </trkpt>
      <trkpt lat="44.21564" lon="6.14281">
        <ele>1352</ele>
        <time>2010-01-01T02:33:55Z</time>
      </trkpt>
      <trkpt lat="44.21566" lon="6.14276">
        <ele>1353</ele>
        <time>2010-01-01T02:33:56Z</time>
      </trkpt>
      <trkpt lat="44.21568" lon="6.14272">
        <ele>1353</ele>
        <time>2010-01-01T02:33:57Z</time>
      </trkpt>
      <trkpt lat="44.2157" lon="6.14269">
        <ele>1354</ele>
        <time>2010-01-01T02:33:58Z</time>
      </trkpt>
      <trkpt lat="44.21572" lon="6.14265">
        <ele>1354</ele>
        <time>2010-01-01T02:33:59Z</time>
      </trkpt>
      <trkpt lat="44.21574" lon="6.14261">
        <ele>1355</ele>
        <time>2010-01-01T02:34:00Z</time>
      </trkpt>
      <trkpt lat="44.21576" lon="6.14258">
        <ele>1355</ele>
        <time>2010-01-01T02:34:01Z</time>
      </trkpt>
      <trkpt lat="44.21578" lon="6.14255">
        <ele>1355</ele>
        <time>2010-01-01T02:34:01Z</time>
      </trkpt>
      <trkpt lat="44.21581" lon="6.14251">
        <ele>1355</ele>
        <time>2010-01-01T02:34:02Z</time>
      </trkpt>
      <trkpt lat="44.21583" lon="6.14247">
        <ele>1355</ele>
        <time>2010-01-01T02:34:03Z</time>
      </trkpt>
      <trkpt lat="44.21584" lon="6.14244">
        <ele>1356</ele>
        <time>2010-01-01T02:34:04Z</time>
      </trkpt>
      <trkpt lat="44.21586" lon="6.14241">
        <ele>1356</ele>
        <time>2010-01-01T02:34:05Z</time>
      </trkpt>
      <trkpt lat="44.21587" lon="6.14237">
        <ele>1356</ele>
        <time>2010-01-01T02:34:06Z</time>
      </trkpt>
      <trkpt lat="44.21588" lon="6.14233">
        <ele>1357</ele>
        <time>2010-01-01T02:34:06Z</time>
      </trkpt>
      <trkpt lat="44.2159" lon="6.14229">
        <ele>1357</ele>
        <time>2010-01-01T02:34:07Z</time>
      </trkpt>
      <trkpt lat="44.21592" lon="6.14225">
        <ele>1357</ele>
        <time>2010-01-01T02:34:08Z</time>
      </trkpt>
      <trkpt lat="44.21593" lon="6.14222">
        <ele>1357</ele>
        <time>2010-01-01T02:34:09Z</time>
      </trkpt>
      <trkpt lat="44.21594" lon="6.14218">
        <ele>1357</ele>
        <time>2010-01-01T02:34:10Z</time>
      </trkpt>
      <trkpt lat="44.21596" lon="6.14215">
        <ele>1357</ele>
        <time>2010-01-01T02:34:10Z</time>
      </trkpt>
      <trkpt lat="44.21597" lon="6.1421">
        <ele>1358</ele>
        <time>2010-01-01T02:34:11Z</time>
      </trkpt>
      <trkpt lat="44.21598" lon="6.14206">
        <ele>1358</ele>
        <time>2010-01-01T02:34:12Z</time>
      </trkpt>
      <trkpt lat="44.216" lon="6.14203">
        <ele>1358</ele>
        <time>2010-01-01T02:34:13Z</time>
      </trkpt>
      <trkpt lat="44.21601" lon="6.14199">
        <ele>1358</ele>
        <time>2010-01-01T02:34:14Z</time>
      </trkpt>
      <trkpt lat="44.21602" lon="6.14196">
        <ele>1358</ele>
        <time>2010-01-01T02:34:15Z</time>
      </trkpt>
      <trkpt lat="44.21604" lon="6.14192">
        <ele>1359</ele>
        <time>2010-01-01T02:34:15Z</time>
      </trkpt>
      <trkpt lat="44.21605" lon="6.14188">
        <ele>1359</ele>
        <time>2010-01-01T02:34:16Z</time>
      </trkpt>
      <trkpt lat="44.21606" lon="6.14185">
        <ele>1359</ele>
        <time>2010-01-01T02:34:17Z</time>
      </trkpt>
      <trkpt lat="44.21607" lon="6.1418">
        <ele>1359</ele>
        <time>2010-01-01T02:34:18Z</time>
      </trkpt>
      <trkpt lat="44.21609" lon="6.14176">
        <ele>1359</ele>
        <time>2010-01-01T02:34:19Z</time>
      </trkpt>
      <trkpt lat="44.21611" lon="6.14172">
        <ele>1359</ele>
        <time>2010-01-01T02:34:20Z</time>
      </trkpt>
      <trkpt lat="44.21613" lon="6.14168">
        <ele>1359</ele>
        <time>2010-01-01T02:34:21Z</time>
      </trkpt>
      <trkpt lat="44.21614" lon="6.14163">
        <ele>1359</ele>
        <time>2010-01-01T02:34:22Z</time>
      </trkpt>
      <trkpt lat="44.21615" lon="6.14158">
        <ele>1360</ele>
        <time>2010-01-01T02:34:23Z</time>
      </trkpt>
      <trkpt lat="44.21616" lon="6.14154">
        <ele>1360</ele>
        <time>2010-01-01T02:34:23Z</time>
      </trkpt>
      <trkpt lat="44.21616" lon="6.14149">
        <ele>1361</ele>
        <time>2010-01-01T02:34:24Z</time>
      </trkpt>
      <trkpt lat="44.21616" lon="6.14144">
        <ele>1362</ele>
        <time>2010-01-01T02:34:25Z</time>
      </trkpt>
      <trkpt lat="44.21616" lon="6.14139">
        <ele>1363</ele>
        <time>2010-01-01T02:34:26Z</time>
      </trkpt>
      <trkpt lat="44.21616" lon="6.14133">
        <ele>1364</ele>
        <time>2010-01-01T02:34:27Z</time>
      </trkpt>
      <trkpt lat="44.21615" lon="6.14128">
        <ele>1365</ele>
        <time>2010-01-01T02:34:28Z</time>
      </trkpt>
      <trkpt lat="44.21614" lon="6.14122">
        <ele>1367</ele>
        <time>2010-01-01T02:34:29Z</time>
      </trkpt>
      <trkpt lat="44.21613" lon="6.14117">
        <ele>1368</ele>
        <time>2010-01-01T02:34:30Z</time>
      </trkpt>
      <trkpt lat="44.21612" lon="6.14113">
        <ele>1369</ele>
        <time>2010-01-01T02:34:31Z</time>
      </trkpt>
      <trkpt lat="44.21612" lon="6.14108">
        <ele>1370</ele>
        <time>2010-01-01T02:34:32Z</time>
      </trkpt>
      <trkpt lat="44.21611" lon="6.14103">
        <ele>1371</ele>
        <time>2010-01-01T02:34:33Z</time>
      </trkpt>
      <trkpt lat="44.21612" lon="6.14098">
        <ele>1372</ele>
        <time>2010-01-01T02:34:34Z</time>
      </trkpt>
      <trkpt lat="44.21614" lon="6.14093">
        <ele>1372</ele>
        <time>2010-01-01T02:34:35Z</time>
      </trkpt>
      <trkpt lat="44.21617" lon="6.1409">
        <ele>1372</ele>
        <time>2010-01-01T02:34:36Z</time>
      </trkpt>
      <trkpt lat="44.2162" lon="6.14088">
        <ele>1371</ele>
        <time>2010-01-01T02:34:37Z</time>
      </trkpt>
      <trkpt lat="44.21623" lon="6.14085">
        <ele>1371</ele>
        <time>2010-01-01T02:34:38Z</time>
      </trkpt>
      <trkpt lat="44.21627" lon="6.14083">
        <ele>1370</ele>
        <time>2010-01-01T02:34:39Z</time>
      </trkpt>
      <trkpt lat="44.21631" lon="6.1408">
        <ele>1370</ele>
        <time>2010-01-01T02:34:40Z</time>
      </trkpt>
      <trkpt lat="44.21634" lon="6.14077">
        <ele>1369</ele>
        <time>2010-01-01T02:34:41Z</time>
      </trkpt>
      <trkpt lat="44.21637" lon="6.14075">
        <ele>1369</ele>
        <time>2010-01-01T02:34:42Z</time>
      </trkpt>
      <trkpt lat="44.2164" lon="6.14073">
        <ele>1368</ele>
        <time>2010-01-01T02:34:43Z</time>
      </trkpt>
      <trkpt lat="44.21642" lon="6.1407">
        <ele>1368</ele>
        <time>2010-01-01T02:34:44Z</time>
      </trkpt>
      <trkpt lat="44.21645" lon="6.14067">
        <ele>1368</ele>
        <time>2010-01-01T02:34:45Z</time>
      </trkpt>
      <trkpt lat="44.21647" lon="6.14063">
        <ele>1367</ele>
        <time>2010-01-01T02:34:46Z</time>
      </trkpt>
      <trkpt lat="44.2165" lon="6.14059">
        <ele>1367</ele>
        <time>2010-01-01T02:34:47Z</time>
      </trkpt>
      <trkpt lat="44.21652" lon="6.14056">
        <ele>1367</ele>
        <time>2010-01-01T02:34:48Z</time>
      </trkpt>
      <trkpt lat="44.21655" lon="6.14052">
        <ele>1367</ele>
        <time>2010-01-01T02:34:49Z</time>
      </trkpt>
      <trkpt lat="44.21657" lon="6.14047">
        <ele>1367</ele>
        <time>2010-01-01T02:34:50Z</time>
      </trkpt>
      <trkpt lat="44.2166" lon="6.14043">
        <ele>1367</ele>
        <time>2010-01-01T02:34:51Z</time>
      </trkpt>
      <trkpt lat="44.21662" lon="6.14038">
        <ele>1367</ele>
        <time>2010-01-01T02:34:52Z</time>
      </trkpt>
      <trkpt lat="44.21663" lon="6.14034">
        <ele>1368</ele>
        <time>2010-01-01T02:34:53Z</time>
      </trkpt>
      <trkpt lat="44.21665" lon="6.1403">
        <ele>1368</ele>
        <time>2010-01-01T02:34:54Z</time>
      </trkpt>
      <trkpt lat="44.21667" lon="6.14026">
        <ele>1368</ele>
        <time>2010-01-01T02:34:55Z</time>
      </trkpt>
      <trkpt lat="44.21669" lon="6.14022">
        <ele>1368</ele>
        <time>2010-01-01T02:34:56Z</time>
      </trkpt>
      <trkpt lat="44.2167" lon="6.14018">
        <ele>1369</ele>
        <time>2010-01-01T02:34:57Z</time>
      </trkpt>
      <trkpt lat="44.21672" lon="6.14014">
        <ele>1370</ele>
        <time>2010-01-01T02:34:58Z</time>
      </trkpt>
      <trkpt lat="44.21674" lon="6.14009">
        <ele>1370</ele>
        <time>2010-01-01T02:34:59Z</time>
      </trkpt>
      <trkpt lat="44.21676" lon="6.14005">
        <ele>1371</ele>
        <time>2010-01-01T02:35:00Z</time>
      </trkpt>
      <trkpt lat="44.21677" lon="6.14001">
        <ele>1371</ele>
        <time>2010-01-01T02:35:00Z</time>
      </trkpt>
      <trkpt lat="44.21679" lon="6.13997">
        <ele>1372</ele>
        <time>2010-01-01T02:35:01Z</time>
      </trkpt>
      <trkpt lat="44.21681" lon="6.13993">
        <ele>1372</ele>
        <time>2010-01-01T02:35:02Z</time>
      </trkpt>
      <trkpt lat="44.21683" lon="6.13989">
        <ele>1373</ele>
        <time>2010-01-01T02:35:03Z</time>
      </trkpt>
      <trkpt lat="44.21685" lon="6.13985">
        <ele>1373</ele>
        <time>2010-01-01T02:35:04Z</time>
      </trkpt>
      <trkpt lat="44.21687" lon="6.1398">
        <ele>1374</ele>
        <time>2010-01-01T02:35:05Z</time>
      </trkpt>
      <trkpt lat="44.21689" lon="6.13976">
        <ele>1374</ele>
        <time>2010-01-01T02:35:06Z</time>
      </trkpt>
      <trkpt lat="44.21691" lon="6.13972">
        <ele>1374</ele>
        <time>2010-01-01T02:35:07Z</time>
      </trkpt>
      <trkpt lat="44.21693" lon="6.13967">
        <ele>1375</ele>
        <time>2010-01-01T02:35:08Z</time>
      </trkpt>
      <trkpt lat="44.21695" lon="6.13963">
        <ele>1375</ele>
        <time>2010-01-01T02:35:09Z</time>
      </trkpt>
      <trkpt lat="44.21698" lon="6.13959">
        <ele>1375</ele>
        <time>2010-01-01T02:35:10Z</time>
      </trkpt>
      <trkpt lat="44.217" lon="6.13955">
        <ele>1375</ele>
        <time>2010-01-01T02:35:11Z</time>
      </trkpt>
      <trkpt lat="44.21701" lon="6.13951">
        <ele>1375</ele>
        <time>2010-01-01T02:35:12Z</time>
      </trkpt>
      <trkpt lat="44.21702" lon="6.13947">
        <ele>1375</ele>
        <time>2010-01-01T02:35:13Z</time>
      </trkpt>
      <trkpt lat="44.21705" lon="6.13943">
        <ele>1375</ele>
        <time>2010-01-01T02:35:14Z</time>
      </trkpt>
      <trkpt lat="44.21707" lon="6.13939">
        <ele>1375</ele>
        <time>2010-01-01T02:35:15Z</time>
      </trkpt>
      <trkpt lat="44.21709" lon="6.13935">
        <ele>1375</ele>
        <time>2010-01-01T02:35:16Z</time>
      </trkpt>
      <trkpt lat="44.21711" lon="6.13931">
        <ele>1375</ele>
        <time>2010-01-01T02:35:17Z</time>
      </trkpt>
      <trkpt lat="44.21713" lon="6.13927">
        <ele>1375</ele>
        <time>2010-01-01T02:35:18Z</time>
      </trkpt>
      <trkpt lat="44.21716" lon="6.13922">
        <ele>1375</ele>
        <time>2010-01-01T02:35:19Z</time>
      </trkpt>
      <trkpt lat="44.21718" lon="6.13918">
        <ele>1375</ele>
        <time>2010-01-01T02:35:20Z</time>
      </trkpt>
      <trkpt lat="44.2172" lon="6.13914">
        <ele>1375</ele>
        <time>2010-01-01T02:35:21Z</time>
      </trkpt>
      <trkpt lat="44.21722" lon="6.1391">
        <ele>1375</ele>
        <time>2010-01-01T02:35:21Z</time>
      </trkpt>
      <trkpt lat="44.21724" lon="6.13906">
        <ele>1375</ele>
        <time>2010-01-01T02:35:22Z</time>
      </trkpt>
      <trkpt lat="44.21726" lon="6.13901">
        <ele>1376</ele>
        <time>2010-01-01T02:35:24Z</time>
      </trkpt>
      <trkpt lat="44.21729" lon="6.13897">
        <ele>1376</ele>
        <time>2010-01-01T02:35:25Z</time>
      </trkpt>
      <trkpt lat="44.21732" lon="6.13892">
        <ele>1376</ele>
        <time>2010-01-01T02:35:26Z</time>
      </trkpt>
      <trkpt lat="44.21734" lon="6.13888">
        <ele>1376</ele>
        <time>2010-01-01T02:35:27Z</time>
      </trkpt>
      <trkpt lat="44.21736" lon="6.13883">
        <ele>1377</ele>
        <time>2010-01-01T02:35:28Z</time>
      </trkpt>
      <trkpt lat="44.21738" lon="6.13879">
        <ele>1377</ele>
        <time>2010-01-01T02:35:29Z</time>
      </trkpt>
      <trkpt lat="44.21741" lon="6.13875">
        <ele>1377</ele>
        <time>2010-01-01T02:35:30Z</time>
      </trkpt>
      <trkpt lat="44.21743" lon="6.1387">
        <ele>1377</ele>
        <time>2010-01-01T02:35:31Z</time>
      </trkpt>
      <trkpt lat="44.21745" lon="6.13865">
        <ele>1378</ele>
        <time>2010-01-01T02:35:32Z</time>
      </trkpt>
      <trkpt lat="44.21746" lon="6.1386">
        <ele>1378</ele>
        <time>2010-01-01T02:35:33Z</time>
      </trkpt>
      <trkpt lat="44.21747" lon="6.13855">
        <ele>1379</ele>
        <time>2010-01-01T02:35:34Z</time>
      </trkpt>
      <trkpt lat="44.21747" lon="6.13849">
        <ele>1380</ele>
        <time>2010-01-01T02:35:35Z</time>
      </trkpt>
      <trkpt lat="44.21745" lon="6.13844">
        <ele>1381</ele>
        <time>2010-01-01T02:35:36Z</time>
      </trkpt>
      <trkpt lat="44.21743" lon="6.13841">
        <ele>1383</ele>
        <time>2010-01-01T02:35:37Z</time>
      </trkpt>
      <trkpt lat="44.2174" lon="6.13838">
        <ele>1384</ele>
        <time>2010-01-01T02:35:38Z</time>
      </trkpt>
      <trkpt lat="44.21738" lon="6.13834">
        <ele>1386</ele>
        <time>2010-01-01T02:35:39Z</time>
      </trkpt>
      <trkpt lat="44.21735" lon="6.1383">
        <ele>1387</ele>
        <time>2010-01-01T02:35:40Z</time>
      </trkpt>
      <trkpt lat="44.21732" lon="6.13826">
        <ele>1389</ele>
        <time>2010-01-01T02:35:41Z</time>
      </trkpt>
      <trkpt lat="44.2173" lon="6.13821">
        <ele>1391</ele>
        <time>2010-01-01T02:35:42Z</time>
      </trkpt>
      <trkpt lat="44.21728" lon="6.13817">
        <ele>1393</ele>
        <time>2010-01-01T02:35:43Z</time>
      </trkpt>
      <trkpt lat="44.21727" lon="6.13814">
        <ele>1394</ele>
        <time>2010-01-01T02:35:44Z</time>
      </trkpt>
      <trkpt lat="44.21726" lon="6.13809">
        <ele>1395</ele>
        <time>2010-01-01T02:35:45Z</time>
      </trkpt>
      <trkpt lat="44.2173" lon="6.13805">
        <ele>1394</ele>
        <time>2010-01-01T02:35:46Z</time>
      </trkpt>
      <trkpt lat="44.21734" lon="6.13801">
        <ele>1393</ele>
        <time>2010-01-01T02:35:47Z</time>
      </trkpt>
      <trkpt lat="44.21738" lon="6.13799">
        <ele>1392</ele>
        <time>2010-01-01T02:35:48Z</time>
      </trkpt>
      <trkpt lat="44.21742" lon="6.13796">
        <ele>1390</ele>
        <time>2010-01-01T02:35:50Z</time>
      </trkpt>
      <trkpt lat="44.21746" lon="6.13794">
        <ele>1389</ele>
        <time>2010-01-01T02:35:51Z</time>
      </trkpt>
      <trkpt lat="44.2175" lon="6.13791">
        <ele>1388</ele>
        <time>2010-01-01T02:35:52Z</time>
      </trkpt>
      <trkpt lat="44.21754" lon="6.13788">
        <ele>1386</ele>
        <time>2010-01-01T02:35:53Z</time>
      </trkpt>
      <trkpt lat="44.21759" lon="6.13785">
        <ele>1385</ele>
        <time>2010-01-01T02:35:55Z</time>
      </trkpt>
      <trkpt lat="44.21762" lon="6.13782">
        <ele>1385</ele>
        <time>2010-01-01T02:35:56Z</time>
      </trkpt>
      <trkpt lat="44.21766" lon="6.13779">
        <ele>1384</ele>
        <time>2010-01-01T02:35:57Z</time>
      </trkpt>
      <trkpt lat="44.21769" lon="6.13775">
        <ele>1383</ele>
        <time>2010-01-01T02:35:58Z</time>
      </trkpt>
      <trkpt lat="44.21772" lon="6.13772">
        <ele>1383</ele>
        <time>2010-01-01T02:35:59Z</time>
      </trkpt>
      <trkpt lat="44.21775" lon="6.13769">
        <ele>1382</ele>
        <time>2010-01-01T02:36:00Z</time>
      </trkpt>
      <trkpt lat="44.21777" lon="6.13766">
        <ele>1382</ele>
        <time>2010-01-01T02:36:01Z</time>
      </trkpt>
      <trkpt lat="44.21779" lon="6.13761">
        <ele>1383</ele>
        <time>2010-01-01T02:36:02Z</time>
      </trkpt>
      <trkpt lat="44.21781" lon="6.13756">
        <ele>1384</ele>
        <time>2010-01-01T02:36:03Z</time>
      </trkpt>
      <trkpt lat="44.21784" lon="6.13752">
        <ele>1384</ele>
        <time>2010-01-01T02:36:04Z</time>
      </trkpt>
      <trkpt lat="44.21786" lon="6.13749">
        <ele>1384</ele>
        <time>2010-01-01T02:36:05Z</time>
      </trkpt>
      <trkpt lat="44.21786" lon="6.13744">
        <ele>1386</ele>
        <time>2010-01-01T02:36:06Z</time>
      </trkpt>
      <trkpt lat="44.21788" lon="6.13741">
        <ele>1386</ele>
        <time>2010-01-01T02:36:07Z</time>
      </trkpt>
      <trkpt lat="44.21791" lon="6.13737">
        <ele>1386</ele>
        <time>2010-01-01T02:36:08Z</time>
      </trkpt>
      <trkpt lat="44.21793" lon="6.13732">
        <ele>1387</ele>
        <time>2010-01-01T02:36:09Z</time>
      </trkpt>
      <trkpt lat="44.21795" lon="6.13728">
        <ele>1387</ele>
        <time>2010-01-01T02:36:10Z</time>
      </trkpt>
      <trkpt lat="44.21798" lon="6.13725">
        <ele>1387</ele>
        <time>2010-01-01T02:36:11Z</time>
      </trkpt>
      <trkpt lat="44.21801" lon="6.13721">
        <ele>1387</ele>
        <time>2010-01-01T02:36:12Z</time>
      </trkpt>
      <trkpt lat="44.21802" lon="6.13717">
        <ele>1388</ele>
        <time>2010-01-01T02:36:12Z</time>
      </trkpt>
      <trkpt lat="44.21802" lon="6.13713">
        <ele>1389</ele>
        <time>2010-01-01T02:36:13Z</time>
      </trkpt>
      <trkpt lat="44.21804" lon="6.13708">
        <ele>1390</ele>
        <time>2010-01-01T02:36:14Z</time>
      </trkpt>
      <trkpt lat="44.21807" lon="6.13704">
        <ele>1390</ele>
        <time>2010-01-01T02:36:15Z</time>
      </trkpt>
      <trkpt lat="44.21808" lon="6.13701">
        <ele>1390</ele>
        <time>2010-01-01T02:36:16Z</time>
      </trkpt>
      <trkpt lat="44.2181" lon="6.13695">
        <ele>1391</ele>
        <time>2010-01-01T02:36:17Z</time>
      </trkpt>
      <trkpt lat="44.21811" lon="6.13691">
        <ele>1392</ele>
        <time>2010-01-01T02:36:18Z</time>
      </trkpt>
      <trkpt lat="44.21812" lon="6.13685">
        <ele>1393</ele>
        <time>2010-01-01T02:36:19Z</time>
      </trkpt>
      <trkpt lat="44.21813" lon="6.1368">
        <ele>1394</ele>
        <time>2010-01-01T02:36:20Z</time>
      </trkpt>
      <trkpt lat="44.21815" lon="6.13675">
        <ele>1394</ele>
        <time>2010-01-01T02:36:21Z</time>
      </trkpt>
      <trkpt lat="44.21817" lon="6.1367">
        <ele>1395</ele>
        <time>2010-01-01T02:36:23Z</time>
      </trkpt>
      <trkpt lat="44.2182" lon="6.13664">
        <ele>1395</ele>
        <time>2010-01-01T02:36:24Z</time>
      </trkpt>
      <trkpt lat="44.21822" lon="6.1366">
        <ele>1395</ele>
        <time>2010-01-01T02:36:25Z</time>
      </trkpt>
      <trkpt lat="44.21824" lon="6.13656">
        <ele>1395</ele>
        <time>2010-01-01T02:36:26Z</time>
      </trkpt>
      <trkpt lat="44.21826" lon="6.13652">
        <ele>1395</ele>
        <time>2010-01-01T02:36:27Z</time>
      </trkpt>
      <trkpt lat="44.21827" lon="6.13648">
        <ele>1395</ele>
        <time>2010-01-01T02:36:28Z</time>
      </trkpt>
      <trkpt lat="44.2183" lon="6.13643">
        <ele>1395</ele>
        <time>2010-01-01T02:36:29Z</time>
      </trkpt>
      <trkpt lat="44.21831" lon="6.1364">
        <ele>1395</ele>
        <time>2010-01-01T02:36:29Z</time>
      </trkpt>
      <trkpt lat="44.21833" lon="6.13635">
        <ele>1395</ele>
        <time>2010-01-01T02:36:30Z</time>
      </trkpt>
      <trkpt lat="44.21835" lon="6.13632">
        <ele>1395</ele>
        <time>2010-01-01T02:36:31Z</time>
      </trkpt>
      <trkpt lat="44.21837" lon="6.13628">
        <ele>1395</ele>
        <time>2010-01-01T02:36:32Z</time>
      </trkpt>
      <trkpt lat="44.2184" lon="6.13623">
        <ele>1395</ele>
        <time>2010-01-01T02:36:33Z</time>
      </trkpt>
      <trkpt lat="44.21844" lon="6.13619">
        <ele>1394</ele>
        <time>2010-01-01T02:36:35Z</time>
      </trkpt>
      <trkpt lat="44.21847" lon="6.13615">
        <ele>1394</ele>
        <time>2010-01-01T02:36:36Z</time>
      </trkpt>
      <trkpt lat="44.21851" lon="6.1361">
        <ele>1393</ele>
        <time>2010-01-01T02:36:37Z</time>
      </trkpt>
      <trkpt lat="44.21854" lon="6.13606">
        <ele>1392</ele>
        <time>2010-01-01T02:36:38Z</time>
      </trkpt>
      <trkpt lat="44.21858" lon="6.13602">
        <ele>1391</ele>
        <time>2010-01-01T02:36:40Z</time>
      </trkpt>
      <trkpt lat="44.21861" lon="6.13597">
        <ele>1391</ele>
        <time>2010-01-01T02:36:41Z</time>
      </trkpt>
      <trkpt lat="44.21863" lon="6.13592">
        <ele>1391</ele>
        <time>2010-01-01T02:36:42Z</time>
      </trkpt>
      <trkpt lat="44.21865" lon="6.13588">
        <ele>1391</ele>
        <time>2010-01-01T02:36:43Z</time>
      </trkpt>
      <trkpt lat="44.21867" lon="6.13585">
        <ele>1391</ele>
        <time>2010-01-01T02:36:44Z</time>
      </trkpt>
      <trkpt lat="44.21869" lon="6.13582">
        <ele>1391</ele>
        <time>2010-01-01T02:36:44Z</time>
      </trkpt>
      <trkpt lat="44.21871" lon="6.1358">
        <ele>1391</ele>
        <time>2010-01-01T02:36:45Z</time>
      </trkpt>
      <trkpt lat="44.21873" lon="6.13577">
        <ele>1391</ele>
        <time>2010-01-01T02:36:46Z</time>
      </trkpt>
      <trkpt lat="44.21875" lon="6.13574">
        <ele>1390</ele>
        <time>2010-01-01T02:36:47Z</time>
      </trkpt>
      <trkpt lat="44.21877" lon="6.1357">
        <ele>1390</ele>
        <time>2010-01-01T02:36:48Z</time>
      </trkpt>
      <trkpt lat="44.21879" lon="6.13566">
        <ele>1390</ele>
        <time>2010-01-01T02:36:48Z</time>
      </trkpt>
      <trkpt lat="44.2188" lon="6.13562">
        <ele>1390</ele>
        <time>2010-01-01T02:36:49Z</time>
      </trkpt>
      <trkpt lat="44.2188" lon="6.13558">
        <ele>1391</ele>
        <time>2010-01-01T02:36:50Z</time>
      </trkpt>
      <trkpt lat="44.2188" lon="6.13554">
        <ele>1391</ele>
        <time>2010-01-01T02:36:51Z</time>
      </trkpt>
      <trkpt lat="44.21884" lon="6.13554">
        <ele>1390</ele>
        <time>2010-01-01T02:36:52Z</time>
      </trkpt>
      <trkpt lat="44.21886" lon="6.13555">
        <ele>1388</ele>
        <time>2010-01-01T02:36:52Z</time>
      </trkpt>
      <trkpt lat="44.21889" lon="6.13558">
        <ele>1388</ele>
        <time>2010-01-01T02:36:53Z</time>
      </trkpt>
      <trkpt lat="44.21885" lon="6.13558">
        <ele>1389</ele>
        <time>2010-01-01T02:36:54Z</time>
      </trkpt>
      <trkpt lat="44.21883" lon="6.1356">
        <ele>1389</ele>
        <time>2010-01-01T02:36:55Z</time>
      </trkpt>
      <trkpt lat="44.21881" lon="6.13563">
        <ele>1390</ele>
        <time>2010-01-01T02:36:56Z</time>
      </trkpt>
      <trkpt lat="44.21879" lon="6.13568">
        <ele>1390</ele>
        <time>2010-01-01T02:36:57Z</time>
      </trkpt>
      <trkpt lat="44.21877" lon="6.13573">
        <ele>1390</ele>
        <time>2010-01-01T02:36:58Z</time>
      </trkpt>
      <trkpt lat="44.21875" lon="6.13576">
        <ele>1390</ele>
        <time>2010-01-01T02:36:59Z</time>
      </trkpt>
      <trkpt lat="44.21873" lon="6.13579">
        <ele>1390</ele>
        <time>2010-01-01T02:36:59Z</time>
      </trkpt>
      <trkpt lat="44.21871" lon="6.13582">
        <ele>1391</ele>
        <time>2010-01-01T02:37:00Z</time>
      </trkpt>
      <trkpt lat="44.21869" lon="6.13585">
        <ele>1391</ele>
        <time>2010-01-01T02:37:01Z</time>
      </trkpt>
      <trkpt lat="44.21867" lon="6.13588">
        <ele>1391</ele>
        <time>2010-01-01T02:37:02Z</time>
      </trkpt>
      <trkpt lat="44.21864" lon="6.13592">
        <ele>1391</ele>
        <time>2010-01-01T02:37:03Z</time>
      </trkpt>
      <trkpt lat="44.21861" lon="6.13597">
        <ele>1391</ele>
        <time>2010-01-01T02:37:04Z</time>
      </trkpt>
      <trkpt lat="44.21858" lon="6.13601">
        <ele>1391</ele>
        <time>2010-01-01T02:37:05Z</time>
      </trkpt>
      <trkpt lat="44.21855" lon="6.13605">
        <ele>1392</ele>
        <time>2010-01-01T02:37:06Z</time>
      </trkpt>
      <trkpt lat="44.21852" lon="6.1361">
        <ele>1393</ele>
        <time>2010-01-01T02:37:08Z</time>
      </trkpt>
      <trkpt lat="44.21849" lon="6.13614">
        <ele>1393</ele>
        <time>2010-01-01T02:37:09Z</time>
      </trkpt>
      <trkpt lat="44.21845" lon="6.13619">
        <ele>1394</ele>
        <time>2010-01-01T02:37:10Z</time>
      </trkpt>
      <trkpt lat="44.21841" lon="6.13623">
        <ele>1395</ele>
        <time>2010-01-01T02:37:11Z</time>
      </trkpt>
      <trkpt lat="44.21837" lon="6.13628">
        <ele>1395</ele>
        <time>2010-01-01T02:37:13Z</time>
      </trkpt>
      <trkpt lat="44.21836" lon="6.13636">
        <ele>1393</ele>
        <time>2010-01-01T02:37:14Z</time>
      </trkpt>
      <trkpt lat="44.21834" lon="6.13643">
        <ele>1392</ele>
        <time>2010-01-01T02:37:16Z</time>
      </trkpt>
      <trkpt lat="44.21832" lon="6.13652">
        <ele>1391</ele>
        <time>2010-01-01T02:37:18Z</time>
      </trkpt>
      <trkpt lat="44.21829" lon="6.13659">
        <ele>1391</ele>
        <time>2010-01-01T02:37:19Z</time>
      </trkpt>
      <trkpt lat="44.21825" lon="6.13667">
        <ele>1391</ele>
        <time>2010-01-01T02:37:21Z</time>
      </trkpt>
      <trkpt lat="44.21822" lon="6.13674">
        <ele>1391</ele>
        <time>2010-01-01T02:37:23Z</time>
      </trkpt>
      <trkpt lat="44.21819" lon="6.13684">
        <ele>1390</ele>
        <time>2010-01-01T02:37:25Z</time>
      </trkpt>
      <trkpt lat="44.21817" lon="6.13691">
        <ele>1389</ele>
        <time>2010-01-01T02:37:26Z</time>
      </trkpt>
      <trkpt lat="44.21813" lon="6.13699">
        <ele>1388</ele>
        <time>2010-01-01T02:37:28Z</time>
      </trkpt>
      <trkpt lat="44.21809" lon="6.13708">
        <ele>1388</ele>
        <time>2010-01-01T02:37:30Z</time>
      </trkpt>
      <trkpt lat="44.21804" lon="6.13715">
        <ele>1387</ele>
        <time>2010-01-01T02:37:32Z</time>
      </trkpt>
      <trkpt lat="44.21799" lon="6.13724">
        <ele>1387</ele>
        <time>2010-01-01T02:37:34Z</time>
      </trkpt>
      <trkpt lat="44.21796" lon="6.13729">
        <ele>1387</ele>
        <time>2010-01-01T02:37:35Z</time>
      </trkpt>
      <trkpt lat="44.21793" lon="6.13734">
        <ele>1387</ele>
        <time>2010-01-01T02:37:37Z</time>
      </trkpt>
      <trkpt lat="44.21788" lon="6.13743">
        <ele>1386</ele>
        <time>2010-01-01T02:37:39Z</time>
      </trkpt>
      <trkpt lat="44.21781" lon="6.13754">
        <ele>1384</ele>
        <time>2010-01-01T02:37:42Z</time>
      </trkpt>
      <trkpt lat="44.21776" lon="6.13762">
        <ele>1384</ele>
        <time>2010-01-01T02:37:44Z</time>
      </trkpt>
      <trkpt lat="44.21769" lon="6.1377">
        <ele>1385</ele>
        <time>2010-01-01T02:37:46Z</time>
      </trkpt>
      <trkpt lat="44.21765" lon="6.13772">
        <ele>1386</ele>
        <time>2010-01-01T02:37:47Z</time>
      </trkpt>
      <trkpt lat="44.21759" lon="6.13776">
        <ele>1388</ele>
        <time>2010-01-01T02:37:49Z</time>
      </trkpt>
      <trkpt lat="44.21752" lon="6.1378">
        <ele>1390</ele>
        <time>2010-01-01T02:37:51Z</time>
      </trkpt>
      <trkpt lat="44.21744" lon="6.13784">
        <ele>1393</ele>
        <time>2010-01-01T02:37:53Z</time>
      </trkpt>
      <trkpt lat="44.21738" lon="6.13788">
        <ele>1395</ele>
        <time>2010-01-01T02:37:55Z</time>
      </trkpt>
      <trkpt lat="44.21731" lon="6.13794">
        <ele>1396</ele>
        <time>2010-01-01T02:37:57Z</time>
      </trkpt>
      <trkpt lat="44.2173" lon="6.13805">
        <ele>1394</ele>
        <time>2010-01-01T02:37:59Z</time>
      </trkpt>
      <trkpt lat="44.21727" lon="6.13815">
        <ele>1393</ele>
        <time>2010-01-01T02:38:01Z</time>
      </trkpt>
      <trkpt lat="44.21733" lon="6.1382">
        <ele>1390</ele>
        <time>2010-01-01T02:38:03Z</time>
      </trkpt>
      <trkpt lat="44.21736" lon="6.13824">
        <ele>1388</ele>
        <time>2010-01-01T02:38:04Z</time>
      </trkpt>
      <trkpt lat="44.2174" lon="6.13835">
        <ele>1385</ele>
        <time>2010-01-01T02:38:06Z</time>
      </trkpt>
      <trkpt lat="44.21742" lon="6.13842">
        <ele>1383</ele>
        <time>2010-01-01T02:38:08Z</time>
      </trkpt>
      <trkpt lat="44.21743" lon="6.13849">
        <ele>1381</ele>
        <time>2010-01-01T02:38:09Z</time>
      </trkpt>
      <trkpt lat="44.21741" lon="6.13856">
        <ele>1381</ele>
        <time>2010-01-01T02:38:11Z</time>
      </trkpt>
      <trkpt lat="44.2174" lon="6.13862">
        <ele>1380</ele>
        <time>2010-01-01T02:38:12Z</time>
      </trkpt>
      <trkpt lat="44.21738" lon="6.13867">
        <ele>1380</ele>
        <time>2010-01-01T02:38:13Z</time>
      </trkpt>
      <trkpt lat="44.21736" lon="6.1387">
        <ele>1380</ele>
        <time>2010-01-01T02:38:14Z</time>
      </trkpt>
      <trkpt lat="44.21734" lon="6.13875">
        <ele>1380</ele>
        <time>2010-01-01T02:38:15Z</time>
      </trkpt>
      <trkpt lat="44.21731" lon="6.1388">
        <ele>1379</ele>
        <time>2010-01-01T02:38:16Z</time>
      </trkpt>
      <trkpt lat="44.21728" lon="6.13881">
        <ele>1380</ele>
        <time>2010-01-01T02:38:17Z</time>
      </trkpt>
      <trkpt lat="44.21725" lon="6.13882">
        <ele>1381</ele>
        <time>2010-01-01T02:38:18Z</time>
      </trkpt>
      <trkpt lat="44.21721" lon="6.13884">
        <ele>1381</ele>
        <time>2010-01-01T02:38:19Z</time>
      </trkpt>
      <trkpt lat="44.21719" lon="6.13886">
        <ele>1382</ele>
        <time>2010-01-01T02:38:19Z</time>
      </trkpt>
      <trkpt lat="44.21716" lon="6.13889">
        <ele>1382</ele>
        <time>2010-01-01T02:38:20Z</time>
      </trkpt>
      <trkpt lat="44.21712" lon="6.13892">
        <ele>1383</ele>
        <time>2010-01-01T02:38:22Z</time>
      </trkpt>
      <trkpt lat="44.2171" lon="6.13895">
        <ele>1384</ele>
        <time>2010-01-01T02:38:23Z</time>
      </trkpt>
      <trkpt lat="44.21707" lon="6.13898">
        <ele>1384</ele>
        <time>2010-01-01T02:38:23Z</time>
      </trkpt>
      <trkpt lat="44.21704" lon="6.139">
        <ele>1385</ele>
        <time>2010-01-01T02:38:24Z</time>
      </trkpt>
      <trkpt lat="44.21701" lon="6.13902">
        <ele>1385</ele>
        <time>2010-01-01T02:38:25Z</time>
      </trkpt>
      <trkpt lat="44.21699" lon="6.13905">
        <ele>1386</ele>
        <time>2010-01-01T02:38:26Z</time>
      </trkpt>
      <trkpt lat="44.21696" lon="6.13907">
        <ele>1386</ele>
        <time>2010-01-01T02:38:27Z</time>
      </trkpt>
      <trkpt lat="44.21692" lon="6.1391">
        <ele>1387</ele>
        <time>2010-01-01T02:38:28Z</time>
      </trkpt>
      <trkpt lat="44.21689" lon="6.13913">
        <ele>1387</ele>
        <time>2010-01-01T02:38:29Z</time>
      </trkpt>
      <trkpt lat="44.21685" lon="6.13917">
        <ele>1388</ele>
        <time>2010-01-01T02:38:30Z</time>
      </trkpt>
      <trkpt lat="44.21682" lon="6.1392">
        <ele>1388</ele>
        <time>2010-01-01T02:38:31Z</time>
      </trkpt>
      <trkpt lat="44.21679" lon="6.13923">
        <ele>1389</ele>
        <time>2010-01-01T02:38:32Z</time>
      </trkpt>
      <trkpt lat="44.21676" lon="6.13926">
        <ele>1389</ele>
        <time>2010-01-01T02:38:33Z</time>
      </trkpt>
      <trkpt lat="44.21674" lon="6.13929">
        <ele>1389</ele>
        <time>2010-01-01T02:38:34Z</time>
      </trkpt>
      <trkpt lat="44.21671" lon="6.13931">
        <ele>1390</ele>
        <time>2010-01-01T02:38:35Z</time>
      </trkpt>
      <trkpt lat="44.21669" lon="6.13934">
        <ele>1390</ele>
        <time>2010-01-01T02:38:36Z</time>
      </trkpt>
      <trkpt lat="44.21666" lon="6.13936">
        <ele>1390</ele>
        <time>2010-01-01T02:38:37Z</time>
      </trkpt>
      <trkpt lat="44.21663" lon="6.1394">
        <ele>1391</ele>
        <time>2010-01-01T02:38:38Z</time>
      </trkpt>
      <trkpt lat="44.2166" lon="6.13944">
        <ele>1391</ele>
        <time>2010-01-01T02:38:39Z</time>
      </trkpt>
      <trkpt lat="44.21657" lon="6.13946">
        <ele>1391</ele>
        <time>2010-01-01T02:38:40Z</time>
      </trkpt>
      <trkpt lat="44.21654" lon="6.13949">
        <ele>1391</ele>
        <time>2010-01-01T02:38:41Z</time>
      </trkpt>
      <trkpt lat="44.21651" lon="6.13953">
        <ele>1391</ele>
        <time>2010-01-01T02:38:42Z</time>
      </trkpt>
      <trkpt lat="44.21648" lon="6.13957">
        <ele>1391</ele>
        <time>2010-01-01T02:38:43Z</time>
      </trkpt>
      <trkpt lat="44.21645" lon="6.1396">
        <ele>1391</ele>
        <time>2010-01-01T02:38:44Z</time>
      </trkpt>
      <trkpt lat="44.21643" lon="6.13964">
        <ele>1391</ele>
        <time>2010-01-01T02:38:45Z</time>
      </trkpt>
      <trkpt lat="44.21641" lon="6.13966">
        <ele>1391</ele>
        <time>2010-01-01T02:38:46Z</time>
      </trkpt>
      <trkpt lat="44.21637" lon="6.13969">
        <ele>1391</ele>
        <time>2010-01-01T02:38:47Z</time>
      </trkpt>
      <trkpt lat="44.21635" lon="6.13971">
        <ele>1391</ele>
        <time>2010-01-01T02:38:47Z</time>
      </trkpt>
      <trkpt lat="44.21631" lon="6.13974">
        <ele>1391</ele>
        <time>2010-01-01T02:38:48Z</time>
      </trkpt>
      <trkpt lat="44.21629" lon="6.13977">
        <ele>1391</ele>
        <time>2010-01-01T02:38:49Z</time>
      </trkpt>
      <trkpt lat="44.21626" lon="6.13981">
        <ele>1391</ele>
        <time>2010-01-01T02:38:50Z</time>
      </trkpt>
      <trkpt lat="44.21623" lon="6.13984">
        <ele>1391</ele>
        <time>2010-01-01T02:38:51Z</time>
      </trkpt>
      <trkpt lat="44.2162" lon="6.13987">
        <ele>1392</ele>
        <time>2010-01-01T02:38:52Z</time>
      </trkpt>
      <trkpt lat="44.21617" lon="6.13989">
        <ele>1392</ele>
        <time>2010-01-01T02:38:53Z</time>
      </trkpt>
      <trkpt lat="44.21614" lon="6.13992">
        <ele>1392</ele>
        <time>2010-01-01T02:38:54Z</time>
      </trkpt>
      <trkpt lat="44.21611" lon="6.13994">
        <ele>1393</ele>
        <time>2010-01-01T02:38:55Z</time>
      </trkpt>
      <trkpt lat="44.21609" lon="6.13996">
        <ele>1393</ele>
        <time>2010-01-01T02:38:56Z</time>
      </trkpt>
      <trkpt lat="44.21606" lon="6.13999">
        <ele>1394</ele>
        <time>2010-01-01T02:38:57Z</time>
      </trkpt>
      <trkpt lat="44.21603" lon="6.14002">
        <ele>1394</ele>
        <time>2010-01-01T02:38:58Z</time>
      </trkpt>
      <trkpt lat="44.216" lon="6.14004">
        <ele>1395</ele>
        <time>2010-01-01T02:38:58Z</time>
      </trkpt>
      <trkpt lat="44.21597" lon="6.14006">
        <ele>1395</ele>
        <time>2010-01-01T02:38:59Z</time>
      </trkpt>
      <trkpt lat="44.21594" lon="6.14006">
        <ele>1396</ele>
        <time>2010-01-01T02:39:00Z</time>
      </trkpt>
      <trkpt lat="44.21591" lon="6.14007">
        <ele>1397</ele>
        <time>2010-01-01T02:39:01Z</time>
      </trkpt>
      <trkpt lat="44.21588" lon="6.14007">
        <ele>1398</ele>
        <time>2010-01-01T02:39:02Z</time>
      </trkpt>
      <trkpt lat="44.21584" lon="6.14006">
        <ele>1400</ele>
        <time>2010-01-01T02:39:03Z</time>
      </trkpt>
      <trkpt lat="44.21581" lon="6.14005">
        <ele>1401</ele>
        <time>2010-01-01T02:39:04Z</time>
      </trkpt>
      <trkpt lat="44.21577" lon="6.14004">
        <ele>1403</ele>
        <time>2010-01-01T02:39:05Z</time>
      </trkpt>
      <trkpt lat="44.21573" lon="6.14002">
        <ele>1405</ele>
        <time>2010-01-01T02:39:06Z</time>
      </trkpt>
      <trkpt lat="44.21569" lon="6.14001">
        <ele>1406</ele>
        <time>2010-01-01T02:39:07Z</time>
      </trkpt>
      <trkpt lat="44.21566" lon="6.13999">
        <ele>1407</ele>
        <time>2010-01-01T02:39:08Z</time>
      </trkpt>
      <trkpt lat="44.21563" lon="6.13999">
        <ele>1408</ele>
        <time>2010-01-01T02:39:09Z</time>
      </trkpt>
      <trkpt lat="44.2156" lon="6.14001">
        <ele>1409</ele>
        <time>2010-01-01T02:39:10Z</time>
      </trkpt>
      <trkpt lat="44.21558" lon="6.14004">
        <ele>1409</ele>
        <time>2010-01-01T02:39:10Z</time>
      </trkpt>
      <trkpt lat="44.21557" lon="6.14008">
        <ele>1409</ele>
        <time>2010-01-01T02:39:11Z</time>
      </trkpt>
      <trkpt lat="44.21557" lon="6.14013">
        <ele>1408</ele>
        <time>2010-01-01T02:39:12Z</time>
      </trkpt>
      <trkpt lat="44.21555" lon="6.14018">
        <ele>1407</ele>
        <time>2010-01-01T02:39:13Z</time>
      </trkpt>
      <trkpt lat="44.21554" lon="6.14023">
        <ele>1407</ele>
        <time>2010-01-01T02:39:14Z</time>
      </trkpt>
      <trkpt lat="44.21554" lon="6.14028">
        <ele>1406</ele>
        <time>2010-01-01T02:39:15Z</time>
      </trkpt>
      <trkpt lat="44.21554" lon="6.14032">
        <ele>1405</ele>
        <time>2010-01-01T02:39:16Z</time>
      </trkpt>
      <trkpt lat="44.21553" lon="6.14037">
        <ele>1404</ele>
        <time>2010-01-01T02:39:17Z</time>
      </trkpt>
      <trkpt lat="44.21553" lon="6.14042">
        <ele>1403</ele>
        <time>2010-01-01T02:39:18Z</time>
      </trkpt>
      <trkpt lat="44.21553" lon="6.14046">
        <ele>1402</ele>
        <time>2010-01-01T02:39:19Z</time>
      </trkpt>
      <trkpt lat="44.21553" lon="6.14051">
        <ele>1401</ele>
        <time>2010-01-01T02:39:20Z</time>
      </trkpt>
      <trkpt lat="44.21552" lon="6.14055">
        <ele>1400</ele>
        <time>2010-01-01T02:39:20Z</time>
      </trkpt>
      <trkpt lat="44.21551" lon="6.14058">
        <ele>1400</ele>
        <time>2010-01-01T02:39:21Z</time>
      </trkpt>
      <trkpt lat="44.21549" lon="6.14062">
        <ele>1400</ele>
        <time>2010-01-01T02:39:22Z</time>
      </trkpt>
      <trkpt lat="44.21547" lon="6.14064">
        <ele>1401</ele>
        <time>2010-01-01T02:39:23Z</time>
      </trkpt>
      <trkpt lat="44.21545" lon="6.14067">
        <ele>1401</ele>
        <time>2010-01-01T02:39:24Z</time>
      </trkpt>
      <trkpt lat="44.21543" lon="6.1407">
        <ele>1401</ele>
        <time>2010-01-01T02:39:24Z</time>
      </trkpt>
      <trkpt lat="44.2154" lon="6.14074">
        <ele>1401</ele>
        <time>2010-01-01T02:39:25Z</time>
      </trkpt>
      <trkpt lat="44.21538" lon="6.14078">
        <ele>1402</ele>
        <time>2010-01-01T02:39:26Z</time>
      </trkpt>
      <trkpt lat="44.21536" lon="6.14082">
        <ele>1402</ele>
        <time>2010-01-01T02:39:27Z</time>
      </trkpt>
      <trkpt lat="44.21533" lon="6.14087">
        <ele>1402</ele>
        <time>2010-01-01T02:39:28Z</time>
      </trkpt>
      <trkpt lat="44.21531" lon="6.14091">
        <ele>1402</ele>
        <time>2010-01-01T02:39:29Z</time>
      </trkpt>
      <trkpt lat="44.21528" lon="6.14095">
        <ele>1402</ele>
        <time>2010-01-01T02:39:30Z</time>
      </trkpt>
      <trkpt lat="44.21526" lon="6.14099">
        <ele>1402</ele>
        <time>2010-01-01T02:39:31Z</time>
      </trkpt>
      <trkpt lat="44.21524" lon="6.14102">
        <ele>1403</ele>
        <time>2010-01-01T02:39:32Z</time>
      </trkpt>
      <trkpt lat="44.21521" lon="6.14106">
        <ele>1404</ele>
        <time>2010-01-01T02:39:33Z</time>
      </trkpt>
      <trkpt lat="44.21519" lon="6.1411">
        <ele>1404</ele>
        <time>2010-01-01T02:39:34Z</time>
      </trkpt>
      <trkpt lat="44.21518" lon="6.14113">
        <ele>1404</ele>
        <time>2010-01-01T02:39:35Z</time>
      </trkpt>
      <trkpt lat="44.21516" lon="6.14117">
        <ele>1405</ele>
        <time>2010-01-01T02:39:36Z</time>
      </trkpt>
      <trkpt lat="44.21513" lon="6.1412">
        <ele>1406</ele>
        <time>2010-01-01T02:39:37Z</time>
      </trkpt>
      <trkpt lat="44.21512" lon="6.14124">
        <ele>1407</ele>
        <time>2010-01-01T02:39:38Z</time>
      </trkpt>
      <trkpt lat="44.2151" lon="6.14127">
        <ele>1407</ele>
        <time>2010-01-01T02:39:38Z</time>
      </trkpt>
      <trkpt lat="44.21507" lon="6.14131">
        <ele>1408</ele>
        <time>2010-01-01T02:39:39Z</time>
      </trkpt>
      <trkpt lat="44.21505" lon="6.14135">
        <ele>1409</ele>
        <time>2010-01-01T02:39:40Z</time>
      </trkpt>
      <trkpt lat="44.21502" lon="6.14138">
        <ele>1410</ele>
        <time>2010-01-01T02:39:41Z</time>
      </trkpt>
      <trkpt lat="44.21499" lon="6.14141">
        <ele>1410</ele>
        <time>2010-01-01T02:39:42Z</time>
      </trkpt>
      <trkpt lat="44.21497" lon="6.14144">
        <ele>1411</ele>
        <time>2010-01-01T02:39:43Z</time>
      </trkpt>
      <trkpt lat="44.21495" lon="6.14146">
        <ele>1411</ele>
        <time>2010-01-01T02:39:44Z</time>
      </trkpt>
      <trkpt lat="44.21493" lon="6.14149">
        <ele>1411</ele>
        <time>2010-01-01T02:39:44Z</time>
      </trkpt>
      <trkpt lat="44.21491" lon="6.14152">
        <ele>1411</ele>
        <time>2010-01-01T02:39:45Z</time>
      </trkpt>
      <trkpt lat="44.21489" lon="6.14155">
        <ele>1412</ele>
        <time>2010-01-01T02:39:46Z</time>
      </trkpt>
      <trkpt lat="44.21487" lon="6.14158">
        <ele>1412</ele>
        <time>2010-01-01T02:39:47Z</time>
      </trkpt>
      <trkpt lat="44.21485" lon="6.14161">
        <ele>1412</ele>
        <time>2010-01-01T02:39:48Z</time>
      </trkpt>
      <trkpt lat="44.21483" lon="6.14164">
        <ele>1413</ele>
        <time>2010-01-01T02:39:48Z</time>
      </trkpt>
      <trkpt lat="44.2148" lon="6.14166">
        <ele>1413</ele>
        <time>2010-01-01T02:39:49Z</time>
      </trkpt>
      <trkpt lat="44.21477" lon="6.14169">
        <ele>1414</ele>
        <time>2010-01-01T02:39:50Z</time>
      </trkpt>
      <trkpt lat="44.21474" lon="6.14171">
        <ele>1414</ele>
        <time>2010-01-01T02:39:51Z</time>
      </trkpt>
      <trkpt lat="44.21471" lon="6.14174">
        <ele>1415</ele>
        <time>2010-01-01T02:39:52Z</time>
      </trkpt>
      <trkpt lat="44.21468" lon="6.14178">
        <ele>1415</ele>
        <time>2010-01-01T02:39:53Z</time>
      </trkpt>
      <trkpt lat="44.21465" lon="6.14181">
        <ele>1415</ele>
        <time>2010-01-01T02:39:54Z</time>
      </trkpt>
      <trkpt lat="44.21463" lon="6.14184">
        <ele>1415</ele>
        <time>2010-01-01T02:39:55Z</time>
      </trkpt>
      <trkpt lat="44.2146" lon="6.14187">
        <ele>1416</ele>
        <time>2010-01-01T02:39:56Z</time>
      </trkpt>
      <trkpt lat="44.21458" lon="6.1419">
        <ele>1416</ele>
        <time>2010-01-01T02:39:57Z</time>
      </trkpt>
      <trkpt lat="44.21455" lon="6.14193">
        <ele>1416</ele>
        <time>2010-01-01T02:39:58Z</time>
      </trkpt>
      <trkpt lat="44.21453" lon="6.14195">
        <ele>1417</ele>
        <time>2010-01-01T02:39:58Z</time>
      </trkpt>
      <trkpt lat="44.2145" lon="6.14197">
        <ele>1417</ele>
        <time>2010-01-01T02:39:59Z</time>
      </trkpt>
      <trkpt lat="44.21448" lon="6.14199">
        <ele>1417</ele>
        <time>2010-01-01T02:40:00Z</time>
      </trkpt>
      <trkpt lat="44.21445" lon="6.14202">
        <ele>1417</ele>
        <time>2010-01-01T02:40:01Z</time>
      </trkpt>
      <trkpt lat="44.21443" lon="6.14204">
        <ele>1417</ele>
        <time>2010-01-01T02:40:02Z</time>
      </trkpt>
      <trkpt lat="44.2144" lon="6.14207">
        <ele>1417</ele>
        <time>2010-01-01T02:40:03Z</time>
      </trkpt>
      <trkpt lat="44.21438" lon="6.1421">
        <ele>1417</ele>
        <time>2010-01-01T02:40:03Z</time>
      </trkpt>
      <trkpt lat="44.21435" lon="6.14212">
        <ele>1417</ele>
        <time>2010-01-01T02:40:04Z</time>
      </trkpt>
      <trkpt lat="44.21432" lon="6.14213">
        <ele>1417</ele>
        <time>2010-01-01T02:40:05Z</time>
      </trkpt>
      <trkpt lat="44.2143" lon="6.14215">
        <ele>1418</ele>
        <time>2010-01-01T02:40:06Z</time>
      </trkpt>
      <trkpt lat="44.21426" lon="6.14215">
        <ele>1419</ele>
        <time>2010-01-01T02:40:07Z</time>
      </trkpt>
      <trkpt lat="44.21423" lon="6.14216">
        <ele>1419</ele>
        <time>2010-01-01T02:40:07Z</time>
      </trkpt>
      <trkpt lat="44.2142" lon="6.14217">
        <ele>1420</ele>
        <time>2010-01-01T02:40:08Z</time>
      </trkpt>
      <trkpt lat="44.21417" lon="6.14217">
        <ele>1421</ele>
        <time>2010-01-01T02:40:09Z</time>
      </trkpt>
      <trkpt lat="44.21414" lon="6.14215">
        <ele>1422</ele>
        <time>2010-01-01T02:40:10Z</time>
      </trkpt>
      <trkpt lat="44.21411" lon="6.14214">
        <ele>1423</ele>
        <time>2010-01-01T02:40:11Z</time>
      </trkpt>
      <trkpt lat="44.21407" lon="6.14214">
        <ele>1423</ele>
        <time>2010-01-01T02:40:12Z</time>
      </trkpt>
      <trkpt lat="44.21405" lon="6.14214">
        <ele>1424</ele>
        <time>2010-01-01T02:40:13Z</time>
      </trkpt>
      <trkpt lat="44.21401" lon="6.14214">
        <ele>1424</ele>
        <time>2010-01-01T02:40:13Z</time>
      </trkpt>
      <trkpt lat="44.21397" lon="6.14213">
        <ele>1425</ele>
        <time>2010-01-01T02:40:14Z</time>
      </trkpt>
      <trkpt lat="44.21394" lon="6.14212">
        <ele>1426</ele>
        <time>2010-01-01T02:40:15Z</time>
      </trkpt>
      <trkpt lat="44.21391" lon="6.14211">
        <ele>1427</ele>
        <time>2010-01-01T02:40:16Z</time>
      </trkpt>
      <trkpt lat="44.21388" lon="6.1421">
        <ele>1428</ele>
        <time>2010-01-01T02:40:17Z</time>
      </trkpt>
      <trkpt lat="44.21385" lon="6.14209">
        <ele>1429</ele>
        <time>2010-01-01T02:40:18Z</time>
      </trkpt>
      <trkpt lat="44.21382" lon="6.14207">
        <ele>1430</ele>
        <time>2010-01-01T02:40:19Z</time>
      </trkpt>
      <trkpt lat="44.2138" lon="6.14207">
        <ele>1430</ele>
        <time>2010-01-01T02:40:19Z</time>
      </trkpt>
      <trkpt lat="44.21376" lon="6.14206">
        <ele>1431</ele>
        <time>2010-01-01T02:40:20Z</time>
      </trkpt>
      <trkpt lat="44.21372" lon="6.14207">
        <ele>1432</ele>
        <time>2010-01-01T02:40:21Z</time>
      </trkpt>
      <trkpt lat="44.2137" lon="6.14209">
        <ele>1432</ele>
        <time>2010-01-01T02:40:22Z</time>
      </trkpt>
      <trkpt lat="44.21367" lon="6.14212">
        <ele>1431</ele>
        <time>2010-01-01T02:40:23Z</time>
      </trkpt>
      <trkpt lat="44.21366" lon="6.14217">
        <ele>1431</ele>
        <time>2010-01-01T02:40:24Z</time>
      </trkpt>
      <trkpt lat="44.21364" lon="6.14222">
        <ele>1430</ele>
        <time>2010-01-01T02:40:25Z</time>
      </trkpt>
      <trkpt lat="44.21362" lon="6.14226">
        <ele>1430</ele>
        <time>2010-01-01T02:40:26Z</time>
      </trkpt>
      <trkpt lat="44.21361" lon="6.1423">
        <ele>1429</ele>
        <time>2010-01-01T02:40:27Z</time>
      </trkpt>
      <trkpt lat="44.2136" lon="6.14235">
        <ele>1429</ele>
        <time>2010-01-01T02:40:28Z</time>
      </trkpt>
      <trkpt lat="44.21359" lon="6.14239">
        <ele>1428</ele>
        <time>2010-01-01T02:40:29Z</time>
      </trkpt>
      <trkpt lat="44.21359" lon="6.14243">
        <ele>1428</ele>
        <time>2010-01-01T02:40:29Z</time>
      </trkpt>
      <trkpt lat="44.21358" lon="6.14249">
        <ele>1427</ele>
        <time>2010-01-01T02:40:31Z</time>
      </trkpt>
      <trkpt lat="44.21357" lon="6.14254">
        <ele>1427</ele>
        <time>2010-01-01T02:40:32Z</time>
      </trkpt>
      <trkpt lat="44.21356" lon="6.14258">
        <ele>1427</ele>
        <time>2010-01-01T02:40:32Z</time>
      </trkpt>
      <trkpt lat="44.21355" lon="6.14262">
        <ele>1426</ele>
        <time>2010-01-01T02:40:33Z</time>
      </trkpt>
      <trkpt lat="44.21356" lon="6.14267">
        <ele>1426</ele>
        <time>2010-01-01T02:40:34Z</time>
      </trkpt>
      <trkpt lat="44.21357" lon="6.14271">
        <ele>1425</ele>
        <time>2010-01-01T02:40:35Z</time>
      </trkpt>
      <trkpt lat="44.21358" lon="6.14275">
        <ele>1424</ele>
        <time>2010-01-01T02:40:36Z</time>
      </trkpt>
      <trkpt lat="44.21356" lon="6.1428">
        <ele>1424</ele>
        <time>2010-01-01T02:40:37Z</time>
      </trkpt>
      <trkpt lat="44.21355" lon="6.14284">
        <ele>1424</ele>
        <time>2010-01-01T02:40:38Z</time>
      </trkpt>
      <trkpt lat="44.21354" lon="6.14288">
        <ele>1424</ele>
        <time>2010-01-01T02:40:39Z</time>
      </trkpt>
      <trkpt lat="44.21353" lon="6.14292">
        <ele>1424</ele>
        <time>2010-01-01T02:40:39Z</time>
      </trkpt>
      <trkpt lat="44.2135" lon="6.14294">
        <ele>1424</ele>
        <time>2010-01-01T02:40:40Z</time>
      </trkpt>
      <trkpt lat="44.21346" lon="6.14296">
        <ele>1425</ele>
        <time>2010-01-01T02:40:41Z</time>
      </trkpt>
      <trkpt lat="44.21342" lon="6.14298">
        <ele>1426</ele>
        <time>2010-01-01T02:40:42Z</time>
      </trkpt>
      <trkpt lat="44.21339" lon="6.14299">
        <ele>1427</ele>
        <time>2010-01-01T02:40:43Z</time>
      </trkpt>
      <trkpt lat="44.21335" lon="6.14301">
        <ele>1428</ele>
        <time>2010-01-01T02:40:44Z</time>
      </trkpt>
      <trkpt lat="44.21331" lon="6.14303">
        <ele>1428</ele>
        <time>2010-01-01T02:40:45Z</time>
      </trkpt>
      <trkpt lat="44.21327" lon="6.14305">
        <ele>1429</ele>
        <time>2010-01-01T02:40:47Z</time>
      </trkpt>
      <trkpt lat="44.21323" lon="6.14306">
        <ele>1430</ele>
        <time>2010-01-01T02:40:48Z</time>
      </trkpt>
      <trkpt lat="44.21319" lon="6.14307">
        <ele>1430</ele>
        <time>2010-01-01T02:40:49Z</time>
      </trkpt>
      <trkpt lat="44.21315" lon="6.14308">
        <ele>1431</ele>
        <time>2010-01-01T02:40:50Z</time>
      </trkpt>
      <trkpt lat="44.21312" lon="6.14309">
        <ele>1432</ele>
        <time>2010-01-01T02:40:51Z</time>
      </trkpt>
      <trkpt lat="44.21309" lon="6.14309">
        <ele>1432</ele>
        <time>2010-01-01T02:40:52Z</time>
      </trkpt>
      <trkpt lat="44.21306" lon="6.14309">
        <ele>1433</ele>
        <time>2010-01-01T02:40:52Z</time>
      </trkpt>
      <trkpt lat="44.21303" lon="6.14308">
        <ele>1434</ele>
        <time>2010-01-01T02:40:53Z</time>
      </trkpt>
      <trkpt lat="44.21299" lon="6.14307">
        <ele>1435</ele>
        <time>2010-01-01T02:40:54Z</time>
      </trkpt>
      <trkpt lat="44.21296" lon="6.14306">
        <ele>1436</ele>
        <time>2010-01-01T02:40:55Z</time>
      </trkpt>
      <trkpt lat="44.21293" lon="6.14305">
        <ele>1437</ele>
        <time>2010-01-01T02:40:56Z</time>
      </trkpt>
      <trkpt lat="44.2129" lon="6.14304">
        <ele>1438</ele>
        <time>2010-01-01T02:40:57Z</time>
      </trkpt>
      <trkpt lat="44.21287" lon="6.14304">
        <ele>1439</ele>
        <time>2010-01-01T02:40:57Z</time>
      </trkpt>
      <trkpt lat="44.21284" lon="6.14305">
        <ele>1440</ele>
        <time>2010-01-01T02:40:58Z</time>
      </trkpt>
      <trkpt lat="44.21281" lon="6.14308">
        <ele>1440</ele>
        <time>2010-01-01T02:40:59Z</time>
      </trkpt>
      <trkpt lat="44.21278" lon="6.14311">
        <ele>1440</ele>
        <time>2010-01-01T02:41:00Z</time>
      </trkpt>
      <trkpt lat="44.21275" lon="6.14312">
        <ele>1440</ele>
        <time>2010-01-01T02:41:01Z</time>
      </trkpt>
      <trkpt lat="44.21272" lon="6.14314">
        <ele>1441</ele>
        <time>2010-01-01T02:41:02Z</time>
      </trkpt>
      <trkpt lat="44.21269" lon="6.14316">
        <ele>1442</ele>
        <time>2010-01-01T02:41:03Z</time>
      </trkpt>
      <trkpt lat="44.21265" lon="6.14318">
        <ele>1443</ele>
        <time>2010-01-01T02:41:04Z</time>
      </trkpt>
      <trkpt lat="44.21263" lon="6.1432">
        <ele>1443</ele>
        <time>2010-01-01T02:41:05Z</time>
      </trkpt>
      <trkpt lat="44.21259" lon="6.14322">
        <ele>1444</ele>
        <time>2010-01-01T02:41:06Z</time>
      </trkpt>
      <trkpt lat="44.21256" lon="6.14324">
        <ele>1445</ele>
        <time>2010-01-01T02:41:07Z</time>
      </trkpt>
      <trkpt lat="44.21253" lon="6.14326">
        <ele>1445</ele>
        <time>2010-01-01T02:41:07Z</time>
      </trkpt>
      <trkpt lat="44.2125" lon="6.14328">
        <ele>1446</ele>
        <time>2010-01-01T02:41:08Z</time>
      </trkpt>
      <trkpt lat="44.21248" lon="6.14331">
        <ele>1446</ele>
        <time>2010-01-01T02:41:09Z</time>
      </trkpt>
      <trkpt lat="44.21246" lon="6.14334">
        <ele>1446</ele>
        <time>2010-01-01T02:41:10Z</time>
      </trkpt>
      <trkpt lat="44.21243" lon="6.14337">
        <ele>1445</ele>
        <time>2010-01-01T02:41:11Z</time>
      </trkpt>
      <trkpt lat="44.2124" lon="6.1434">
        <ele>1445</ele>
        <time>2010-01-01T02:41:12Z</time>
      </trkpt>
      <trkpt lat="44.21239" lon="6.14343">
        <ele>1444</ele>
        <time>2010-01-01T02:41:13Z</time>
      </trkpt>
      <trkpt lat="44.21237" lon="6.14348">
        <ele>1443</ele>
        <time>2010-01-01T02:41:14Z</time>
      </trkpt>
      <trkpt lat="44.21234" lon="6.1435">
        <ele>1444</ele>
        <time>2010-01-01T02:41:15Z</time>
      </trkpt>
      <trkpt lat="44.21231" lon="6.14351">
        <ele>1444</ele>
        <time>2010-01-01T02:41:15Z</time>
      </trkpt>
      <trkpt lat="44.21227" lon="6.14351">
        <ele>1445</ele>
        <time>2010-01-01T02:41:16Z</time>
      </trkpt>
      <trkpt lat="44.21224" lon="6.14353">
        <ele>1445</ele>
        <time>2010-01-01T02:41:17Z</time>
      </trkpt>
      <trkpt lat="44.2122" lon="6.14355">
        <ele>1445</ele>
        <time>2010-01-01T02:41:19Z</time>
      </trkpt>
      <trkpt lat="44.21215" lon="6.14357">
        <ele>1445</ele>
        <time>2010-01-01T02:41:20Z</time>
      </trkpt>
      <trkpt lat="44.21212" lon="6.14358">
        <ele>1445</ele>
        <time>2010-01-01T02:41:21Z</time>
      </trkpt>
      <trkpt lat="44.2121" lon="6.1436">
        <ele>1445</ele>
        <time>2010-01-01T02:41:21Z</time>
      </trkpt>
      <trkpt lat="44.21207" lon="6.14361">
        <ele>1445</ele>
        <time>2010-01-01T02:41:22Z</time>
      </trkpt>
      <trkpt lat="44.21204" lon="6.14363">
        <ele>1444</ele>
        <time>2010-01-01T02:41:23Z</time>
      </trkpt>
      <trkpt lat="44.21201" lon="6.14364">
        <ele>1444</ele>
        <time>2010-01-01T02:41:24Z</time>
      </trkpt>
      <trkpt lat="44.21198" lon="6.14364">
        <ele>1445</ele>
        <time>2010-01-01T02:41:25Z</time>
      </trkpt>
      <trkpt lat="44.21194" lon="6.14363">
        <ele>1446</ele>
        <time>2010-01-01T02:41:26Z</time>
      </trkpt>
      <trkpt lat="44.21195" lon="6.14367">
        <ele>1444</ele>
        <time>2010-01-01T02:41:26Z</time>
      </trkpt>
      <trkpt lat="44.21201" lon="6.14365">
        <ele>1444</ele>
        <time>2010-01-01T02:41:28Z</time>
      </trkpt>
      <trkpt lat="44.21206" lon="6.14362">
        <ele>1445</ele>
        <time>2010-01-01T02:41:29Z</time>
      </trkpt>
      <trkpt lat="44.2121" lon="6.14359">
        <ele>1445</ele>
        <time>2010-01-01T02:41:31Z</time>
      </trkpt>
      <trkpt lat="44.21213" lon="6.14355">
        <ele>1446</ele>
        <time>2010-01-01T02:41:32Z</time>
      </trkpt>
      <trkpt lat="44.21215" lon="6.14351">
        <ele>1447</ele>
        <time>2010-01-01T02:41:33Z</time>
      </trkpt>
      <trkpt lat="44.21217" lon="6.14348">
        <ele>1448</ele>
        <time>2010-01-01T02:41:33Z</time>
      </trkpt>
      <trkpt lat="44.21219" lon="6.14344">
        <ele>1450</ele>
        <time>2010-01-01T02:41:34Z</time>
      </trkpt>
      <trkpt lat="44.21221" lon="6.1434">
        <ele>1451</ele>
        <time>2010-01-01T02:41:35Z</time>
      </trkpt>
      <trkpt lat="44.21223" lon="6.14336">
        <ele>1452</ele>
        <time>2010-01-01T02:41:36Z</time>
      </trkpt>
      <trkpt lat="44.21225" lon="6.14332">
        <ele>1453</ele>
        <time>2010-01-01T02:41:37Z</time>
      </trkpt>
      <trkpt lat="44.21227" lon="6.14327">
        <ele>1454</ele>
        <time>2010-01-01T02:41:38Z</time>
      </trkpt>
      <trkpt lat="44.21229" lon="6.14323">
        <ele>1455</ele>
        <time>2010-01-01T02:41:39Z</time>
      </trkpt>
      <trkpt lat="44.21231" lon="6.14318">
        <ele>1456</ele>
        <time>2010-01-01T02:41:40Z</time>
      </trkpt>
      <trkpt lat="44.21233" lon="6.14314">
        <ele>1457</ele>
        <time>2010-01-01T02:41:41Z</time>
      </trkpt>
      <trkpt lat="44.21235" lon="6.1431">
        <ele>1458</ele>
        <time>2010-01-01T02:41:42Z</time>
      </trkpt>
      <trkpt lat="44.21237" lon="6.14307">
        <ele>1458</ele>
        <time>2010-01-01T02:41:43Z</time>
      </trkpt>
      <trkpt lat="44.21239" lon="6.14303">
        <ele>1458</ele>
        <time>2010-01-01T02:41:44Z</time>
      </trkpt>
      <trkpt lat="44.21242" lon="6.14299">
        <ele>1459</ele>
        <time>2010-01-01T02:41:45Z</time>
      </trkpt>
      <trkpt lat="44.21244" lon="6.14296">
        <ele>1459</ele>
        <time>2010-01-01T02:41:46Z</time>
      </trkpt>
      <trkpt lat="44.21246" lon="6.14294">
        <ele>1459</ele>
        <time>2010-01-01T02:41:46Z</time>
      </trkpt>
      <trkpt lat="44.21248" lon="6.1429">
        <ele>1459</ele>
        <time>2010-01-01T02:41:47Z</time>
      </trkpt>
      <trkpt lat="44.21251" lon="6.14286">
        <ele>1459</ele>
        <time>2010-01-01T02:41:48Z</time>
      </trkpt>
      <trkpt lat="44.21253" lon="6.14283">
        <ele>1460</ele>
        <time>2010-01-01T02:41:49Z</time>
      </trkpt>
      <trkpt lat="44.21255" lon="6.14278">
        <ele>1460</ele>
        <time>2010-01-01T02:41:50Z</time>
      </trkpt>
      <trkpt lat="44.21257" lon="6.14275">
        <ele>1459</ele>
        <time>2010-01-01T02:41:51Z</time>
      </trkpt>
      <trkpt lat="44.21259" lon="6.14271">
        <ele>1459</ele>
        <time>2010-01-01T02:41:52Z</time>
      </trkpt>
      <trkpt lat="44.21261" lon="6.14267">
        <ele>1460</ele>
        <time>2010-01-01T02:41:53Z</time>
      </trkpt>
      <trkpt lat="44.21263" lon="6.14264">
        <ele>1459</ele>
        <time>2010-01-01T02:41:54Z</time>
      </trkpt>
      <trkpt lat="44.21266" lon="6.14261">
        <ele>1459</ele>
        <time>2010-01-01T02:41:55Z</time>
      </trkpt>
      <trkpt lat="44.21267" lon="6.14258">
        <ele>1458</ele>
        <time>2010-01-01T02:41:55Z</time>
      </trkpt>
      <trkpt lat="44.21269" lon="6.14254">
        <ele>1459</ele>
        <time>2010-01-01T02:41:56Z</time>
      </trkpt>
      <trkpt lat="44.2127" lon="6.1425">
        <ele>1459</ele>
        <time>2010-01-01T02:41:57Z</time>
      </trkpt>
      <trkpt lat="44.21271" lon="6.14245">
        <ele>1459</ele>
        <time>2010-01-01T02:41:58Z</time>
      </trkpt>
      <trkpt lat="44.21273" lon="6.1424">
        <ele>1460</ele>
        <time>2010-01-01T02:41:59Z</time>
      </trkpt>
      <trkpt lat="44.21274" lon="6.14235">
        <ele>1460</ele>
        <time>2010-01-01T02:42:00Z</time>
      </trkpt>
      <trkpt lat="44.21276" lon="6.1423">
        <ele>1461</ele>
        <time>2010-01-01T02:42:01Z</time>
      </trkpt>
      <trkpt lat="44.21278" lon="6.14225">
        <ele>1461</ele>
        <time>2010-01-01T02:42:02Z</time>
      </trkpt>
      <trkpt lat="44.21279" lon="6.1422">
        <ele>1461</ele>
        <time>2010-01-01T02:42:03Z</time>
      </trkpt>
      <trkpt lat="44.2128" lon="6.14215">
        <ele>1462</ele>
        <time>2010-01-01T02:42:04Z</time>
      </trkpt>
      <trkpt lat="44.21282" lon="6.14211">
        <ele>1463</ele>
        <time>2010-01-01T02:42:05Z</time>
      </trkpt>
      <trkpt lat="44.21283" lon="6.14207">
        <ele>1463</ele>
        <time>2010-01-01T02:42:06Z</time>
      </trkpt>
      <trkpt lat="44.21284" lon="6.14204">
        <ele>1463</ele>
        <time>2010-01-01T02:42:07Z</time>
      </trkpt>
      <trkpt lat="44.21285" lon="6.14198">
        <ele>1464</ele>
        <time>2010-01-01T02:42:08Z</time>
      </trkpt>
      <trkpt lat="44.21286" lon="6.14194">
        <ele>1465</ele>
        <time>2010-01-01T02:42:09Z</time>
      </trkpt>
      <trkpt lat="44.21287" lon="6.1419">
        <ele>1465</ele>
        <time>2010-01-01T02:42:09Z</time>
      </trkpt>
      <trkpt lat="44.21288" lon="6.14185">
        <ele>1465</ele>
        <time>2010-01-01T02:42:10Z</time>
      </trkpt>
      <trkpt lat="44.21288" lon="6.14182">
        <ele>1466</ele>
        <time>2010-01-01T02:42:11Z</time>
      </trkpt>
      <trkpt lat="44.21289" lon="6.14177">
        <ele>1466</ele>
        <time>2010-01-01T02:42:12Z</time>
      </trkpt>
      <trkpt lat="44.21291" lon="6.14171">
        <ele>1467</ele>
        <time>2010-01-01T02:42:13Z</time>
      </trkpt>
      <trkpt lat="44.21291" lon="6.14167">
        <ele>1467</ele>
        <time>2010-01-01T02:42:14Z</time>
      </trkpt>
      <trkpt lat="44.21291" lon="6.14162">
        <ele>1468</ele>
        <time>2010-01-01T02:42:15Z</time>
      </trkpt>
      <trkpt lat="44.21291" lon="6.14157">
        <ele>1469</ele>
        <time>2010-01-01T02:42:16Z</time>
      </trkpt>
      <trkpt lat="44.21293" lon="6.14154">
        <ele>1469</ele>
        <time>2010-01-01T02:42:17Z</time>
      </trkpt>
      <trkpt lat="44.21294" lon="6.1415">
        <ele>1469</ele>
        <time>2010-01-01T02:42:17Z</time>
      </trkpt>
      <trkpt lat="44.21294" lon="6.14146">
        <ele>1470</ele>
        <time>2010-01-01T02:42:18Z</time>
      </trkpt>
      <trkpt lat="44.21295" lon="6.14141">
        <ele>1471</ele>
        <time>2010-01-01T02:42:19Z</time>
      </trkpt>
      <trkpt lat="44.21297" lon="6.14137">
        <ele>1471</ele>
        <time>2010-01-01T02:42:20Z</time>
      </trkpt>
      <trkpt lat="44.21299" lon="6.14133">
        <ele>1471</ele>
        <time>2010-01-01T02:42:21Z</time>
      </trkpt>
      <trkpt lat="44.213" lon="6.14129">
        <ele>1472</ele>
        <time>2010-01-01T02:42:22Z</time>
      </trkpt>
      <trkpt lat="44.21299" lon="6.14126">
        <ele>1473</ele>
        <time>2010-01-01T02:42:23Z</time>
      </trkpt>
      <trkpt lat="44.21298" lon="6.1413">
        <ele>1472</ele>
        <time>2010-01-01T02:42:23Z</time>
      </trkpt>
      <trkpt lat="44.21297" lon="6.14134">
        <ele>1472</ele>
        <time>2010-01-01T02:42:24Z</time>
      </trkpt>
      <trkpt lat="44.21295" lon="6.14138">
        <ele>1471</ele>
        <time>2010-01-01T02:42:25Z</time>
      </trkpt>
      <trkpt lat="44.21293" lon="6.14141">
        <ele>1471</ele>
        <time>2010-01-01T02:42:26Z</time>
      </trkpt>
      <trkpt lat="44.2129" lon="6.14145">
        <ele>1472</ele>
        <time>2010-01-01T02:42:27Z</time>
      </trkpt>
      <trkpt lat="44.21288" lon="6.14148">
        <ele>1472</ele>
        <time>2010-01-01T02:42:28Z</time>
      </trkpt>
      <trkpt lat="44.21285" lon="6.14151">
        <ele>1473</ele>
        <time>2010-01-01T02:42:29Z</time>
      </trkpt>
      <trkpt lat="44.21284" lon="6.14155">
        <ele>1473</ele>
        <time>2010-01-01T02:42:29Z</time>
      </trkpt>
      <trkpt lat="44.21282" lon="6.14158">
        <ele>1473</ele>
        <time>2010-01-01T02:42:30Z</time>
      </trkpt>
      <trkpt lat="44.21281" lon="6.14162">
        <ele>1473</ele>
        <time>2010-01-01T02:42:31Z</time>
      </trkpt>
      <trkpt lat="44.21279" lon="6.14165">
        <ele>1473</ele>
        <time>2010-01-01T02:42:32Z</time>
      </trkpt>
      <trkpt lat="44.21278" lon="6.14169">
        <ele>1473</ele>
        <time>2010-01-01T02:42:33Z</time>
      </trkpt>
      <trkpt lat="44.21275" lon="6.14172">
        <ele>1474</ele>
        <time>2010-01-01T02:42:34Z</time>
      </trkpt>
      <trkpt lat="44.21274" lon="6.14175">
        <ele>1474</ele>
        <time>2010-01-01T02:42:34Z</time>
      </trkpt>
      <trkpt lat="44.21271" lon="6.14178">
        <ele>1474</ele>
        <time>2010-01-01T02:42:35Z</time>
      </trkpt>
      <trkpt lat="44.21269" lon="6.14181">
        <ele>1475</ele>
        <time>2010-01-01T02:42:36Z</time>
      </trkpt>
      <trkpt lat="44.21266" lon="6.14183">
        <ele>1475</ele>
        <time>2010-01-01T02:42:37Z</time>
      </trkpt>
      <trkpt lat="44.21264" lon="6.14186">
        <ele>1476</ele>
        <time>2010-01-01T02:42:38Z</time>
      </trkpt>
      <trkpt lat="44.21261" lon="6.14189">
        <ele>1476</ele>
        <time>2010-01-01T02:42:39Z</time>
      </trkpt>
      <trkpt lat="44.21258" lon="6.14192">
        <ele>1477</ele>
        <time>2010-01-01T02:42:40Z</time>
      </trkpt>
      <trkpt lat="44.21256" lon="6.14195">
        <ele>1477</ele>
        <time>2010-01-01T02:42:40Z</time>
      </trkpt>
      <trkpt lat="44.21253" lon="6.14197">
        <ele>1478</ele>
        <time>2010-01-01T02:42:41Z</time>
      </trkpt>
      <trkpt lat="44.2125" lon="6.14199">
        <ele>1479</ele>
        <time>2010-01-01T02:42:42Z</time>
      </trkpt>
      <trkpt lat="44.21248" lon="6.14201">
        <ele>1480</ele>
        <time>2010-01-01T02:42:43Z</time>
      </trkpt>
      <trkpt lat="44.21245" lon="6.14204">
        <ele>1480</ele>
        <time>2010-01-01T02:42:44Z</time>
      </trkpt>
      <trkpt lat="44.21242" lon="6.14207">
        <ele>1481</ele>
        <time>2010-01-01T02:42:45Z</time>
      </trkpt>
      <trkpt lat="44.2124" lon="6.14209">
        <ele>1481</ele>
        <time>2010-01-01T02:42:45Z</time>
      </trkpt>
      <trkpt lat="44.21237" lon="6.14211">
        <ele>1482</ele>
        <time>2010-01-01T02:42:46Z</time>
      </trkpt>
      <trkpt lat="44.21234" lon="6.14213">
        <ele>1483</ele>
        <time>2010-01-01T02:42:47Z</time>
      </trkpt>
      <trkpt lat="44.21232" lon="6.14215">
        <ele>1483</ele>
        <time>2010-01-01T02:42:48Z</time>
      </trkpt>
      <trkpt lat="44.21229" lon="6.14217">
        <ele>1484</ele>
        <time>2010-01-01T02:42:49Z</time>
      </trkpt>
      <trkpt lat="44.21226" lon="6.14219">
        <ele>1485</ele>
        <time>2010-01-01T02:42:50Z</time>
      </trkpt>
      <trkpt lat="44.21223" lon="6.14221">
        <ele>1486</ele>
        <time>2010-01-01T02:42:51Z</time>
      </trkpt>
      <trkpt lat="44.2122" lon="6.14223">
        <ele>1486</ele>
        <time>2010-01-01T02:42:51Z</time>
      </trkpt>
      <trkpt lat="44.21217" lon="6.14225">
        <ele>1486</ele>
        <time>2010-01-01T02:42:52Z</time>
      </trkpt>
      <trkpt lat="44.21214" lon="6.14227">
        <ele>1487</ele>
        <time>2010-01-01T02:42:53Z</time>
      </trkpt>
      <trkpt lat="44.21211" lon="6.14229">
        <ele>1487</ele>
        <time>2010-01-01T02:42:54Z</time>
      </trkpt>
      <trkpt lat="44.21208" lon="6.14232">
        <ele>1488</ele>
        <time>2010-01-01T02:42:55Z</time>
      </trkpt>
      <trkpt lat="44.21205" lon="6.14235">
        <ele>1488</ele>
        <time>2010-01-01T02:42:56Z</time>
      </trkpt>
      <trkpt lat="44.21202" lon="6.14237">
        <ele>1488</ele>
        <time>2010-01-01T02:42:57Z</time>
      </trkpt>
      <trkpt lat="44.21199" lon="6.14239">
        <ele>1489</ele>
        <time>2010-01-01T02:42:58Z</time>
      </trkpt>
      <trkpt lat="44.21196" lon="6.1424">
        <ele>1489</ele>
        <time>2010-01-01T02:42:59Z</time>
      </trkpt>
      <trkpt lat="44.21193" lon="6.14241">
        <ele>1490</ele>
        <time>2010-01-01T02:42:59Z</time>
      </trkpt>
      <trkpt lat="44.2119" lon="6.14243">
        <ele>1490</ele>
        <time>2010-01-01T02:43:00Z</time>
      </trkpt>
      <trkpt lat="44.21187" lon="6.14244">
        <ele>1490</ele>
        <time>2010-01-01T02:43:01Z</time>
      </trkpt>
      <trkpt lat="44.21184" lon="6.14245">
        <ele>1490</ele>
        <time>2010-01-01T02:43:02Z</time>
      </trkpt>
      <trkpt lat="44.21181" lon="6.14245">
        <ele>1491</ele>
        <time>2010-01-01T02:43:03Z</time>
      </trkpt>
      <trkpt lat="44.21178" lon="6.14246">
        <ele>1491</ele>
        <time>2010-01-01T02:43:03Z</time>
      </trkpt>
      <trkpt lat="44.21176" lon="6.14248">
        <ele>1491</ele>
        <time>2010-01-01T02:43:04Z</time>
      </trkpt>
      <trkpt lat="44.21173" lon="6.1425">
        <ele>1492</ele>
        <time>2010-01-01T02:43:05Z</time>
      </trkpt>
      <trkpt lat="44.2117" lon="6.14251">
        <ele>1492</ele>
        <time>2010-01-01T02:43:06Z</time>
      </trkpt>
      <trkpt lat="44.21167" lon="6.14252">
        <ele>1492</ele>
        <time>2010-01-01T02:43:07Z</time>
      </trkpt>
      <trkpt lat="44.21163" lon="6.14252">
        <ele>1492</ele>
        <time>2010-01-01T02:43:08Z</time>
      </trkpt>
      <trkpt lat="44.2116" lon="6.14252">
        <ele>1493</ele>
        <time>2010-01-01T02:43:09Z</time>
      </trkpt>
      <trkpt lat="44.21157" lon="6.14251">
        <ele>1493</ele>
        <time>2010-01-01T02:43:09Z</time>
      </trkpt>
      <trkpt lat="44.21153" lon="6.14252">
        <ele>1494</ele>
        <time>2010-01-01T02:43:10Z</time>
      </trkpt>
      <trkpt lat="44.2115" lon="6.14253">
        <ele>1494</ele>
        <time>2010-01-01T02:43:11Z</time>
      </trkpt>
      <trkpt lat="44.21148" lon="6.14254">
        <ele>1494</ele>
        <time>2010-01-01T02:43:12Z</time>
      </trkpt>
      <trkpt lat="44.21145" lon="6.14254">
        <ele>1494</ele>
        <time>2010-01-01T02:43:13Z</time>
      </trkpt>
      <trkpt lat="44.21142" lon="6.14254">
        <ele>1495</ele>
        <time>2010-01-01T02:43:13Z</time>
      </trkpt>
      <trkpt lat="44.21138" lon="6.14254">
        <ele>1495</ele>
        <time>2010-01-01T02:43:14Z</time>
      </trkpt>
      <trkpt lat="44.21134" lon="6.14254">
        <ele>1495</ele>
        <time>2010-01-01T02:43:15Z</time>
      </trkpt>
      <trkpt lat="44.21131" lon="6.14252">
        <ele>1496</ele>
        <time>2010-01-01T02:43:16Z</time>
      </trkpt>
      <trkpt lat="44.21127" lon="6.14253">
        <ele>1496</ele>
        <time>2010-01-01T02:43:17Z</time>
      </trkpt>
      <trkpt lat="44.21128" lon="6.14248">
        <ele>1497</ele>
        <time>2010-01-01T02:43:18Z</time>
      </trkpt>
      <trkpt lat="44.2113" lon="6.14246">
        <ele>1498</ele>
        <time>2010-01-01T02:43:19Z</time>
      </trkpt>
      <trkpt lat="44.21133" lon="6.14243">
        <ele>1498</ele>
        <time>2010-01-01T02:43:20Z</time>
      </trkpt>
      <trkpt lat="44.21136" lon="6.14241">
        <ele>1499</ele>
        <time>2010-01-01T02:43:21Z</time>
      </trkpt>
      <trkpt lat="44.21139" lon="6.14237">
        <ele>1500</ele>
        <time>2010-01-01T02:43:22Z</time>
      </trkpt>
      <trkpt lat="44.21142" lon="6.14234">
        <ele>1500</ele>
        <time>2010-01-01T02:43:23Z</time>
      </trkpt>
      <trkpt lat="44.21145" lon="6.14231">
        <ele>1500</ele>
        <time>2010-01-01T02:43:24Z</time>
      </trkpt>
      <trkpt lat="44.21147" lon="6.14228">
        <ele>1501</ele>
        <time>2010-01-01T02:43:25Z</time>
      </trkpt>
      <trkpt lat="44.2115" lon="6.14226">
        <ele>1501</ele>
        <time>2010-01-01T02:43:26Z</time>
      </trkpt>
      <trkpt lat="44.21152" lon="6.14223">
        <ele>1501</ele>
        <time>2010-01-01T02:43:26Z</time>
      </trkpt>
      <trkpt lat="44.21155" lon="6.1422">
        <ele>1502</ele>
        <time>2010-01-01T02:43:27Z</time>
      </trkpt>
      <trkpt lat="44.21157" lon="6.14218">
        <ele>1502</ele>
        <time>2010-01-01T02:43:28Z</time>
      </trkpt>
      <trkpt lat="44.2116" lon="6.14215">
        <ele>1503</ele>
        <time>2010-01-01T02:43:29Z</time>
      </trkpt>
      <trkpt lat="44.21162" lon="6.14211">
        <ele>1503</ele>
        <time>2010-01-01T02:43:30Z</time>
      </trkpt>
      <trkpt lat="44.21165" lon="6.14208">
        <ele>1504</ele>
        <time>2010-01-01T02:43:31Z</time>
      </trkpt>
      <trkpt lat="44.21167" lon="6.14205">
        <ele>1504</ele>
        <time>2010-01-01T02:43:32Z</time>
      </trkpt>
      <trkpt lat="44.2117" lon="6.14201">
        <ele>1504</ele>
        <time>2010-01-01T02:43:33Z</time>
      </trkpt>
      <trkpt lat="44.21172" lon="6.14198">
        <ele>1504</ele>
        <time>2010-01-01T02:43:34Z</time>
      </trkpt>
      <trkpt lat="44.21174" lon="6.14195">
        <ele>1504</ele>
        <time>2010-01-01T02:43:34Z</time>
      </trkpt>
      <trkpt lat="44.21176" lon="6.14191">
        <ele>1505</ele>
        <time>2010-01-01T02:43:35Z</time>
      </trkpt>
      <trkpt lat="44.21178" lon="6.14189">
        <ele>1505</ele>
        <time>2010-01-01T02:43:36Z</time>
      </trkpt>
      <trkpt lat="44.2118" lon="6.14185">
        <ele>1505</ele>
        <time>2010-01-01T02:43:37Z</time>
      </trkpt>
      <trkpt lat="44.21183" lon="6.1418">
        <ele>1506</ele>
        <time>2010-01-01T02:43:38Z</time>
      </trkpt>
      <trkpt lat="44.21185" lon="6.14176">
        <ele>1507</ele>
        <time>2010-01-01T02:43:39Z</time>
      </trkpt>
      <trkpt lat="44.21188" lon="6.14173">
        <ele>1507</ele>
        <time>2010-01-01T02:43:40Z</time>
      </trkpt>
      <trkpt lat="44.21191" lon="6.14168">
        <ele>1507</ele>
        <time>2010-01-01T02:43:41Z</time>
      </trkpt>
      <trkpt lat="44.21193" lon="6.14165">
        <ele>1508</ele>
        <time>2010-01-01T02:43:42Z</time>
      </trkpt>
      <trkpt lat="44.21195" lon="6.14161">
        <ele>1508</ele>
        <time>2010-01-01T02:43:43Z</time>
      </trkpt>
      <trkpt lat="44.21197" lon="6.14156">
        <ele>1509</ele>
        <time>2010-01-01T02:43:44Z</time>
      </trkpt>
      <trkpt lat="44.21198" lon="6.14153">
        <ele>1509</ele>
        <time>2010-01-01T02:43:45Z</time>
      </trkpt>
      <trkpt lat="44.212" lon="6.14148">
        <ele>1509</ele>
        <time>2010-01-01T02:43:46Z</time>
      </trkpt>
      <trkpt lat="44.21202" lon="6.14144">
        <ele>1509</ele>
        <time>2010-01-01T02:43:47Z</time>
      </trkpt>
      <trkpt lat="44.21205" lon="6.14139">
        <ele>1510</ele>
        <time>2010-01-01T02:43:48Z</time>
      </trkpt>
      <trkpt lat="44.21206" lon="6.14135">
        <ele>1510</ele>
        <time>2010-01-01T02:43:49Z</time>
      </trkpt>
      <trkpt lat="44.21208" lon="6.14131">
        <ele>1510</ele>
        <time>2010-01-01T02:43:50Z</time>
      </trkpt>
      <trkpt lat="44.21209" lon="6.14127">
        <ele>1510</ele>
        <time>2010-01-01T02:43:50Z</time>
      </trkpt>
      <trkpt lat="44.21211" lon="6.14123">
        <ele>1510</ele>
        <time>2010-01-01T02:43:51Z</time>
      </trkpt>
      <trkpt lat="44.21212" lon="6.14119">
        <ele>1510</ele>
        <time>2010-01-01T02:43:52Z</time>
      </trkpt>
      <trkpt lat="44.21214" lon="6.14116">
        <ele>1510</ele>
        <time>2010-01-01T02:43:53Z</time>
      </trkpt>
      <trkpt lat="44.21216" lon="6.14113">
        <ele>1510</ele>
        <time>2010-01-01T02:43:54Z</time>
      </trkpt>
      <trkpt lat="44.21218" lon="6.14109">
        <ele>1510</ele>
        <time>2010-01-01T02:43:55Z</time>
      </trkpt>
      <trkpt lat="44.21219" lon="6.14106">
        <ele>1510</ele>
        <time>2010-01-01T02:43:55Z</time>
      </trkpt>
      <trkpt lat="44.2122" lon="6.141">
        <ele>1511</ele>
        <time>2010-01-01T02:43:56Z</time>
      </trkpt>
      <trkpt lat="44.21221" lon="6.14096">
        <ele>1511</ele>
        <time>2010-01-01T02:43:57Z</time>
      </trkpt>
      <trkpt lat="44.21223" lon="6.1409">
        <ele>1512</ele>
        <time>2010-01-01T02:43:58Z</time>
      </trkpt>
      <trkpt lat="44.21223" lon="6.14087">
        <ele>1512</ele>
        <time>2010-01-01T02:43:59Z</time>
      </trkpt>
      <trkpt lat="44.21225" lon="6.14083">
        <ele>1512</ele>
        <time>2010-01-01T02:44:00Z</time>
      </trkpt>
      <trkpt lat="44.21227" lon="6.14079">
        <ele>1512</ele>
        <time>2010-01-01T02:44:01Z</time>
      </trkpt>
      <trkpt lat="44.21229" lon="6.14075">
        <ele>1512</ele>
        <time>2010-01-01T02:44:02Z</time>
      </trkpt>
      <trkpt lat="44.2123" lon="6.14071">
        <ele>1513</ele>
        <time>2010-01-01T02:44:03Z</time>
      </trkpt>
      <trkpt lat="44.21232" lon="6.14066">
        <ele>1513</ele>
        <time>2010-01-01T02:44:04Z</time>
      </trkpt>
      <trkpt lat="44.21232" lon="6.14062">
        <ele>1514</ele>
        <time>2010-01-01T02:44:05Z</time>
      </trkpt>
      <trkpt lat="44.21233" lon="6.14058">
        <ele>1514</ele>
        <time>2010-01-01T02:44:05Z</time>
      </trkpt>
      <trkpt lat="44.21234" lon="6.14054">
        <ele>1515</ele>
        <time>2010-01-01T02:44:06Z</time>
      </trkpt>
      <trkpt lat="44.21235" lon="6.14049">
        <ele>1516</ele>
        <time>2010-01-01T02:44:07Z</time>
      </trkpt>
      <trkpt lat="44.21236" lon="6.14045">
        <ele>1516</ele>
        <time>2010-01-01T02:44:08Z</time>
      </trkpt>
      <trkpt lat="44.21237" lon="6.14041">
        <ele>1517</ele>
        <time>2010-01-01T02:44:09Z</time>
      </trkpt>
      <trkpt lat="44.21237" lon="6.14036">
        <ele>1518</ele>
        <time>2010-01-01T02:44:10Z</time>
      </trkpt>
      <trkpt lat="44.21237" lon="6.14032">
        <ele>1519</ele>
        <time>2010-01-01T02:44:10Z</time>
      </trkpt>
      <trkpt lat="44.21237" lon="6.14028">
        <ele>1520</ele>
        <time>2010-01-01T02:44:11Z</time>
      </trkpt>
      <trkpt lat="44.21236" lon="6.14024">
        <ele>1521</ele>
        <time>2010-01-01T02:44:12Z</time>
      </trkpt>
      <trkpt lat="44.21237" lon="6.14019">
        <ele>1523</ele>
        <time>2010-01-01T02:44:13Z</time>
      </trkpt>
      <trkpt lat="44.21237" lon="6.14013">
        <ele>1525</ele>
        <time>2010-01-01T02:44:14Z</time>
      </trkpt>
      <trkpt lat="44.21237" lon="6.14009">
        <ele>1525</ele>
        <time>2010-01-01T02:44:15Z</time>
      </trkpt>
      <trkpt lat="44.2124" lon="6.14006">
        <ele>1526</ele>
        <time>2010-01-01T02:44:16Z</time>
      </trkpt>
      <trkpt lat="44.21242" lon="6.14004">
        <ele>1525</ele>
        <time>2010-01-01T02:44:17Z</time>
      </trkpt>
      <trkpt lat="44.21245" lon="6.14002">
        <ele>1525</ele>
        <time>2010-01-01T02:44:17Z</time>
      </trkpt>
      <trkpt lat="44.21247" lon="6.14">
        <ele>1525</ele>
        <time>2010-01-01T02:44:18Z</time>
      </trkpt>
      <trkpt lat="44.2125" lon="6.13997">
        <ele>1525</ele>
        <time>2010-01-01T02:44:19Z</time>
      </trkpt>
      <trkpt lat="44.21253" lon="6.13995">
        <ele>1525</ele>
        <time>2010-01-01T02:44:20Z</time>
      </trkpt>
      <trkpt lat="44.21256" lon="6.13992">
        <ele>1525</ele>
        <time>2010-01-01T02:44:21Z</time>
      </trkpt>
      <trkpt lat="44.21259" lon="6.1399">
        <ele>1526</ele>
        <time>2010-01-01T02:44:22Z</time>
      </trkpt>
      <trkpt lat="44.21261" lon="6.13987">
        <ele>1526</ele>
        <time>2010-01-01T02:44:23Z</time>
      </trkpt>
      <trkpt lat="44.21264" lon="6.13984">
        <ele>1527</ele>
        <time>2010-01-01T02:44:23Z</time>
      </trkpt>
      <trkpt lat="44.21266" lon="6.13981">
        <ele>1527</ele>
        <time>2010-01-01T02:44:24Z</time>
      </trkpt>
      <trkpt lat="44.21268" lon="6.13978">
        <ele>1528</ele>
        <time>2010-01-01T02:44:25Z</time>
      </trkpt>
      <trkpt lat="44.2127" lon="6.13975">
        <ele>1529</ele>
        <time>2010-01-01T02:44:26Z</time>
      </trkpt>
      <trkpt lat="44.21272" lon="6.13973">
        <ele>1529</ele>
        <time>2010-01-01T02:44:27Z</time>
      </trkpt>
      <trkpt lat="44.21275" lon="6.13971">
        <ele>1529</ele>
        <time>2010-01-01T02:44:27Z</time>
      </trkpt>
      <trkpt lat="44.21278" lon="6.13967">
        <ele>1529</ele>
        <time>2010-01-01T02:44:28Z</time>
      </trkpt>
      <trkpt lat="44.2128" lon="6.13964">
        <ele>1529</ele>
        <time>2010-01-01T02:44:29Z</time>
      </trkpt>
      <trkpt lat="44.21283" lon="6.13961">
        <ele>1529</ele>
        <time>2010-01-01T02:44:30Z</time>
      </trkpt>
      <trkpt lat="44.21286" lon="6.13957">
        <ele>1529</ele>
        <time>2010-01-01T02:44:31Z</time>
      </trkpt>
      <trkpt lat="44.21288" lon="6.13955">
        <ele>1529</ele>
        <time>2010-01-01T02:44:32Z</time>
      </trkpt>
      <trkpt lat="44.21291" lon="6.13952">
        <ele>1529</ele>
        <time>2010-01-01T02:44:33Z</time>
      </trkpt>
      <trkpt lat="44.21294" lon="6.13949">
        <ele>1528</ele>
        <time>2010-01-01T02:44:34Z</time>
      </trkpt>
      <trkpt lat="44.21297" lon="6.13945">
        <ele>1529</ele>
        <time>2010-01-01T02:44:35Z</time>
      </trkpt>
      <trkpt lat="44.21299" lon="6.13941">
        <ele>1529</ele>
        <time>2010-01-01T02:44:36Z</time>
      </trkpt>
      <trkpt lat="44.213" lon="6.13937">
        <ele>1529</ele>
        <time>2010-01-01T02:44:37Z</time>
      </trkpt>
      <trkpt lat="44.21303" lon="6.13933">
        <ele>1529</ele>
        <time>2010-01-01T02:44:38Z</time>
      </trkpt>
      <trkpt lat="44.21303" lon="6.13929">
        <ele>1529</ele>
        <time>2010-01-01T02:44:39Z</time>
      </trkpt>
      <trkpt lat="44.21303" lon="6.13925">
        <ele>1529</ele>
        <time>2010-01-01T02:44:39Z</time>
      </trkpt>
      <trkpt lat="44.21306" lon="6.13922">
        <ele>1529</ele>
        <time>2010-01-01T02:44:40Z</time>
      </trkpt>
      <trkpt lat="44.21306" lon="6.13918">
        <ele>1529</ele>
        <time>2010-01-01T02:44:41Z</time>
      </trkpt>
      <trkpt lat="44.21306" lon="6.13913">
        <ele>1529</ele>
        <time>2010-01-01T02:44:42Z</time>
      </trkpt>
      <trkpt lat="44.21305" lon="6.13909">
        <ele>1530</ele>
        <time>2010-01-01T02:44:43Z</time>
      </trkpt>
      <trkpt lat="44.21305" lon="6.13905">
        <ele>1530</ele>
        <time>2010-01-01T02:44:43Z</time>
      </trkpt>
      <trkpt lat="44.21304" lon="6.13901">
        <ele>1530</ele>
        <time>2010-01-01T02:44:44Z</time>
      </trkpt>
      <trkpt lat="44.21303" lon="6.13898">
        <ele>1531</ele>
        <time>2010-01-01T02:44:45Z</time>
      </trkpt>
      <trkpt lat="44.21302" lon="6.13894">
        <ele>1531</ele>
        <time>2010-01-01T02:44:46Z</time>
      </trkpt>
      <trkpt lat="44.21301" lon="6.13889">
        <ele>1532</ele>
        <time>2010-01-01T02:44:47Z</time>
      </trkpt>
      <trkpt lat="44.21299" lon="6.13884">
        <ele>1532</ele>
        <time>2010-01-01T02:44:48Z</time>
      </trkpt>
      <trkpt lat="44.21296" lon="6.13879">
        <ele>1533</ele>
        <time>2010-01-01T02:44:49Z</time>
      </trkpt>
      <trkpt lat="44.21294" lon="6.13876">
        <ele>1534</ele>
        <time>2010-01-01T02:44:50Z</time>
      </trkpt>
      <trkpt lat="44.21293" lon="6.13872">
        <ele>1534</ele>
        <time>2010-01-01T02:44:51Z</time>
      </trkpt>
      <trkpt lat="44.21291" lon="6.13867">
        <ele>1535</ele>
        <time>2010-01-01T02:44:52Z</time>
      </trkpt>
      <trkpt lat="44.21291" lon="6.13864">
        <ele>1535</ele>
        <time>2010-01-01T02:44:52Z</time>
      </trkpt>
      <trkpt lat="44.21291" lon="6.13859">
        <ele>1535</ele>
        <time>2010-01-01T02:44:53Z</time>
      </trkpt>
      <trkpt lat="44.21291" lon="6.13865">
        <ele>1535</ele>
        <time>2010-01-01T02:44:54Z</time>
      </trkpt>
      <trkpt lat="44.21295" lon="6.13873">
        <ele>1533</ele>
        <time>2010-01-01T02:44:56Z</time>
      </trkpt>
      <trkpt lat="44.21296" lon="6.13877">
        <ele>1533</ele>
        <time>2010-01-01T02:44:57Z</time>
      </trkpt>
      <trkpt lat="44.21297" lon="6.13882">
        <ele>1533</ele>
        <time>2010-01-01T02:44:58Z</time>
      </trkpt>
      <trkpt lat="44.21297" lon="6.13887">
        <ele>1534</ele>
        <time>2010-01-01T02:44:59Z</time>
      </trkpt>
      <trkpt lat="44.21297" lon="6.13891">
        <ele>1534</ele>
        <time>2010-01-01T02:45:00Z</time>
      </trkpt>
      <trkpt lat="44.21296" lon="6.13895">
        <ele>1534</ele>
        <time>2010-01-01T02:45:01Z</time>
      </trkpt>
      <trkpt lat="44.21294" lon="6.139">
        <ele>1534</ele>
        <time>2010-01-01T02:45:02Z</time>
      </trkpt>
      <trkpt lat="44.21293" lon="6.13904">
        <ele>1534</ele>
        <time>2010-01-01T02:45:02Z</time>
      </trkpt>
      <trkpt lat="44.21292" lon="6.13908">
        <ele>1535</ele>
        <time>2010-01-01T02:45:03Z</time>
      </trkpt>
      <trkpt lat="44.2129" lon="6.13911">
        <ele>1535</ele>
        <time>2010-01-01T02:45:04Z</time>
      </trkpt>
      <trkpt lat="44.21287" lon="6.13913">
        <ele>1536</ele>
        <time>2010-01-01T02:45:05Z</time>
      </trkpt>
      <trkpt lat="44.21285" lon="6.13916">
        <ele>1536</ele>
        <time>2010-01-01T02:45:06Z</time>
      </trkpt>
      <trkpt lat="44.21282" lon="6.13919">
        <ele>1537</ele>
        <time>2010-01-01T02:45:07Z</time>
      </trkpt>
      <trkpt lat="44.2128" lon="6.13922">
        <ele>1537</ele>
        <time>2010-01-01T02:45:07Z</time>
      </trkpt>
      <trkpt lat="44.21277" lon="6.13924">
        <ele>1537</ele>
        <time>2010-01-01T02:45:08Z</time>
      </trkpt>
      <trkpt lat="44.21274" lon="6.13927">
        <ele>1538</ele>
        <time>2010-01-01T02:45:09Z</time>
      </trkpt>
      <trkpt lat="44.21271" lon="6.13928">
        <ele>1538</ele>
        <time>2010-01-01T02:45:10Z</time>
      </trkpt>
      <trkpt lat="44.21268" lon="6.13929">
        <ele>1539</ele>
        <time>2010-01-01T02:45:11Z</time>
      </trkpt>
      <trkpt lat="44.21264" lon="6.1393">
        <ele>1539</ele>
        <time>2010-01-01T02:45:12Z</time>
      </trkpt>
      <trkpt lat="44.21261" lon="6.13931">
        <ele>1540</ele>
        <time>2010-01-01T02:45:13Z</time>
      </trkpt>
      <trkpt lat="44.21258" lon="6.13932">
        <ele>1541</ele>
        <time>2010-01-01T02:45:14Z</time>
      </trkpt>
      <trkpt lat="44.21255" lon="6.13934">
        <ele>1541</ele>
        <time>2010-01-01T02:45:14Z</time>
      </trkpt>
      <trkpt lat="44.21252" lon="6.13934">
        <ele>1542</ele>
        <time>2010-01-01T02:45:15Z</time>
      </trkpt>
      <trkpt lat="44.21249" lon="6.13935">
        <ele>1542</ele>
        <time>2010-01-01T02:45:16Z</time>
      </trkpt>
      <trkpt lat="44.21245" lon="6.13936">
        <ele>1543</ele>
        <time>2010-01-01T02:45:17Z</time>
      </trkpt>
      <trkpt lat="44.21242" lon="6.13937">
        <ele>1544</ele>
        <time>2010-01-01T02:45:18Z</time>
      </trkpt>
      <trkpt lat="44.21239" lon="6.13938">
        <ele>1544</ele>
        <time>2010-01-01T02:45:19Z</time>
      </trkpt>
      <trkpt lat="44.21235" lon="6.13939">
        <ele>1545</ele>
        <time>2010-01-01T02:45:20Z</time>
      </trkpt>
      <trkpt lat="44.21231" lon="6.1394">
        <ele>1546</ele>
        <time>2010-01-01T02:45:21Z</time>
      </trkpt>
      <trkpt lat="44.21229" lon="6.13941">
        <ele>1547</ele>
        <time>2010-01-01T02:45:22Z</time>
      </trkpt>
      <trkpt lat="44.21226" lon="6.13942">
        <ele>1547</ele>
        <time>2010-01-01T02:45:22Z</time>
      </trkpt>
      <trkpt lat="44.21223" lon="6.13943">
        <ele>1548</ele>
        <time>2010-01-01T02:45:23Z</time>
      </trkpt>
      <trkpt lat="44.21219" lon="6.13944">
        <ele>1549</ele>
        <time>2010-01-01T02:45:24Z</time>
      </trkpt>
      <trkpt lat="44.21216" lon="6.13945">
        <ele>1549</ele>
        <time>2010-01-01T02:45:25Z</time>
      </trkpt>
      <trkpt lat="44.21212" lon="6.13948">
        <ele>1550</ele>
        <time>2010-01-01T02:45:26Z</time>
      </trkpt>
      <trkpt lat="44.21208" lon="6.13951">
        <ele>1550</ele>
        <time>2010-01-01T02:45:28Z</time>
      </trkpt>
      <trkpt lat="44.21205" lon="6.13956">
        <ele>1550</ele>
        <time>2010-01-01T02:45:29Z</time>
      </trkpt>
      <trkpt lat="44.21204" lon="6.13961">
        <ele>1549</ele>
        <time>2010-01-01T02:45:30Z</time>
      </trkpt>
      <trkpt lat="44.21203" lon="6.13966">
        <ele>1548</ele>
        <time>2010-01-01T02:45:31Z</time>
      </trkpt>
      <trkpt lat="44.21202" lon="6.13971">
        <ele>1547</ele>
        <time>2010-01-01T02:45:32Z</time>
      </trkpt>
      <trkpt lat="44.212" lon="6.13975">
        <ele>1547</ele>
        <time>2010-01-01T02:45:33Z</time>
      </trkpt>
      <trkpt lat="44.21198" lon="6.1398">
        <ele>1547</ele>
        <time>2010-01-01T02:45:34Z</time>
      </trkpt>
      <trkpt lat="44.21196" lon="6.13984">
        <ele>1547</ele>
        <time>2010-01-01T02:45:35Z</time>
      </trkpt>
      <trkpt lat="44.21193" lon="6.13987">
        <ele>1547</ele>
        <time>2010-01-01T02:45:36Z</time>
      </trkpt>
      <trkpt lat="44.21191" lon="6.13991">
        <ele>1548</ele>
        <time>2010-01-01T02:45:36Z</time>
      </trkpt>
      <trkpt lat="44.21189" lon="6.13994">
        <ele>1548</ele>
        <time>2010-01-01T02:45:37Z</time>
      </trkpt>
      <trkpt lat="44.21187" lon="6.13997">
        <ele>1548</ele>
        <time>2010-01-01T02:45:38Z</time>
      </trkpt>
      <trkpt lat="44.21185" lon="6.14">
        <ele>1548</ele>
        <time>2010-01-01T02:45:39Z</time>
      </trkpt>
      <trkpt lat="44.21183" lon="6.14003">
        <ele>1549</ele>
        <time>2010-01-01T02:45:40Z</time>
      </trkpt>
      <trkpt lat="44.21181" lon="6.14006">
        <ele>1549</ele>
        <time>2010-01-01T02:45:41Z</time>
      </trkpt>
      <trkpt lat="44.21178" lon="6.14009">
        <ele>1549</ele>
        <time>2010-01-01T02:45:42Z</time>
      </trkpt>
      <trkpt lat="44.21175" lon="6.14012">
        <ele>1550</ele>
        <time>2010-01-01T02:45:42Z</time>
      </trkpt>
      <trkpt lat="44.21172" lon="6.14014">
        <ele>1550</ele>
        <time>2010-01-01T02:45:43Z</time>
      </trkpt>
      <trkpt lat="44.21169" lon="6.14017">
        <ele>1551</ele>
        <time>2010-01-01T02:45:44Z</time>
      </trkpt>
      <trkpt lat="44.21167" lon="6.1402">
        <ele>1551</ele>
        <time>2010-01-01T02:45:45Z</time>
      </trkpt>
      <trkpt lat="44.21165" lon="6.14022">
        <ele>1551</ele>
        <time>2010-01-01T02:45:46Z</time>
      </trkpt>
      <trkpt lat="44.21161" lon="6.14026">
        <ele>1552</ele>
        <time>2010-01-01T02:45:47Z</time>
      </trkpt>
      <trkpt lat="44.21159" lon="6.14028">
        <ele>1552</ele>
        <time>2010-01-01T02:45:48Z</time>
      </trkpt>
      <trkpt lat="44.21156" lon="6.14029">
        <ele>1552</ele>
        <time>2010-01-01T02:45:49Z</time>
      </trkpt>
      <trkpt lat="44.21153" lon="6.14032">
        <ele>1553</ele>
        <time>2010-01-01T02:45:50Z</time>
      </trkpt>
      <trkpt lat="44.2115" lon="6.14033">
        <ele>1554</ele>
        <time>2010-01-01T02:45:50Z</time>
      </trkpt>
      <trkpt lat="44.21146" lon="6.14036">
        <ele>1554</ele>
        <time>2010-01-01T02:45:51Z</time>
      </trkpt>
      <trkpt lat="44.21143" lon="6.14038">
        <ele>1555</ele>
        <time>2010-01-01T02:45:52Z</time>
      </trkpt>
      <trkpt lat="44.21139" lon="6.1404">
        <ele>1556</ele>
        <time>2010-01-01T02:45:53Z</time>
      </trkpt>
      <trkpt lat="44.21136" lon="6.14043">
        <ele>1556</ele>
        <time>2010-01-01T02:45:54Z</time>
      </trkpt>
      <trkpt lat="44.21133" lon="6.14045">
        <ele>1556</ele>
        <time>2010-01-01T02:45:55Z</time>
      </trkpt>
      <trkpt lat="44.21128" lon="6.14046">
        <ele>1557</ele>
        <time>2010-01-01T02:45:57Z</time>
      </trkpt>
      <trkpt lat="44.21124" lon="6.14048">
        <ele>1558</ele>
        <time>2010-01-01T02:45:58Z</time>
      </trkpt>
      <trkpt lat="44.2112" lon="6.14049">
        <ele>1559</ele>
        <time>2010-01-01T02:45:59Z</time>
      </trkpt>
      <trkpt lat="44.21116" lon="6.1405">
        <ele>1559</ele>
        <time>2010-01-01T02:46:00Z</time>
      </trkpt>
      <trkpt lat="44.21113" lon="6.14051">
        <ele>1560</ele>
        <time>2010-01-01T02:46:01Z</time>
      </trkpt>
      <trkpt lat="44.2111" lon="6.14051">
        <ele>1561</ele>
        <time>2010-01-01T02:46:02Z</time>
      </trkpt>
      <trkpt lat="44.21106" lon="6.14052">
        <ele>1561</ele>
        <time>2010-01-01T02:46:03Z</time>
      </trkpt>
      <trkpt lat="44.21103" lon="6.14051">
        <ele>1561</ele>
        <time>2010-01-01T02:46:04Z</time>
      </trkpt>
      <trkpt lat="44.21099" lon="6.14051">
        <ele>1562</ele>
        <time>2010-01-01T02:46:05Z</time>
      </trkpt>
      <trkpt lat="44.21095" lon="6.14051">
        <ele>1562</ele>
        <time>2010-01-01T02:46:06Z</time>
      </trkpt>
      <trkpt lat="44.21091" lon="6.14051">
        <ele>1563</ele>
        <time>2010-01-01T02:46:07Z</time>
      </trkpt>
      <trkpt lat="44.21088" lon="6.1405">
        <ele>1564</ele>
        <time>2010-01-01T02:46:08Z</time>
      </trkpt>
      <trkpt lat="44.21085" lon="6.1405">
        <ele>1564</ele>
        <time>2010-01-01T02:46:08Z</time>
      </trkpt>
      <trkpt lat="44.21082" lon="6.14049">
        <ele>1565</ele>
        <time>2010-01-01T02:46:09Z</time>
      </trkpt>
      <trkpt lat="44.21079" lon="6.14049">
        <ele>1565</ele>
        <time>2010-01-01T02:46:10Z</time>
      </trkpt>
      <trkpt lat="44.21076" lon="6.14049">
        <ele>1566</ele>
        <time>2010-01-01T02:46:11Z</time>
      </trkpt>
      <trkpt lat="44.21073" lon="6.14048">
        <ele>1566</ele>
        <time>2010-01-01T02:46:12Z</time>
      </trkpt>
      <trkpt lat="44.21069" lon="6.14047">
        <ele>1567</ele>
        <time>2010-01-01T02:46:13Z</time>
      </trkpt>
      <trkpt lat="44.21064" lon="6.14046">
        <ele>1568</ele>
        <time>2010-01-01T02:46:14Z</time>
      </trkpt>
      <trkpt lat="44.21061" lon="6.14046">
        <ele>1569</ele>
        <time>2010-01-01T02:46:15Z</time>
      </trkpt>
      <trkpt lat="44.21058" lon="6.14046">
        <ele>1570</ele>
        <time>2010-01-01T02:46:16Z</time>
      </trkpt>
      <trkpt lat="44.21055" lon="6.14045">
        <ele>1571</ele>
        <time>2010-01-01T02:46:16Z</time>
      </trkpt>
      <trkpt lat="44.21052" lon="6.14044">
        <ele>1571</ele>
        <time>2010-01-01T02:46:17Z</time>
      </trkpt>
      <trkpt lat="44.21049" lon="6.14044">
        <ele>1572</ele>
        <time>2010-01-01T02:46:18Z</time>
      </trkpt>
      <trkpt lat="44.21046" lon="6.14043">
        <ele>1573</ele>
        <time>2010-01-01T02:46:19Z</time>
      </trkpt>
      <trkpt lat="44.21043" lon="6.14042">
        <ele>1574</ele>
        <time>2010-01-01T02:46:20Z</time>
      </trkpt>
      <trkpt lat="44.21039" lon="6.14041">
        <ele>1574</ele>
        <time>2010-01-01T02:46:21Z</time>
      </trkpt>
      <trkpt lat="44.21036" lon="6.1404">
        <ele>1575</ele>
        <time>2010-01-01T02:46:22Z</time>
      </trkpt>
      <trkpt lat="44.21032" lon="6.1404">
        <ele>1576</ele>
        <time>2010-01-01T02:46:23Z</time>
      </trkpt>
      <trkpt lat="44.2103" lon="6.14041">
        <ele>1576</ele>
        <time>2010-01-01T02:46:23Z</time>
      </trkpt>
      <trkpt lat="44.21026" lon="6.14041">
        <ele>1577</ele>
        <time>2010-01-01T02:46:24Z</time>
      </trkpt>
      <trkpt lat="44.21023" lon="6.14042">
        <ele>1577</ele>
        <time>2010-01-01T02:46:25Z</time>
      </trkpt>
      <trkpt lat="44.21019" lon="6.14042">
        <ele>1578</ele>
        <time>2010-01-01T02:46:26Z</time>
      </trkpt>
      <trkpt lat="44.21016" lon="6.1404">
        <ele>1579</ele>
        <time>2010-01-01T02:46:27Z</time>
      </trkpt>
      <trkpt lat="44.21012" lon="6.14039">
        <ele>1580</ele>
        <time>2010-01-01T02:46:28Z</time>
      </trkpt>
      <trkpt lat="44.21009" lon="6.14039">
        <ele>1581</ele>
        <time>2010-01-01T02:46:29Z</time>
      </trkpt>
      <trkpt lat="44.21003" lon="6.14041">
        <ele>1582</ele>
        <time>2010-01-01T02:46:30Z</time>
      </trkpt>
      <trkpt lat="44.21004" lon="6.14045">
        <ele>1580</ele>
        <time>2010-01-01T02:46:31Z</time>
      </trkpt>
      <trkpt lat="44.21007" lon="6.14047">
        <ele>1578</ele>
        <time>2010-01-01T02:46:32Z</time>
      </trkpt>
      <trkpt lat="44.2101" lon="6.14048">
        <ele>1577</ele>
        <time>2010-01-01T02:46:33Z</time>
      </trkpt>
      <trkpt lat="44.21015" lon="6.14045">
        <ele>1577</ele>
        <time>2010-01-01T02:46:34Z</time>
      </trkpt>
      <trkpt lat="44.21017" lon="6.14042">
        <ele>1578</ele>
        <time>2010-01-01T02:46:35Z</time>
      </trkpt>
      <trkpt lat="44.21019" lon="6.14039">
        <ele>1579</ele>
        <time>2010-01-01T02:46:36Z</time>
      </trkpt>
      <trkpt lat="44.21022" lon="6.14036">
        <ele>1580</ele>
        <time>2010-01-01T02:46:37Z</time>
      </trkpt>
      <trkpt lat="44.21024" lon="6.14034">
        <ele>1580</ele>
        <time>2010-01-01T02:46:38Z</time>
      </trkpt>
      <trkpt lat="44.21027" lon="6.14032">
        <ele>1580</ele>
        <time>2010-01-01T02:46:39Z</time>
      </trkpt>
      <trkpt lat="44.2103" lon="6.14031">
        <ele>1580</ele>
        <time>2010-01-01T02:46:39Z</time>
      </trkpt>
      <trkpt lat="44.21033" lon="6.1403">
        <ele>1580</ele>
        <time>2010-01-01T02:46:40Z</time>
      </trkpt>
      <trkpt lat="44.21036" lon="6.14029">
        <ele>1580</ele>
        <time>2010-01-01T02:46:41Z</time>
      </trkpt>
      <trkpt lat="44.21039" lon="6.14027">
        <ele>1580</ele>
        <time>2010-01-01T02:46:42Z</time>
      </trkpt>
      <trkpt lat="44.21042" lon="6.14027">
        <ele>1580</ele>
        <time>2010-01-01T02:46:43Z</time>
      </trkpt>
      <trkpt lat="44.21045" lon="6.14025">
        <ele>1579</ele>
        <time>2010-01-01T02:46:44Z</time>
      </trkpt>
      <trkpt lat="44.21048" lon="6.14024">
        <ele>1579</ele>
        <time>2010-01-01T02:46:44Z</time>
      </trkpt>
      <trkpt lat="44.21052" lon="6.14022">
        <ele>1579</ele>
        <time>2010-01-01T02:46:45Z</time>
      </trkpt>
      <trkpt lat="44.21055" lon="6.1402">
        <ele>1580</ele>
        <time>2010-01-01T02:46:46Z</time>
      </trkpt>
      <trkpt lat="44.21058" lon="6.14018">
        <ele>1580</ele>
        <time>2010-01-01T02:46:47Z</time>
      </trkpt>
      <trkpt lat="44.21061" lon="6.14017">
        <ele>1580</ele>
        <time>2010-01-01T02:46:48Z</time>
      </trkpt>
      <trkpt lat="44.21066" lon="6.14015">
        <ele>1579</ele>
        <time>2010-01-01T02:46:49Z</time>
      </trkpt>
      <trkpt lat="44.21069" lon="6.14013">
        <ele>1579</ele>
        <time>2010-01-01T02:46:50Z</time>
      </trkpt>
      <trkpt lat="44.21072" lon="6.14011">
        <ele>1579</ele>
        <time>2010-01-01T02:46:51Z</time>
      </trkpt>
      <trkpt lat="44.21075" lon="6.14009">
        <ele>1579</ele>
        <time>2010-01-01T02:46:52Z</time>
      </trkpt>
      <trkpt lat="44.21077" lon="6.14007">
        <ele>1580</ele>
        <time>2010-01-01T02:46:53Z</time>
      </trkpt>
      <trkpt lat="44.2108" lon="6.14004">
        <ele>1580</ele>
        <time>2010-01-01T02:46:54Z</time>
      </trkpt>
      <trkpt lat="44.21082" lon="6.14001">
        <ele>1580</ele>
        <time>2010-01-01T02:46:55Z</time>
      </trkpt>
      <trkpt lat="44.21085" lon="6.13999">
        <ele>1580</ele>
        <time>2010-01-01T02:46:56Z</time>
      </trkpt>
      <trkpt lat="44.21088" lon="6.13996">
        <ele>1580</ele>
        <time>2010-01-01T02:46:56Z</time>
      </trkpt>
      <trkpt lat="44.21091" lon="6.13994">
        <ele>1580</ele>
        <time>2010-01-01T02:46:57Z</time>
      </trkpt>
      <trkpt lat="44.21094" lon="6.1399">
        <ele>1581</ele>
        <time>2010-01-01T02:46:58Z</time>
      </trkpt>
      <trkpt lat="44.21096" lon="6.13987">
        <ele>1581</ele>
        <time>2010-01-01T02:46:59Z</time>
      </trkpt>
      <trkpt lat="44.21098" lon="6.13984">
        <ele>1582</ele>
        <time>2010-01-01T02:47:00Z</time>
      </trkpt>
      <trkpt lat="44.211" lon="6.13981">
        <ele>1582</ele>
        <time>2010-01-01T02:47:01Z</time>
      </trkpt>
      <trkpt lat="44.21102" lon="6.13978">
        <ele>1582</ele>
        <time>2010-01-01T02:47:02Z</time>
      </trkpt>
      <trkpt lat="44.21105" lon="6.13975">
        <ele>1583</ele>
        <time>2010-01-01T02:47:02Z</time>
      </trkpt>
      <trkpt lat="44.21107" lon="6.13972">
        <ele>1583</ele>
        <time>2010-01-01T02:47:03Z</time>
      </trkpt>
      <trkpt lat="44.21109" lon="6.13969">
        <ele>1583</ele>
        <time>2010-01-01T02:47:04Z</time>
      </trkpt>
      <trkpt lat="44.21112" lon="6.13966">
        <ele>1583</ele>
        <time>2010-01-01T02:47:05Z</time>
      </trkpt>
      <trkpt lat="44.21113" lon="6.13963">
        <ele>1584</ele>
        <time>2010-01-01T02:47:06Z</time>
      </trkpt>
      <trkpt lat="44.21115" lon="6.13959">
        <ele>1584</ele>
        <time>2010-01-01T02:47:07Z</time>
      </trkpt>
      <trkpt lat="44.21116" lon="6.13955">
        <ele>1585</ele>
        <time>2010-01-01T02:47:07Z</time>
      </trkpt>
      <trkpt lat="44.21117" lon="6.13949">
        <ele>1586</ele>
        <time>2010-01-01T02:47:09Z</time>
      </trkpt>
      <trkpt lat="44.21118" lon="6.13944">
        <ele>1587</ele>
        <time>2010-01-01T02:47:10Z</time>
      </trkpt>
      <trkpt lat="44.21119" lon="6.1394">
        <ele>1589</ele>
        <time>2010-01-01T02:47:10Z</time>
      </trkpt>
      <trkpt lat="44.2112" lon="6.13936">
        <ele>1590</ele>
        <time>2010-01-01T02:47:11Z</time>
      </trkpt>
      <trkpt lat="44.21121" lon="6.13932">
        <ele>1591</ele>
        <time>2010-01-01T02:47:12Z</time>
      </trkpt>
      <trkpt lat="44.21123" lon="6.13928">
        <ele>1591</ele>
        <time>2010-01-01T02:47:13Z</time>
      </trkpt>
      <trkpt lat="44.21125" lon="6.13924">
        <ele>1592</ele>
        <time>2010-01-01T02:47:14Z</time>
      </trkpt>
      <trkpt lat="44.21127" lon="6.1392">
        <ele>1592</ele>
        <time>2010-01-01T02:47:15Z</time>
      </trkpt>
      <trkpt lat="44.21128" lon="6.13915">
        <ele>1594</ele>
        <time>2010-01-01T02:47:16Z</time>
      </trkpt>
      <trkpt lat="44.21128" lon="6.13911">
        <ele>1595</ele>
        <time>2010-01-01T02:47:17Z</time>
      </trkpt>
      <trkpt lat="44.21128" lon="6.13907">
        <ele>1596</ele>
        <time>2010-01-01T02:47:17Z</time>
      </trkpt>
      <trkpt lat="44.2113" lon="6.13903">
        <ele>1597</ele>
        <time>2010-01-01T02:47:18Z</time>
      </trkpt>
      <trkpt lat="44.21132" lon="6.139">
        <ele>1597</ele>
        <time>2010-01-01T02:47:19Z</time>
      </trkpt>
      <trkpt lat="44.21133" lon="6.13894">
        <ele>1598</ele>
        <time>2010-01-01T02:47:20Z</time>
      </trkpt>
      <trkpt lat="44.21135" lon="6.13891">
        <ele>1598</ele>
        <time>2010-01-01T02:47:21Z</time>
      </trkpt>
      <trkpt lat="44.21137" lon="6.13888">
        <ele>1598</ele>
        <time>2010-01-01T02:47:22Z</time>
      </trkpt>
      <trkpt lat="44.21139" lon="6.13884">
        <ele>1598</ele>
        <time>2010-01-01T02:47:23Z</time>
      </trkpt>
      <trkpt lat="44.2114" lon="6.13881">
        <ele>1598</ele>
        <time>2010-01-01T02:47:23Z</time>
      </trkpt>
      <trkpt lat="44.21142" lon="6.13877">
        <ele>1597</ele>
        <time>2010-01-01T02:47:24Z</time>
      </trkpt>
      <trkpt lat="44.21144" lon="6.13875">
        <ele>1597</ele>
        <time>2010-01-01T02:47:25Z</time>
      </trkpt>
      <trkpt lat="44.21147" lon="6.13871">
        <ele>1596</ele>
        <time>2010-01-01T02:47:26Z</time>
      </trkpt>
      <trkpt lat="44.21148" lon="6.13866">
        <ele>1597</ele>
        <time>2010-01-01T02:47:27Z</time>
      </trkpt>
      <trkpt lat="44.21151" lon="6.13862">
        <ele>1596</ele>
        <time>2010-01-01T02:47:28Z</time>
      </trkpt>
      <trkpt lat="44.21153" lon="6.13859">
        <ele>1595</ele>
        <time>2010-01-01T02:47:29Z</time>
      </trkpt>
      <trkpt lat="44.21154" lon="6.13854">
        <ele>1595</ele>
        <time>2010-01-01T02:47:30Z</time>
      </trkpt>
      <trkpt lat="44.21155" lon="6.1385">
        <ele>1595</ele>
        <time>2010-01-01T02:47:31Z</time>
      </trkpt>
      <trkpt lat="44.21156" lon="6.13846">
        <ele>1595</ele>
        <time>2010-01-01T02:47:32Z</time>
      </trkpt>
      <trkpt lat="44.21158" lon="6.13841">
        <ele>1594</ele>
        <time>2010-01-01T02:47:32Z</time>
      </trkpt>
      <trkpt lat="44.21158" lon="6.13836">
        <ele>1594</ele>
        <time>2010-01-01T02:47:33Z</time>
      </trkpt>
      <trkpt lat="44.21159" lon="6.13831">
        <ele>1594</ele>
        <time>2010-01-01T02:47:34Z</time>
      </trkpt>
      <trkpt lat="44.2116" lon="6.13827">
        <ele>1594</ele>
        <time>2010-01-01T02:47:35Z</time>
      </trkpt>
      <trkpt lat="44.21161" lon="6.13822">
        <ele>1595</ele>
        <time>2010-01-01T02:47:36Z</time>
      </trkpt>
      <trkpt lat="44.21161" lon="6.13817">
        <ele>1595</ele>
        <time>2010-01-01T02:47:37Z</time>
      </trkpt>
      <trkpt lat="44.21162" lon="6.13813">
        <ele>1595</ele>
        <time>2010-01-01T02:47:38Z</time>
      </trkpt>
      <trkpt lat="44.21162" lon="6.13809">
        <ele>1595</ele>
        <time>2010-01-01T02:47:39Z</time>
      </trkpt>
      <trkpt lat="44.21163" lon="6.13804">
        <ele>1595</ele>
        <time>2010-01-01T02:47:40Z</time>
      </trkpt>
      <trkpt lat="44.21164" lon="6.13799">
        <ele>1595</ele>
        <time>2010-01-01T02:47:41Z</time>
      </trkpt>
      <trkpt lat="44.21164" lon="6.13803">
        <ele>1595</ele>
        <time>2010-01-01T02:47:41Z</time>
      </trkpt>
      <trkpt lat="44.21164" lon="6.13808">
        <ele>1594</ele>
        <time>2010-01-01T02:47:42Z</time>
      </trkpt>
      <trkpt lat="44.21164" lon="6.13812">
        <ele>1594</ele>
        <time>2010-01-01T02:47:43Z</time>
      </trkpt>
      <trkpt lat="44.21163" lon="6.13816">
        <ele>1594</ele>
        <time>2010-01-01T02:47:44Z</time>
      </trkpt>
      <trkpt lat="44.2116" lon="6.13819">
        <ele>1595</ele>
        <time>2010-01-01T02:47:45Z</time>
      </trkpt>
      <trkpt lat="44.21157" lon="6.13822">
        <ele>1597</ele>
        <time>2010-01-01T02:47:46Z</time>
      </trkpt>
      <trkpt lat="44.21154" lon="6.13823">
        <ele>1599</ele>
        <time>2010-01-01T02:47:47Z</time>
      </trkpt>
      <trkpt lat="44.21151" lon="6.13826">
        <ele>1601</ele>
        <time>2010-01-01T02:47:48Z</time>
      </trkpt>
      <trkpt lat="44.21148" lon="6.1383">
        <ele>1602</ele>
        <time>2010-01-01T02:47:49Z</time>
      </trkpt>
      <trkpt lat="44.21145" lon="6.13833">
        <ele>1603</ele>
        <time>2010-01-01T02:47:50Z</time>
      </trkpt>
      <trkpt lat="44.21142" lon="6.13835">
        <ele>1605</ele>
        <time>2010-01-01T02:47:51Z</time>
      </trkpt>
      <trkpt lat="44.21138" lon="6.13838">
        <ele>1606</ele>
        <time>2010-01-01T02:47:52Z</time>
      </trkpt>
      <trkpt lat="44.21135" lon="6.13839">
        <ele>1608</ele>
        <time>2010-01-01T02:47:53Z</time>
      </trkpt>
      <trkpt lat="44.21133" lon="6.13841">
        <ele>1609</ele>
        <time>2010-01-01T02:47:53Z</time>
      </trkpt>
      <trkpt lat="44.2113" lon="6.13844">
        <ele>1610</ele>
        <time>2010-01-01T02:47:54Z</time>
      </trkpt>
      <trkpt lat="44.21128" lon="6.13847">
        <ele>1612</ele>
        <time>2010-01-01T02:47:55Z</time>
      </trkpt>
      <trkpt lat="44.21125" lon="6.13848">
        <ele>1613</ele>
        <time>2010-01-01T02:47:56Z</time>
      </trkpt>
      <trkpt lat="44.21122" lon="6.13851">
        <ele>1614</ele>
        <time>2010-01-01T02:47:57Z</time>
      </trkpt>
      <trkpt lat="44.21119" lon="6.13855">
        <ele>1615</ele>
        <time>2010-01-01T02:47:58Z</time>
      </trkpt>
      <trkpt lat="44.21117" lon="6.13858">
        <ele>1616</ele>
        <time>2010-01-01T02:47:59Z</time>
      </trkpt>
      <trkpt lat="44.21114" lon="6.13861">
        <ele>1617</ele>
        <time>2010-01-01T02:48:00Z</time>
      </trkpt>
      <trkpt lat="44.2111" lon="6.13863">
        <ele>1618</ele>
        <time>2010-01-01T02:48:01Z</time>
      </trkpt>
      <trkpt lat="44.21107" lon="6.13866">
        <ele>1619</ele>
        <time>2010-01-01T02:48:02Z</time>
      </trkpt>
      <trkpt lat="44.21104" lon="6.13869">
        <ele>1619</ele>
        <time>2010-01-01T02:48:03Z</time>
      </trkpt>
      <trkpt lat="44.21101" lon="6.13872">
        <ele>1619</ele>
        <time>2010-01-01T02:48:04Z</time>
      </trkpt>
      <trkpt lat="44.21099" lon="6.13874">
        <ele>1619</ele>
        <time>2010-01-01T02:48:04Z</time>
      </trkpt>
      <trkpt lat="44.21096" lon="6.13877">
        <ele>1619</ele>
        <time>2010-01-01T02:48:05Z</time>
      </trkpt>
      <trkpt lat="44.21093" lon="6.1388">
        <ele>1619</ele>
        <time>2010-01-01T02:48:06Z</time>
      </trkpt>
      <trkpt lat="44.21091" lon="6.13884">
        <ele>1619</ele>
        <time>2010-01-01T02:48:07Z</time>
      </trkpt>
      <trkpt lat="44.21088" lon="6.13887">
        <ele>1619</ele>
        <time>2010-01-01T02:48:08Z</time>
      </trkpt>
      <trkpt lat="44.21085" lon="6.13889">
        <ele>1619</ele>
        <time>2010-01-01T02:48:09Z</time>
      </trkpt>
      <trkpt lat="44.21083" lon="6.13892">
        <ele>1619</ele>
        <time>2010-01-01T02:48:10Z</time>
      </trkpt>
      <trkpt lat="44.2108" lon="6.13895">
        <ele>1618</ele>
        <time>2010-01-01T02:48:11Z</time>
      </trkpt>
      <trkpt lat="44.21077" lon="6.13898">
        <ele>1618</ele>
        <time>2010-01-01T02:48:12Z</time>
      </trkpt>
      <trkpt lat="44.21074" lon="6.139">
        <ele>1618</ele>
        <time>2010-01-01T02:48:13Z</time>
      </trkpt>
      <trkpt lat="44.21071" lon="6.13901">
        <ele>1618</ele>
        <time>2010-01-01T02:48:14Z</time>
      </trkpt>
      <trkpt lat="44.21068" lon="6.13903">
        <ele>1618</ele>
        <time>2010-01-01T02:48:14Z</time>
      </trkpt>
      <trkpt lat="44.21065" lon="6.13904">
        <ele>1618</ele>
        <time>2010-01-01T02:48:15Z</time>
      </trkpt>
      <trkpt lat="44.21063" lon="6.13906">
        <ele>1618</ele>
        <time>2010-01-01T02:48:16Z</time>
      </trkpt>
      <trkpt lat="44.2106" lon="6.13907">
        <ele>1619</ele>
        <time>2010-01-01T02:48:17Z</time>
      </trkpt>
      <trkpt lat="44.21057" lon="6.13908">
        <ele>1619</ele>
        <time>2010-01-01T02:48:18Z</time>
      </trkpt>
      <trkpt lat="44.21053" lon="6.13911">
        <ele>1619</ele>
        <time>2010-01-01T02:48:19Z</time>
      </trkpt>
      <trkpt lat="44.2105" lon="6.13913">
        <ele>1619</ele>
        <time>2010-01-01T02:48:20Z</time>
      </trkpt>
      <trkpt lat="44.21046" lon="6.13914">
        <ele>1620</ele>
        <time>2010-01-01T02:48:21Z</time>
      </trkpt>
      <trkpt lat="44.21043" lon="6.13915">
        <ele>1620</ele>
        <time>2010-01-01T02:48:22Z</time>
      </trkpt>
      <trkpt lat="44.21039" lon="6.13917">
        <ele>1621</ele>
        <time>2010-01-01T02:48:23Z</time>
      </trkpt>
      <trkpt lat="44.21037" lon="6.13918">
        <ele>1621</ele>
        <time>2010-01-01T02:48:23Z</time>
      </trkpt>
      <trkpt lat="44.21034" lon="6.13919">
        <ele>1622</ele>
        <time>2010-01-01T02:48:24Z</time>
      </trkpt>
      <trkpt lat="44.21027" lon="6.13923">
        <ele>1622</ele>
        <time>2010-01-01T02:48:26Z</time>
      </trkpt>
      <trkpt lat="44.21024" lon="6.13925">
        <ele>1622</ele>
        <time>2010-01-01T02:48:27Z</time>
      </trkpt>
      <trkpt lat="44.21021" lon="6.13926">
        <ele>1622</ele>
        <time>2010-01-01T02:48:28Z</time>
      </trkpt>
      <trkpt lat="44.21018" lon="6.13924">
        <ele>1622</ele>
        <time>2010-01-01T02:48:29Z</time>
      </trkpt>
      <trkpt lat="44.21021" lon="6.13923">
        <ele>1623</ele>
        <time>2010-01-01T02:48:29Z</time>
      </trkpt>
      <trkpt lat="44.21024" lon="6.1392">
        <ele>1623</ele>
        <time>2010-01-01T02:48:30Z</time>
      </trkpt>
      <trkpt lat="44.21026" lon="6.13918">
        <ele>1624</ele>
        <time>2010-01-01T02:48:31Z</time>
      </trkpt>
      <trkpt lat="44.2103" lon="6.13915">
        <ele>1625</ele>
        <time>2010-01-01T02:48:32Z</time>
      </trkpt>
      <trkpt lat="44.21033" lon="6.13912">
        <ele>1625</ele>
        <time>2010-01-01T02:48:33Z</time>
      </trkpt>
      <trkpt lat="44.21035" lon="6.1391">
        <ele>1625</ele>
        <time>2010-01-01T02:48:34Z</time>
      </trkpt>
      <trkpt lat="44.21037" lon="6.13907">
        <ele>1626</ele>
        <time>2010-01-01T02:48:35Z</time>
      </trkpt>
      <trkpt lat="44.21038" lon="6.13903">
        <ele>1627</ele>
        <time>2010-01-01T02:48:35Z</time>
      </trkpt>
      <trkpt lat="44.21039" lon="6.13899">
        <ele>1628</ele>
        <time>2010-01-01T02:48:36Z</time>
      </trkpt>
      <trkpt lat="44.21041" lon="6.13895">
        <ele>1629</ele>
        <time>2010-01-01T02:48:37Z</time>
      </trkpt>
      <trkpt lat="44.21042" lon="6.13891">
        <ele>1630</ele>
        <time>2010-01-01T02:48:38Z</time>
      </trkpt>
      <trkpt lat="44.21052" lon="6.13879">
        <ele>1632</ele>
        <time>2010-01-01T02:48:41Z</time>
      </trkpt>
      <trkpt lat="44.21054" lon="6.13875">
        <ele>1633</ele>
        <time>2010-01-01T02:48:42Z</time>
      </trkpt>
      <trkpt lat="44.21056" lon="6.1387">
        <ele>1634</ele>
        <time>2010-01-01T02:48:44Z</time>
      </trkpt>
      <trkpt lat="44.21057" lon="6.13866">
        <ele>1635</ele>
        <time>2010-01-01T02:48:44Z</time>
      </trkpt>
      <trkpt lat="44.21059" lon="6.13863">
        <ele>1636</ele>
        <time>2010-01-01T02:48:45Z</time>
      </trkpt>
      <trkpt lat="44.21061" lon="6.13859">
        <ele>1636</ele>
        <time>2010-01-01T02:48:46Z</time>
      </trkpt>
      <trkpt lat="44.21063" lon="6.13856">
        <ele>1636</ele>
        <time>2010-01-01T02:48:47Z</time>
      </trkpt>
      <trkpt lat="44.21066" lon="6.13852">
        <ele>1637</ele>
        <time>2010-01-01T02:48:48Z</time>
      </trkpt>
      <trkpt lat="44.21068" lon="6.13849">
        <ele>1637</ele>
        <time>2010-01-01T02:48:49Z</time>
      </trkpt>
      <trkpt lat="44.21069" lon="6.13845">
        <ele>1637</ele>
        <time>2010-01-01T02:48:50Z</time>
      </trkpt>
      <trkpt lat="44.21071" lon="6.1384">
        <ele>1638</ele>
        <time>2010-01-01T02:48:51Z</time>
      </trkpt>
      <trkpt lat="44.21072" lon="6.13836">
        <ele>1639</ele>
        <time>2010-01-01T02:48:51Z</time>
      </trkpt>
      <trkpt lat="44.21074" lon="6.13832">
        <ele>1639</ele>
        <time>2010-01-01T02:48:52Z</time>
      </trkpt>
      <trkpt lat="44.21076" lon="6.13828">
        <ele>1639</ele>
        <time>2010-01-01T02:48:53Z</time>
      </trkpt>
      <trkpt lat="44.21077" lon="6.13824">
        <ele>1640</ele>
        <time>2010-01-01T02:48:54Z</time>
      </trkpt>
      <trkpt lat="44.21079" lon="6.1382">
        <ele>1640</ele>
        <time>2010-01-01T02:48:55Z</time>
      </trkpt>
      <trkpt lat="44.2108" lon="6.13816">
        <ele>1641</ele>
        <time>2010-01-01T02:48:56Z</time>
      </trkpt>
      <trkpt lat="44.21081" lon="6.13811">
        <ele>1641</ele>
        <time>2010-01-01T02:48:57Z</time>
      </trkpt>
      <trkpt lat="44.21082" lon="6.13806">
        <ele>1642</ele>
        <time>2010-01-01T02:48:58Z</time>
      </trkpt>
      <trkpt lat="44.21083" lon="6.13802">
        <ele>1642</ele>
        <time>2010-01-01T02:48:59Z</time>
      </trkpt>
      <trkpt lat="44.21085" lon="6.13798">
        <ele>1643</ele>
        <time>2010-01-01T02:48:59Z</time>
      </trkpt>
      <trkpt lat="44.21085" lon="6.13794">
        <ele>1643</ele>
        <time>2010-01-01T02:49:00Z</time>
      </trkpt>
      <trkpt lat="44.21086" lon="6.1379">
        <ele>1644</ele>
        <time>2010-01-01T02:49:01Z</time>
      </trkpt>
      <trkpt lat="44.21087" lon="6.13786">
        <ele>1644</ele>
        <time>2010-01-01T02:49:02Z</time>
      </trkpt>
      <trkpt lat="44.21088" lon="6.13781">
        <ele>1644</ele>
        <time>2010-01-01T02:49:03Z</time>
      </trkpt>
      <trkpt lat="44.2109" lon="6.13777">
        <ele>1644</ele>
        <time>2010-01-01T02:49:04Z</time>
      </trkpt>
      <trkpt lat="44.21089" lon="6.13781">
        <ele>1644</ele>
        <time>2010-01-01T02:49:04Z</time>
      </trkpt>
      <trkpt lat="44.21088" lon="6.13785">
        <ele>1644</ele>
        <time>2010-01-01T02:49:05Z</time>
      </trkpt>
      <trkpt lat="44.21086" lon="6.13789">
        <ele>1644</ele>
        <time>2010-01-01T02:49:06Z</time>
      </trkpt>
      <trkpt lat="44.21083" lon="6.13792">
        <ele>1644</ele>
        <time>2010-01-01T02:49:07Z</time>
      </trkpt>
      <trkpt lat="44.2108" lon="6.13794">
        <ele>1645</ele>
        <time>2010-01-01T02:49:08Z</time>
      </trkpt>
      <trkpt lat="44.21077" lon="6.13797">
        <ele>1645</ele>
        <time>2010-01-01T02:49:09Z</time>
      </trkpt>
      <trkpt lat="44.21075" lon="6.13799">
        <ele>1646</ele>
        <time>2010-01-01T02:49:10Z</time>
      </trkpt>
      <trkpt lat="44.21072" lon="6.13802">
        <ele>1647</ele>
        <time>2010-01-01T02:49:11Z</time>
      </trkpt>
      <trkpt lat="44.21069" lon="6.13805">
        <ele>1647</ele>
        <time>2010-01-01T02:49:11Z</time>
      </trkpt>
      <trkpt lat="44.21067" lon="6.13808">
        <ele>1647</ele>
        <time>2010-01-01T02:49:12Z</time>
      </trkpt>
      <trkpt lat="44.21065" lon="6.13811">
        <ele>1648</ele>
        <time>2010-01-01T02:49:13Z</time>
      </trkpt>
      <trkpt lat="44.21062" lon="6.13813">
        <ele>1648</ele>
        <time>2010-01-01T02:49:14Z</time>
      </trkpt>
      <trkpt lat="44.21059" lon="6.13815">
        <ele>1649</ele>
        <time>2010-01-01T02:49:15Z</time>
      </trkpt>
      <trkpt lat="44.21056" lon="6.13816">
        <ele>1650</ele>
        <time>2010-01-01T02:49:16Z</time>
      </trkpt>
      <trkpt lat="44.21053" lon="6.13817">
        <ele>1650</ele>
        <time>2010-01-01T02:49:17Z</time>
      </trkpt>
      <trkpt lat="44.2105" lon="6.13819">
        <ele>1650</ele>
        <time>2010-01-01T02:49:17Z</time>
      </trkpt>
      <trkpt lat="44.21048" lon="6.13822">
        <ele>1650</ele>
        <time>2010-01-01T02:49:18Z</time>
      </trkpt>
      <trkpt lat="44.21045" lon="6.13824">
        <ele>1650</ele>
        <time>2010-01-01T02:49:19Z</time>
      </trkpt>
      <trkpt lat="44.21042" lon="6.13826">
        <ele>1650</ele>
        <time>2010-01-01T02:49:20Z</time>
      </trkpt>
      <trkpt lat="44.21039" lon="6.1383">
        <ele>1650</ele>
        <time>2010-01-01T02:49:21Z</time>
      </trkpt>
      <trkpt lat="44.21036" lon="6.13833">
        <ele>1650</ele>
        <time>2010-01-01T02:49:22Z</time>
      </trkpt>
      <trkpt lat="44.21034" lon="6.13836">
        <ele>1650</ele>
        <time>2010-01-01T02:49:23Z</time>
      </trkpt>
      <trkpt lat="44.21031" lon="6.13838">
        <ele>1650</ele>
        <time>2010-01-01T02:49:24Z</time>
      </trkpt>
      <trkpt lat="44.21028" lon="6.1384">
        <ele>1650</ele>
        <time>2010-01-01T02:49:24Z</time>
      </trkpt>
      <trkpt lat="44.21026" lon="6.13842">
        <ele>1650</ele>
        <time>2010-01-01T02:49:25Z</time>
      </trkpt>
      <trkpt lat="44.21023" lon="6.13844">
        <ele>1649</ele>
        <time>2010-01-01T02:49:26Z</time>
      </trkpt>
      <trkpt lat="44.21021" lon="6.13846">
        <ele>1649</ele>
        <time>2010-01-01T02:49:27Z</time>
      </trkpt>
      <trkpt lat="44.21018" lon="6.13848">
        <ele>1648</ele>
        <time>2010-01-01T02:49:28Z</time>
      </trkpt>
      <trkpt lat="44.21015" lon="6.1385">
        <ele>1648</ele>
        <time>2010-01-01T02:49:29Z</time>
      </trkpt>
      <trkpt lat="44.21012" lon="6.13852">
        <ele>1648</ele>
        <time>2010-01-01T02:49:29Z</time>
      </trkpt>
      <trkpt lat="44.2101" lon="6.13854">
        <ele>1647</ele>
        <time>2010-01-01T02:49:30Z</time>
      </trkpt>
      <trkpt lat="44.21007" lon="6.13856">
        <ele>1647</ele>
        <time>2010-01-01T02:49:31Z</time>
      </trkpt>
      <trkpt lat="44.21003" lon="6.13858">
        <ele>1647</ele>
        <time>2010-01-01T02:49:32Z</time>
      </trkpt>
      <trkpt lat="44.21" lon="6.13861">
        <ele>1647</ele>
        <time>2010-01-01T02:49:33Z</time>
      </trkpt>
      <trkpt lat="44.20997" lon="6.13862">
        <ele>1646</ele>
        <time>2010-01-01T02:49:34Z</time>
      </trkpt>
      <trkpt lat="44.20994" lon="6.13865">
        <ele>1645</ele>
        <time>2010-01-01T02:49:35Z</time>
      </trkpt>
      <trkpt lat="44.20991" lon="6.13867">
        <ele>1645</ele>
        <time>2010-01-01T02:49:36Z</time>
      </trkpt>
      <trkpt lat="44.20989" lon="6.13868">
        <ele>1644</ele>
        <time>2010-01-01T02:49:36Z</time>
      </trkpt>
      <trkpt lat="44.20985" lon="6.13868">
        <ele>1645</ele>
        <time>2010-01-01T02:49:37Z</time>
      </trkpt>
      <trkpt lat="44.20981" lon="6.13868">
        <ele>1645</ele>
        <time>2010-01-01T02:49:38Z</time>
      </trkpt>
      <trkpt lat="44.20978" lon="6.13868">
        <ele>1645</ele>
        <time>2010-01-01T02:49:39Z</time>
      </trkpt>
      <trkpt lat="44.20974" lon="6.13868">
        <ele>1645</ele>
        <time>2010-01-01T02:49:40Z</time>
      </trkpt>
      <trkpt lat="44.2097" lon="6.13867">
        <ele>1646</ele>
        <time>2010-01-01T02:49:41Z</time>
      </trkpt>
      <trkpt lat="44.20967" lon="6.13866">
        <ele>1647</ele>
        <time>2010-01-01T02:49:42Z</time>
      </trkpt>
      <trkpt lat="44.20963" lon="6.13867">
        <ele>1647</ele>
        <time>2010-01-01T02:49:43Z</time>
      </trkpt>
      <trkpt lat="44.20959" lon="6.13867">
        <ele>1648</ele>
        <time>2010-01-01T02:49:44Z</time>
      </trkpt>
      <trkpt lat="44.20956" lon="6.13866">
        <ele>1649</ele>
        <time>2010-01-01T02:49:45Z</time>
      </trkpt>
      <trkpt lat="44.20953" lon="6.13864">
        <ele>1650</ele>
        <time>2010-01-01T02:49:46Z</time>
      </trkpt>
      <trkpt lat="44.20951" lon="6.13864">
        <ele>1651</ele>
        <time>2010-01-01T02:49:47Z</time>
      </trkpt>
      <trkpt lat="44.20947" lon="6.13864">
        <ele>1652</ele>
        <time>2010-01-01T02:49:48Z</time>
      </trkpt>
      <trkpt lat="44.20944" lon="6.13864">
        <ele>1653</ele>
        <time>2010-01-01T02:49:49Z</time>
      </trkpt>
      <trkpt lat="44.2094" lon="6.13863">
        <ele>1655</ele>
        <time>2010-01-01T02:49:50Z</time>
      </trkpt>
      <trkpt lat="44.20936" lon="6.13863">
        <ele>1657</ele>
        <time>2010-01-01T02:49:51Z</time>
      </trkpt>
      <trkpt lat="44.20932" lon="6.13863">
        <ele>1658</ele>
        <time>2010-01-01T02:49:52Z</time>
      </trkpt>
      <trkpt lat="44.20929" lon="6.13865">
        <ele>1659</ele>
        <time>2010-01-01T02:49:53Z</time>
      </trkpt>
      <trkpt lat="44.20926" lon="6.13867">
        <ele>1660</ele>
        <time>2010-01-01T02:49:53Z</time>
      </trkpt>
      <trkpt lat="44.20923" lon="6.13869">
        <ele>1660</ele>
        <time>2010-01-01T02:49:54Z</time>
      </trkpt>
      <trkpt lat="44.2092" lon="6.13871">
        <ele>1661</ele>
        <time>2010-01-01T02:49:55Z</time>
      </trkpt>
      <trkpt lat="44.20917" lon="6.13873">
        <ele>1662</ele>
        <time>2010-01-01T02:49:56Z</time>
      </trkpt>
      <trkpt lat="44.20914" lon="6.13874">
        <ele>1663</ele>
        <time>2010-01-01T02:49:57Z</time>
      </trkpt>
      <trkpt lat="44.20911" lon="6.13876">
        <ele>1664</ele>
        <time>2010-01-01T02:49:58Z</time>
      </trkpt>
      <trkpt lat="44.20908" lon="6.13879">
        <ele>1665</ele>
        <time>2010-01-01T02:49:59Z</time>
      </trkpt>
      <trkpt lat="44.20906" lon="6.13881">
        <ele>1666</ele>
        <time>2010-01-01T02:49:59Z</time>
      </trkpt>
      <trkpt lat="44.20903" lon="6.13884">
        <ele>1666</ele>
        <time>2010-01-01T02:50:00Z</time>
      </trkpt>
      <trkpt lat="44.209" lon="6.13887">
        <ele>1667</ele>
        <time>2010-01-01T02:50:01Z</time>
      </trkpt>
      <trkpt lat="44.20897" lon="6.1389">
        <ele>1668</ele>
        <time>2010-01-01T02:50:02Z</time>
      </trkpt>
      <trkpt lat="44.20895" lon="6.13893">
        <ele>1668</ele>
        <time>2010-01-01T02:50:03Z</time>
      </trkpt>
      <trkpt lat="44.20891" lon="6.13897">
        <ele>1669</ele>
        <time>2010-01-01T02:50:04Z</time>
      </trkpt>
      <trkpt lat="44.20889" lon="6.13899">
        <ele>1670</ele>
        <time>2010-01-01T02:50:05Z</time>
      </trkpt>
      <trkpt lat="44.20886" lon="6.13903">
        <ele>1670</ele>
        <time>2010-01-01T02:50:06Z</time>
      </trkpt>
      <trkpt lat="44.20883" lon="6.13906">
        <ele>1670</ele>
        <time>2010-01-01T02:50:07Z</time>
      </trkpt>
      <trkpt lat="44.2088" lon="6.13908">
        <ele>1671</ele>
        <time>2010-01-01T02:50:08Z</time>
      </trkpt>
      <trkpt lat="44.20876" lon="6.13911">
        <ele>1672</ele>
        <time>2010-01-01T02:50:09Z</time>
      </trkpt>
      <trkpt lat="44.20874" lon="6.13914">
        <ele>1672</ele>
        <time>2010-01-01T02:50:10Z</time>
      </trkpt>
      <trkpt lat="44.20871" lon="6.13916">
        <ele>1673</ele>
        <time>2010-01-01T02:50:11Z</time>
      </trkpt>
      <trkpt lat="44.20868" lon="6.1392">
        <ele>1673</ele>
        <time>2010-01-01T02:50:12Z</time>
      </trkpt>
      <trkpt lat="44.20865" lon="6.13923">
        <ele>1673</ele>
        <time>2010-01-01T02:50:13Z</time>
      </trkpt>
      <trkpt lat="44.20862" lon="6.13926">
        <ele>1674</ele>
        <time>2010-01-01T02:50:14Z</time>
      </trkpt>
      <trkpt lat="44.20859" lon="6.13929">
        <ele>1674</ele>
        <time>2010-01-01T02:50:15Z</time>
      </trkpt>
      <trkpt lat="44.20857" lon="6.13933">
        <ele>1673</ele>
        <time>2010-01-01T02:50:16Z</time>
      </trkpt>
      <trkpt lat="44.20854" lon="6.13936">
        <ele>1673</ele>
        <time>2010-01-01T02:50:17Z</time>
      </trkpt>
      <trkpt lat="44.20852" lon="6.13939">
        <ele>1673</ele>
        <time>2010-01-01T02:50:18Z</time>
      </trkpt>
      <trkpt lat="44.2085" lon="6.13943">
        <ele>1673</ele>
        <time>2010-01-01T02:50:19Z</time>
      </trkpt>
      <trkpt lat="44.20847" lon="6.13946">
        <ele>1672</ele>
        <time>2010-01-01T02:50:19Z</time>
      </trkpt>
      <trkpt lat="44.20845" lon="6.13949">
        <ele>1672</ele>
        <time>2010-01-01T02:50:20Z</time>
      </trkpt>
      <trkpt lat="44.20842" lon="6.13952">
        <ele>1672</ele>
        <time>2010-01-01T02:50:21Z</time>
      </trkpt>
      <trkpt lat="44.2084" lon="6.13954">
        <ele>1671</ele>
        <time>2010-01-01T02:50:22Z</time>
      </trkpt>
      <trkpt lat="44.20837" lon="6.13957">
        <ele>1671</ele>
        <time>2010-01-01T02:50:23Z</time>
      </trkpt>
      <trkpt lat="44.20834" lon="6.13958">
        <ele>1672</ele>
        <time>2010-01-01T02:50:24Z</time>
      </trkpt>
      <trkpt lat="44.20832" lon="6.1396">
        <ele>1672</ele>
        <time>2010-01-01T02:50:25Z</time>
      </trkpt>
      <trkpt lat="44.20829" lon="6.13963">
        <ele>1671</ele>
        <time>2010-01-01T02:50:25Z</time>
      </trkpt>
      <trkpt lat="44.20827" lon="6.13966">
        <ele>1671</ele>
        <time>2010-01-01T02:50:26Z</time>
      </trkpt>
      <trkpt lat="44.20824" lon="6.13969">
        <ele>1670</ele>
        <time>2010-01-01T02:50:27Z</time>
      </trkpt>
      <trkpt lat="44.20822" lon="6.13972">
        <ele>1670</ele>
        <time>2010-01-01T02:50:28Z</time>
      </trkpt>
      <trkpt lat="44.20819" lon="6.13974">
        <ele>1670</ele>
        <time>2010-01-01T02:50:29Z</time>
      </trkpt>
      <trkpt lat="44.20816" lon="6.13977">
        <ele>1670</ele>
        <time>2010-01-01T02:50:30Z</time>
      </trkpt>
      <trkpt lat="44.20814" lon="6.1398">
        <ele>1670</ele>
        <time>2010-01-01T02:50:31Z</time>
      </trkpt>
      <trkpt lat="44.20811" lon="6.13983">
        <ele>1670</ele>
        <time>2010-01-01T02:50:32Z</time>
      </trkpt>
      <trkpt lat="44.20807" lon="6.13986">
        <ele>1671</ele>
        <time>2010-01-01T02:50:33Z</time>
      </trkpt>
      <trkpt lat="44.20804" lon="6.13988">
        <ele>1671</ele>
        <time>2010-01-01T02:50:34Z</time>
      </trkpt>
      <trkpt lat="44.20801" lon="6.13991">
        <ele>1672</ele>
        <time>2010-01-01T02:50:35Z</time>
      </trkpt>
      <trkpt lat="44.20797" lon="6.13993">
        <ele>1672</ele>
        <time>2010-01-01T02:50:36Z</time>
      </trkpt>
      <trkpt lat="44.20794" lon="6.13996">
        <ele>1672</ele>
        <time>2010-01-01T02:50:37Z</time>
      </trkpt>
      <trkpt lat="44.20791" lon="6.13999">
        <ele>1673</ele>
        <time>2010-01-01T02:50:38Z</time>
      </trkpt>
      <trkpt lat="44.20788" lon="6.14002">
        <ele>1673</ele>
        <time>2010-01-01T02:50:39Z</time>
      </trkpt>
      <trkpt lat="44.20785" lon="6.14004">
        <ele>1673</ele>
        <time>2010-01-01T02:50:40Z</time>
      </trkpt>
      <trkpt lat="44.20782" lon="6.14006">
        <ele>1673</ele>
        <time>2010-01-01T02:50:41Z</time>
      </trkpt>
      <trkpt lat="44.20778" lon="6.14008">
        <ele>1674</ele>
        <time>2010-01-01T02:50:42Z</time>
      </trkpt>
      <trkpt lat="44.20775" lon="6.1401">
        <ele>1673</ele>
        <time>2010-01-01T02:50:42Z</time>
      </trkpt>
      <trkpt lat="44.20773" lon="6.14013">
        <ele>1673</ele>
        <time>2010-01-01T02:50:43Z</time>
      </trkpt>
      <trkpt lat="44.2077" lon="6.14014">
        <ele>1672</ele>
        <time>2010-01-01T02:50:44Z</time>
      </trkpt>
      <trkpt lat="44.20766" lon="6.14015">
        <ele>1673</ele>
        <time>2010-01-01T02:50:45Z</time>
      </trkpt>
      <trkpt lat="44.20763" lon="6.14016">
        <ele>1673</ele>
        <time>2010-01-01T02:50:46Z</time>
      </trkpt>
      <trkpt lat="44.20761" lon="6.14017">
        <ele>1673</ele>
        <time>2010-01-01T02:50:47Z</time>
      </trkpt>
      <trkpt lat="44.20757" lon="6.14019">
        <ele>1673</ele>
        <time>2010-01-01T02:50:48Z</time>
      </trkpt>
      <trkpt lat="44.20754" lon="6.1402">
        <ele>1673</ele>
        <time>2010-01-01T02:50:49Z</time>
      </trkpt>
      <trkpt lat="44.20751" lon="6.1402">
        <ele>1673</ele>
        <time>2010-01-01T02:50:49Z</time>
      </trkpt>
      <trkpt lat="44.20747" lon="6.1402">
        <ele>1673</ele>
        <time>2010-01-01T02:50:50Z</time>
      </trkpt>
      <trkpt lat="44.20743" lon="6.14022">
        <ele>1671</ele>
        <time>2010-01-01T02:50:51Z</time>
      </trkpt>
      <trkpt lat="44.2074" lon="6.14023">
        <ele>1670</ele>
        <time>2010-01-01T02:50:52Z</time>
      </trkpt>
      <trkpt lat="44.20737" lon="6.14023">
        <ele>1669</ele>
        <time>2010-01-01T02:50:53Z</time>
      </trkpt>
      <trkpt lat="44.20734" lon="6.14023">
        <ele>1669</ele>
        <time>2010-01-01T02:50:54Z</time>
      </trkpt>
      <trkpt lat="44.20731" lon="6.14024">
        <ele>1668</ele>
        <time>2010-01-01T02:50:55Z</time>
      </trkpt>
      <trkpt lat="44.20727" lon="6.14024">
        <ele>1667</ele>
        <time>2010-01-01T02:50:56Z</time>
      </trkpt>
      <trkpt lat="44.20724" lon="6.14023">
        <ele>1666</ele>
        <time>2010-01-01T02:50:57Z</time>
      </trkpt>
      <trkpt lat="44.20721" lon="6.14023">
        <ele>1665</ele>
        <time>2010-01-01T02:50:57Z</time>
      </trkpt>
      <trkpt lat="44.20717" lon="6.14024">
        <ele>1663</ele>
        <time>2010-01-01T02:50:58Z</time>
      </trkpt>
      <trkpt lat="44.20715" lon="6.14024">
        <ele>1662</ele>
        <time>2010-01-01T02:50:59Z</time>
      </trkpt>
      <trkpt lat="44.20723" lon="6.13996">
        <ele>1667</ele>
        <time>2010-01-01T02:51:05Z</time>
      </trkpt>
      <trkpt lat="44.20726" lon="6.13993">
        <ele>1669</ele>
        <time>2010-01-01T02:51:06Z</time>
      </trkpt>
      <trkpt lat="44.20727" lon="6.1399">
        <ele>1670</ele>
        <time>2010-01-01T02:51:07Z</time>
      </trkpt>
      <trkpt lat="44.2073" lon="6.13989">
        <ele>1671</ele>
        <time>2010-01-01T02:51:07Z</time>
      </trkpt>
      <trkpt lat="44.20733" lon="6.13987">
        <ele>1672</ele>
        <time>2010-01-01T02:51:08Z</time>
      </trkpt>
      <trkpt lat="44.20738" lon="6.13973">
        <ele>1676</ele>
        <time>2010-01-01T02:51:11Z</time>
      </trkpt>
      <trkpt lat="44.20741" lon="6.13972">
        <ele>1678</ele>
        <time>2010-01-01T02:51:12Z</time>
      </trkpt>
      <trkpt lat="44.20744" lon="6.1397">
        <ele>1680</ele>
        <time>2010-01-01T02:51:13Z</time>
      </trkpt>
      <trkpt lat="44.20746" lon="6.13968">
        <ele>1681</ele>
        <time>2010-01-01T02:51:14Z</time>
      </trkpt>
      <trkpt lat="44.20748" lon="6.13965">
        <ele>1683</ele>
        <time>2010-01-01T02:51:14Z</time>
      </trkpt>
      <trkpt lat="44.2075" lon="6.13962">
        <ele>1684</ele>
        <time>2010-01-01T02:51:15Z</time>
      </trkpt>
      <trkpt lat="44.20752" lon="6.13958">
        <ele>1685</ele>
        <time>2010-01-01T02:51:16Z</time>
      </trkpt>
      <trkpt lat="44.20753" lon="6.13955">
        <ele>1686</ele>
        <time>2010-01-01T02:51:17Z</time>
      </trkpt>
      <trkpt lat="44.20756" lon="6.13951">
        <ele>1687</ele>
        <time>2010-01-01T02:51:18Z</time>
      </trkpt>
      <trkpt lat="44.20757" lon="6.13948">
        <ele>1687</ele>
        <time>2010-01-01T02:51:18Z</time>
      </trkpt>
      <trkpt lat="44.20757" lon="6.13944">
        <ele>1688</ele>
        <time>2010-01-01T02:51:19Z</time>
      </trkpt>
      <trkpt lat="44.20758" lon="6.1394">
        <ele>1688</ele>
        <time>2010-01-01T02:51:20Z</time>
      </trkpt>
      <trkpt lat="44.2076" lon="6.13873">
        <ele>1685</ele>
        <time>2010-01-01T02:51:33Z</time>
      </trkpt>
      <trkpt lat="44.20765" lon="6.1387">
        <ele>1686</ele>
        <time>2010-01-01T02:51:34Z</time>
      </trkpt>
      <trkpt lat="44.20767" lon="6.13867">
        <ele>1687</ele>
        <time>2010-01-01T02:51:35Z</time>
      </trkpt>
      <trkpt lat="44.20771" lon="6.13866">
        <ele>1689</ele>
        <time>2010-01-01T02:51:36Z</time>
      </trkpt>
      <trkpt lat="44.20774" lon="6.13868">
        <ele>1691</ele>
        <time>2010-01-01T02:51:37Z</time>
      </trkpt>
      <trkpt lat="44.20778" lon="6.13867">
        <ele>1693</ele>
        <time>2010-01-01T02:51:38Z</time>
      </trkpt>
      <trkpt lat="44.20782" lon="6.13866">
        <ele>1694</ele>
        <time>2010-01-01T02:51:39Z</time>
      </trkpt>
      <trkpt lat="44.20785" lon="6.13864">
        <ele>1695</ele>
        <time>2010-01-01T02:51:40Z</time>
      </trkpt>
      <trkpt lat="44.20786" lon="6.1386">
        <ele>1694</ele>
        <time>2010-01-01T02:51:41Z</time>
      </trkpt>
      <trkpt lat="44.20787" lon="6.13856">
        <ele>1694</ele>
        <time>2010-01-01T02:51:42Z</time>
      </trkpt>
      <trkpt lat="44.20787" lon="6.13851">
        <ele>1693</ele>
        <time>2010-01-01T02:51:43Z</time>
      </trkpt>
      <trkpt lat="44.20789" lon="6.13847">
        <ele>1693</ele>
        <time>2010-01-01T02:51:44Z</time>
      </trkpt>
      <trkpt lat="44.20793" lon="6.13844">
        <ele>1694</ele>
        <time>2010-01-01T02:51:45Z</time>
      </trkpt>
      <trkpt lat="44.20797" lon="6.13838">
        <ele>1694</ele>
        <time>2010-01-01T02:51:46Z</time>
      </trkpt>
      <trkpt lat="44.20799" lon="6.13835">
        <ele>1695</ele>
        <time>2010-01-01T02:51:47Z</time>
      </trkpt>
      <trkpt lat="44.20802" lon="6.13832">
        <ele>1695</ele>
        <time>2010-01-01T02:51:48Z</time>
      </trkpt>
      <trkpt lat="44.20805" lon="6.13829">
        <ele>1696</ele>
        <time>2010-01-01T02:51:49Z</time>
      </trkpt>
      <trkpt lat="44.20807" lon="6.13828">
        <ele>1696</ele>
        <time>2010-01-01T02:51:50Z</time>
      </trkpt>
      <trkpt lat="44.20811" lon="6.13828">
        <ele>1696</ele>
        <time>2010-01-01T02:51:51Z</time>
      </trkpt>
      <trkpt lat="44.20814" lon="6.1383">
        <ele>1696</ele>
        <time>2010-01-01T02:51:51Z</time>
      </trkpt>
      <trkpt lat="44.20816" lon="6.13827">
        <ele>1695</ele>
        <time>2010-01-01T02:51:52Z</time>
      </trkpt>
      <trkpt lat="44.20818" lon="6.13823">
        <ele>1695</ele>
        <time>2010-01-01T02:51:53Z</time>
      </trkpt>
      <trkpt lat="44.20818" lon="6.13819">
        <ele>1694</ele>
        <time>2010-01-01T02:51:54Z</time>
      </trkpt>
      <trkpt lat="44.20818" lon="6.13815">
        <ele>1693</ele>
        <time>2010-01-01T02:51:55Z</time>
      </trkpt>
      <trkpt lat="44.20818" lon="6.13811">
        <ele>1692</ele>
        <time>2010-01-01T02:51:55Z</time>
      </trkpt>
      <trkpt lat="44.20817" lon="6.13807">
        <ele>1691</ele>
        <time>2010-01-01T02:51:56Z</time>
      </trkpt>
      <trkpt lat="44.20818" lon="6.13804">
        <ele>1690</ele>
        <time>2010-01-01T02:51:57Z</time>
      </trkpt>
      <trkpt lat="44.20819" lon="6.138">
        <ele>1689</ele>
        <time>2010-01-01T02:51:58Z</time>
      </trkpt>
      <trkpt lat="44.2082" lon="6.13796">
        <ele>1688</ele>
        <time>2010-01-01T02:51:59Z</time>
      </trkpt>
      <trkpt lat="44.20821" lon="6.13792">
        <ele>1688</ele>
        <time>2010-01-01T02:51:59Z</time>
      </trkpt>
      <trkpt lat="44.20822" lon="6.13788">
        <ele>1687</ele>
        <time>2010-01-01T02:52:00Z</time>
      </trkpt>
      <trkpt lat="44.20824" lon="6.13784">
        <ele>1687</ele>
        <time>2010-01-01T02:52:01Z</time>
      </trkpt>
      <trkpt lat="44.20826" lon="6.13782">
        <ele>1687</ele>
        <time>2010-01-01T02:52:02Z</time>
      </trkpt>
      <trkpt lat="44.20829" lon="6.13779">
        <ele>1688</ele>
        <time>2010-01-01T02:52:03Z</time>
      </trkpt>
      <trkpt lat="44.20832" lon="6.13778">
        <ele>1689</ele>
        <time>2010-01-01T02:52:03Z</time>
      </trkpt>
      <trkpt lat="44.20835" lon="6.13776">
        <ele>1690</ele>
        <time>2010-01-01T02:52:04Z</time>
      </trkpt>
      <trkpt lat="44.20838" lon="6.13774">
        <ele>1690</ele>
        <time>2010-01-01T02:52:05Z</time>
      </trkpt>
      <trkpt lat="44.20841" lon="6.13772">
        <ele>1691</ele>
        <time>2010-01-01T02:52:06Z</time>
      </trkpt>
      <trkpt lat="44.20842" lon="6.13768">
        <ele>1690</ele>
        <time>2010-01-01T02:52:07Z</time>
      </trkpt>
      <trkpt lat="44.20844" lon="6.13765">
        <ele>1690</ele>
        <time>2010-01-01T02:52:08Z</time>
      </trkpt>
      <trkpt lat="44.20846" lon="6.13762">
        <ele>1691</ele>
        <time>2010-01-01T02:52:09Z</time>
      </trkpt>
      <trkpt lat="44.20848" lon="6.13759">
        <ele>1691</ele>
        <time>2010-01-01T02:52:09Z</time>
      </trkpt>
      <trkpt lat="44.20852" lon="6.13759">
        <ele>1692</ele>
        <time>2010-01-01T02:52:10Z</time>
      </trkpt>
      <trkpt lat="44.20855" lon="6.13756">
        <ele>1693</ele>
        <time>2010-01-01T02:52:11Z</time>
      </trkpt>
      <trkpt lat="44.20858" lon="6.13755">
        <ele>1694</ele>
        <time>2010-01-01T02:52:12Z</time>
      </trkpt>
      <trkpt lat="44.20861" lon="6.13753">
        <ele>1695</ele>
        <time>2010-01-01T02:52:13Z</time>
      </trkpt>
      <trkpt lat="44.20863" lon="6.13751">
        <ele>1695</ele>
        <time>2010-01-01T02:52:14Z</time>
      </trkpt>
      <trkpt lat="44.20864" lon="6.13747">
        <ele>1694</ele>
        <time>2010-01-01T02:52:14Z</time>
      </trkpt>
      <trkpt lat="44.20867" lon="6.13746">
        <ele>1694</ele>
        <time>2010-01-01T02:52:15Z</time>
      </trkpt>
      <trkpt lat="44.2087" lon="6.13745">
        <ele>1694</ele>
        <time>2010-01-01T02:52:16Z</time>
      </trkpt>
      <trkpt lat="44.20873" lon="6.13744">
        <ele>1694</ele>
        <time>2010-01-01T02:52:17Z</time>
      </trkpt>
      <trkpt lat="44.20876" lon="6.13743">
        <ele>1694</ele>
        <time>2010-01-01T02:52:18Z</time>
      </trkpt>
      <trkpt lat="44.20879" lon="6.13742">
        <ele>1694</ele>
        <time>2010-01-01T02:52:18Z</time>
      </trkpt>
      <trkpt lat="44.20882" lon="6.1374">
        <ele>1694</ele>
        <time>2010-01-01T02:52:19Z</time>
      </trkpt>
      <trkpt lat="44.20884" lon="6.13736">
        <ele>1694</ele>
        <time>2010-01-01T02:52:20Z</time>
      </trkpt>
      <trkpt lat="44.20885" lon="6.13732">
        <ele>1693</ele>
        <time>2010-01-01T02:52:21Z</time>
      </trkpt>
      <trkpt lat="44.20887" lon="6.13729">
        <ele>1693</ele>
        <time>2010-01-01T02:52:22Z</time>
      </trkpt>
      <trkpt lat="44.20889" lon="6.13727">
        <ele>1694</ele>
        <time>2010-01-01T02:52:22Z</time>
      </trkpt>
      <trkpt lat="44.20892" lon="6.13725">
        <ele>1694</ele>
        <time>2010-01-01T02:52:23Z</time>
      </trkpt>
      <trkpt lat="44.20895" lon="6.13722">
        <ele>1695</ele>
        <time>2010-01-01T02:52:24Z</time>
      </trkpt>
      <trkpt lat="44.20898" lon="6.1372">
        <ele>1695</ele>
        <time>2010-01-01T02:52:25Z</time>
      </trkpt>
      <trkpt lat="44.209" lon="6.13717">
        <ele>1696</ele>
        <time>2010-01-01T02:52:26Z</time>
      </trkpt>
      <trkpt lat="44.20902" lon="6.13714">
        <ele>1696</ele>
        <time>2010-01-01T02:52:27Z</time>
      </trkpt>
      <trkpt lat="44.20904" lon="6.13711">
        <ele>1697</ele>
        <time>2010-01-01T02:52:28Z</time>
      </trkpt>
      <trkpt lat="44.20906" lon="6.13707">
        <ele>1697</ele>
        <time>2010-01-01T02:52:28Z</time>
      </trkpt>
      <trkpt lat="44.20908" lon="6.13703">
        <ele>1698</ele>
        <time>2010-01-01T02:52:29Z</time>
      </trkpt>
      <trkpt lat="44.20909" lon="6.13699">
        <ele>1698</ele>
        <time>2010-01-01T02:52:30Z</time>
      </trkpt>
      <trkpt lat="44.20911" lon="6.13695">
        <ele>1699</ele>
        <time>2010-01-01T02:52:31Z</time>
      </trkpt>
      <trkpt lat="44.20913" lon="6.13692">
        <ele>1699</ele>
        <time>2010-01-01T02:52:32Z</time>
      </trkpt>
      <trkpt lat="44.20915" lon="6.13688">
        <ele>1700</ele>
        <time>2010-01-01T02:52:33Z</time>
      </trkpt>
      <trkpt lat="44.20917" lon="6.13685">
        <ele>1700</ele>
        <time>2010-01-01T02:52:34Z</time>
      </trkpt>
      <trkpt lat="44.20919" lon="6.13681">
        <ele>1700</ele>
        <time>2010-01-01T02:52:34Z</time>
      </trkpt>
      <trkpt lat="44.2092" lon="6.13678">
        <ele>1700</ele>
        <time>2010-01-01T02:52:35Z</time>
      </trkpt>
      <trkpt lat="44.20921" lon="6.13673">
        <ele>1700</ele>
        <time>2010-01-01T02:52:36Z</time>
      </trkpt>
      <trkpt lat="44.20923" lon="6.13669">
        <ele>1700</ele>
        <time>2010-01-01T02:52:37Z</time>
      </trkpt>
      <trkpt lat="44.20925" lon="6.13665">
        <ele>1699</ele>
        <time>2010-01-01T02:52:38Z</time>
      </trkpt>
      <trkpt lat="44.20926" lon="6.1366">
        <ele>1699</ele>
        <time>2010-01-01T02:52:39Z</time>
      </trkpt>
      <trkpt lat="44.20928" lon="6.13658">
        <ele>1699</ele>
        <time>2010-01-01T02:52:40Z</time>
      </trkpt>
      <trkpt lat="44.2093" lon="6.13654">
        <ele>1699</ele>
        <time>2010-01-01T02:52:40Z</time>
      </trkpt>
      <trkpt lat="44.20929" lon="6.1365">
        <ele>1699</ele>
        <time>2010-01-01T02:52:41Z</time>
      </trkpt>
      <trkpt lat="44.2093" lon="6.13645">
        <ele>1699</ele>
        <time>2010-01-01T02:52:42Z</time>
      </trkpt>
      <trkpt lat="44.20932" lon="6.13639">
        <ele>1699</ele>
        <time>2010-01-01T02:52:43Z</time>
      </trkpt>
      <trkpt lat="44.20932" lon="6.13635">
        <ele>1699</ele>
        <time>2010-01-01T02:52:44Z</time>
      </trkpt>
      <trkpt lat="44.20932" lon="6.13631">
        <ele>1698</ele>
        <time>2010-01-01T02:52:45Z</time>
      </trkpt>
      <trkpt lat="44.20933" lon="6.13626">
        <ele>1697</ele>
        <time>2010-01-01T02:52:46Z</time>
      </trkpt>
      <trkpt lat="44.20935" lon="6.13621">
        <ele>1697</ele>
        <time>2010-01-01T02:52:47Z</time>
      </trkpt>
      <trkpt lat="44.20937" lon="6.13617">
        <ele>1698</ele>
        <time>2010-01-01T02:52:48Z</time>
      </trkpt>
      <trkpt lat="44.20939" lon="6.13614">
        <ele>1698</ele>
        <time>2010-01-01T02:52:49Z</time>
      </trkpt>
      <trkpt lat="44.20941" lon="6.1361">
        <ele>1699</ele>
        <time>2010-01-01T02:52:50Z</time>
      </trkpt>
      <trkpt lat="44.20942" lon="6.13606">
        <ele>1699</ele>
        <time>2010-01-01T02:52:51Z</time>
      </trkpt>
      <trkpt lat="44.20944" lon="6.13601">
        <ele>1699</ele>
        <time>2010-01-01T02:52:52Z</time>
      </trkpt>
      <trkpt lat="44.20946" lon="6.13597">
        <ele>1700</ele>
        <time>2010-01-01T02:52:52Z</time>
      </trkpt>
      <trkpt lat="44.20948" lon="6.13594">
        <ele>1700</ele>
        <time>2010-01-01T02:52:53Z</time>
      </trkpt>
      <trkpt lat="44.2095" lon="6.1359">
        <ele>1700</ele>
        <time>2010-01-01T02:52:54Z</time>
      </trkpt>
      <trkpt lat="44.20951" lon="6.13587">
        <ele>1700</ele>
        <time>2010-01-01T02:52:55Z</time>
      </trkpt>
      <trkpt lat="44.20951" lon="6.13582">
        <ele>1700</ele>
        <time>2010-01-01T02:52:56Z</time>
      </trkpt>
      <trkpt lat="44.20952" lon="6.13578">
        <ele>1700</ele>
        <time>2010-01-01T02:52:57Z</time>
      </trkpt>
      <trkpt lat="44.20952" lon="6.13574">
        <ele>1700</ele>
        <time>2010-01-01T02:52:57Z</time>
      </trkpt>
      <trkpt lat="44.20952" lon="6.13569">
        <ele>1700</ele>
        <time>2010-01-01T02:52:58Z</time>
      </trkpt>
      <trkpt lat="44.20953" lon="6.13565">
        <ele>1700</ele>
        <time>2010-01-01T02:52:59Z</time>
      </trkpt>
      <trkpt lat="44.20954" lon="6.13561">
        <ele>1701</ele>
        <time>2010-01-01T02:53:00Z</time>
      </trkpt>
      <trkpt lat="44.20957" lon="6.13557">
        <ele>1702</ele>
        <time>2010-01-01T02:53:01Z</time>
      </trkpt>
      <trkpt lat="44.20959" lon="6.13553">
        <ele>1702</ele>
        <time>2010-01-01T02:53:02Z</time>
      </trkpt>
      <trkpt lat="44.2096" lon="6.13549">
        <ele>1703</ele>
        <time>2010-01-01T02:53:03Z</time>
      </trkpt>
      <trkpt lat="44.20961" lon="6.13546">
        <ele>1704</ele>
        <time>2010-01-01T02:53:04Z</time>
      </trkpt>
      <trkpt lat="44.20963" lon="6.13542">
        <ele>1704</ele>
        <time>2010-01-01T02:53:04Z</time>
      </trkpt>
      <trkpt lat="44.20965" lon="6.13538">
        <ele>1705</ele>
        <time>2010-01-01T02:53:05Z</time>
      </trkpt>
      <trkpt lat="44.20966" lon="6.13534">
        <ele>1706</ele>
        <time>2010-01-01T02:53:06Z</time>
      </trkpt>
      <trkpt lat="44.20968" lon="6.13531">
        <ele>1707</ele>
        <time>2010-01-01T02:53:07Z</time>
      </trkpt>
      <trkpt lat="44.2097" lon="6.13527">
        <ele>1708</ele>
        <time>2010-01-01T02:53:08Z</time>
      </trkpt>
      <trkpt lat="44.20971" lon="6.13523">
        <ele>1708</ele>
        <time>2010-01-01T02:53:09Z</time>
      </trkpt>
      <trkpt lat="44.20973" lon="6.1352">
        <ele>1709</ele>
        <time>2010-01-01T02:53:09Z</time>
      </trkpt>
      <trkpt lat="44.20974" lon="6.13516">
        <ele>1709</ele>
        <time>2010-01-01T02:53:10Z</time>
      </trkpt>
      <trkpt lat="44.20976" lon="6.13513">
        <ele>1709</ele>
        <time>2010-01-01T02:53:11Z</time>
      </trkpt>
      <trkpt lat="44.20978" lon="6.13509">
        <ele>1709</ele>
        <time>2010-01-01T02:53:12Z</time>
      </trkpt>
      <trkpt lat="44.2098" lon="6.13505">
        <ele>1709</ele>
        <time>2010-01-01T02:53:13Z</time>
      </trkpt>
      <trkpt lat="44.20981" lon="6.13501">
        <ele>1709</ele>
        <time>2010-01-01T02:53:14Z</time>
      </trkpt>
      <trkpt lat="44.20983" lon="6.13497">
        <ele>1709</ele>
        <time>2010-01-01T02:53:14Z</time>
      </trkpt>
      <trkpt lat="44.20985" lon="6.13492">
        <ele>1709</ele>
        <time>2010-01-01T02:53:15Z</time>
      </trkpt>
      <trkpt lat="44.20987" lon="6.13487">
        <ele>1708</ele>
        <time>2010-01-01T02:53:17Z</time>
      </trkpt>
      <trkpt lat="44.20989" lon="6.13482">
        <ele>1708</ele>
        <time>2010-01-01T02:53:18Z</time>
      </trkpt>
      <trkpt lat="44.20993" lon="6.13477">
        <ele>1709</ele>
        <time>2010-01-01T02:53:19Z</time>
      </trkpt>
      <trkpt lat="44.20996" lon="6.13474">
        <ele>1709</ele>
        <time>2010-01-01T02:53:20Z</time>
      </trkpt>
      <trkpt lat="44.20997" lon="6.13469">
        <ele>1709</ele>
        <time>2010-01-01T02:53:21Z</time>
      </trkpt>
      <trkpt lat="44.21" lon="6.13465">
        <ele>1709</ele>
        <time>2010-01-01T02:53:22Z</time>
      </trkpt>
      <trkpt lat="44.21002" lon="6.1346">
        <ele>1709</ele>
        <time>2010-01-01T02:53:23Z</time>
      </trkpt>
      <trkpt lat="44.21005" lon="6.13455">
        <ele>1709</ele>
        <time>2010-01-01T02:53:24Z</time>
      </trkpt>
      <trkpt lat="44.21007" lon="6.1345">
        <ele>1709</ele>
        <time>2010-01-01T02:53:26Z</time>
      </trkpt>
      <trkpt lat="44.21008" lon="6.13447">
        <ele>1709</ele>
        <time>2010-01-01T02:53:26Z</time>
      </trkpt>
      <trkpt lat="44.2101" lon="6.13442">
        <ele>1709</ele>
        <time>2010-01-01T02:53:27Z</time>
      </trkpt>
      <trkpt lat="44.21012" lon="6.13436">
        <ele>1709</ele>
        <time>2010-01-01T02:53:29Z</time>
      </trkpt>
      <trkpt lat="44.21014" lon="6.13431">
        <ele>1709</ele>
        <time>2010-01-01T02:53:30Z</time>
      </trkpt>
      <trkpt lat="44.21015" lon="6.13425">
        <ele>1709</ele>
        <time>2010-01-01T02:53:31Z</time>
      </trkpt>
      <trkpt lat="44.21017" lon="6.13421">
        <ele>1710</ele>
        <time>2010-01-01T02:53:32Z</time>
      </trkpt>
      <trkpt lat="44.21018" lon="6.13418">
        <ele>1710</ele>
        <time>2010-01-01T02:53:32Z</time>
      </trkpt>
      <trkpt lat="44.2102" lon="6.13415">
        <ele>1711</ele>
        <time>2010-01-01T02:53:33Z</time>
      </trkpt>
      <trkpt lat="44.21022" lon="6.13411">
        <ele>1711</ele>
        <time>2010-01-01T02:53:34Z</time>
      </trkpt>
      <trkpt lat="44.21023" lon="6.13407">
        <ele>1711</ele>
        <time>2010-01-01T02:53:35Z</time>
      </trkpt>
      <trkpt lat="44.21025" lon="6.13403">
        <ele>1712</ele>
        <time>2010-01-01T02:53:36Z</time>
      </trkpt>
      <trkpt lat="44.21027" lon="6.134">
        <ele>1712</ele>
        <time>2010-01-01T02:53:37Z</time>
      </trkpt>
      <trkpt lat="44.2103" lon="6.13397">
        <ele>1713</ele>
        <time>2010-01-01T02:53:38Z</time>
      </trkpt>
      <trkpt lat="44.21032" lon="6.13394">
        <ele>1714</ele>
        <time>2010-01-01T02:53:38Z</time>
      </trkpt>
      <trkpt lat="44.21034" lon="6.13391">
        <ele>1714</ele>
        <time>2010-01-01T02:53:39Z</time>
      </trkpt>
      <trkpt lat="44.21037" lon="6.13388">
        <ele>1715</ele>
        <time>2010-01-01T02:53:40Z</time>
      </trkpt>
      <trkpt lat="44.21038" lon="6.13384">
        <ele>1715</ele>
        <time>2010-01-01T02:53:41Z</time>
      </trkpt>
      <trkpt lat="44.2104" lon="6.1338">
        <ele>1715</ele>
        <time>2010-01-01T02:53:42Z</time>
      </trkpt>
      <trkpt lat="44.21041" lon="6.13376">
        <ele>1716</ele>
        <time>2010-01-01T02:53:43Z</time>
      </trkpt>
      <trkpt lat="44.21043" lon="6.13373">
        <ele>1716</ele>
        <time>2010-01-01T02:53:43Z</time>
      </trkpt>
      <trkpt lat="44.21045" lon="6.1337">
        <ele>1717</ele>
        <time>2010-01-01T02:53:44Z</time>
      </trkpt>
      <trkpt lat="44.21047" lon="6.13367">
        <ele>1717</ele>
        <time>2010-01-01T02:53:45Z</time>
      </trkpt>
      <trkpt lat="44.21049" lon="6.13363">
        <ele>1718</ele>
        <time>2010-01-01T02:53:46Z</time>
      </trkpt>
      <trkpt lat="44.21051" lon="6.1336">
        <ele>1719</ele>
        <time>2010-01-01T02:53:47Z</time>
      </trkpt>
      <trkpt lat="44.21053" lon="6.13356">
        <ele>1719</ele>
        <time>2010-01-01T02:53:48Z</time>
      </trkpt>
      <trkpt lat="44.21054" lon="6.13352">
        <ele>1719</ele>
        <time>2010-01-01T02:53:48Z</time>
      </trkpt>
      <trkpt lat="44.21055" lon="6.13347">
        <ele>1718</ele>
        <time>2010-01-01T02:53:49Z</time>
      </trkpt>
      <trkpt lat="44.21056" lon="6.13344">
        <ele>1718</ele>
        <time>2010-01-01T02:53:50Z</time>
      </trkpt>
      <trkpt lat="44.21057" lon="6.1334">
        <ele>1718</ele>
        <time>2010-01-01T02:53:51Z</time>
      </trkpt>
      <trkpt lat="44.21059" lon="6.13336">
        <ele>1718</ele>
        <time>2010-01-01T02:53:52Z</time>
      </trkpt>
      <trkpt lat="44.21061" lon="6.13333">
        <ele>1718</ele>
        <time>2010-01-01T02:53:53Z</time>
      </trkpt>
      <trkpt lat="44.21062" lon="6.13329">
        <ele>1717</ele>
        <time>2010-01-01T02:53:53Z</time>
      </trkpt>
      <trkpt lat="44.21064" lon="6.13326">
        <ele>1717</ele>
        <time>2010-01-01T02:53:54Z</time>
      </trkpt>
      <trkpt lat="44.21066" lon="6.13322">
        <ele>1717</ele>
        <time>2010-01-01T02:53:55Z</time>
      </trkpt>
      <trkpt lat="44.21068" lon="6.13319">
        <ele>1717</ele>
        <time>2010-01-01T02:53:56Z</time>
      </trkpt>
      <trkpt lat="44.21072" lon="6.13314">
        <ele>1718</ele>
        <time>2010-01-01T02:53:57Z</time>
      </trkpt>
      <trkpt lat="44.21074" lon="6.1331">
        <ele>1718</ele>
        <time>2010-01-01T02:53:58Z</time>
      </trkpt>
      <trkpt lat="44.21077" lon="6.13306">
        <ele>1718</ele>
        <time>2010-01-01T02:53:59Z</time>
      </trkpt>
      <trkpt lat="44.21081" lon="6.13302">
        <ele>1718</ele>
        <time>2010-01-01T02:54:01Z</time>
      </trkpt>
      <trkpt lat="44.21084" lon="6.13299">
        <ele>1719</ele>
        <time>2010-01-01T02:54:02Z</time>
      </trkpt>
      <trkpt lat="44.21086" lon="6.13295">
        <ele>1719</ele>
        <time>2010-01-01T02:54:02Z</time>
      </trkpt>
      <trkpt lat="44.21088" lon="6.13292">
        <ele>1719</ele>
        <time>2010-01-01T02:54:03Z</time>
      </trkpt>
      <trkpt lat="44.21089" lon="6.13289">
        <ele>1719</ele>
        <time>2010-01-01T02:54:04Z</time>
      </trkpt>
      <trkpt lat="44.21091" lon="6.13285">
        <ele>1719</ele>
        <time>2010-01-01T02:54:05Z</time>
      </trkpt>
      <trkpt lat="44.21093" lon="6.13281">
        <ele>1719</ele>
        <time>2010-01-01T02:54:06Z</time>
      </trkpt>
      <trkpt lat="44.21095" lon="6.13278">
        <ele>1719</ele>
        <time>2010-01-01T02:54:07Z</time>
      </trkpt>
      <trkpt lat="44.21096" lon="6.13274">
        <ele>1719</ele>
        <time>2010-01-01T02:54:08Z</time>
      </trkpt>
      <trkpt lat="44.21098" lon="6.13269">
        <ele>1719</ele>
        <time>2010-01-01T02:54:09Z</time>
      </trkpt>
      <trkpt lat="44.21099" lon="6.13263">
        <ele>1719</ele>
        <time>2010-01-01T02:54:10Z</time>
      </trkpt>
      <trkpt lat="44.211" lon="6.13257">
        <ele>1719</ele>
        <time>2010-01-01T02:54:11Z</time>
      </trkpt>
      <trkpt lat="44.21102" lon="6.13251">
        <ele>1719</ele>
        <time>2010-01-01T02:54:12Z</time>
      </trkpt>
      <trkpt lat="44.21105" lon="6.13245">
        <ele>1720</ele>
        <time>2010-01-01T02:54:14Z</time>
      </trkpt>
      <trkpt lat="44.21106" lon="6.13241">
        <ele>1720</ele>
        <time>2010-01-01T02:54:14Z</time>
      </trkpt>
      <trkpt lat="44.21107" lon="6.13238">
        <ele>1720</ele>
        <time>2010-01-01T02:54:15Z</time>
      </trkpt>
      <trkpt lat="44.21109" lon="6.13234">
        <ele>1720</ele>
        <time>2010-01-01T02:54:16Z</time>
      </trkpt>
      <trkpt lat="44.2111" lon="6.1323">
        <ele>1721</ele>
        <time>2010-01-01T02:54:17Z</time>
      </trkpt>
      <trkpt lat="44.21112" lon="6.13226">
        <ele>1721</ele>
        <time>2010-01-01T02:54:18Z</time>
      </trkpt>
      <trkpt lat="44.21114" lon="6.13221">
        <ele>1721</ele>
        <time>2010-01-01T02:54:19Z</time>
      </trkpt>
      <trkpt lat="44.21116" lon="6.13215">
        <ele>1720</ele>
        <time>2010-01-01T02:54:20Z</time>
      </trkpt>
      <trkpt lat="44.21118" lon="6.13209">
        <ele>1719</ele>
        <time>2010-01-01T02:54:21Z</time>
      </trkpt>
      <trkpt lat="44.21121" lon="6.13205">
        <ele>1719</ele>
        <time>2010-01-01T02:54:22Z</time>
      </trkpt>
      <trkpt lat="44.21122" lon="6.13202">
        <ele>1719</ele>
        <time>2010-01-01T02:54:23Z</time>
      </trkpt>
      <trkpt lat="44.21125" lon="6.13195">
        <ele>1718</ele>
        <time>2010-01-01T02:54:24Z</time>
      </trkpt>
      <trkpt lat="44.2113" lon="6.13188">
        <ele>1717</ele>
        <time>2010-01-01T02:54:26Z</time>
      </trkpt>
      <trkpt lat="44.21133" lon="6.13183">
        <ele>1717</ele>
        <time>2010-01-01T02:54:28Z</time>
      </trkpt>
      <trkpt lat="44.21137" lon="6.13178">
        <ele>1717</ele>
        <time>2010-01-01T02:54:29Z</time>
      </trkpt>
      <trkpt lat="44.21141" lon="6.13173">
        <ele>1716</ele>
        <time>2010-01-01T02:54:30Z</time>
      </trkpt>
      <trkpt lat="44.21144" lon="6.13169">
        <ele>1714</ele>
        <time>2010-01-01T02:54:32Z</time>
      </trkpt>
      <trkpt lat="44.21147" lon="6.13161">
        <ele>1713</ele>
        <time>2010-01-01T02:54:33Z</time>
      </trkpt>
      <trkpt lat="44.21149" lon="6.13154">
        <ele>1711</ele>
        <time>2010-01-01T02:54:35Z</time>
      </trkpt>
      <trkpt lat="44.21152" lon="6.13148">
        <ele>1710</ele>
        <time>2010-01-01T02:54:36Z</time>
      </trkpt>
      <trkpt lat="44.21154" lon="6.13141">
        <ele>1709</ele>
        <time>2010-01-01T02:54:38Z</time>
      </trkpt>
      <trkpt lat="44.21155" lon="6.13133">
        <ele>1708</ele>
        <time>2010-01-01T02:54:39Z</time>
      </trkpt>
      <trkpt lat="44.21157" lon="6.13126">
        <ele>1707</ele>
        <time>2010-01-01T02:54:41Z</time>
      </trkpt>
      <trkpt lat="44.21159" lon="6.13118">
        <ele>1706</ele>
        <time>2010-01-01T02:54:42Z</time>
      </trkpt>
      <trkpt lat="44.21161" lon="6.13111">
        <ele>1706</ele>
        <time>2010-01-01T02:54:44Z</time>
      </trkpt>
      <trkpt lat="44.21164" lon="6.13106">
        <ele>1707</ele>
        <time>2010-01-01T02:54:45Z</time>
      </trkpt>
      <trkpt lat="44.21166" lon="6.13102">
        <ele>1707</ele>
        <time>2010-01-01T02:54:46Z</time>
      </trkpt>
      <trkpt lat="44.21168" lon="6.13099">
        <ele>1708</ele>
        <time>2010-01-01T02:54:47Z</time>
      </trkpt>
      <trkpt lat="44.21171" lon="6.13096">
        <ele>1708</ele>
        <time>2010-01-01T02:54:47Z</time>
      </trkpt>
      <trkpt lat="44.21174" lon="6.13094">
        <ele>1708</ele>
        <time>2010-01-01T02:54:48Z</time>
      </trkpt>
      <trkpt lat="44.21177" lon="6.13091">
        <ele>1708</ele>
        <time>2010-01-01T02:54:49Z</time>
      </trkpt>
      <trkpt lat="44.21178" lon="6.13088">
        <ele>1709</ele>
        <time>2010-01-01T02:54:50Z</time>
      </trkpt>
      <trkpt lat="44.2118" lon="6.13084">
        <ele>1709</ele>
        <time>2010-01-01T02:54:51Z</time>
      </trkpt>
      <trkpt lat="44.21183" lon="6.13081">
        <ele>1709</ele>
        <time>2010-01-01T02:54:52Z</time>
      </trkpt>
      <trkpt lat="44.21185" lon="6.13077">
        <ele>1709</ele>
        <time>2010-01-01T02:54:53Z</time>
      </trkpt>
      <trkpt lat="44.21188" lon="6.13073">
        <ele>1710</ele>
        <time>2010-01-01T02:54:54Z</time>
      </trkpt>
      <trkpt lat="44.21191" lon="6.13068">
        <ele>1711</ele>
        <time>2010-01-01T02:54:55Z</time>
      </trkpt>
      <trkpt lat="44.21195" lon="6.13063">
        <ele>1711</ele>
        <time>2010-01-01T02:54:57Z</time>
      </trkpt>
      <trkpt lat="44.21198" lon="6.13058">
        <ele>1711</ele>
        <time>2010-01-01T02:54:58Z</time>
      </trkpt>
      <trkpt lat="44.212" lon="6.13054">
        <ele>1710</ele>
        <time>2010-01-01T02:54:59Z</time>
      </trkpt>
      <trkpt lat="44.21203" lon="6.13049">
        <ele>1710</ele>
        <time>2010-01-01T02:55:00Z</time>
      </trkpt>
      <trkpt lat="44.21205" lon="6.13046">
        <ele>1709</ele>
        <time>2010-01-01T02:55:01Z</time>
      </trkpt>
      <trkpt lat="44.21207" lon="6.13043">
        <ele>1709</ele>
        <time>2010-01-01T02:55:02Z</time>
      </trkpt>
      <trkpt lat="44.21209" lon="6.1304">
        <ele>1709</ele>
        <time>2010-01-01T02:55:02Z</time>
      </trkpt>
      <trkpt lat="44.21211" lon="6.13037">
        <ele>1709</ele>
        <time>2010-01-01T02:55:03Z</time>
      </trkpt>
      <trkpt lat="44.21213" lon="6.13034">
        <ele>1709</ele>
        <time>2010-01-01T02:55:04Z</time>
      </trkpt>
      <trkpt lat="44.21215" lon="6.1303">
        <ele>1709</ele>
        <time>2010-01-01T02:55:05Z</time>
      </trkpt>
      <trkpt lat="44.21217" lon="6.13027">
        <ele>1709</ele>
        <time>2010-01-01T02:55:06Z</time>
      </trkpt>
      <trkpt lat="44.21219" lon="6.13024">
        <ele>1709</ele>
        <time>2010-01-01T02:55:06Z</time>
      </trkpt>
      <trkpt lat="44.21224" lon="6.13024">
        <ele>1709</ele>
        <time>2010-01-01T02:55:08Z</time>
      </trkpt>
      <trkpt lat="44.21229" lon="6.13022">
        <ele>1708</ele>
        <time>2010-01-01T02:55:09Z</time>
      </trkpt>
      <trkpt lat="44.21232" lon="6.1302">
        <ele>1708</ele>
        <time>2010-01-01T02:55:10Z</time>
      </trkpt>
      <trkpt lat="44.21235" lon="6.13018">
        <ele>1708</ele>
        <time>2010-01-01T02:55:11Z</time>
      </trkpt>
      <trkpt lat="44.21237" lon="6.13016">
        <ele>1707</ele>
        <time>2010-01-01T02:55:12Z</time>
      </trkpt>
      <trkpt lat="44.21241" lon="6.13012">
        <ele>1707</ele>
        <time>2010-01-01T02:55:13Z</time>
      </trkpt>
      <trkpt lat="44.21244" lon="6.13009">
        <ele>1707</ele>
        <time>2010-01-01T02:55:14Z</time>
      </trkpt>
      <trkpt lat="44.21249" lon="6.13007">
        <ele>1707</ele>
        <time>2010-01-01T02:55:15Z</time>
      </trkpt>
      <trkpt lat="44.21252" lon="6.13005">
        <ele>1706</ele>
        <time>2010-01-01T02:55:16Z</time>
      </trkpt>
      <trkpt lat="44.21256" lon="6.13004">
        <ele>1705</ele>
        <time>2010-01-01T02:55:17Z</time>
      </trkpt>
      <trkpt lat="44.21259" lon="6.13002">
        <ele>1704</ele>
        <time>2010-01-01T02:55:18Z</time>
      </trkpt>
      <trkpt lat="44.21263" lon="6.13">
        <ele>1704</ele>
        <time>2010-01-01T02:55:19Z</time>
      </trkpt>
      <trkpt lat="44.21266" lon="6.12997">
        <ele>1703</ele>
        <time>2010-01-01T02:55:20Z</time>
      </trkpt>
      <trkpt lat="44.2127" lon="6.12995">
        <ele>1702</ele>
        <time>2010-01-01T02:55:21Z</time>
      </trkpt>
      <trkpt lat="44.21273" lon="6.12993">
        <ele>1701</ele>
        <time>2010-01-01T02:55:22Z</time>
      </trkpt>
      <trkpt lat="44.21275" lon="6.12991">
        <ele>1701</ele>
        <time>2010-01-01T02:55:23Z</time>
      </trkpt>
      <trkpt lat="44.21281" lon="6.12986">
        <ele>1699</ele>
        <time>2010-01-01T02:55:25Z</time>
      </trkpt>
      <trkpt lat="44.21284" lon="6.12983">
        <ele>1698</ele>
        <time>2010-01-01T02:55:26Z</time>
      </trkpt>
      <trkpt lat="44.21287" lon="6.12981">
        <ele>1696</ele>
        <time>2010-01-01T02:55:27Z</time>
      </trkpt>
      <trkpt lat="44.21291" lon="6.12978">
        <ele>1695</ele>
        <time>2010-01-01T02:55:28Z</time>
      </trkpt>
      <trkpt lat="44.21294" lon="6.12976">
        <ele>1693</ele>
        <time>2010-01-01T02:55:29Z</time>
      </trkpt>
      <trkpt lat="44.21297" lon="6.12974">
        <ele>1692</ele>
        <time>2010-01-01T02:55:30Z</time>
      </trkpt>
      <trkpt lat="44.213" lon="6.12973">
        <ele>1691</ele>
        <time>2010-01-01T02:55:30Z</time>
      </trkpt>
      <trkpt lat="44.21303" lon="6.12971">
        <ele>1690</ele>
        <time>2010-01-01T02:55:31Z</time>
      </trkpt>
      <trkpt lat="44.21307" lon="6.12966">
        <ele>1688</ele>
        <time>2010-01-01T02:55:33Z</time>
      </trkpt>
      <trkpt lat="44.2131" lon="6.12963">
        <ele>1686</ele>
        <time>2010-01-01T02:55:34Z</time>
      </trkpt>
      <trkpt lat="44.21312" lon="6.1296">
        <ele>1685</ele>
        <time>2010-01-01T02:55:34Z</time>
      </trkpt>
      <trkpt lat="44.21313" lon="6.12955">
        <ele>1685</ele>
        <time>2010-01-01T02:55:35Z</time>
      </trkpt>
      <trkpt lat="44.21313" lon="6.1295">
        <ele>1685</ele>
        <time>2010-01-01T02:55:36Z</time>
      </trkpt>
      <trkpt lat="44.21313" lon="6.12945">
        <ele>1685</ele>
        <time>2010-01-01T02:55:37Z</time>
      </trkpt>
      <trkpt lat="44.21313" lon="6.12939">
        <ele>1684</ele>
        <time>2010-01-01T02:55:38Z</time>
      </trkpt>
      <trkpt lat="44.21313" lon="6.12935">
        <ele>1684</ele>
        <time>2010-01-01T02:55:39Z</time>
      </trkpt>
      <trkpt lat="44.21313" lon="6.12931">
        <ele>1684</ele>
        <time>2010-01-01T02:55:40Z</time>
      </trkpt>
      <trkpt lat="44.21313" lon="6.12926">
        <ele>1684</ele>
        <time>2010-01-01T02:55:41Z</time>
      </trkpt>
      <trkpt lat="44.21313" lon="6.12921">
        <ele>1683</ele>
        <time>2010-01-01T02:55:42Z</time>
      </trkpt>
      <trkpt lat="44.21314" lon="6.12916">
        <ele>1683</ele>
        <time>2010-01-01T02:55:43Z</time>
      </trkpt>
      <trkpt lat="44.21314" lon="6.12911">
        <ele>1682</ele>
        <time>2010-01-01T02:55:44Z</time>
      </trkpt>
      <trkpt lat="44.21314" lon="6.12907">
        <ele>1681</ele>
        <time>2010-01-01T02:55:45Z</time>
      </trkpt>
      <trkpt lat="44.21315" lon="6.12902">
        <ele>1680</ele>
        <time>2010-01-01T02:55:46Z</time>
      </trkpt>
      <trkpt lat="44.21316" lon="6.12896">
        <ele>1678</ele>
        <time>2010-01-01T02:55:47Z</time>
      </trkpt>
      <trkpt lat="44.21317" lon="6.1289">
        <ele>1677</ele>
        <time>2010-01-01T02:55:48Z</time>
      </trkpt>
      <trkpt lat="44.21318" lon="6.12885">
        <ele>1675</ele>
        <time>2010-01-01T02:55:49Z</time>
      </trkpt>
      <trkpt lat="44.21319" lon="6.12879">
        <ele>1674</ele>
        <time>2010-01-01T02:55:50Z</time>
      </trkpt>
      <trkpt lat="44.21319" lon="6.12873">
        <ele>1673</ele>
        <time>2010-01-01T02:55:51Z</time>
      </trkpt>
      <trkpt lat="44.2132" lon="6.12867">
        <ele>1671</ele>
        <time>2010-01-01T02:55:52Z</time>
      </trkpt>
      <trkpt lat="44.21321" lon="6.12861">
        <ele>1670</ele>
        <time>2010-01-01T02:55:53Z</time>
      </trkpt>
      <trkpt lat="44.21322" lon="6.12856">
        <ele>1669</ele>
        <time>2010-01-01T02:55:55Z</time>
      </trkpt>
      <trkpt lat="44.21323" lon="6.1285">
        <ele>1667</ele>
        <time>2010-01-01T02:55:56Z</time>
      </trkpt>
      <trkpt lat="44.21323" lon="6.12844">
        <ele>1666</ele>
        <time>2010-01-01T02:55:57Z</time>
      </trkpt>
      <trkpt lat="44.21324" lon="6.1284">
        <ele>1665</ele>
        <time>2010-01-01T02:55:58Z</time>
      </trkpt>
      <trkpt lat="44.21326" lon="6.12834">
        <ele>1663</ele>
        <time>2010-01-01T02:55:59Z</time>
      </trkpt>
      <trkpt lat="44.21328" lon="6.1283">
        <ele>1663</ele>
        <time>2010-01-01T02:56:00Z</time>
      </trkpt>
      <trkpt lat="44.21331" lon="6.12826">
        <ele>1662</ele>
        <time>2010-01-01T02:56:01Z</time>
      </trkpt>
      <trkpt lat="44.21333" lon="6.12824">
        <ele>1662</ele>
        <time>2010-01-01T02:56:02Z</time>
      </trkpt>
      <trkpt lat="44.21333" lon="6.12819">
        <ele>1661</ele>
        <time>2010-01-01T02:56:02Z</time>
      </trkpt>
      <trkpt lat="44.21332" lon="6.12815">
        <ele>1660</ele>
        <time>2010-01-01T02:56:03Z</time>
      </trkpt>
      <trkpt lat="44.21332" lon="6.12811">
        <ele>1659</ele>
        <time>2010-01-01T02:56:04Z</time>
      </trkpt>
      <trkpt lat="44.21332" lon="6.12803">
        <ele>1657</ele>
        <time>2010-01-01T02:56:06Z</time>
      </trkpt>
      <trkpt lat="44.21333" lon="6.12799">
        <ele>1655</ele>
        <time>2010-01-01T02:56:07Z</time>
      </trkpt>
      <trkpt lat="44.21334" lon="6.12795">
        <ele>1654</ele>
        <time>2010-01-01T02:56:07Z</time>
      </trkpt>
      <trkpt lat="44.21335" lon="6.1279">
        <ele>1652</ele>
        <time>2010-01-01T02:56:08Z</time>
      </trkpt>
      <trkpt lat="44.21338" lon="6.12785">
        <ele>1650</ele>
        <time>2010-01-01T02:56:10Z</time>
      </trkpt>
      <trkpt lat="44.2134" lon="6.12782">
        <ele>1650</ele>
        <time>2010-01-01T02:56:10Z</time>
      </trkpt>
      <trkpt lat="44.21342" lon="6.12779">
        <ele>1649</ele>
        <time>2010-01-01T02:56:11Z</time>
      </trkpt>
      <trkpt lat="44.21344" lon="6.12775">
        <ele>1648</ele>
        <time>2010-01-01T02:56:12Z</time>
      </trkpt>
      <trkpt lat="44.21345" lon="6.12771">
        <ele>1648</ele>
        <time>2010-01-01T02:56:13Z</time>
      </trkpt>
      <trkpt lat="44.21347" lon="6.12768">
        <ele>1647</ele>
        <time>2010-01-01T02:56:14Z</time>
      </trkpt>
      <trkpt lat="44.21349" lon="6.12765">
        <ele>1647</ele>
        <time>2010-01-01T02:56:14Z</time>
      </trkpt>
      <trkpt lat="44.21351" lon="6.1276">
        <ele>1646</ele>
        <time>2010-01-01T02:56:15Z</time>
      </trkpt>
      <trkpt lat="44.21354" lon="6.12756">
        <ele>1646</ele>
        <time>2010-01-01T02:56:17Z</time>
      </trkpt>
      <trkpt lat="44.21357" lon="6.12751">
        <ele>1646</ele>
        <time>2010-01-01T02:56:18Z</time>
      </trkpt>
      <trkpt lat="44.2136" lon="6.12746">
        <ele>1645</ele>
        <time>2010-01-01T02:56:19Z</time>
      </trkpt>
      <trkpt lat="44.21363" lon="6.12741">
        <ele>1644</ele>
        <time>2010-01-01T02:56:20Z</time>
      </trkpt>
      <trkpt lat="44.21364" lon="6.12738">
        <ele>1643</ele>
        <time>2010-01-01T02:56:21Z</time>
      </trkpt>
      <trkpt lat="44.21366" lon="6.12732">
        <ele>1642</ele>
        <time>2010-01-01T02:56:22Z</time>
      </trkpt>
      <trkpt lat="44.21369" lon="6.12727">
        <ele>1640</ele>
        <time>2010-01-01T02:56:23Z</time>
      </trkpt>
      <trkpt lat="44.21372" lon="6.12722">
        <ele>1639</ele>
        <time>2010-01-01T02:56:25Z</time>
      </trkpt>
      <trkpt lat="44.21373" lon="6.12718">
        <ele>1639</ele>
        <time>2010-01-01T02:56:25Z</time>
      </trkpt>
      <trkpt lat="44.21374" lon="6.12713">
        <ele>1638</ele>
        <time>2010-01-01T02:56:26Z</time>
      </trkpt>
      <trkpt lat="44.21375" lon="6.12706">
        <ele>1637</ele>
        <time>2010-01-01T02:56:28Z</time>
      </trkpt>
      <trkpt lat="44.21376" lon="6.127">
        <ele>1635</ele>
        <time>2010-01-01T02:56:29Z</time>
      </trkpt>
      <trkpt lat="44.21377" lon="6.12694">
        <ele>1634</ele>
        <time>2010-01-01T02:56:30Z</time>
      </trkpt>
      <trkpt lat="44.21378" lon="6.1269">
        <ele>1634</ele>
        <time>2010-01-01T02:56:31Z</time>
      </trkpt>
      <trkpt lat="44.21379" lon="6.12685">
        <ele>1634</ele>
        <time>2010-01-01T02:56:32Z</time>
      </trkpt>
      <trkpt lat="44.21381" lon="6.12681">
        <ele>1634</ele>
        <time>2010-01-01T02:56:33Z</time>
      </trkpt>
      <trkpt lat="44.21384" lon="6.12678">
        <ele>1634</ele>
        <time>2010-01-01T02:56:34Z</time>
      </trkpt>
      <trkpt lat="44.21387" lon="6.12674">
        <ele>1634</ele>
        <time>2010-01-01T02:56:35Z</time>
      </trkpt>
      <trkpt lat="44.21389" lon="6.1267">
        <ele>1634</ele>
        <time>2010-01-01T02:56:36Z</time>
      </trkpt>
      <trkpt lat="44.21391" lon="6.12666">
        <ele>1634</ele>
        <time>2010-01-01T02:56:37Z</time>
      </trkpt>
      <trkpt lat="44.21392" lon="6.12662">
        <ele>1633</ele>
        <time>2010-01-01T02:56:38Z</time>
      </trkpt>
      <trkpt lat="44.21393" lon="6.12658">
        <ele>1632</ele>
        <time>2010-01-01T02:56:39Z</time>
      </trkpt>
      <trkpt lat="44.21396" lon="6.12654">
        <ele>1632</ele>
        <time>2010-01-01T02:56:40Z</time>
      </trkpt>
      <trkpt lat="44.21398" lon="6.1265">
        <ele>1632</ele>
        <time>2010-01-01T02:56:41Z</time>
      </trkpt>
      <trkpt lat="44.21401" lon="6.12648">
        <ele>1632</ele>
        <time>2010-01-01T02:56:41Z</time>
      </trkpt>
      <trkpt lat="44.21404" lon="6.12645">
        <ele>1632</ele>
        <time>2010-01-01T02:56:42Z</time>
      </trkpt>
      <trkpt lat="44.21408" lon="6.12642">
        <ele>1633</ele>
        <time>2010-01-01T02:56:43Z</time>
      </trkpt>
      <trkpt lat="44.21411" lon="6.12638">
        <ele>1632</ele>
        <time>2010-01-01T02:56:45Z</time>
      </trkpt>
      <trkpt lat="44.21414" lon="6.12633">
        <ele>1631</ele>
        <time>2010-01-01T02:56:46Z</time>
      </trkpt>
      <trkpt lat="44.21419" lon="6.12629">
        <ele>1630</ele>
        <time>2010-01-01T02:56:47Z</time>
      </trkpt>
      <trkpt lat="44.21425" lon="6.12623">
        <ele>1627</ele>
        <time>2010-01-01T02:56:49Z</time>
      </trkpt>
      <trkpt lat="44.21428" lon="6.12619">
        <ele>1626</ele>
        <time>2010-01-01T02:56:50Z</time>
      </trkpt>
      <trkpt lat="44.21431" lon="6.1262">
        <ele>1627</ele>
        <time>2010-01-01T02:56:51Z</time>
      </trkpt>
      <trkpt lat="44.21437" lon="6.12618">
        <ele>1627</ele>
        <time>2010-01-01T02:56:53Z</time>
      </trkpt>
      <trkpt lat="44.21443" lon="6.12616">
        <ele>1627</ele>
        <time>2010-01-01T02:56:55Z</time>
      </trkpt>
      <trkpt lat="44.21448" lon="6.12614">
        <ele>1626</ele>
        <time>2010-01-01T02:56:56Z</time>
      </trkpt>
      <trkpt lat="44.21452" lon="6.12611">
        <ele>1625</ele>
        <time>2010-01-01T02:56:57Z</time>
      </trkpt>
      <trkpt lat="44.21457" lon="6.12606">
        <ele>1623</ele>
        <time>2010-01-01T02:56:59Z</time>
      </trkpt>
      <trkpt lat="44.21463" lon="6.12603">
        <ele>1621</ele>
        <time>2010-01-01T02:57:00Z</time>
      </trkpt>
      <trkpt lat="44.21468" lon="6.12601">
        <ele>1621</ele>
        <time>2010-01-01T02:57:02Z</time>
      </trkpt>
      <trkpt lat="44.21474" lon="6.12601">
        <ele>1620</ele>
        <time>2010-01-01T02:57:03Z</time>
      </trkpt>
      <trkpt lat="44.21479" lon="6.126">
        <ele>1620</ele>
        <time>2010-01-01T02:57:05Z</time>
      </trkpt>
      <trkpt lat="44.21485" lon="6.12599">
        <ele>1619</ele>
        <time>2010-01-01T02:57:06Z</time>
      </trkpt>
      <trkpt lat="44.21489" lon="6.126">
        <ele>1619</ele>
        <time>2010-01-01T02:57:08Z</time>
      </trkpt>
      <trkpt lat="44.21496" lon="6.12601">
        <ele>1619</ele>
        <time>2010-01-01T02:57:09Z</time>
      </trkpt>
      <trkpt lat="44.21501" lon="6.12601">
        <ele>1619</ele>
        <time>2010-01-01T02:57:11Z</time>
      </trkpt>
      <trkpt lat="44.21506" lon="6.12597">
        <ele>1617</ele>
        <time>2010-01-01T02:57:12Z</time>
      </trkpt>
      <trkpt lat="44.21512" lon="6.12593">
        <ele>1616</ele>
        <time>2010-01-01T02:57:14Z</time>
      </trkpt>
      <trkpt lat="44.21518" lon="6.12588">
        <ele>1615</ele>
        <time>2010-01-01T02:57:16Z</time>
      </trkpt>
      <trkpt lat="44.21523" lon="6.12583">
        <ele>1613</ele>
        <time>2010-01-01T02:57:18Z</time>
      </trkpt>
      <trkpt lat="44.21524" lon="6.12579">
        <ele>1612</ele>
        <time>2010-01-01T02:57:18Z</time>
      </trkpt>
      <trkpt lat="44.21526" lon="6.12576">
        <ele>1611</ele>
        <time>2010-01-01T02:57:19Z</time>
      </trkpt>
      <trkpt lat="44.21525" lon="6.12572">
        <ele>1609</ele>
        <time>2010-01-01T02:57:20Z</time>
      </trkpt>
      <trkpt lat="44.21523" lon="6.12569">
        <ele>1608</ele>
        <time>2010-01-01T02:57:21Z</time>
      </trkpt>
      <trkpt lat="44.21525" lon="6.12565">
        <ele>1607</ele>
        <time>2010-01-01T02:57:22Z</time>
      </trkpt>
      <trkpt lat="44.2153" lon="6.12563">
        <ele>1606</ele>
        <time>2010-01-01T02:57:23Z</time>
      </trkpt>
      <trkpt lat="44.21533" lon="6.12562">
        <ele>1607</ele>
        <time>2010-01-01T02:57:24Z</time>
      </trkpt>
      <trkpt lat="44.21537" lon="6.12562">
        <ele>1607</ele>
        <time>2010-01-01T02:57:25Z</time>
      </trkpt>
      <trkpt lat="44.21546" lon="6.12565">
        <ele>1609</ele>
        <time>2010-01-01T02:57:27Z</time>
      </trkpt>
      <trkpt lat="44.21551" lon="6.12567">
        <ele>1610</ele>
        <time>2010-01-01T02:57:29Z</time>
      </trkpt>
      <trkpt lat="44.21558" lon="6.12567">
        <ele>1611</ele>
        <time>2010-01-01T02:57:31Z</time>
      </trkpt>
      <trkpt lat="44.21565" lon="6.12564">
        <ele>1611</ele>
        <time>2010-01-01T02:57:33Z</time>
      </trkpt>
      <trkpt lat="44.21571" lon="6.12561">
        <ele>1611</ele>
        <time>2010-01-01T02:57:34Z</time>
      </trkpt>
      <trkpt lat="44.21578" lon="6.12555">
        <ele>1612</ele>
        <time>2010-01-01T02:57:37Z</time>
      </trkpt>
      <trkpt lat="44.21584" lon="6.1255">
        <ele>1611</ele>
        <time>2010-01-01T02:57:38Z</time>
      </trkpt>
      <trkpt lat="44.2159" lon="6.12542">
        <ele>1608</ele>
        <time>2010-01-01T02:57:41Z</time>
      </trkpt>
      <trkpt lat="44.21596" lon="6.12534">
        <ele>1606</ele>
        <time>2010-01-01T02:57:43Z</time>
      </trkpt>
      <trkpt lat="44.21599" lon="6.12529">
        <ele>1605</ele>
        <time>2010-01-01T02:57:44Z</time>
      </trkpt>
      <trkpt lat="44.21604" lon="6.12523">
        <ele>1603</ele>
        <time>2010-01-01T02:57:46Z</time>
      </trkpt>
      <trkpt lat="44.21609" lon="6.1252">
        <ele>1602</ele>
        <time>2010-01-01T02:57:47Z</time>
      </trkpt>
      <trkpt lat="44.21612" lon="6.12517">
        <ele>1601</ele>
        <time>2010-01-01T02:57:48Z</time>
      </trkpt>
      <trkpt lat="44.21617" lon="6.12515">
        <ele>1601</ele>
        <time>2010-01-01T02:57:50Z</time>
      </trkpt>
      <trkpt lat="44.21621" lon="6.12515">
        <ele>1601</ele>
        <time>2010-01-01T02:57:51Z</time>
      </trkpt>
      <trkpt lat="44.21626" lon="6.12512">
        <ele>1600</ele>
        <time>2010-01-01T02:57:52Z</time>
      </trkpt>
      <trkpt lat="44.21628" lon="6.12509">
        <ele>1600</ele>
        <time>2010-01-01T02:57:53Z</time>
      </trkpt>
      <trkpt lat="44.21629" lon="6.12505">
        <ele>1599</ele>
        <time>2010-01-01T02:57:54Z</time>
      </trkpt>
      <trkpt lat="44.2163" lon="6.125">
        <ele>1599</ele>
        <time>2010-01-01T02:57:55Z</time>
      </trkpt>
      <trkpt lat="44.21634" lon="6.12497">
        <ele>1598</ele>
        <time>2010-01-01T02:57:56Z</time>
      </trkpt>
      <trkpt lat="44.21637" lon="6.12495">
        <ele>1598</ele>
        <time>2010-01-01T02:57:57Z</time>
      </trkpt>
      <trkpt lat="44.21639" lon="6.12497">
        <ele>1599</ele>
        <time>2010-01-01T02:57:58Z</time>
      </trkpt>
      <trkpt lat="44.21642" lon="6.12498">
        <ele>1599</ele>
        <time>2010-01-01T02:57:58Z</time>
      </trkpt>
      <trkpt lat="44.21651" lon="6.12496">
        <ele>1598</ele>
        <time>2010-01-01T02:58:01Z</time>
      </trkpt>
      <trkpt lat="44.21655" lon="6.12494">
        <ele>1597</ele>
        <time>2010-01-01T02:58:02Z</time>
      </trkpt>
      <trkpt lat="44.21658" lon="6.12493">
        <ele>1597</ele>
        <time>2010-01-01T02:58:03Z</time>
      </trkpt>
      <trkpt lat="44.21661" lon="6.12492">
        <ele>1597</ele>
        <time>2010-01-01T02:58:04Z</time>
      </trkpt>
      <trkpt lat="44.21664" lon="6.12492">
        <ele>1597</ele>
        <time>2010-01-01T02:58:05Z</time>
      </trkpt>
      <trkpt lat="44.21668" lon="6.12492">
        <ele>1596</ele>
        <time>2010-01-01T02:58:06Z</time>
      </trkpt>
      <trkpt lat="44.21673" lon="6.1249">
        <ele>1595</ele>
        <time>2010-01-01T02:58:07Z</time>
      </trkpt>
      <trkpt lat="44.2168" lon="6.12487">
        <ele>1594</ele>
        <time>2010-01-01T02:58:09Z</time>
      </trkpt>
      <trkpt lat="44.21688" lon="6.12483">
        <ele>1592</ele>
        <time>2010-01-01T02:58:11Z</time>
      </trkpt>
      <trkpt lat="44.21696" lon="6.12479">
        <ele>1590</ele>
        <time>2010-01-01T02:58:13Z</time>
      </trkpt>
      <trkpt lat="44.21704" lon="6.12474">
        <ele>1589</ele>
        <time>2010-01-01T02:58:16Z</time>
      </trkpt>
      <trkpt lat="44.2171" lon="6.12469">
        <ele>1587</ele>
        <time>2010-01-01T02:58:18Z</time>
      </trkpt>
      <trkpt lat="44.21714" lon="6.12467">
        <ele>1587</ele>
        <time>2010-01-01T02:58:19Z</time>
      </trkpt>
      <trkpt lat="44.21718" lon="6.12466">
        <ele>1586</ele>
        <time>2010-01-01T02:58:20Z</time>
      </trkpt>
      <trkpt lat="44.2172" lon="6.12468">
        <ele>1586</ele>
        <time>2010-01-01T02:58:21Z</time>
      </trkpt>
      <trkpt lat="44.21723" lon="6.1247">
        <ele>1587</ele>
        <time>2010-01-01T02:58:21Z</time>
      </trkpt>
      <trkpt lat="44.21727" lon="6.12466">
        <ele>1586</ele>
        <time>2010-01-01T02:58:23Z</time>
      </trkpt>
      <trkpt lat="44.21732" lon="6.12462">
        <ele>1585</ele>
        <time>2010-01-01T02:58:24Z</time>
      </trkpt>
      <trkpt lat="44.21736" lon="6.12461">
        <ele>1584</ele>
        <time>2010-01-01T02:58:25Z</time>
      </trkpt>
      <trkpt lat="44.2174" lon="6.1246">
        <ele>1584</ele>
        <time>2010-01-01T02:58:26Z</time>
      </trkpt>
      <trkpt lat="44.21744" lon="6.12459">
        <ele>1584</ele>
        <time>2010-01-01T02:58:27Z</time>
      </trkpt>
      <trkpt lat="44.21749" lon="6.12461">
        <ele>1585</ele>
        <time>2010-01-01T02:58:29Z</time>
      </trkpt>
      <trkpt lat="44.2176" lon="6.12471">
        <ele>1585</ele>
        <time>2010-01-01T02:58:32Z</time>
      </trkpt>
      <trkpt lat="44.21768" lon="6.12476">
        <ele>1583</ele>
        <time>2010-01-01T02:58:35Z</time>
      </trkpt>
      <trkpt lat="44.21772" lon="6.12478">
        <ele>1582</ele>
        <time>2010-01-01T02:58:36Z</time>
      </trkpt>
      <trkpt lat="44.2178" lon="6.12483">
        <ele>1581</ele>
        <time>2010-01-01T02:58:38Z</time>
      </trkpt>
      <trkpt lat="44.21788" lon="6.1249">
        <ele>1579</ele>
        <time>2010-01-01T02:58:41Z</time>
      </trkpt>
      <trkpt lat="44.21793" lon="6.12497">
        <ele>1577</ele>
        <time>2010-01-01T02:58:43Z</time>
      </trkpt>
      <trkpt lat="44.21802" lon="6.12507">
        <ele>1575</ele>
        <time>2010-01-01T02:58:46Z</time>
      </trkpt>
      <trkpt lat="44.21812" lon="6.12517">
        <ele>1571</ele>
        <time>2010-01-01T02:58:49Z</time>
      </trkpt>
      <trkpt lat="44.21816" lon="6.12526">
        <ele>1569</ele>
        <time>2010-01-01T02:58:51Z</time>
      </trkpt>
      <trkpt lat="44.21822" lon="6.1254">
        <ele>1566</ele>
        <time>2010-01-01T02:58:54Z</time>
      </trkpt>
      <trkpt lat="44.21824" lon="6.12544">
        <ele>1565</ele>
        <time>2010-01-01T02:58:55Z</time>
      </trkpt>
      <trkpt lat="44.21826" lon="6.12549">
        <ele>1563</ele>
        <time>2010-01-01T02:58:56Z</time>
      </trkpt>
      <trkpt lat="44.2183" lon="6.12556">
        <ele>1561</ele>
        <time>2010-01-01T02:58:58Z</time>
      </trkpt>
      <trkpt lat="44.21834" lon="6.12562">
        <ele>1558</ele>
        <time>2010-01-01T02:58:59Z</time>
      </trkpt>
      <trkpt lat="44.2184" lon="6.12566">
        <ele>1554</ele>
        <time>2010-01-01T02:59:01Z</time>
      </trkpt>
      <trkpt lat="44.21844" lon="6.12571">
        <ele>1550</ele>
        <time>2010-01-01T02:59:03Z</time>
      </trkpt>
      <trkpt lat="44.2185" lon="6.12576">
        <ele>1546</ele>
        <time>2010-01-01T02:59:04Z</time>
      </trkpt>
      <trkpt lat="44.21858" lon="6.12579">
        <ele>1541</ele>
        <time>2010-01-01T02:59:07Z</time>
      </trkpt>
      <trkpt lat="44.21865" lon="6.12584">
        <ele>1536</ele>
        <time>2010-01-01T02:59:09Z</time>
      </trkpt>
      <trkpt lat="44.2187" lon="6.12591">
        <ele>1533</ele>
        <time>2010-01-01T02:59:11Z</time>
      </trkpt>
      <trkpt lat="44.21874" lon="6.12594">
        <ele>1530</ele>
        <time>2010-01-01T02:59:12Z</time>
      </trkpt>
      <trkpt lat="44.21876" lon="6.12597">
        <ele>1528</ele>
        <time>2010-01-01T02:59:13Z</time>
      </trkpt>
      <trkpt lat="44.21881" lon="6.12597">
        <ele>1527</ele>
        <time>2010-01-01T02:59:14Z</time>
      </trkpt>
      <trkpt lat="44.21886" lon="6.126">
        <ele>1525</ele>
        <time>2010-01-01T02:59:15Z</time>
      </trkpt>
      <trkpt lat="44.21893" lon="6.12609">
        <ele>1520</ele>
        <time>2010-01-01T02:59:18Z</time>
      </trkpt>
      <trkpt lat="44.21897" lon="6.12612">
        <ele>1519</ele>
        <time>2010-01-01T02:59:19Z</time>
      </trkpt>
      <trkpt lat="44.21903" lon="6.12617">
        <ele>1517</ele>
        <time>2010-01-01T02:59:21Z</time>
      </trkpt>
      <trkpt lat="44.21911" lon="6.12619">
        <ele>1516</ele>
        <time>2010-01-01T02:59:23Z</time>
      </trkpt>
      <trkpt lat="44.21913" lon="6.1262">
        <ele>1515</ele>
        <time>2010-01-01T02:59:24Z</time>
      </trkpt>
      <trkpt lat="44.21915" lon="6.12617">
        <ele>1516</ele>
        <time>2010-01-01T02:59:25Z</time>
      </trkpt>
      <trkpt lat="44.21916" lon="6.12608">
        <ele>1520</ele>
        <time>2010-01-01T02:59:26Z</time>
      </trkpt>
      <trkpt lat="44.21917" lon="6.12605">
        <ele>1522</ele>
        <time>2010-01-01T02:59:27Z</time>
      </trkpt>
      <trkpt lat="44.2192" lon="6.12603">
        <ele>1522</ele>
        <time>2010-01-01T02:59:28Z</time>
      </trkpt>
      <trkpt lat="44.21922" lon="6.12606">
        <ele>1521</ele>
        <time>2010-01-01T02:59:29Z</time>
      </trkpt>
      <trkpt lat="44.21924" lon="6.1261">
        <ele>1519</ele>
        <time>2010-01-01T02:59:30Z</time>
      </trkpt>
      <trkpt lat="44.21926" lon="6.12613">
        <ele>1517</ele>
        <time>2010-01-01T02:59:31Z</time>
      </trkpt>
      <trkpt lat="44.2193" lon="6.12613">
        <ele>1517</ele>
        <time>2010-01-01T02:59:31Z</time>
      </trkpt>
      <trkpt lat="44.21933" lon="6.12608">
        <ele>1519</ele>
        <time>2010-01-01T02:59:33Z</time>
      </trkpt>
      <trkpt lat="44.21931" lon="6.12605">
        <ele>1521</ele>
        <time>2010-01-01T02:59:33Z</time>
      </trkpt>
      <trkpt lat="44.21927" lon="6.12602">
        <ele>1522</ele>
        <time>2010-01-01T02:59:35Z</time>
      </trkpt>
      <trkpt lat="44.21924" lon="6.12604">
        <ele>1521</ele>
        <time>2010-01-01T02:59:35Z</time>
      </trkpt>
      <trkpt lat="44.21922" lon="6.12602">
        <ele>1523</ele>
        <time>2010-01-01T02:59:36Z</time>
      </trkpt>
      <trkpt lat="44.21943" lon="6.1258">
        <ele>1532</ele>
        <time>2010-01-01T02:59:43Z</time>
      </trkpt>
      <trkpt lat="44.21947" lon="6.12579">
        <ele>1532</ele>
        <time>2010-01-01T02:59:45Z</time>
      </trkpt>
      <trkpt lat="44.21921" lon="6.12596">
        <ele>1526</ele>
        <time>2010-01-01T02:59:52Z</time>
      </trkpt>
      <trkpt lat="44.2192" lon="6.12602">
        <ele>1523</ele>
        <time>2010-01-01T02:59:53Z</time>
      </trkpt>
      <trkpt lat="44.21919" lon="6.12606">
        <ele>1521</ele>
        <time>2010-01-01T02:59:54Z</time>
      </trkpt>
      <trkpt lat="44.21916" lon="6.12609">
        <ele>1520</ele>
        <time>2010-01-01T02:59:55Z</time>
      </trkpt>
      <trkpt lat="44.21915" lon="6.12613">
        <ele>1518</ele>
        <time>2010-01-01T02:59:56Z</time>
      </trkpt>
      <trkpt lat="44.21917" lon="6.12615">
        <ele>1517</ele>
        <time>2010-01-01T02:59:57Z</time>
      </trkpt>
      <trkpt lat="44.2192" lon="6.12611">
        <ele>1518</ele>
        <time>2010-01-01T02:59:58Z</time>
      </trkpt>
      <trkpt lat="44.21926" lon="6.12617">
        <ele>1516</ele>
        <time>2010-01-01T03:00:00Z</time>
      </trkpt>
      <trkpt lat="44.2193" lon="6.12617">
        <ele>1516</ele>
        <time>2010-01-01T03:00:01Z</time>
      </trkpt>
      <trkpt lat="44.21933" lon="6.12617">
        <ele>1516</ele>
        <time>2010-01-01T03:00:02Z</time>
      </trkpt>
      <trkpt lat="44.21939" lon="6.12618">
        <ele>1515</ele>
        <time>2010-01-01T03:00:03Z</time>
      </trkpt>
      <trkpt lat="44.21943" lon="6.12618">
        <ele>1515</ele>
        <time>2010-01-01T03:00:05Z</time>
      </trkpt>
      <trkpt lat="44.21947" lon="6.12618">
        <ele>1514</ele>
        <time>2010-01-01T03:00:06Z</time>
      </trkpt>
      <trkpt lat="44.21951" lon="6.12618">
        <ele>1514</ele>
        <time>2010-01-01T03:00:07Z</time>
      </trkpt>
      <trkpt lat="44.21956" lon="6.12617">
        <ele>1514</ele>
        <time>2010-01-01T03:00:08Z</time>
      </trkpt>
      <trkpt lat="44.2196" lon="6.12616">
        <ele>1513</ele>
        <time>2010-01-01T03:00:09Z</time>
      </trkpt>
      <trkpt lat="44.21965" lon="6.12614">
        <ele>1513</ele>
        <time>2010-01-01T03:00:10Z</time>
      </trkpt>
      <trkpt lat="44.21969" lon="6.12611">
        <ele>1514</ele>
        <time>2010-01-01T03:00:12Z</time>
      </trkpt>
      <trkpt lat="44.21974" lon="6.12608">
        <ele>1514</ele>
        <time>2010-01-01T03:00:13Z</time>
      </trkpt>
      <trkpt lat="44.21978" lon="6.12603">
        <ele>1515</ele>
        <time>2010-01-01T03:00:15Z</time>
      </trkpt>
      <trkpt lat="44.21982" lon="6.12598">
        <ele>1516</ele>
        <time>2010-01-01T03:00:16Z</time>
      </trkpt>
      <trkpt lat="44.21985" lon="6.12589">
        <ele>1519</ele>
        <time>2010-01-01T03:00:18Z</time>
      </trkpt>
      <trkpt lat="44.21988" lon="6.12584">
        <ele>1520</ele>
        <time>2010-01-01T03:00:19Z</time>
      </trkpt>
      <trkpt lat="44.21991" lon="6.1258">
        <ele>1520</ele>
        <time>2010-01-01T03:00:20Z</time>
      </trkpt>
      <trkpt lat="44.21994" lon="6.12576">
        <ele>1521</ele>
        <time>2010-01-01T03:00:21Z</time>
      </trkpt>
      <trkpt lat="44.21997" lon="6.12572">
        <ele>1522</ele>
        <time>2010-01-01T03:00:22Z</time>
      </trkpt>
      <trkpt lat="44.22001" lon="6.12568">
        <ele>1522</ele>
        <time>2010-01-01T03:00:24Z</time>
      </trkpt>
      <trkpt lat="44.22005" lon="6.12564">
        <ele>1522</ele>
        <time>2010-01-01T03:00:25Z</time>
      </trkpt>
      <trkpt lat="44.22011" lon="6.12563">
        <ele>1522</ele>
        <time>2010-01-01T03:00:27Z</time>
      </trkpt>
      <trkpt lat="44.22017" lon="6.12562">
        <ele>1521</ele>
        <time>2010-01-01T03:00:28Z</time>
      </trkpt>
      <trkpt lat="44.2202" lon="6.1256">
        <ele>1521</ele>
        <time>2010-01-01T03:00:29Z</time>
      </trkpt>
      <trkpt lat="44.22024" lon="6.1256">
        <ele>1520</ele>
        <time>2010-01-01T03:00:30Z</time>
      </trkpt>
      <trkpt lat="44.22029" lon="6.12558">
        <ele>1520</ele>
        <time>2010-01-01T03:00:32Z</time>
      </trkpt>
      <trkpt lat="44.22035" lon="6.12558">
        <ele>1519</ele>
        <time>2010-01-01T03:00:33Z</time>
      </trkpt>
      <trkpt lat="44.2204" lon="6.12558">
        <ele>1519</ele>
        <time>2010-01-01T03:00:34Z</time>
      </trkpt>
      <trkpt lat="44.22044" lon="6.12561">
        <ele>1518</ele>
        <time>2010-01-01T03:00:36Z</time>
      </trkpt>
      <trkpt lat="44.22049" lon="6.12561">
        <ele>1517</ele>
        <time>2010-01-01T03:00:37Z</time>
      </trkpt>
      <trkpt lat="44.22055" lon="6.12562">
        <ele>1516</ele>
        <time>2010-01-01T03:00:39Z</time>
      </trkpt>
      <trkpt lat="44.2206" lon="6.12564">
        <ele>1515</ele>
        <time>2010-01-01T03:00:40Z</time>
      </trkpt>
      <trkpt lat="44.22064" lon="6.12565">
        <ele>1514</ele>
        <time>2010-01-01T03:00:41Z</time>
      </trkpt>
      <trkpt lat="44.22069" lon="6.12569">
        <ele>1512</ele>
        <time>2010-01-01T03:00:43Z</time>
      </trkpt>
      <trkpt lat="44.22073" lon="6.12572">
        <ele>1510</ele>
        <time>2010-01-01T03:00:44Z</time>
      </trkpt>
      <trkpt lat="44.22077" lon="6.12573">
        <ele>1509</ele>
        <time>2010-01-01T03:00:45Z</time>
      </trkpt>
      <trkpt lat="44.22081" lon="6.12573">
        <ele>1508</ele>
        <time>2010-01-01T03:00:46Z</time>
      </trkpt>
      <trkpt lat="44.22085" lon="6.12574">
        <ele>1507</ele>
        <time>2010-01-01T03:00:47Z</time>
      </trkpt>
      <trkpt lat="44.22089" lon="6.12575">
        <ele>1507</ele>
        <time>2010-01-01T03:00:48Z</time>
      </trkpt>
      <trkpt lat="44.22092" lon="6.12577">
        <ele>1506</ele>
        <time>2010-01-01T03:00:49Z</time>
      </trkpt>
      <trkpt lat="44.22095" lon="6.12578">
        <ele>1505</ele>
        <time>2010-01-01T03:00:50Z</time>
      </trkpt>
      <trkpt lat="44.22099" lon="6.1258">
        <ele>1505</ele>
        <time>2010-01-01T03:00:51Z</time>
      </trkpt>
      <trkpt lat="44.22102" lon="6.12583">
        <ele>1503</ele>
        <time>2010-01-01T03:00:52Z</time>
      </trkpt>
      <trkpt lat="44.22104" lon="6.12586">
        <ele>1502</ele>
        <time>2010-01-01T03:00:53Z</time>
      </trkpt>
      <trkpt lat="44.22106" lon="6.12589">
        <ele>1501</ele>
        <time>2010-01-01T03:00:54Z</time>
      </trkpt>
      <trkpt lat="44.22109" lon="6.1259">
        <ele>1501</ele>
        <time>2010-01-01T03:00:54Z</time>
      </trkpt>
      <trkpt lat="44.22111" lon="6.12591">
        <ele>1500</ele>
        <time>2010-01-01T03:00:55Z</time>
      </trkpt>
      <trkpt lat="44.22114" lon="6.12592">
        <ele>1500</ele>
        <time>2010-01-01T03:00:56Z</time>
      </trkpt>
      <trkpt lat="44.22117" lon="6.12591">
        <ele>1500</ele>
        <time>2010-01-01T03:00:57Z</time>
      </trkpt>
      <trkpt lat="44.22125" lon="6.12584">
        <ele>1501</ele>
        <time>2010-01-01T03:00:59Z</time>
      </trkpt>
      <trkpt lat="44.22128" lon="6.12579">
        <ele>1503</ele>
        <time>2010-01-01T03:01:00Z</time>
      </trkpt>
      <trkpt lat="44.22131" lon="6.12576">
        <ele>1504</ele>
        <time>2010-01-01T03:01:01Z</time>
      </trkpt>
      <trkpt lat="44.22133" lon="6.12574">
        <ele>1504</ele>
        <time>2010-01-01T03:01:02Z</time>
      </trkpt>
      <trkpt lat="44.22136" lon="6.12571">
        <ele>1505</ele>
        <time>2010-01-01T03:01:03Z</time>
      </trkpt>
      <trkpt lat="44.22138" lon="6.12567">
        <ele>1506</ele>
        <time>2010-01-01T03:01:04Z</time>
      </trkpt>
      <trkpt lat="44.22141" lon="6.12564">
        <ele>1507</ele>
        <time>2010-01-01T03:01:05Z</time>
      </trkpt>
      <trkpt lat="44.22144" lon="6.12562">
        <ele>1507</ele>
        <time>2010-01-01T03:01:06Z</time>
      </trkpt>
      <trkpt lat="44.22146" lon="6.12559">
        <ele>1508</ele>
        <time>2010-01-01T03:01:07Z</time>
      </trkpt>
      <trkpt lat="44.22148" lon="6.12556">
        <ele>1508</ele>
        <time>2010-01-01T03:01:07Z</time>
      </trkpt>
      <trkpt lat="44.22151" lon="6.12553">
        <ele>1508</ele>
        <time>2010-01-01T03:01:08Z</time>
      </trkpt>
      <trkpt lat="44.22155" lon="6.12549">
        <ele>1508</ele>
        <time>2010-01-01T03:01:10Z</time>
      </trkpt>
      <trkpt lat="44.2216" lon="6.12544">
        <ele>1508</ele>
        <time>2010-01-01T03:01:11Z</time>
      </trkpt>
      <trkpt lat="44.22166" lon="6.12538">
        <ele>1508</ele>
        <time>2010-01-01T03:01:13Z</time>
      </trkpt>
      <trkpt lat="44.22171" lon="6.12531">
        <ele>1507</ele>
        <time>2010-01-01T03:01:15Z</time>
      </trkpt>
      <trkpt lat="44.22178" lon="6.12518">
        <ele>1507</ele>
        <time>2010-01-01T03:01:18Z</time>
      </trkpt>
      <trkpt lat="44.22181" lon="6.12512">
        <ele>1507</ele>
        <time>2010-01-01T03:01:20Z</time>
      </trkpt>
      <trkpt lat="44.22184" lon="6.12507">
        <ele>1507</ele>
        <time>2010-01-01T03:01:21Z</time>
      </trkpt>
      <trkpt lat="44.22187" lon="6.12503">
        <ele>1507</ele>
        <time>2010-01-01T03:01:22Z</time>
      </trkpt>
      <trkpt lat="44.2219" lon="6.12497">
        <ele>1507</ele>
        <time>2010-01-01T03:01:23Z</time>
      </trkpt>
      <trkpt lat="44.22198" lon="6.12496">
        <ele>1505</ele>
        <time>2010-01-01T03:01:25Z</time>
      </trkpt>
      <trkpt lat="44.22206" lon="6.12492">
        <ele>1504</ele>
        <time>2010-01-01T03:01:28Z</time>
      </trkpt>
      <trkpt lat="44.22212" lon="6.12492">
        <ele>1503</ele>
        <time>2010-01-01T03:01:29Z</time>
      </trkpt>
      <trkpt lat="44.22218" lon="6.12491">
        <ele>1502</ele>
        <time>2010-01-01T03:01:31Z</time>
      </trkpt>
      <trkpt lat="44.22224" lon="6.1249">
        <ele>1501</ele>
        <time>2010-01-01T03:01:32Z</time>
      </trkpt>
      <trkpt lat="44.22229" lon="6.12488">
        <ele>1501</ele>
        <time>2010-01-01T03:01:34Z</time>
      </trkpt>
      <trkpt lat="44.22234" lon="6.12485">
        <ele>1501</ele>
        <time>2010-01-01T03:01:35Z</time>
      </trkpt>
      <trkpt lat="44.22241" lon="6.12485">
        <ele>1501</ele>
        <time>2010-01-01T03:01:37Z</time>
      </trkpt>
      <trkpt lat="44.22246" lon="6.12482">
        <ele>1501</ele>
        <time>2010-01-01T03:01:38Z</time>
      </trkpt>
      <trkpt lat="44.22251" lon="6.12484">
        <ele>1500</ele>
        <time>2010-01-01T03:01:40Z</time>
      </trkpt>
      <trkpt lat="44.2226" lon="6.12483">
        <ele>1499</ele>
        <time>2010-01-01T03:01:42Z</time>
      </trkpt>
      <trkpt lat="44.22266" lon="6.12479">
        <ele>1499</ele>
        <time>2010-01-01T03:01:44Z</time>
      </trkpt>
      <trkpt lat="44.22272" lon="6.12472">
        <ele>1500</ele>
        <time>2010-01-01T03:01:46Z</time>
      </trkpt>
      <trkpt lat="44.22277" lon="6.12469">
        <ele>1501</ele>
        <time>2010-01-01T03:01:48Z</time>
      </trkpt>
      <trkpt lat="44.22282" lon="6.12471">
        <ele>1499</ele>
        <time>2010-01-01T03:01:49Z</time>
      </trkpt>
      <trkpt lat="44.22289" lon="6.12472">
        <ele>1496</ele>
        <time>2010-01-01T03:01:51Z</time>
      </trkpt>
      <trkpt lat="44.22294" lon="6.12473">
        <ele>1495</ele>
        <time>2010-01-01T03:01:52Z</time>
      </trkpt>
      <trkpt lat="44.22299" lon="6.12472">
        <ele>1494</ele>
        <time>2010-01-01T03:01:54Z</time>
      </trkpt>
      <trkpt lat="44.22304" lon="6.12466">
        <ele>1494</ele>
        <time>2010-01-01T03:01:55Z</time>
      </trkpt>
      <trkpt lat="44.2231" lon="6.12461">
        <ele>1494</ele>
        <time>2010-01-01T03:01:57Z</time>
      </trkpt>
      <trkpt lat="44.22313" lon="6.1246">
        <ele>1494</ele>
        <time>2010-01-01T03:01:58Z</time>
      </trkpt>
      <trkpt lat="44.22314" lon="6.12453">
        <ele>1496</ele>
        <time>2010-01-01T03:01:59Z</time>
      </trkpt>
      <trkpt lat="44.22319" lon="6.12452">
        <ele>1495</ele>
        <time>2010-01-01T03:02:01Z</time>
      </trkpt>
      <trkpt lat="44.22322" lon="6.12452">
        <ele>1494</ele>
        <time>2010-01-01T03:02:02Z</time>
      </trkpt>
      <trkpt lat="44.22327" lon="6.12451">
        <ele>1493</ele>
        <time>2010-01-01T03:02:03Z</time>
      </trkpt>
      <trkpt lat="44.22331" lon="6.12452">
        <ele>1492</ele>
        <time>2010-01-01T03:02:04Z</time>
      </trkpt>
      <trkpt lat="44.22335" lon="6.12452">
        <ele>1490</ele>
        <time>2010-01-01T03:02:05Z</time>
      </trkpt>
      <trkpt lat="44.22341" lon="6.12453">
        <ele>1489</ele>
        <time>2010-01-01T03:02:07Z</time>
      </trkpt>
      <trkpt lat="44.22347" lon="6.12452">
        <ele>1487</ele>
        <time>2010-01-01T03:02:08Z</time>
      </trkpt>
      <trkpt lat="44.22352" lon="6.12449">
        <ele>1487</ele>
        <time>2010-01-01T03:02:10Z</time>
      </trkpt>
      <trkpt lat="44.22355" lon="6.12447">
        <ele>1486</ele>
        <time>2010-01-01T03:02:11Z</time>
      </trkpt>
      <trkpt lat="44.22359" lon="6.12445">
        <ele>1486</ele>
        <time>2010-01-01T03:02:12Z</time>
      </trkpt>
      <trkpt lat="44.22362" lon="6.12449">
        <ele>1484</ele>
        <time>2010-01-01T03:02:13Z</time>
      </trkpt>
      <trkpt lat="44.22363" lon="6.12456">
        <ele>1482</ele>
        <time>2010-01-01T03:02:14Z</time>
      </trkpt>
      <trkpt lat="44.22364" lon="6.12462">
        <ele>1480</ele>
        <time>2010-01-01T03:02:15Z</time>
      </trkpt>
      <trkpt lat="44.22364" lon="6.12466">
        <ele>1479</ele>
        <time>2010-01-01T03:02:16Z</time>
      </trkpt>
      <trkpt lat="44.22362" lon="6.12473">
        <ele>1477</ele>
        <time>2010-01-01T03:02:18Z</time>
      </trkpt>
      <trkpt lat="44.22358" lon="6.12483">
        <ele>1476</ele>
        <time>2010-01-01T03:02:20Z</time>
      </trkpt>
      <trkpt lat="44.22353" lon="6.12494">
        <ele>1474</ele>
        <time>2010-01-01T03:02:22Z</time>
      </trkpt>
      <trkpt lat="44.22345" lon="6.12506">
        <ele>1472</ele>
        <time>2010-01-01T03:02:25Z</time>
      </trkpt>
      <trkpt lat="44.22337" lon="6.12519">
        <ele>1471</ele>
        <time>2010-01-01T03:02:29Z</time>
      </trkpt>
      <trkpt lat="44.22329" lon="6.12531">
        <ele>1469</ele>
        <time>2010-01-01T03:02:32Z</time>
      </trkpt>
      <trkpt lat="44.22321" lon="6.12543">
        <ele>1468</ele>
        <time>2010-01-01T03:02:35Z</time>
      </trkpt>
      <trkpt lat="44.22313" lon="6.12554">
        <ele>1467</ele>
        <time>2010-01-01T03:02:38Z</time>
      </trkpt>
      <trkpt lat="44.22296" lon="6.1257">
        <ele>1464</ele>
        <time>2010-01-01T03:02:43Z</time>
      </trkpt>
      <trkpt lat="44.22289" lon="6.12581">
        <ele>1462</ele>
        <time>2010-01-01T03:02:46Z</time>
      </trkpt>
      <trkpt lat="44.22286" lon="6.12574">
        <ele>1464</ele>
        <time>2010-01-01T03:02:48Z</time>
      </trkpt>
      <trkpt lat="44.22283" lon="6.12572">
        <ele>1465</ele>
        <time>2010-01-01T03:02:49Z</time>
      </trkpt>
      <trkpt lat="44.2228" lon="6.12571">
        <ele>1466</ele>
        <time>2010-01-01T03:02:50Z</time>
      </trkpt>
      <trkpt lat="44.22276" lon="6.1257">
        <ele>1466</ele>
        <time>2010-01-01T03:02:51Z</time>
      </trkpt>
      <trkpt lat="44.22271" lon="6.12573">
        <ele>1466</ele>
        <time>2010-01-01T03:02:52Z</time>
      </trkpt>
      <trkpt lat="44.22266" lon="6.1257">
        <ele>1468</ele>
        <time>2010-01-01T03:02:53Z</time>
      </trkpt>
      <trkpt lat="44.2226" lon="6.12571">
        <ele>1468</ele>
        <time>2010-01-01T03:02:55Z</time>
      </trkpt>
      <trkpt lat="44.22254" lon="6.12571">
        <ele>1469</ele>
        <time>2010-01-01T03:02:57Z</time>
      </trkpt>
      <trkpt lat="44.22248" lon="6.12573">
        <ele>1469</ele>
        <time>2010-01-01T03:02:58Z</time>
      </trkpt>
      <trkpt lat="44.22244" lon="6.12575">
        <ele>1470</ele>
        <time>2010-01-01T03:02:59Z</time>
      </trkpt>
      <trkpt lat="44.22248" lon="6.12574">
        <ele>1469</ele>
        <time>2010-01-01T03:03:00Z</time>
      </trkpt>
      <trkpt lat="44.22247" lon="6.12579">
        <ele>1468</ele>
        <time>2010-01-01T03:03:01Z</time>
      </trkpt>
      <trkpt lat="44.22248" lon="6.12584">
        <ele>1466</ele>
        <time>2010-01-01T03:03:02Z</time>
      </trkpt>
      <trkpt lat="44.22249" lon="6.12589">
        <ele>1464</ele>
        <time>2010-01-01T03:03:03Z</time>
      </trkpt>
      <trkpt lat="44.22251" lon="6.12593">
        <ele>1463</ele>
        <time>2010-01-01T03:03:04Z</time>
      </trkpt>
      <trkpt lat="44.22252" lon="6.12598">
        <ele>1461</ele>
        <time>2010-01-01T03:03:05Z</time>
      </trkpt>
      <trkpt lat="44.22251" lon="6.12603">
        <ele>1460</ele>
        <time>2010-01-01T03:03:06Z</time>
      </trkpt>
      <trkpt lat="44.2225" lon="6.12607">
        <ele>1460</ele>
        <time>2010-01-01T03:03:07Z</time>
      </trkpt>
      <trkpt lat="44.22249" lon="6.12613">
        <ele>1458</ele>
        <time>2010-01-01T03:03:08Z</time>
      </trkpt>
      <trkpt lat="44.22247" lon="6.12621">
        <ele>1457</ele>
        <time>2010-01-01T03:03:10Z</time>
      </trkpt>
      <trkpt lat="44.22247" lon="6.12627">
        <ele>1456</ele>
        <time>2010-01-01T03:03:11Z</time>
      </trkpt>
      <trkpt lat="44.22247" lon="6.12633">
        <ele>1455</ele>
        <time>2010-01-01T03:03:12Z</time>
      </trkpt>
      <trkpt lat="44.22242" lon="6.12648">
        <ele>1454</ele>
        <time>2010-01-01T03:03:15Z</time>
      </trkpt>
      <trkpt lat="44.22243" lon="6.12659">
        <ele>1452</ele>
        <time>2010-01-01T03:03:17Z</time>
      </trkpt>
      <trkpt lat="44.22243" lon="6.12672">
        <ele>1450</ele>
        <time>2010-01-01T03:03:20Z</time>
      </trkpt>
      <trkpt lat="44.22242" lon="6.12683">
        <ele>1448</ele>
        <time>2010-01-01T03:03:22Z</time>
      </trkpt>
      <trkpt lat="44.22242" lon="6.12694">
        <ele>1446</ele>
        <time>2010-01-01T03:03:24Z</time>
      </trkpt>
      <trkpt lat="44.22238" lon="6.1271">
        <ele>1444</ele>
        <time>2010-01-01T03:03:27Z</time>
      </trkpt>
      <trkpt lat="44.22235" lon="6.12724">
        <ele>1442</ele>
        <time>2010-01-01T03:03:30Z</time>
      </trkpt>
      <trkpt lat="44.22228" lon="6.12738">
        <ele>1441</ele>
        <time>2010-01-01T03:03:33Z</time>
      </trkpt>
      <trkpt lat="44.22224" lon="6.12749">
        <ele>1440</ele>
        <time>2010-01-01T03:03:35Z</time>
      </trkpt>
      <trkpt lat="44.22221" lon="6.12756">
        <ele>1438</ele>
        <time>2010-01-01T03:03:37Z</time>
      </trkpt>
      <trkpt lat="44.22216" lon="6.12762">
        <ele>1438</ele>
        <time>2010-01-01T03:03:39Z</time>
      </trkpt>
      <trkpt lat="44.2221" lon="6.12767">
        <ele>1438</ele>
        <time>2010-01-01T03:03:40Z</time>
      </trkpt>
      <trkpt lat="44.22205" lon="6.12772">
        <ele>1437</ele>
        <time>2010-01-01T03:03:42Z</time>
      </trkpt>
      <trkpt lat="44.22198" lon="6.12777">
        <ele>1436</ele>
        <time>2010-01-01T03:03:44Z</time>
      </trkpt>
      <trkpt lat="44.2219" lon="6.12776">
        <ele>1438</ele>
        <time>2010-01-01T03:03:46Z</time>
      </trkpt>
      <trkpt lat="44.22183" lon="6.12778">
        <ele>1438</ele>
        <time>2010-01-01T03:03:48Z</time>
      </trkpt>
      <trkpt lat="44.22174" lon="6.12779">
        <ele>1439</ele>
        <time>2010-01-01T03:03:51Z</time>
      </trkpt>
      <trkpt lat="44.22166" lon="6.12784">
        <ele>1439</ele>
        <time>2010-01-01T03:03:53Z</time>
      </trkpt>
      <trkpt lat="44.22159" lon="6.12787">
        <ele>1439</ele>
        <time>2010-01-01T03:03:55Z</time>
      </trkpt>
      <trkpt lat="44.22153" lon="6.12789">
        <ele>1439</ele>
        <time>2010-01-01T03:03:57Z</time>
      </trkpt>
      <trkpt lat="44.22145" lon="6.12792">
        <ele>1439</ele>
        <time>2010-01-01T03:03:59Z</time>
      </trkpt>
      <trkpt lat="44.2214" lon="6.12792">
        <ele>1440</ele>
        <time>2010-01-01T03:04:00Z</time>
      </trkpt>
      <trkpt lat="44.22134" lon="6.12796">
        <ele>1441</ele>
        <time>2010-01-01T03:04:02Z</time>
      </trkpt>
      <trkpt lat="44.2213" lon="6.128">
        <ele>1441</ele>
        <time>2010-01-01T03:04:03Z</time>
      </trkpt>
      <trkpt lat="44.22126" lon="6.12804">
        <ele>1441</ele>
        <time>2010-01-01T03:04:05Z</time>
      </trkpt>
      <trkpt lat="44.2213" lon="6.12805">
        <ele>1440</ele>
        <time>2010-01-01T03:04:06Z</time>
      </trkpt>
      <trkpt lat="44.22132" lon="6.12809">
        <ele>1439</ele>
        <time>2010-01-01T03:04:07Z</time>
      </trkpt>
      <trkpt lat="44.22132" lon="6.12814">
        <ele>1439</ele>
        <time>2010-01-01T03:04:08Z</time>
      </trkpt>
      <trkpt lat="44.22136" lon="6.12819">
        <ele>1437</ele>
        <time>2010-01-01T03:04:09Z</time>
      </trkpt>
      <trkpt lat="44.22139" lon="6.12823">
        <ele>1435</ele>
        <time>2010-01-01T03:04:10Z</time>
      </trkpt>
      <trkpt lat="44.22146" lon="6.12826">
        <ele>1433</ele>
        <time>2010-01-01T03:04:12Z</time>
      </trkpt>
      <trkpt lat="44.22149" lon="6.12835">
        <ele>1430</ele>
        <time>2010-01-01T03:04:14Z</time>
      </trkpt>
      <trkpt lat="44.22153" lon="6.12841">
        <ele>1428</ele>
        <time>2010-01-01T03:04:16Z</time>
      </trkpt>
      <trkpt lat="44.22159" lon="6.12852">
        <ele>1424</ele>
        <time>2010-01-01T03:04:18Z</time>
      </trkpt>
      <trkpt lat="44.22161" lon="6.12861">
        <ele>1422</ele>
        <time>2010-01-01T03:04:20Z</time>
      </trkpt>
      <trkpt lat="44.22163" lon="6.12868">
        <ele>1421</ele>
        <time>2010-01-01T03:04:22Z</time>
      </trkpt>
      <trkpt lat="44.22161" lon="6.12877">
        <ele>1421</ele>
        <time>2010-01-01T03:04:23Z</time>
      </trkpt>
      <trkpt lat="44.22161" lon="6.12886">
        <ele>1421</ele>
        <time>2010-01-01T03:04:25Z</time>
      </trkpt>
      <trkpt lat="44.22161" lon="6.12897">
        <ele>1421</ele>
        <time>2010-01-01T03:04:27Z</time>
      </trkpt>
      <trkpt lat="44.22163" lon="6.12909">
        <ele>1420</ele>
        <time>2010-01-01T03:04:30Z</time>
      </trkpt>
      <trkpt lat="44.22164" lon="6.12922">
        <ele>1420</ele>
        <time>2010-01-01T03:04:32Z</time>
      </trkpt>
      <trkpt lat="44.22166" lon="6.12932">
        <ele>1418</ele>
        <time>2010-01-01T03:04:34Z</time>
      </trkpt>
      <trkpt lat="44.22168" lon="6.12951">
        <ele>1414</ele>
        <time>2010-01-01T03:04:38Z</time>
      </trkpt>
      <trkpt lat="44.22167" lon="6.12962">
        <ele>1413</ele>
        <time>2010-01-01T03:04:40Z</time>
      </trkpt>
      <trkpt lat="44.22166" lon="6.1297">
        <ele>1412</ele>
        <time>2010-01-01T03:04:41Z</time>
      </trkpt>
      <trkpt lat="44.22162" lon="6.12982">
        <ele>1411</ele>
        <time>2010-01-01T03:04:44Z</time>
      </trkpt>
      <trkpt lat="44.22161" lon="6.12994">
        <ele>1408</ele>
        <time>2010-01-01T03:04:46Z</time>
      </trkpt>
      <trkpt lat="44.22158" lon="6.13006">
        <ele>1407</ele>
        <time>2010-01-01T03:04:49Z</time>
      </trkpt>
      <trkpt lat="44.22155" lon="6.13017">
        <ele>1405</ele>
        <time>2010-01-01T03:04:51Z</time>
      </trkpt>
      <trkpt lat="44.22133" lon="6.13048">
        <ele>1404</ele>
        <time>2010-01-01T03:04:59Z</time>
      </trkpt>
      <trkpt lat="44.22126" lon="6.13053">
        <ele>1404</ele>
        <time>2010-01-01T03:05:01Z</time>
      </trkpt>
      <trkpt lat="44.2212" lon="6.13064">
        <ele>1401</ele>
        <time>2010-01-01T03:05:04Z</time>
      </trkpt>
      <trkpt lat="44.22116" lon="6.13074">
        <ele>1399</ele>
        <time>2010-01-01T03:05:06Z</time>
      </trkpt>
      <trkpt lat="44.2211" lon="6.13083">
        <ele>1396</ele>
        <time>2010-01-01T03:05:08Z</time>
      </trkpt>
      <trkpt lat="44.22105" lon="6.13092">
        <ele>1394</ele>
        <time>2010-01-01T03:05:11Z</time>
      </trkpt>
      <trkpt lat="44.22099" lon="6.13092">
        <ele>1394</ele>
        <time>2010-01-01T03:05:12Z</time>
      </trkpt>
      <trkpt lat="44.22094" lon="6.13093">
        <ele>1393</ele>
        <time>2010-01-01T03:05:14Z</time>
      </trkpt>
      <trkpt lat="44.22087" lon="6.13093">
        <ele>1394</ele>
        <time>2010-01-01T03:05:15Z</time>
      </trkpt>
      <trkpt lat="44.22081" lon="6.13088">
        <ele>1395</ele>
        <time>2010-01-01T03:05:17Z</time>
      </trkpt>
      <trkpt lat="44.22075" lon="6.13085">
        <ele>1396</ele>
        <time>2010-01-01T03:05:19Z</time>
      </trkpt>
      <trkpt lat="44.22069" lon="6.13083">
        <ele>1396</ele>
        <time>2010-01-01T03:05:21Z</time>
      </trkpt>
      <trkpt lat="44.22061" lon="6.13082">
        <ele>1396</ele>
        <time>2010-01-01T03:05:23Z</time>
      </trkpt>
      <trkpt lat="44.22054" lon="6.13082">
        <ele>1396</ele>
        <time>2010-01-01T03:05:25Z</time>
      </trkpt>
      <trkpt lat="44.22047" lon="6.13081">
        <ele>1396</ele>
        <time>2010-01-01T03:05:27Z</time>
      </trkpt>
      <trkpt lat="44.2204" lon="6.13077">
        <ele>1396</ele>
        <time>2010-01-01T03:05:29Z</time>
      </trkpt>
      <trkpt lat="44.22036" lon="6.13072">
        <ele>1397</ele>
        <time>2010-01-01T03:05:30Z</time>
      </trkpt>
      <trkpt lat="44.22031" lon="6.13066">
        <ele>1397</ele>
        <time>2010-01-01T03:05:32Z</time>
      </trkpt>
      <trkpt lat="44.22026" lon="6.13059">
        <ele>1398</ele>
        <time>2010-01-01T03:05:34Z</time>
      </trkpt>
      <trkpt lat="44.22023" lon="6.13055">
        <ele>1398</ele>
        <time>2010-01-01T03:05:35Z</time>
      </trkpt>
      <trkpt lat="44.22015" lon="6.13048">
        <ele>1399</ele>
        <time>2010-01-01T03:05:37Z</time>
      </trkpt>
      <trkpt lat="44.22011" lon="6.13044">
        <ele>1399</ele>
        <time>2010-01-01T03:05:39Z</time>
      </trkpt>
      <trkpt lat="44.22006" lon="6.13042">
        <ele>1399</ele>
        <time>2010-01-01T03:05:40Z</time>
      </trkpt>
      <trkpt lat="44.22001" lon="6.13039">
        <ele>1399</ele>
        <time>2010-01-01T03:05:41Z</time>
      </trkpt>
      <trkpt lat="44.21997" lon="6.13037">
        <ele>1400</ele>
        <time>2010-01-01T03:05:43Z</time>
      </trkpt>
      <trkpt lat="44.21995" lon="6.1304">
        <ele>1400</ele>
        <time>2010-01-01T03:05:43Z</time>
      </trkpt>
      <trkpt lat="44.21997" lon="6.13046">
        <ele>1399</ele>
        <time>2010-01-01T03:05:45Z</time>
      </trkpt>
      <trkpt lat="44.21997" lon="6.1305">
        <ele>1399</ele>
        <time>2010-01-01T03:05:45Z</time>
      </trkpt>
      <trkpt lat="44.21997" lon="6.13054">
        <ele>1398</ele>
        <time>2010-01-01T03:05:46Z</time>
      </trkpt>
      <trkpt lat="44.21999" lon="6.13058">
        <ele>1397</ele>
        <time>2010-01-01T03:05:47Z</time>
      </trkpt>
      <trkpt lat="44.22001" lon="6.13067">
        <ele>1397</ele>
        <time>2010-01-01T03:05:49Z</time>
      </trkpt>
      <trkpt lat="44.22001" lon="6.13073">
        <ele>1396</ele>
        <time>2010-01-01T03:05:50Z</time>
      </trkpt>
      <trkpt lat="44.22002" lon="6.13083">
        <ele>1395</ele>
        <time>2010-01-01T03:05:52Z</time>
      </trkpt>
      <trkpt lat="44.22003" lon="6.13094">
        <ele>1394</ele>
        <time>2010-01-01T03:05:54Z</time>
      </trkpt>
      <trkpt lat="44.22004" lon="6.13107">
        <ele>1393</ele>
        <time>2010-01-01T03:05:57Z</time>
      </trkpt>
      <trkpt lat="44.2201" lon="6.13128">
        <ele>1390</ele>
        <time>2010-01-01T03:06:01Z</time>
      </trkpt>
      <trkpt lat="44.2201" lon="6.13142">
        <ele>1388</ele>
        <time>2010-01-01T03:06:04Z</time>
      </trkpt>
      <trkpt lat="44.22013" lon="6.13155">
        <ele>1386</ele>
        <time>2010-01-01T03:06:06Z</time>
      </trkpt>
      <trkpt lat="44.22017" lon="6.13171">
        <ele>1383</ele>
        <time>2010-01-01T03:06:10Z</time>
      </trkpt>
      <trkpt lat="44.22018" lon="6.13182">
        <ele>1382</ele>
        <time>2010-01-01T03:06:12Z</time>
      </trkpt>
      <trkpt lat="44.22019" lon="6.13195">
        <ele>1380</ele>
        <time>2010-01-01T03:06:14Z</time>
      </trkpt>
      <trkpt lat="44.22021" lon="6.13205">
        <ele>1378</ele>
        <time>2010-01-01T03:06:16Z</time>
      </trkpt>
      <trkpt lat="44.22023" lon="6.13216">
        <ele>1376</ele>
        <time>2010-01-01T03:06:18Z</time>
      </trkpt>
      <trkpt lat="44.22019" lon="6.13221">
        <ele>1377</ele>
        <time>2010-01-01T03:06:20Z</time>
      </trkpt>
      <trkpt lat="44.22015" lon="6.1323">
        <ele>1376</ele>
        <time>2010-01-01T03:06:22Z</time>
      </trkpt>
      <trkpt lat="44.22011" lon="6.13237">
        <ele>1376</ele>
        <time>2010-01-01T03:06:23Z</time>
      </trkpt>
      <trkpt lat="44.22007" lon="6.13245">
        <ele>1375</ele>
        <time>2010-01-01T03:06:25Z</time>
      </trkpt>
      <trkpt lat="44.22004" lon="6.13252">
        <ele>1374</ele>
        <time>2010-01-01T03:06:27Z</time>
      </trkpt>
      <trkpt lat="44.22" lon="6.13261">
        <ele>1373</ele>
        <time>2010-01-01T03:06:29Z</time>
      </trkpt>
      <trkpt lat="44.21995" lon="6.1327">
        <ele>1371</ele>
        <time>2010-01-01T03:06:31Z</time>
      </trkpt>
      <trkpt lat="44.2199" lon="6.13277">
        <ele>1370</ele>
        <time>2010-01-01T03:06:33Z</time>
      </trkpt>
      <trkpt lat="44.21984" lon="6.13284">
        <ele>1369</ele>
        <time>2010-01-01T03:06:35Z</time>
      </trkpt>
      <trkpt lat="44.21974" lon="6.13286">
        <ele>1371</ele>
        <time>2010-01-01T03:06:38Z</time>
      </trkpt>
      <trkpt lat="44.21967" lon="6.13293">
        <ele>1370</ele>
        <time>2010-01-01T03:06:40Z</time>
      </trkpt>
      <trkpt lat="44.2196" lon="6.13293">
        <ele>1372</ele>
        <time>2010-01-01T03:06:42Z</time>
      </trkpt>
      <trkpt lat="44.21951" lon="6.13295">
        <ele>1374</ele>
        <time>2010-01-01T03:06:44Z</time>
      </trkpt>
      <trkpt lat="44.21942" lon="6.13299">
        <ele>1375</ele>
        <time>2010-01-01T03:06:47Z</time>
      </trkpt>
      <trkpt lat="44.21932" lon="6.13302">
        <ele>1377</ele>
        <time>2010-01-01T03:06:50Z</time>
      </trkpt>
      <trkpt lat="44.21924" lon="6.13301">
        <ele>1379</ele>
        <time>2010-01-01T03:06:52Z</time>
      </trkpt>
      <trkpt lat="44.21919" lon="6.13302">
        <ele>1380</ele>
        <time>2010-01-01T03:06:53Z</time>
      </trkpt>
      <trkpt lat="44.21916" lon="6.13306">
        <ele>1380</ele>
        <time>2010-01-01T03:06:54Z</time>
      </trkpt>
      <trkpt lat="44.21921" lon="6.13308">
        <ele>1378</ele>
        <time>2010-01-01T03:06:56Z</time>
      </trkpt>
      <trkpt lat="44.21922" lon="6.13315">
        <ele>1376</ele>
        <time>2010-01-01T03:06:57Z</time>
      </trkpt>
      <trkpt lat="44.21924" lon="6.13322">
        <ele>1374</ele>
        <time>2010-01-01T03:06:59Z</time>
      </trkpt>
      <trkpt lat="44.21926" lon="6.13327">
        <ele>1372</ele>
        <time>2010-01-01T03:07:00Z</time>
      </trkpt>
      <trkpt lat="44.21927" lon="6.13335">
        <ele>1370</ele>
        <time>2010-01-01T03:07:01Z</time>
      </trkpt>
      <trkpt lat="44.21923" lon="6.13347">
        <ele>1368</ele>
        <time>2010-01-01T03:07:04Z</time>
      </trkpt>
      <trkpt lat="44.21922" lon="6.13358">
        <ele>1366</ele>
        <time>2010-01-01T03:07:06Z</time>
      </trkpt>
      <trkpt lat="44.21919" lon="6.13368">
        <ele>1365</ele>
        <time>2010-01-01T03:07:08Z</time>
      </trkpt>
      <trkpt lat="44.21919" lon="6.13378">
        <ele>1364</ele>
        <time>2010-01-01T03:07:10Z</time>
      </trkpt>
      <trkpt lat="44.21919" lon="6.13387">
        <ele>1363</ele>
        <time>2010-01-01T03:07:11Z</time>
      </trkpt>
      <trkpt lat="44.21916" lon="6.13396">
        <ele>1363</ele>
        <time>2010-01-01T03:07:13Z</time>
      </trkpt>
      <trkpt lat="44.21914" lon="6.13403">
        <ele>1364</ele>
        <time>2010-01-01T03:07:15Z</time>
      </trkpt>
      <trkpt lat="44.21911" lon="6.13411">
        <ele>1364</ele>
        <time>2010-01-01T03:07:17Z</time>
      </trkpt>
      <trkpt lat="44.21907" lon="6.13416">
        <ele>1365</ele>
        <time>2010-01-01T03:07:18Z</time>
      </trkpt>
      <trkpt lat="44.21902" lon="6.13419">
        <ele>1366</ele>
        <time>2010-01-01T03:07:19Z</time>
      </trkpt>
      <trkpt lat="44.21904" lon="6.13422">
        <ele>1366</ele>
        <time>2010-01-01T03:07:20Z</time>
      </trkpt>
      <trkpt lat="44.2191" lon="6.13427">
        <ele>1365</ele>
        <time>2010-01-01T03:07:22Z</time>
      </trkpt>
      <trkpt lat="44.21912" lon="6.13431">
        <ele>1365</ele>
        <time>2010-01-01T03:07:23Z</time>
      </trkpt>
      <trkpt lat="44.21917" lon="6.13431">
        <ele>1363</ele>
        <time>2010-01-01T03:07:24Z</time>
      </trkpt>
      <trkpt lat="44.21921" lon="6.13433">
        <ele>1362</ele>
        <time>2010-01-01T03:07:25Z</time>
      </trkpt>
      <trkpt lat="44.21928" lon="6.13433">
        <ele>1360</ele>
        <time>2010-01-01T03:07:27Z</time>
      </trkpt>
      <trkpt lat="44.21939" lon="6.13433">
        <ele>1358</ele>
        <time>2010-01-01T03:07:30Z</time>
      </trkpt>
      <trkpt lat="44.21946" lon="6.1343">
        <ele>1355</ele>
        <time>2010-01-01T03:07:32Z</time>
      </trkpt>
      <trkpt lat="44.21955" lon="6.13425">
        <ele>1353</ele>
        <time>2010-01-01T03:07:35Z</time>
      </trkpt>
      <trkpt lat="44.21964" lon="6.13423">
        <ele>1350</ele>
        <time>2010-01-01T03:07:37Z</time>
      </trkpt>
      <trkpt lat="44.21973" lon="6.1342">
        <ele>1348</ele>
        <time>2010-01-01T03:07:40Z</time>
      </trkpt>
      <trkpt lat="44.2198" lon="6.13418">
        <ele>1346</ele>
        <time>2010-01-01T03:07:42Z</time>
      </trkpt>
      <trkpt lat="44.21988" lon="6.13415">
        <ele>1344</ele>
        <time>2010-01-01T03:07:44Z</time>
      </trkpt>
      <trkpt lat="44.21998" lon="6.13415">
        <ele>1341</ele>
        <time>2010-01-01T03:07:46Z</time>
      </trkpt>
      <trkpt lat="44.22009" lon="6.13415">
        <ele>1339</ele>
        <time>2010-01-01T03:07:49Z</time>
      </trkpt>
      <trkpt lat="44.22014" lon="6.13424">
        <ele>1340</ele>
        <time>2010-01-01T03:07:51Z</time>
      </trkpt>
      <trkpt lat="44.2202" lon="6.13432">
        <ele>1340</ele>
        <time>2010-01-01T03:07:54Z</time>
      </trkpt>
      <trkpt lat="44.22027" lon="6.13441">
        <ele>1340</ele>
        <time>2010-01-01T03:07:56Z</time>
      </trkpt>
      <trkpt lat="44.2203" lon="6.13451">
        <ele>1341</ele>
        <time>2010-01-01T03:07:58Z</time>
      </trkpt>
      <trkpt lat="44.22035" lon="6.13459">
        <ele>1341</ele>
        <time>2010-01-01T03:08:00Z</time>
      </trkpt>
      <trkpt lat="44.22043" lon="6.13468">
        <ele>1339</ele>
        <time>2010-01-01T03:08:03Z</time>
      </trkpt>
      <trkpt lat="44.22048" lon="6.1348">
        <ele>1339</ele>
        <time>2010-01-01T03:08:06Z</time>
      </trkpt>
      <trkpt lat="44.22053" lon="6.13491">
        <ele>1338</ele>
        <time>2010-01-01T03:08:08Z</time>
      </trkpt>
      <trkpt lat="44.22057" lon="6.13501">
        <ele>1337</ele>
        <time>2010-01-01T03:08:10Z</time>
      </trkpt>
      <trkpt lat="44.22063" lon="6.13513">
        <ele>1336</ele>
        <time>2010-01-01T03:08:13Z</time>
      </trkpt>
      <trkpt lat="44.22068" lon="6.13523">
        <ele>1334</ele>
        <time>2010-01-01T03:08:16Z</time>
      </trkpt>
      <trkpt lat="44.22072" lon="6.13536">
        <ele>1334</ele>
        <time>2010-01-01T03:08:18Z</time>
      </trkpt>
      <trkpt lat="44.22078" lon="6.13548">
        <ele>1332</ele>
        <time>2010-01-01T03:08:21Z</time>
      </trkpt>
      <trkpt lat="44.22084" lon="6.13561">
        <ele>1330</ele>
        <time>2010-01-01T03:08:24Z</time>
      </trkpt>
      <trkpt lat="44.22083" lon="6.13571">
        <ele>1330</ele>
        <time>2010-01-01T03:08:26Z</time>
      </trkpt>
      <trkpt lat="44.22086" lon="6.13581">
        <ele>1327</ele>
        <time>2010-01-01T03:08:28Z</time>
      </trkpt>
      <trkpt lat="44.22086" lon="6.13587">
        <ele>1327</ele>
        <time>2010-01-01T03:08:29Z</time>
      </trkpt>
      <trkpt lat="44.22084" lon="6.13592">
        <ele>1327</ele>
        <time>2010-01-01T03:08:30Z</time>
      </trkpt>
      <trkpt lat="44.22081" lon="6.13587">
        <ele>1329</ele>
        <time>2010-01-01T03:08:31Z</time>
      </trkpt>
      <trkpt lat="44.2208" lon="6.13583">
        <ele>1330</ele>
        <time>2010-01-01T03:08:32Z</time>
      </trkpt>
      <trkpt lat="44.2208" lon="6.13579">
        <ele>1330</ele>
        <time>2010-01-01T03:08:33Z</time>
      </trkpt>
      <trkpt lat="44.22079" lon="6.13575">
        <ele>1331</ele>
        <time>2010-01-01T03:08:34Z</time>
      </trkpt>
      <trkpt lat="44.22078" lon="6.13571">
        <ele>1332</ele>
        <time>2010-01-01T03:08:35Z</time>
      </trkpt>
      <trkpt lat="44.22075" lon="6.13569">
        <ele>1333</ele>
        <time>2010-01-01T03:08:35Z</time>
      </trkpt>
      <trkpt lat="44.22072" lon="6.13566">
        <ele>1335</ele>
        <time>2010-01-01T03:08:36Z</time>
      </trkpt>
      <trkpt lat="44.22072" lon="6.13562">
        <ele>1335</ele>
        <time>2010-01-01T03:08:37Z</time>
      </trkpt>
      <trkpt lat="44.22072" lon="6.13553">
        <ele>1335</ele>
        <time>2010-01-01T03:08:39Z</time>
      </trkpt>
      <trkpt lat="44.2207" lon="6.13549">
        <ele>1336</ele>
        <time>2010-01-01T03:08:40Z</time>
      </trkpt>
      <trkpt lat="44.22068" lon="6.13546">
        <ele>1337</ele>
        <time>2010-01-01T03:08:41Z</time>
      </trkpt>
      <trkpt lat="44.22066" lon="6.13542">
        <ele>1337</ele>
        <time>2010-01-01T03:08:41Z</time>
      </trkpt>
      <trkpt lat="44.22064" lon="6.13538">
        <ele>1338</ele>
        <time>2010-01-01T03:08:42Z</time>
      </trkpt>
      <trkpt lat="44.22063" lon="6.13532">
        <ele>1338</ele>
        <time>2010-01-01T03:08:44Z</time>
      </trkpt>
      <trkpt lat="44.22062" lon="6.13528">
        <ele>1338</ele>
        <time>2010-01-01T03:08:44Z</time>
      </trkpt>
      <trkpt lat="44.2206" lon="6.13525">
        <ele>1339</ele>
        <time>2010-01-01T03:08:45Z</time>
      </trkpt>
      <trkpt lat="44.22058" lon="6.13522">
        <ele>1339</ele>
        <time>2010-01-01T03:08:46Z</time>
      </trkpt>
      <trkpt lat="44.22057" lon="6.13519">
        <ele>1340</ele>
        <time>2010-01-01T03:08:47Z</time>
      </trkpt>
      <trkpt lat="44.22055" lon="6.13514">
        <ele>1340</ele>
        <time>2010-01-01T03:08:48Z</time>
      </trkpt>
      <trkpt lat="44.22053" lon="6.13508">
        <ele>1340</ele>
        <time>2010-01-01T03:08:49Z</time>
      </trkpt>
      <trkpt lat="44.22051" lon="6.13505">
        <ele>1340</ele>
        <time>2010-01-01T03:08:50Z</time>
      </trkpt>
      <trkpt lat="44.22049" lon="6.135">
        <ele>1340</ele>
        <time>2010-01-01T03:08:51Z</time>
      </trkpt>
      <trkpt lat="44.22046" lon="6.13496">
        <ele>1341</ele>
        <time>2010-01-01T03:08:52Z</time>
      </trkpt>
      <trkpt lat="44.22043" lon="6.13494">
        <ele>1342</ele>
        <time>2010-01-01T03:08:53Z</time>
      </trkpt>
      <trkpt lat="44.2204" lon="6.13489">
        <ele>1343</ele>
        <time>2010-01-01T03:08:54Z</time>
      </trkpt>
      <trkpt lat="44.22037" lon="6.13485">
        <ele>1344</ele>
        <time>2010-01-01T03:08:55Z</time>
      </trkpt>
      <trkpt lat="44.22035" lon="6.13481">
        <ele>1345</ele>
        <time>2010-01-01T03:08:56Z</time>
      </trkpt>
      <trkpt lat="44.22031" lon="6.13477">
        <ele>1346</ele>
        <time>2010-01-01T03:08:57Z</time>
      </trkpt>
      <trkpt lat="44.22027" lon="6.13474">
        <ele>1347</ele>
        <time>2010-01-01T03:08:59Z</time>
      </trkpt>
      <trkpt lat="44.22023" lon="6.1347">
        <ele>1347</ele>
        <time>2010-01-01T03:09:00Z</time>
      </trkpt>
      <trkpt lat="44.22019" lon="6.13467">
        <ele>1347</ele>
        <time>2010-01-01T03:09:01Z</time>
      </trkpt>
      <trkpt lat="44.22016" lon="6.13463">
        <ele>1347</ele>
        <time>2010-01-01T03:09:02Z</time>
      </trkpt>
      <trkpt lat="44.22013" lon="6.1346">
        <ele>1347</ele>
        <time>2010-01-01T03:09:03Z</time>
      </trkpt>
      <trkpt lat="44.2201" lon="6.13458">
        <ele>1348</ele>
        <time>2010-01-01T03:09:04Z</time>
      </trkpt>
      <trkpt lat="44.22006" lon="6.13457">
        <ele>1349</ele>
        <time>2010-01-01T03:09:05Z</time>
      </trkpt>
      <trkpt lat="44.22002" lon="6.13456">
        <ele>1350</ele>
        <time>2010-01-01T03:09:06Z</time>
      </trkpt>
      <trkpt lat="44.21999" lon="6.13456">
        <ele>1350</ele>
        <time>2010-01-01T03:09:07Z</time>
      </trkpt>
      <trkpt lat="44.21996" lon="6.13453">
        <ele>1350</ele>
        <time>2010-01-01T03:09:08Z</time>
      </trkpt>
      <trkpt lat="44.21993" lon="6.13452">
        <ele>1350</ele>
        <time>2010-01-01T03:09:09Z</time>
      </trkpt>
      <trkpt lat="44.2199" lon="6.13451">
        <ele>1351</ele>
        <time>2010-01-01T03:09:10Z</time>
      </trkpt>
      <trkpt lat="44.21987" lon="6.13451">
        <ele>1351</ele>
        <time>2010-01-01T03:09:10Z</time>
      </trkpt>
      <trkpt lat="44.21984" lon="6.13452">
        <ele>1352</ele>
        <time>2010-01-01T03:09:11Z</time>
      </trkpt>
      <trkpt lat="44.21981" lon="6.13452">
        <ele>1353</ele>
        <time>2010-01-01T03:09:12Z</time>
      </trkpt>
      <trkpt lat="44.21978" lon="6.13451">
        <ele>1353</ele>
        <time>2010-01-01T03:09:13Z</time>
      </trkpt>
      <trkpt lat="44.21974" lon="6.13452">
        <ele>1354</ele>
        <time>2010-01-01T03:09:14Z</time>
      </trkpt>
      <trkpt lat="44.2197" lon="6.13452">
        <ele>1355</ele>
        <time>2010-01-01T03:09:15Z</time>
      </trkpt>
      <trkpt lat="44.21967" lon="6.13454">
        <ele>1356</ele>
        <time>2010-01-01T03:09:16Z</time>
      </trkpt>
      <trkpt lat="44.21964" lon="6.13453">
        <ele>1356</ele>
        <time>2010-01-01T03:09:17Z</time>
      </trkpt>
      <trkpt lat="44.21951" lon="6.13451">
        <ele>1358</ele>
        <time>2010-01-01T03:09:20Z</time>
      </trkpt>
      <trkpt lat="44.21949" lon="6.13452">
        <ele>1359</ele>
        <time>2010-01-01T03:09:21Z</time>
      </trkpt>
      <trkpt lat="44.21945" lon="6.13453">
        <ele>1360</ele>
        <time>2010-01-01T03:09:22Z</time>
      </trkpt>
      <trkpt lat="44.2194" lon="6.13454">
        <ele>1361</ele>
        <time>2010-01-01T03:09:23Z</time>
      </trkpt>
      <trkpt lat="44.21936" lon="6.13454">
        <ele>1362</ele>
        <time>2010-01-01T03:09:24Z</time>
      </trkpt>
      <trkpt lat="44.21934" lon="6.13454">
        <ele>1362</ele>
        <time>2010-01-01T03:09:25Z</time>
      </trkpt>
      <trkpt lat="44.2193" lon="6.13453">
        <ele>1363</ele>
        <time>2010-01-01T03:09:26Z</time>
      </trkpt>
      <trkpt lat="44.21926" lon="6.13453">
        <ele>1364</ele>
        <time>2010-01-01T03:09:27Z</time>
      </trkpt>
      <trkpt lat="44.21923" lon="6.13452">
        <ele>1364</ele>
        <time>2010-01-01T03:09:28Z</time>
      </trkpt>
      <trkpt lat="44.21919" lon="6.13451">
        <ele>1365</ele>
        <time>2010-01-01T03:09:29Z</time>
      </trkpt>
      <trkpt lat="44.21916" lon="6.13449">
        <ele>1365</ele>
        <time>2010-01-01T03:09:30Z</time>
      </trkpt>
      <trkpt lat="44.21913" lon="6.13448">
        <ele>1366</ele>
        <time>2010-01-01T03:09:31Z</time>
      </trkpt>
      <trkpt lat="44.2191" lon="6.13445">
        <ele>1366</ele>
        <time>2010-01-01T03:09:32Z</time>
      </trkpt>
      <trkpt lat="44.21906" lon="6.13442">
        <ele>1367</ele>
        <time>2010-01-01T03:09:33Z</time>
      </trkpt>
      <trkpt lat="44.21903" lon="6.13441">
        <ele>1368</ele>
        <time>2010-01-01T03:09:34Z</time>
      </trkpt>
      <trkpt lat="44.21899" lon="6.1344">
        <ele>1368</ele>
        <time>2010-01-01T03:09:35Z</time>
      </trkpt>
      <trkpt lat="44.21901" lon="6.13436">
        <ele>1368</ele>
        <time>2010-01-01T03:09:35Z</time>
      </trkpt>
      <trkpt lat="44.21902" lon="6.13432">
        <ele>1367</ele>
        <time>2010-01-01T03:09:36Z</time>
      </trkpt>
      <trkpt lat="44.21902" lon="6.13427">
        <ele>1367</ele>
        <time>2010-01-01T03:09:37Z</time>
      </trkpt>
      <trkpt lat="44.21903" lon="6.13424">
        <ele>1366</ele>
        <time>2010-01-01T03:09:38Z</time>
      </trkpt>
      <trkpt lat="44.21914" lon="6.1341">
        <ele>1363</ele>
        <time>2010-01-01T03:09:42Z</time>
      </trkpt>
      <trkpt lat="44.21912" lon="6.13413">
        <ele>1364</ele>
        <time>2010-01-01T03:09:42Z</time>
      </trkpt>
      <trkpt lat="44.21909" lon="6.13414">
        <ele>1365</ele>
        <time>2010-01-01T03:09:43Z</time>
      </trkpt>
      <trkpt lat="44.21905" lon="6.13415">
        <ele>1365</ele>
        <time>2010-01-01T03:09:44Z</time>
      </trkpt>
      <trkpt lat="44.21902" lon="6.13419">
        <ele>1366</ele>
        <time>2010-01-01T03:09:45Z</time>
      </trkpt>
      <trkpt lat="44.21903" lon="6.13423">
        <ele>1366</ele>
        <time>2010-01-01T03:09:46Z</time>
      </trkpt>
      <trkpt lat="44.21906" lon="6.13426">
        <ele>1366</ele>
        <time>2010-01-01T03:09:47Z</time>
      </trkpt>
      <trkpt lat="44.2191" lon="6.13428">
        <ele>1365</ele>
        <time>2010-01-01T03:09:48Z</time>
      </trkpt>
      <trkpt lat="44.21915" lon="6.1343">
        <ele>1364</ele>
        <time>2010-01-01T03:09:50Z</time>
      </trkpt>
      <trkpt lat="44.21918" lon="6.1343">
        <ele>1363</ele>
        <time>2010-01-01T03:09:51Z</time>
      </trkpt>
      <trkpt lat="44.21922" lon="6.13431">
        <ele>1362</ele>
        <time>2010-01-01T03:09:52Z</time>
      </trkpt>
      <trkpt lat="44.21924" lon="6.13432">
        <ele>1361</ele>
        <time>2010-01-01T03:09:52Z</time>
      </trkpt>
      <trkpt lat="44.21927" lon="6.13432">
        <ele>1361</ele>
        <time>2010-01-01T03:09:53Z</time>
      </trkpt>
      <trkpt lat="44.21933" lon="6.13431">
        <ele>1359</ele>
        <time>2010-01-01T03:09:55Z</time>
      </trkpt>
      <trkpt lat="44.21936" lon="6.13429">
        <ele>1358</ele>
        <time>2010-01-01T03:09:55Z</time>
      </trkpt>
      <trkpt lat="44.2194" lon="6.13427">
        <ele>1356</ele>
        <time>2010-01-01T03:09:56Z</time>
      </trkpt>
      <trkpt lat="44.21943" lon="6.13427">
        <ele>1355</ele>
        <time>2010-01-01T03:09:57Z</time>
      </trkpt>
      <trkpt lat="44.21947" lon="6.13425">
        <ele>1354</ele>
        <time>2010-01-01T03:09:58Z</time>
      </trkpt>
      <trkpt lat="44.21951" lon="6.13423">
        <ele>1353</ele>
        <time>2010-01-01T03:09:59Z</time>
      </trkpt>
      <trkpt lat="44.21954" lon="6.13422">
        <ele>1352</ele>
        <time>2010-01-01T03:10:00Z</time>
      </trkpt>
      <trkpt lat="44.21956" lon="6.13422">
        <ele>1352</ele>
        <time>2010-01-01T03:10:01Z</time>
      </trkpt>
      <trkpt lat="44.21959" lon="6.13421">
        <ele>1351</ele>
        <time>2010-01-01T03:10:02Z</time>
      </trkpt>
      <trkpt lat="44.21963" lon="6.1342">
        <ele>1350</ele>
        <time>2010-01-01T03:10:03Z</time>
      </trkpt>
      <trkpt lat="44.21966" lon="6.13419">
        <ele>1349</ele>
        <time>2010-01-01T03:10:04Z</time>
      </trkpt>
      <trkpt lat="44.21969" lon="6.1342">
        <ele>1349</ele>
        <time>2010-01-01T03:10:04Z</time>
      </trkpt>
      <trkpt lat="44.21972" lon="6.13419">
        <ele>1348</ele>
        <time>2010-01-01T03:10:05Z</time>
      </trkpt>
      <trkpt lat="44.21976" lon="6.13419">
        <ele>1347</ele>
        <time>2010-01-01T03:10:06Z</time>
      </trkpt>
      <trkpt lat="44.21979" lon="6.13419">
        <ele>1346</ele>
        <time>2010-01-01T03:10:07Z</time>
      </trkpt>
      <trkpt lat="44.21984" lon="6.13418">
        <ele>1345</ele>
        <time>2010-01-01T03:10:09Z</time>
      </trkpt>
      <trkpt lat="44.2199" lon="6.13418">
        <ele>1343</ele>
        <time>2010-01-01T03:10:10Z</time>
      </trkpt>
      <trkpt lat="44.21996" lon="6.13419">
        <ele>1342</ele>
        <time>2010-01-01T03:10:12Z</time>
      </trkpt>
      <trkpt lat="44.22001" lon="6.13421">
        <ele>1341</ele>
        <time>2010-01-01T03:10:13Z</time>
      </trkpt>
      <trkpt lat="44.22007" lon="6.13424">
        <ele>1341</ele>
        <time>2010-01-01T03:10:15Z</time>
      </trkpt>
      <trkpt lat="44.22012" lon="6.13428">
        <ele>1341</ele>
        <time>2010-01-01T03:10:16Z</time>
      </trkpt>
      <trkpt lat="44.22018" lon="6.13434">
        <ele>1341</ele>
        <time>2010-01-01T03:10:18Z</time>
      </trkpt>
      <trkpt lat="44.22024" lon="6.13439">
        <ele>1341</ele>
        <time>2010-01-01T03:10:20Z</time>
      </trkpt>
      <trkpt lat="44.2203" lon="6.13445">
        <ele>1340</ele>
        <time>2010-01-01T03:10:22Z</time>
      </trkpt>
      <trkpt lat="44.22034" lon="6.13452">
        <ele>1340</ele>
        <time>2010-01-01T03:10:24Z</time>
      </trkpt>
      <trkpt lat="44.22038" lon="6.13459">
        <ele>1340</ele>
        <time>2010-01-01T03:10:26Z</time>
      </trkpt>
      <trkpt lat="44.22043" lon="6.13476">
        <ele>1340</ele>
        <time>2010-01-01T03:10:29Z</time>
      </trkpt>
      <trkpt lat="44.22048" lon="6.13484">
        <ele>1339</ele>
        <time>2010-01-01T03:10:31Z</time>
      </trkpt>
      <trkpt lat="44.22053" lon="6.13491">
        <ele>1338</ele>
        <time>2010-01-01T03:10:33Z</time>
      </trkpt>
      <trkpt lat="44.22056" lon="6.13497">
        <ele>1337</ele>
        <time>2010-01-01T03:10:34Z</time>
      </trkpt>
      <trkpt lat="44.22058" lon="6.13503">
        <ele>1337</ele>
        <time>2010-01-01T03:10:36Z</time>
      </trkpt>
      <trkpt lat="44.22061" lon="6.13508">
        <ele>1336</ele>
        <time>2010-01-01T03:10:37Z</time>
      </trkpt>
      <trkpt lat="44.22063" lon="6.13513">
        <ele>1336</ele>
        <time>2010-01-01T03:10:38Z</time>
      </trkpt>
      <trkpt lat="44.22065" lon="6.13518">
        <ele>1335</ele>
        <time>2010-01-01T03:10:39Z</time>
      </trkpt>
      <trkpt lat="44.22069" lon="6.13524">
        <ele>1334</ele>
        <time>2010-01-01T03:10:41Z</time>
      </trkpt>
      <trkpt lat="44.22071" lon="6.1353">
        <ele>1334</ele>
        <time>2010-01-01T03:10:42Z</time>
      </trkpt>
      <trkpt lat="44.22073" lon="6.13535">
        <ele>1333</ele>
        <time>2010-01-01T03:10:43Z</time>
      </trkpt>
      <trkpt lat="44.22074" lon="6.13541">
        <ele>1333</ele>
        <time>2010-01-01T03:10:44Z</time>
      </trkpt>
      <trkpt lat="44.22075" lon="6.13546">
        <ele>1333</ele>
        <time>2010-01-01T03:10:45Z</time>
      </trkpt>
      <trkpt lat="44.22077" lon="6.1355">
        <ele>1333</ele>
        <time>2010-01-01T03:10:46Z</time>
      </trkpt>
      <trkpt lat="44.22079" lon="6.13554">
        <ele>1333</ele>
        <time>2010-01-01T03:10:47Z</time>
      </trkpt>
      <trkpt lat="44.2208" lon="6.13558">
        <ele>1332</ele>
        <time>2010-01-01T03:10:48Z</time>
      </trkpt>
      <trkpt lat="44.22081" lon="6.13564">
        <ele>1331</ele>
        <time>2010-01-01T03:10:49Z</time>
      </trkpt>
      <trkpt lat="44.22082" lon="6.13569">
        <ele>1330</ele>
        <time>2010-01-01T03:10:50Z</time>
      </trkpt>
      <trkpt lat="44.22083" lon="6.13573">
        <ele>1329</ele>
        <time>2010-01-01T03:10:51Z</time>
      </trkpt>
      <trkpt lat="44.22085" lon="6.13578">
        <ele>1328</ele>
        <time>2010-01-01T03:10:52Z</time>
      </trkpt>
      <trkpt lat="44.22086" lon="6.13582">
        <ele>1327</ele>
        <time>2010-01-01T03:10:53Z</time>
      </trkpt>
      <trkpt lat="44.22088" lon="6.13585">
        <ele>1326</ele>
        <time>2010-01-01T03:10:54Z</time>
      </trkpt>
      <trkpt lat="44.22091" lon="6.13589">
        <ele>1325</ele>
        <time>2010-01-01T03:10:55Z</time>
      </trkpt>
      <trkpt lat="44.22094" lon="6.13592">
        <ele>1323</ele>
        <time>2010-01-01T03:10:56Z</time>
      </trkpt>
      <trkpt lat="44.22097" lon="6.13596">
        <ele>1322</ele>
        <time>2010-01-01T03:10:57Z</time>
      </trkpt>
      <trkpt lat="44.22099" lon="6.13599">
        <ele>1321</ele>
        <time>2010-01-01T03:10:58Z</time>
      </trkpt>
      <trkpt lat="44.22101" lon="6.13595">
        <ele>1321</ele>
        <time>2010-01-01T03:10:58Z</time>
      </trkpt>
      <trkpt lat="44.22099" lon="6.13588">
        <ele>1322</ele>
        <time>2010-01-01T03:11:00Z</time>
      </trkpt>
      <trkpt lat="44.22097" lon="6.13582">
        <ele>1323</ele>
        <time>2010-01-01T03:11:01Z</time>
      </trkpt>
      <trkpt lat="44.22094" lon="6.13576">
        <ele>1324</ele>
        <time>2010-01-01T03:11:02Z</time>
      </trkpt>
      <trkpt lat="44.22092" lon="6.13571">
        <ele>1325</ele>
        <time>2010-01-01T03:11:03Z</time>
      </trkpt>
      <trkpt lat="44.22092" lon="6.13567">
        <ele>1326</ele>
        <time>2010-01-01T03:11:04Z</time>
      </trkpt>
      <trkpt lat="44.22091" lon="6.13562">
        <ele>1326</ele>
        <time>2010-01-01T03:11:05Z</time>
      </trkpt>
      <trkpt lat="44.2209" lon="6.13558">
        <ele>1327</ele>
        <time>2010-01-01T03:11:06Z</time>
      </trkpt>
      <trkpt lat="44.2209" lon="6.13554">
        <ele>1327</ele>
        <time>2010-01-01T03:11:07Z</time>
      </trkpt>
      <trkpt lat="44.2209" lon="6.13548">
        <ele>1326</ele>
        <time>2010-01-01T03:11:08Z</time>
      </trkpt>
      <trkpt lat="44.22089" lon="6.13541">
        <ele>1326</ele>
        <time>2010-01-01T03:11:09Z</time>
      </trkpt>
      <trkpt lat="44.22087" lon="6.13536">
        <ele>1327</ele>
        <time>2010-01-01T03:11:10Z</time>
      </trkpt>
      <trkpt lat="44.22085" lon="6.13533">
        <ele>1327</ele>
        <time>2010-01-01T03:11:11Z</time>
      </trkpt>
      <trkpt lat="44.22082" lon="6.13527">
        <ele>1328</ele>
        <time>2010-01-01T03:11:12Z</time>
      </trkpt>
      <trkpt lat="44.22081" lon="6.13523">
        <ele>1328</ele>
        <time>2010-01-01T03:11:13Z</time>
      </trkpt>
      <trkpt lat="44.22079" lon="6.13516">
        <ele>1328</ele>
        <time>2010-01-01T03:11:15Z</time>
      </trkpt>
      <trkpt lat="44.22077" lon="6.13512">
        <ele>1328</ele>
        <time>2010-01-01T03:11:16Z</time>
      </trkpt>
      <trkpt lat="44.22076" lon="6.13509">
        <ele>1329</ele>
        <time>2010-01-01T03:11:16Z</time>
      </trkpt>
      <trkpt lat="44.22074" lon="6.13504">
        <ele>1329</ele>
        <time>2010-01-01T03:11:17Z</time>
      </trkpt>
      <trkpt lat="44.22072" lon="6.13499">
        <ele>1329</ele>
        <time>2010-01-01T03:11:19Z</time>
      </trkpt>
      <trkpt lat="44.2207" lon="6.13494">
        <ele>1330</ele>
        <time>2010-01-01T03:11:20Z</time>
      </trkpt>
      <trkpt lat="44.22067" lon="6.13489">
        <ele>1331</ele>
        <time>2010-01-01T03:11:21Z</time>
      </trkpt>
      <trkpt lat="44.22064" lon="6.13485">
        <ele>1332</ele>
        <time>2010-01-01T03:11:22Z</time>
      </trkpt>
      <trkpt lat="44.22062" lon="6.13482">
        <ele>1332</ele>
        <time>2010-01-01T03:11:23Z</time>
      </trkpt>
      <trkpt lat="44.22061" lon="6.13478">
        <ele>1333</ele>
        <time>2010-01-01T03:11:23Z</time>
      </trkpt>
      <trkpt lat="44.2206" lon="6.13474">
        <ele>1333</ele>
        <time>2010-01-01T03:11:24Z</time>
      </trkpt>
      <trkpt lat="44.22058" lon="6.1347">
        <ele>1333</ele>
        <time>2010-01-01T03:11:25Z</time>
      </trkpt>
      <trkpt lat="44.22057" lon="6.13467">
        <ele>1334</ele>
        <time>2010-01-01T03:11:26Z</time>
      </trkpt>
      <trkpt lat="44.22054" lon="6.13458">
        <ele>1334</ele>
        <time>2010-01-01T03:11:28Z</time>
      </trkpt>
      <trkpt lat="44.22052" lon="6.13453">
        <ele>1334</ele>
        <time>2010-01-01T03:11:29Z</time>
      </trkpt>
      <trkpt lat="44.22049" lon="6.13448">
        <ele>1335</ele>
        <time>2010-01-01T03:11:30Z</time>
      </trkpt>
      <trkpt lat="44.22047" lon="6.13444">
        <ele>1335</ele>
        <time>2010-01-01T03:11:31Z</time>
      </trkpt>
      <trkpt lat="44.22044" lon="6.13441">
        <ele>1336</ele>
        <time>2010-01-01T03:11:32Z</time>
      </trkpt>
      <trkpt lat="44.22041" lon="6.13439">
        <ele>1336</ele>
        <time>2010-01-01T03:11:33Z</time>
      </trkpt>
      <trkpt lat="44.22038" lon="6.13437">
        <ele>1337</ele>
        <time>2010-01-01T03:11:34Z</time>
      </trkpt>
      <trkpt lat="44.22034" lon="6.13436">
        <ele>1338</ele>
        <time>2010-01-01T03:11:35Z</time>
      </trkpt>
      <trkpt lat="44.22031" lon="6.13434">
        <ele>1338</ele>
        <time>2010-01-01T03:11:36Z</time>
      </trkpt>
      <trkpt lat="44.22029" lon="6.13433">
        <ele>1339</ele>
        <time>2010-01-01T03:11:36Z</time>
      </trkpt>
      <trkpt lat="44.22025" lon="6.1343">
        <ele>1339</ele>
        <time>2010-01-01T03:11:37Z</time>
      </trkpt>
      <trkpt lat="44.22021" lon="6.13427">
        <ele>1339</ele>
        <time>2010-01-01T03:11:39Z</time>
      </trkpt>
      <trkpt lat="44.22019" lon="6.13425">
        <ele>1339</ele>
        <time>2010-01-01T03:11:39Z</time>
      </trkpt>
      <trkpt lat="44.22016" lon="6.13422">
        <ele>1339</ele>
        <time>2010-01-01T03:11:40Z</time>
      </trkpt>
      <trkpt lat="44.22014" lon="6.1342">
        <ele>1339</ele>
        <time>2010-01-01T03:11:41Z</time>
      </trkpt>
      <trkpt lat="44.2201" lon="6.13415">
        <ele>1339</ele>
        <time>2010-01-01T03:11:42Z</time>
      </trkpt>
      <trkpt lat="44.22007" lon="6.13413">
        <ele>1339</ele>
        <time>2010-01-01T03:11:43Z</time>
      </trkpt>
      <trkpt lat="44.22005" lon="6.13411">
        <ele>1339</ele>
        <time>2010-01-01T03:11:44Z</time>
      </trkpt>
      <trkpt lat="44.22002" lon="6.13407">
        <ele>1340</ele>
        <time>2010-01-01T03:11:45Z</time>
      </trkpt>
      <trkpt lat="44.21997" lon="6.13404">
        <ele>1340</ele>
        <time>2010-01-01T03:11:46Z</time>
      </trkpt>
      <trkpt lat="44.21993" lon="6.13401">
        <ele>1341</ele>
        <time>2010-01-01T03:11:48Z</time>
      </trkpt>
      <trkpt lat="44.2199" lon="6.13397">
        <ele>1342</ele>
        <time>2010-01-01T03:11:49Z</time>
      </trkpt>
      <trkpt lat="44.2199" lon="6.1339">
        <ele>1341</ele>
        <time>2010-01-01T03:11:50Z</time>
      </trkpt>
      <trkpt lat="44.21992" lon="6.13386">
        <ele>1341</ele>
        <time>2010-01-01T03:11:51Z</time>
      </trkpt>
      <trkpt lat="44.21994" lon="6.13382">
        <ele>1341</ele>
        <time>2010-01-01T03:11:52Z</time>
      </trkpt>
      <trkpt lat="44.21997" lon="6.13378">
        <ele>1340</ele>
        <time>2010-01-01T03:11:53Z</time>
      </trkpt>
      <trkpt lat="44.21999" lon="6.13377">
        <ele>1340</ele>
        <time>2010-01-01T03:11:54Z</time>
      </trkpt>
      <trkpt lat="44.22003" lon="6.13375">
        <ele>1339</ele>
        <time>2010-01-01T03:11:55Z</time>
      </trkpt>
      <trkpt lat="44.22007" lon="6.13374">
        <ele>1339</ele>
        <time>2010-01-01T03:11:56Z</time>
      </trkpt>
      <trkpt lat="44.22012" lon="6.13373">
        <ele>1339</ele>
        <time>2010-01-01T03:11:57Z</time>
      </trkpt>
      <trkpt lat="44.22015" lon="6.13372">
        <ele>1338</ele>
        <time>2010-01-01T03:11:58Z</time>
      </trkpt>
      <trkpt lat="44.22021" lon="6.13371">
        <ele>1338</ele>
        <time>2010-01-01T03:12:00Z</time>
      </trkpt>
      <trkpt lat="44.22026" lon="6.13368">
        <ele>1338</ele>
        <time>2010-01-01T03:12:01Z</time>
      </trkpt>
      <trkpt lat="44.22029" lon="6.13366">
        <ele>1338</ele>
        <time>2010-01-01T03:12:02Z</time>
      </trkpt>
      <trkpt lat="44.22032" lon="6.13366">
        <ele>1338</ele>
        <time>2010-01-01T03:12:03Z</time>
      </trkpt>
      <trkpt lat="44.22037" lon="6.13365">
        <ele>1339</ele>
        <time>2010-01-01T03:12:04Z</time>
      </trkpt>
      <trkpt lat="44.22041" lon="6.13365">
        <ele>1339</ele>
        <time>2010-01-01T03:12:05Z</time>
      </trkpt>
      <trkpt lat="44.22046" lon="6.13366">
        <ele>1339</ele>
        <time>2010-01-01T03:12:06Z</time>
      </trkpt>
      <trkpt lat="44.22049" lon="6.13369">
        <ele>1339</ele>
        <time>2010-01-01T03:12:07Z</time>
      </trkpt>
      <trkpt lat="44.22053" lon="6.13372">
        <ele>1338</ele>
        <time>2010-01-01T03:12:09Z</time>
      </trkpt>
      <trkpt lat="44.22057" lon="6.13375">
        <ele>1338</ele>
        <time>2010-01-01T03:12:10Z</time>
      </trkpt>
      <trkpt lat="44.2206" lon="6.13377">
        <ele>1338</ele>
        <time>2010-01-01T03:12:11Z</time>
      </trkpt>
      <trkpt lat="44.22064" lon="6.13379">
        <ele>1338</ele>
        <time>2010-01-01T03:12:12Z</time>
      </trkpt>
      <trkpt lat="44.22067" lon="6.1338">
        <ele>1338</ele>
        <time>2010-01-01T03:12:13Z</time>
      </trkpt>
      <trkpt lat="44.2207" lon="6.13381">
        <ele>1338</ele>
        <time>2010-01-01T03:12:14Z</time>
      </trkpt>
      <trkpt lat="44.22073" lon="6.13382">
        <ele>1338</ele>
        <time>2010-01-01T03:12:14Z</time>
      </trkpt>
      <trkpt lat="44.22076" lon="6.13383">
        <ele>1338</ele>
        <time>2010-01-01T03:12:15Z</time>
      </trkpt>
      <trkpt lat="44.22079" lon="6.13384">
        <ele>1337</ele>
        <time>2010-01-01T03:12:16Z</time>
      </trkpt>
      <trkpt lat="44.22082" lon="6.13386">
        <ele>1337</ele>
        <time>2010-01-01T03:12:17Z</time>
      </trkpt>
      <trkpt lat="44.22085" lon="6.13388">
        <ele>1337</ele>
        <time>2010-01-01T03:12:18Z</time>
      </trkpt>
      <trkpt lat="44.22089" lon="6.13392">
        <ele>1336</ele>
        <time>2010-01-01T03:12:19Z</time>
      </trkpt>
      <trkpt lat="44.22091" lon="6.13395">
        <ele>1335</ele>
        <time>2010-01-01T03:12:20Z</time>
      </trkpt>
      <trkpt lat="44.22094" lon="6.13397">
        <ele>1334</ele>
        <time>2010-01-01T03:12:21Z</time>
      </trkpt>
      <trkpt lat="44.22097" lon="6.134">
        <ele>1333</ele>
        <time>2010-01-01T03:12:22Z</time>
      </trkpt>
      <trkpt lat="44.221" lon="6.13402">
        <ele>1332</ele>
        <time>2010-01-01T03:12:23Z</time>
      </trkpt>
      <trkpt lat="44.22104" lon="6.13404">
        <ele>1332</ele>
        <time>2010-01-01T03:12:24Z</time>
      </trkpt>
      <trkpt lat="44.22107" lon="6.13405">
        <ele>1331</ele>
        <time>2010-01-01T03:12:25Z</time>
      </trkpt>
      <trkpt lat="44.22111" lon="6.13406">
        <ele>1331</ele>
        <time>2010-01-01T03:12:26Z</time>
      </trkpt>
      <trkpt lat="44.22115" lon="6.13407">
        <ele>1331</ele>
        <time>2010-01-01T03:12:27Z</time>
      </trkpt>
      <trkpt lat="44.2212" lon="6.13411">
        <ele>1330</ele>
        <time>2010-01-01T03:12:28Z</time>
      </trkpt>
      <trkpt lat="44.22122" lon="6.13414">
        <ele>1329</ele>
        <time>2010-01-01T03:12:29Z</time>
      </trkpt>
      <trkpt lat="44.22124" lon="6.13416">
        <ele>1329</ele>
        <time>2010-01-01T03:12:30Z</time>
      </trkpt>
      <trkpt lat="44.22126" lon="6.13418">
        <ele>1328</ele>
        <time>2010-01-01T03:12:30Z</time>
      </trkpt>
      <trkpt lat="44.22131" lon="6.13421">
        <ele>1328</ele>
        <time>2010-01-01T03:12:32Z</time>
      </trkpt>
      <trkpt lat="44.22136" lon="6.13424">
        <ele>1328</ele>
        <time>2010-01-01T03:12:33Z</time>
      </trkpt>
      <trkpt lat="44.22138" lon="6.13425">
        <ele>1328</ele>
        <time>2010-01-01T03:12:34Z</time>
      </trkpt>
      <trkpt lat="44.22141" lon="6.13426">
        <ele>1327</ele>
        <time>2010-01-01T03:12:35Z</time>
      </trkpt>
      <trkpt lat="44.22144" lon="6.13428">
        <ele>1327</ele>
        <time>2010-01-01T03:12:35Z</time>
      </trkpt>
      <trkpt lat="44.22146" lon="6.13429">
        <ele>1327</ele>
        <time>2010-01-01T03:12:36Z</time>
      </trkpt>
      <trkpt lat="44.22149" lon="6.1343">
        <ele>1327</ele>
        <time>2010-01-01T03:12:37Z</time>
      </trkpt>
      <trkpt lat="44.22153" lon="6.13431">
        <ele>1328</ele>
        <time>2010-01-01T03:12:38Z</time>
      </trkpt>
      <trkpt lat="44.22156" lon="6.13432">
        <ele>1328</ele>
        <time>2010-01-01T03:12:39Z</time>
      </trkpt>
      <trkpt lat="44.22159" lon="6.13433">
        <ele>1328</ele>
        <time>2010-01-01T03:12:40Z</time>
      </trkpt>
      <trkpt lat="44.22162" lon="6.13434">
        <ele>1328</ele>
        <time>2010-01-01T03:12:40Z</time>
      </trkpt>
      <trkpt lat="44.22165" lon="6.13435">
        <ele>1328</ele>
        <time>2010-01-01T03:12:41Z</time>
      </trkpt>
      <trkpt lat="44.22168" lon="6.13436">
        <ele>1328</ele>
        <time>2010-01-01T03:12:42Z</time>
      </trkpt>
      <trkpt lat="44.22171" lon="6.13436">
        <ele>1329</ele>
        <time>2010-01-01T03:12:43Z</time>
      </trkpt>
      <trkpt lat="44.22175" lon="6.13435">
        <ele>1329</ele>
        <time>2010-01-01T03:12:44Z</time>
      </trkpt>
      <trkpt lat="44.22178" lon="6.13434">
        <ele>1329</ele>
        <time>2010-01-01T03:12:45Z</time>
      </trkpt>
      <trkpt lat="44.22181" lon="6.13432">
        <ele>1330</ele>
        <time>2010-01-01T03:12:46Z</time>
      </trkpt>
      <trkpt lat="44.22184" lon="6.1343">
        <ele>1330</ele>
        <time>2010-01-01T03:12:47Z</time>
      </trkpt>
      <trkpt lat="44.22189" lon="6.13427">
        <ele>1331</ele>
        <time>2010-01-01T03:12:48Z</time>
      </trkpt>
      <trkpt lat="44.22192" lon="6.13425">
        <ele>1331</ele>
        <time>2010-01-01T03:12:49Z</time>
      </trkpt>
      <trkpt lat="44.22194" lon="6.13423">
        <ele>1331</ele>
        <time>2010-01-01T03:12:50Z</time>
      </trkpt>
      <trkpt lat="44.22196" lon="6.13421">
        <ele>1331</ele>
        <time>2010-01-01T03:12:50Z</time>
      </trkpt>
      <trkpt lat="44.22199" lon="6.13418">
        <ele>1332</ele>
        <time>2010-01-01T03:12:51Z</time>
      </trkpt>
      <trkpt lat="44.22202" lon="6.13413">
        <ele>1332</ele>
        <time>2010-01-01T03:12:52Z</time>
      </trkpt>
      <trkpt lat="44.22205" lon="6.13408">
        <ele>1331</ele>
        <time>2010-01-01T03:12:54Z</time>
      </trkpt>
      <trkpt lat="44.22208" lon="6.13404">
        <ele>1331</ele>
        <time>2010-01-01T03:12:55Z</time>
      </trkpt>
      <trkpt lat="44.22207" lon="6.13399">
        <ele>1331</ele>
        <time>2010-01-01T03:12:56Z</time>
      </trkpt>
      <trkpt lat="44.22203" lon="6.13396">
        <ele>1332</ele>
        <time>2010-01-01T03:12:57Z</time>
      </trkpt>
      <trkpt lat="44.22198" lon="6.13393">
        <ele>1333</ele>
        <time>2010-01-01T03:12:58Z</time>
      </trkpt>
      <trkpt lat="44.22193" lon="6.13391">
        <ele>1334</ele>
        <time>2010-01-01T03:13:00Z</time>
      </trkpt>
      <trkpt lat="44.22188" lon="6.13388">
        <ele>1335</ele>
        <time>2010-01-01T03:13:01Z</time>
      </trkpt>
      <trkpt lat="44.22184" lon="6.13385">
        <ele>1336</ele>
        <time>2010-01-01T03:13:02Z</time>
      </trkpt>
      <trkpt lat="44.2218" lon="6.13382">
        <ele>1336</ele>
        <time>2010-01-01T03:13:04Z</time>
      </trkpt>
      <trkpt lat="44.22177" lon="6.1338">
        <ele>1337</ele>
        <time>2010-01-01T03:13:05Z</time>
      </trkpt>
      <trkpt lat="44.22174" lon="6.13378">
        <ele>1338</ele>
        <time>2010-01-01T03:13:05Z</time>
      </trkpt>
      <trkpt lat="44.22171" lon="6.13376">
        <ele>1338</ele>
        <time>2010-01-01T03:13:06Z</time>
      </trkpt>
      <trkpt lat="44.22167" lon="6.13373">
        <ele>1339</ele>
        <time>2010-01-01T03:13:07Z</time>
      </trkpt>
      <trkpt lat="44.22164" lon="6.1337">
        <ele>1339</ele>
        <time>2010-01-01T03:13:08Z</time>
      </trkpt>
      <trkpt lat="44.22162" lon="6.13365">
        <ele>1340</ele>
        <time>2010-01-01T03:13:10Z</time>
      </trkpt>
      <trkpt lat="44.2216" lon="6.13361">
        <ele>1340</ele>
        <time>2010-01-01T03:13:10Z</time>
      </trkpt>
      <trkpt lat="44.22158" lon="6.13358">
        <ele>1341</ele>
        <time>2010-01-01T03:13:11Z</time>
      </trkpt>
      <trkpt lat="44.22157" lon="6.13354">
        <ele>1341</ele>
        <time>2010-01-01T03:13:12Z</time>
      </trkpt>
      <trkpt lat="44.22155" lon="6.1335">
        <ele>1342</ele>
        <time>2010-01-01T03:13:13Z</time>
      </trkpt>
      <trkpt lat="44.22154" lon="6.13347">
        <ele>1342</ele>
        <time>2010-01-01T03:13:14Z</time>
      </trkpt>
      <trkpt lat="44.22152" lon="6.13341">
        <ele>1343</ele>
        <time>2010-01-01T03:13:15Z</time>
      </trkpt>
      <trkpt lat="44.22151" lon="6.13337">
        <ele>1343</ele>
        <time>2010-01-01T03:13:16Z</time>
      </trkpt>
      <trkpt lat="44.2215" lon="6.13334">
        <ele>1344</ele>
        <time>2010-01-01T03:13:16Z</time>
      </trkpt>
      <trkpt lat="44.22148" lon="6.1333">
        <ele>1344</ele>
        <time>2010-01-01T03:13:17Z</time>
      </trkpt>
      <trkpt lat="44.22146" lon="6.13327">
        <ele>1345</ele>
        <time>2010-01-01T03:13:18Z</time>
      </trkpt>
      <trkpt lat="44.22144" lon="6.13325">
        <ele>1346</ele>
        <time>2010-01-01T03:13:19Z</time>
      </trkpt>
      <trkpt lat="44.22142" lon="6.13322">
        <ele>1346</ele>
        <time>2010-01-01T03:13:19Z</time>
      </trkpt>
      <trkpt lat="44.22138" lon="6.13317">
        <ele>1348</ele>
        <time>2010-01-01T03:13:21Z</time>
      </trkpt>
      <trkpt lat="44.22135" lon="6.13314">
        <ele>1348</ele>
        <time>2010-01-01T03:13:22Z</time>
      </trkpt>
      <trkpt lat="44.22133" lon="6.13309">
        <ele>1349</ele>
        <time>2010-01-01T03:13:23Z</time>
      </trkpt>
      <trkpt lat="44.22133" lon="6.13305">
        <ele>1349</ele>
        <time>2010-01-01T03:13:24Z</time>
      </trkpt>
      <trkpt lat="44.22134" lon="6.133">
        <ele>1350</ele>
        <time>2010-01-01T03:13:25Z</time>
      </trkpt>
      <trkpt lat="44.22139" lon="6.133">
        <ele>1349</ele>
        <time>2010-01-01T03:13:26Z</time>
      </trkpt>
      <trkpt lat="44.22142" lon="6.13302">
        <ele>1348</ele>
        <time>2010-01-01T03:13:27Z</time>
      </trkpt>
      <trkpt lat="44.22146" lon="6.13303">
        <ele>1347</ele>
        <time>2010-01-01T03:13:28Z</time>
      </trkpt>
      <trkpt lat="44.22152" lon="6.13303">
        <ele>1346</ele>
        <time>2010-01-01T03:13:30Z</time>
      </trkpt>
      <trkpt lat="44.22155" lon="6.13302">
        <ele>1346</ele>
        <time>2010-01-01T03:13:31Z</time>
      </trkpt>
      <trkpt lat="44.22158" lon="6.13301">
        <ele>1345</ele>
        <time>2010-01-01T03:13:32Z</time>
      </trkpt>
      <trkpt lat="44.22161" lon="6.133">
        <ele>1345</ele>
        <time>2010-01-01T03:13:32Z</time>
      </trkpt>
      <trkpt lat="44.22166" lon="6.13299">
        <ele>1344</ele>
        <time>2010-01-01T03:13:34Z</time>
      </trkpt>
      <trkpt lat="44.22169" lon="6.13298">
        <ele>1344</ele>
        <time>2010-01-01T03:13:34Z</time>
      </trkpt>
      <trkpt lat="44.22172" lon="6.13297">
        <ele>1343</ele>
        <time>2010-01-01T03:13:35Z</time>
      </trkpt>
      <trkpt lat="44.22175" lon="6.13295">
        <ele>1343</ele>
        <time>2010-01-01T03:13:36Z</time>
      </trkpt>
      <trkpt lat="44.22178" lon="6.13292">
        <ele>1343</ele>
        <time>2010-01-01T03:13:37Z</time>
      </trkpt>
      <trkpt lat="44.22181" lon="6.13289">
        <ele>1343</ele>
        <time>2010-01-01T03:13:38Z</time>
      </trkpt>
      <trkpt lat="44.22184" lon="6.13287">
        <ele>1343</ele>
        <time>2010-01-01T03:13:39Z</time>
      </trkpt>
      <trkpt lat="44.22187" lon="6.13284">
        <ele>1343</ele>
        <time>2010-01-01T03:13:40Z</time>
      </trkpt>
      <trkpt lat="44.2219" lon="6.13281">
        <ele>1343</ele>
        <time>2010-01-01T03:13:41Z</time>
      </trkpt>
      <trkpt lat="44.22192" lon="6.13279">
        <ele>1343</ele>
        <time>2010-01-01T03:13:42Z</time>
      </trkpt>
      <trkpt lat="44.22197" lon="6.13276">
        <ele>1342</ele>
        <time>2010-01-01T03:13:43Z</time>
      </trkpt>
      <trkpt lat="44.22201" lon="6.13274">
        <ele>1342</ele>
        <time>2010-01-01T03:13:44Z</time>
      </trkpt>
      <trkpt lat="44.22204" lon="6.13271">
        <ele>1342</ele>
        <time>2010-01-01T03:13:45Z</time>
      </trkpt>
      <trkpt lat="44.22207" lon="6.13268">
        <ele>1342</ele>
        <time>2010-01-01T03:13:46Z</time>
      </trkpt>
      <trkpt lat="44.2221" lon="6.13265">
        <ele>1342</ele>
        <time>2010-01-01T03:13:47Z</time>
      </trkpt>
      <trkpt lat="44.22214" lon="6.13262">
        <ele>1342</ele>
        <time>2010-01-01T03:13:48Z</time>
      </trkpt>
      <trkpt lat="44.22217" lon="6.13259">
        <ele>1342</ele>
        <time>2010-01-01T03:13:49Z</time>
      </trkpt>
      <trkpt lat="44.22221" lon="6.13256">
        <ele>1342</ele>
        <time>2010-01-01T03:13:50Z</time>
      </trkpt>
      <trkpt lat="44.22224" lon="6.13254">
        <ele>1342</ele>
        <time>2010-01-01T03:13:51Z</time>
      </trkpt>
      <trkpt lat="44.22226" lon="6.13251">
        <ele>1342</ele>
        <time>2010-01-01T03:13:52Z</time>
      </trkpt>
      <trkpt lat="44.22229" lon="6.13249">
        <ele>1341</ele>
        <time>2010-01-01T03:13:53Z</time>
      </trkpt>
      <trkpt lat="44.22233" lon="6.13245">
        <ele>1340</ele>
        <time>2010-01-01T03:13:54Z</time>
      </trkpt>
      <trkpt lat="44.22237" lon="6.13241">
        <ele>1340</ele>
        <time>2010-01-01T03:13:56Z</time>
      </trkpt>
      <trkpt lat="44.22241" lon="6.13238">
        <ele>1339</ele>
        <time>2010-01-01T03:13:57Z</time>
      </trkpt>
      <trkpt lat="44.22244" lon="6.13235">
        <ele>1339</ele>
        <time>2010-01-01T03:13:58Z</time>
      </trkpt>
      <trkpt lat="44.22247" lon="6.13231">
        <ele>1339</ele>
        <time>2010-01-01T03:13:59Z</time>
      </trkpt>
      <trkpt lat="44.2225" lon="6.13228">
        <ele>1339</ele>
        <time>2010-01-01T03:14:00Z</time>
      </trkpt>
      <trkpt lat="44.22253" lon="6.13224">
        <ele>1338</ele>
        <time>2010-01-01T03:14:01Z</time>
      </trkpt>
      <trkpt lat="44.22256" lon="6.1322">
        <ele>1337</ele>
        <time>2010-01-01T03:14:02Z</time>
      </trkpt>
      <trkpt lat="44.2226" lon="6.13216">
        <ele>1337</ele>
        <time>2010-01-01T03:14:03Z</time>
      </trkpt>
      <trkpt lat="44.22263" lon="6.13213">
        <ele>1336</ele>
        <time>2010-01-01T03:14:04Z</time>
      </trkpt>
      <trkpt lat="44.22265" lon="6.1321">
        <ele>1335</ele>
        <time>2010-01-01T03:14:05Z</time>
      </trkpt>
      <trkpt lat="44.22267" lon="6.13204">
        <ele>1335</ele>
        <time>2010-01-01T03:14:07Z</time>
      </trkpt>
      <trkpt lat="44.22268" lon="6.13198">
        <ele>1336</ele>
        <time>2010-01-01T03:14:08Z</time>
      </trkpt>
      <trkpt lat="44.22267" lon="6.13193">
        <ele>1338</ele>
        <time>2010-01-01T03:14:09Z</time>
      </trkpt>
      <trkpt lat="44.22267" lon="6.13185">
        <ele>1339</ele>
        <time>2010-01-01T03:14:10Z</time>
      </trkpt>
      <trkpt lat="44.22267" lon="6.1318">
        <ele>1340</ele>
        <time>2010-01-01T03:14:11Z</time>
      </trkpt>
      <trkpt lat="44.22268" lon="6.13176">
        <ele>1340</ele>
        <time>2010-01-01T03:14:12Z</time>
      </trkpt>
      <trkpt lat="44.22267" lon="6.13169">
        <ele>1341</ele>
        <time>2010-01-01T03:14:13Z</time>
      </trkpt>
      <trkpt lat="44.22266" lon="6.13163">
        <ele>1342</ele>
        <time>2010-01-01T03:14:15Z</time>
      </trkpt>
      <trkpt lat="44.22266" lon="6.13156">
        <ele>1343</ele>
        <time>2010-01-01T03:14:16Z</time>
      </trkpt>
      <trkpt lat="44.22268" lon="6.13149">
        <ele>1343</ele>
        <time>2010-01-01T03:14:17Z</time>
      </trkpt>
      <trkpt lat="44.2227" lon="6.13146">
        <ele>1343</ele>
        <time>2010-01-01T03:14:18Z</time>
      </trkpt>
      <trkpt lat="44.22273" lon="6.13141">
        <ele>1342</ele>
        <time>2010-01-01T03:14:19Z</time>
      </trkpt>
      <trkpt lat="44.22276" lon="6.13135">
        <ele>1342</ele>
        <time>2010-01-01T03:14:21Z</time>
      </trkpt>
      <trkpt lat="44.22288" lon="6.13116">
        <ele>1340</ele>
        <time>2010-01-01T03:14:25Z</time>
      </trkpt>
      <trkpt lat="44.2229" lon="6.13114">
        <ele>1340</ele>
        <time>2010-01-01T03:14:26Z</time>
      </trkpt>
      <trkpt lat="44.22295" lon="6.13108">
        <ele>1339</ele>
        <time>2010-01-01T03:14:28Z</time>
      </trkpt>
      <trkpt lat="44.22299" lon="6.13101">
        <ele>1340</ele>
        <time>2010-01-01T03:14:30Z</time>
      </trkpt>
      <trkpt lat="44.22304" lon="6.13094">
        <ele>1341</ele>
        <time>2010-01-01T03:14:31Z</time>
      </trkpt>
      <trkpt lat="44.22305" lon="6.1309">
        <ele>1341</ele>
        <time>2010-01-01T03:14:32Z</time>
      </trkpt>
      <trkpt lat="44.22306" lon="6.13086">
        <ele>1343</ele>
        <time>2010-01-01T03:14:33Z</time>
      </trkpt>
      <trkpt lat="44.22306" lon="6.13082">
        <ele>1344</ele>
        <time>2010-01-01T03:14:34Z</time>
      </trkpt>
      <trkpt lat="44.22309" lon="6.1308">
        <ele>1344</ele>
        <time>2010-01-01T03:14:35Z</time>
      </trkpt>
      <trkpt lat="44.22312" lon="6.13078">
        <ele>1344</ele>
        <time>2010-01-01T03:14:36Z</time>
      </trkpt>
      <trkpt lat="44.22316" lon="6.13076">
        <ele>1344</ele>
        <time>2010-01-01T03:14:37Z</time>
      </trkpt>
      <trkpt lat="44.22318" lon="6.13074">
        <ele>1344</ele>
        <time>2010-01-01T03:14:37Z</time>
      </trkpt>
      <trkpt lat="44.2232" lon="6.13072">
        <ele>1344</ele>
        <time>2010-01-01T03:14:38Z</time>
      </trkpt>
      <trkpt lat="44.22325" lon="6.1307">
        <ele>1344</ele>
        <time>2010-01-01T03:14:39Z</time>
      </trkpt>
      <trkpt lat="44.22328" lon="6.13069">
        <ele>1344</ele>
        <time>2010-01-01T03:14:40Z</time>
      </trkpt>
      <trkpt lat="44.22331" lon="6.13068">
        <ele>1344</ele>
        <time>2010-01-01T03:14:41Z</time>
      </trkpt>
      <trkpt lat="44.22334" lon="6.13067">
        <ele>1343</ele>
        <time>2010-01-01T03:14:42Z</time>
      </trkpt>
      <trkpt lat="44.22338" lon="6.13065">
        <ele>1343</ele>
        <time>2010-01-01T03:14:43Z</time>
      </trkpt>
      <trkpt lat="44.22341" lon="6.13062">
        <ele>1343</ele>
        <time>2010-01-01T03:14:44Z</time>
      </trkpt>
      <trkpt lat="44.22343" lon="6.1306">
        <ele>1343</ele>
        <time>2010-01-01T03:14:45Z</time>
      </trkpt>
      <trkpt lat="44.22345" lon="6.13058">
        <ele>1343</ele>
        <time>2010-01-01T03:14:45Z</time>
      </trkpt>
      <trkpt lat="44.22349" lon="6.13055">
        <ele>1343</ele>
        <time>2010-01-01T03:14:46Z</time>
      </trkpt>
      <trkpt lat="44.22352" lon="6.13052">
        <ele>1342</ele>
        <time>2010-01-01T03:14:47Z</time>
      </trkpt>
      <trkpt lat="44.22355" lon="6.13049">
        <ele>1342</ele>
        <time>2010-01-01T03:14:48Z</time>
      </trkpt>
      <trkpt lat="44.22358" lon="6.13047">
        <ele>1342</ele>
        <time>2010-01-01T03:14:49Z</time>
      </trkpt>
      <trkpt lat="44.22362" lon="6.13041">
        <ele>1341</ele>
        <time>2010-01-01T03:14:51Z</time>
      </trkpt>
      <trkpt lat="44.22364" lon="6.13039">
        <ele>1341</ele>
        <time>2010-01-01T03:14:52Z</time>
      </trkpt>
      <trkpt lat="44.22367" lon="6.13035">
        <ele>1340</ele>
        <time>2010-01-01T03:14:53Z</time>
      </trkpt>
      <trkpt lat="44.2237" lon="6.13031">
        <ele>1340</ele>
        <time>2010-01-01T03:14:54Z</time>
      </trkpt>
      <trkpt lat="44.22373" lon="6.13026">
        <ele>1339</ele>
        <time>2010-01-01T03:14:55Z</time>
      </trkpt>
      <trkpt lat="44.22376" lon="6.13022">
        <ele>1338</ele>
        <time>2010-01-01T03:14:56Z</time>
      </trkpt>
      <trkpt lat="44.22377" lon="6.13019">
        <ele>1338</ele>
        <time>2010-01-01T03:14:57Z</time>
      </trkpt>
      <trkpt lat="44.22378" lon="6.13013">
        <ele>1339</ele>
        <time>2010-01-01T03:14:58Z</time>
      </trkpt>
      <trkpt lat="44.22377" lon="6.13006">
        <ele>1340</ele>
        <time>2010-01-01T03:14:59Z</time>
      </trkpt>
      <trkpt lat="44.22376" lon="6.12999">
        <ele>1341</ele>
        <time>2010-01-01T03:15:01Z</time>
      </trkpt>
      <trkpt lat="44.22376" lon="6.12995">
        <ele>1343</ele>
        <time>2010-01-01T03:15:01Z</time>
      </trkpt>
      <trkpt lat="44.22378" lon="6.12998">
        <ele>1341</ele>
        <time>2010-01-01T03:15:02Z</time>
      </trkpt>
      <trkpt lat="44.2238" lon="6.13001">
        <ele>1340</ele>
        <time>2010-01-01T03:15:03Z</time>
      </trkpt>
      <trkpt lat="44.22383" lon="6.13004">
        <ele>1339</ele>
        <time>2010-01-01T03:15:04Z</time>
      </trkpt>
      <trkpt lat="44.22386" lon="6.13007">
        <ele>1337</ele>
        <time>2010-01-01T03:15:05Z</time>
      </trkpt>
      <trkpt lat="44.22388" lon="6.13008">
        <ele>1336</ele>
        <time>2010-01-01T03:15:06Z</time>
      </trkpt>
      <trkpt lat="44.22393" lon="6.1301">
        <ele>1335</ele>
        <time>2010-01-01T03:15:07Z</time>
      </trkpt>
      <trkpt lat="44.22396" lon="6.1301">
        <ele>1335</ele>
        <time>2010-01-01T03:15:08Z</time>
      </trkpt>
      <trkpt lat="44.22401" lon="6.13008">
        <ele>1335</ele>
        <time>2010-01-01T03:15:09Z</time>
      </trkpt>
      <trkpt lat="44.22404" lon="6.13007">
        <ele>1335</ele>
        <time>2010-01-01T03:15:10Z</time>
      </trkpt>
      <trkpt lat="44.22408" lon="6.13007">
        <ele>1335</ele>
        <time>2010-01-01T03:15:11Z</time>
      </trkpt>
      <trkpt lat="44.22412" lon="6.13007">
        <ele>1335</ele>
        <time>2010-01-01T03:15:12Z</time>
      </trkpt>
      <trkpt lat="44.22416" lon="6.13008">
        <ele>1334</ele>
        <time>2010-01-01T03:15:13Z</time>
      </trkpt>
      <trkpt lat="44.2242" lon="6.13008">
        <ele>1334</ele>
        <time>2010-01-01T03:15:14Z</time>
      </trkpt>
      <trkpt lat="44.22424" lon="6.13007">
        <ele>1335</ele>
        <time>2010-01-01T03:15:15Z</time>
      </trkpt>
      <trkpt lat="44.22426" lon="6.13006">
        <ele>1335</ele>
        <time>2010-01-01T03:15:16Z</time>
      </trkpt>
      <trkpt lat="44.22429" lon="6.13004">
        <ele>1336</ele>
        <time>2010-01-01T03:15:17Z</time>
      </trkpt>
      <trkpt lat="44.22431" lon="6.13002">
        <ele>1336</ele>
        <time>2010-01-01T03:15:17Z</time>
      </trkpt>
      <trkpt lat="44.22435" lon="6.13">
        <ele>1337</ele>
        <time>2010-01-01T03:15:18Z</time>
      </trkpt>
      <trkpt lat="44.22438" lon="6.13001">
        <ele>1337</ele>
        <time>2010-01-01T03:15:19Z</time>
      </trkpt>
      <trkpt lat="44.22441" lon="6.13002">
        <ele>1337</ele>
        <time>2010-01-01T03:15:20Z</time>
      </trkpt>
      <trkpt lat="44.22444" lon="6.13003">
        <ele>1337</ele>
        <time>2010-01-01T03:15:21Z</time>
      </trkpt>
      <trkpt lat="44.22448" lon="6.13005">
        <ele>1337</ele>
        <time>2010-01-01T03:15:22Z</time>
      </trkpt>
      <trkpt lat="44.22451" lon="6.13007">
        <ele>1336</ele>
        <time>2010-01-01T03:15:23Z</time>
      </trkpt>
      <trkpt lat="44.22455" lon="6.13009">
        <ele>1336</ele>
        <time>2010-01-01T03:15:24Z</time>
      </trkpt>
      <trkpt lat="44.22458" lon="6.13011">
        <ele>1336</ele>
        <time>2010-01-01T03:15:25Z</time>
      </trkpt>
      <trkpt lat="44.22461" lon="6.13012">
        <ele>1336</ele>
        <time>2010-01-01T03:15:26Z</time>
      </trkpt>
      <trkpt lat="44.22463" lon="6.13014">
        <ele>1336</ele>
        <time>2010-01-01T03:15:27Z</time>
      </trkpt>
      <trkpt lat="44.22466" lon="6.13018">
        <ele>1335</ele>
        <time>2010-01-01T03:15:27Z</time>
      </trkpt>
      <trkpt lat="44.22468" lon="6.13021">
        <ele>1335</ele>
        <time>2010-01-01T03:15:28Z</time>
      </trkpt>
      <trkpt lat="44.22469" lon="6.13025">
        <ele>1334</ele>
        <time>2010-01-01T03:15:29Z</time>
      </trkpt>
      <trkpt lat="44.2247" lon="6.1303">
        <ele>1333</ele>
        <time>2010-01-01T03:15:30Z</time>
      </trkpt>
      <trkpt lat="44.22471" lon="6.13035">
        <ele>1332</ele>
        <time>2010-01-01T03:15:31Z</time>
      </trkpt>
      <trkpt lat="44.22471" lon="6.13041">
        <ele>1331</ele>
        <time>2010-01-01T03:15:32Z</time>
      </trkpt>
      <trkpt lat="44.22472" lon="6.13048">
        <ele>1331</ele>
        <time>2010-01-01T03:15:34Z</time>
      </trkpt>
      <trkpt lat="44.22473" lon="6.13054">
        <ele>1330</ele>
        <time>2010-01-01T03:15:35Z</time>
      </trkpt>
      <trkpt lat="44.22474" lon="6.13059">
        <ele>1329</ele>
        <time>2010-01-01T03:15:36Z</time>
      </trkpt>
      <trkpt lat="44.22475" lon="6.13066">
        <ele>1329</ele>
        <time>2010-01-01T03:15:37Z</time>
      </trkpt>
      <trkpt lat="44.22475" lon="6.13073">
        <ele>1328</ele>
        <time>2010-01-01T03:15:38Z</time>
      </trkpt>
      <trkpt lat="44.22477" lon="6.13083">
        <ele>1327</ele>
        <time>2010-01-01T03:15:40Z</time>
      </trkpt>
      <trkpt lat="44.22478" lon="6.13088">
        <ele>1327</ele>
        <time>2010-01-01T03:15:41Z</time>
      </trkpt>
      <trkpt lat="44.22479" lon="6.13091">
        <ele>1326</ele>
        <time>2010-01-01T03:15:42Z</time>
      </trkpt>
      <trkpt lat="44.22485" lon="6.1309">
        <ele>1327</ele>
        <time>2010-01-01T03:15:44Z</time>
      </trkpt>
      <trkpt lat="44.2249" lon="6.13088">
        <ele>1328</ele>
        <time>2010-01-01T03:15:45Z</time>
      </trkpt>
      <trkpt lat="44.22494" lon="6.13087">
        <ele>1328</ele>
        <time>2010-01-01T03:15:46Z</time>
      </trkpt>
      <trkpt lat="44.22497" lon="6.13084">
        <ele>1329</ele>
        <time>2010-01-01T03:15:47Z</time>
      </trkpt>
      <trkpt lat="44.225" lon="6.13082">
        <ele>1330</ele>
        <time>2010-01-01T03:15:48Z</time>
      </trkpt>
      <trkpt lat="44.22503" lon="6.13078">
        <ele>1330</ele>
        <time>2010-01-01T03:15:49Z</time>
      </trkpt>
      <trkpt lat="44.22507" lon="6.13074">
        <ele>1331</ele>
        <time>2010-01-01T03:15:50Z</time>
      </trkpt>
      <trkpt lat="44.22512" lon="6.13071">
        <ele>1332</ele>
        <time>2010-01-01T03:15:52Z</time>
      </trkpt>
      <trkpt lat="44.22514" lon="6.13067">
        <ele>1332</ele>
        <time>2010-01-01T03:15:53Z</time>
      </trkpt>
      <trkpt lat="44.22517" lon="6.13062">
        <ele>1333</ele>
        <time>2010-01-01T03:15:54Z</time>
      </trkpt>
      <trkpt lat="44.22519" lon="6.13056">
        <ele>1334</ele>
        <time>2010-01-01T03:15:55Z</time>
      </trkpt>
      <trkpt lat="44.22519" lon="6.13052">
        <ele>1335</ele>
        <time>2010-01-01T03:15:56Z</time>
      </trkpt>
      <trkpt lat="44.22519" lon="6.13047">
        <ele>1335</ele>
        <time>2010-01-01T03:15:57Z</time>
      </trkpt>
      <trkpt lat="44.22518" lon="6.13043">
        <ele>1336</ele>
        <time>2010-01-01T03:15:58Z</time>
      </trkpt>
      <trkpt lat="44.22518" lon="6.13038">
        <ele>1336</ele>
        <time>2010-01-01T03:15:59Z</time>
      </trkpt>
      <trkpt lat="44.22521" lon="6.13032">
        <ele>1337</ele>
        <time>2010-01-01T03:16:00Z</time>
      </trkpt>
      <trkpt lat="44.22524" lon="6.13028">
        <ele>1337</ele>
        <time>2010-01-01T03:16:01Z</time>
      </trkpt>
      <trkpt lat="44.22527" lon="6.13026">
        <ele>1338</ele>
        <time>2010-01-01T03:16:02Z</time>
      </trkpt>
      <trkpt lat="44.22529" lon="6.13022">
        <ele>1338</ele>
        <time>2010-01-01T03:16:03Z</time>
      </trkpt>
      <trkpt lat="44.22532" lon="6.13017">
        <ele>1338</ele>
        <time>2010-01-01T03:16:04Z</time>
      </trkpt>
      <trkpt lat="44.22534" lon="6.13013">
        <ele>1339</ele>
        <time>2010-01-01T03:16:05Z</time>
      </trkpt>
      <trkpt lat="44.22535" lon="6.13009">
        <ele>1339</ele>
        <time>2010-01-01T03:16:06Z</time>
      </trkpt>
      <trkpt lat="44.22538" lon="6.13003">
        <ele>1339</ele>
        <time>2010-01-01T03:16:07Z</time>
      </trkpt>
      <trkpt lat="44.2254" lon="6.12996">
        <ele>1340</ele>
        <time>2010-01-01T03:16:09Z</time>
      </trkpt>
      <trkpt lat="44.22543" lon="6.1299">
        <ele>1340</ele>
        <time>2010-01-01T03:16:10Z</time>
      </trkpt>
      <trkpt lat="44.22546" lon="6.12984">
        <ele>1340</ele>
        <time>2010-01-01T03:16:12Z</time>
      </trkpt>
      <trkpt lat="44.2255" lon="6.12978">
        <ele>1340</ele>
        <time>2010-01-01T03:16:13Z</time>
      </trkpt>
      <trkpt lat="44.22553" lon="6.12972">
        <ele>1341</ele>
        <time>2010-01-01T03:16:15Z</time>
      </trkpt>
      <trkpt lat="44.22557" lon="6.12966">
        <ele>1341</ele>
        <time>2010-01-01T03:16:16Z</time>
      </trkpt>
      <trkpt lat="44.2256" lon="6.12961">
        <ele>1341</ele>
        <time>2010-01-01T03:16:17Z</time>
      </trkpt>
      <trkpt lat="44.22563" lon="6.12956">
        <ele>1340</ele>
        <time>2010-01-01T03:16:19Z</time>
      </trkpt>
      <trkpt lat="44.22566" lon="6.12951">
        <ele>1340</ele>
        <time>2010-01-01T03:16:20Z</time>
      </trkpt>
      <trkpt lat="44.2257" lon="6.12946">
        <ele>1340</ele>
        <time>2010-01-01T03:16:21Z</time>
      </trkpt>
      <trkpt lat="44.22573" lon="6.12941">
        <ele>1340</ele>
        <time>2010-01-01T03:16:22Z</time>
      </trkpt>
      <trkpt lat="44.22576" lon="6.12936">
        <ele>1339</ele>
        <time>2010-01-01T03:16:24Z</time>
      </trkpt>
      <trkpt lat="44.22579" lon="6.12931">
        <ele>1339</ele>
        <time>2010-01-01T03:16:25Z</time>
      </trkpt>
      <trkpt lat="44.22583" lon="6.12926">
        <ele>1338</ele>
        <time>2010-01-01T03:16:26Z</time>
      </trkpt>
      <trkpt lat="44.22586" lon="6.1292">
        <ele>1338</ele>
        <time>2010-01-01T03:16:28Z</time>
      </trkpt>
      <trkpt lat="44.22589" lon="6.12915">
        <ele>1337</ele>
        <time>2010-01-01T03:16:29Z</time>
      </trkpt>
      <trkpt lat="44.22591" lon="6.12911">
        <ele>1337</ele>
        <time>2010-01-01T03:16:30Z</time>
      </trkpt>
      <trkpt lat="44.22594" lon="6.12907">
        <ele>1336</ele>
        <time>2010-01-01T03:16:31Z</time>
      </trkpt>
      <trkpt lat="44.22598" lon="6.12902">
        <ele>1336</ele>
        <time>2010-01-01T03:16:32Z</time>
      </trkpt>
      <trkpt lat="44.22609" lon="6.1289">
        <ele>1333</ele>
        <time>2010-01-01T03:16:36Z</time>
      </trkpt>
      <trkpt lat="44.22614" lon="6.12887">
        <ele>1332</ele>
        <time>2010-01-01T03:16:38Z</time>
      </trkpt>
      <trkpt lat="44.22618" lon="6.12883">
        <ele>1331</ele>
        <time>2010-01-01T03:16:39Z</time>
      </trkpt>
      <trkpt lat="44.22622" lon="6.12878">
        <ele>1330</ele>
        <time>2010-01-01T03:16:40Z</time>
      </trkpt>
      <trkpt lat="44.22626" lon="6.12874">
        <ele>1329</ele>
        <time>2010-01-01T03:16:42Z</time>
      </trkpt>
      <trkpt lat="44.2263" lon="6.12869">
        <ele>1329</ele>
        <time>2010-01-01T03:16:43Z</time>
      </trkpt>
      <trkpt lat="44.22631" lon="6.12862">
        <ele>1329</ele>
        <time>2010-01-01T03:16:45Z</time>
      </trkpt>
      <trkpt lat="44.22632" lon="6.12854">
        <ele>1329</ele>
        <time>2010-01-01T03:16:46Z</time>
      </trkpt>
      <trkpt lat="44.22633" lon="6.12845">
        <ele>1330</ele>
        <time>2010-01-01T03:16:48Z</time>
      </trkpt>
      <trkpt lat="44.22632" lon="6.12839">
        <ele>1331</ele>
        <time>2010-01-01T03:16:49Z</time>
      </trkpt>
      <trkpt lat="44.22632" lon="6.12832">
        <ele>1332</ele>
        <time>2010-01-01T03:16:50Z</time>
      </trkpt>
      <trkpt lat="44.2263" lon="6.12827">
        <ele>1333</ele>
        <time>2010-01-01T03:16:51Z</time>
      </trkpt>
      <trkpt lat="44.22628" lon="6.12821">
        <ele>1334</ele>
        <time>2010-01-01T03:16:53Z</time>
      </trkpt>
      <trkpt lat="44.22627" lon="6.12815">
        <ele>1335</ele>
        <time>2010-01-01T03:16:54Z</time>
      </trkpt>
      <trkpt lat="44.22626" lon="6.12809">
        <ele>1336</ele>
        <time>2010-01-01T03:16:55Z</time>
      </trkpt>
      <trkpt lat="44.22624" lon="6.12802">
        <ele>1337</ele>
        <time>2010-01-01T03:16:56Z</time>
      </trkpt>
      <trkpt lat="44.22622" lon="6.12795">
        <ele>1338</ele>
        <time>2010-01-01T03:16:58Z</time>
      </trkpt>
      <trkpt lat="44.22624" lon="6.12787">
        <ele>1338</ele>
        <time>2010-01-01T03:17:00Z</time>
      </trkpt>
      <trkpt lat="44.22625" lon="6.12781">
        <ele>1338</ele>
        <time>2010-01-01T03:17:01Z</time>
      </trkpt>
      <trkpt lat="44.22627" lon="6.12777">
        <ele>1338</ele>
        <time>2010-01-01T03:17:02Z</time>
      </trkpt>
      <trkpt lat="44.22628" lon="6.12772">
        <ele>1338</ele>
        <time>2010-01-01T03:17:03Z</time>
      </trkpt>
      <trkpt lat="44.22631" lon="6.12765">
        <ele>1339</ele>
        <time>2010-01-01T03:17:04Z</time>
      </trkpt>
      <trkpt lat="44.22632" lon="6.12758">
        <ele>1340</ele>
        <time>2010-01-01T03:17:06Z</time>
      </trkpt>
      <trkpt lat="44.22632" lon="6.12751">
        <ele>1342</ele>
        <time>2010-01-01T03:17:07Z</time>
      </trkpt>
      <trkpt lat="44.22634" lon="6.12745">
        <ele>1343</ele>
        <time>2010-01-01T03:17:08Z</time>
      </trkpt>
      <trkpt lat="44.22638" lon="6.12744">
        <ele>1341</ele>
        <time>2010-01-01T03:17:09Z</time>
      </trkpt>
      <trkpt lat="44.22641" lon="6.12746">
        <ele>1340</ele>
        <time>2010-01-01T03:17:10Z</time>
      </trkpt>
      <trkpt lat="44.22643" lon="6.12748">
        <ele>1339</ele>
        <time>2010-01-01T03:17:11Z</time>
      </trkpt>
      <trkpt lat="44.22648" lon="6.12751">
        <ele>1337</ele>
        <time>2010-01-01T03:17:12Z</time>
      </trkpt>
      <trkpt lat="44.22651" lon="6.12753">
        <ele>1336</ele>
        <time>2010-01-01T03:17:13Z</time>
      </trkpt>
      <trkpt lat="44.22654" lon="6.12754">
        <ele>1335</ele>
        <time>2010-01-01T03:17:14Z</time>
      </trkpt>
      <trkpt lat="44.22657" lon="6.12756">
        <ele>1334</ele>
        <time>2010-01-01T03:17:15Z</time>
      </trkpt>
      <trkpt lat="44.22661" lon="6.12758">
        <ele>1333</ele>
        <time>2010-01-01T03:17:16Z</time>
      </trkpt>
      <trkpt lat="44.22664" lon="6.12759">
        <ele>1332</ele>
        <time>2010-01-01T03:17:17Z</time>
      </trkpt>
      <trkpt lat="44.22667" lon="6.12761">
        <ele>1332</ele>
        <time>2010-01-01T03:17:18Z</time>
      </trkpt>
      <trkpt lat="44.2267" lon="6.12762">
        <ele>1331</ele>
        <time>2010-01-01T03:17:18Z</time>
      </trkpt>
      <trkpt lat="44.22674" lon="6.12762">
        <ele>1331</ele>
        <time>2010-01-01T03:17:20Z</time>
      </trkpt>
      <trkpt lat="44.22679" lon="6.12762">
        <ele>1330</ele>
        <time>2010-01-01T03:17:21Z</time>
      </trkpt>
      <trkpt lat="44.22682" lon="6.12761">
        <ele>1330</ele>
        <time>2010-01-01T03:17:22Z</time>
      </trkpt>
      <trkpt lat="44.22685" lon="6.12761">
        <ele>1330</ele>
        <time>2010-01-01T03:17:22Z</time>
      </trkpt>
      <trkpt lat="44.22689" lon="6.1276">
        <ele>1329</ele>
        <time>2010-01-01T03:17:24Z</time>
      </trkpt>
      <trkpt lat="44.22695" lon="6.1276">
        <ele>1329</ele>
        <time>2010-01-01T03:17:25Z</time>
      </trkpt>
      <trkpt lat="44.227" lon="6.12759">
        <ele>1329</ele>
        <time>2010-01-01T03:17:26Z</time>
      </trkpt>
      <trkpt lat="44.22705" lon="6.12758">
        <ele>1329</ele>
        <time>2010-01-01T03:17:28Z</time>
      </trkpt>
      <trkpt lat="44.2271" lon="6.12756">
        <ele>1330</ele>
        <time>2010-01-01T03:17:29Z</time>
      </trkpt>
      <trkpt lat="44.22715" lon="6.12754">
        <ele>1330</ele>
        <time>2010-01-01T03:17:30Z</time>
      </trkpt>
      <trkpt lat="44.22721" lon="6.12753">
        <ele>1330</ele>
        <time>2010-01-01T03:17:32Z</time>
      </trkpt>
      <trkpt lat="44.22744" lon="6.12759">
        <ele>1327</ele>
        <time>2010-01-01T03:17:38Z</time>
      </trkpt>
      <trkpt lat="44.2275" lon="6.12761">
        <ele>1325</ele>
        <time>2010-01-01T03:17:40Z</time>
      </trkpt>
      <trkpt lat="44.22754" lon="6.12764">
        <ele>1324</ele>
        <time>2010-01-01T03:17:41Z</time>
      </trkpt>
      <trkpt lat="44.22761" lon="6.12764">
        <ele>1323</ele>
        <time>2010-01-01T03:17:43Z</time>
      </trkpt>
      <trkpt lat="44.22765" lon="6.12767">
        <ele>1322</ele>
        <time>2010-01-01T03:17:44Z</time>
      </trkpt>
      <trkpt lat="44.2277" lon="6.12769">
        <ele>1321</ele>
        <time>2010-01-01T03:17:46Z</time>
      </trkpt>
      <trkpt lat="44.22775" lon="6.1277">
        <ele>1320</ele>
        <time>2010-01-01T03:17:47Z</time>
      </trkpt>
      <trkpt lat="44.22781" lon="6.1277">
        <ele>1320</ele>
        <time>2010-01-01T03:17:49Z</time>
      </trkpt>
      <trkpt lat="44.22786" lon="6.1277">
        <ele>1320</ele>
        <time>2010-01-01T03:17:50Z</time>
      </trkpt>
      <trkpt lat="44.2279" lon="6.12773">
        <ele>1319</ele>
        <time>2010-01-01T03:17:51Z</time>
      </trkpt>
      <trkpt lat="44.22793" lon="6.12777">
        <ele>1317</ele>
        <time>2010-01-01T03:17:52Z</time>
      </trkpt>
      <trkpt lat="44.22797" lon="6.12779">
        <ele>1317</ele>
        <time>2010-01-01T03:17:53Z</time>
      </trkpt>
      <trkpt lat="44.22802" lon="6.12783">
        <ele>1316</ele>
        <time>2010-01-01T03:17:55Z</time>
      </trkpt>
      <trkpt lat="44.22805" lon="6.12787">
        <ele>1315</ele>
        <time>2010-01-01T03:17:56Z</time>
      </trkpt>
      <trkpt lat="44.22808" lon="6.12792">
        <ele>1313</ele>
        <time>2010-01-01T03:17:57Z</time>
      </trkpt>
      <trkpt lat="44.22809" lon="6.12796">
        <ele>1312</ele>
        <time>2010-01-01T03:17:58Z</time>
      </trkpt>
      <trkpt lat="44.22811" lon="6.128">
        <ele>1311</ele>
        <time>2010-01-01T03:17:59Z</time>
      </trkpt>
      <trkpt lat="44.22813" lon="6.12804">
        <ele>1310</ele>
        <time>2010-01-01T03:18:00Z</time>
      </trkpt>
      <trkpt lat="44.22816" lon="6.12808">
        <ele>1309</ele>
        <time>2010-01-01T03:18:01Z</time>
      </trkpt>
      <trkpt lat="44.22819" lon="6.1281">
        <ele>1309</ele>
        <time>2010-01-01T03:18:02Z</time>
      </trkpt>
      <trkpt lat="44.22822" lon="6.12811">
        <ele>1309</ele>
        <time>2010-01-01T03:18:03Z</time>
      </trkpt>
      <trkpt lat="44.22826" lon="6.12811">
        <ele>1309</ele>
        <time>2010-01-01T03:18:04Z</time>
      </trkpt>
      <trkpt lat="44.22829" lon="6.12809">
        <ele>1310</ele>
        <time>2010-01-01T03:18:05Z</time>
      </trkpt>
      <trkpt lat="44.22832" lon="6.12807">
        <ele>1311</ele>
        <time>2010-01-01T03:18:06Z</time>
      </trkpt>
      <trkpt lat="44.22835" lon="6.12805">
        <ele>1312</ele>
        <time>2010-01-01T03:18:06Z</time>
      </trkpt>
      <trkpt lat="44.22838" lon="6.12802">
        <ele>1312</ele>
        <time>2010-01-01T03:18:07Z</time>
      </trkpt>
      <trkpt lat="44.22841" lon="6.128">
        <ele>1313</ele>
        <time>2010-01-01T03:18:08Z</time>
      </trkpt>
      <trkpt lat="44.22844" lon="6.12797">
        <ele>1313</ele>
        <time>2010-01-01T03:18:09Z</time>
      </trkpt>
      <trkpt lat="44.22848" lon="6.12793">
        <ele>1314</ele>
        <time>2010-01-01T03:18:11Z</time>
      </trkpt>
      <trkpt lat="44.22852" lon="6.12788">
        <ele>1316</ele>
        <time>2010-01-01T03:18:12Z</time>
      </trkpt>
      <trkpt lat="44.22856" lon="6.12783">
        <ele>1317</ele>
        <time>2010-01-01T03:18:14Z</time>
      </trkpt>
      <trkpt lat="44.2286" lon="6.1278">
        <ele>1318</ele>
        <time>2010-01-01T03:18:15Z</time>
      </trkpt>
      <trkpt lat="44.22864" lon="6.12776">
        <ele>1318</ele>
        <time>2010-01-01T03:18:16Z</time>
      </trkpt>
      <trkpt lat="44.22867" lon="6.12772">
        <ele>1318</ele>
        <time>2010-01-01T03:18:17Z</time>
      </trkpt>
      <trkpt lat="44.22871" lon="6.12768">
        <ele>1317</ele>
        <time>2010-01-01T03:18:18Z</time>
      </trkpt>
      <trkpt lat="44.22873" lon="6.12764">
        <ele>1317</ele>
        <time>2010-01-01T03:18:19Z</time>
      </trkpt>
      <trkpt lat="44.22875" lon="6.12761">
        <ele>1318</ele>
        <time>2010-01-01T03:18:20Z</time>
      </trkpt>
      <trkpt lat="44.22878" lon="6.12756">
        <ele>1318</ele>
        <time>2010-01-01T03:18:21Z</time>
      </trkpt>
      <trkpt lat="44.22879" lon="6.12752">
        <ele>1319</ele>
        <time>2010-01-01T03:18:22Z</time>
      </trkpt>
      <trkpt lat="44.22879" lon="6.12748">
        <ele>1319</ele>
        <time>2010-01-01T03:18:23Z</time>
      </trkpt>
      <trkpt lat="44.2288" lon="6.12744">
        <ele>1320</ele>
        <time>2010-01-01T03:18:24Z</time>
      </trkpt>
      <trkpt lat="44.22881" lon="6.1274">
        <ele>1320</ele>
        <time>2010-01-01T03:18:25Z</time>
      </trkpt>
      <trkpt lat="44.22882" lon="6.12733">
        <ele>1321</ele>
        <time>2010-01-01T03:18:26Z</time>
      </trkpt>
      <trkpt lat="44.22883" lon="6.1273">
        <ele>1322</ele>
        <time>2010-01-01T03:18:27Z</time>
      </trkpt>
      <trkpt lat="44.22883" lon="6.12725">
        <ele>1323</ele>
        <time>2010-01-01T03:18:27Z</time>
      </trkpt>
      <trkpt lat="44.22884" lon="6.1272">
        <ele>1323</ele>
        <time>2010-01-01T03:18:28Z</time>
      </trkpt>
      <trkpt lat="44.22885" lon="6.12714">
        <ele>1324</ele>
        <time>2010-01-01T03:18:30Z</time>
      </trkpt>
      <trkpt lat="44.22887" lon="6.12707">
        <ele>1325</ele>
        <time>2010-01-01T03:18:31Z</time>
      </trkpt>
      <trkpt lat="44.22888" lon="6.127">
        <ele>1325</ele>
        <time>2010-01-01T03:18:32Z</time>
      </trkpt>
      <trkpt lat="44.22888" lon="6.12696">
        <ele>1326</ele>
        <time>2010-01-01T03:18:33Z</time>
      </trkpt>
      <trkpt lat="44.22888" lon="6.12692">
        <ele>1326</ele>
        <time>2010-01-01T03:18:34Z</time>
      </trkpt>
      <trkpt lat="44.22888" lon="6.12687">
        <ele>1328</ele>
        <time>2010-01-01T03:18:35Z</time>
      </trkpt>
      <trkpt lat="44.22888" lon="6.12683">
        <ele>1328</ele>
        <time>2010-01-01T03:18:36Z</time>
      </trkpt>
      <trkpt lat="44.22888" lon="6.12679">
        <ele>1329</ele>
        <time>2010-01-01T03:18:36Z</time>
      </trkpt>
      <trkpt lat="44.22889" lon="6.12667">
        <ele>1332</ele>
        <time>2010-01-01T03:18:39Z</time>
      </trkpt>
      <trkpt lat="44.22888" lon="6.12663">
        <ele>1333</ele>
        <time>2010-01-01T03:18:40Z</time>
      </trkpt>
      <trkpt lat="44.22888" lon="6.12658">
        <ele>1334</ele>
        <time>2010-01-01T03:18:41Z</time>
      </trkpt>
      <trkpt lat="44.22887" lon="6.12654">
        <ele>1335</ele>
        <time>2010-01-01T03:18:41Z</time>
      </trkpt>
      <trkpt lat="44.22887" lon="6.12649">
        <ele>1336</ele>
        <time>2010-01-01T03:18:42Z</time>
      </trkpt>
      <trkpt lat="44.22888" lon="6.12644">
        <ele>1337</ele>
        <time>2010-01-01T03:18:43Z</time>
      </trkpt>
      <trkpt lat="44.22889" lon="6.1264">
        <ele>1338</ele>
        <time>2010-01-01T03:18:44Z</time>
      </trkpt>
      <trkpt lat="44.22892" lon="6.12639">
        <ele>1337</ele>
        <time>2010-01-01T03:18:45Z</time>
      </trkpt>
      <trkpt lat="44.22899" lon="6.12641">
        <ele>1334</ele>
        <time>2010-01-01T03:18:47Z</time>
      </trkpt>
      <trkpt lat="44.22904" lon="6.12643">
        <ele>1332</ele>
        <time>2010-01-01T03:18:48Z</time>
      </trkpt>
      <trkpt lat="44.22907" lon="6.12644">
        <ele>1330</ele>
        <time>2010-01-01T03:18:49Z</time>
      </trkpt>
      <trkpt lat="44.22911" lon="6.12645">
        <ele>1329</ele>
        <time>2010-01-01T03:18:50Z</time>
      </trkpt>
      <trkpt lat="44.22914" lon="6.12644">
        <ele>1328</ele>
        <time>2010-01-01T03:18:51Z</time>
      </trkpt>
      <trkpt lat="44.22915" lon="6.1264">
        <ele>1328</ele>
        <time>2010-01-01T03:18:52Z</time>
      </trkpt>
      <trkpt lat="44.22917" lon="6.12636">
        <ele>1328</ele>
        <time>2010-01-01T03:18:53Z</time>
      </trkpt>
      <trkpt lat="44.2292" lon="6.12633">
        <ele>1327</ele>
        <time>2010-01-01T03:18:54Z</time>
      </trkpt>
      <trkpt lat="44.22922" lon="6.12631">
        <ele>1327</ele>
        <time>2010-01-01T03:18:55Z</time>
      </trkpt>
      <trkpt lat="44.22925" lon="6.12629">
        <ele>1326</ele>
        <time>2010-01-01T03:18:55Z</time>
      </trkpt>
      <trkpt lat="44.22929" lon="6.12624">
        <ele>1325</ele>
        <time>2010-01-01T03:18:57Z</time>
      </trkpt>
      <trkpt lat="44.22931" lon="6.12621">
        <ele>1325</ele>
        <time>2010-01-01T03:18:58Z</time>
      </trkpt>
      <trkpt lat="44.22933" lon="6.12616">
        <ele>1325</ele>
        <time>2010-01-01T03:18:59Z</time>
      </trkpt>
      <trkpt lat="44.22935" lon="6.12611">
        <ele>1324</ele>
        <time>2010-01-01T03:19:00Z</time>
      </trkpt>
      <trkpt lat="44.22938" lon="6.12605">
        <ele>1324</ele>
        <time>2010-01-01T03:19:01Z</time>
      </trkpt>
      <trkpt lat="44.2294" lon="6.12599">
        <ele>1324</ele>
        <time>2010-01-01T03:19:02Z</time>
      </trkpt>
      <trkpt lat="44.22942" lon="6.12594">
        <ele>1325</ele>
        <time>2010-01-01T03:19:04Z</time>
      </trkpt>
      <trkpt lat="44.22944" lon="6.12586">
        <ele>1325</ele>
        <time>2010-01-01T03:19:05Z</time>
      </trkpt>
      <trkpt lat="44.22947" lon="6.12577">
        <ele>1325</ele>
        <time>2010-01-01T03:19:07Z</time>
      </trkpt>
      <trkpt lat="44.2295" lon="6.1257">
        <ele>1324</ele>
        <time>2010-01-01T03:19:09Z</time>
      </trkpt>
      <trkpt lat="44.22954" lon="6.12563">
        <ele>1323</ele>
        <time>2010-01-01T03:19:10Z</time>
      </trkpt>
      <trkpt lat="44.22959" lon="6.12556">
        <ele>1321</ele>
        <time>2010-01-01T03:19:12Z</time>
      </trkpt>
      <trkpt lat="44.22964" lon="6.12549">
        <ele>1319</ele>
        <time>2010-01-01T03:19:14Z</time>
      </trkpt>
      <trkpt lat="44.22972" lon="6.12538">
        <ele>1317</ele>
        <time>2010-01-01T03:19:17Z</time>
      </trkpt>
      <trkpt lat="44.22974" lon="6.12533">
        <ele>1317</ele>
        <time>2010-01-01T03:19:18Z</time>
      </trkpt>
      <trkpt lat="44.22976" lon="6.12527">
        <ele>1317</ele>
        <time>2010-01-01T03:19:20Z</time>
      </trkpt>
      <trkpt lat="44.2298" lon="6.12528">
        <ele>1315</ele>
        <time>2010-01-01T03:19:21Z</time>
      </trkpt>
      <trkpt lat="44.22984" lon="6.12535">
        <ele>1312</ele>
        <time>2010-01-01T03:19:22Z</time>
      </trkpt>
      <trkpt lat="44.22984" lon="6.1254">
        <ele>1312</ele>
        <time>2010-01-01T03:19:23Z</time>
      </trkpt>
      <trkpt lat="44.22983" lon="6.12547">
        <ele>1311</ele>
        <time>2010-01-01T03:19:24Z</time>
      </trkpt>
      <trkpt lat="44.22981" lon="6.12551">
        <ele>1311</ele>
        <time>2010-01-01T03:19:26Z</time>
      </trkpt>
      <trkpt lat="44.22984" lon="6.12551">
        <ele>1310</ele>
        <time>2010-01-01T03:19:26Z</time>
      </trkpt>
      <trkpt lat="44.22987" lon="6.12549">
        <ele>1309</ele>
        <time>2010-01-01T03:19:27Z</time>
      </trkpt>
      <trkpt lat="44.22989" lon="6.12546">
        <ele>1309</ele>
        <time>2010-01-01T03:19:28Z</time>
      </trkpt>
      <trkpt lat="44.22992" lon="6.12544">
        <ele>1308</ele>
        <time>2010-01-01T03:19:29Z</time>
      </trkpt>
      <trkpt lat="44.22993" lon="6.12549">
        <ele>1307</ele>
        <time>2010-01-01T03:19:30Z</time>
      </trkpt>
      <trkpt lat="44.22993" lon="6.12555">
        <ele>1306</ele>
        <time>2010-01-01T03:19:31Z</time>
      </trkpt>
      <trkpt lat="44.22992" lon="6.1256">
        <ele>1306</ele>
        <time>2010-01-01T03:19:32Z</time>
      </trkpt>
      <trkpt lat="44.22991" lon="6.12564">
        <ele>1306</ele>
        <time>2010-01-01T03:19:33Z</time>
      </trkpt>
      <trkpt lat="44.22992" lon="6.12569">
        <ele>1305</ele>
        <time>2010-01-01T03:19:34Z</time>
      </trkpt>
      <trkpt lat="44.22993" lon="6.12575">
        <ele>1304</ele>
        <time>2010-01-01T03:19:35Z</time>
      </trkpt>
      <trkpt lat="44.22997" lon="6.1258">
        <ele>1302</ele>
        <time>2010-01-01T03:19:37Z</time>
      </trkpt>
      <trkpt lat="44.23002" lon="6.1258">
        <ele>1300</ele>
        <time>2010-01-01T03:19:38Z</time>
      </trkpt>
      <trkpt lat="44.23006" lon="6.12578">
        <ele>1299</ele>
        <time>2010-01-01T03:19:39Z</time>
      </trkpt>
      <trkpt lat="44.23009" lon="6.12577">
        <ele>1298</ele>
        <time>2010-01-01T03:19:40Z</time>
      </trkpt>
      <trkpt lat="44.23011" lon="6.12577">
        <ele>1297</ele>
        <time>2010-01-01T03:19:41Z</time>
      </trkpt>
      <trkpt lat="44.23014" lon="6.1258">
        <ele>1295</ele>
        <time>2010-01-01T03:19:41Z</time>
      </trkpt>
      <trkpt lat="44.23016" lon="6.12581">
        <ele>1294</ele>
        <time>2010-01-01T03:19:42Z</time>
      </trkpt>
      <trkpt lat="44.23019" lon="6.12581">
        <ele>1293</ele>
        <time>2010-01-01T03:19:43Z</time>
      </trkpt>
      <trkpt lat="44.23023" lon="6.12583">
        <ele>1291</ele>
        <time>2010-01-01T03:19:44Z</time>
      </trkpt>
      <trkpt lat="44.23025" lon="6.12588">
        <ele>1290</ele>
        <time>2010-01-01T03:19:45Z</time>
      </trkpt>
      <trkpt lat="44.23025" lon="6.12593">
        <ele>1289</ele>
        <time>2010-01-01T03:19:46Z</time>
      </trkpt>
      <trkpt lat="44.23029" lon="6.12597">
        <ele>1287</ele>
        <time>2010-01-01T03:19:47Z</time>
      </trkpt>
      <trkpt lat="44.23034" lon="6.12598">
        <ele>1285</ele>
        <time>2010-01-01T03:19:48Z</time>
      </trkpt>
      <trkpt lat="44.23036" lon="6.12604">
        <ele>1284</ele>
        <time>2010-01-01T03:19:50Z</time>
      </trkpt>
      <trkpt lat="44.23036" lon="6.12609">
        <ele>1283</ele>
        <time>2010-01-01T03:19:51Z</time>
      </trkpt>
      <trkpt lat="44.23042" lon="6.12605">
        <ele>1281</ele>
        <time>2010-01-01T03:19:52Z</time>
      </trkpt>
      <trkpt lat="44.23044" lon="6.12602">
        <ele>1281</ele>
        <time>2010-01-01T03:19:53Z</time>
      </trkpt>
      <trkpt lat="44.23046" lon="6.12607">
        <ele>1279</ele>
        <time>2010-01-01T03:19:54Z</time>
      </trkpt>
      <trkpt lat="44.23045" lon="6.12612">
        <ele>1279</ele>
        <time>2010-01-01T03:19:55Z</time>
      </trkpt>
      <trkpt lat="44.23045" lon="6.12617">
        <ele>1278</ele>
        <time>2010-01-01T03:19:56Z</time>
      </trkpt>
      <trkpt lat="44.23049" lon="6.12613">
        <ele>1278</ele>
        <time>2010-01-01T03:19:58Z</time>
      </trkpt>
      <trkpt lat="44.23052" lon="6.12609">
        <ele>1277</ele>
        <time>2010-01-01T03:19:59Z</time>
      </trkpt>
      <trkpt lat="44.23056" lon="6.12607">
        <ele>1276</ele>
        <time>2010-01-01T03:20:00Z</time>
      </trkpt>
      <trkpt lat="44.23058" lon="6.1261">
        <ele>1275</ele>
        <time>2010-01-01T03:20:01Z</time>
      </trkpt>
      <trkpt lat="44.23058" lon="6.12616">
        <ele>1274</ele>
        <time>2010-01-01T03:20:02Z</time>
      </trkpt>
      <trkpt lat="44.23056" lon="6.12628">
        <ele>1273</ele>
        <time>2010-01-01T03:20:04Z</time>
      </trkpt>
      <trkpt lat="44.23055" lon="6.12636">
        <ele>1272</ele>
        <time>2010-01-01T03:20:06Z</time>
      </trkpt>
      <trkpt lat="44.23054" lon="6.12643">
        <ele>1272</ele>
        <time>2010-01-01T03:20:07Z</time>
      </trkpt>
      <trkpt lat="44.2305" lon="6.1265">
        <ele>1272</ele>
        <time>2010-01-01T03:20:09Z</time>
      </trkpt>
      <trkpt lat="44.23047" lon="6.12656">
        <ele>1272</ele>
        <time>2010-01-01T03:20:10Z</time>
      </trkpt>
      <trkpt lat="44.23044" lon="6.12657">
        <ele>1273</ele>
        <time>2010-01-01T03:20:11Z</time>
      </trkpt>
      <trkpt lat="44.23043" lon="6.12665">
        <ele>1272</ele>
        <time>2010-01-01T03:20:12Z</time>
      </trkpt>
      <trkpt lat="44.23046" lon="6.12668">
        <ele>1271</ele>
        <time>2010-01-01T03:20:13Z</time>
      </trkpt>
      <trkpt lat="44.23049" lon="6.1267">
        <ele>1269</ele>
        <time>2010-01-01T03:20:14Z</time>
      </trkpt>
      <trkpt lat="44.23053" lon="6.12668">
        <ele>1268</ele>
        <time>2010-01-01T03:20:15Z</time>
      </trkpt>
      <trkpt lat="44.23057" lon="6.1267">
        <ele>1266</ele>
        <time>2010-01-01T03:20:16Z</time>
      </trkpt>
      <trkpt lat="44.23053" lon="6.12674">
        <ele>1266</ele>
        <time>2010-01-01T03:20:18Z</time>
      </trkpt>
      <trkpt lat="44.23051" lon="6.1268">
        <ele>1265</ele>
        <time>2010-01-01T03:20:19Z</time>
      </trkpt>
      <trkpt lat="44.23051" lon="6.12686">
        <ele>1263</ele>
        <time>2010-01-01T03:20:20Z</time>
      </trkpt>
      <trkpt lat="44.23054" lon="6.12687">
        <ele>1261</ele>
        <time>2010-01-01T03:20:21Z</time>
      </trkpt>
      <trkpt lat="44.23063" lon="6.12682">
        <ele>1260</ele>
        <time>2010-01-01T03:20:23Z</time>
      </trkpt>
      <trkpt lat="44.23069" lon="6.12679">
        <ele>1258</ele>
        <time>2010-01-01T03:20:25Z</time>
      </trkpt>
      <trkpt lat="44.23076" lon="6.12675">
        <ele>1257</ele>
        <time>2010-01-01T03:20:27Z</time>
      </trkpt>
      <trkpt lat="44.23082" lon="6.12671">
        <ele>1256</ele>
        <time>2010-01-01T03:20:29Z</time>
      </trkpt>
      <trkpt lat="44.23085" lon="6.12672">
        <ele>1254</ele>
        <time>2010-01-01T03:20:30Z</time>
      </trkpt>
      <trkpt lat="44.23088" lon="6.12672">
        <ele>1253</ele>
        <time>2010-01-01T03:20:30Z</time>
      </trkpt>
      <trkpt lat="44.23084" lon="6.1268">
        <ele>1253</ele>
        <time>2010-01-01T03:20:32Z</time>
      </trkpt>
      <trkpt lat="44.23081" lon="6.12684">
        <ele>1253</ele>
        <time>2010-01-01T03:20:33Z</time>
      </trkpt>
      <trkpt lat="44.23078" lon="6.12689">
        <ele>1252</ele>
        <time>2010-01-01T03:20:34Z</time>
      </trkpt>
      <trkpt lat="44.23076" lon="6.12693">
        <ele>1251</ele>
        <time>2010-01-01T03:20:36Z</time>
      </trkpt>
      <trkpt lat="44.23077" lon="6.12697">
        <ele>1250</ele>
        <time>2010-01-01T03:20:36Z</time>
      </trkpt>
      <trkpt lat="44.23081" lon="6.12695">
        <ele>1249</ele>
        <time>2010-01-01T03:20:37Z</time>
      </trkpt>
      <trkpt lat="44.23082" lon="6.12701">
        <ele>1246</ele>
        <time>2010-01-01T03:20:38Z</time>
      </trkpt>
      <trkpt lat="44.23077" lon="6.12709">
        <ele>1245</ele>
        <time>2010-01-01T03:20:40Z</time>
      </trkpt>
      <trkpt lat="44.23074" lon="6.12711">
        <ele>1245</ele>
        <time>2010-01-01T03:20:41Z</time>
      </trkpt>
      <trkpt lat="44.23076" lon="6.12714">
        <ele>1243</ele>
        <time>2010-01-01T03:20:42Z</time>
      </trkpt>
      <trkpt lat="44.2308" lon="6.12713">
        <ele>1241</ele>
        <time>2010-01-01T03:20:43Z</time>
      </trkpt>
      <trkpt lat="44.23084" lon="6.12712">
        <ele>1240</ele>
        <time>2010-01-01T03:20:44Z</time>
      </trkpt>
      <trkpt lat="44.23091" lon="6.12708">
        <ele>1239</ele>
        <time>2010-01-01T03:20:46Z</time>
      </trkpt>
      <trkpt lat="44.23101" lon="6.12702">
        <ele>1236</ele>
        <time>2010-01-01T03:20:49Z</time>
      </trkpt>
      <trkpt lat="44.23106" lon="6.12697">
        <ele>1235</ele>
        <time>2010-01-01T03:20:51Z</time>
      </trkpt>
      <trkpt lat="44.23113" lon="6.12692">
        <ele>1234</ele>
        <time>2010-01-01T03:20:53Z</time>
      </trkpt>
      <trkpt lat="44.23118" lon="6.12691">
        <ele>1231</ele>
        <time>2010-01-01T03:20:54Z</time>
      </trkpt>
      <trkpt lat="44.23122" lon="6.12689">
        <ele>1230</ele>
        <time>2010-01-01T03:20:55Z</time>
      </trkpt>
      <trkpt lat="44.23124" lon="6.12692">
        <ele>1228</ele>
        <time>2010-01-01T03:20:56Z</time>
      </trkpt>
      <trkpt lat="44.23122" lon="6.12701">
        <ele>1226</ele>
        <time>2010-01-01T03:20:58Z</time>
      </trkpt>
      <trkpt lat="44.2312" lon="6.12706">
        <ele>1226</ele>
        <time>2010-01-01T03:20:59Z</time>
      </trkpt>
      <trkpt lat="44.23119" lon="6.12712">
        <ele>1224</ele>
        <time>2010-01-01T03:21:00Z</time>
      </trkpt>
      <trkpt lat="44.23117" lon="6.12716">
        <ele>1224</ele>
        <time>2010-01-01T03:21:01Z</time>
      </trkpt>
      <trkpt lat="44.23114" lon="6.1272">
        <ele>1224</ele>
        <time>2010-01-01T03:21:02Z</time>
      </trkpt>
      <trkpt lat="44.23124" lon="6.12715">
        <ele>1221</ele>
        <time>2010-01-01T03:21:05Z</time>
      </trkpt>
      <trkpt lat="44.23129" lon="6.12713">
        <ele>1219</ele>
        <time>2010-01-01T03:21:06Z</time>
      </trkpt>
      <trkpt lat="44.23136" lon="6.12711">
        <ele>1217</ele>
        <time>2010-01-01T03:21:08Z</time>
      </trkpt>
      <trkpt lat="44.23142" lon="6.12708">
        <ele>1215</ele>
        <time>2010-01-01T03:21:10Z</time>
      </trkpt>
      <trkpt lat="44.23148" lon="6.12706">
        <ele>1214</ele>
        <time>2010-01-01T03:21:11Z</time>
      </trkpt>
      <trkpt lat="44.23153" lon="6.12705">
        <ele>1213</ele>
        <time>2010-01-01T03:21:13Z</time>
      </trkpt>
      <trkpt lat="44.23159" lon="6.12703">
        <ele>1212</ele>
        <time>2010-01-01T03:21:14Z</time>
      </trkpt>
      <trkpt lat="44.23164" lon="6.12699">
        <ele>1211</ele>
        <time>2010-01-01T03:21:16Z</time>
      </trkpt>
      <trkpt lat="44.23166" lon="6.12696">
        <ele>1211</ele>
        <time>2010-01-01T03:21:17Z</time>
      </trkpt>
      <trkpt lat="44.2317" lon="6.12695">
        <ele>1211</ele>
        <time>2010-01-01T03:21:18Z</time>
      </trkpt>
      <trkpt lat="44.23173" lon="6.12694">
        <ele>1210</ele>
        <time>2010-01-01T03:21:19Z</time>
      </trkpt>
      <trkpt lat="44.23173" lon="6.127">
        <ele>1209</ele>
        <time>2010-01-01T03:21:20Z</time>
      </trkpt>
      <trkpt lat="44.23171" lon="6.12705">
        <ele>1208</ele>
        <time>2010-01-01T03:21:21Z</time>
      </trkpt>
      <trkpt lat="44.2317" lon="6.1271">
        <ele>1208</ele>
        <time>2010-01-01T03:21:22Z</time>
      </trkpt>
      <trkpt lat="44.23169" lon="6.12714">
        <ele>1207</ele>
        <time>2010-01-01T03:21:23Z</time>
      </trkpt>
      <trkpt lat="44.23172" lon="6.12716">
        <ele>1206</ele>
        <time>2010-01-01T03:21:24Z</time>
      </trkpt>
      <trkpt lat="44.23176" lon="6.12715">
        <ele>1206</ele>
        <time>2010-01-01T03:21:25Z</time>
      </trkpt>
      <trkpt lat="44.23178" lon="6.12717">
        <ele>1205</ele>
        <time>2010-01-01T03:21:26Z</time>
      </trkpt>
      <trkpt lat="44.23178" lon="6.12724">
        <ele>1204</ele>
        <time>2010-01-01T03:21:27Z</time>
      </trkpt>
      <trkpt lat="44.2318" lon="6.1273">
        <ele>1202</ele>
        <time>2010-01-01T03:21:28Z</time>
      </trkpt>
      <trkpt lat="44.23187" lon="6.12727">
        <ele>1202</ele>
        <time>2010-01-01T03:21:30Z</time>
      </trkpt>
      <trkpt lat="44.23191" lon="6.12724">
        <ele>1201</ele>
        <time>2010-01-01T03:21:31Z</time>
      </trkpt>
      <trkpt lat="44.23195" lon="6.12724">
        <ele>1201</ele>
        <time>2010-01-01T03:21:32Z</time>
      </trkpt>
      <trkpt lat="44.23198" lon="6.12729">
        <ele>1199</ele>
        <time>2010-01-01T03:21:34Z</time>
      </trkpt>
      <trkpt lat="44.23195" lon="6.12735">
        <ele>1198</ele>
        <time>2010-01-01T03:21:35Z</time>
      </trkpt>
      <trkpt lat="44.23199" lon="6.12735">
        <ele>1197</ele>
        <time>2010-01-01T03:21:36Z</time>
      </trkpt>
      <trkpt lat="44.23202" lon="6.12733">
        <ele>1198</ele>
        <time>2010-01-01T03:21:37Z</time>
      </trkpt>
      <trkpt lat="44.23205" lon="6.12739">
        <ele>1196</ele>
        <time>2010-01-01T03:21:38Z</time>
      </trkpt>
      <trkpt lat="44.23204" lon="6.12744">
        <ele>1194</ele>
        <time>2010-01-01T03:21:39Z</time>
      </trkpt>
      <trkpt lat="44.23201" lon="6.12751">
        <ele>1193</ele>
        <time>2010-01-01T03:21:41Z</time>
      </trkpt>
      <trkpt lat="44.23199" lon="6.12757">
        <ele>1192</ele>
        <time>2010-01-01T03:21:42Z</time>
      </trkpt>
      <trkpt lat="44.23196" lon="6.12762">
        <ele>1191</ele>
        <time>2010-01-01T03:21:43Z</time>
      </trkpt>
      <trkpt lat="44.23199" lon="6.12765">
        <ele>1190</ele>
        <time>2010-01-01T03:21:44Z</time>
      </trkpt>
      <trkpt lat="44.23203" lon="6.12764">
        <ele>1189</ele>
        <time>2010-01-01T03:21:45Z</time>
      </trkpt>
      <trkpt lat="44.23208" lon="6.12761">
        <ele>1189</ele>
        <time>2010-01-01T03:21:47Z</time>
      </trkpt>
      <trkpt lat="44.23213" lon="6.1276">
        <ele>1189</ele>
        <time>2010-01-01T03:21:48Z</time>
      </trkpt>
      <trkpt lat="44.23218" lon="6.12763">
        <ele>1187</ele>
        <time>2010-01-01T03:21:50Z</time>
      </trkpt>
      <trkpt lat="44.23223" lon="6.12766">
        <ele>1186</ele>
        <time>2010-01-01T03:21:51Z</time>
      </trkpt>
      <trkpt lat="44.23229" lon="6.12767">
        <ele>1185</ele>
        <time>2010-01-01T03:21:53Z</time>
      </trkpt>
      <trkpt lat="44.23234" lon="6.1277">
        <ele>1184</ele>
        <time>2010-01-01T03:21:54Z</time>
      </trkpt>
      <trkpt lat="44.23237" lon="6.12769">
        <ele>1184</ele>
        <time>2010-01-01T03:21:55Z</time>
      </trkpt>
      <trkpt lat="44.2324" lon="6.12766">
        <ele>1184</ele>
        <time>2010-01-01T03:21:56Z</time>
      </trkpt>
      <trkpt lat="44.23244" lon="6.12767">
        <ele>1184</ele>
        <time>2010-01-01T03:21:57Z</time>
      </trkpt>
      <trkpt lat="44.23246" lon="6.12771">
        <ele>1183</ele>
        <time>2010-01-01T03:21:58Z</time>
      </trkpt>
      <trkpt lat="44.23249" lon="6.12775">
        <ele>1182</ele>
        <time>2010-01-01T03:21:59Z</time>
      </trkpt>
      <trkpt lat="44.23252" lon="6.12779">
        <ele>1181</ele>
        <time>2010-01-01T03:22:00Z</time>
      </trkpt>
      <trkpt lat="44.23254" lon="6.12783">
        <ele>1180</ele>
        <time>2010-01-01T03:22:01Z</time>
      </trkpt>
      <trkpt lat="44.23257" lon="6.12787">
        <ele>1180</ele>
        <time>2010-01-01T03:22:02Z</time>
      </trkpt>
      <trkpt lat="44.2326" lon="6.12791">
        <ele>1179</ele>
        <time>2010-01-01T03:22:03Z</time>
      </trkpt>
      <trkpt lat="44.23264" lon="6.12795">
        <ele>1178</ele>
        <time>2010-01-01T03:22:05Z</time>
      </trkpt>
      <trkpt lat="44.23268" lon="6.12798">
        <ele>1178</ele>
        <time>2010-01-01T03:22:06Z</time>
      </trkpt>
      <trkpt lat="44.23272" lon="6.12801">
        <ele>1177</ele>
        <time>2010-01-01T03:22:07Z</time>
      </trkpt>
      <trkpt lat="44.23275" lon="6.12803">
        <ele>1177</ele>
        <time>2010-01-01T03:22:08Z</time>
      </trkpt>
      <trkpt lat="44.23278" lon="6.12806">
        <ele>1176</ele>
        <time>2010-01-01T03:22:09Z</time>
      </trkpt>
      <trkpt lat="44.23282" lon="6.12811">
        <ele>1175</ele>
        <time>2010-01-01T03:22:10Z</time>
      </trkpt>
      <trkpt lat="44.23285" lon="6.12815">
        <ele>1175</ele>
        <time>2010-01-01T03:22:11Z</time>
      </trkpt>
      <trkpt lat="44.23289" lon="6.12819">
        <ele>1174</ele>
        <time>2010-01-01T03:22:13Z</time>
      </trkpt>
      <trkpt lat="44.23293" lon="6.12824">
        <ele>1174</ele>
        <time>2010-01-01T03:22:14Z</time>
      </trkpt>
      <trkpt lat="44.23298" lon="6.12829">
        <ele>1173</ele>
        <time>2010-01-01T03:22:16Z</time>
      </trkpt>
      <trkpt lat="44.23302" lon="6.12834">
        <ele>1173</ele>
        <time>2010-01-01T03:22:17Z</time>
      </trkpt>
      <trkpt lat="44.23306" lon="6.12838">
        <ele>1172</ele>
        <time>2010-01-01T03:22:19Z</time>
      </trkpt>
      <trkpt lat="44.23309" lon="6.1284">
        <ele>1172</ele>
        <time>2010-01-01T03:22:19Z</time>
      </trkpt>
      <trkpt lat="44.23314" lon="6.12844">
        <ele>1171</ele>
        <time>2010-01-01T03:22:21Z</time>
      </trkpt>
      <trkpt lat="44.23317" lon="6.12847">
        <ele>1171</ele>
        <time>2010-01-01T03:22:22Z</time>
      </trkpt>
      <trkpt lat="44.23321" lon="6.12851">
        <ele>1171</ele>
        <time>2010-01-01T03:22:23Z</time>
      </trkpt>
      <trkpt lat="44.23325" lon="6.12855">
        <ele>1170</ele>
        <time>2010-01-01T03:22:25Z</time>
      </trkpt>
      <trkpt lat="44.2333" lon="6.12858">
        <ele>1170</ele>
        <time>2010-01-01T03:22:26Z</time>
      </trkpt>
      <trkpt lat="44.23336" lon="6.12858">
        <ele>1169</ele>
        <time>2010-01-01T03:22:28Z</time>
      </trkpt>
      <trkpt lat="44.2334" lon="6.12859">
        <ele>1169</ele>
        <time>2010-01-01T03:22:29Z</time>
      </trkpt>
      <trkpt lat="44.23343" lon="6.12861">
        <ele>1168</ele>
        <time>2010-01-01T03:22:30Z</time>
      </trkpt>
      <trkpt lat="44.23347" lon="6.12864">
        <ele>1167</ele>
        <time>2010-01-01T03:22:31Z</time>
      </trkpt>
      <trkpt lat="44.23349" lon="6.12869">
        <ele>1166</ele>
        <time>2010-01-01T03:22:32Z</time>
      </trkpt>
      <trkpt lat="44.23353" lon="6.1287">
        <ele>1165</ele>
        <time>2010-01-01T03:22:33Z</time>
      </trkpt>
      <trkpt lat="44.23358" lon="6.1287">
        <ele>1164</ele>
        <time>2010-01-01T03:22:34Z</time>
      </trkpt>
      <trkpt lat="44.23363" lon="6.12872">
        <ele>1162</ele>
        <time>2010-01-01T03:22:36Z</time>
      </trkpt>
      <trkpt lat="44.23368" lon="6.12878">
        <ele>1160</ele>
        <time>2010-01-01T03:22:37Z</time>
      </trkpt>
      <trkpt lat="44.23373" lon="6.12882">
        <ele>1157</ele>
        <time>2010-01-01T03:22:39Z</time>
      </trkpt>
      <trkpt lat="44.23379" lon="6.12883">
        <ele>1156</ele>
        <time>2010-01-01T03:22:40Z</time>
      </trkpt>
      <trkpt lat="44.23384" lon="6.12883">
        <ele>1155</ele>
        <time>2010-01-01T03:22:42Z</time>
      </trkpt>
      <trkpt lat="44.23388" lon="6.12882">
        <ele>1154</ele>
        <time>2010-01-01T03:22:43Z</time>
      </trkpt>
      <trkpt lat="44.23393" lon="6.1288">
        <ele>1153</ele>
        <time>2010-01-01T03:22:44Z</time>
      </trkpt>
      <trkpt lat="44.23398" lon="6.12879">
        <ele>1153</ele>
        <time>2010-01-01T03:22:46Z</time>
      </trkpt>
      <trkpt lat="44.234" lon="6.12882">
        <ele>1152</ele>
        <time>2010-01-01T03:22:46Z</time>
      </trkpt>
      <trkpt lat="44.234" lon="6.12887">
        <ele>1151</ele>
        <time>2010-01-01T03:22:47Z</time>
      </trkpt>
      <trkpt lat="44.23397" lon="6.12891">
        <ele>1151</ele>
        <time>2010-01-01T03:22:48Z</time>
      </trkpt>
      <trkpt lat="44.23396" lon="6.12894">
        <ele>1150</ele>
        <time>2010-01-01T03:22:49Z</time>
      </trkpt>
      <trkpt lat="44.23394" lon="6.12898">
        <ele>1150</ele>
        <time>2010-01-01T03:22:50Z</time>
      </trkpt>
      <trkpt lat="44.23392" lon="6.12903">
        <ele>1149</ele>
        <time>2010-01-01T03:22:51Z</time>
      </trkpt>
      <trkpt lat="44.23391" lon="6.12908">
        <ele>1148</ele>
        <time>2010-01-01T03:22:52Z</time>
      </trkpt>
      <trkpt lat="44.23392" lon="6.12912">
        <ele>1147</ele>
        <time>2010-01-01T03:22:53Z</time>
      </trkpt>
      <trkpt lat="44.23394" lon="6.12915">
        <ele>1146</ele>
        <time>2010-01-01T03:22:54Z</time>
      </trkpt>
      <trkpt lat="44.23398" lon="6.12916">
        <ele>1146</ele>
        <time>2010-01-01T03:22:55Z</time>
      </trkpt>
      <trkpt lat="44.23407" lon="6.12906">
        <ele>1147</ele>
        <time>2010-01-01T03:22:58Z</time>
      </trkpt>
      <trkpt lat="44.2341" lon="6.12905">
        <ele>1147</ele>
        <time>2010-01-01T03:22:59Z</time>
      </trkpt>
      <trkpt lat="44.23414" lon="6.12907">
        <ele>1146</ele>
        <time>2010-01-01T03:23:00Z</time>
      </trkpt>
      <trkpt lat="44.23419" lon="6.1291">
        <ele>1145</ele>
        <time>2010-01-01T03:23:01Z</time>
      </trkpt>
      <trkpt lat="44.23423" lon="6.12912">
        <ele>1145</ele>
        <time>2010-01-01T03:23:02Z</time>
      </trkpt>
      <trkpt lat="44.23427" lon="6.12916">
        <ele>1144</ele>
        <time>2010-01-01T03:23:04Z</time>
      </trkpt>
      <trkpt lat="44.2343" lon="6.1292">
        <ele>1144</ele>
        <time>2010-01-01T03:23:05Z</time>
      </trkpt>
      <trkpt lat="44.23434" lon="6.12923">
        <ele>1143</ele>
        <time>2010-01-01T03:23:06Z</time>
      </trkpt>
      <trkpt lat="44.23439" lon="6.12924">
        <ele>1143</ele>
        <time>2010-01-01T03:23:07Z</time>
      </trkpt>
      <trkpt lat="44.23444" lon="6.12923">
        <ele>1143</ele>
        <time>2010-01-01T03:23:08Z</time>
      </trkpt>
      <trkpt lat="44.23449" lon="6.12924">
        <ele>1143</ele>
        <time>2010-01-01T03:23:10Z</time>
      </trkpt>
      <trkpt lat="44.23456" lon="6.12922">
        <ele>1142</ele>
        <time>2010-01-01T03:23:12Z</time>
      </trkpt>
      <trkpt lat="44.2346" lon="6.1292">
        <ele>1142</ele>
        <time>2010-01-01T03:23:13Z</time>
      </trkpt>
      <trkpt lat="44.23463" lon="6.12918">
        <ele>1142</ele>
        <time>2010-01-01T03:23:14Z</time>
      </trkpt>
      <trkpt lat="44.23466" lon="6.12918">
        <ele>1142</ele>
        <time>2010-01-01T03:23:15Z</time>
      </trkpt>
      <trkpt lat="44.23469" lon="6.12922">
        <ele>1142</ele>
        <time>2010-01-01T03:23:16Z</time>
      </trkpt>
      <trkpt lat="44.23472" lon="6.12927">
        <ele>1141</ele>
        <time>2010-01-01T03:23:17Z</time>
      </trkpt>
      <trkpt lat="44.23475" lon="6.12929">
        <ele>1141</ele>
        <time>2010-01-01T03:23:18Z</time>
      </trkpt>
      <trkpt lat="44.23482" lon="6.12935">
        <ele>1140</ele>
        <time>2010-01-01T03:23:20Z</time>
      </trkpt>
      <trkpt lat="44.23485" lon="6.12933">
        <ele>1140</ele>
        <time>2010-01-01T03:23:21Z</time>
      </trkpt>
      <trkpt lat="44.23488" lon="6.1293">
        <ele>1140</ele>
        <time>2010-01-01T03:23:22Z</time>
      </trkpt>
      <trkpt lat="44.23493" lon="6.12926">
        <ele>1140</ele>
        <time>2010-01-01T03:23:23Z</time>
      </trkpt>
      <trkpt lat="44.23497" lon="6.12925">
        <ele>1139</ele>
        <time>2010-01-01T03:23:24Z</time>
      </trkpt>
      <trkpt lat="44.235" lon="6.12925">
        <ele>1139</ele>
        <time>2010-01-01T03:23:25Z</time>
      </trkpt>
      <trkpt lat="44.23504" lon="6.12926">
        <ele>1139</ele>
        <time>2010-01-01T03:23:26Z</time>
      </trkpt>
      <trkpt lat="44.23507" lon="6.12928">
        <ele>1139</ele>
        <time>2010-01-01T03:23:27Z</time>
      </trkpt>
      <trkpt lat="44.2351" lon="6.1293">
        <ele>1138</ele>
        <time>2010-01-01T03:23:28Z</time>
      </trkpt>
      <trkpt lat="44.23513" lon="6.12933">
        <ele>1138</ele>
        <time>2010-01-01T03:23:29Z</time>
      </trkpt>
      <trkpt lat="44.23517" lon="6.12936">
        <ele>1138</ele>
        <time>2010-01-01T03:23:30Z</time>
      </trkpt>
      <trkpt lat="44.2352" lon="6.12939">
        <ele>1138</ele>
        <time>2010-01-01T03:23:31Z</time>
      </trkpt>
      <trkpt lat="44.23523" lon="6.12943">
        <ele>1138</ele>
        <time>2010-01-01T03:23:32Z</time>
      </trkpt>
      <trkpt lat="44.23525" lon="6.12946">
        <ele>1138</ele>
        <time>2010-01-01T03:23:33Z</time>
      </trkpt>
      <trkpt lat="44.23526" lon="6.12949">
        <ele>1138</ele>
        <time>2010-01-01T03:23:34Z</time>
      </trkpt>
      <trkpt lat="44.23525" lon="6.12954">
        <ele>1138</ele>
        <time>2010-01-01T03:23:35Z</time>
      </trkpt>
      <trkpt lat="44.23526" lon="6.12958">
        <ele>1138</ele>
        <time>2010-01-01T03:23:36Z</time>
      </trkpt>
      <trkpt lat="44.23528" lon="6.1296">
        <ele>1139</ele>
        <time>2010-01-01T03:23:36Z</time>
      </trkpt>
      <trkpt lat="44.23531" lon="6.12961">
        <ele>1139</ele>
        <time>2010-01-01T03:23:37Z</time>
      </trkpt>
      <trkpt lat="44.23532" lon="6.12965">
        <ele>1139</ele>
        <time>2010-01-01T03:23:38Z</time>
      </trkpt>
      <trkpt lat="44.23534" lon="6.12968">
        <ele>1139</ele>
        <time>2010-01-01T03:23:39Z</time>
      </trkpt>
      <trkpt lat="44.23537" lon="6.12968">
        <ele>1139</ele>
        <time>2010-01-01T03:23:40Z</time>
      </trkpt>
      <trkpt lat="44.2354" lon="6.12964">
        <ele>1139</ele>
        <time>2010-01-01T03:23:41Z</time>
      </trkpt>
      <trkpt lat="44.23544" lon="6.1296">
        <ele>1139</ele>
        <time>2010-01-01T03:23:42Z</time>
      </trkpt>
      <trkpt lat="44.23548" lon="6.12957">
        <ele>1139</ele>
        <time>2010-01-01T03:23:43Z</time>
      </trkpt>
      <trkpt lat="44.23552" lon="6.12953">
        <ele>1138</ele>
        <time>2010-01-01T03:23:44Z</time>
      </trkpt>
      <trkpt lat="44.23555" lon="6.12951">
        <ele>1138</ele>
        <time>2010-01-01T03:23:45Z</time>
      </trkpt>
      <trkpt lat="44.23557" lon="6.12949">
        <ele>1138</ele>
        <time>2010-01-01T03:23:46Z</time>
      </trkpt>
      <trkpt lat="44.2356" lon="6.12947">
        <ele>1138</ele>
        <time>2010-01-01T03:23:47Z</time>
      </trkpt>
      <trkpt lat="44.23564" lon="6.12945">
        <ele>1138</ele>
        <time>2010-01-01T03:23:48Z</time>
      </trkpt>
      <trkpt lat="44.23567" lon="6.12942">
        <ele>1138</ele>
        <time>2010-01-01T03:23:49Z</time>
      </trkpt>
      <trkpt lat="44.23571" lon="6.12939">
        <ele>1138</ele>
        <time>2010-01-01T03:23:50Z</time>
      </trkpt>
      <trkpt lat="44.23575" lon="6.12937">
        <ele>1138</ele>
        <time>2010-01-01T03:23:51Z</time>
      </trkpt>
      <trkpt lat="44.23579" lon="6.12934">
        <ele>1138</ele>
        <time>2010-01-01T03:23:52Z</time>
      </trkpt>
      <trkpt lat="44.23583" lon="6.12931">
        <ele>1138</ele>
        <time>2010-01-01T03:23:54Z</time>
      </trkpt>
      <trkpt lat="44.23587" lon="6.12929">
        <ele>1138</ele>
        <time>2010-01-01T03:23:55Z</time>
      </trkpt>
      <trkpt lat="44.23592" lon="6.12926">
        <ele>1138</ele>
        <time>2010-01-01T03:23:56Z</time>
      </trkpt>
      <trkpt lat="44.23597" lon="6.12923">
        <ele>1138</ele>
        <time>2010-01-01T03:23:58Z</time>
      </trkpt>
      <trkpt lat="44.23601" lon="6.12921">
        <ele>1138</ele>
        <time>2010-01-01T03:23:59Z</time>
      </trkpt>
      <trkpt lat="44.23606" lon="6.12918">
        <ele>1138</ele>
        <time>2010-01-01T03:24:00Z</time>
      </trkpt>
      <trkpt lat="44.23611" lon="6.12915">
        <ele>1138</ele>
        <time>2010-01-01T03:24:02Z</time>
      </trkpt>
      <trkpt lat="44.23615" lon="6.12912">
        <ele>1138</ele>
        <time>2010-01-01T03:24:03Z</time>
      </trkpt>
      <trkpt lat="44.2362" lon="6.12908">
        <ele>1137</ele>
        <time>2010-01-01T03:24:05Z</time>
      </trkpt>
      <trkpt lat="44.23625" lon="6.12903">
        <ele>1136</ele>
        <time>2010-01-01T03:24:06Z</time>
      </trkpt>
      <trkpt lat="44.23628" lon="6.12898">
        <ele>1135</ele>
        <time>2010-01-01T03:24:07Z</time>
      </trkpt>
      <trkpt lat="44.23633" lon="6.12894">
        <ele>1134</ele>
        <time>2010-01-01T03:24:09Z</time>
      </trkpt>
      <trkpt lat="44.23638" lon="6.1289">
        <ele>1134</ele>
        <time>2010-01-01T03:24:10Z</time>
      </trkpt>
      <trkpt lat="44.23642" lon="6.12885">
        <ele>1134</ele>
        <time>2010-01-01T03:24:12Z</time>
      </trkpt>
      <trkpt lat="44.23647" lon="6.12881">
        <ele>1134</ele>
        <time>2010-01-01T03:24:14Z</time>
      </trkpt>
      <trkpt lat="44.23653" lon="6.12878">
        <ele>1134</ele>
        <time>2010-01-01T03:24:15Z</time>
      </trkpt>
      <trkpt lat="44.23658" lon="6.12875">
        <ele>1134</ele>
        <time>2010-01-01T03:24:16Z</time>
      </trkpt>
      <trkpt lat="44.23663" lon="6.12872">
        <ele>1134</ele>
        <time>2010-01-01T03:24:18Z</time>
      </trkpt>
      <trkpt lat="44.23669" lon="6.12869">
        <ele>1134</ele>
        <time>2010-01-01T03:24:20Z</time>
      </trkpt>
      <trkpt lat="44.23674" lon="6.12866">
        <ele>1134</ele>
        <time>2010-01-01T03:24:21Z</time>
      </trkpt>
      <trkpt lat="44.2368" lon="6.12864">
        <ele>1134</ele>
        <time>2010-01-01T03:24:23Z</time>
      </trkpt>
      <trkpt lat="44.23685" lon="6.12863">
        <ele>1134</ele>
        <time>2010-01-01T03:24:24Z</time>
      </trkpt>
      <trkpt lat="44.23691" lon="6.12861">
        <ele>1134</ele>
        <time>2010-01-01T03:24:26Z</time>
      </trkpt>
      <trkpt lat="44.23697" lon="6.1286">
        <ele>1133</ele>
        <time>2010-01-01T03:24:27Z</time>
      </trkpt>
      <trkpt lat="44.23703" lon="6.1286">
        <ele>1133</ele>
        <time>2010-01-01T03:24:29Z</time>
      </trkpt>
      <trkpt lat="44.23708" lon="6.1286">
        <ele>1133</ele>
        <time>2010-01-01T03:24:30Z</time>
      </trkpt>
      <trkpt lat="44.23713" lon="6.12861">
        <ele>1133</ele>
        <time>2010-01-01T03:24:32Z</time>
      </trkpt>
      <trkpt lat="44.23718" lon="6.12861">
        <ele>1133</ele>
        <time>2010-01-01T03:24:33Z</time>
      </trkpt>
      <trkpt lat="44.23724" lon="6.12863">
        <ele>1133</ele>
        <time>2010-01-01T03:24:35Z</time>
      </trkpt>
      <trkpt lat="44.23729" lon="6.12865">
        <ele>1132</ele>
        <time>2010-01-01T03:24:36Z</time>
      </trkpt>
      <trkpt lat="44.23733" lon="6.12868">
        <ele>1132</ele>
        <time>2010-01-01T03:24:37Z</time>
      </trkpt>
      <trkpt lat="44.23738" lon="6.1287">
        <ele>1132</ele>
        <time>2010-01-01T03:24:39Z</time>
      </trkpt>
      <trkpt lat="44.23743" lon="6.12872">
        <ele>1132</ele>
        <time>2010-01-01T03:24:40Z</time>
      </trkpt>
      <trkpt lat="44.23747" lon="6.12874">
        <ele>1132</ele>
        <time>2010-01-01T03:24:41Z</time>
      </trkpt>
      <trkpt lat="44.23751" lon="6.12874">
        <ele>1132</ele>
        <time>2010-01-01T03:24:42Z</time>
      </trkpt>
      <trkpt lat="44.23755" lon="6.12874">
        <ele>1132</ele>
        <time>2010-01-01T03:24:43Z</time>
      </trkpt>
    </trkseg>
  </trk>
</gpx>